<?xml version="1.0" encoding="UTF-8" standalone="no" ?>
<gpx xmlns="http://www.topografix.com/GPX/1/1" xmlns:xsi="http://www.w3.org/2001/XMLSchema-instance" xsi:schemaLocation="http://www.topografix.com/GPX/1/1 http://www.topografix.com/GPX/1/1/gpx.xsd" version="1.1" creator="VisuGPX - https://www.visugpx.com">
  <metadata>
    <name>l hivernal 2017</name>
    <desc><![CDATA[les 15 premiers kilometres les plus dur;;]]></desc>
  </metadata>
  <trk>
    <name><![CDATA[L Hivernal 2017_course on GPSies.com]]></name>
    <trkseg>
      <trkpt lat="48.28318" lon="2.5973">
        <ele>202</ele>
        <time>2017-02-05T08:17:40Z</time>
      </trkpt>
      <trkpt lat="48.28324" lon="2.59753">
        <ele>202</ele>
        <time>2017-02-05T08:17:43Z</time>
      </trkpt>
      <trkpt lat="48.28328" lon="2.59763">
        <ele>201</ele>
        <time>2017-02-05T08:17:45Z</time>
      </trkpt>
      <trkpt lat="48.2833" lon="2.59768">
        <ele>202</ele>
        <time>2017-02-05T08:17:46Z</time>
      </trkpt>
      <trkpt lat="48.28329" lon="2.59777">
        <ele>202</ele>
        <time>2017-02-05T08:17:48Z</time>
      </trkpt>
      <trkpt lat="48.28326" lon="2.59782">
        <ele>202</ele>
        <time>2017-02-05T08:17:51Z</time>
      </trkpt>
      <trkpt lat="48.28326" lon="2.59782">
        <ele>203</ele>
        <time>2017-02-05T08:17:52Z</time>
      </trkpt>
      <trkpt lat="48.28324" lon="2.59782">
        <ele>203</ele>
        <time>2017-02-05T08:17:58Z</time>
      </trkpt>
      <trkpt lat="48.28323" lon="2.5978">
        <ele>203</ele>
        <time>2017-02-05T08:18:06Z</time>
      </trkpt>
      <trkpt lat="48.28322" lon="2.59779">
        <ele>203</ele>
        <time>2017-02-05T08:18:16Z</time>
      </trkpt>
      <trkpt lat="48.28321" lon="2.5978">
        <ele>203</ele>
        <time>2017-02-05T08:18:22Z</time>
      </trkpt>
      <trkpt lat="48.2832" lon="2.5978">
        <ele>203</ele>
        <time>2017-02-05T08:18:30Z</time>
      </trkpt>
      <trkpt lat="48.28319" lon="2.59782">
        <ele>203</ele>
        <time>2017-02-05T08:18:37Z</time>
      </trkpt>
      <trkpt lat="48.28318" lon="2.59783">
        <ele>203</ele>
        <time>2017-02-05T08:18:38Z</time>
      </trkpt>
      <trkpt lat="48.28318" lon="2.59783">
        <ele>203</ele>
        <time>2017-02-05T08:18:41Z</time>
      </trkpt>
      <trkpt lat="48.28317" lon="2.59781">
        <ele>203</ele>
        <time>2017-02-05T08:18:52Z</time>
      </trkpt>
      <trkpt lat="48.28316" lon="2.5978">
        <ele>203</ele>
        <time>2017-02-05T08:19:11Z</time>
      </trkpt>
      <trkpt lat="48.28316" lon="2.5978">
        <ele>202</ele>
        <time>2017-02-05T08:20:05Z</time>
      </trkpt>
      <trkpt lat="48.28316" lon="2.59781">
        <ele>202</ele>
        <time>2017-02-05T08:20:44Z</time>
      </trkpt>
      <trkpt lat="48.28316" lon="2.59781">
        <ele>202</ele>
        <time>2017-02-05T08:21:25Z</time>
      </trkpt>
      <trkpt lat="48.28316" lon="2.59781">
        <ele>202</ele>
        <time>2017-02-05T08:22:06Z</time>
      </trkpt>
      <trkpt lat="48.28317" lon="2.59781">
        <ele>202</ele>
        <time>2017-02-05T08:22:44Z</time>
      </trkpt>
      <trkpt lat="48.28317" lon="2.59781">
        <ele>202</ele>
        <time>2017-02-05T08:23:19Z</time>
      </trkpt>
      <trkpt lat="48.28317" lon="2.59781">
        <ele>202</ele>
        <time>2017-02-05T08:24:12Z</time>
      </trkpt>
      <trkpt lat="48.28317" lon="2.59783">
        <ele>202</ele>
        <time>2017-02-05T08:24:48Z</time>
      </trkpt>
      <trkpt lat="48.28317" lon="2.59783">
        <ele>202</ele>
        <time>2017-02-05T08:25:21Z</time>
      </trkpt>
      <trkpt lat="48.28317" lon="2.59783">
        <ele>203</ele>
        <time>2017-02-05T08:25:57Z</time>
      </trkpt>
      <trkpt lat="48.28318" lon="2.59783">
        <ele>203</ele>
        <time>2017-02-05T08:26:41Z</time>
      </trkpt>
      <trkpt lat="48.28318" lon="2.59783">
        <ele>202</ele>
        <time>2017-02-05T08:27:12Z</time>
      </trkpt>
      <trkpt lat="48.28319" lon="2.59786">
        <ele>202</ele>
        <time>2017-02-05T08:27:45Z</time>
      </trkpt>
      <trkpt lat="48.28319" lon="2.59786">
        <ele>202</ele>
        <time>2017-02-05T08:27:52Z</time>
      </trkpt>
      <trkpt lat="48.28319" lon="2.59786">
        <ele>202</ele>
        <time>2017-02-05T08:28:28Z</time>
      </trkpt>
      <trkpt lat="48.28319" lon="2.59786">
        <ele>202</ele>
        <time>2017-02-05T08:29:10Z</time>
      </trkpt>
      <trkpt lat="48.28319" lon="2.59786">
        <ele>202</ele>
        <time>2017-02-05T08:29:56Z</time>
      </trkpt>
      <trkpt lat="48.2832" lon="2.59786">
        <ele>202</ele>
        <time>2017-02-05T08:30:30Z</time>
      </trkpt>
      <trkpt lat="48.28319" lon="2.59788">
        <ele>202</ele>
        <time>2017-02-05T08:31:06Z</time>
      </trkpt>
      <trkpt lat="48.28315" lon="2.59791">
        <ele>203</ele>
        <time>2017-02-05T08:31:13Z</time>
      </trkpt>
      <trkpt lat="48.28314" lon="2.59791">
        <ele>203</ele>
        <time>2017-02-05T08:31:21Z</time>
      </trkpt>
      <trkpt lat="48.28314" lon="2.59791">
        <ele>203</ele>
        <time>2017-02-05T08:32:01Z</time>
      </trkpt>
      <trkpt lat="48.28314" lon="2.59792">
        <ele>203</ele>
        <time>2017-02-05T08:32:35Z</time>
      </trkpt>
      <trkpt lat="48.28314" lon="2.59792">
        <ele>203</ele>
        <time>2017-02-05T08:33:17Z</time>
      </trkpt>
      <trkpt lat="48.28315" lon="2.59792">
        <ele>203</ele>
        <time>2017-02-05T08:34:08Z</time>
      </trkpt>
      <trkpt lat="48.28314" lon="2.59792">
        <ele>204</ele>
        <time>2017-02-05T08:34:48Z</time>
      </trkpt>
      <trkpt lat="48.28314" lon="2.59792">
        <ele>204</ele>
        <time>2017-02-05T08:34:55Z</time>
      </trkpt>
      <trkpt lat="48.28313" lon="2.59793">
        <ele>203</ele>
        <time>2017-02-05T08:35:00Z</time>
      </trkpt>
      <trkpt lat="48.28313" lon="2.59793">
        <ele>204</ele>
        <time>2017-02-05T08:35:40Z</time>
      </trkpt>
      <trkpt lat="48.28312" lon="2.59794">
        <ele>204</ele>
        <time>2017-02-05T08:36:00Z</time>
      </trkpt>
      <trkpt lat="48.28312" lon="2.59795">
        <ele>204</ele>
        <time>2017-02-05T08:36:06Z</time>
      </trkpt>
      <trkpt lat="48.28312" lon="2.59795">
        <ele>204</ele>
        <time>2017-02-05T08:36:46Z</time>
      </trkpt>
      <trkpt lat="48.28309" lon="2.59797">
        <ele>204</ele>
        <time>2017-02-05T08:37:18Z</time>
      </trkpt>
      <trkpt lat="48.283" lon="2.59806">
        <ele>205</ele>
        <time>2017-02-05T08:37:23Z</time>
      </trkpt>
      <trkpt lat="48.28287" lon="2.59817">
        <ele>205</ele>
        <time>2017-02-05T08:37:29Z</time>
      </trkpt>
      <trkpt lat="48.28279" lon="2.59823">
        <ele>205</ele>
        <time>2017-02-05T08:37:32Z</time>
      </trkpt>
      <trkpt lat="48.28262" lon="2.59833">
        <ele>206</ele>
        <time>2017-02-05T08:37:38Z</time>
      </trkpt>
      <trkpt lat="48.28259" lon="2.59835">
        <ele>206</ele>
        <time>2017-02-05T08:37:40Z</time>
      </trkpt>
      <trkpt lat="48.28245" lon="2.59844">
        <ele>206</ele>
        <time>2017-02-05T08:37:45Z</time>
      </trkpt>
      <trkpt lat="48.28234" lon="2.5985">
        <ele>207</ele>
        <time>2017-02-05T08:37:49Z</time>
      </trkpt>
      <trkpt lat="48.28216" lon="2.5986">
        <ele>207</ele>
        <time>2017-02-05T08:37:55Z</time>
      </trkpt>
      <trkpt lat="48.28213" lon="2.59861">
        <ele>208</ele>
        <time>2017-02-05T08:37:56Z</time>
      </trkpt>
      <trkpt lat="48.28192" lon="2.59866">
        <ele>208</ele>
        <time>2017-02-05T08:38:03Z</time>
      </trkpt>
      <trkpt lat="48.2819" lon="2.59864">
        <ele>209</ele>
        <time>2017-02-05T08:38:04Z</time>
      </trkpt>
      <trkpt lat="48.28174" lon="2.59854">
        <ele>210</ele>
        <time>2017-02-05T08:38:09Z</time>
      </trkpt>
      <trkpt lat="48.28166" lon="2.59847">
        <ele>210</ele>
        <time>2017-02-05T08:38:12Z</time>
      </trkpt>
      <trkpt lat="48.28157" lon="2.5984">
        <ele>211</ele>
        <time>2017-02-05T08:38:16Z</time>
      </trkpt>
      <trkpt lat="48.28143" lon="2.59831">
        <ele>211</ele>
        <time>2017-02-05T08:38:21Z</time>
      </trkpt>
      <trkpt lat="48.2813" lon="2.59827">
        <ele>211</ele>
        <time>2017-02-05T08:38:25Z</time>
      </trkpt>
      <trkpt lat="48.28116" lon="2.59825">
        <ele>212</ele>
        <time>2017-02-05T08:38:29Z</time>
      </trkpt>
      <trkpt lat="48.28103" lon="2.59823">
        <ele>213</ele>
        <time>2017-02-05T08:38:33Z</time>
      </trkpt>
      <trkpt lat="48.28096" lon="2.59822">
        <ele>213</ele>
        <time>2017-02-05T08:38:35Z</time>
      </trkpt>
      <trkpt lat="48.28081" lon="2.59819">
        <ele>214</ele>
        <time>2017-02-05T08:38:40Z</time>
      </trkpt>
      <trkpt lat="48.2807" lon="2.59814">
        <ele>214</ele>
        <time>2017-02-05T08:38:44Z</time>
      </trkpt>
      <trkpt lat="48.28069" lon="2.59812">
        <ele>215</ele>
        <time>2017-02-05T08:38:45Z</time>
      </trkpt>
      <trkpt lat="48.28058" lon="2.59796">
        <ele>215</ele>
        <time>2017-02-05T08:38:52Z</time>
      </trkpt>
      <trkpt lat="48.28055" lon="2.5979">
        <ele>216</ele>
        <time>2017-02-05T08:38:54Z</time>
      </trkpt>
      <trkpt lat="48.28048" lon="2.59773">
        <ele>216</ele>
        <time>2017-02-05T08:39:00Z</time>
      </trkpt>
      <trkpt lat="48.28045" lon="2.59766">
        <ele>217</ele>
        <time>2017-02-05T08:39:02Z</time>
      </trkpt>
      <trkpt lat="48.28041" lon="2.59758">
        <ele>217</ele>
        <time>2017-02-05T08:39:05Z</time>
      </trkpt>
      <trkpt lat="48.28036" lon="2.59747">
        <ele>218</ele>
        <time>2017-02-05T08:39:09Z</time>
      </trkpt>
      <trkpt lat="48.28035" lon="2.59745">
        <ele>218</ele>
        <time>2017-02-05T08:39:10Z</time>
      </trkpt>
      <trkpt lat="48.28029" lon="2.59733">
        <ele>218</ele>
        <time>2017-02-05T08:39:15Z</time>
      </trkpt>
      <trkpt lat="48.28025" lon="2.59723">
        <ele>219</ele>
        <time>2017-02-05T08:39:18Z</time>
      </trkpt>
      <trkpt lat="48.28021" lon="2.59714">
        <ele>219</ele>
        <time>2017-02-05T08:39:21Z</time>
      </trkpt>
      <trkpt lat="48.28012" lon="2.59702">
        <ele>220</ele>
        <time>2017-02-05T08:39:26Z</time>
      </trkpt>
      <trkpt lat="48.2801" lon="2.59699">
        <ele>220</ele>
        <time>2017-02-05T08:39:27Z</time>
      </trkpt>
      <trkpt lat="48.28001" lon="2.59684">
        <ele>221</ele>
        <time>2017-02-05T08:39:33Z</time>
      </trkpt>
      <trkpt lat="48.27997" lon="2.59681">
        <ele>221</ele>
        <time>2017-02-05T08:39:35Z</time>
      </trkpt>
      <trkpt lat="48.27992" lon="2.59672">
        <ele>222</ele>
        <time>2017-02-05T08:39:39Z</time>
      </trkpt>
      <trkpt lat="48.2799" lon="2.5967">
        <ele>222</ele>
        <time>2017-02-05T08:39:40Z</time>
      </trkpt>
      <trkpt lat="48.27982" lon="2.59659">
        <ele>223</ele>
        <time>2017-02-05T08:39:44Z</time>
      </trkpt>
      <trkpt lat="48.2798" lon="2.59658">
        <ele>223</ele>
        <time>2017-02-05T08:39:45Z</time>
      </trkpt>
      <trkpt lat="48.27972" lon="2.59648">
        <ele>224</ele>
        <time>2017-02-05T08:39:50Z</time>
      </trkpt>
      <trkpt lat="48.27969" lon="2.59644">
        <ele>224</ele>
        <time>2017-02-05T08:39:52Z</time>
      </trkpt>
      <trkpt lat="48.27965" lon="2.59636">
        <ele>225</ele>
        <time>2017-02-05T08:39:56Z</time>
      </trkpt>
      <trkpt lat="48.2796" lon="2.59629">
        <ele>225</ele>
        <time>2017-02-05T08:40:00Z</time>
      </trkpt>
      <trkpt lat="48.27957" lon="2.59623">
        <ele>226</ele>
        <time>2017-02-05T08:40:04Z</time>
      </trkpt>
      <trkpt lat="48.27953" lon="2.59616">
        <ele>226</ele>
        <time>2017-02-05T08:40:08Z</time>
      </trkpt>
      <trkpt lat="48.2795" lon="2.59613">
        <ele>227</ele>
        <time>2017-02-05T08:40:10Z</time>
      </trkpt>
      <trkpt lat="48.27948" lon="2.59612">
        <ele>227</ele>
        <time>2017-02-05T08:40:13Z</time>
      </trkpt>
      <trkpt lat="48.27943" lon="2.59604">
        <ele>228</ele>
        <time>2017-02-05T08:40:17Z</time>
      </trkpt>
      <trkpt lat="48.27941" lon="2.59601">
        <ele>229</ele>
        <time>2017-02-05T08:40:19Z</time>
      </trkpt>
      <trkpt lat="48.27938" lon="2.59595">
        <ele>230</ele>
        <time>2017-02-05T08:40:23Z</time>
      </trkpt>
      <trkpt lat="48.27938" lon="2.59594">
        <ele>230</ele>
        <time>2017-02-05T08:40:24Z</time>
      </trkpt>
      <trkpt lat="48.27934" lon="2.59588">
        <ele>231</ele>
        <time>2017-02-05T08:40:28Z</time>
      </trkpt>
      <trkpt lat="48.27934" lon="2.59587">
        <ele>231</ele>
        <time>2017-02-05T08:40:29Z</time>
      </trkpt>
      <trkpt lat="48.27935" lon="2.59584">
        <ele>232</ele>
        <time>2017-02-05T08:40:33Z</time>
      </trkpt>
      <trkpt lat="48.27935" lon="2.59584">
        <ele>232</ele>
        <time>2017-02-05T08:40:41Z</time>
      </trkpt>
      <trkpt lat="48.27934" lon="2.59581">
        <ele>232</ele>
        <time>2017-02-05T08:40:43Z</time>
      </trkpt>
      <trkpt lat="48.27933" lon="2.59577">
        <ele>233</ele>
        <time>2017-02-05T08:40:46Z</time>
      </trkpt>
      <trkpt lat="48.2793" lon="2.59568">
        <ele>234</ele>
        <time>2017-02-05T08:40:52Z</time>
      </trkpt>
      <trkpt lat="48.27929" lon="2.59566">
        <ele>234</ele>
        <time>2017-02-05T08:40:53Z</time>
      </trkpt>
      <trkpt lat="48.27929" lon="2.5956">
        <ele>235</ele>
        <time>2017-02-05T08:40:58Z</time>
      </trkpt>
      <trkpt lat="48.27929" lon="2.59558">
        <ele>236</ele>
        <time>2017-02-05T08:41:00Z</time>
      </trkpt>
      <trkpt lat="48.27928" lon="2.59555">
        <ele>236</ele>
        <time>2017-02-05T08:41:04Z</time>
      </trkpt>
      <trkpt lat="48.27929" lon="2.59552">
        <ele>236</ele>
        <time>2017-02-05T08:41:06Z</time>
      </trkpt>
      <trkpt lat="48.27929" lon="2.59549">
        <ele>237</ele>
        <time>2017-02-05T08:41:07Z</time>
      </trkpt>
      <trkpt lat="48.27928" lon="2.59546">
        <ele>237</ele>
        <time>2017-02-05T08:41:11Z</time>
      </trkpt>
      <trkpt lat="48.27929" lon="2.59542">
        <ele>238</ele>
        <time>2017-02-05T08:41:14Z</time>
      </trkpt>
      <trkpt lat="48.2793" lon="2.59541">
        <ele>238</ele>
        <time>2017-02-05T08:41:33Z</time>
      </trkpt>
      <trkpt lat="48.27931" lon="2.5954">
        <ele>238</ele>
        <time>2017-02-05T08:41:34Z</time>
      </trkpt>
      <trkpt lat="48.27936" lon="2.59538">
        <ele>238</ele>
        <time>2017-02-05T08:41:37Z</time>
      </trkpt>
      <trkpt lat="48.27938" lon="2.59536">
        <ele>239</ele>
        <time>2017-02-05T08:41:38Z</time>
      </trkpt>
      <trkpt lat="48.27941" lon="2.59534">
        <ele>239</ele>
        <time>2017-02-05T08:41:41Z</time>
      </trkpt>
      <trkpt lat="48.27944" lon="2.59531">
        <ele>240</ele>
        <time>2017-02-05T08:41:46Z</time>
      </trkpt>
      <trkpt lat="48.27947" lon="2.59527">
        <ele>240</ele>
        <time>2017-02-05T08:41:48Z</time>
      </trkpt>
      <trkpt lat="48.2795" lon="2.5952">
        <ele>241</ele>
        <time>2017-02-05T08:41:52Z</time>
      </trkpt>
      <trkpt lat="48.27952" lon="2.59516">
        <ele>241</ele>
        <time>2017-02-05T08:41:54Z</time>
      </trkpt>
      <trkpt lat="48.27952" lon="2.59514">
        <ele>241</ele>
        <time>2017-02-05T08:41:55Z</time>
      </trkpt>
      <trkpt lat="48.27953" lon="2.59509">
        <ele>242</ele>
        <time>2017-02-05T08:41:57Z</time>
      </trkpt>
      <trkpt lat="48.27952" lon="2.59502">
        <ele>242</ele>
        <time>2017-02-05T08:42:00Z</time>
      </trkpt>
      <trkpt lat="48.27951" lon="2.59501">
        <ele>243</ele>
        <time>2017-02-05T08:42:01Z</time>
      </trkpt>
      <trkpt lat="48.27949" lon="2.59498">
        <ele>243</ele>
        <time>2017-02-05T08:42:03Z</time>
      </trkpt>
      <trkpt lat="48.27949" lon="2.59496">
        <ele>243</ele>
        <time>2017-02-05T08:42:04Z</time>
      </trkpt>
      <trkpt lat="48.27947" lon="2.59493">
        <ele>244</ele>
        <time>2017-02-05T08:42:06Z</time>
      </trkpt>
      <trkpt lat="48.27947" lon="2.59492">
        <ele>244</ele>
        <time>2017-02-05T08:42:07Z</time>
      </trkpt>
      <trkpt lat="48.27945" lon="2.59488">
        <ele>245</ele>
        <time>2017-02-05T08:42:09Z</time>
      </trkpt>
      <trkpt lat="48.27944" lon="2.59485">
        <ele>245</ele>
        <time>2017-02-05T08:42:11Z</time>
      </trkpt>
      <trkpt lat="48.27944" lon="2.59483">
        <ele>245</ele>
        <time>2017-02-05T08:42:12Z</time>
      </trkpt>
      <trkpt lat="48.27944" lon="2.59481">
        <ele>246</ele>
        <time>2017-02-05T08:42:13Z</time>
      </trkpt>
      <trkpt lat="48.27944" lon="2.59468">
        <ele>246</ele>
        <time>2017-02-05T08:42:20Z</time>
      </trkpt>
      <trkpt lat="48.27943" lon="2.59466">
        <ele>247</ele>
        <time>2017-02-05T08:42:26Z</time>
      </trkpt>
      <trkpt lat="48.27943" lon="2.59465">
        <ele>247</ele>
        <time>2017-02-05T08:42:50Z</time>
      </trkpt>
      <trkpt lat="48.27942" lon="2.59458">
        <ele>247</ele>
        <time>2017-02-05T08:42:53Z</time>
      </trkpt>
      <trkpt lat="48.27941" lon="2.59453">
        <ele>247</ele>
        <time>2017-02-05T08:42:55Z</time>
      </trkpt>
      <trkpt lat="48.2794" lon="2.59441">
        <ele>247</ele>
        <time>2017-02-05T08:43:00Z</time>
      </trkpt>
      <trkpt lat="48.27935" lon="2.59416">
        <ele>247</ele>
        <time>2017-02-05T08:43:09Z</time>
      </trkpt>
      <trkpt lat="48.27935" lon="2.59409">
        <ele>248</ele>
        <time>2017-02-05T08:43:12Z</time>
      </trkpt>
      <trkpt lat="48.27936" lon="2.59404">
        <ele>248</ele>
        <time>2017-02-05T08:43:14Z</time>
      </trkpt>
      <trkpt lat="48.27937" lon="2.59402">
        <ele>248</ele>
        <time>2017-02-05T08:43:15Z</time>
      </trkpt>
      <trkpt lat="48.27947" lon="2.594">
        <ele>248</ele>
        <time>2017-02-05T08:43:20Z</time>
      </trkpt>
      <trkpt lat="48.27962" lon="2.59394">
        <ele>248</ele>
        <time>2017-02-05T08:43:28Z</time>
      </trkpt>
      <trkpt lat="48.27977" lon="2.59387">
        <ele>248</ele>
        <time>2017-02-05T08:43:35Z</time>
      </trkpt>
      <trkpt lat="48.27995" lon="2.59377">
        <ele>249</ele>
        <time>2017-02-05T08:43:42Z</time>
      </trkpt>
      <trkpt lat="48.28019" lon="2.59368">
        <ele>249</ele>
        <time>2017-02-05T08:43:49Z</time>
      </trkpt>
      <trkpt lat="48.28043" lon="2.59356">
        <ele>249</ele>
        <time>2017-02-05T08:43:55Z</time>
      </trkpt>
      <trkpt lat="48.28058" lon="2.59342">
        <ele>247</ele>
        <time>2017-02-05T08:43:59Z</time>
      </trkpt>
      <trkpt lat="48.2806" lon="2.5934">
        <ele>247</ele>
        <time>2017-02-05T08:44:00Z</time>
      </trkpt>
      <trkpt lat="48.28063" lon="2.59337">
        <ele>246</ele>
        <time>2017-02-05T08:44:02Z</time>
      </trkpt>
      <trkpt lat="48.28069" lon="2.59335">
        <ele>245</ele>
        <time>2017-02-05T08:44:05Z</time>
      </trkpt>
      <trkpt lat="48.28072" lon="2.59334">
        <ele>243</ele>
        <time>2017-02-05T08:44:07Z</time>
      </trkpt>
      <trkpt lat="48.28076" lon="2.59331">
        <ele>242</ele>
        <time>2017-02-05T08:44:09Z</time>
      </trkpt>
      <trkpt lat="48.2808" lon="2.59325">
        <ele>241</ele>
        <time>2017-02-05T08:44:11Z</time>
      </trkpt>
      <trkpt lat="48.28085" lon="2.59319">
        <ele>240</ele>
        <time>2017-02-05T08:44:13Z</time>
      </trkpt>
      <trkpt lat="48.28087" lon="2.59318">
        <ele>239</ele>
        <time>2017-02-05T08:44:14Z</time>
      </trkpt>
      <trkpt lat="48.28089" lon="2.59316">
        <ele>239</ele>
        <time>2017-02-05T08:44:15Z</time>
      </trkpt>
      <trkpt lat="48.28092" lon="2.59313">
        <ele>237</ele>
        <time>2017-02-05T08:44:17Z</time>
      </trkpt>
      <trkpt lat="48.28098" lon="2.59314">
        <ele>236</ele>
        <time>2017-02-05T08:44:19Z</time>
      </trkpt>
      <trkpt lat="48.28103" lon="2.59313">
        <ele>234</ele>
        <time>2017-02-05T08:44:21Z</time>
      </trkpt>
      <trkpt lat="48.28105" lon="2.59313">
        <ele>234</ele>
        <time>2017-02-05T08:44:22Z</time>
      </trkpt>
      <trkpt lat="48.28107" lon="2.59312">
        <ele>233</ele>
        <time>2017-02-05T08:44:23Z</time>
      </trkpt>
      <trkpt lat="48.28109" lon="2.59312">
        <ele>232</ele>
        <time>2017-02-05T08:44:24Z</time>
      </trkpt>
      <trkpt lat="48.28111" lon="2.5931">
        <ele>232</ele>
        <time>2017-02-05T08:44:25Z</time>
      </trkpt>
      <trkpt lat="48.28117" lon="2.59307">
        <ele>230</ele>
        <time>2017-02-05T08:44:27Z</time>
      </trkpt>
      <trkpt lat="48.2812" lon="2.59305">
        <ele>230</ele>
        <time>2017-02-05T08:44:28Z</time>
      </trkpt>
      <trkpt lat="48.28123" lon="2.59301">
        <ele>228</ele>
        <time>2017-02-05T08:44:29Z</time>
      </trkpt>
      <trkpt lat="48.28124" lon="2.59297">
        <ele>228</ele>
        <time>2017-02-05T08:44:30Z</time>
      </trkpt>
      <trkpt lat="48.28129" lon="2.59289">
        <ele>228</ele>
        <time>2017-02-05T08:44:32Z</time>
      </trkpt>
      <trkpt lat="48.28135" lon="2.5929">
        <ele>227</ele>
        <time>2017-02-05T08:44:34Z</time>
      </trkpt>
      <trkpt lat="48.28139" lon="2.59292">
        <ele>227</ele>
        <time>2017-02-05T08:44:35Z</time>
      </trkpt>
      <trkpt lat="48.28144" lon="2.59295">
        <ele>227</ele>
        <time>2017-02-05T08:44:36Z</time>
      </trkpt>
      <trkpt lat="48.28156" lon="2.59302">
        <ele>225</ele>
        <time>2017-02-05T08:44:38Z</time>
      </trkpt>
      <trkpt lat="48.28165" lon="2.59312">
        <ele>224</ele>
        <time>2017-02-05T08:44:40Z</time>
      </trkpt>
      <trkpt lat="48.28179" lon="2.59316">
        <ele>223</ele>
        <time>2017-02-05T08:44:42Z</time>
      </trkpt>
      <trkpt lat="48.28187" lon="2.59318">
        <ele>222</ele>
        <time>2017-02-05T08:44:43Z</time>
      </trkpt>
      <trkpt lat="48.28194" lon="2.59321">
        <ele>222</ele>
        <time>2017-02-05T08:44:44Z</time>
      </trkpt>
      <trkpt lat="48.28208" lon="2.59329">
        <ele>221</ele>
        <time>2017-02-05T08:44:46Z</time>
      </trkpt>
      <trkpt lat="48.28214" lon="2.59329">
        <ele>221</ele>
        <time>2017-02-05T08:44:47Z</time>
      </trkpt>
      <trkpt lat="48.28221" lon="2.59326">
        <ele>220</ele>
        <time>2017-02-05T08:44:48Z</time>
      </trkpt>
      <trkpt lat="48.28226" lon="2.59324">
        <ele>220</ele>
        <time>2017-02-05T08:44:49Z</time>
      </trkpt>
      <trkpt lat="48.2823" lon="2.59319">
        <ele>219</ele>
        <time>2017-02-05T08:44:50Z</time>
      </trkpt>
      <trkpt lat="48.28236" lon="2.59308">
        <ele>218</ele>
        <time>2017-02-05T08:44:52Z</time>
      </trkpt>
      <trkpt lat="48.28244" lon="2.59295">
        <ele>217</ele>
        <time>2017-02-05T08:44:55Z</time>
      </trkpt>
      <trkpt lat="48.28246" lon="2.59289">
        <ele>216</ele>
        <time>2017-02-05T08:44:57Z</time>
      </trkpt>
      <trkpt lat="48.28246" lon="2.59289">
        <ele>216</ele>
        <time>2017-02-05T08:44:59Z</time>
      </trkpt>
      <trkpt lat="48.28247" lon="2.59287">
        <ele>216</ele>
        <time>2017-02-05T08:45:02Z</time>
      </trkpt>
      <trkpt lat="48.28248" lon="2.59279">
        <ele>216</ele>
        <time>2017-02-05T08:45:05Z</time>
      </trkpt>
      <trkpt lat="48.28248" lon="2.59274">
        <ele>216</ele>
        <time>2017-02-05T08:45:06Z</time>
      </trkpt>
      <trkpt lat="48.28242" lon="2.59253">
        <ele>217</ele>
        <time>2017-02-05T08:45:12Z</time>
      </trkpt>
      <trkpt lat="48.28238" lon="2.59243">
        <ele>217</ele>
        <time>2017-02-05T08:45:17Z</time>
      </trkpt>
      <trkpt lat="48.28238" lon="2.59241">
        <ele>217</ele>
        <time>2017-02-05T08:45:18Z</time>
      </trkpt>
      <trkpt lat="48.28241" lon="2.59227">
        <ele>218</ele>
        <time>2017-02-05T08:45:22Z</time>
      </trkpt>
      <trkpt lat="48.28241" lon="2.59206">
        <ele>218</ele>
        <time>2017-02-05T08:45:27Z</time>
      </trkpt>
      <trkpt lat="48.28239" lon="2.5919">
        <ele>218</ele>
        <time>2017-02-05T08:45:31Z</time>
      </trkpt>
      <trkpt lat="48.28238" lon="2.59183">
        <ele>218</ele>
        <time>2017-02-05T08:45:33Z</time>
      </trkpt>
      <trkpt lat="48.28235" lon="2.59163">
        <ele>219</ele>
        <time>2017-02-05T08:45:39Z</time>
      </trkpt>
      <trkpt lat="48.28238" lon="2.59154">
        <ele>219</ele>
        <time>2017-02-05T08:45:42Z</time>
      </trkpt>
      <trkpt lat="48.2824" lon="2.59151">
        <ele>219</ele>
        <time>2017-02-05T08:45:43Z</time>
      </trkpt>
      <trkpt lat="48.28255" lon="2.59127">
        <ele>218</ele>
        <time>2017-02-05T08:45:48Z</time>
      </trkpt>
      <trkpt lat="48.28267" lon="2.59108">
        <ele>217</ele>
        <time>2017-02-05T08:45:52Z</time>
      </trkpt>
      <trkpt lat="48.28277" lon="2.59092">
        <ele>216</ele>
        <time>2017-02-05T08:45:55Z</time>
      </trkpt>
      <trkpt lat="48.28288" lon="2.59076">
        <ele>216</ele>
        <time>2017-02-05T08:45:58Z</time>
      </trkpt>
      <trkpt lat="48.28301" lon="2.59054">
        <ele>215</ele>
        <time>2017-02-05T08:46:02Z</time>
      </trkpt>
      <trkpt lat="48.28308" lon="2.59044">
        <ele>214</ele>
        <time>2017-02-05T08:46:04Z</time>
      </trkpt>
      <trkpt lat="48.28318" lon="2.59029">
        <ele>214</ele>
        <time>2017-02-05T08:46:07Z</time>
      </trkpt>
      <trkpt lat="48.28322" lon="2.59023">
        <ele>214</ele>
        <time>2017-02-05T08:46:08Z</time>
      </trkpt>
      <trkpt lat="48.28332" lon="2.59007">
        <ele>213</ele>
        <time>2017-02-05T08:46:11Z</time>
      </trkpt>
      <trkpt lat="48.28338" lon="2.58998">
        <ele>213</ele>
        <time>2017-02-05T08:46:13Z</time>
      </trkpt>
      <trkpt lat="48.28341" lon="2.58993">
        <ele>214</ele>
        <time>2017-02-05T08:46:14Z</time>
      </trkpt>
      <trkpt lat="48.2836" lon="2.58965">
        <ele>215</ele>
        <time>2017-02-05T08:46:20Z</time>
      </trkpt>
      <trkpt lat="48.28362" lon="2.58961">
        <ele>214</ele>
        <time>2017-02-05T08:46:21Z</time>
      </trkpt>
      <trkpt lat="48.2838" lon="2.58934">
        <ele>216</ele>
        <time>2017-02-05T08:46:28Z</time>
      </trkpt>
      <trkpt lat="48.28382" lon="2.5893">
        <ele>216</ele>
        <time>2017-02-05T08:46:29Z</time>
      </trkpt>
      <trkpt lat="48.28395" lon="2.58911">
        <ele>216</ele>
        <time>2017-02-05T08:46:35Z</time>
      </trkpt>
      <trkpt lat="48.28401" lon="2.58903">
        <ele>217</ele>
        <time>2017-02-05T08:46:38Z</time>
      </trkpt>
      <trkpt lat="48.28407" lon="2.58894">
        <ele>218</ele>
        <time>2017-02-05T08:46:42Z</time>
      </trkpt>
      <trkpt lat="48.28413" lon="2.58888">
        <ele>218</ele>
        <time>2017-02-05T08:46:46Z</time>
      </trkpt>
      <trkpt lat="48.28416" lon="2.58884">
        <ele>219</ele>
        <time>2017-02-05T08:46:48Z</time>
      </trkpt>
      <trkpt lat="48.28419" lon="2.58876">
        <ele>219</ele>
        <time>2017-02-05T08:46:51Z</time>
      </trkpt>
      <trkpt lat="48.28422" lon="2.58868">
        <ele>220</ele>
        <time>2017-02-05T08:46:55Z</time>
      </trkpt>
      <trkpt lat="48.28424" lon="2.58861">
        <ele>221</ele>
        <time>2017-02-05T08:47:00Z</time>
      </trkpt>
      <trkpt lat="48.28429" lon="2.58863">
        <ele>222</ele>
        <time>2017-02-05T08:47:06Z</time>
      </trkpt>
      <trkpt lat="48.28439" lon="2.58874">
        <ele>221</ele>
        <time>2017-02-05T08:47:10Z</time>
      </trkpt>
      <trkpt lat="48.28447" lon="2.58887">
        <ele>220</ele>
        <time>2017-02-05T08:47:14Z</time>
      </trkpt>
      <trkpt lat="48.28456" lon="2.58893">
        <ele>219</ele>
        <time>2017-02-05T08:47:18Z</time>
      </trkpt>
      <trkpt lat="48.28465" lon="2.58904">
        <ele>219</ele>
        <time>2017-02-05T08:47:25Z</time>
      </trkpt>
      <trkpt lat="48.28468" lon="2.58904">
        <ele>219</ele>
        <time>2017-02-05T08:47:32Z</time>
      </trkpt>
      <trkpt lat="48.28472" lon="2.58902">
        <ele>221</ele>
        <time>2017-02-05T08:47:38Z</time>
      </trkpt>
      <trkpt lat="48.28478" lon="2.58898">
        <ele>221</ele>
        <time>2017-02-05T08:47:44Z</time>
      </trkpt>
      <trkpt lat="48.28481" lon="2.58897">
        <ele>222</ele>
        <time>2017-02-05T08:47:46Z</time>
      </trkpt>
      <trkpt lat="48.28484" lon="2.58893">
        <ele>222</ele>
        <time>2017-02-05T08:47:51Z</time>
      </trkpt>
      <trkpt lat="48.2849" lon="2.58886">
        <ele>222</ele>
        <time>2017-02-05T08:47:55Z</time>
      </trkpt>
      <trkpt lat="48.28492" lon="2.58887">
        <ele>222</ele>
        <time>2017-02-05T08:47:56Z</time>
      </trkpt>
      <trkpt lat="48.28498" lon="2.58895">
        <ele>222</ele>
        <time>2017-02-05T08:47:59Z</time>
      </trkpt>
      <trkpt lat="48.2851" lon="2.58914">
        <ele>220</ele>
        <time>2017-02-05T08:48:02Z</time>
      </trkpt>
      <trkpt lat="48.28513" lon="2.58922">
        <ele>220</ele>
        <time>2017-02-05T08:48:03Z</time>
      </trkpt>
      <trkpt lat="48.28516" lon="2.58928">
        <ele>219</ele>
        <time>2017-02-05T08:48:04Z</time>
      </trkpt>
      <trkpt lat="48.28518" lon="2.58933">
        <ele>218</ele>
        <time>2017-02-05T08:48:05Z</time>
      </trkpt>
      <trkpt lat="48.28518" lon="2.58936">
        <ele>218</ele>
        <time>2017-02-05T08:48:06Z</time>
      </trkpt>
      <trkpt lat="48.28523" lon="2.58945">
        <ele>217</ele>
        <time>2017-02-05T08:48:09Z</time>
      </trkpt>
      <trkpt lat="48.28525" lon="2.58946">
        <ele>217</ele>
        <time>2017-02-05T08:48:10Z</time>
      </trkpt>
      <trkpt lat="48.2853" lon="2.58941">
        <ele>216</ele>
        <time>2017-02-05T08:48:13Z</time>
      </trkpt>
      <trkpt lat="48.28531" lon="2.58938">
        <ele>216</ele>
        <time>2017-02-05T08:48:14Z</time>
      </trkpt>
      <trkpt lat="48.28536" lon="2.5892">
        <ele>217</ele>
        <time>2017-02-05T08:48:20Z</time>
      </trkpt>
      <trkpt lat="48.28541" lon="2.58904">
        <ele>218</ele>
        <time>2017-02-05T08:48:25Z</time>
      </trkpt>
      <trkpt lat="48.28542" lon="2.58901">
        <ele>218</ele>
        <time>2017-02-05T08:48:26Z</time>
      </trkpt>
      <trkpt lat="48.28546" lon="2.5889">
        <ele>219</ele>
        <time>2017-02-05T08:48:30Z</time>
      </trkpt>
      <trkpt lat="48.28547" lon="2.58887">
        <ele>219</ele>
        <time>2017-02-05T08:48:31Z</time>
      </trkpt>
      <trkpt lat="48.2855" lon="2.58876">
        <ele>220</ele>
        <time>2017-02-05T08:48:35Z</time>
      </trkpt>
      <trkpt lat="48.2855" lon="2.58871">
        <ele>221</ele>
        <time>2017-02-05T08:48:37Z</time>
      </trkpt>
      <trkpt lat="48.28549" lon="2.5887">
        <ele>221</ele>
        <time>2017-02-05T08:48:38Z</time>
      </trkpt>
      <trkpt lat="48.28549" lon="2.58867">
        <ele>221</ele>
        <time>2017-02-05T08:48:40Z</time>
      </trkpt>
      <trkpt lat="48.28549" lon="2.58866">
        <ele>222</ele>
        <time>2017-02-05T08:48:43Z</time>
      </trkpt>
      <trkpt lat="48.2855" lon="2.58861">
        <ele>223</ele>
        <time>2017-02-05T08:48:46Z</time>
      </trkpt>
      <trkpt lat="48.2855" lon="2.58857">
        <ele>224</ele>
        <time>2017-02-05T08:48:49Z</time>
      </trkpt>
      <trkpt lat="48.28548" lon="2.58852">
        <ele>224</ele>
        <time>2017-02-05T08:48:54Z</time>
      </trkpt>
      <trkpt lat="48.28547" lon="2.58847">
        <ele>225</ele>
        <time>2017-02-05T08:48:56Z</time>
      </trkpt>
      <trkpt lat="48.28547" lon="2.58841">
        <ele>225</ele>
        <time>2017-02-05T08:49:00Z</time>
      </trkpt>
      <trkpt lat="48.28547" lon="2.58839">
        <ele>226</ele>
        <time>2017-02-05T08:49:02Z</time>
      </trkpt>
      <trkpt lat="48.28549" lon="2.58831">
        <ele>227</ele>
        <time>2017-02-05T08:49:08Z</time>
      </trkpt>
      <trkpt lat="48.28548" lon="2.58828">
        <ele>227</ele>
        <time>2017-02-05T08:49:12Z</time>
      </trkpt>
      <trkpt lat="48.28549" lon="2.58824">
        <ele>228</ele>
        <time>2017-02-05T08:49:13Z</time>
      </trkpt>
      <trkpt lat="48.28549" lon="2.58824">
        <ele>228</ele>
        <time>2017-02-05T08:49:15Z</time>
      </trkpt>
      <trkpt lat="48.28547" lon="2.58817">
        <ele>229</ele>
        <time>2017-02-05T08:49:19Z</time>
      </trkpt>
      <trkpt lat="48.28546" lon="2.58813">
        <ele>229</ele>
        <time>2017-02-05T08:49:20Z</time>
      </trkpt>
      <trkpt lat="48.28545" lon="2.58806">
        <ele>230</ele>
        <time>2017-02-05T08:49:24Z</time>
      </trkpt>
      <trkpt lat="48.28544" lon="2.58803">
        <ele>231</ele>
        <time>2017-02-05T08:49:26Z</time>
      </trkpt>
      <trkpt lat="48.28544" lon="2.58803">
        <ele>231</ele>
        <time>2017-02-05T08:49:29Z</time>
      </trkpt>
      <trkpt lat="48.28544" lon="2.58795">
        <ele>232</ele>
        <time>2017-02-05T08:49:32Z</time>
      </trkpt>
      <trkpt lat="48.28544" lon="2.58796">
        <ele>232</ele>
        <time>2017-02-05T08:49:33Z</time>
      </trkpt>
      <trkpt lat="48.28542" lon="2.58775">
        <ele>233</ele>
        <time>2017-02-05T08:49:37Z</time>
      </trkpt>
      <trkpt lat="48.28543" lon="2.58776">
        <ele>234</ele>
        <time>2017-02-05T08:49:38Z</time>
      </trkpt>
      <trkpt lat="48.28544" lon="2.58757">
        <ele>235</ele>
        <time>2017-02-05T08:49:41Z</time>
      </trkpt>
      <trkpt lat="48.28543" lon="2.58747">
        <ele>236</ele>
        <time>2017-02-05T08:49:45Z</time>
      </trkpt>
      <trkpt lat="48.28543" lon="2.58743">
        <ele>236</ele>
        <time>2017-02-05T08:49:47Z</time>
      </trkpt>
      <trkpt lat="48.28545" lon="2.58739">
        <ele>237</ele>
        <time>2017-02-05T08:49:50Z</time>
      </trkpt>
      <trkpt lat="48.28549" lon="2.58729">
        <ele>237</ele>
        <time>2017-02-05T08:49:53Z</time>
      </trkpt>
      <trkpt lat="48.2855" lon="2.58725">
        <ele>238</ele>
        <time>2017-02-05T08:49:55Z</time>
      </trkpt>
      <trkpt lat="48.28551" lon="2.58719">
        <ele>239</ele>
        <time>2017-02-05T08:49:59Z</time>
      </trkpt>
      <trkpt lat="48.28552" lon="2.58718">
        <ele>239</ele>
        <time>2017-02-05T08:50:06Z</time>
      </trkpt>
      <trkpt lat="48.28552" lon="2.58716">
        <ele>240</ele>
        <time>2017-02-05T08:50:10Z</time>
      </trkpt>
      <trkpt lat="48.28552" lon="2.58711">
        <ele>241</ele>
        <time>2017-02-05T08:50:13Z</time>
      </trkpt>
      <trkpt lat="48.28553" lon="2.58707">
        <ele>241</ele>
        <time>2017-02-05T08:50:16Z</time>
      </trkpt>
      <trkpt lat="48.28552" lon="2.58703">
        <ele>242</ele>
        <time>2017-02-05T08:50:21Z</time>
      </trkpt>
      <trkpt lat="48.28549" lon="2.58699">
        <ele>243</ele>
        <time>2017-02-05T08:50:27Z</time>
      </trkpt>
      <trkpt lat="48.28548" lon="2.58697">
        <ele>244</ele>
        <time>2017-02-05T08:50:29Z</time>
      </trkpt>
      <trkpt lat="48.28548" lon="2.58696">
        <ele>245</ele>
        <time>2017-02-05T08:50:32Z</time>
      </trkpt>
      <trkpt lat="48.28544" lon="2.58695">
        <ele>246</ele>
        <time>2017-02-05T08:50:39Z</time>
      </trkpt>
      <trkpt lat="48.28543" lon="2.58695">
        <ele>246</ele>
        <time>2017-02-05T08:50:40Z</time>
      </trkpt>
      <trkpt lat="48.2854" lon="2.58694">
        <ele>247</ele>
        <time>2017-02-05T08:50:45Z</time>
      </trkpt>
      <trkpt lat="48.28537" lon="2.58694">
        <ele>247</ele>
        <time>2017-02-05T08:50:48Z</time>
      </trkpt>
      <trkpt lat="48.28533" lon="2.58693">
        <ele>248</ele>
        <time>2017-02-05T08:50:53Z</time>
      </trkpt>
      <trkpt lat="48.28527" lon="2.58691">
        <ele>248</ele>
        <time>2017-02-05T08:50:58Z</time>
      </trkpt>
      <trkpt lat="48.28524" lon="2.5868">
        <ele>249</ele>
        <time>2017-02-05T08:51:05Z</time>
      </trkpt>
      <trkpt lat="48.28524" lon="2.58675">
        <ele>249</ele>
        <time>2017-02-05T08:51:08Z</time>
      </trkpt>
      <trkpt lat="48.28525" lon="2.58671">
        <ele>249</ele>
        <time>2017-02-05T08:51:12Z</time>
      </trkpt>
      <trkpt lat="48.28527" lon="2.58672">
        <ele>249</ele>
        <time>2017-02-05T08:51:15Z</time>
      </trkpt>
      <trkpt lat="48.28527" lon="2.58671">
        <ele>249</ele>
        <time>2017-02-05T08:51:17Z</time>
      </trkpt>
      <trkpt lat="48.28531" lon="2.58673">
        <ele>249</ele>
        <time>2017-02-05T08:51:22Z</time>
      </trkpt>
      <trkpt lat="48.28539" lon="2.58669">
        <ele>249</ele>
        <time>2017-02-05T08:51:28Z</time>
      </trkpt>
      <trkpt lat="48.28541" lon="2.58669">
        <ele>249</ele>
        <time>2017-02-05T08:51:32Z</time>
      </trkpt>
      <trkpt lat="48.28543" lon="2.58667">
        <ele>249</ele>
        <time>2017-02-05T08:51:39Z</time>
      </trkpt>
      <trkpt lat="48.28546" lon="2.58666">
        <ele>249</ele>
        <time>2017-02-05T08:51:46Z</time>
      </trkpt>
      <trkpt lat="48.28548" lon="2.58668">
        <ele>249</ele>
        <time>2017-02-05T08:51:58Z</time>
      </trkpt>
      <trkpt lat="48.28558" lon="2.5867">
        <ele>249</ele>
        <time>2017-02-05T08:52:02Z</time>
      </trkpt>
      <trkpt lat="48.28577" lon="2.5868">
        <ele>249</ele>
        <time>2017-02-05T08:52:09Z</time>
      </trkpt>
      <trkpt lat="48.28601" lon="2.58699">
        <ele>248</ele>
        <time>2017-02-05T08:52:16Z</time>
      </trkpt>
      <trkpt lat="48.28628" lon="2.58714">
        <ele>248</ele>
        <time>2017-02-05T08:52:23Z</time>
      </trkpt>
      <trkpt lat="48.28658" lon="2.5872">
        <ele>248</ele>
        <time>2017-02-05T08:52:31Z</time>
      </trkpt>
      <trkpt lat="48.28682" lon="2.58714">
        <ele>249</ele>
        <time>2017-02-05T08:52:37Z</time>
      </trkpt>
      <trkpt lat="48.28707" lon="2.58714">
        <ele>250</ele>
        <time>2017-02-05T08:52:44Z</time>
      </trkpt>
      <trkpt lat="48.28711" lon="2.58716">
        <ele>250</ele>
        <time>2017-02-05T08:52:45Z</time>
      </trkpt>
      <trkpt lat="48.28719" lon="2.58722">
        <ele>250</ele>
        <time>2017-02-05T08:52:47Z</time>
      </trkpt>
      <trkpt lat="48.28727" lon="2.58727">
        <ele>250</ele>
        <time>2017-02-05T08:52:49Z</time>
      </trkpt>
      <trkpt lat="48.28744" lon="2.58742">
        <ele>250</ele>
        <time>2017-02-05T08:52:54Z</time>
      </trkpt>
      <trkpt lat="48.28769" lon="2.58766">
        <ele>250</ele>
        <time>2017-02-05T08:53:01Z</time>
      </trkpt>
      <trkpt lat="48.28781" lon="2.58772">
        <ele>249</ele>
        <time>2017-02-05T08:53:04Z</time>
      </trkpt>
      <trkpt lat="48.28789" lon="2.58771">
        <ele>249</ele>
        <time>2017-02-05T08:53:06Z</time>
      </trkpt>
      <trkpt lat="48.28799" lon="2.58759">
        <ele>249</ele>
        <time>2017-02-05T08:53:10Z</time>
      </trkpt>
      <trkpt lat="48.28809" lon="2.58743">
        <ele>250</ele>
        <time>2017-02-05T08:53:16Z</time>
      </trkpt>
      <trkpt lat="48.28819" lon="2.58748">
        <ele>250</ele>
        <time>2017-02-05T08:53:20Z</time>
      </trkpt>
      <trkpt lat="48.28836" lon="2.5876">
        <ele>250</ele>
        <time>2017-02-05T08:53:26Z</time>
      </trkpt>
      <trkpt lat="48.2886" lon="2.58776">
        <ele>250</ele>
        <time>2017-02-05T08:53:35Z</time>
      </trkpt>
      <trkpt lat="48.28882" lon="2.58792">
        <ele>250</ele>
        <time>2017-02-05T08:53:43Z</time>
      </trkpt>
      <trkpt lat="48.28883" lon="2.58795">
        <ele>250</ele>
        <time>2017-02-05T08:53:44Z</time>
      </trkpt>
      <trkpt lat="48.28883" lon="2.58806">
        <ele>250</ele>
        <time>2017-02-05T08:53:47Z</time>
      </trkpt>
      <trkpt lat="48.28882" lon="2.58809">
        <ele>250</ele>
        <time>2017-02-05T08:53:48Z</time>
      </trkpt>
      <trkpt lat="48.28878" lon="2.58814">
        <ele>249</ele>
        <time>2017-02-05T08:53:50Z</time>
      </trkpt>
      <trkpt lat="48.28875" lon="2.58813">
        <ele>250</ele>
        <time>2017-02-05T08:53:52Z</time>
      </trkpt>
      <trkpt lat="48.28867" lon="2.58814">
        <ele>250</ele>
        <time>2017-02-05T08:53:57Z</time>
      </trkpt>
      <trkpt lat="48.28858" lon="2.58818">
        <ele>250</ele>
        <time>2017-02-05T08:54:03Z</time>
      </trkpt>
      <trkpt lat="48.28854" lon="2.5882">
        <ele>249</ele>
        <time>2017-02-05T08:54:21Z</time>
      </trkpt>
      <trkpt lat="48.28853" lon="2.58821">
        <ele>249</ele>
        <time>2017-02-05T08:54:31Z</time>
      </trkpt>
      <trkpt lat="48.28851" lon="2.58823">
        <ele>249</ele>
        <time>2017-02-05T08:54:46Z</time>
      </trkpt>
      <trkpt lat="48.28849" lon="2.58824">
        <ele>248</ele>
        <time>2017-02-05T08:55:15Z</time>
      </trkpt>
      <trkpt lat="48.28846" lon="2.58823">
        <ele>247</ele>
        <time>2017-02-05T08:55:16Z</time>
      </trkpt>
      <trkpt lat="48.28842" lon="2.58826">
        <ele>245</ele>
        <time>2017-02-05T08:55:17Z</time>
      </trkpt>
      <trkpt lat="48.28839" lon="2.58828">
        <ele>244</ele>
        <time>2017-02-05T08:55:18Z</time>
      </trkpt>
      <trkpt lat="48.28837" lon="2.5883">
        <ele>244</ele>
        <time>2017-02-05T08:55:19Z</time>
      </trkpt>
      <trkpt lat="48.28838" lon="2.58828">
        <ele>244</ele>
        <time>2017-02-05T08:55:22Z</time>
      </trkpt>
      <trkpt lat="48.28835" lon="2.58826">
        <ele>244</ele>
        <time>2017-02-05T08:55:30Z</time>
      </trkpt>
      <trkpt lat="48.28834" lon="2.58825">
        <ele>244</ele>
        <time>2017-02-05T08:55:31Z</time>
      </trkpt>
      <trkpt lat="48.28831" lon="2.58821">
        <ele>244</ele>
        <time>2017-02-05T08:55:36Z</time>
      </trkpt>
      <trkpt lat="48.2883" lon="2.58818">
        <ele>245</ele>
        <time>2017-02-05T08:55:43Z</time>
      </trkpt>
      <trkpt lat="48.28829" lon="2.58817">
        <ele>244</ele>
        <time>2017-02-05T08:55:50Z</time>
      </trkpt>
      <trkpt lat="48.28823" lon="2.5881">
        <ele>244</ele>
        <time>2017-02-05T08:55:55Z</time>
      </trkpt>
      <trkpt lat="48.28818" lon="2.58807">
        <ele>244</ele>
        <time>2017-02-05T08:56:01Z</time>
      </trkpt>
      <trkpt lat="48.28817" lon="2.58809">
        <ele>243</ele>
        <time>2017-02-05T08:56:09Z</time>
      </trkpt>
      <trkpt lat="48.28816" lon="2.58809">
        <ele>241</ele>
        <time>2017-02-05T08:56:16Z</time>
      </trkpt>
      <trkpt lat="48.28815" lon="2.58808">
        <ele>241</ele>
        <time>2017-02-05T08:56:19Z</time>
      </trkpt>
      <trkpt lat="48.28813" lon="2.58807">
        <ele>241</ele>
        <time>2017-02-05T08:56:21Z</time>
      </trkpt>
      <trkpt lat="48.28811" lon="2.58807">
        <ele>240</ele>
        <time>2017-02-05T08:56:22Z</time>
      </trkpt>
      <trkpt lat="48.28808" lon="2.58808">
        <ele>239</ele>
        <time>2017-02-05T08:56:27Z</time>
      </trkpt>
      <trkpt lat="48.28798" lon="2.58805">
        <ele>239</ele>
        <time>2017-02-05T08:56:32Z</time>
      </trkpt>
      <trkpt lat="48.28791" lon="2.58804">
        <ele>239</ele>
        <time>2017-02-05T08:56:37Z</time>
      </trkpt>
      <trkpt lat="48.28784" lon="2.58802">
        <ele>239</ele>
        <time>2017-02-05T08:56:40Z</time>
      </trkpt>
      <trkpt lat="48.28776" lon="2.58804">
        <ele>238</ele>
        <time>2017-02-05T08:56:45Z</time>
      </trkpt>
      <trkpt lat="48.28771" lon="2.58814">
        <ele>238</ele>
        <time>2017-02-05T08:56:49Z</time>
      </trkpt>
      <trkpt lat="48.2877" lon="2.58817">
        <ele>238</ele>
        <time>2017-02-05T08:56:50Z</time>
      </trkpt>
      <trkpt lat="48.28765" lon="2.58822">
        <ele>238</ele>
        <time>2017-02-05T08:56:53Z</time>
      </trkpt>
      <trkpt lat="48.28763" lon="2.58824">
        <ele>238</ele>
        <time>2017-02-05T08:56:54Z</time>
      </trkpt>
      <trkpt lat="48.28761" lon="2.58826">
        <ele>238</ele>
        <time>2017-02-05T08:56:58Z</time>
      </trkpt>
      <trkpt lat="48.28757" lon="2.58828">
        <ele>238</ele>
        <time>2017-02-05T08:57:16Z</time>
      </trkpt>
      <trkpt lat="48.28755" lon="2.58828">
        <ele>238</ele>
        <time>2017-02-05T08:57:17Z</time>
      </trkpt>
      <trkpt lat="48.2874" lon="2.58823">
        <ele>238</ele>
        <time>2017-02-05T08:57:23Z</time>
      </trkpt>
      <trkpt lat="48.28738" lon="2.58823">
        <ele>238</ele>
        <time>2017-02-05T08:57:28Z</time>
      </trkpt>
      <trkpt lat="48.28738" lon="2.58822">
        <ele>239</ele>
        <time>2017-02-05T08:57:35Z</time>
      </trkpt>
      <trkpt lat="48.28738" lon="2.58821">
        <ele>239</ele>
        <time>2017-02-05T08:57:37Z</time>
      </trkpt>
      <trkpt lat="48.28737" lon="2.58818">
        <ele>240</ele>
        <time>2017-02-05T08:57:41Z</time>
      </trkpt>
      <trkpt lat="48.28735" lon="2.58807">
        <ele>241</ele>
        <time>2017-02-05T08:57:48Z</time>
      </trkpt>
      <trkpt lat="48.28735" lon="2.58805">
        <ele>241</ele>
        <time>2017-02-05T08:57:49Z</time>
      </trkpt>
      <trkpt lat="48.28733" lon="2.58801">
        <ele>241</ele>
        <time>2017-02-05T08:57:51Z</time>
      </trkpt>
      <trkpt lat="48.28732" lon="2.58799">
        <ele>240</ele>
        <time>2017-02-05T08:57:54Z</time>
      </trkpt>
      <trkpt lat="48.28729" lon="2.58792">
        <ele>239</ele>
        <time>2017-02-05T08:57:56Z</time>
      </trkpt>
      <trkpt lat="48.28727" lon="2.5879">
        <ele>239</ele>
        <time>2017-02-05T08:57:57Z</time>
      </trkpt>
      <trkpt lat="48.28725" lon="2.58788">
        <ele>239</ele>
        <time>2017-02-05T08:57:58Z</time>
      </trkpt>
      <trkpt lat="48.28714" lon="2.58779">
        <ele>238</ele>
        <time>2017-02-05T08:58:01Z</time>
      </trkpt>
      <trkpt lat="48.28712" lon="2.58778">
        <ele>237</ele>
        <time>2017-02-05T08:58:02Z</time>
      </trkpt>
      <trkpt lat="48.28709" lon="2.58775">
        <ele>237</ele>
        <time>2017-02-05T08:58:04Z</time>
      </trkpt>
      <trkpt lat="48.28705" lon="2.58773">
        <ele>235</ele>
        <time>2017-02-05T08:58:06Z</time>
      </trkpt>
      <trkpt lat="48.28704" lon="2.58773">
        <ele>235</ele>
        <time>2017-02-05T08:58:07Z</time>
      </trkpt>
      <trkpt lat="48.287" lon="2.58773">
        <ele>234</ele>
        <time>2017-02-05T08:58:10Z</time>
      </trkpt>
      <trkpt lat="48.28695" lon="2.58774">
        <ele>232</ele>
        <time>2017-02-05T08:58:12Z</time>
      </trkpt>
      <trkpt lat="48.28694" lon="2.58776">
        <ele>232</ele>
        <time>2017-02-05T08:58:13Z</time>
      </trkpt>
      <trkpt lat="48.28682" lon="2.58784">
        <ele>231</ele>
        <time>2017-02-05T08:58:19Z</time>
      </trkpt>
      <trkpt lat="48.28677" lon="2.58788">
        <ele>229</ele>
        <time>2017-02-05T08:58:21Z</time>
      </trkpt>
      <trkpt lat="48.28674" lon="2.58788">
        <ele>229</ele>
        <time>2017-02-05T08:58:22Z</time>
      </trkpt>
      <trkpt lat="48.28671" lon="2.58788">
        <ele>228</ele>
        <time>2017-02-05T08:58:24Z</time>
      </trkpt>
      <trkpt lat="48.28662" lon="2.58785">
        <ele>229</ele>
        <time>2017-02-05T08:58:30Z</time>
      </trkpt>
      <trkpt lat="48.2865" lon="2.5878">
        <ele>230</ele>
        <time>2017-02-05T08:58:37Z</time>
      </trkpt>
      <trkpt lat="48.28649" lon="2.5878">
        <ele>230</ele>
        <time>2017-02-05T08:58:46Z</time>
      </trkpt>
      <trkpt lat="48.2864" lon="2.58779">
        <ele>230</ele>
        <time>2017-02-05T08:58:54Z</time>
      </trkpt>
      <trkpt lat="48.28635" lon="2.58775">
        <ele>230</ele>
        <time>2017-02-05T08:58:57Z</time>
      </trkpt>
      <trkpt lat="48.28632" lon="2.58773">
        <ele>230</ele>
        <time>2017-02-05T08:58:59Z</time>
      </trkpt>
      <trkpt lat="48.28631" lon="2.58773">
        <ele>230</ele>
        <time>2017-02-05T08:59:00Z</time>
      </trkpt>
      <trkpt lat="48.2863" lon="2.58772">
        <ele>231</ele>
        <time>2017-02-05T08:59:02Z</time>
      </trkpt>
      <trkpt lat="48.2863" lon="2.58772">
        <ele>232</ele>
        <time>2017-02-05T08:59:05Z</time>
      </trkpt>
      <trkpt lat="48.28627" lon="2.58772">
        <ele>233</ele>
        <time>2017-02-05T08:59:09Z</time>
      </trkpt>
      <trkpt lat="48.28627" lon="2.58772">
        <ele>233</ele>
        <time>2017-02-05T08:59:10Z</time>
      </trkpt>
      <trkpt lat="48.28625" lon="2.58773">
        <ele>233</ele>
        <time>2017-02-05T08:59:18Z</time>
      </trkpt>
      <trkpt lat="48.28618" lon="2.58772">
        <ele>232</ele>
        <time>2017-02-05T08:59:24Z</time>
      </trkpt>
      <trkpt lat="48.28611" lon="2.58772">
        <ele>232</ele>
        <time>2017-02-05T08:59:27Z</time>
      </trkpt>
      <trkpt lat="48.2861" lon="2.58772">
        <ele>231</ele>
        <time>2017-02-05T08:59:28Z</time>
      </trkpt>
      <trkpt lat="48.28606" lon="2.58774">
        <ele>231</ele>
        <time>2017-02-05T08:59:32Z</time>
      </trkpt>
      <trkpt lat="48.28605" lon="2.58776">
        <ele>230</ele>
        <time>2017-02-05T08:59:50Z</time>
      </trkpt>
      <trkpt lat="48.28605" lon="2.58777">
        <ele>230</ele>
        <time>2017-02-05T08:59:51Z</time>
      </trkpt>
      <trkpt lat="48.28603" lon="2.5878">
        <ele>229</ele>
        <time>2017-02-05T08:59:54Z</time>
      </trkpt>
      <trkpt lat="48.28602" lon="2.58784">
        <ele>228</ele>
        <time>2017-02-05T08:59:58Z</time>
      </trkpt>
      <trkpt lat="48.28601" lon="2.58786">
        <ele>227</ele>
        <time>2017-02-05T09:00:01Z</time>
      </trkpt>
      <trkpt lat="48.28601" lon="2.58789">
        <ele>226</ele>
        <time>2017-02-05T09:00:05Z</time>
      </trkpt>
      <trkpt lat="48.28601" lon="2.58792">
        <ele>225</ele>
        <time>2017-02-05T09:00:06Z</time>
      </trkpt>
      <trkpt lat="48.28599" lon="2.58796">
        <ele>225</ele>
        <time>2017-02-05T09:00:08Z</time>
      </trkpt>
      <trkpt lat="48.28597" lon="2.58802">
        <ele>224</ele>
        <time>2017-02-05T09:00:10Z</time>
      </trkpt>
      <trkpt lat="48.28595" lon="2.58806">
        <ele>225</ele>
        <time>2017-02-05T09:00:15Z</time>
      </trkpt>
      <trkpt lat="48.28593" lon="2.58809">
        <ele>226</ele>
        <time>2017-02-05T09:00:21Z</time>
      </trkpt>
      <trkpt lat="48.28592" lon="2.58811">
        <ele>226</ele>
        <time>2017-02-05T09:00:22Z</time>
      </trkpt>
      <trkpt lat="48.28592" lon="2.58811">
        <ele>226</ele>
        <time>2017-02-05T09:01:09Z</time>
      </trkpt>
      <trkpt lat="48.28591" lon="2.58812">
        <ele>226</ele>
        <time>2017-02-05T09:01:43Z</time>
      </trkpt>
      <trkpt lat="48.28591" lon="2.58817">
        <ele>226</ele>
        <time>2017-02-05T09:02:02Z</time>
      </trkpt>
      <trkpt lat="48.28594" lon="2.58819">
        <ele>225</ele>
        <time>2017-02-05T09:02:19Z</time>
      </trkpt>
      <trkpt lat="48.28596" lon="2.58819">
        <ele>224</ele>
        <time>2017-02-05T09:02:20Z</time>
      </trkpt>
      <trkpt lat="48.28599" lon="2.58819">
        <ele>223</ele>
        <time>2017-02-05T09:02:21Z</time>
      </trkpt>
      <trkpt lat="48.28602" lon="2.58818">
        <ele>222</ele>
        <time>2017-02-05T09:02:22Z</time>
      </trkpt>
      <trkpt lat="48.28606" lon="2.58817">
        <ele>221</ele>
        <time>2017-02-05T09:02:23Z</time>
      </trkpt>
      <trkpt lat="48.28607" lon="2.58817">
        <ele>221</ele>
        <time>2017-02-05T09:02:24Z</time>
      </trkpt>
      <trkpt lat="48.28607" lon="2.58817">
        <ele>218</ele>
        <time>2017-02-05T09:02:28Z</time>
      </trkpt>
      <trkpt lat="48.2861" lon="2.58816">
        <ele>224</ele>
        <time>2017-02-05T09:02:36Z</time>
      </trkpt>
      <trkpt lat="48.28611" lon="2.58814">
        <ele>224</ele>
        <time>2017-02-05T09:02:47Z</time>
      </trkpt>
      <trkpt lat="48.28611" lon="2.58814">
        <ele>224</ele>
        <time>2017-02-05T09:02:55Z</time>
      </trkpt>
      <trkpt lat="48.28611" lon="2.58814">
        <ele>224</ele>
        <time>2017-02-05T09:03:44Z</time>
      </trkpt>
      <trkpt lat="48.28616" lon="2.58814">
        <ele>224</ele>
        <time>2017-02-05T09:04:13Z</time>
      </trkpt>
      <trkpt lat="48.2863" lon="2.58818">
        <ele>223</ele>
        <time>2017-02-05T09:04:18Z</time>
      </trkpt>
      <trkpt lat="48.28643" lon="2.58826">
        <ele>223</ele>
        <time>2017-02-05T09:04:23Z</time>
      </trkpt>
      <trkpt lat="48.28644" lon="2.58827">
        <ele>222</ele>
        <time>2017-02-05T09:04:24Z</time>
      </trkpt>
      <trkpt lat="48.28656" lon="2.58831">
        <ele>223</ele>
        <time>2017-02-05T09:04:29Z</time>
      </trkpt>
      <trkpt lat="48.28657" lon="2.58832">
        <ele>223</ele>
        <time>2017-02-05T09:04:35Z</time>
      </trkpt>
      <trkpt lat="48.28659" lon="2.58832">
        <ele>223</ele>
        <time>2017-02-05T09:04:36Z</time>
      </trkpt>
      <trkpt lat="48.28661" lon="2.58833">
        <ele>223</ele>
        <time>2017-02-05T09:04:39Z</time>
      </trkpt>
      <trkpt lat="48.28664" lon="2.58833">
        <ele>224</ele>
        <time>2017-02-05T09:04:41Z</time>
      </trkpt>
      <trkpt lat="48.2867" lon="2.58834">
        <ele>225</ele>
        <time>2017-02-05T09:04:45Z</time>
      </trkpt>
      <trkpt lat="48.28672" lon="2.58834">
        <ele>225</ele>
        <time>2017-02-05T09:04:46Z</time>
      </trkpt>
      <trkpt lat="48.28685" lon="2.58837">
        <ele>225</ele>
        <time>2017-02-05T09:04:52Z</time>
      </trkpt>
      <trkpt lat="48.28688" lon="2.58838">
        <ele>226</ele>
        <time>2017-02-05T09:04:54Z</time>
      </trkpt>
      <trkpt lat="48.28692" lon="2.5884">
        <ele>226</ele>
        <time>2017-02-05T09:04:57Z</time>
      </trkpt>
      <trkpt lat="48.28696" lon="2.58838">
        <ele>226</ele>
        <time>2017-02-05T09:04:59Z</time>
      </trkpt>
      <trkpt lat="48.28699" lon="2.58836">
        <ele>227</ele>
        <time>2017-02-05T09:05:03Z</time>
      </trkpt>
      <trkpt lat="48.28701" lon="2.58836">
        <ele>227</ele>
        <time>2017-02-05T09:05:05Z</time>
      </trkpt>
      <trkpt lat="48.28703" lon="2.58836">
        <ele>228</ele>
        <time>2017-02-05T09:05:13Z</time>
      </trkpt>
      <trkpt lat="48.28703" lon="2.58837">
        <ele>228</ele>
        <time>2017-02-05T09:05:20Z</time>
      </trkpt>
      <trkpt lat="48.28704" lon="2.58838">
        <ele>228</ele>
        <time>2017-02-05T09:05:32Z</time>
      </trkpt>
      <trkpt lat="48.28709" lon="2.5884">
        <ele>229</ele>
        <time>2017-02-05T09:05:37Z</time>
      </trkpt>
      <trkpt lat="48.2871" lon="2.5884">
        <ele>229</ele>
        <time>2017-02-05T09:05:38Z</time>
      </trkpt>
      <trkpt lat="48.28715" lon="2.58841">
        <ele>230</ele>
        <time>2017-02-05T09:05:43Z</time>
      </trkpt>
      <trkpt lat="48.28718" lon="2.58843">
        <ele>230</ele>
        <time>2017-02-05T09:05:50Z</time>
      </trkpt>
      <trkpt lat="48.28718" lon="2.58843">
        <ele>230</ele>
        <time>2017-02-05T09:06:28Z</time>
      </trkpt>
      <trkpt lat="48.28721" lon="2.58845">
        <ele>230</ele>
        <time>2017-02-05T09:06:35Z</time>
      </trkpt>
      <trkpt lat="48.28722" lon="2.58846">
        <ele>230</ele>
        <time>2017-02-05T09:06:36Z</time>
      </trkpt>
      <trkpt lat="48.28729" lon="2.58851">
        <ele>230</ele>
        <time>2017-02-05T09:06:42Z</time>
      </trkpt>
      <trkpt lat="48.28734" lon="2.58854">
        <ele>228</ele>
        <time>2017-02-05T09:06:47Z</time>
      </trkpt>
      <trkpt lat="48.28736" lon="2.58859">
        <ele>227</ele>
        <time>2017-02-05T09:06:49Z</time>
      </trkpt>
      <trkpt lat="48.28738" lon="2.58866">
        <ele>226</ele>
        <time>2017-02-05T09:06:51Z</time>
      </trkpt>
      <trkpt lat="48.28741" lon="2.58873">
        <ele>224</ele>
        <time>2017-02-05T09:06:53Z</time>
      </trkpt>
      <trkpt lat="48.28744" lon="2.58881">
        <ele>224</ele>
        <time>2017-02-05T09:06:55Z</time>
      </trkpt>
      <trkpt lat="48.28746" lon="2.58884">
        <ele>224</ele>
        <time>2017-02-05T09:06:56Z</time>
      </trkpt>
      <trkpt lat="48.28747" lon="2.58886">
        <ele>224</ele>
        <time>2017-02-05T09:06:58Z</time>
      </trkpt>
      <trkpt lat="48.28749" lon="2.58887">
        <ele>225</ele>
        <time>2017-02-05T09:07:04Z</time>
      </trkpt>
      <trkpt lat="48.28749" lon="2.5889">
        <ele>226</ele>
        <time>2017-02-05T09:07:10Z</time>
      </trkpt>
      <trkpt lat="48.28749" lon="2.5889">
        <ele>226</ele>
        <time>2017-02-05T09:07:11Z</time>
      </trkpt>
      <trkpt lat="48.2875" lon="2.58894">
        <ele>226</ele>
        <time>2017-02-05T09:07:16Z</time>
      </trkpt>
      <trkpt lat="48.2875" lon="2.58896">
        <ele>226</ele>
        <time>2017-02-05T09:07:18Z</time>
      </trkpt>
      <trkpt lat="48.2875" lon="2.58899">
        <ele>226</ele>
        <time>2017-02-05T09:07:26Z</time>
      </trkpt>
      <trkpt lat="48.2875" lon="2.58899">
        <ele>226</ele>
        <time>2017-02-05T09:07:56Z</time>
      </trkpt>
      <trkpt lat="48.2875" lon="2.58899">
        <ele>225</ele>
        <time>2017-02-05T09:08:34Z</time>
      </trkpt>
      <trkpt lat="48.2875" lon="2.58899">
        <ele>225</ele>
        <time>2017-02-05T09:08:42Z</time>
      </trkpt>
      <trkpt lat="48.28747" lon="2.589">
        <ele>223</ele>
        <time>2017-02-05T09:08:51Z</time>
      </trkpt>
      <trkpt lat="48.28743" lon="2.58904">
        <ele>222</ele>
        <time>2017-02-05T09:08:54Z</time>
      </trkpt>
      <trkpt lat="48.28741" lon="2.58907">
        <ele>221</ele>
        <time>2017-02-05T09:08:56Z</time>
      </trkpt>
      <trkpt lat="48.28739" lon="2.58912">
        <ele>221</ele>
        <time>2017-02-05T09:09:00Z</time>
      </trkpt>
      <trkpt lat="48.28739" lon="2.58914">
        <ele>221</ele>
        <time>2017-02-05T09:09:01Z</time>
      </trkpt>
      <trkpt lat="48.28739" lon="2.5892">
        <ele>221</ele>
        <time>2017-02-05T09:09:03Z</time>
      </trkpt>
      <trkpt lat="48.28739" lon="2.58926">
        <ele>221</ele>
        <time>2017-02-05T09:09:05Z</time>
      </trkpt>
      <trkpt lat="48.28739" lon="2.58929">
        <ele>221</ele>
        <time>2017-02-05T09:09:06Z</time>
      </trkpt>
      <trkpt lat="48.28739" lon="2.58942">
        <ele>221</ele>
        <time>2017-02-05T09:09:10Z</time>
      </trkpt>
      <trkpt lat="48.28744" lon="2.58954">
        <ele>221</ele>
        <time>2017-02-05T09:09:16Z</time>
      </trkpt>
      <trkpt lat="48.28752" lon="2.58949">
        <ele>222</ele>
        <time>2017-02-05T09:09:22Z</time>
      </trkpt>
      <trkpt lat="48.28755" lon="2.58947">
        <ele>222</ele>
        <time>2017-02-05T09:09:24Z</time>
      </trkpt>
      <trkpt lat="48.2876" lon="2.58944">
        <ele>223</ele>
        <time>2017-02-05T09:09:27Z</time>
      </trkpt>
      <trkpt lat="48.28766" lon="2.58939">
        <ele>224</ele>
        <time>2017-02-05T09:09:31Z</time>
      </trkpt>
      <trkpt lat="48.28772" lon="2.58933">
        <ele>225</ele>
        <time>2017-02-05T09:09:34Z</time>
      </trkpt>
      <trkpt lat="48.28775" lon="2.5893">
        <ele>225</ele>
        <time>2017-02-05T09:09:36Z</time>
      </trkpt>
      <trkpt lat="48.28782" lon="2.58923">
        <ele>226</ele>
        <time>2017-02-05T09:09:40Z</time>
      </trkpt>
      <trkpt lat="48.28784" lon="2.58921">
        <ele>227</ele>
        <time>2017-02-05T09:09:41Z</time>
      </trkpt>
      <trkpt lat="48.28788" lon="2.58916">
        <ele>228</ele>
        <time>2017-02-05T09:09:45Z</time>
      </trkpt>
      <trkpt lat="48.28791" lon="2.58913">
        <ele>228</ele>
        <time>2017-02-05T09:09:47Z</time>
      </trkpt>
      <trkpt lat="48.28796" lon="2.58908">
        <ele>229</ele>
        <time>2017-02-05T09:09:50Z</time>
      </trkpt>
      <trkpt lat="48.28803" lon="2.58904">
        <ele>230</ele>
        <time>2017-02-05T09:09:54Z</time>
      </trkpt>
      <trkpt lat="48.2881" lon="2.58898">
        <ele>231</ele>
        <time>2017-02-05T09:09:59Z</time>
      </trkpt>
      <trkpt lat="48.28812" lon="2.58896">
        <ele>232</ele>
        <time>2017-02-05T09:10:01Z</time>
      </trkpt>
      <trkpt lat="48.28814" lon="2.58896">
        <ele>232</ele>
        <time>2017-02-05T09:10:03Z</time>
      </trkpt>
      <trkpt lat="48.28817" lon="2.58894">
        <ele>233</ele>
        <time>2017-02-05T09:10:07Z</time>
      </trkpt>
      <trkpt lat="48.28822" lon="2.58892">
        <ele>234</ele>
        <time>2017-02-05T09:10:11Z</time>
      </trkpt>
      <trkpt lat="48.28827" lon="2.5889">
        <ele>235</ele>
        <time>2017-02-05T09:10:15Z</time>
      </trkpt>
      <trkpt lat="48.28828" lon="2.58889">
        <ele>235</ele>
        <time>2017-02-05T09:10:16Z</time>
      </trkpt>
      <trkpt lat="48.28834" lon="2.58889">
        <ele>236</ele>
        <time>2017-02-05T09:10:21Z</time>
      </trkpt>
      <trkpt lat="48.28835" lon="2.58889">
        <ele>237</ele>
        <time>2017-02-05T09:10:22Z</time>
      </trkpt>
      <trkpt lat="48.28841" lon="2.5889">
        <ele>238</ele>
        <time>2017-02-05T09:10:26Z</time>
      </trkpt>
      <trkpt lat="48.28844" lon="2.58891">
        <ele>238</ele>
        <time>2017-02-05T09:10:28Z</time>
      </trkpt>
      <trkpt lat="48.28849" lon="2.58892">
        <ele>239</ele>
        <time>2017-02-05T09:10:31Z</time>
      </trkpt>
      <trkpt lat="48.28854" lon="2.58891">
        <ele>240</ele>
        <time>2017-02-05T09:10:35Z</time>
      </trkpt>
      <trkpt lat="48.28856" lon="2.58891">
        <ele>240</ele>
        <time>2017-02-05T09:10:38Z</time>
      </trkpt>
      <trkpt lat="48.28857" lon="2.5889">
        <ele>240</ele>
        <time>2017-02-05T09:10:39Z</time>
      </trkpt>
      <trkpt lat="48.28863" lon="2.58889">
        <ele>241</ele>
        <time>2017-02-05T09:10:43Z</time>
      </trkpt>
      <trkpt lat="48.28866" lon="2.58888">
        <ele>242</ele>
        <time>2017-02-05T09:10:46Z</time>
      </trkpt>
      <trkpt lat="48.28868" lon="2.58888">
        <ele>242</ele>
        <time>2017-02-05T09:10:48Z</time>
      </trkpt>
      <trkpt lat="48.28873" lon="2.58888">
        <ele>243</ele>
        <time>2017-02-05T09:10:52Z</time>
      </trkpt>
      <trkpt lat="48.28877" lon="2.58889">
        <ele>244</ele>
        <time>2017-02-05T09:10:55Z</time>
      </trkpt>
      <trkpt lat="48.28884" lon="2.58889">
        <ele>245</ele>
        <time>2017-02-05T09:11:00Z</time>
      </trkpt>
      <trkpt lat="48.28885" lon="2.58889">
        <ele>246</ele>
        <time>2017-02-05T09:11:01Z</time>
      </trkpt>
      <trkpt lat="48.28893" lon="2.5889">
        <ele>246</ele>
        <time>2017-02-05T09:11:06Z</time>
      </trkpt>
      <trkpt lat="48.28895" lon="2.58889">
        <ele>247</ele>
        <time>2017-02-05T09:11:07Z</time>
      </trkpt>
      <trkpt lat="48.28898" lon="2.58889">
        <ele>247</ele>
        <time>2017-02-05T09:11:12Z</time>
      </trkpt>
      <trkpt lat="48.28899" lon="2.58889">
        <ele>247</ele>
        <time>2017-02-05T09:11:30Z</time>
      </trkpt>
      <trkpt lat="48.28901" lon="2.58892">
        <ele>247</ele>
        <time>2017-02-05T09:11:32Z</time>
      </trkpt>
      <trkpt lat="48.28902" lon="2.58899">
        <ele>247</ele>
        <time>2017-02-05T09:11:35Z</time>
      </trkpt>
      <trkpt lat="48.28905" lon="2.58908">
        <ele>247</ele>
        <time>2017-02-05T09:11:38Z</time>
      </trkpt>
      <trkpt lat="48.28906" lon="2.58914">
        <ele>247</ele>
        <time>2017-02-05T09:11:40Z</time>
      </trkpt>
      <trkpt lat="48.2891" lon="2.58945">
        <ele>246</ele>
        <time>2017-02-05T09:11:46Z</time>
      </trkpt>
      <trkpt lat="48.28916" lon="2.58975">
        <ele>245</ele>
        <time>2017-02-05T09:11:51Z</time>
      </trkpt>
      <trkpt lat="48.28917" lon="2.58979">
        <ele>245</ele>
        <time>2017-02-05T09:11:52Z</time>
      </trkpt>
      <trkpt lat="48.28928" lon="2.59004">
        <ele>245</ele>
        <time>2017-02-05T09:11:58Z</time>
      </trkpt>
      <trkpt lat="48.28937" lon="2.59019">
        <ele>245</ele>
        <time>2017-02-05T09:12:04Z</time>
      </trkpt>
      <trkpt lat="48.28934" lon="2.5903">
        <ele>245</ele>
        <time>2017-02-05T09:12:08Z</time>
      </trkpt>
      <trkpt lat="48.28933" lon="2.59047">
        <ele>245</ele>
        <time>2017-02-05T09:12:13Z</time>
      </trkpt>
      <trkpt lat="48.2893" lon="2.59067">
        <ele>244</ele>
        <time>2017-02-05T09:12:19Z</time>
      </trkpt>
      <trkpt lat="48.28927" lon="2.59094">
        <ele>243</ele>
        <time>2017-02-05T09:12:23Z</time>
      </trkpt>
      <trkpt lat="48.28924" lon="2.59111">
        <ele>242</ele>
        <time>2017-02-05T09:12:27Z</time>
      </trkpt>
      <trkpt lat="48.28923" lon="2.59115">
        <ele>242</ele>
        <time>2017-02-05T09:12:28Z</time>
      </trkpt>
      <trkpt lat="48.28919" lon="2.59128">
        <ele>241</ele>
        <time>2017-02-05T09:12:31Z</time>
      </trkpt>
      <trkpt lat="48.28917" lon="2.59133">
        <ele>240</ele>
        <time>2017-02-05T09:12:32Z</time>
      </trkpt>
      <trkpt lat="48.28904" lon="2.59166">
        <ele>240</ele>
        <time>2017-02-05T09:12:37Z</time>
      </trkpt>
      <trkpt lat="48.28902" lon="2.5917">
        <ele>240</ele>
        <time>2017-02-05T09:12:38Z</time>
      </trkpt>
      <trkpt lat="48.28901" lon="2.59184">
        <ele>239</ele>
        <time>2017-02-05T09:12:41Z</time>
      </trkpt>
      <trkpt lat="48.28901" lon="2.59189">
        <ele>239</ele>
        <time>2017-02-05T09:12:42Z</time>
      </trkpt>
      <trkpt lat="48.28905" lon="2.59195">
        <ele>239</ele>
        <time>2017-02-05T09:12:45Z</time>
      </trkpt>
      <trkpt lat="48.28906" lon="2.59198">
        <ele>239</ele>
        <time>2017-02-05T09:12:46Z</time>
      </trkpt>
      <trkpt lat="48.28911" lon="2.59213">
        <ele>241</ele>
        <time>2017-02-05T09:12:51Z</time>
      </trkpt>
      <trkpt lat="48.28911" lon="2.59216">
        <ele>241</ele>
        <time>2017-02-05T09:12:52Z</time>
      </trkpt>
      <trkpt lat="48.28912" lon="2.59219">
        <ele>241</ele>
        <time>2017-02-05T09:12:53Z</time>
      </trkpt>
      <trkpt lat="48.28912" lon="2.59239">
        <ele>240</ele>
        <time>2017-02-05T09:12:57Z</time>
      </trkpt>
      <trkpt lat="48.28911" lon="2.59247">
        <ele>240</ele>
        <time>2017-02-05T09:12:58Z</time>
      </trkpt>
      <trkpt lat="48.28909" lon="2.59267">
        <ele>239</ele>
        <time>2017-02-05T09:13:00Z</time>
      </trkpt>
      <trkpt lat="48.28908" lon="2.59281">
        <ele>237</ele>
        <time>2017-02-05T09:13:02Z</time>
      </trkpt>
      <trkpt lat="48.28908" lon="2.59285">
        <ele>237</ele>
        <time>2017-02-05T09:13:03Z</time>
      </trkpt>
      <trkpt lat="48.28908" lon="2.59289">
        <ele>237</ele>
        <time>2017-02-05T09:13:04Z</time>
      </trkpt>
      <trkpt lat="48.28909" lon="2.59292">
        <ele>236</ele>
        <time>2017-02-05T09:13:05Z</time>
      </trkpt>
      <trkpt lat="48.28912" lon="2.59299">
        <ele>236</ele>
        <time>2017-02-05T09:13:07Z</time>
      </trkpt>
      <trkpt lat="48.28917" lon="2.59305">
        <ele>236</ele>
        <time>2017-02-05T09:13:09Z</time>
      </trkpt>
      <trkpt lat="48.28924" lon="2.59306">
        <ele>236</ele>
        <time>2017-02-05T09:13:11Z</time>
      </trkpt>
      <trkpt lat="48.28936" lon="2.59304">
        <ele>237</ele>
        <time>2017-02-05T09:13:15Z</time>
      </trkpt>
      <trkpt lat="48.28941" lon="2.59301">
        <ele>238</ele>
        <time>2017-02-05T09:13:17Z</time>
      </trkpt>
      <trkpt lat="48.28942" lon="2.59299">
        <ele>238</ele>
        <time>2017-02-05T09:13:18Z</time>
      </trkpt>
      <trkpt lat="48.28944" lon="2.59297">
        <ele>239</ele>
        <time>2017-02-05T09:13:19Z</time>
      </trkpt>
      <trkpt lat="48.28947" lon="2.5929">
        <ele>239</ele>
        <time>2017-02-05T09:13:22Z</time>
      </trkpt>
      <trkpt lat="48.28948" lon="2.59282">
        <ele>240</ele>
        <time>2017-02-05T09:13:25Z</time>
      </trkpt>
      <trkpt lat="48.28952" lon="2.59272">
        <ele>240</ele>
        <time>2017-02-05T09:13:29Z</time>
      </trkpt>
      <trkpt lat="48.28963" lon="2.59264">
        <ele>241</ele>
        <time>2017-02-05T09:13:34Z</time>
      </trkpt>
      <trkpt lat="48.28973" lon="2.59272">
        <ele>241</ele>
        <time>2017-02-05T09:13:39Z</time>
      </trkpt>
      <trkpt lat="48.28974" lon="2.59274">
        <ele>241</ele>
        <time>2017-02-05T09:13:40Z</time>
      </trkpt>
      <trkpt lat="48.28976" lon="2.59281">
        <ele>241</ele>
        <time>2017-02-05T09:13:43Z</time>
      </trkpt>
      <trkpt lat="48.28982" lon="2.59298">
        <ele>241</ele>
        <time>2017-02-05T09:13:48Z</time>
      </trkpt>
      <trkpt lat="48.28982" lon="2.59301">
        <ele>241</ele>
        <time>2017-02-05T09:13:49Z</time>
      </trkpt>
      <trkpt lat="48.28985" lon="2.5931">
        <ele>241</ele>
        <time>2017-02-05T09:13:52Z</time>
      </trkpt>
      <trkpt lat="48.28988" lon="2.59315">
        <ele>241</ele>
        <time>2017-02-05T09:13:54Z</time>
      </trkpt>
      <trkpt lat="48.2899" lon="2.59319">
        <ele>242</ele>
        <time>2017-02-05T09:13:57Z</time>
      </trkpt>
      <trkpt lat="48.2899" lon="2.59325">
        <ele>242</ele>
        <time>2017-02-05T09:14:02Z</time>
      </trkpt>
      <trkpt lat="48.2899" lon="2.59328">
        <ele>241</ele>
        <time>2017-02-05T09:14:03Z</time>
      </trkpt>
      <trkpt lat="48.2899" lon="2.59331">
        <ele>241</ele>
        <time>2017-02-05T09:14:04Z</time>
      </trkpt>
      <trkpt lat="48.28988" lon="2.59338">
        <ele>240</ele>
        <time>2017-02-05T09:14:06Z</time>
      </trkpt>
      <trkpt lat="48.28988" lon="2.59342">
        <ele>239</ele>
        <time>2017-02-05T09:14:07Z</time>
      </trkpt>
      <trkpt lat="48.28987" lon="2.59351">
        <ele>238</ele>
        <time>2017-02-05T09:14:09Z</time>
      </trkpt>
      <trkpt lat="48.28987" lon="2.59354">
        <ele>237</ele>
        <time>2017-02-05T09:14:10Z</time>
      </trkpt>
      <trkpt lat="48.28985" lon="2.59358">
        <ele>236</ele>
        <time>2017-02-05T09:14:11Z</time>
      </trkpt>
      <trkpt lat="48.28985" lon="2.59362">
        <ele>236</ele>
        <time>2017-02-05T09:14:12Z</time>
      </trkpt>
      <trkpt lat="48.28984" lon="2.59367">
        <ele>235</ele>
        <time>2017-02-05T09:14:13Z</time>
      </trkpt>
      <trkpt lat="48.28984" lon="2.59378">
        <ele>233</ele>
        <time>2017-02-05T09:14:15Z</time>
      </trkpt>
      <trkpt lat="48.28985" lon="2.59383">
        <ele>232</ele>
        <time>2017-02-05T09:14:16Z</time>
      </trkpt>
      <trkpt lat="48.28985" lon="2.59388">
        <ele>232</ele>
        <time>2017-02-05T09:14:17Z</time>
      </trkpt>
      <trkpt lat="48.28987" lon="2.59408">
        <ele>231</ele>
        <time>2017-02-05T09:14:21Z</time>
      </trkpt>
      <trkpt lat="48.28988" lon="2.59413">
        <ele>231</ele>
        <time>2017-02-05T09:14:22Z</time>
      </trkpt>
      <trkpt lat="48.28991" lon="2.59428">
        <ele>230</ele>
        <time>2017-02-05T09:14:25Z</time>
      </trkpt>
      <trkpt lat="48.28994" lon="2.59438">
        <ele>229</ele>
        <time>2017-02-05T09:14:27Z</time>
      </trkpt>
      <trkpt lat="48.28994" lon="2.59441">
        <ele>229</ele>
        <time>2017-02-05T09:14:28Z</time>
      </trkpt>
      <trkpt lat="48.28996" lon="2.5945">
        <ele>228</ele>
        <time>2017-02-05T09:14:30Z</time>
      </trkpt>
      <trkpt lat="48.28999" lon="2.5946">
        <ele>228</ele>
        <time>2017-02-05T09:14:32Z</time>
      </trkpt>
      <trkpt lat="48.28998" lon="2.59468">
        <ele>227</ele>
        <time>2017-02-05T09:14:34Z</time>
      </trkpt>
      <trkpt lat="48.28997" lon="2.59471">
        <ele>227</ele>
        <time>2017-02-05T09:14:35Z</time>
      </trkpt>
      <trkpt lat="48.28995" lon="2.59474">
        <ele>226</ele>
        <time>2017-02-05T09:14:36Z</time>
      </trkpt>
      <trkpt lat="48.28992" lon="2.59476">
        <ele>226</ele>
        <time>2017-02-05T09:14:37Z</time>
      </trkpt>
      <trkpt lat="48.2899" lon="2.5948">
        <ele>225</ele>
        <time>2017-02-05T09:14:38Z</time>
      </trkpt>
      <trkpt lat="48.28986" lon="2.59487">
        <ele>224</ele>
        <time>2017-02-05T09:14:40Z</time>
      </trkpt>
      <trkpt lat="48.28985" lon="2.59492">
        <ele>224</ele>
        <time>2017-02-05T09:14:41Z</time>
      </trkpt>
      <trkpt lat="48.28984" lon="2.595">
        <ele>223</ele>
        <time>2017-02-05T09:14:43Z</time>
      </trkpt>
      <trkpt lat="48.28982" lon="2.59514">
        <ele>223</ele>
        <time>2017-02-05T09:14:46Z</time>
      </trkpt>
      <trkpt lat="48.28981" lon="2.59518">
        <ele>222</ele>
        <time>2017-02-05T09:14:47Z</time>
      </trkpt>
      <trkpt lat="48.2898" lon="2.59525">
        <ele>222</ele>
        <time>2017-02-05T09:14:49Z</time>
      </trkpt>
      <trkpt lat="48.28978" lon="2.5953">
        <ele>222</ele>
        <time>2017-02-05T09:14:51Z</time>
      </trkpt>
      <trkpt lat="48.28975" lon="2.59533">
        <ele>221</ele>
        <time>2017-02-05T09:14:57Z</time>
      </trkpt>
      <trkpt lat="48.28975" lon="2.59534">
        <ele>221</ele>
        <time>2017-02-05T09:14:58Z</time>
      </trkpt>
      <trkpt lat="48.28975" lon="2.59534">
        <ele>221</ele>
        <time>2017-02-05T09:15:24Z</time>
      </trkpt>
      <trkpt lat="48.28969" lon="2.59536">
        <ele>220</ele>
        <time>2017-02-05T09:15:26Z</time>
      </trkpt>
      <trkpt lat="48.28966" lon="2.59538">
        <ele>220</ele>
        <time>2017-02-05T09:15:27Z</time>
      </trkpt>
      <trkpt lat="48.28964" lon="2.59539">
        <ele>219</ele>
        <time>2017-02-05T09:15:28Z</time>
      </trkpt>
      <trkpt lat="48.2896" lon="2.59543">
        <ele>219</ele>
        <time>2017-02-05T09:15:30Z</time>
      </trkpt>
      <trkpt lat="48.28958" lon="2.59545">
        <ele>218</ele>
        <time>2017-02-05T09:15:31Z</time>
      </trkpt>
      <trkpt lat="48.28957" lon="2.59547">
        <ele>218</ele>
        <time>2017-02-05T09:15:32Z</time>
      </trkpt>
      <trkpt lat="48.28954" lon="2.59552">
        <ele>217</ele>
        <time>2017-02-05T09:15:34Z</time>
      </trkpt>
      <trkpt lat="48.28954" lon="2.59552">
        <ele>216</ele>
        <time>2017-02-05T09:15:35Z</time>
      </trkpt>
      <trkpt lat="48.28953" lon="2.59555">
        <ele>216</ele>
        <time>2017-02-05T09:15:36Z</time>
      </trkpt>
      <trkpt lat="48.28954" lon="2.59559">
        <ele>216</ele>
        <time>2017-02-05T09:15:42Z</time>
      </trkpt>
      <trkpt lat="48.28955" lon="2.59563">
        <ele>216</ele>
        <time>2017-02-05T09:15:48Z</time>
      </trkpt>
      <trkpt lat="48.28954" lon="2.59568">
        <ele>216</ele>
        <time>2017-02-05T09:15:50Z</time>
      </trkpt>
      <trkpt lat="48.28954" lon="2.59569">
        <ele>216</ele>
        <time>2017-02-05T09:15:52Z</time>
      </trkpt>
      <trkpt lat="48.28955" lon="2.59571">
        <ele>216</ele>
        <time>2017-02-05T09:16:10Z</time>
      </trkpt>
      <trkpt lat="48.28956" lon="2.59575">
        <ele>216</ele>
        <time>2017-02-05T09:16:11Z</time>
      </trkpt>
      <trkpt lat="48.28957" lon="2.59583">
        <ele>215</ele>
        <time>2017-02-05T09:16:14Z</time>
      </trkpt>
      <trkpt lat="48.28957" lon="2.59585">
        <ele>215</ele>
        <time>2017-02-05T09:16:15Z</time>
      </trkpt>
      <trkpt lat="48.28957" lon="2.59585">
        <ele>215</ele>
        <time>2017-02-05T09:16:16Z</time>
      </trkpt>
      <trkpt lat="48.28958" lon="2.59594">
        <ele>214</ele>
        <time>2017-02-05T09:16:23Z</time>
      </trkpt>
      <trkpt lat="48.28959" lon="2.59598">
        <ele>214</ele>
        <time>2017-02-05T09:16:45Z</time>
      </trkpt>
      <trkpt lat="48.28959" lon="2.59601">
        <ele>215</ele>
        <time>2017-02-05T09:16:46Z</time>
      </trkpt>
      <trkpt lat="48.28962" lon="2.59607">
        <ele>215</ele>
        <time>2017-02-05T09:16:49Z</time>
      </trkpt>
      <trkpt lat="48.28965" lon="2.59613">
        <ele>214</ele>
        <time>2017-02-05T09:16:54Z</time>
      </trkpt>
      <trkpt lat="48.28964" lon="2.59613">
        <ele>214</ele>
        <time>2017-02-05T09:16:55Z</time>
      </trkpt>
      <trkpt lat="48.28965" lon="2.59615">
        <ele>213</ele>
        <time>2017-02-05T09:16:58Z</time>
      </trkpt>
      <trkpt lat="48.28967" lon="2.59615">
        <ele>212</ele>
        <time>2017-02-05T09:17:02Z</time>
      </trkpt>
      <trkpt lat="48.2897" lon="2.59618">
        <ele>213</ele>
        <time>2017-02-05T09:17:07Z</time>
      </trkpt>
      <trkpt lat="48.28975" lon="2.59623">
        <ele>213</ele>
        <time>2017-02-05T09:17:13Z</time>
      </trkpt>
      <trkpt lat="48.28975" lon="2.59626">
        <ele>213</ele>
        <time>2017-02-05T09:17:14Z</time>
      </trkpt>
      <trkpt lat="48.28977" lon="2.59631">
        <ele>212</ele>
        <time>2017-02-05T09:17:16Z</time>
      </trkpt>
      <trkpt lat="48.28982" lon="2.59637">
        <ele>212</ele>
        <time>2017-02-05T09:17:19Z</time>
      </trkpt>
      <trkpt lat="48.28991" lon="2.59642">
        <ele>213</ele>
        <time>2017-02-05T09:17:23Z</time>
      </trkpt>
      <trkpt lat="48.29004" lon="2.59644">
        <ele>213</ele>
        <time>2017-02-05T09:17:29Z</time>
      </trkpt>
      <trkpt lat="48.29011" lon="2.59646">
        <ele>213</ele>
        <time>2017-02-05T09:17:32Z</time>
      </trkpt>
      <trkpt lat="48.29016" lon="2.59649">
        <ele>213</ele>
        <time>2017-02-05T09:17:34Z</time>
      </trkpt>
      <trkpt lat="48.29022" lon="2.59654">
        <ele>212</ele>
        <time>2017-02-05T09:17:37Z</time>
      </trkpt>
      <trkpt lat="48.29028" lon="2.59659">
        <ele>210</ele>
        <time>2017-02-05T09:17:39Z</time>
      </trkpt>
      <trkpt lat="48.29033" lon="2.59663">
        <ele>209</ele>
        <time>2017-02-05T09:17:41Z</time>
      </trkpt>
      <trkpt lat="48.29037" lon="2.59666">
        <ele>207</ele>
        <time>2017-02-05T09:17:43Z</time>
      </trkpt>
      <trkpt lat="48.29039" lon="2.59669">
        <ele>205</ele>
        <time>2017-02-05T09:17:45Z</time>
      </trkpt>
      <trkpt lat="48.29041" lon="2.59671">
        <ele>205</ele>
        <time>2017-02-05T09:17:46Z</time>
      </trkpt>
      <trkpt lat="48.29045" lon="2.59671">
        <ele>204</ele>
        <time>2017-02-05T09:17:47Z</time>
      </trkpt>
      <trkpt lat="48.2905" lon="2.59672">
        <ele>203</ele>
        <time>2017-02-05T09:17:48Z</time>
      </trkpt>
      <trkpt lat="48.29054" lon="2.59673">
        <ele>203</ele>
        <time>2017-02-05T09:17:49Z</time>
      </trkpt>
      <trkpt lat="48.29066" lon="2.59676">
        <ele>202</ele>
        <time>2017-02-05T09:17:52Z</time>
      </trkpt>
      <trkpt lat="48.29069" lon="2.59676">
        <ele>202</ele>
        <time>2017-02-05T09:17:53Z</time>
      </trkpt>
      <trkpt lat="48.29082" lon="2.59676">
        <ele>202</ele>
        <time>2017-02-05T09:17:58Z</time>
      </trkpt>
      <trkpt lat="48.29094" lon="2.59674">
        <ele>203</ele>
        <time>2017-02-05T09:18:03Z</time>
      </trkpt>
      <trkpt lat="48.29095" lon="2.59674">
        <ele>203</ele>
        <time>2017-02-05T09:18:04Z</time>
      </trkpt>
      <trkpt lat="48.29099" lon="2.5967">
        <ele>202</ele>
        <time>2017-02-05T09:18:10Z</time>
      </trkpt>
      <trkpt lat="48.29101" lon="2.59668">
        <ele>203</ele>
        <time>2017-02-05T09:18:31Z</time>
      </trkpt>
      <trkpt lat="48.29112" lon="2.59653">
        <ele>203</ele>
        <time>2017-02-05T09:18:35Z</time>
      </trkpt>
      <trkpt lat="48.29114" lon="2.5965">
        <ele>203</ele>
        <time>2017-02-05T09:18:36Z</time>
      </trkpt>
      <trkpt lat="48.2912" lon="2.59642">
        <ele>203</ele>
        <time>2017-02-05T09:18:39Z</time>
      </trkpt>
      <trkpt lat="48.29122" lon="2.59636">
        <ele>203</ele>
        <time>2017-02-05T09:18:41Z</time>
      </trkpt>
      <trkpt lat="48.29125" lon="2.5963">
        <ele>204</ele>
        <time>2017-02-05T09:18:44Z</time>
      </trkpt>
      <trkpt lat="48.29126" lon="2.59628">
        <ele>204</ele>
        <time>2017-02-05T09:18:45Z</time>
      </trkpt>
      <trkpt lat="48.29129" lon="2.5962">
        <ele>204</ele>
        <time>2017-02-05T09:18:50Z</time>
      </trkpt>
      <trkpt lat="48.2913" lon="2.59619">
        <ele>205</ele>
        <time>2017-02-05T09:18:56Z</time>
      </trkpt>
      <trkpt lat="48.2913" lon="2.59616">
        <ele>205</ele>
        <time>2017-02-05T09:18:59Z</time>
      </trkpt>
      <trkpt lat="48.29131" lon="2.59608">
        <ele>205</ele>
        <time>2017-02-05T09:19:02Z</time>
      </trkpt>
      <trkpt lat="48.29133" lon="2.59595">
        <ele>206</ele>
        <time>2017-02-05T09:19:08Z</time>
      </trkpt>
      <trkpt lat="48.29136" lon="2.5959">
        <ele>206</ele>
        <time>2017-02-05T09:19:11Z</time>
      </trkpt>
      <trkpt lat="48.29139" lon="2.59584">
        <ele>207</ele>
        <time>2017-02-05T09:19:16Z</time>
      </trkpt>
      <trkpt lat="48.29141" lon="2.59581">
        <ele>207</ele>
        <time>2017-02-05T09:19:22Z</time>
      </trkpt>
      <trkpt lat="48.29142" lon="2.5958">
        <ele>207</ele>
        <time>2017-02-05T09:19:28Z</time>
      </trkpt>
      <trkpt lat="48.29142" lon="2.59579">
        <ele>208</ele>
        <time>2017-02-05T09:19:30Z</time>
      </trkpt>
      <trkpt lat="48.29146" lon="2.59574">
        <ele>208</ele>
        <time>2017-02-05T09:19:44Z</time>
      </trkpt>
      <trkpt lat="48.29148" lon="2.59567">
        <ele>208</ele>
        <time>2017-02-05T09:19:49Z</time>
      </trkpt>
      <trkpt lat="48.29149" lon="2.59565">
        <ele>208</ele>
        <time>2017-02-05T09:19:50Z</time>
      </trkpt>
      <trkpt lat="48.29149" lon="2.59564">
        <ele>208</ele>
        <time>2017-02-05T09:19:54Z</time>
      </trkpt>
      <trkpt lat="48.29149" lon="2.59563">
        <ele>211</ele>
        <time>2017-02-05T09:20:14Z</time>
      </trkpt>
      <trkpt lat="48.2915" lon="2.59561">
        <ele>212</ele>
        <time>2017-02-05T09:20:16Z</time>
      </trkpt>
      <trkpt lat="48.2915" lon="2.59556">
        <ele>212</ele>
        <time>2017-02-05T09:20:22Z</time>
      </trkpt>
      <trkpt lat="48.2915" lon="2.5954">
        <ele>211</ele>
        <time>2017-02-05T09:20:55Z</time>
      </trkpt>
      <trkpt lat="48.29149" lon="2.59535">
        <ele>211</ele>
        <time>2017-02-05T09:20:56Z</time>
      </trkpt>
      <trkpt lat="48.29148" lon="2.59519">
        <ele>212</ele>
        <time>2017-02-05T09:21:01Z</time>
      </trkpt>
      <trkpt lat="48.29146" lon="2.59504">
        <ele>212</ele>
        <time>2017-02-05T09:21:07Z</time>
      </trkpt>
      <trkpt lat="48.29144" lon="2.59497">
        <ele>213</ele>
        <time>2017-02-05T09:21:11Z</time>
      </trkpt>
      <trkpt lat="48.29142" lon="2.59492">
        <ele>214</ele>
        <time>2017-02-05T09:21:15Z</time>
      </trkpt>
      <trkpt lat="48.29141" lon="2.59488">
        <ele>215</ele>
        <time>2017-02-05T09:21:20Z</time>
      </trkpt>
      <trkpt lat="48.2914" lon="2.59486">
        <ele>216</ele>
        <time>2017-02-05T09:21:22Z</time>
      </trkpt>
      <trkpt lat="48.2914" lon="2.59483">
        <ele>216</ele>
        <time>2017-02-05T09:21:25Z</time>
      </trkpt>
      <trkpt lat="48.29141" lon="2.5948">
        <ele>217</ele>
        <time>2017-02-05T09:21:29Z</time>
      </trkpt>
      <trkpt lat="48.29141" lon="2.59478">
        <ele>217</ele>
        <time>2017-02-05T09:21:31Z</time>
      </trkpt>
      <trkpt lat="48.29142" lon="2.59474">
        <ele>218</ele>
        <time>2017-02-05T09:21:36Z</time>
      </trkpt>
      <trkpt lat="48.29142" lon="2.59473">
        <ele>219</ele>
        <time>2017-02-05T09:21:37Z</time>
      </trkpt>
      <trkpt lat="48.29144" lon="2.59469">
        <ele>219</ele>
        <time>2017-02-05T09:21:42Z</time>
      </trkpt>
      <trkpt lat="48.29144" lon="2.59462">
        <ele>220</ele>
        <time>2017-02-05T09:21:48Z</time>
      </trkpt>
      <trkpt lat="48.29145" lon="2.59457">
        <ele>221</ele>
        <time>2017-02-05T09:21:51Z</time>
      </trkpt>
      <trkpt lat="48.29144" lon="2.59454">
        <ele>222</ele>
        <time>2017-02-05T09:21:55Z</time>
      </trkpt>
      <trkpt lat="48.29144" lon="2.59453">
        <ele>222</ele>
        <time>2017-02-05T09:21:56Z</time>
      </trkpt>
      <trkpt lat="48.29139" lon="2.59448">
        <ele>222</ele>
        <time>2017-02-05T09:22:03Z</time>
      </trkpt>
      <trkpt lat="48.29138" lon="2.59448">
        <ele>222</ele>
        <time>2017-02-05T09:22:04Z</time>
      </trkpt>
      <trkpt lat="48.29136" lon="2.59445">
        <ele>223</ele>
        <time>2017-02-05T09:22:07Z</time>
      </trkpt>
      <trkpt lat="48.29133" lon="2.59443">
        <ele>223</ele>
        <time>2017-02-05T09:22:10Z</time>
      </trkpt>
      <trkpt lat="48.29133" lon="2.59443">
        <ele>224</ele>
        <time>2017-02-05T09:22:14Z</time>
      </trkpt>
      <trkpt lat="48.29132" lon="2.59444">
        <ele>224</ele>
        <time>2017-02-05T09:22:17Z</time>
      </trkpt>
      <trkpt lat="48.2913" lon="2.59444">
        <ele>225</ele>
        <time>2017-02-05T09:22:20Z</time>
      </trkpt>
      <trkpt lat="48.29127" lon="2.59444">
        <ele>225</ele>
        <time>2017-02-05T09:22:22Z</time>
      </trkpt>
      <trkpt lat="48.29124" lon="2.59444">
        <ele>226</ele>
        <time>2017-02-05T09:22:26Z</time>
      </trkpt>
      <trkpt lat="48.29122" lon="2.59443">
        <ele>226</ele>
        <time>2017-02-05T09:22:28Z</time>
      </trkpt>
      <trkpt lat="48.29118" lon="2.5944">
        <ele>227</ele>
        <time>2017-02-05T09:22:33Z</time>
      </trkpt>
      <trkpt lat="48.29118" lon="2.5944">
        <ele>227</ele>
        <time>2017-02-05T09:22:34Z</time>
      </trkpt>
      <trkpt lat="48.29113" lon="2.59435">
        <ele>228</ele>
        <time>2017-02-05T09:22:41Z</time>
      </trkpt>
      <trkpt lat="48.29112" lon="2.59434">
        <ele>228</ele>
        <time>2017-02-05T09:22:42Z</time>
      </trkpt>
      <trkpt lat="48.29111" lon="2.59431">
        <ele>228</ele>
        <time>2017-02-05T09:22:45Z</time>
      </trkpt>
      <trkpt lat="48.2911" lon="2.5943">
        <ele>228</ele>
        <time>2017-02-05T09:22:47Z</time>
      </trkpt>
      <trkpt lat="48.29104" lon="2.59419">
        <ele>229</ele>
        <time>2017-02-05T09:22:53Z</time>
      </trkpt>
      <trkpt lat="48.29104" lon="2.59418">
        <ele>229</ele>
        <time>2017-02-05T09:22:54Z</time>
      </trkpt>
      <trkpt lat="48.29101" lon="2.59418">
        <ele>230</ele>
        <time>2017-02-05T09:22:58Z</time>
      </trkpt>
      <trkpt lat="48.291" lon="2.59419">
        <ele>229</ele>
        <time>2017-02-05T09:23:05Z</time>
      </trkpt>
      <trkpt lat="48.291" lon="2.59419">
        <ele>230</ele>
        <time>2017-02-05T09:23:56Z</time>
      </trkpt>
      <trkpt lat="48.291" lon="2.5942">
        <ele>229</ele>
        <time>2017-02-05T09:24:26Z</time>
      </trkpt>
      <trkpt lat="48.291" lon="2.5942">
        <ele>229</ele>
        <time>2017-02-05T09:25:06Z</time>
      </trkpt>
      <trkpt lat="48.29099" lon="2.59421">
        <ele>230</ele>
        <time>2017-02-05T09:25:47Z</time>
      </trkpt>
      <trkpt lat="48.29097" lon="2.59418">
        <ele>230</ele>
        <time>2017-02-05T09:25:52Z</time>
      </trkpt>
      <trkpt lat="48.29092" lon="2.59411">
        <ele>230</ele>
        <time>2017-02-05T09:25:57Z</time>
      </trkpt>
      <trkpt lat="48.29091" lon="2.59409">
        <ele>230</ele>
        <time>2017-02-05T09:25:58Z</time>
      </trkpt>
      <trkpt lat="48.29086" lon="2.59405">
        <ele>230</ele>
        <time>2017-02-05T09:26:00Z</time>
      </trkpt>
      <trkpt lat="48.29082" lon="2.59395">
        <ele>230</ele>
        <time>2017-02-05T09:26:03Z</time>
      </trkpt>
      <trkpt lat="48.29077" lon="2.59373">
        <ele>230</ele>
        <time>2017-02-05T09:26:08Z</time>
      </trkpt>
      <trkpt lat="48.29073" lon="2.59349">
        <ele>231</ele>
        <time>2017-02-05T09:26:13Z</time>
      </trkpt>
      <trkpt lat="48.29073" lon="2.59341">
        <ele>232</ele>
        <time>2017-02-05T09:26:15Z</time>
      </trkpt>
      <trkpt lat="48.29071" lon="2.59329">
        <ele>234</ele>
        <time>2017-02-05T09:26:18Z</time>
      </trkpt>
      <trkpt lat="48.29068" lon="2.59321">
        <ele>235</ele>
        <time>2017-02-05T09:26:21Z</time>
      </trkpt>
      <trkpt lat="48.29065" lon="2.59311">
        <ele>236</ele>
        <time>2017-02-05T09:26:24Z</time>
      </trkpt>
      <trkpt lat="48.29063" lon="2.59309">
        <ele>236</ele>
        <time>2017-02-05T09:26:25Z</time>
      </trkpt>
      <trkpt lat="48.29061" lon="2.59305">
        <ele>237</ele>
        <time>2017-02-05T09:26:27Z</time>
      </trkpt>
      <trkpt lat="48.29058" lon="2.59302">
        <ele>238</ele>
        <time>2017-02-05T09:26:29Z</time>
      </trkpt>
      <trkpt lat="48.29051" lon="2.59298">
        <ele>239</ele>
        <time>2017-02-05T09:26:34Z</time>
      </trkpt>
      <trkpt lat="48.29044" lon="2.59294">
        <ele>240</ele>
        <time>2017-02-05T09:26:40Z</time>
      </trkpt>
      <trkpt lat="48.29043" lon="2.59293">
        <ele>240</ele>
        <time>2017-02-05T09:26:41Z</time>
      </trkpt>
      <trkpt lat="48.29037" lon="2.5929">
        <ele>241</ele>
        <time>2017-02-05T09:26:45Z</time>
      </trkpt>
      <trkpt lat="48.29032" lon="2.59289">
        <ele>242</ele>
        <time>2017-02-05T09:26:48Z</time>
      </trkpt>
      <trkpt lat="48.29029" lon="2.59285">
        <ele>242</ele>
        <time>2017-02-05T09:26:54Z</time>
      </trkpt>
      <trkpt lat="48.29029" lon="2.59283">
        <ele>242</ele>
        <time>2017-02-05T09:26:55Z</time>
      </trkpt>
      <trkpt lat="48.29029" lon="2.59282">
        <ele>242</ele>
        <time>2017-02-05T09:26:56Z</time>
      </trkpt>
      <trkpt lat="48.2903" lon="2.59272">
        <ele>242</ele>
        <time>2017-02-05T09:27:00Z</time>
      </trkpt>
      <trkpt lat="48.2903" lon="2.5926">
        <ele>242</ele>
        <time>2017-02-05T09:27:05Z</time>
      </trkpt>
      <trkpt lat="48.29028" lon="2.59251">
        <ele>242</ele>
        <time>2017-02-05T09:27:09Z</time>
      </trkpt>
      <trkpt lat="48.29025" lon="2.59243">
        <ele>242</ele>
        <time>2017-02-05T09:27:13Z</time>
      </trkpt>
      <trkpt lat="48.29023" lon="2.59235">
        <ele>243</ele>
        <time>2017-02-05T09:27:17Z</time>
      </trkpt>
      <trkpt lat="48.29022" lon="2.59234">
        <ele>243</ele>
        <time>2017-02-05T09:27:18Z</time>
      </trkpt>
      <trkpt lat="48.2902" lon="2.59233">
        <ele>243</ele>
        <time>2017-02-05T09:27:19Z</time>
      </trkpt>
      <trkpt lat="48.29019" lon="2.59231">
        <ele>243</ele>
        <time>2017-02-05T09:27:20Z</time>
      </trkpt>
      <trkpt lat="48.29019" lon="2.59225">
        <ele>243</ele>
        <time>2017-02-05T09:27:23Z</time>
      </trkpt>
      <trkpt lat="48.29019" lon="2.59223">
        <ele>243</ele>
        <time>2017-02-05T09:27:24Z</time>
      </trkpt>
      <trkpt lat="48.29022" lon="2.59214">
        <ele>244</ele>
        <time>2017-02-05T09:27:29Z</time>
      </trkpt>
      <trkpt lat="48.29028" lon="2.59203">
        <ele>243</ele>
        <time>2017-02-05T09:27:33Z</time>
      </trkpt>
      <trkpt lat="48.29029" lon="2.59199">
        <ele>242</ele>
        <time>2017-02-05T09:27:34Z</time>
      </trkpt>
      <trkpt lat="48.2903" lon="2.5919">
        <ele>242</ele>
        <time>2017-02-05T09:27:37Z</time>
      </trkpt>
      <trkpt lat="48.29029" lon="2.59184">
        <ele>242</ele>
        <time>2017-02-05T09:27:39Z</time>
      </trkpt>
      <trkpt lat="48.29028" lon="2.5918">
        <ele>242</ele>
        <time>2017-02-05T09:27:41Z</time>
      </trkpt>
      <trkpt lat="48.29028" lon="2.59177">
        <ele>242</ele>
        <time>2017-02-05T09:27:42Z</time>
      </trkpt>
      <trkpt lat="48.29025" lon="2.59166">
        <ele>243</ele>
        <time>2017-02-05T09:27:46Z</time>
      </trkpt>
      <trkpt lat="48.29022" lon="2.59151">
        <ele>243</ele>
        <time>2017-02-05T09:27:51Z</time>
      </trkpt>
      <trkpt lat="48.29024" lon="2.59138">
        <ele>244</ele>
        <time>2017-02-05T09:27:55Z</time>
      </trkpt>
      <trkpt lat="48.29024" lon="2.59135">
        <ele>244</ele>
        <time>2017-02-05T09:27:56Z</time>
      </trkpt>
      <trkpt lat="48.29027" lon="2.59128">
        <ele>244</ele>
        <time>2017-02-05T09:28:01Z</time>
      </trkpt>
      <trkpt lat="48.29029" lon="2.59117">
        <ele>243</ele>
        <time>2017-02-05T09:28:05Z</time>
      </trkpt>
      <trkpt lat="48.29031" lon="2.59113">
        <ele>243</ele>
        <time>2017-02-05T09:28:06Z</time>
      </trkpt>
      <trkpt lat="48.29033" lon="2.59107">
        <ele>242</ele>
        <time>2017-02-05T09:28:08Z</time>
      </trkpt>
      <trkpt lat="48.29032" lon="2.59104">
        <ele>241</ele>
        <time>2017-02-05T09:28:09Z</time>
      </trkpt>
      <trkpt lat="48.29031" lon="2.59093">
        <ele>241</ele>
        <time>2017-02-05T09:28:12Z</time>
      </trkpt>
      <trkpt lat="48.29032" lon="2.59085">
        <ele>240</ele>
        <time>2017-02-05T09:28:14Z</time>
      </trkpt>
      <trkpt lat="48.29036" lon="2.5908">
        <ele>239</ele>
        <time>2017-02-05T09:28:16Z</time>
      </trkpt>
      <trkpt lat="48.29039" lon="2.59076">
        <ele>238</ele>
        <time>2017-02-05T09:28:18Z</time>
      </trkpt>
      <trkpt lat="48.2904" lon="2.59075">
        <ele>237</ele>
        <time>2017-02-05T09:28:19Z</time>
      </trkpt>
      <trkpt lat="48.29045" lon="2.59071">
        <ele>237</ele>
        <time>2017-02-05T09:28:22Z</time>
      </trkpt>
      <trkpt lat="48.29046" lon="2.5907">
        <ele>237</ele>
        <time>2017-02-05T09:28:23Z</time>
      </trkpt>
      <trkpt lat="48.29049" lon="2.5907">
        <ele>237</ele>
        <time>2017-02-05T09:28:26Z</time>
      </trkpt>
      <trkpt lat="48.29057" lon="2.59071">
        <ele>237</ele>
        <time>2017-02-05T09:28:33Z</time>
      </trkpt>
      <trkpt lat="48.2906" lon="2.5907">
        <ele>236</ele>
        <time>2017-02-05T09:28:36Z</time>
      </trkpt>
      <trkpt lat="48.29061" lon="2.59071">
        <ele>236</ele>
        <time>2017-02-05T09:28:38Z</time>
      </trkpt>
      <trkpt lat="48.29064" lon="2.59075">
        <ele>237</ele>
        <time>2017-02-05T09:28:50Z</time>
      </trkpt>
      <trkpt lat="48.29066" lon="2.59078">
        <ele>237</ele>
        <time>2017-02-05T09:29:00Z</time>
      </trkpt>
      <trkpt lat="48.29068" lon="2.59079">
        <ele>237</ele>
        <time>2017-02-05T09:29:03Z</time>
      </trkpt>
      <trkpt lat="48.2907" lon="2.59079">
        <ele>237</ele>
        <time>2017-02-05T09:29:04Z</time>
      </trkpt>
      <trkpt lat="48.29071" lon="2.59078">
        <ele>237</ele>
        <time>2017-02-05T09:29:10Z</time>
      </trkpt>
      <trkpt lat="48.29078" lon="2.59081">
        <ele>237</ele>
        <time>2017-02-05T09:29:14Z</time>
      </trkpt>
      <trkpt lat="48.29081" lon="2.59083">
        <ele>236</ele>
        <time>2017-02-05T09:29:16Z</time>
      </trkpt>
      <trkpt lat="48.29084" lon="2.59085">
        <ele>235</ele>
        <time>2017-02-05T09:29:18Z</time>
      </trkpt>
      <trkpt lat="48.29083" lon="2.59084">
        <ele>235</ele>
        <time>2017-02-05T09:29:19Z</time>
      </trkpt>
      <trkpt lat="48.29084" lon="2.5909">
        <ele>234</ele>
        <time>2017-02-05T09:29:23Z</time>
      </trkpt>
      <trkpt lat="48.29086" lon="2.59094">
        <ele>234</ele>
        <time>2017-02-05T09:29:25Z</time>
      </trkpt>
      <trkpt lat="48.2909" lon="2.59094">
        <ele>233</ele>
        <time>2017-02-05T09:29:28Z</time>
      </trkpt>
      <trkpt lat="48.29094" lon="2.59091">
        <ele>231</ele>
        <time>2017-02-05T09:29:30Z</time>
      </trkpt>
      <trkpt lat="48.29097" lon="2.59089">
        <ele>230</ele>
        <time>2017-02-05T09:29:32Z</time>
      </trkpt>
      <trkpt lat="48.29098" lon="2.59088">
        <ele>229</ele>
        <time>2017-02-05T09:29:34Z</time>
      </trkpt>
      <trkpt lat="48.291" lon="2.59084">
        <ele>229</ele>
        <time>2017-02-05T09:29:35Z</time>
      </trkpt>
      <trkpt lat="48.29104" lon="2.59079">
        <ele>228</ele>
        <time>2017-02-05T09:29:38Z</time>
      </trkpt>
      <trkpt lat="48.29107" lon="2.59077">
        <ele>227</ele>
        <time>2017-02-05T09:29:40Z</time>
      </trkpt>
      <trkpt lat="48.29108" lon="2.59075">
        <ele>227</ele>
        <time>2017-02-05T09:29:41Z</time>
      </trkpt>
      <trkpt lat="48.29112" lon="2.5907">
        <ele>225</ele>
        <time>2017-02-05T09:29:44Z</time>
      </trkpt>
      <trkpt lat="48.29114" lon="2.59069">
        <ele>224</ele>
        <time>2017-02-05T09:29:45Z</time>
      </trkpt>
      <trkpt lat="48.29116" lon="2.59068">
        <ele>224</ele>
        <time>2017-02-05T09:29:46Z</time>
      </trkpt>
      <trkpt lat="48.29121" lon="2.59068">
        <ele>223</ele>
        <time>2017-02-05T09:29:47Z</time>
      </trkpt>
      <trkpt lat="48.29124" lon="2.59067">
        <ele>223</ele>
        <time>2017-02-05T09:29:48Z</time>
      </trkpt>
      <trkpt lat="48.29129" lon="2.59066">
        <ele>223</ele>
        <time>2017-02-05T09:29:49Z</time>
      </trkpt>
      <trkpt lat="48.29134" lon="2.59061">
        <ele>222</ele>
        <time>2017-02-05T09:29:51Z</time>
      </trkpt>
      <trkpt lat="48.29138" lon="2.59058">
        <ele>222</ele>
        <time>2017-02-05T09:29:52Z</time>
      </trkpt>
      <trkpt lat="48.2914" lon="2.59055">
        <ele>222</ele>
        <time>2017-02-05T09:29:53Z</time>
      </trkpt>
      <trkpt lat="48.29143" lon="2.59049">
        <ele>222</ele>
        <time>2017-02-05T09:29:54Z</time>
      </trkpt>
      <trkpt lat="48.29142" lon="2.59039">
        <ele>221</ele>
        <time>2017-02-05T09:29:56Z</time>
      </trkpt>
      <trkpt lat="48.29141" lon="2.59028">
        <ele>220</ele>
        <time>2017-02-05T09:29:59Z</time>
      </trkpt>
      <trkpt lat="48.2914" lon="2.59027">
        <ele>220</ele>
        <time>2017-02-05T09:30:00Z</time>
      </trkpt>
      <trkpt lat="48.29139" lon="2.59026">
        <ele>220</ele>
        <time>2017-02-05T09:30:01Z</time>
      </trkpt>
      <trkpt lat="48.29133" lon="2.59025">
        <ele>219</ele>
        <time>2017-02-05T09:30:04Z</time>
      </trkpt>
      <trkpt lat="48.29129" lon="2.59025">
        <ele>218</ele>
        <time>2017-02-05T09:30:06Z</time>
      </trkpt>
      <trkpt lat="48.29128" lon="2.59025">
        <ele>216</ele>
        <time>2017-02-05T09:30:09Z</time>
      </trkpt>
      <trkpt lat="48.29129" lon="2.59015">
        <ele>215</ele>
        <time>2017-02-05T09:30:13Z</time>
      </trkpt>
      <trkpt lat="48.29131" lon="2.59011">
        <ele>214</ele>
        <time>2017-02-05T09:30:14Z</time>
      </trkpt>
      <trkpt lat="48.29134" lon="2.59007">
        <ele>213</ele>
        <time>2017-02-05T09:30:15Z</time>
      </trkpt>
      <trkpt lat="48.29149" lon="2.5899">
        <ele>212</ele>
        <time>2017-02-05T09:30:18Z</time>
      </trkpt>
      <trkpt lat="48.29154" lon="2.58986">
        <ele>211</ele>
        <time>2017-02-05T09:30:19Z</time>
      </trkpt>
      <trkpt lat="48.2916" lon="2.58983">
        <ele>210</ele>
        <time>2017-02-05T09:30:20Z</time>
      </trkpt>
      <trkpt lat="48.29166" lon="2.58978">
        <ele>209</ele>
        <time>2017-02-05T09:30:22Z</time>
      </trkpt>
      <trkpt lat="48.29167" lon="2.58972">
        <ele>209</ele>
        <time>2017-02-05T09:30:24Z</time>
      </trkpt>
      <trkpt lat="48.29166" lon="2.58969">
        <ele>209</ele>
        <time>2017-02-05T09:30:25Z</time>
      </trkpt>
      <trkpt lat="48.29164" lon="2.58967">
        <ele>209</ele>
        <time>2017-02-05T09:30:26Z</time>
      </trkpt>
      <trkpt lat="48.29156" lon="2.58956">
        <ele>210</ele>
        <time>2017-02-05T09:30:31Z</time>
      </trkpt>
      <trkpt lat="48.29152" lon="2.58952">
        <ele>211</ele>
        <time>2017-02-05T09:30:33Z</time>
      </trkpt>
      <trkpt lat="48.29148" lon="2.58948">
        <ele>211</ele>
        <time>2017-02-05T09:30:35Z</time>
      </trkpt>
      <trkpt lat="48.29141" lon="2.58941">
        <ele>212</ele>
        <time>2017-02-05T09:30:39Z</time>
      </trkpt>
      <trkpt lat="48.29135" lon="2.58935">
        <ele>213</ele>
        <time>2017-02-05T09:30:43Z</time>
      </trkpt>
      <trkpt lat="48.29134" lon="2.58934">
        <ele>213</ele>
        <time>2017-02-05T09:30:44Z</time>
      </trkpt>
      <trkpt lat="48.2913" lon="2.58931">
        <ele>214</ele>
        <time>2017-02-05T09:30:47Z</time>
      </trkpt>
      <trkpt lat="48.29129" lon="2.58929">
        <ele>215</ele>
        <time>2017-02-05T09:30:50Z</time>
      </trkpt>
      <trkpt lat="48.29128" lon="2.58928">
        <ele>215</ele>
        <time>2017-02-05T09:30:51Z</time>
      </trkpt>
      <trkpt lat="48.29126" lon="2.58925">
        <ele>216</ele>
        <time>2017-02-05T09:30:55Z</time>
      </trkpt>
      <trkpt lat="48.29125" lon="2.58924">
        <ele>217</ele>
        <time>2017-02-05T09:30:56Z</time>
      </trkpt>
      <trkpt lat="48.29125" lon="2.58923">
        <ele>217</ele>
        <time>2017-02-05T09:31:01Z</time>
      </trkpt>
      <trkpt lat="48.29124" lon="2.58922">
        <ele>220</ele>
        <time>2017-02-05T09:31:40Z</time>
      </trkpt>
      <trkpt lat="48.29124" lon="2.58922">
        <ele>221</ele>
        <time>2017-02-05T09:31:42Z</time>
      </trkpt>
      <trkpt lat="48.29124" lon="2.58922">
        <ele>222</ele>
        <time>2017-02-05T09:31:46Z</time>
      </trkpt>
      <trkpt lat="48.29123" lon="2.58922">
        <ele>223</ele>
        <time>2017-02-05T09:31:52Z</time>
      </trkpt>
      <trkpt lat="48.2912" lon="2.58918">
        <ele>223</ele>
        <time>2017-02-05T09:31:54Z</time>
      </trkpt>
      <trkpt lat="48.2912" lon="2.58918">
        <ele>224</ele>
        <time>2017-02-05T09:31:58Z</time>
      </trkpt>
      <trkpt lat="48.2912" lon="2.58919">
        <ele>224</ele>
        <time>2017-02-05T09:32:00Z</time>
      </trkpt>
      <trkpt lat="48.2912" lon="2.58919">
        <ele>225</ele>
        <time>2017-02-05T09:32:06Z</time>
      </trkpt>
      <trkpt lat="48.2912" lon="2.58919">
        <ele>225</ele>
        <time>2017-02-05T09:32:08Z</time>
      </trkpt>
      <trkpt lat="48.29119" lon="2.58917">
        <ele>227</ele>
        <time>2017-02-05T09:32:21Z</time>
      </trkpt>
      <trkpt lat="48.29118" lon="2.58914">
        <ele>228</ele>
        <time>2017-02-05T09:32:33Z</time>
      </trkpt>
      <trkpt lat="48.29117" lon="2.58911">
        <ele>229</ele>
        <time>2017-02-05T09:32:44Z</time>
      </trkpt>
      <trkpt lat="48.29117" lon="2.58911">
        <ele>233</ele>
        <time>2017-02-05T09:33:12Z</time>
      </trkpt>
      <trkpt lat="48.29117" lon="2.58911">
        <ele>234</ele>
        <time>2017-02-05T09:33:14Z</time>
      </trkpt>
      <trkpt lat="48.29117" lon="2.58908">
        <ele>236</ele>
        <time>2017-02-05T09:33:25Z</time>
      </trkpt>
      <trkpt lat="48.29116" lon="2.58904">
        <ele>237</ele>
        <time>2017-02-05T09:33:37Z</time>
      </trkpt>
      <trkpt lat="48.29115" lon="2.58904">
        <ele>237</ele>
        <time>2017-02-05T09:33:44Z</time>
      </trkpt>
      <trkpt lat="48.29116" lon="2.58904">
        <ele>236</ele>
        <time>2017-02-05T09:33:53Z</time>
      </trkpt>
      <trkpt lat="48.29114" lon="2.58899">
        <ele>237</ele>
        <time>2017-02-05T09:33:56Z</time>
      </trkpt>
      <trkpt lat="48.29113" lon="2.589">
        <ele>237</ele>
        <time>2017-02-05T09:33:57Z</time>
      </trkpt>
      <trkpt lat="48.29112" lon="2.58897">
        <ele>236</ele>
        <time>2017-02-05T09:33:58Z</time>
      </trkpt>
      <trkpt lat="48.29111" lon="2.58894">
        <ele>237</ele>
        <time>2017-02-05T09:34:01Z</time>
      </trkpt>
      <trkpt lat="48.2911" lon="2.58892">
        <ele>237</ele>
        <time>2017-02-05T09:34:02Z</time>
      </trkpt>
      <trkpt lat="48.29107" lon="2.58887">
        <ele>237</ele>
        <time>2017-02-05T09:34:04Z</time>
      </trkpt>
      <trkpt lat="48.29106" lon="2.58885">
        <ele>237</ele>
        <time>2017-02-05T09:34:06Z</time>
      </trkpt>
      <trkpt lat="48.29105" lon="2.5888">
        <ele>237</ele>
        <time>2017-02-05T09:34:09Z</time>
      </trkpt>
      <trkpt lat="48.29105" lon="2.58877">
        <ele>237</ele>
        <time>2017-02-05T09:34:11Z</time>
      </trkpt>
      <trkpt lat="48.29107" lon="2.58877">
        <ele>237</ele>
        <time>2017-02-05T09:34:16Z</time>
      </trkpt>
      <trkpt lat="48.29105" lon="2.5888">
        <ele>237</ele>
        <time>2017-02-05T09:34:19Z</time>
      </trkpt>
      <trkpt lat="48.29105" lon="2.58884">
        <ele>237</ele>
        <time>2017-02-05T09:34:21Z</time>
      </trkpt>
      <trkpt lat="48.29106" lon="2.58888">
        <ele>237</ele>
        <time>2017-02-05T09:34:23Z</time>
      </trkpt>
      <trkpt lat="48.29107" lon="2.58888">
        <ele>236</ele>
        <time>2017-02-05T09:34:26Z</time>
      </trkpt>
      <trkpt lat="48.29108" lon="2.58888">
        <ele>236</ele>
        <time>2017-02-05T09:34:28Z</time>
      </trkpt>
      <trkpt lat="48.2911" lon="2.58887">
        <ele>236</ele>
        <time>2017-02-05T09:34:29Z</time>
      </trkpt>
      <trkpt lat="48.29106" lon="2.58863">
        <ele>236</ele>
        <time>2017-02-05T09:34:32Z</time>
      </trkpt>
      <trkpt lat="48.29106" lon="2.58855">
        <ele>235</ele>
        <time>2017-02-05T09:34:50Z</time>
      </trkpt>
      <trkpt lat="48.29108" lon="2.58845">
        <ele>235</ele>
        <time>2017-02-05T09:34:56Z</time>
      </trkpt>
      <trkpt lat="48.29108" lon="2.58842">
        <ele>234</ele>
        <time>2017-02-05T09:35:01Z</time>
      </trkpt>
      <trkpt lat="48.29108" lon="2.5884">
        <ele>234</ele>
        <time>2017-02-05T09:35:03Z</time>
      </trkpt>
      <trkpt lat="48.2911" lon="2.58841">
        <ele>233</ele>
        <time>2017-02-05T09:35:07Z</time>
      </trkpt>
      <trkpt lat="48.29109" lon="2.5884">
        <ele>233</ele>
        <time>2017-02-05T09:35:08Z</time>
      </trkpt>
      <trkpt lat="48.29111" lon="2.58843">
        <ele>233</ele>
        <time>2017-02-05T09:35:09Z</time>
      </trkpt>
      <trkpt lat="48.29115" lon="2.58845">
        <ele>231</ele>
        <time>2017-02-05T09:35:12Z</time>
      </trkpt>
      <trkpt lat="48.29114" lon="2.58845">
        <ele>231</ele>
        <time>2017-02-05T09:35:13Z</time>
      </trkpt>
      <trkpt lat="48.29116" lon="2.58845">
        <ele>230</ele>
        <time>2017-02-05T09:35:15Z</time>
      </trkpt>
      <trkpt lat="48.29117" lon="2.58846">
        <ele>228</ele>
        <time>2017-02-05T09:35:21Z</time>
      </trkpt>
      <trkpt lat="48.29118" lon="2.58849">
        <ele>227</ele>
        <time>2017-02-05T09:35:25Z</time>
      </trkpt>
      <trkpt lat="48.2912" lon="2.58854">
        <ele>227</ele>
        <time>2017-02-05T09:35:32Z</time>
      </trkpt>
      <trkpt lat="48.29122" lon="2.58858">
        <ele>227</ele>
        <time>2017-02-05T09:35:35Z</time>
      </trkpt>
      <trkpt lat="48.29125" lon="2.5886">
        <ele>226</ele>
        <time>2017-02-05T09:35:37Z</time>
      </trkpt>
      <trkpt lat="48.29128" lon="2.58863">
        <ele>225</ele>
        <time>2017-02-05T09:35:39Z</time>
      </trkpt>
      <trkpt lat="48.29131" lon="2.58867">
        <ele>224</ele>
        <time>2017-02-05T09:35:41Z</time>
      </trkpt>
      <trkpt lat="48.29134" lon="2.58872">
        <ele>223</ele>
        <time>2017-02-05T09:35:43Z</time>
      </trkpt>
      <trkpt lat="48.29135" lon="2.58876">
        <ele>222</ele>
        <time>2017-02-05T09:35:45Z</time>
      </trkpt>
      <trkpt lat="48.29136" lon="2.58878">
        <ele>221</ele>
        <time>2017-02-05T09:35:46Z</time>
      </trkpt>
      <trkpt lat="48.29137" lon="2.58878">
        <ele>221</ele>
        <time>2017-02-05T09:35:47Z</time>
      </trkpt>
      <trkpt lat="48.29138" lon="2.5888">
        <ele>220</ele>
        <time>2017-02-05T09:35:48Z</time>
      </trkpt>
      <trkpt lat="48.29139" lon="2.58881">
        <ele>220</ele>
        <time>2017-02-05T09:35:49Z</time>
      </trkpt>
      <trkpt lat="48.29141" lon="2.58885">
        <ele>220</ele>
        <time>2017-02-05T09:35:51Z</time>
      </trkpt>
      <trkpt lat="48.2914" lon="2.58884">
        <ele>219</ele>
        <time>2017-02-05T09:35:52Z</time>
      </trkpt>
      <trkpt lat="48.29144" lon="2.58893">
        <ele>218</ele>
        <time>2017-02-05T09:35:56Z</time>
      </trkpt>
      <trkpt lat="48.29145" lon="2.58895">
        <ele>217</ele>
        <time>2017-02-05T09:35:59Z</time>
      </trkpt>
      <trkpt lat="48.29147" lon="2.58896">
        <ele>216</ele>
        <time>2017-02-05T09:36:01Z</time>
      </trkpt>
      <trkpt lat="48.29147" lon="2.58894">
        <ele>211</ele>
        <time>2017-02-05T09:36:17Z</time>
      </trkpt>
      <trkpt lat="48.2915" lon="2.58892">
        <ele>211</ele>
        <time>2017-02-05T09:36:18Z</time>
      </trkpt>
      <trkpt lat="48.29152" lon="2.58885">
        <ele>210</ele>
        <time>2017-02-05T09:36:20Z</time>
      </trkpt>
      <trkpt lat="48.29153" lon="2.58883">
        <ele>210</ele>
        <time>2017-02-05T09:36:21Z</time>
      </trkpt>
      <trkpt lat="48.29154" lon="2.58879">
        <ele>210</ele>
        <time>2017-02-05T09:36:23Z</time>
      </trkpt>
      <trkpt lat="48.29153" lon="2.5887">
        <ele>210</ele>
        <time>2017-02-05T09:36:27Z</time>
      </trkpt>
      <trkpt lat="48.29151" lon="2.5886">
        <ele>211</ele>
        <time>2017-02-05T09:36:31Z</time>
      </trkpt>
      <trkpt lat="48.2915" lon="2.58855">
        <ele>211</ele>
        <time>2017-02-05T09:36:33Z</time>
      </trkpt>
      <trkpt lat="48.2915" lon="2.58852">
        <ele>213</ele>
        <time>2017-02-05T09:36:36Z</time>
      </trkpt>
      <trkpt lat="48.29149" lon="2.58851">
        <ele>213</ele>
        <time>2017-02-05T09:36:38Z</time>
      </trkpt>
      <trkpt lat="48.29148" lon="2.58847">
        <ele>213</ele>
        <time>2017-02-05T09:36:43Z</time>
      </trkpt>
      <trkpt lat="48.29148" lon="2.58847">
        <ele>213</ele>
        <time>2017-02-05T09:36:44Z</time>
      </trkpt>
      <trkpt lat="48.29141" lon="2.58844">
        <ele>213</ele>
        <time>2017-02-05T09:36:50Z</time>
      </trkpt>
      <trkpt lat="48.2914" lon="2.58839">
        <ele>214</ele>
        <time>2017-02-05T09:36:53Z</time>
      </trkpt>
      <trkpt lat="48.2914" lon="2.58837">
        <ele>214</ele>
        <time>2017-02-05T09:36:54Z</time>
      </trkpt>
      <trkpt lat="48.2914" lon="2.58835">
        <ele>214</ele>
        <time>2017-02-05T09:36:56Z</time>
      </trkpt>
      <trkpt lat="48.2914" lon="2.58834">
        <ele>215</ele>
        <time>2017-02-05T09:36:58Z</time>
      </trkpt>
      <trkpt lat="48.29138" lon="2.5883">
        <ele>216</ele>
        <time>2017-02-05T09:37:19Z</time>
      </trkpt>
      <trkpt lat="48.29136" lon="2.58827">
        <ele>217</ele>
        <time>2017-02-05T09:37:22Z</time>
      </trkpt>
      <trkpt lat="48.29136" lon="2.58823">
        <ele>217</ele>
        <time>2017-02-05T09:37:26Z</time>
      </trkpt>
      <trkpt lat="48.29135" lon="2.58819">
        <ele>218</ele>
        <time>2017-02-05T09:37:28Z</time>
      </trkpt>
      <trkpt lat="48.29135" lon="2.58818">
        <ele>218</ele>
        <time>2017-02-05T09:37:30Z</time>
      </trkpt>
      <trkpt lat="48.29132" lon="2.58812">
        <ele>219</ele>
        <time>2017-02-05T09:37:35Z</time>
      </trkpt>
      <trkpt lat="48.29132" lon="2.58811">
        <ele>219</ele>
        <time>2017-02-05T09:37:36Z</time>
      </trkpt>
      <trkpt lat="48.29129" lon="2.58805">
        <ele>220</ele>
        <time>2017-02-05T09:37:42Z</time>
      </trkpt>
      <trkpt lat="48.29125" lon="2.58798">
        <ele>222</ele>
        <time>2017-02-05T09:37:48Z</time>
      </trkpt>
      <trkpt lat="48.29124" lon="2.58797">
        <ele>222</ele>
        <time>2017-02-05T09:37:50Z</time>
      </trkpt>
      <trkpt lat="48.29123" lon="2.58796">
        <ele>222</ele>
        <time>2017-02-05T09:37:51Z</time>
      </trkpt>
      <trkpt lat="48.29121" lon="2.58795">
        <ele>223</ele>
        <time>2017-02-05T09:37:55Z</time>
      </trkpt>
      <trkpt lat="48.29115" lon="2.58789">
        <ele>224</ele>
        <time>2017-02-05T09:38:01Z</time>
      </trkpt>
      <trkpt lat="48.29113" lon="2.58789">
        <ele>224</ele>
        <time>2017-02-05T09:38:02Z</time>
      </trkpt>
      <trkpt lat="48.29112" lon="2.58784">
        <ele>224</ele>
        <time>2017-02-05T09:38:07Z</time>
      </trkpt>
      <trkpt lat="48.2911" lon="2.5878">
        <ele>225</ele>
        <time>2017-02-05T09:38:12Z</time>
      </trkpt>
      <trkpt lat="48.29102" lon="2.58777">
        <ele>226</ele>
        <time>2017-02-05T09:38:19Z</time>
      </trkpt>
      <trkpt lat="48.291" lon="2.58776">
        <ele>226</ele>
        <time>2017-02-05T09:38:20Z</time>
      </trkpt>
      <trkpt lat="48.29096" lon="2.58774">
        <ele>227</ele>
        <time>2017-02-05T09:38:25Z</time>
      </trkpt>
      <trkpt lat="48.29095" lon="2.58774">
        <ele>227</ele>
        <time>2017-02-05T09:38:27Z</time>
      </trkpt>
      <trkpt lat="48.29093" lon="2.58773">
        <ele>228</ele>
        <time>2017-02-05T09:38:30Z</time>
      </trkpt>
      <trkpt lat="48.29092" lon="2.58773">
        <ele>229</ele>
        <time>2017-02-05T09:38:34Z</time>
      </trkpt>
      <trkpt lat="48.2909" lon="2.58769">
        <ele>229</ele>
        <time>2017-02-05T09:38:38Z</time>
      </trkpt>
      <trkpt lat="48.29089" lon="2.58767">
        <ele>229</ele>
        <time>2017-02-05T09:38:39Z</time>
      </trkpt>
      <trkpt lat="48.29084" lon="2.58762">
        <ele>230</ele>
        <time>2017-02-05T09:38:45Z</time>
      </trkpt>
      <trkpt lat="48.29083" lon="2.58761">
        <ele>230</ele>
        <time>2017-02-05T09:38:46Z</time>
      </trkpt>
      <trkpt lat="48.29079" lon="2.58755">
        <ele>231</ele>
        <time>2017-02-05T09:38:52Z</time>
      </trkpt>
      <trkpt lat="48.29078" lon="2.58754">
        <ele>231</ele>
        <time>2017-02-05T09:38:53Z</time>
      </trkpt>
      <trkpt lat="48.29075" lon="2.5875">
        <ele>232</ele>
        <time>2017-02-05T09:38:58Z</time>
      </trkpt>
      <trkpt lat="48.29074" lon="2.58748">
        <ele>233</ele>
        <time>2017-02-05T09:39:01Z</time>
      </trkpt>
      <trkpt lat="48.29075" lon="2.58743">
        <ele>233</ele>
        <time>2017-02-05T09:39:05Z</time>
      </trkpt>
      <trkpt lat="48.29075" lon="2.58743">
        <ele>233</ele>
        <time>2017-02-05T09:39:06Z</time>
      </trkpt>
      <trkpt lat="48.29072" lon="2.5874">
        <ele>234</ele>
        <time>2017-02-05T09:39:11Z</time>
      </trkpt>
      <trkpt lat="48.29071" lon="2.5874">
        <ele>234</ele>
        <time>2017-02-05T09:39:18Z</time>
      </trkpt>
      <trkpt lat="48.29066" lon="2.5874">
        <ele>235</ele>
        <time>2017-02-05T09:39:21Z</time>
      </trkpt>
      <trkpt lat="48.29062" lon="2.58741">
        <ele>235</ele>
        <time>2017-02-05T09:39:23Z</time>
      </trkpt>
      <trkpt lat="48.29057" lon="2.58737">
        <ele>235</ele>
        <time>2017-02-05T09:39:28Z</time>
      </trkpt>
      <trkpt lat="48.29056" lon="2.58735">
        <ele>236</ele>
        <time>2017-02-05T09:39:29Z</time>
      </trkpt>
      <trkpt lat="48.29054" lon="2.58732">
        <ele>236</ele>
        <time>2017-02-05T09:39:31Z</time>
      </trkpt>
      <trkpt lat="48.29053" lon="2.5873">
        <ele>236</ele>
        <time>2017-02-05T09:39:33Z</time>
      </trkpt>
      <trkpt lat="48.29051" lon="2.58728">
        <ele>237</ele>
        <time>2017-02-05T09:39:35Z</time>
      </trkpt>
      <trkpt lat="48.29051" lon="2.58728">
        <ele>237</ele>
        <time>2017-02-05T09:39:38Z</time>
      </trkpt>
      <trkpt lat="48.29054" lon="2.58727">
        <ele>237</ele>
        <time>2017-02-05T09:39:39Z</time>
      </trkpt>
      <trkpt lat="48.29057" lon="2.58726">
        <ele>238</ele>
        <time>2017-02-05T09:39:42Z</time>
      </trkpt>
      <trkpt lat="48.29058" lon="2.58726">
        <ele>238</ele>
        <time>2017-02-05T09:39:43Z</time>
      </trkpt>
      <trkpt lat="48.29069" lon="2.58719">
        <ele>238</ele>
        <time>2017-02-05T09:39:49Z</time>
      </trkpt>
      <trkpt lat="48.2909" lon="2.58713">
        <ele>239</ele>
        <time>2017-02-05T09:39:56Z</time>
      </trkpt>
      <trkpt lat="48.29099" lon="2.58712">
        <ele>239</ele>
        <time>2017-02-05T09:40:00Z</time>
      </trkpt>
      <trkpt lat="48.29102" lon="2.58711">
        <ele>239</ele>
        <time>2017-02-05T09:40:07Z</time>
      </trkpt>
      <trkpt lat="48.29103" lon="2.58709">
        <ele>239</ele>
        <time>2017-02-05T09:40:42Z</time>
      </trkpt>
      <trkpt lat="48.29106" lon="2.58702">
        <ele>239</ele>
        <time>2017-02-05T09:40:45Z</time>
      </trkpt>
      <trkpt lat="48.29109" lon="2.58695">
        <ele>238</ele>
        <time>2017-02-05T09:40:47Z</time>
      </trkpt>
      <trkpt lat="48.29113" lon="2.58685">
        <ele>238</ele>
        <time>2017-02-05T09:40:49Z</time>
      </trkpt>
      <trkpt lat="48.29114" lon="2.58668">
        <ele>238</ele>
        <time>2017-02-05T09:40:53Z</time>
      </trkpt>
      <trkpt lat="48.29107" lon="2.58659">
        <ele>238</ele>
        <time>2017-02-05T09:40:57Z</time>
      </trkpt>
      <trkpt lat="48.29103" lon="2.58656">
        <ele>238</ele>
        <time>2017-02-05T09:40:59Z</time>
      </trkpt>
      <trkpt lat="48.29094" lon="2.58649">
        <ele>239</ele>
        <time>2017-02-05T09:41:03Z</time>
      </trkpt>
      <trkpt lat="48.29085" lon="2.58645">
        <ele>239</ele>
        <time>2017-02-05T09:41:08Z</time>
      </trkpt>
      <trkpt lat="48.29075" lon="2.58642">
        <ele>238</ele>
        <time>2017-02-05T09:41:15Z</time>
      </trkpt>
      <trkpt lat="48.2907" lon="2.58643">
        <ele>239</ele>
        <time>2017-02-05T09:41:20Z</time>
      </trkpt>
      <trkpt lat="48.2907" lon="2.58643">
        <ele>239</ele>
        <time>2017-02-05T09:41:21Z</time>
      </trkpt>
      <trkpt lat="48.29065" lon="2.58644">
        <ele>240</ele>
        <time>2017-02-05T09:41:48Z</time>
      </trkpt>
      <trkpt lat="48.29061" lon="2.58643">
        <ele>240</ele>
        <time>2017-02-05T09:41:50Z</time>
      </trkpt>
      <trkpt lat="48.29058" lon="2.58643">
        <ele>241</ele>
        <time>2017-02-05T09:41:53Z</time>
      </trkpt>
      <trkpt lat="48.29059" lon="2.58642">
        <ele>242</ele>
        <time>2017-02-05T09:41:54Z</time>
      </trkpt>
      <trkpt lat="48.29056" lon="2.58642">
        <ele>242</ele>
        <time>2017-02-05T09:41:58Z</time>
      </trkpt>
      <trkpt lat="48.29054" lon="2.58642">
        <ele>242</ele>
        <time>2017-02-05T09:41:59Z</time>
      </trkpt>
      <trkpt lat="48.2905" lon="2.5864">
        <ele>243</ele>
        <time>2017-02-05T09:42:05Z</time>
      </trkpt>
      <trkpt lat="48.29048" lon="2.58638">
        <ele>244</ele>
        <time>2017-02-05T09:42:06Z</time>
      </trkpt>
      <trkpt lat="48.29046" lon="2.58632">
        <ele>244</ele>
        <time>2017-02-05T09:42:10Z</time>
      </trkpt>
      <trkpt lat="48.29045" lon="2.58627">
        <ele>244</ele>
        <time>2017-02-05T09:42:12Z</time>
      </trkpt>
      <trkpt lat="48.29042" lon="2.58611">
        <ele>243</ele>
        <time>2017-02-05T09:42:16Z</time>
      </trkpt>
      <trkpt lat="48.29036" lon="2.58594">
        <ele>243</ele>
        <time>2017-02-05T09:42:21Z</time>
      </trkpt>
      <trkpt lat="48.29032" lon="2.58572">
        <ele>244</ele>
        <time>2017-02-05T09:42:26Z</time>
      </trkpt>
      <trkpt lat="48.29025" lon="2.58559">
        <ele>243</ele>
        <time>2017-02-05T09:42:30Z</time>
      </trkpt>
      <trkpt lat="48.29023" lon="2.58556">
        <ele>243</ele>
        <time>2017-02-05T09:42:31Z</time>
      </trkpt>
      <trkpt lat="48.29019" lon="2.58552">
        <ele>243</ele>
        <time>2017-02-05T09:42:33Z</time>
      </trkpt>
      <trkpt lat="48.29011" lon="2.58542">
        <ele>242</ele>
        <time>2017-02-05T09:42:36Z</time>
      </trkpt>
      <trkpt lat="48.29003" lon="2.58535">
        <ele>242</ele>
        <time>2017-02-05T09:42:40Z</time>
      </trkpt>
      <trkpt lat="48.29002" lon="2.58534">
        <ele>242</ele>
        <time>2017-02-05T09:42:41Z</time>
      </trkpt>
      <trkpt lat="48.29" lon="2.58528">
        <ele>242</ele>
        <time>2017-02-05T09:42:44Z</time>
      </trkpt>
      <trkpt lat="48.28999" lon="2.58522">
        <ele>242</ele>
        <time>2017-02-05T09:42:46Z</time>
      </trkpt>
      <trkpt lat="48.28995" lon="2.58507">
        <ele>243</ele>
        <time>2017-02-05T09:42:52Z</time>
      </trkpt>
      <trkpt lat="48.28994" lon="2.58499">
        <ele>243</ele>
        <time>2017-02-05T09:42:59Z</time>
      </trkpt>
      <trkpt lat="48.28995" lon="2.58491">
        <ele>243</ele>
        <time>2017-02-05T09:43:02Z</time>
      </trkpt>
      <trkpt lat="48.28997" lon="2.58484">
        <ele>244</ele>
        <time>2017-02-05T09:43:04Z</time>
      </trkpt>
      <trkpt lat="48.28994" lon="2.58458">
        <ele>244</ele>
        <time>2017-02-05T09:43:10Z</time>
      </trkpt>
      <trkpt lat="48.28993" lon="2.58454">
        <ele>245</ele>
        <time>2017-02-05T09:43:11Z</time>
      </trkpt>
      <trkpt lat="48.28989" lon="2.58444">
        <ele>244</ele>
        <time>2017-02-05T09:43:14Z</time>
      </trkpt>
      <trkpt lat="48.28987" lon="2.58441">
        <ele>244</ele>
        <time>2017-02-05T09:43:15Z</time>
      </trkpt>
      <trkpt lat="48.28977" lon="2.5843">
        <ele>244</ele>
        <time>2017-02-05T09:43:20Z</time>
      </trkpt>
      <trkpt lat="48.28975" lon="2.58417">
        <ele>243</ele>
        <time>2017-02-05T09:43:24Z</time>
      </trkpt>
      <trkpt lat="48.28971" lon="2.58407">
        <ele>243</ele>
        <time>2017-02-05T09:43:28Z</time>
      </trkpt>
      <trkpt lat="48.28969" lon="2.58404">
        <ele>242</ele>
        <time>2017-02-05T09:43:29Z</time>
      </trkpt>
      <trkpt lat="48.28962" lon="2.58403">
        <ele>242</ele>
        <time>2017-02-05T09:43:32Z</time>
      </trkpt>
      <trkpt lat="48.2896" lon="2.58403">
        <ele>242</ele>
        <time>2017-02-05T09:43:33Z</time>
      </trkpt>
      <trkpt lat="48.28958" lon="2.58401">
        <ele>243</ele>
        <time>2017-02-05T09:43:35Z</time>
      </trkpt>
      <trkpt lat="48.28955" lon="2.58397">
        <ele>243</ele>
        <time>2017-02-05T09:43:37Z</time>
      </trkpt>
      <trkpt lat="48.28945" lon="2.58389">
        <ele>241</ele>
        <time>2017-02-05T09:43:42Z</time>
      </trkpt>
      <trkpt lat="48.28944" lon="2.58389">
        <ele>241</ele>
        <time>2017-02-05T09:43:43Z</time>
      </trkpt>
      <trkpt lat="48.28942" lon="2.58386">
        <ele>242</ele>
        <time>2017-02-05T09:43:47Z</time>
      </trkpt>
      <trkpt lat="48.28935" lon="2.58378">
        <ele>242</ele>
        <time>2017-02-05T09:43:52Z</time>
      </trkpt>
      <trkpt lat="48.28926" lon="2.58369">
        <ele>243</ele>
        <time>2017-02-05T09:43:57Z</time>
      </trkpt>
      <trkpt lat="48.28918" lon="2.5836">
        <ele>242</ele>
        <time>2017-02-05T09:44:02Z</time>
      </trkpt>
      <trkpt lat="48.28912" lon="2.58353">
        <ele>242</ele>
        <time>2017-02-05T09:44:07Z</time>
      </trkpt>
      <trkpt lat="48.28903" lon="2.58346">
        <ele>243</ele>
        <time>2017-02-05T09:44:13Z</time>
      </trkpt>
      <trkpt lat="48.28901" lon="2.58345">
        <ele>243</ele>
        <time>2017-02-05T09:44:15Z</time>
      </trkpt>
      <trkpt lat="48.289" lon="2.58345">
        <ele>244</ele>
        <time>2017-02-05T09:44:20Z</time>
      </trkpt>
      <trkpt lat="48.28901" lon="2.58345">
        <ele>245</ele>
        <time>2017-02-05T09:44:21Z</time>
      </trkpt>
      <trkpt lat="48.28895" lon="2.58338">
        <ele>245</ele>
        <time>2017-02-05T09:44:31Z</time>
      </trkpt>
      <trkpt lat="48.28894" lon="2.58334">
        <ele>244</ele>
        <time>2017-02-05T09:44:33Z</time>
      </trkpt>
      <trkpt lat="48.28893" lon="2.58322">
        <ele>244</ele>
        <time>2017-02-05T09:44:38Z</time>
      </trkpt>
      <trkpt lat="48.28894" lon="2.5832">
        <ele>244</ele>
        <time>2017-02-05T09:44:39Z</time>
      </trkpt>
      <trkpt lat="48.28899" lon="2.58322">
        <ele>244</ele>
        <time>2017-02-05T09:44:42Z</time>
      </trkpt>
      <trkpt lat="48.28902" lon="2.58325">
        <ele>243</ele>
        <time>2017-02-05T09:44:43Z</time>
      </trkpt>
      <trkpt lat="48.28908" lon="2.58335">
        <ele>242</ele>
        <time>2017-02-05T09:44:45Z</time>
      </trkpt>
      <trkpt lat="48.2891" lon="2.58339">
        <ele>241</ele>
        <time>2017-02-05T09:44:46Z</time>
      </trkpt>
      <trkpt lat="48.28912" lon="2.58342">
        <ele>241</ele>
        <time>2017-02-05T09:44:47Z</time>
      </trkpt>
      <trkpt lat="48.28916" lon="2.58343">
        <ele>240</ele>
        <time>2017-02-05T09:44:49Z</time>
      </trkpt>
      <trkpt lat="48.28919" lon="2.58343">
        <ele>240</ele>
        <time>2017-02-05T09:44:50Z</time>
      </trkpt>
      <trkpt lat="48.28924" lon="2.58343">
        <ele>239</ele>
        <time>2017-02-05T09:44:53Z</time>
      </trkpt>
      <trkpt lat="48.28926" lon="2.58343">
        <ele>238</ele>
        <time>2017-02-05T09:44:54Z</time>
      </trkpt>
      <trkpt lat="48.28927" lon="2.58343">
        <ele>238</ele>
        <time>2017-02-05T09:44:55Z</time>
      </trkpt>
      <trkpt lat="48.28927" lon="2.58343">
        <ele>238</ele>
        <time>2017-02-05T09:44:57Z</time>
      </trkpt>
      <trkpt lat="48.28931" lon="2.58338">
        <ele>237</ele>
        <time>2017-02-05T09:45:00Z</time>
      </trkpt>
      <trkpt lat="48.28932" lon="2.58337">
        <ele>237</ele>
        <time>2017-02-05T09:45:01Z</time>
      </trkpt>
      <trkpt lat="48.28934" lon="2.58335">
        <ele>236</ele>
        <time>2017-02-05T09:45:03Z</time>
      </trkpt>
      <trkpt lat="48.28937" lon="2.5833">
        <ele>235</ele>
        <time>2017-02-05T09:45:05Z</time>
      </trkpt>
      <trkpt lat="48.28942" lon="2.58325">
        <ele>233</ele>
        <time>2017-02-05T09:45:08Z</time>
      </trkpt>
      <trkpt lat="48.28945" lon="2.58323">
        <ele>233</ele>
        <time>2017-02-05T09:45:10Z</time>
      </trkpt>
      <trkpt lat="48.28944" lon="2.58323">
        <ele>232</ele>
        <time>2017-02-05T09:45:11Z</time>
      </trkpt>
      <trkpt lat="48.28946" lon="2.58321">
        <ele>232</ele>
        <time>2017-02-05T09:45:15Z</time>
      </trkpt>
      <trkpt lat="48.28955" lon="2.58317">
        <ele>231</ele>
        <time>2017-02-05T09:45:20Z</time>
      </trkpt>
      <trkpt lat="48.28956" lon="2.58318">
        <ele>231</ele>
        <time>2017-02-05T09:45:21Z</time>
      </trkpt>
      <trkpt lat="48.28962" lon="2.58319">
        <ele>230</ele>
        <time>2017-02-05T09:45:23Z</time>
      </trkpt>
      <trkpt lat="48.28965" lon="2.5832">
        <ele>229</ele>
        <time>2017-02-05T09:45:24Z</time>
      </trkpt>
      <trkpt lat="48.2897" lon="2.5832">
        <ele>228</ele>
        <time>2017-02-05T09:45:25Z</time>
      </trkpt>
      <trkpt lat="48.28981" lon="2.58318">
        <ele>227</ele>
        <time>2017-02-05T09:45:28Z</time>
      </trkpt>
      <trkpt lat="48.28986" lon="2.58316">
        <ele>226</ele>
        <time>2017-02-05T09:45:29Z</time>
      </trkpt>
      <trkpt lat="48.28992" lon="2.5831">
        <ele>226</ele>
        <time>2017-02-05T09:45:31Z</time>
      </trkpt>
      <trkpt lat="48.29005" lon="2.58302">
        <ele>226</ele>
        <time>2017-02-05T09:45:36Z</time>
      </trkpt>
      <trkpt lat="48.29017" lon="2.58299">
        <ele>227</ele>
        <time>2017-02-05T09:45:41Z</time>
      </trkpt>
      <trkpt lat="48.29019" lon="2.58301">
        <ele>227</ele>
        <time>2017-02-05T09:45:42Z</time>
      </trkpt>
      <trkpt lat="48.29027" lon="2.58304">
        <ele>226</ele>
        <time>2017-02-05T09:45:46Z</time>
      </trkpt>
      <trkpt lat="48.29034" lon="2.583">
        <ele>227</ele>
        <time>2017-02-05T09:45:53Z</time>
      </trkpt>
      <trkpt lat="48.29035" lon="2.583">
        <ele>227</ele>
        <time>2017-02-05T09:46:02Z</time>
      </trkpt>
      <trkpt lat="48.29035" lon="2.58298">
        <ele>229</ele>
        <time>2017-02-05T09:46:11Z</time>
      </trkpt>
      <trkpt lat="48.29035" lon="2.58298">
        <ele>229</ele>
        <time>2017-02-05T09:46:52Z</time>
      </trkpt>
      <trkpt lat="48.29042" lon="2.58294">
        <ele>230</ele>
        <time>2017-02-05T09:47:05Z</time>
      </trkpt>
      <trkpt lat="48.29045" lon="2.5829">
        <ele>231</ele>
        <time>2017-02-05T09:47:07Z</time>
      </trkpt>
      <trkpt lat="48.29047" lon="2.58287">
        <ele>232</ele>
        <time>2017-02-05T09:47:09Z</time>
      </trkpt>
      <trkpt lat="48.2905" lon="2.58286">
        <ele>232</ele>
        <time>2017-02-05T09:47:11Z</time>
      </trkpt>
      <trkpt lat="48.29057" lon="2.58281">
        <ele>233</ele>
        <time>2017-02-05T09:47:17Z</time>
      </trkpt>
      <trkpt lat="48.29058" lon="2.5828">
        <ele>234</ele>
        <time>2017-02-05T09:47:21Z</time>
      </trkpt>
      <trkpt lat="48.2906" lon="2.58276">
        <ele>235</ele>
        <time>2017-02-05T09:47:26Z</time>
      </trkpt>
      <trkpt lat="48.29064" lon="2.5827">
        <ele>236</ele>
        <time>2017-02-05T09:47:29Z</time>
      </trkpt>
      <trkpt lat="48.29065" lon="2.58269">
        <ele>237</ele>
        <time>2017-02-05T09:47:31Z</time>
      </trkpt>
      <trkpt lat="48.29067" lon="2.58266">
        <ele>237</ele>
        <time>2017-02-05T09:47:37Z</time>
      </trkpt>
      <trkpt lat="48.29069" lon="2.5826">
        <ele>238</ele>
        <time>2017-02-05T09:47:44Z</time>
      </trkpt>
      <trkpt lat="48.29071" lon="2.58256">
        <ele>239</ele>
        <time>2017-02-05T09:47:46Z</time>
      </trkpt>
      <trkpt lat="48.29072" lon="2.58255">
        <ele>239</ele>
        <time>2017-02-05T09:47:52Z</time>
      </trkpt>
      <trkpt lat="48.29074" lon="2.58249">
        <ele>239</ele>
        <time>2017-02-05T09:48:04Z</time>
      </trkpt>
      <trkpt lat="48.29074" lon="2.58249">
        <ele>239</ele>
        <time>2017-02-05T09:48:12Z</time>
      </trkpt>
      <trkpt lat="48.29075" lon="2.58248">
        <ele>239</ele>
        <time>2017-02-05T09:48:18Z</time>
      </trkpt>
      <trkpt lat="48.29075" lon="2.58247">
        <ele>239</ele>
        <time>2017-02-05T09:49:02Z</time>
      </trkpt>
      <trkpt lat="48.29075" lon="2.58246">
        <ele>239</ele>
        <time>2017-02-05T09:49:38Z</time>
      </trkpt>
      <trkpt lat="48.29075" lon="2.58246">
        <ele>239</ele>
        <time>2017-02-05T09:50:18Z</time>
      </trkpt>
      <trkpt lat="48.29074" lon="2.58246">
        <ele>239</ele>
        <time>2017-02-05T09:50:55Z</time>
      </trkpt>
      <trkpt lat="48.29074" lon="2.58246">
        <ele>239</ele>
        <time>2017-02-05T09:51:41Z</time>
      </trkpt>
      <trkpt lat="48.29075" lon="2.58246">
        <ele>239</ele>
        <time>2017-02-05T09:52:17Z</time>
      </trkpt>
      <trkpt lat="48.29075" lon="2.58246">
        <ele>239</ele>
        <time>2017-02-05T09:53:09Z</time>
      </trkpt>
      <trkpt lat="48.29074" lon="2.58246">
        <ele>239</ele>
        <time>2017-02-05T09:53:39Z</time>
      </trkpt>
      <trkpt lat="48.29074" lon="2.58246">
        <ele>239</ele>
        <time>2017-02-05T09:54:25Z</time>
      </trkpt>
      <trkpt lat="48.29076" lon="2.58241">
        <ele>239</ele>
        <time>2017-02-05T09:54:56Z</time>
      </trkpt>
      <trkpt lat="48.29076" lon="2.58239">
        <ele>239</ele>
        <time>2017-02-05T09:55:05Z</time>
      </trkpt>
      <trkpt lat="48.29076" lon="2.58238">
        <ele>239</ele>
        <time>2017-02-05T09:55:06Z</time>
      </trkpt>
      <trkpt lat="48.29078" lon="2.58226">
        <ele>240</ele>
        <time>2017-02-05T09:55:11Z</time>
      </trkpt>
      <trkpt lat="48.29078" lon="2.58222">
        <ele>241</ele>
        <time>2017-02-05T09:55:13Z</time>
      </trkpt>
      <trkpt lat="48.29077" lon="2.58212">
        <ele>241</ele>
        <time>2017-02-05T09:55:18Z</time>
      </trkpt>
      <trkpt lat="48.29077" lon="2.58209">
        <ele>242</ele>
        <time>2017-02-05T09:55:19Z</time>
      </trkpt>
      <trkpt lat="48.29073" lon="2.58194">
        <ele>243</ele>
        <time>2017-02-05T09:55:24Z</time>
      </trkpt>
      <trkpt lat="48.29073" lon="2.5819">
        <ele>243</ele>
        <time>2017-02-05T09:55:25Z</time>
      </trkpt>
      <trkpt lat="48.29072" lon="2.5818">
        <ele>243</ele>
        <time>2017-02-05T09:55:28Z</time>
      </trkpt>
      <trkpt lat="48.29072" lon="2.58177">
        <ele>243</ele>
        <time>2017-02-05T09:55:29Z</time>
      </trkpt>
      <trkpt lat="48.29071" lon="2.58165">
        <ele>243</ele>
        <time>2017-02-05T09:55:33Z</time>
      </trkpt>
      <trkpt lat="48.29073" lon="2.58147">
        <ele>243</ele>
        <time>2017-02-05T09:55:38Z</time>
      </trkpt>
      <trkpt lat="48.29071" lon="2.58132">
        <ele>242</ele>
        <time>2017-02-05T09:55:42Z</time>
      </trkpt>
      <trkpt lat="48.29071" lon="2.58116">
        <ele>243</ele>
        <time>2017-02-05T09:55:47Z</time>
      </trkpt>
      <trkpt lat="48.2907" lon="2.581">
        <ele>243</ele>
        <time>2017-02-05T09:55:53Z</time>
      </trkpt>
      <trkpt lat="48.29069" lon="2.58094">
        <ele>242</ele>
        <time>2017-02-05T09:56:02Z</time>
      </trkpt>
      <trkpt lat="48.29066" lon="2.58081">
        <ele>242</ele>
        <time>2017-02-05T09:56:07Z</time>
      </trkpt>
      <trkpt lat="48.29067" lon="2.58063">
        <ele>242</ele>
        <time>2017-02-05T09:56:12Z</time>
      </trkpt>
      <trkpt lat="48.29067" lon="2.58045">
        <ele>243</ele>
        <time>2017-02-05T09:56:17Z</time>
      </trkpt>
      <trkpt lat="48.29065" lon="2.58026">
        <ele>243</ele>
        <time>2017-02-05T09:56:22Z</time>
      </trkpt>
      <trkpt lat="48.2907" lon="2.58009">
        <ele>243</ele>
        <time>2017-02-05T09:56:27Z</time>
      </trkpt>
      <trkpt lat="48.29076" lon="2.57982">
        <ele>243</ele>
        <time>2017-02-05T09:56:33Z</time>
      </trkpt>
      <trkpt lat="48.29084" lon="2.57954">
        <ele>243</ele>
        <time>2017-02-05T09:56:39Z</time>
      </trkpt>
      <trkpt lat="48.29097" lon="2.57917">
        <ele>242</ele>
        <time>2017-02-05T09:56:46Z</time>
      </trkpt>
      <trkpt lat="48.29102" lon="2.57904">
        <ele>242</ele>
        <time>2017-02-05T09:56:48Z</time>
      </trkpt>
      <trkpt lat="48.29114" lon="2.57877">
        <ele>240</ele>
        <time>2017-02-05T09:56:52Z</time>
      </trkpt>
      <trkpt lat="48.29117" lon="2.57869">
        <ele>240</ele>
        <time>2017-02-05T09:56:53Z</time>
      </trkpt>
      <trkpt lat="48.29121" lon="2.57862">
        <ele>239</ele>
        <time>2017-02-05T09:56:54Z</time>
      </trkpt>
      <trkpt lat="48.29129" lon="2.57847">
        <ele>238</ele>
        <time>2017-02-05T09:56:56Z</time>
      </trkpt>
      <trkpt lat="48.29134" lon="2.57833">
        <ele>237</ele>
        <time>2017-02-05T09:56:58Z</time>
      </trkpt>
      <trkpt lat="48.29139" lon="2.57828">
        <ele>236</ele>
        <time>2017-02-05T09:57:01Z</time>
      </trkpt>
      <trkpt lat="48.29142" lon="2.5783">
        <ele>235</ele>
        <time>2017-02-05T09:57:03Z</time>
      </trkpt>
      <trkpt lat="48.29144" lon="2.57831">
        <ele>235</ele>
        <time>2017-02-05T09:57:04Z</time>
      </trkpt>
      <trkpt lat="48.29146" lon="2.5783">
        <ele>235</ele>
        <time>2017-02-05T09:57:05Z</time>
      </trkpt>
      <trkpt lat="48.29149" lon="2.57828">
        <ele>234</ele>
        <time>2017-02-05T09:57:07Z</time>
      </trkpt>
      <trkpt lat="48.29152" lon="2.57826">
        <ele>234</ele>
        <time>2017-02-05T09:57:10Z</time>
      </trkpt>
      <trkpt lat="48.29155" lon="2.5782">
        <ele>233</ele>
        <time>2017-02-05T09:57:16Z</time>
      </trkpt>
      <trkpt lat="48.29157" lon="2.57819">
        <ele>233</ele>
        <time>2017-02-05T09:57:17Z</time>
      </trkpt>
      <trkpt lat="48.2916" lon="2.57817">
        <ele>232</ele>
        <time>2017-02-05T09:57:19Z</time>
      </trkpt>
      <trkpt lat="48.29161" lon="2.57815">
        <ele>232</ele>
        <time>2017-02-05T09:57:20Z</time>
      </trkpt>
      <trkpt lat="48.29162" lon="2.57814">
        <ele>232</ele>
        <time>2017-02-05T09:57:21Z</time>
      </trkpt>
      <trkpt lat="48.29165" lon="2.5781">
        <ele>231</ele>
        <time>2017-02-05T09:57:23Z</time>
      </trkpt>
      <trkpt lat="48.29168" lon="2.57806">
        <ele>230</ele>
        <time>2017-02-05T09:57:26Z</time>
      </trkpt>
      <trkpt lat="48.29171" lon="2.57805">
        <ele>229</ele>
        <time>2017-02-05T09:57:28Z</time>
      </trkpt>
      <trkpt lat="48.29174" lon="2.57808">
        <ele>228</ele>
        <time>2017-02-05T09:57:30Z</time>
      </trkpt>
      <trkpt lat="48.29179" lon="2.57817">
        <ele>227</ele>
        <time>2017-02-05T09:57:33Z</time>
      </trkpt>
      <trkpt lat="48.29183" lon="2.57822">
        <ele>227</ele>
        <time>2017-02-05T09:57:35Z</time>
      </trkpt>
      <trkpt lat="48.29194" lon="2.57833">
        <ele>227</ele>
        <time>2017-02-05T09:57:40Z</time>
      </trkpt>
      <trkpt lat="48.29202" lon="2.57844">
        <ele>225</ele>
        <time>2017-02-05T09:57:43Z</time>
      </trkpt>
      <trkpt lat="48.29207" lon="2.57854">
        <ele>225</ele>
        <time>2017-02-05T09:57:45Z</time>
      </trkpt>
      <trkpt lat="48.29211" lon="2.57858">
        <ele>224</ele>
        <time>2017-02-05T09:57:46Z</time>
      </trkpt>
      <trkpt lat="48.29223" lon="2.57871">
        <ele>223</ele>
        <time>2017-02-05T09:57:50Z</time>
      </trkpt>
      <trkpt lat="48.29228" lon="2.57872">
        <ele>223</ele>
        <time>2017-02-05T09:57:54Z</time>
      </trkpt>
      <trkpt lat="48.29239" lon="2.57871">
        <ele>223</ele>
        <time>2017-02-05T09:57:59Z</time>
      </trkpt>
      <trkpt lat="48.29246" lon="2.57867">
        <ele>224</ele>
        <time>2017-02-05T09:58:02Z</time>
      </trkpt>
      <trkpt lat="48.29249" lon="2.57865">
        <ele>224</ele>
        <time>2017-02-05T09:58:03Z</time>
      </trkpt>
      <trkpt lat="48.29261" lon="2.57859">
        <ele>223</ele>
        <time>2017-02-05T09:58:08Z</time>
      </trkpt>
      <trkpt lat="48.2928" lon="2.57852">
        <ele>223</ele>
        <time>2017-02-05T09:58:13Z</time>
      </trkpt>
      <trkpt lat="48.29291" lon="2.5785">
        <ele>224</ele>
        <time>2017-02-05T09:58:17Z</time>
      </trkpt>
      <trkpt lat="48.29297" lon="2.57851">
        <ele>223</ele>
        <time>2017-02-05T09:58:19Z</time>
      </trkpt>
      <trkpt lat="48.29301" lon="2.57849">
        <ele>222</ele>
        <time>2017-02-05T09:58:21Z</time>
      </trkpt>
      <trkpt lat="48.29309" lon="2.57844">
        <ele>222</ele>
        <time>2017-02-05T09:58:24Z</time>
      </trkpt>
      <trkpt lat="48.29317" lon="2.5784">
        <ele>221</ele>
        <time>2017-02-05T09:58:27Z</time>
      </trkpt>
      <trkpt lat="48.2932" lon="2.57838">
        <ele>221</ele>
        <time>2017-02-05T09:58:28Z</time>
      </trkpt>
      <trkpt lat="48.29323" lon="2.57835">
        <ele>221</ele>
        <time>2017-02-05T09:58:29Z</time>
      </trkpt>
      <trkpt lat="48.29334" lon="2.57827">
        <ele>221</ele>
        <time>2017-02-05T09:58:34Z</time>
      </trkpt>
      <trkpt lat="48.29343" lon="2.57819">
        <ele>221</ele>
        <time>2017-02-05T09:58:39Z</time>
      </trkpt>
      <trkpt lat="48.29357" lon="2.5781">
        <ele>222</ele>
        <time>2017-02-05T09:58:44Z</time>
      </trkpt>
      <trkpt lat="48.2936" lon="2.57811">
        <ele>221</ele>
        <time>2017-02-05T09:58:46Z</time>
      </trkpt>
      <trkpt lat="48.29366" lon="2.5781">
        <ele>221</ele>
        <time>2017-02-05T09:58:49Z</time>
      </trkpt>
      <trkpt lat="48.2938" lon="2.57811">
        <ele>221</ele>
        <time>2017-02-05T09:58:54Z</time>
      </trkpt>
      <trkpt lat="48.29382" lon="2.5781">
        <ele>221</ele>
        <time>2017-02-05T09:58:55Z</time>
      </trkpt>
      <trkpt lat="48.29398" lon="2.57804">
        <ele>222</ele>
        <time>2017-02-05T09:59:01Z</time>
      </trkpt>
      <trkpt lat="48.294" lon="2.57804">
        <ele>222</ele>
        <time>2017-02-05T09:59:02Z</time>
      </trkpt>
      <trkpt lat="48.29408" lon="2.57799">
        <ele>222</ele>
        <time>2017-02-05T09:59:06Z</time>
      </trkpt>
      <trkpt lat="48.29416" lon="2.57791">
        <ele>223</ele>
        <time>2017-02-05T09:59:12Z</time>
      </trkpt>
      <trkpt lat="48.29417" lon="2.57789">
        <ele>223</ele>
        <time>2017-02-05T09:59:13Z</time>
      </trkpt>
      <trkpt lat="48.29422" lon="2.57781">
        <ele>224</ele>
        <time>2017-02-05T09:59:18Z</time>
      </trkpt>
      <trkpt lat="48.29422" lon="2.5778">
        <ele>225</ele>
        <time>2017-02-05T09:59:19Z</time>
      </trkpt>
      <trkpt lat="48.29425" lon="2.57775">
        <ele>226</ele>
        <time>2017-02-05T09:59:23Z</time>
      </trkpt>
      <trkpt lat="48.29429" lon="2.57771">
        <ele>226</ele>
        <time>2017-02-05T09:59:25Z</time>
      </trkpt>
      <trkpt lat="48.29433" lon="2.57761">
        <ele>226</ele>
        <time>2017-02-05T09:59:30Z</time>
      </trkpt>
      <trkpt lat="48.29438" lon="2.57751">
        <ele>226</ele>
        <time>2017-02-05T09:59:35Z</time>
      </trkpt>
      <trkpt lat="48.2944" lon="2.57748">
        <ele>227</ele>
        <time>2017-02-05T09:59:37Z</time>
      </trkpt>
      <trkpt lat="48.29444" lon="2.57746">
        <ele>228</ele>
        <time>2017-02-05T09:59:40Z</time>
      </trkpt>
      <trkpt lat="48.29446" lon="2.57746">
        <ele>228</ele>
        <time>2017-02-05T09:59:42Z</time>
      </trkpt>
      <trkpt lat="48.29446" lon="2.57743">
        <ele>228</ele>
        <time>2017-02-05T09:59:51Z</time>
      </trkpt>
      <trkpt lat="48.29446" lon="2.57743">
        <ele>229</ele>
        <time>2017-02-05T09:59:57Z</time>
      </trkpt>
      <trkpt lat="48.29449" lon="2.57741">
        <ele>229</ele>
        <time>2017-02-05T10:00:01Z</time>
      </trkpt>
      <trkpt lat="48.29451" lon="2.57741">
        <ele>229</ele>
        <time>2017-02-05T10:00:04Z</time>
      </trkpt>
      <trkpt lat="48.29459" lon="2.57736">
        <ele>230</ele>
        <time>2017-02-05T10:00:11Z</time>
      </trkpt>
      <trkpt lat="48.29466" lon="2.57724">
        <ele>229</ele>
        <time>2017-02-05T10:00:15Z</time>
      </trkpt>
      <trkpt lat="48.29469" lon="2.57717">
        <ele>228</ele>
        <time>2017-02-05T10:00:17Z</time>
      </trkpt>
      <trkpt lat="48.2947" lon="2.5771">
        <ele>228</ele>
        <time>2017-02-05T10:00:20Z</time>
      </trkpt>
      <trkpt lat="48.29472" lon="2.57703">
        <ele>228</ele>
        <time>2017-02-05T10:00:24Z</time>
      </trkpt>
      <trkpt lat="48.29474" lon="2.57686">
        <ele>229</ele>
        <time>2017-02-05T10:00:30Z</time>
      </trkpt>
      <trkpt lat="48.29477" lon="2.57671">
        <ele>230</ele>
        <time>2017-02-05T10:00:35Z</time>
      </trkpt>
      <trkpt lat="48.29477" lon="2.57667">
        <ele>231</ele>
        <time>2017-02-05T10:00:38Z</time>
      </trkpt>
      <trkpt lat="48.29478" lon="2.57663">
        <ele>232</ele>
        <time>2017-02-05T10:00:40Z</time>
      </trkpt>
      <trkpt lat="48.29478" lon="2.57662">
        <ele>232</ele>
        <time>2017-02-05T10:00:47Z</time>
      </trkpt>
      <trkpt lat="48.29479" lon="2.57661">
        <ele>232</ele>
        <time>2017-02-05T10:00:48Z</time>
      </trkpt>
      <trkpt lat="48.29481" lon="2.57658">
        <ele>233</ele>
        <time>2017-02-05T10:00:53Z</time>
      </trkpt>
      <trkpt lat="48.29485" lon="2.57655">
        <ele>234</ele>
        <time>2017-02-05T10:00:59Z</time>
      </trkpt>
      <trkpt lat="48.29486" lon="2.57655">
        <ele>234</ele>
        <time>2017-02-05T10:01:01Z</time>
      </trkpt>
      <trkpt lat="48.29487" lon="2.57655">
        <ele>234</ele>
        <time>2017-02-05T10:01:12Z</time>
      </trkpt>
      <trkpt lat="48.29487" lon="2.57656">
        <ele>234</ele>
        <time>2017-02-05T10:01:17Z</time>
      </trkpt>
      <trkpt lat="48.29496" lon="2.5766">
        <ele>235</ele>
        <time>2017-02-05T10:01:24Z</time>
      </trkpt>
      <trkpt lat="48.29505" lon="2.57666">
        <ele>235</ele>
        <time>2017-02-05T10:01:29Z</time>
      </trkpt>
      <trkpt lat="48.29507" lon="2.57666">
        <ele>235</ele>
        <time>2017-02-05T10:01:30Z</time>
      </trkpt>
      <trkpt lat="48.29511" lon="2.57664">
        <ele>235</ele>
        <time>2017-02-05T10:01:33Z</time>
      </trkpt>
      <trkpt lat="48.29514" lon="2.57664">
        <ele>235</ele>
        <time>2017-02-05T10:01:34Z</time>
      </trkpt>
      <trkpt lat="48.29521" lon="2.57662">
        <ele>235</ele>
        <time>2017-02-05T10:01:38Z</time>
      </trkpt>
      <trkpt lat="48.29525" lon="2.57659">
        <ele>235</ele>
        <time>2017-02-05T10:01:40Z</time>
      </trkpt>
      <trkpt lat="48.29528" lon="2.57655">
        <ele>235</ele>
        <time>2017-02-05T10:01:42Z</time>
      </trkpt>
      <trkpt lat="48.29533" lon="2.57648">
        <ele>236</ele>
        <time>2017-02-05T10:01:46Z</time>
      </trkpt>
      <trkpt lat="48.29534" lon="2.57647">
        <ele>236</ele>
        <time>2017-02-05T10:01:48Z</time>
      </trkpt>
      <trkpt lat="48.29541" lon="2.57641">
        <ele>237</ele>
        <time>2017-02-05T10:01:52Z</time>
      </trkpt>
      <trkpt lat="48.29545" lon="2.5764">
        <ele>237</ele>
        <time>2017-02-05T10:01:54Z</time>
      </trkpt>
      <trkpt lat="48.29549" lon="2.5764">
        <ele>237</ele>
        <time>2017-02-05T10:01:56Z</time>
      </trkpt>
      <trkpt lat="48.29552" lon="2.5764">
        <ele>237</ele>
        <time>2017-02-05T10:01:57Z</time>
      </trkpt>
      <trkpt lat="48.29554" lon="2.5764">
        <ele>237</ele>
        <time>2017-02-05T10:01:58Z</time>
      </trkpt>
      <trkpt lat="48.29562" lon="2.57642">
        <ele>238</ele>
        <time>2017-02-05T10:02:01Z</time>
      </trkpt>
      <trkpt lat="48.29568" lon="2.57643">
        <ele>238</ele>
        <time>2017-02-05T10:02:04Z</time>
      </trkpt>
      <trkpt lat="48.29571" lon="2.57644">
        <ele>239</ele>
        <time>2017-02-05T10:02:06Z</time>
      </trkpt>
      <trkpt lat="48.29583" lon="2.57649">
        <ele>239</ele>
        <time>2017-02-05T10:02:11Z</time>
      </trkpt>
      <trkpt lat="48.29596" lon="2.57649">
        <ele>239</ele>
        <time>2017-02-05T10:02:17Z</time>
      </trkpt>
      <trkpt lat="48.29607" lon="2.57657">
        <ele>238</ele>
        <time>2017-02-05T10:02:22Z</time>
      </trkpt>
      <trkpt lat="48.29611" lon="2.57658">
        <ele>238</ele>
        <time>2017-02-05T10:02:27Z</time>
      </trkpt>
      <trkpt lat="48.29611" lon="2.57658">
        <ele>238</ele>
        <time>2017-02-05T10:02:38Z</time>
      </trkpt>
      <trkpt lat="48.29617" lon="2.57661">
        <ele>237</ele>
        <time>2017-02-05T10:02:45Z</time>
      </trkpt>
      <trkpt lat="48.29619" lon="2.57662">
        <ele>238</ele>
        <time>2017-02-05T10:02:52Z</time>
      </trkpt>
      <trkpt lat="48.29622" lon="2.57663">
        <ele>238</ele>
        <time>2017-02-05T10:02:54Z</time>
      </trkpt>
      <trkpt lat="48.29629" lon="2.57665">
        <ele>238</ele>
        <time>2017-02-05T10:02:58Z</time>
      </trkpt>
      <trkpt lat="48.29636" lon="2.57667">
        <ele>238</ele>
        <time>2017-02-05T10:03:03Z</time>
      </trkpt>
      <trkpt lat="48.29639" lon="2.57667">
        <ele>237</ele>
        <time>2017-02-05T10:03:09Z</time>
      </trkpt>
      <trkpt lat="48.29643" lon="2.57666">
        <ele>236</ele>
        <time>2017-02-05T10:03:13Z</time>
      </trkpt>
      <trkpt lat="48.29646" lon="2.57665">
        <ele>236</ele>
        <time>2017-02-05T10:03:15Z</time>
      </trkpt>
      <trkpt lat="48.29648" lon="2.57664">
        <ele>236</ele>
        <time>2017-02-05T10:03:16Z</time>
      </trkpt>
      <trkpt lat="48.29657" lon="2.57663">
        <ele>236</ele>
        <time>2017-02-05T10:03:22Z</time>
      </trkpt>
      <trkpt lat="48.29663" lon="2.57661">
        <ele>238</ele>
        <time>2017-02-05T10:03:26Z</time>
      </trkpt>
      <trkpt lat="48.29671" lon="2.57664">
        <ele>239</ele>
        <time>2017-02-05T10:03:34Z</time>
      </trkpt>
      <trkpt lat="48.29672" lon="2.57664">
        <ele>238</ele>
        <time>2017-02-05T10:03:57Z</time>
      </trkpt>
      <trkpt lat="48.29672" lon="2.57666">
        <ele>238</ele>
        <time>2017-02-05T10:04:03Z</time>
      </trkpt>
      <trkpt lat="48.29673" lon="2.57668">
        <ele>238</ele>
        <time>2017-02-05T10:04:04Z</time>
      </trkpt>
      <trkpt lat="48.29676" lon="2.57674">
        <ele>238</ele>
        <time>2017-02-05T10:04:07Z</time>
      </trkpt>
      <trkpt lat="48.29676" lon="2.57677">
        <ele>238</ele>
        <time>2017-02-05T10:04:12Z</time>
      </trkpt>
      <trkpt lat="48.29678" lon="2.57685">
        <ele>239</ele>
        <time>2017-02-05T10:04:19Z</time>
      </trkpt>
      <trkpt lat="48.29678" lon="2.57688">
        <ele>240</ele>
        <time>2017-02-05T10:04:23Z</time>
      </trkpt>
      <trkpt lat="48.29678" lon="2.57689">
        <ele>240</ele>
        <time>2017-02-05T10:04:26Z</time>
      </trkpt>
      <trkpt lat="48.29677" lon="2.57694">
        <ele>241</ele>
        <time>2017-02-05T10:04:30Z</time>
      </trkpt>
      <trkpt lat="48.29678" lon="2.57698">
        <ele>241</ele>
        <time>2017-02-05T10:04:32Z</time>
      </trkpt>
      <trkpt lat="48.29676" lon="2.57707">
        <ele>240</ele>
        <time>2017-02-05T10:04:37Z</time>
      </trkpt>
      <trkpt lat="48.29677" lon="2.57716">
        <ele>241</ele>
        <time>2017-02-05T10:04:43Z</time>
      </trkpt>
      <trkpt lat="48.29674" lon="2.57726">
        <ele>240</ele>
        <time>2017-02-05T10:04:50Z</time>
      </trkpt>
      <trkpt lat="48.29674" lon="2.57736">
        <ele>241</ele>
        <time>2017-02-05T10:04:57Z</time>
      </trkpt>
      <trkpt lat="48.29674" lon="2.57742">
        <ele>240</ele>
        <time>2017-02-05T10:05:03Z</time>
      </trkpt>
      <trkpt lat="48.29675" lon="2.57741">
        <ele>240</ele>
        <time>2017-02-05T10:05:12Z</time>
      </trkpt>
      <trkpt lat="48.29674" lon="2.57743">
        <ele>240</ele>
        <time>2017-02-05T10:05:21Z</time>
      </trkpt>
      <trkpt lat="48.29674" lon="2.57743">
        <ele>240</ele>
        <time>2017-02-05T10:05:22Z</time>
      </trkpt>
      <trkpt lat="48.29675" lon="2.57747">
        <ele>240</ele>
        <time>2017-02-05T10:05:24Z</time>
      </trkpt>
      <trkpt lat="48.29675" lon="2.57748">
        <ele>240</ele>
        <time>2017-02-05T10:05:25Z</time>
      </trkpt>
      <trkpt lat="48.29679" lon="2.57754">
        <ele>239</ele>
        <time>2017-02-05T10:05:28Z</time>
      </trkpt>
      <trkpt lat="48.29682" lon="2.5776">
        <ele>238</ele>
        <time>2017-02-05T10:05:30Z</time>
      </trkpt>
      <trkpt lat="48.29688" lon="2.57766">
        <ele>238</ele>
        <time>2017-02-05T10:05:33Z</time>
      </trkpt>
      <trkpt lat="48.29698" lon="2.57773">
        <ele>239</ele>
        <time>2017-02-05T10:05:38Z</time>
      </trkpt>
      <trkpt lat="48.29707" lon="2.57777">
        <ele>237</ele>
        <time>2017-02-05T10:05:42Z</time>
      </trkpt>
      <trkpt lat="48.29714" lon="2.57779">
        <ele>236</ele>
        <time>2017-02-05T10:05:45Z</time>
      </trkpt>
      <trkpt lat="48.29715" lon="2.57779">
        <ele>237</ele>
        <time>2017-02-05T10:05:47Z</time>
      </trkpt>
      <trkpt lat="48.29721" lon="2.57778">
        <ele>237</ele>
        <time>2017-02-05T10:05:53Z</time>
      </trkpt>
      <trkpt lat="48.29726" lon="2.5778">
        <ele>237</ele>
        <time>2017-02-05T10:06:00Z</time>
      </trkpt>
      <trkpt lat="48.29729" lon="2.5778">
        <ele>238</ele>
        <time>2017-02-05T10:06:06Z</time>
      </trkpt>
      <trkpt lat="48.29731" lon="2.57781">
        <ele>238</ele>
        <time>2017-02-05T10:06:09Z</time>
      </trkpt>
      <trkpt lat="48.29734" lon="2.57782">
        <ele>239</ele>
        <time>2017-02-05T10:06:12Z</time>
      </trkpt>
      <trkpt lat="48.29735" lon="2.57783">
        <ele>239</ele>
        <time>2017-02-05T10:06:14Z</time>
      </trkpt>
      <trkpt lat="48.29739" lon="2.57784">
        <ele>240</ele>
        <time>2017-02-05T10:06:18Z</time>
      </trkpt>
      <trkpt lat="48.29743" lon="2.57789">
        <ele>240</ele>
        <time>2017-02-05T10:06:22Z</time>
      </trkpt>
      <trkpt lat="48.29744" lon="2.57793">
        <ele>240</ele>
        <time>2017-02-05T10:06:25Z</time>
      </trkpt>
      <trkpt lat="48.29751" lon="2.57798">
        <ele>241</ele>
        <time>2017-02-05T10:06:31Z</time>
      </trkpt>
      <trkpt lat="48.29754" lon="2.57794">
        <ele>241</ele>
        <time>2017-02-05T10:06:34Z</time>
      </trkpt>
      <trkpt lat="48.29757" lon="2.57793">
        <ele>241</ele>
        <time>2017-02-05T10:06:37Z</time>
      </trkpt>
      <trkpt lat="48.29761" lon="2.57797">
        <ele>241</ele>
        <time>2017-02-05T10:06:39Z</time>
      </trkpt>
      <trkpt lat="48.29762" lon="2.57805">
        <ele>240</ele>
        <time>2017-02-05T10:06:42Z</time>
      </trkpt>
      <trkpt lat="48.29763" lon="2.57811">
        <ele>240</ele>
        <time>2017-02-05T10:06:44Z</time>
      </trkpt>
      <trkpt lat="48.29765" lon="2.57821">
        <ele>239</ele>
        <time>2017-02-05T10:06:47Z</time>
      </trkpt>
      <trkpt lat="48.29766" lon="2.57825">
        <ele>239</ele>
        <time>2017-02-05T10:06:48Z</time>
      </trkpt>
      <trkpt lat="48.29766" lon="2.57829">
        <ele>239</ele>
        <time>2017-02-05T10:06:49Z</time>
      </trkpt>
      <trkpt lat="48.29766" lon="2.57836">
        <ele>238</ele>
        <time>2017-02-05T10:06:51Z</time>
      </trkpt>
      <trkpt lat="48.29766" lon="2.57835">
        <ele>238</ele>
        <time>2017-02-05T10:06:52Z</time>
      </trkpt>
      <trkpt lat="48.29764" lon="2.57851">
        <ele>238</ele>
        <time>2017-02-05T10:06:58Z</time>
      </trkpt>
      <trkpt lat="48.2976" lon="2.57859">
        <ele>237</ele>
        <time>2017-02-05T10:07:02Z</time>
      </trkpt>
      <trkpt lat="48.29758" lon="2.5786">
        <ele>237</ele>
        <time>2017-02-05T10:07:04Z</time>
      </trkpt>
      <trkpt lat="48.29753" lon="2.57864">
        <ele>237</ele>
        <time>2017-02-05T10:07:10Z</time>
      </trkpt>
      <trkpt lat="48.29751" lon="2.57864">
        <ele>236</ele>
        <time>2017-02-05T10:07:14Z</time>
      </trkpt>
      <trkpt lat="48.2975" lon="2.57863">
        <ele>235</ele>
        <time>2017-02-05T10:07:16Z</time>
      </trkpt>
      <trkpt lat="48.29749" lon="2.57863">
        <ele>235</ele>
        <time>2017-02-05T10:07:42Z</time>
      </trkpt>
      <trkpt lat="48.29746" lon="2.57862">
        <ele>235</ele>
        <time>2017-02-05T10:07:44Z</time>
      </trkpt>
      <trkpt lat="48.29745" lon="2.57862">
        <ele>234</ele>
        <time>2017-02-05T10:07:49Z</time>
      </trkpt>
      <trkpt lat="48.29744" lon="2.57863">
        <ele>233</ele>
        <time>2017-02-05T10:08:01Z</time>
      </trkpt>
      <trkpt lat="48.29743" lon="2.57865">
        <ele>233</ele>
        <time>2017-02-05T10:08:03Z</time>
      </trkpt>
      <trkpt lat="48.29743" lon="2.57867">
        <ele>232</ele>
        <time>2017-02-05T10:08:05Z</time>
      </trkpt>
      <trkpt lat="48.29742" lon="2.57871">
        <ele>231</ele>
        <time>2017-02-05T10:08:07Z</time>
      </trkpt>
      <trkpt lat="48.29741" lon="2.57872">
        <ele>231</ele>
        <time>2017-02-05T10:08:08Z</time>
      </trkpt>
      <trkpt lat="48.29741" lon="2.57875">
        <ele>230</ele>
        <time>2017-02-05T10:08:09Z</time>
      </trkpt>
      <trkpt lat="48.2974" lon="2.57878">
        <ele>230</ele>
        <time>2017-02-05T10:08:10Z</time>
      </trkpt>
      <trkpt lat="48.29739" lon="2.57883">
        <ele>228</ele>
        <time>2017-02-05T10:08:12Z</time>
      </trkpt>
      <trkpt lat="48.29739" lon="2.57886">
        <ele>226</ele>
        <time>2017-02-05T10:08:13Z</time>
      </trkpt>
      <trkpt lat="48.29741" lon="2.57894">
        <ele>225</ele>
        <time>2017-02-05T10:08:15Z</time>
      </trkpt>
      <trkpt lat="48.29742" lon="2.579">
        <ele>224</ele>
        <time>2017-02-05T10:08:17Z</time>
      </trkpt>
      <trkpt lat="48.29742" lon="2.57905">
        <ele>224</ele>
        <time>2017-02-05T10:08:19Z</time>
      </trkpt>
      <trkpt lat="48.29743" lon="2.57913">
        <ele>223</ele>
        <time>2017-02-05T10:08:21Z</time>
      </trkpt>
      <trkpt lat="48.29744" lon="2.57915">
        <ele>222</ele>
        <time>2017-02-05T10:08:22Z</time>
      </trkpt>
      <trkpt lat="48.29745" lon="2.57918">
        <ele>222</ele>
        <time>2017-02-05T10:08:23Z</time>
      </trkpt>
      <trkpt lat="48.29746" lon="2.57921">
        <ele>221</ele>
        <time>2017-02-05T10:08:25Z</time>
      </trkpt>
      <trkpt lat="48.29748" lon="2.57925">
        <ele>219</ele>
        <time>2017-02-05T10:08:27Z</time>
      </trkpt>
      <trkpt lat="48.29748" lon="2.57927">
        <ele>219</ele>
        <time>2017-02-05T10:08:28Z</time>
      </trkpt>
      <trkpt lat="48.29749" lon="2.5793">
        <ele>218</ele>
        <time>2017-02-05T10:08:29Z</time>
      </trkpt>
      <trkpt lat="48.29751" lon="2.57932">
        <ele>217</ele>
        <time>2017-02-05T10:08:31Z</time>
      </trkpt>
      <trkpt lat="48.29755" lon="2.57938">
        <ele>216</ele>
        <time>2017-02-05T10:08:33Z</time>
      </trkpt>
      <trkpt lat="48.29757" lon="2.57942">
        <ele>215</ele>
        <time>2017-02-05T10:08:34Z</time>
      </trkpt>
      <trkpt lat="48.29763" lon="2.5795">
        <ele>214</ele>
        <time>2017-02-05T10:08:36Z</time>
      </trkpt>
      <trkpt lat="48.29769" lon="2.57954">
        <ele>213</ele>
        <time>2017-02-05T10:08:38Z</time>
      </trkpt>
      <trkpt lat="48.29776" lon="2.57954">
        <ele>213</ele>
        <time>2017-02-05T10:08:43Z</time>
      </trkpt>
      <trkpt lat="48.29779" lon="2.5795">
        <ele>214</ele>
        <time>2017-02-05T10:08:45Z</time>
      </trkpt>
      <trkpt lat="48.29783" lon="2.57947">
        <ele>214</ele>
        <time>2017-02-05T10:08:48Z</time>
      </trkpt>
      <trkpt lat="48.29786" lon="2.57944">
        <ele>215</ele>
        <time>2017-02-05T10:08:51Z</time>
      </trkpt>
      <trkpt lat="48.29791" lon="2.57942">
        <ele>215</ele>
        <time>2017-02-05T10:08:56Z</time>
      </trkpt>
      <trkpt lat="48.29795" lon="2.57935">
        <ele>216</ele>
        <time>2017-02-05T10:09:02Z</time>
      </trkpt>
      <trkpt lat="48.29794" lon="2.57927">
        <ele>216</ele>
        <time>2017-02-05T10:09:05Z</time>
      </trkpt>
      <trkpt lat="48.29792" lon="2.57921">
        <ele>217</ele>
        <time>2017-02-05T10:09:07Z</time>
      </trkpt>
      <trkpt lat="48.29791" lon="2.57918">
        <ele>217</ele>
        <time>2017-02-05T10:09:08Z</time>
      </trkpt>
      <trkpt lat="48.29788" lon="2.57914">
        <ele>218</ele>
        <time>2017-02-05T10:09:11Z</time>
      </trkpt>
      <trkpt lat="48.29788" lon="2.57914">
        <ele>219</ele>
        <time>2017-02-05T10:09:12Z</time>
      </trkpt>
      <trkpt lat="48.29782" lon="2.57918">
        <ele>220</ele>
        <time>2017-02-05T10:09:16Z</time>
      </trkpt>
      <trkpt lat="48.29781" lon="2.57918">
        <ele>220</ele>
        <time>2017-02-05T10:09:17Z</time>
      </trkpt>
      <trkpt lat="48.29776" lon="2.57916">
        <ele>220</ele>
        <time>2017-02-05T10:09:21Z</time>
      </trkpt>
      <trkpt lat="48.29776" lon="2.57914">
        <ele>221</ele>
        <time>2017-02-05T10:09:23Z</time>
      </trkpt>
      <trkpt lat="48.29777" lon="2.57912">
        <ele>221</ele>
        <time>2017-02-05T10:09:26Z</time>
      </trkpt>
      <trkpt lat="48.29778" lon="2.57909">
        <ele>222</ele>
        <time>2017-02-05T10:09:28Z</time>
      </trkpt>
      <trkpt lat="48.2978" lon="2.57906">
        <ele>222</ele>
        <time>2017-02-05T10:09:30Z</time>
      </trkpt>
      <trkpt lat="48.2978" lon="2.57901">
        <ele>222</ele>
        <time>2017-02-05T10:09:32Z</time>
      </trkpt>
      <trkpt lat="48.29781" lon="2.57899">
        <ele>222</ele>
        <time>2017-02-05T10:09:33Z</time>
      </trkpt>
      <trkpt lat="48.29782" lon="2.57894">
        <ele>223</ele>
        <time>2017-02-05T10:09:36Z</time>
      </trkpt>
      <trkpt lat="48.29783" lon="2.5789">
        <ele>224</ele>
        <time>2017-02-05T10:09:40Z</time>
      </trkpt>
      <trkpt lat="48.29783" lon="2.57886">
        <ele>224</ele>
        <time>2017-02-05T10:09:41Z</time>
      </trkpt>
      <trkpt lat="48.29784" lon="2.57884">
        <ele>225</ele>
        <time>2017-02-05T10:09:46Z</time>
      </trkpt>
      <trkpt lat="48.29784" lon="2.57883">
        <ele>225</ele>
        <time>2017-02-05T10:09:53Z</time>
      </trkpt>
      <trkpt lat="48.29785" lon="2.57879">
        <ele>225</ele>
        <time>2017-02-05T10:09:59Z</time>
      </trkpt>
      <trkpt lat="48.29788" lon="2.5787">
        <ele>226</ele>
        <time>2017-02-05T10:10:06Z</time>
      </trkpt>
      <trkpt lat="48.29788" lon="2.5787">
        <ele>227</ele>
        <time>2017-02-05T10:10:14Z</time>
      </trkpt>
      <trkpt lat="48.2979" lon="2.57868">
        <ele>228</ele>
        <time>2017-02-05T10:10:22Z</time>
      </trkpt>
      <trkpt lat="48.29799" lon="2.5786">
        <ele>228</ele>
        <time>2017-02-05T10:10:29Z</time>
      </trkpt>
      <trkpt lat="48.298" lon="2.57857">
        <ele>229</ele>
        <time>2017-02-05T10:10:31Z</time>
      </trkpt>
      <trkpt lat="48.29803" lon="2.57854">
        <ele>229</ele>
        <time>2017-02-05T10:10:36Z</time>
      </trkpt>
      <trkpt lat="48.29803" lon="2.57853">
        <ele>230</ele>
        <time>2017-02-05T10:10:37Z</time>
      </trkpt>
      <trkpt lat="48.29803" lon="2.5785">
        <ele>231</ele>
        <time>2017-02-05T10:10:43Z</time>
      </trkpt>
      <trkpt lat="48.298" lon="2.57844">
        <ele>232</ele>
        <time>2017-02-05T10:10:49Z</time>
      </trkpt>
      <trkpt lat="48.29799" lon="2.57843">
        <ele>232</ele>
        <time>2017-02-05T10:10:51Z</time>
      </trkpt>
      <trkpt lat="48.29796" lon="2.57841">
        <ele>232</ele>
        <time>2017-02-05T10:10:59Z</time>
      </trkpt>
      <trkpt lat="48.29789" lon="2.57839">
        <ele>233</ele>
        <time>2017-02-05T10:11:05Z</time>
      </trkpt>
      <trkpt lat="48.29786" lon="2.57837">
        <ele>233</ele>
        <time>2017-02-05T10:11:09Z</time>
      </trkpt>
      <trkpt lat="48.29783" lon="2.57833">
        <ele>234</ele>
        <time>2017-02-05T10:11:13Z</time>
      </trkpt>
      <trkpt lat="48.29783" lon="2.57832">
        <ele>234</ele>
        <time>2017-02-05T10:11:15Z</time>
      </trkpt>
      <trkpt lat="48.29785" lon="2.57829">
        <ele>235</ele>
        <time>2017-02-05T10:11:21Z</time>
      </trkpt>
      <trkpt lat="48.29793" lon="2.57828">
        <ele>235</ele>
        <time>2017-02-05T10:11:28Z</time>
      </trkpt>
      <trkpt lat="48.29797" lon="2.57825">
        <ele>236</ele>
        <time>2017-02-05T10:11:34Z</time>
      </trkpt>
      <trkpt lat="48.29801" lon="2.57824">
        <ele>236</ele>
        <time>2017-02-05T10:11:39Z</time>
      </trkpt>
      <trkpt lat="48.29804" lon="2.57824">
        <ele>237</ele>
        <time>2017-02-05T10:11:46Z</time>
      </trkpt>
      <trkpt lat="48.29804" lon="2.57824">
        <ele>237</ele>
        <time>2017-02-05T10:11:48Z</time>
      </trkpt>
      <trkpt lat="48.29806" lon="2.57821">
        <ele>238</ele>
        <time>2017-02-05T10:11:52Z</time>
      </trkpt>
      <trkpt lat="48.29806" lon="2.57822">
        <ele>238</ele>
        <time>2017-02-05T10:11:53Z</time>
      </trkpt>
      <trkpt lat="48.29806" lon="2.5782">
        <ele>238</ele>
        <time>2017-02-05T10:11:58Z</time>
      </trkpt>
      <trkpt lat="48.29806" lon="2.5782">
        <ele>238</ele>
        <time>2017-02-05T10:12:41Z</time>
      </trkpt>
      <trkpt lat="48.29806" lon="2.5782">
        <ele>238</ele>
        <time>2017-02-05T10:13:20Z</time>
      </trkpt>
      <trkpt lat="48.29806" lon="2.5782">
        <ele>238</ele>
        <time>2017-02-05T10:13:57Z</time>
      </trkpt>
      <trkpt lat="48.29806" lon="2.5782">
        <ele>238</ele>
        <time>2017-02-05T10:14:10Z</time>
      </trkpt>
      <trkpt lat="48.29806" lon="2.57819">
        <ele>238</ele>
        <time>2017-02-05T10:14:59Z</time>
      </trkpt>
      <trkpt lat="48.29804" lon="2.57818">
        <ele>238</ele>
        <time>2017-02-05T10:15:27Z</time>
      </trkpt>
      <trkpt lat="48.29802" lon="2.57816">
        <ele>238</ele>
        <time>2017-02-05T10:15:29Z</time>
      </trkpt>
      <trkpt lat="48.29803" lon="2.57812">
        <ele>238</ele>
        <time>2017-02-05T10:15:32Z</time>
      </trkpt>
      <trkpt lat="48.29805" lon="2.57807">
        <ele>238</ele>
        <time>2017-02-05T10:15:34Z</time>
      </trkpt>
      <trkpt lat="48.29806" lon="2.57803">
        <ele>238</ele>
        <time>2017-02-05T10:15:36Z</time>
      </trkpt>
      <trkpt lat="48.29808" lon="2.57799">
        <ele>237</ele>
        <time>2017-02-05T10:15:40Z</time>
      </trkpt>
      <trkpt lat="48.29812" lon="2.57797">
        <ele>237</ele>
        <time>2017-02-05T10:15:44Z</time>
      </trkpt>
      <trkpt lat="48.29814" lon="2.57795">
        <ele>237</ele>
        <time>2017-02-05T10:15:45Z</time>
      </trkpt>
      <trkpt lat="48.29816" lon="2.57792">
        <ele>237</ele>
        <time>2017-02-05T10:15:46Z</time>
      </trkpt>
      <trkpt lat="48.29822" lon="2.57788">
        <ele>238</ele>
        <time>2017-02-05T10:15:50Z</time>
      </trkpt>
      <trkpt lat="48.29824" lon="2.57787">
        <ele>238</ele>
        <time>2017-02-05T10:15:51Z</time>
      </trkpt>
      <trkpt lat="48.29827" lon="2.57788">
        <ele>238</ele>
        <time>2017-02-05T10:15:54Z</time>
      </trkpt>
      <trkpt lat="48.29828" lon="2.57788">
        <ele>238</ele>
        <time>2017-02-05T10:15:55Z</time>
      </trkpt>
      <trkpt lat="48.29832" lon="2.57793">
        <ele>239</ele>
        <time>2017-02-05T10:15:59Z</time>
      </trkpt>
      <trkpt lat="48.29833" lon="2.57796">
        <ele>239</ele>
        <time>2017-02-05T10:16:00Z</time>
      </trkpt>
      <trkpt lat="48.29836" lon="2.57802">
        <ele>238</ele>
        <time>2017-02-05T10:16:05Z</time>
      </trkpt>
      <trkpt lat="48.29844" lon="2.57803">
        <ele>239</ele>
        <time>2017-02-05T10:16:10Z</time>
      </trkpt>
      <trkpt lat="48.29845" lon="2.57803">
        <ele>239</ele>
        <time>2017-02-05T10:16:11Z</time>
      </trkpt>
      <trkpt lat="48.29847" lon="2.57804">
        <ele>239</ele>
        <time>2017-02-05T10:16:12Z</time>
      </trkpt>
      <trkpt lat="48.29848" lon="2.57806">
        <ele>240</ele>
        <time>2017-02-05T10:16:13Z</time>
      </trkpt>
      <trkpt lat="48.29857" lon="2.57812">
        <ele>240</ele>
        <time>2017-02-05T10:16:17Z</time>
      </trkpt>
      <trkpt lat="48.29869" lon="2.57814">
        <ele>240</ele>
        <time>2017-02-05T10:16:22Z</time>
      </trkpt>
      <trkpt lat="48.2988" lon="2.5782">
        <ele>239</ele>
        <time>2017-02-05T10:16:27Z</time>
      </trkpt>
      <trkpt lat="48.29882" lon="2.5782">
        <ele>238</ele>
        <time>2017-02-05T10:16:28Z</time>
      </trkpt>
      <trkpt lat="48.29883" lon="2.57822">
        <ele>238</ele>
        <time>2017-02-05T10:16:29Z</time>
      </trkpt>
      <trkpt lat="48.29886" lon="2.57826">
        <ele>238</ele>
        <time>2017-02-05T10:16:32Z</time>
      </trkpt>
      <trkpt lat="48.29887" lon="2.57827">
        <ele>237</ele>
        <time>2017-02-05T10:16:34Z</time>
      </trkpt>
      <trkpt lat="48.29889" lon="2.57835">
        <ele>236</ele>
        <time>2017-02-05T10:16:37Z</time>
      </trkpt>
      <trkpt lat="48.2989" lon="2.57838">
        <ele>236</ele>
        <time>2017-02-05T10:16:38Z</time>
      </trkpt>
      <trkpt lat="48.29889" lon="2.57849">
        <ele>234</ele>
        <time>2017-02-05T10:16:41Z</time>
      </trkpt>
      <trkpt lat="48.29888" lon="2.57858">
        <ele>233</ele>
        <time>2017-02-05T10:16:43Z</time>
      </trkpt>
      <trkpt lat="48.29888" lon="2.57865">
        <ele>233</ele>
        <time>2017-02-05T10:16:44Z</time>
      </trkpt>
      <trkpt lat="48.29888" lon="2.57882">
        <ele>231</ele>
        <time>2017-02-05T10:16:46Z</time>
      </trkpt>
      <trkpt lat="48.29889" lon="2.57893">
        <ele>230</ele>
        <time>2017-02-05T10:16:47Z</time>
      </trkpt>
      <trkpt lat="48.2989" lon="2.57903">
        <ele>229</ele>
        <time>2017-02-05T10:16:48Z</time>
      </trkpt>
      <trkpt lat="48.2989" lon="2.57911">
        <ele>228</ele>
        <time>2017-02-05T10:16:49Z</time>
      </trkpt>
      <trkpt lat="48.2989" lon="2.57916">
        <ele>227</ele>
        <time>2017-02-05T10:16:50Z</time>
      </trkpt>
      <trkpt lat="48.29889" lon="2.57919">
        <ele>226</ele>
        <time>2017-02-05T10:16:51Z</time>
      </trkpt>
      <trkpt lat="48.29889" lon="2.5792">
        <ele>225</ele>
        <time>2017-02-05T10:16:52Z</time>
      </trkpt>
      <trkpt lat="48.29889" lon="2.5792">
        <ele>225</ele>
        <time>2017-02-05T10:16:55Z</time>
      </trkpt>
      <trkpt lat="48.29888" lon="2.57922">
        <ele>225</ele>
        <time>2017-02-05T10:17:06Z</time>
      </trkpt>
      <trkpt lat="48.29885" lon="2.5793">
        <ele>224</ele>
        <time>2017-02-05T10:17:09Z</time>
      </trkpt>
      <trkpt lat="48.29882" lon="2.57938">
        <ele>223</ele>
        <time>2017-02-05T10:17:11Z</time>
      </trkpt>
      <trkpt lat="48.2988" lon="2.57945">
        <ele>222</ele>
        <time>2017-02-05T10:17:12Z</time>
      </trkpt>
      <trkpt lat="48.29879" lon="2.57951">
        <ele>222</ele>
        <time>2017-02-05T10:17:13Z</time>
      </trkpt>
      <trkpt lat="48.29877" lon="2.57966">
        <ele>220</ele>
        <time>2017-02-05T10:17:15Z</time>
      </trkpt>
      <trkpt lat="48.29874" lon="2.57984">
        <ele>219</ele>
        <time>2017-02-05T10:17:17Z</time>
      </trkpt>
      <trkpt lat="48.29872" lon="2.57995">
        <ele>218</ele>
        <time>2017-02-05T10:17:18Z</time>
      </trkpt>
      <trkpt lat="48.29871" lon="2.58005">
        <ele>217</ele>
        <time>2017-02-05T10:17:19Z</time>
      </trkpt>
      <trkpt lat="48.29869" lon="2.58015">
        <ele>216</ele>
        <time>2017-02-05T10:17:20Z</time>
      </trkpt>
      <trkpt lat="48.29868" lon="2.58024">
        <ele>215</ele>
        <time>2017-02-05T10:17:21Z</time>
      </trkpt>
      <trkpt lat="48.29869" lon="2.58031">
        <ele>214</ele>
        <time>2017-02-05T10:17:22Z</time>
      </trkpt>
      <trkpt lat="48.29874" lon="2.58041">
        <ele>213</ele>
        <time>2017-02-05T10:17:24Z</time>
      </trkpt>
      <trkpt lat="48.29878" lon="2.58046">
        <ele>213</ele>
        <time>2017-02-05T10:17:25Z</time>
      </trkpt>
      <trkpt lat="48.29886" lon="2.5807">
        <ele>212</ele>
        <time>2017-02-05T10:17:28Z</time>
      </trkpt>
      <trkpt lat="48.29888" lon="2.58078">
        <ele>211</ele>
        <time>2017-02-05T10:17:29Z</time>
      </trkpt>
      <trkpt lat="48.29892" lon="2.58098">
        <ele>210</ele>
        <time>2017-02-05T10:17:31Z</time>
      </trkpt>
      <trkpt lat="48.29895" lon="2.58119">
        <ele>209</ele>
        <time>2017-02-05T10:17:33Z</time>
      </trkpt>
      <trkpt lat="48.29897" lon="2.58144">
        <ele>208</ele>
        <time>2017-02-05T10:17:35Z</time>
      </trkpt>
      <trkpt lat="48.29899" lon="2.58156">
        <ele>207</ele>
        <time>2017-02-05T10:17:36Z</time>
      </trkpt>
      <trkpt lat="48.299" lon="2.58165">
        <ele>206</ele>
        <time>2017-02-05T10:17:37Z</time>
      </trkpt>
      <trkpt lat="48.29902" lon="2.58174">
        <ele>205</ele>
        <time>2017-02-05T10:17:38Z</time>
      </trkpt>
      <trkpt lat="48.29903" lon="2.58186">
        <ele>203</ele>
        <time>2017-02-05T10:17:40Z</time>
      </trkpt>
      <trkpt lat="48.29903" lon="2.5819">
        <ele>203</ele>
        <time>2017-02-05T10:17:41Z</time>
      </trkpt>
      <trkpt lat="48.29901" lon="2.58195">
        <ele>202</ele>
        <time>2017-02-05T10:17:43Z</time>
      </trkpt>
      <trkpt lat="48.29896" lon="2.58201">
        <ele>202</ele>
        <time>2017-02-05T10:17:45Z</time>
      </trkpt>
      <trkpt lat="48.2989" lon="2.58214">
        <ele>201</ele>
        <time>2017-02-05T10:17:47Z</time>
      </trkpt>
      <trkpt lat="48.29889" lon="2.58219">
        <ele>201</ele>
        <time>2017-02-05T10:17:48Z</time>
      </trkpt>
      <trkpt lat="48.29887" lon="2.58225">
        <ele>201</ele>
        <time>2017-02-05T10:17:49Z</time>
      </trkpt>
      <trkpt lat="48.29884" lon="2.5823">
        <ele>200</ele>
        <time>2017-02-05T10:17:50Z</time>
      </trkpt>
      <trkpt lat="48.29882" lon="2.58235">
        <ele>199</ele>
        <time>2017-02-05T10:17:52Z</time>
      </trkpt>
      <trkpt lat="48.29882" lon="2.58238">
        <ele>199</ele>
        <time>2017-02-05T10:17:53Z</time>
      </trkpt>
      <trkpt lat="48.29881" lon="2.5825">
        <ele>199</ele>
        <time>2017-02-05T10:17:56Z</time>
      </trkpt>
      <trkpt lat="48.29886" lon="2.58266">
        <ele>198</ele>
        <time>2017-02-05T10:17:59Z</time>
      </trkpt>
      <trkpt lat="48.29888" lon="2.58271">
        <ele>198</ele>
        <time>2017-02-05T10:18:00Z</time>
      </trkpt>
      <trkpt lat="48.29902" lon="2.58294">
        <ele>197</ele>
        <time>2017-02-05T10:18:04Z</time>
      </trkpt>
      <trkpt lat="48.29912" lon="2.58303">
        <ele>197</ele>
        <time>2017-02-05T10:18:06Z</time>
      </trkpt>
      <trkpt lat="48.29917" lon="2.58309">
        <ele>197</ele>
        <time>2017-02-05T10:18:07Z</time>
      </trkpt>
      <trkpt lat="48.29925" lon="2.58319">
        <ele>197</ele>
        <time>2017-02-05T10:18:09Z</time>
      </trkpt>
      <trkpt lat="48.29933" lon="2.58331">
        <ele>197</ele>
        <time>2017-02-05T10:18:11Z</time>
      </trkpt>
      <trkpt lat="48.29942" lon="2.58338">
        <ele>196</ele>
        <time>2017-02-05T10:18:14Z</time>
      </trkpt>
      <trkpt lat="48.29947" lon="2.58335">
        <ele>196</ele>
        <time>2017-02-05T10:18:16Z</time>
      </trkpt>
      <trkpt lat="48.29955" lon="2.58332">
        <ele>196</ele>
        <time>2017-02-05T10:18:19Z</time>
      </trkpt>
      <trkpt lat="48.2996" lon="2.58319">
        <ele>196</ele>
        <time>2017-02-05T10:18:22Z</time>
      </trkpt>
      <trkpt lat="48.29962" lon="2.58315">
        <ele>196</ele>
        <time>2017-02-05T10:18:23Z</time>
      </trkpt>
      <trkpt lat="48.29965" lon="2.58307">
        <ele>197</ele>
        <time>2017-02-05T10:18:25Z</time>
      </trkpt>
      <trkpt lat="48.2997" lon="2.58296">
        <ele>197</ele>
        <time>2017-02-05T10:18:29Z</time>
      </trkpt>
      <trkpt lat="48.29971" lon="2.58295">
        <ele>197</ele>
        <time>2017-02-05T10:18:30Z</time>
      </trkpt>
      <trkpt lat="48.29978" lon="2.58285">
        <ele>198</ele>
        <time>2017-02-05T10:18:34Z</time>
      </trkpt>
      <trkpt lat="48.29984" lon="2.58278">
        <ele>198</ele>
        <time>2017-02-05T10:18:37Z</time>
      </trkpt>
      <trkpt lat="48.29986" lon="2.58276">
        <ele>198</ele>
        <time>2017-02-05T10:18:38Z</time>
      </trkpt>
      <trkpt lat="48.2999" lon="2.58272">
        <ele>199</ele>
        <time>2017-02-05T10:18:43Z</time>
      </trkpt>
      <trkpt lat="48.2999" lon="2.58271">
        <ele>199</ele>
        <time>2017-02-05T10:18:50Z</time>
      </trkpt>
      <trkpt lat="48.29993" lon="2.58266">
        <ele>199</ele>
        <time>2017-02-05T10:18:52Z</time>
      </trkpt>
      <trkpt lat="48.29994" lon="2.58265">
        <ele>201</ele>
        <time>2017-02-05T10:18:55Z</time>
      </trkpt>
      <trkpt lat="48.29996" lon="2.58263">
        <ele>201</ele>
        <time>2017-02-05T10:18:57Z</time>
      </trkpt>
      <trkpt lat="48.29999" lon="2.58259">
        <ele>201</ele>
        <time>2017-02-05T10:18:59Z</time>
      </trkpt>
      <trkpt lat="48.30004" lon="2.58251">
        <ele>202</ele>
        <time>2017-02-05T10:19:03Z</time>
      </trkpt>
      <trkpt lat="48.30009" lon="2.58238">
        <ele>203</ele>
        <time>2017-02-05T10:19:09Z</time>
      </trkpt>
      <trkpt lat="48.3001" lon="2.58237">
        <ele>203</ele>
        <time>2017-02-05T10:19:10Z</time>
      </trkpt>
      <trkpt lat="48.30016" lon="2.58225">
        <ele>203</ele>
        <time>2017-02-05T10:19:16Z</time>
      </trkpt>
      <trkpt lat="48.30016" lon="2.58224">
        <ele>203</ele>
        <time>2017-02-05T10:19:26Z</time>
      </trkpt>
      <trkpt lat="48.30016" lon="2.58224">
        <ele>203</ele>
        <time>2017-02-05T10:20:13Z</time>
      </trkpt>
      <trkpt lat="48.30016" lon="2.58223">
        <ele>204</ele>
        <time>2017-02-05T10:20:45Z</time>
      </trkpt>
      <trkpt lat="48.30016" lon="2.58222">
        <ele>204</ele>
        <time>2017-02-05T10:21:21Z</time>
      </trkpt>
      <trkpt lat="48.30016" lon="2.58222">
        <ele>203</ele>
        <time>2017-02-05T10:22:06Z</time>
      </trkpt>
      <trkpt lat="48.30023" lon="2.58214">
        <ele>203</ele>
        <time>2017-02-05T10:22:27Z</time>
      </trkpt>
      <trkpt lat="48.30027" lon="2.5821">
        <ele>203</ele>
        <time>2017-02-05T10:22:29Z</time>
      </trkpt>
      <trkpt lat="48.30033" lon="2.58202">
        <ele>203</ele>
        <time>2017-02-05T10:22:34Z</time>
      </trkpt>
      <trkpt lat="48.30037" lon="2.58197">
        <ele>203</ele>
        <time>2017-02-05T10:22:40Z</time>
      </trkpt>
      <trkpt lat="48.30037" lon="2.58197">
        <ele>203</ele>
        <time>2017-02-05T10:22:48Z</time>
      </trkpt>
      <trkpt lat="48.30038" lon="2.58196">
        <ele>202</ele>
        <time>2017-02-05T10:23:02Z</time>
      </trkpt>
      <trkpt lat="48.3004" lon="2.58186">
        <ele>203</ele>
        <time>2017-02-05T10:23:06Z</time>
      </trkpt>
      <trkpt lat="48.30041" lon="2.58175">
        <ele>204</ele>
        <time>2017-02-05T10:23:11Z</time>
      </trkpt>
      <trkpt lat="48.30041" lon="2.58171">
        <ele>205</ele>
        <time>2017-02-05T10:23:13Z</time>
      </trkpt>
      <trkpt lat="48.30043" lon="2.58161">
        <ele>205</ele>
        <time>2017-02-05T10:23:17Z</time>
      </trkpt>
      <trkpt lat="48.30043" lon="2.58159">
        <ele>205</ele>
        <time>2017-02-05T10:23:18Z</time>
      </trkpt>
      <trkpt lat="48.30047" lon="2.58156">
        <ele>205</ele>
        <time>2017-02-05T10:23:20Z</time>
      </trkpt>
      <trkpt lat="48.30051" lon="2.58156">
        <ele>205</ele>
        <time>2017-02-05T10:23:22Z</time>
      </trkpt>
      <trkpt lat="48.3006" lon="2.58154">
        <ele>205</ele>
        <time>2017-02-05T10:23:27Z</time>
      </trkpt>
      <trkpt lat="48.30061" lon="2.58154">
        <ele>205</ele>
        <time>2017-02-05T10:23:28Z</time>
      </trkpt>
      <trkpt lat="48.30068" lon="2.58146">
        <ele>204</ele>
        <time>2017-02-05T10:23:32Z</time>
      </trkpt>
      <trkpt lat="48.3007" lon="2.58142">
        <ele>205</ele>
        <time>2017-02-05T10:23:33Z</time>
      </trkpt>
      <trkpt lat="48.30076" lon="2.58135">
        <ele>205</ele>
        <time>2017-02-05T10:23:36Z</time>
      </trkpt>
      <trkpt lat="48.30081" lon="2.58132">
        <ele>204</ele>
        <time>2017-02-05T10:23:38Z</time>
      </trkpt>
      <trkpt lat="48.3009" lon="2.5812">
        <ele>205</ele>
        <time>2017-02-05T10:23:43Z</time>
      </trkpt>
      <trkpt lat="48.30094" lon="2.58117">
        <ele>205</ele>
        <time>2017-02-05T10:23:44Z</time>
      </trkpt>
      <trkpt lat="48.30098" lon="2.58114">
        <ele>206</ele>
        <time>2017-02-05T10:23:45Z</time>
      </trkpt>
      <trkpt lat="48.301" lon="2.5811">
        <ele>206</ele>
        <time>2017-02-05T10:23:46Z</time>
      </trkpt>
      <trkpt lat="48.30107" lon="2.58096">
        <ele>206</ele>
        <time>2017-02-05T10:23:49Z</time>
      </trkpt>
      <trkpt lat="48.30111" lon="2.5808">
        <ele>207</ele>
        <time>2017-02-05T10:23:54Z</time>
      </trkpt>
      <trkpt lat="48.30112" lon="2.58077">
        <ele>207</ele>
        <time>2017-02-05T10:23:55Z</time>
      </trkpt>
      <trkpt lat="48.30116" lon="2.58058">
        <ele>208</ele>
        <time>2017-02-05T10:24:01Z</time>
      </trkpt>
      <trkpt lat="48.30122" lon="2.5804">
        <ele>209</ele>
        <time>2017-02-05T10:24:07Z</time>
      </trkpt>
      <trkpt lat="48.30123" lon="2.5803">
        <ele>209</ele>
        <time>2017-02-05T10:24:11Z</time>
      </trkpt>
      <trkpt lat="48.30122" lon="2.58023">
        <ele>210</ele>
        <time>2017-02-05T10:24:14Z</time>
      </trkpt>
      <trkpt lat="48.30121" lon="2.58019">
        <ele>210</ele>
        <time>2017-02-05T10:24:15Z</time>
      </trkpt>
      <trkpt lat="48.30119" lon="2.58011">
        <ele>211</ele>
        <time>2017-02-05T10:24:19Z</time>
      </trkpt>
      <trkpt lat="48.30119" lon="2.58009">
        <ele>211</ele>
        <time>2017-02-05T10:24:20Z</time>
      </trkpt>
      <trkpt lat="48.30118" lon="2.58005">
        <ele>212</ele>
        <time>2017-02-05T10:24:22Z</time>
      </trkpt>
      <trkpt lat="48.30117" lon="2.58002">
        <ele>212</ele>
        <time>2017-02-05T10:24:23Z</time>
      </trkpt>
      <trkpt lat="48.30117" lon="2.58">
        <ele>212</ele>
        <time>2017-02-05T10:24:24Z</time>
      </trkpt>
      <trkpt lat="48.30119" lon="2.57988">
        <ele>213</ele>
        <time>2017-02-05T10:24:30Z</time>
      </trkpt>
      <trkpt lat="48.30127" lon="2.57976">
        <ele>214</ele>
        <time>2017-02-05T10:24:37Z</time>
      </trkpt>
      <trkpt lat="48.30129" lon="2.57974">
        <ele>214</ele>
        <time>2017-02-05T10:24:38Z</time>
      </trkpt>
      <trkpt lat="48.30134" lon="2.57969">
        <ele>215</ele>
        <time>2017-02-05T10:24:44Z</time>
      </trkpt>
      <trkpt lat="48.30135" lon="2.57967">
        <ele>216</ele>
        <time>2017-02-05T10:24:49Z</time>
      </trkpt>
      <trkpt lat="48.30135" lon="2.57967">
        <ele>218</ele>
        <time>2017-02-05T10:25:11Z</time>
      </trkpt>
      <trkpt lat="48.30135" lon="2.57967">
        <ele>219</ele>
        <time>2017-02-05T10:25:12Z</time>
      </trkpt>
      <trkpt lat="48.30136" lon="2.57967">
        <ele>219</ele>
        <time>2017-02-05T10:25:16Z</time>
      </trkpt>
      <trkpt lat="48.30139" lon="2.57965">
        <ele>220</ele>
        <time>2017-02-05T10:25:17Z</time>
      </trkpt>
      <trkpt lat="48.30142" lon="2.57964">
        <ele>220</ele>
        <time>2017-02-05T10:25:23Z</time>
      </trkpt>
      <trkpt lat="48.30142" lon="2.57964">
        <ele>221</ele>
        <time>2017-02-05T10:25:25Z</time>
      </trkpt>
      <trkpt lat="48.30142" lon="2.57964">
        <ele>222</ele>
        <time>2017-02-05T10:25:28Z</time>
      </trkpt>
      <trkpt lat="48.30143" lon="2.57966">
        <ele>224</ele>
        <time>2017-02-05T10:25:37Z</time>
      </trkpt>
      <trkpt lat="48.30144" lon="2.57967">
        <ele>224</ele>
        <time>2017-02-05T10:25:41Z</time>
      </trkpt>
      <trkpt lat="48.30144" lon="2.57968">
        <ele>226</ele>
        <time>2017-02-05T10:25:53Z</time>
      </trkpt>
      <trkpt lat="48.30147" lon="2.57972">
        <ele>227</ele>
        <time>2017-02-05T10:25:58Z</time>
      </trkpt>
      <trkpt lat="48.30147" lon="2.57973">
        <ele>227</ele>
        <time>2017-02-05T10:26:00Z</time>
      </trkpt>
      <trkpt lat="48.30148" lon="2.57974">
        <ele>227</ele>
        <time>2017-02-05T10:26:03Z</time>
      </trkpt>
      <trkpt lat="48.30148" lon="2.57974">
        <ele>228</ele>
        <time>2017-02-05T10:26:19Z</time>
      </trkpt>
      <trkpt lat="48.3015" lon="2.57976">
        <ele>229</ele>
        <time>2017-02-05T10:26:21Z</time>
      </trkpt>
      <trkpt lat="48.30155" lon="2.5798">
        <ele>229</ele>
        <time>2017-02-05T10:26:25Z</time>
      </trkpt>
      <trkpt lat="48.30157" lon="2.57983">
        <ele>229</ele>
        <time>2017-02-05T10:26:26Z</time>
      </trkpt>
      <trkpt lat="48.3016" lon="2.57985">
        <ele>230</ele>
        <time>2017-02-05T10:26:27Z</time>
      </trkpt>
      <trkpt lat="48.3017" lon="2.57994">
        <ele>230</ele>
        <time>2017-02-05T10:26:32Z</time>
      </trkpt>
      <trkpt lat="48.30171" lon="2.57996">
        <ele>231</ele>
        <time>2017-02-05T10:26:33Z</time>
      </trkpt>
      <trkpt lat="48.30172" lon="2.57997">
        <ele>232</ele>
        <time>2017-02-05T10:26:35Z</time>
      </trkpt>
      <trkpt lat="48.30186" lon="2.58003">
        <ele>234</ele>
        <time>2017-02-05T10:26:45Z</time>
      </trkpt>
      <trkpt lat="48.30188" lon="2.58005">
        <ele>234</ele>
        <time>2017-02-05T10:26:46Z</time>
      </trkpt>
      <trkpt lat="48.3019" lon="2.58006">
        <ele>234</ele>
        <time>2017-02-05T10:26:53Z</time>
      </trkpt>
      <trkpt lat="48.30191" lon="2.58009">
        <ele>234</ele>
        <time>2017-02-05T10:26:57Z</time>
      </trkpt>
      <trkpt lat="48.30191" lon="2.5801">
        <ele>234</ele>
        <time>2017-02-05T10:26:59Z</time>
      </trkpt>
      <trkpt lat="48.30193" lon="2.58013">
        <ele>233</ele>
        <time>2017-02-05T10:27:04Z</time>
      </trkpt>
      <trkpt lat="48.30194" lon="2.58016">
        <ele>234</ele>
        <time>2017-02-05T10:27:17Z</time>
      </trkpt>
      <trkpt lat="48.30195" lon="2.58018">
        <ele>234</ele>
        <time>2017-02-05T10:27:18Z</time>
      </trkpt>
      <trkpt lat="48.30196" lon="2.58021">
        <ele>234</ele>
        <time>2017-02-05T10:27:19Z</time>
      </trkpt>
      <trkpt lat="48.302" lon="2.58037">
        <ele>234</ele>
        <time>2017-02-05T10:27:24Z</time>
      </trkpt>
      <trkpt lat="48.30203" lon="2.58054">
        <ele>233</ele>
        <time>2017-02-05T10:27:29Z</time>
      </trkpt>
      <trkpt lat="48.30204" lon="2.58058">
        <ele>232</ele>
        <time>2017-02-05T10:27:30Z</time>
      </trkpt>
      <trkpt lat="48.30203" lon="2.58064">
        <ele>232</ele>
        <time>2017-02-05T10:27:32Z</time>
      </trkpt>
      <trkpt lat="48.30203" lon="2.58073">
        <ele>231</ele>
        <time>2017-02-05T10:27:34Z</time>
      </trkpt>
      <trkpt lat="48.30205" lon="2.58084">
        <ele>231</ele>
        <time>2017-02-05T10:27:37Z</time>
      </trkpt>
      <trkpt lat="48.30205" lon="2.58086">
        <ele>231</ele>
        <time>2017-02-05T10:27:38Z</time>
      </trkpt>
      <trkpt lat="48.30205" lon="2.58089">
        <ele>231</ele>
        <time>2017-02-05T10:27:39Z</time>
      </trkpt>
      <trkpt lat="48.30205" lon="2.58095">
        <ele>230</ele>
        <time>2017-02-05T10:27:41Z</time>
      </trkpt>
      <trkpt lat="48.30206" lon="2.58098">
        <ele>229</ele>
        <time>2017-02-05T10:27:42Z</time>
      </trkpt>
      <trkpt lat="48.30206" lon="2.58107">
        <ele>229</ele>
        <time>2017-02-05T10:27:45Z</time>
      </trkpt>
      <trkpt lat="48.30208" lon="2.58121">
        <ele>230</ele>
        <time>2017-02-05T10:27:49Z</time>
      </trkpt>
      <trkpt lat="48.3021" lon="2.58133">
        <ele>228</ele>
        <time>2017-02-05T10:27:52Z</time>
      </trkpt>
      <trkpt lat="48.30213" lon="2.58141">
        <ele>229</ele>
        <time>2017-02-05T10:27:54Z</time>
      </trkpt>
      <trkpt lat="48.30216" lon="2.58145">
        <ele>229</ele>
        <time>2017-02-05T10:27:55Z</time>
      </trkpt>
      <trkpt lat="48.30221" lon="2.58159">
        <ele>229</ele>
        <time>2017-02-05T10:27:59Z</time>
      </trkpt>
      <trkpt lat="48.30222" lon="2.58165">
        <ele>229</ele>
        <time>2017-02-05T10:28:00Z</time>
      </trkpt>
      <trkpt lat="48.30226" lon="2.58182">
        <ele>229</ele>
        <time>2017-02-05T10:28:03Z</time>
      </trkpt>
      <trkpt lat="48.30233" lon="2.58188">
        <ele>229</ele>
        <time>2017-02-05T10:28:06Z</time>
      </trkpt>
      <trkpt lat="48.30235" lon="2.5819">
        <ele>229</ele>
        <time>2017-02-05T10:28:07Z</time>
      </trkpt>
      <trkpt lat="48.30244" lon="2.5819">
        <ele>229</ele>
        <time>2017-02-05T10:28:10Z</time>
      </trkpt>
      <trkpt lat="48.30251" lon="2.58193">
        <ele>230</ele>
        <time>2017-02-05T10:28:12Z</time>
      </trkpt>
      <trkpt lat="48.30267" lon="2.58206">
        <ele>229</ele>
        <time>2017-02-05T10:28:17Z</time>
      </trkpt>
      <trkpt lat="48.30278" lon="2.58221">
        <ele>229</ele>
        <time>2017-02-05T10:28:22Z</time>
      </trkpt>
      <trkpt lat="48.30292" lon="2.58242">
        <ele>230</ele>
        <time>2017-02-05T10:28:28Z</time>
      </trkpt>
      <trkpt lat="48.30304" lon="2.58254">
        <ele>229</ele>
        <time>2017-02-05T10:28:33Z</time>
      </trkpt>
      <trkpt lat="48.30315" lon="2.58258">
        <ele>229</ele>
        <time>2017-02-05T10:28:38Z</time>
      </trkpt>
      <trkpt lat="48.30327" lon="2.58258">
        <ele>230</ele>
        <time>2017-02-05T10:28:43Z</time>
      </trkpt>
      <trkpt lat="48.3033" lon="2.58261">
        <ele>231</ele>
        <time>2017-02-05T10:28:45Z</time>
      </trkpt>
      <trkpt lat="48.30332" lon="2.58269">
        <ele>231</ele>
        <time>2017-02-05T10:28:48Z</time>
      </trkpt>
      <trkpt lat="48.30332" lon="2.58272">
        <ele>231</ele>
        <time>2017-02-05T10:28:49Z</time>
      </trkpt>
      <trkpt lat="48.30334" lon="2.58282">
        <ele>229</ele>
        <time>2017-02-05T10:28:52Z</time>
      </trkpt>
      <trkpt lat="48.30337" lon="2.58292">
        <ele>229</ele>
        <time>2017-02-05T10:28:54Z</time>
      </trkpt>
      <trkpt lat="48.30342" lon="2.58301">
        <ele>228</ele>
        <time>2017-02-05T10:28:56Z</time>
      </trkpt>
      <trkpt lat="48.30348" lon="2.58307">
        <ele>228</ele>
        <time>2017-02-05T10:28:58Z</time>
      </trkpt>
      <trkpt lat="48.30351" lon="2.58307">
        <ele>227</ele>
        <time>2017-02-05T10:28:59Z</time>
      </trkpt>
      <trkpt lat="48.30359" lon="2.58308">
        <ele>228</ele>
        <time>2017-02-05T10:29:03Z</time>
      </trkpt>
      <trkpt lat="48.30365" lon="2.58308">
        <ele>230</ele>
        <time>2017-02-05T10:29:07Z</time>
      </trkpt>
      <trkpt lat="48.30365" lon="2.58308">
        <ele>230</ele>
        <time>2017-02-05T10:29:08Z</time>
      </trkpt>
      <trkpt lat="48.30372" lon="2.58311">
        <ele>230</ele>
        <time>2017-02-05T10:29:11Z</time>
      </trkpt>
      <trkpt lat="48.30377" lon="2.58314">
        <ele>230</ele>
        <time>2017-02-05T10:29:14Z</time>
      </trkpt>
      <trkpt lat="48.30379" lon="2.58315">
        <ele>231</ele>
        <time>2017-02-05T10:29:15Z</time>
      </trkpt>
      <trkpt lat="48.30381" lon="2.58315">
        <ele>231</ele>
        <time>2017-02-05T10:29:20Z</time>
      </trkpt>
      <trkpt lat="48.30382" lon="2.58315">
        <ele>232</ele>
        <time>2017-02-05T10:29:43Z</time>
      </trkpt>
      <trkpt lat="48.30389" lon="2.58321">
        <ele>232</ele>
        <time>2017-02-05T10:29:51Z</time>
      </trkpt>
      <trkpt lat="48.3039" lon="2.58321">
        <ele>233</ele>
        <time>2017-02-05T10:29:52Z</time>
      </trkpt>
      <trkpt lat="48.30394" lon="2.58328">
        <ele>234</ele>
        <time>2017-02-05T10:29:57Z</time>
      </trkpt>
      <trkpt lat="48.30395" lon="2.58336">
        <ele>234</ele>
        <time>2017-02-05T10:30:02Z</time>
      </trkpt>
      <trkpt lat="48.30396" lon="2.58336">
        <ele>234</ele>
        <time>2017-02-05T10:30:04Z</time>
      </trkpt>
      <trkpt lat="48.304" lon="2.58342">
        <ele>234</ele>
        <time>2017-02-05T10:30:09Z</time>
      </trkpt>
      <trkpt lat="48.30398" lon="2.58343">
        <ele>234</ele>
        <time>2017-02-05T10:30:10Z</time>
      </trkpt>
      <trkpt lat="48.30397" lon="2.58348">
        <ele>234</ele>
        <time>2017-02-05T10:30:13Z</time>
      </trkpt>
      <trkpt lat="48.30397" lon="2.58355">
        <ele>233</ele>
        <time>2017-02-05T10:30:15Z</time>
      </trkpt>
      <trkpt lat="48.30399" lon="2.58358">
        <ele>233</ele>
        <time>2017-02-05T10:30:16Z</time>
      </trkpt>
      <trkpt lat="48.304" lon="2.58364">
        <ele>232</ele>
        <time>2017-02-05T10:30:18Z</time>
      </trkpt>
      <trkpt lat="48.30402" lon="2.58367">
        <ele>231</ele>
        <time>2017-02-05T10:30:19Z</time>
      </trkpt>
      <trkpt lat="48.30404" lon="2.58372">
        <ele>230</ele>
        <time>2017-02-05T10:30:21Z</time>
      </trkpt>
      <trkpt lat="48.30409" lon="2.58374">
        <ele>230</ele>
        <time>2017-02-05T10:30:23Z</time>
      </trkpt>
      <trkpt lat="48.30417" lon="2.58382">
        <ele>229</ele>
        <time>2017-02-05T10:30:26Z</time>
      </trkpt>
      <trkpt lat="48.3042" lon="2.58386">
        <ele>229</ele>
        <time>2017-02-05T10:30:27Z</time>
      </trkpt>
      <trkpt lat="48.30423" lon="2.58388">
        <ele>229</ele>
        <time>2017-02-05T10:30:28Z</time>
      </trkpt>
      <trkpt lat="48.30428" lon="2.58391">
        <ele>228</ele>
        <time>2017-02-05T10:30:30Z</time>
      </trkpt>
      <trkpt lat="48.30432" lon="2.58397">
        <ele>228</ele>
        <time>2017-02-05T10:30:32Z</time>
      </trkpt>
      <trkpt lat="48.30446" lon="2.58407">
        <ele>228</ele>
        <time>2017-02-05T10:30:37Z</time>
      </trkpt>
      <trkpt lat="48.30455" lon="2.58417">
        <ele>227</ele>
        <time>2017-02-05T10:30:40Z</time>
      </trkpt>
      <trkpt lat="48.30457" lon="2.58421">
        <ele>226</ele>
        <time>2017-02-05T10:30:41Z</time>
      </trkpt>
      <trkpt lat="48.30463" lon="2.58438">
        <ele>226</ele>
        <time>2017-02-05T10:30:45Z</time>
      </trkpt>
      <trkpt lat="48.30464" lon="2.58442">
        <ele>225</ele>
        <time>2017-02-05T10:30:46Z</time>
      </trkpt>
      <trkpt lat="48.30464" lon="2.58446">
        <ele>225</ele>
        <time>2017-02-05T10:30:47Z</time>
      </trkpt>
      <trkpt lat="48.30464" lon="2.58448">
        <ele>224</ele>
        <time>2017-02-05T10:30:48Z</time>
      </trkpt>
      <trkpt lat="48.30463" lon="2.58449">
        <ele>224</ele>
        <time>2017-02-05T10:30:49Z</time>
      </trkpt>
      <trkpt lat="48.30462" lon="2.5845">
        <ele>223</ele>
        <time>2017-02-05T10:30:50Z</time>
      </trkpt>
      <trkpt lat="48.3046" lon="2.58449">
        <ele>222</ele>
        <time>2017-02-05T10:30:51Z</time>
      </trkpt>
      <trkpt lat="48.30456" lon="2.58448">
        <ele>221</ele>
        <time>2017-02-05T10:30:53Z</time>
      </trkpt>
      <trkpt lat="48.30446" lon="2.58451">
        <ele>220</ele>
        <time>2017-02-05T10:30:56Z</time>
      </trkpt>
      <trkpt lat="48.3044" lon="2.58452">
        <ele>220</ele>
        <time>2017-02-05T10:30:58Z</time>
      </trkpt>
      <trkpt lat="48.30437" lon="2.58455">
        <ele>220</ele>
        <time>2017-02-05T10:30:59Z</time>
      </trkpt>
      <trkpt lat="48.30433" lon="2.5846">
        <ele>219</ele>
        <time>2017-02-05T10:31:01Z</time>
      </trkpt>
      <trkpt lat="48.30432" lon="2.58465">
        <ele>219</ele>
        <time>2017-02-05T10:31:02Z</time>
      </trkpt>
      <trkpt lat="48.30432" lon="2.58473">
        <ele>217</ele>
        <time>2017-02-05T10:31:04Z</time>
      </trkpt>
      <trkpt lat="48.30427" lon="2.58477">
        <ele>216</ele>
        <time>2017-02-05T10:31:06Z</time>
      </trkpt>
      <trkpt lat="48.30423" lon="2.5847">
        <ele>216</ele>
        <time>2017-02-05T10:31:09Z</time>
      </trkpt>
      <trkpt lat="48.30412" lon="2.58459">
        <ele>215</ele>
        <time>2017-02-05T10:31:13Z</time>
      </trkpt>
      <trkpt lat="48.304" lon="2.58444">
        <ele>215</ele>
        <time>2017-02-05T10:31:18Z</time>
      </trkpt>
      <trkpt lat="48.30391" lon="2.58434">
        <ele>216</ele>
        <time>2017-02-05T10:31:22Z</time>
      </trkpt>
      <trkpt lat="48.3038" lon="2.58424">
        <ele>215</ele>
        <time>2017-02-05T10:31:26Z</time>
      </trkpt>
      <trkpt lat="48.30372" lon="2.58413">
        <ele>214</ele>
        <time>2017-02-05T10:31:30Z</time>
      </trkpt>
      <trkpt lat="48.30369" lon="2.58409">
        <ele>214</ele>
        <time>2017-02-05T10:31:31Z</time>
      </trkpt>
      <trkpt lat="48.30365" lon="2.58402">
        <ele>213</ele>
        <time>2017-02-05T10:31:34Z</time>
      </trkpt>
      <trkpt lat="48.30359" lon="2.58394">
        <ele>212</ele>
        <time>2017-02-05T10:31:36Z</time>
      </trkpt>
      <trkpt lat="48.30347" lon="2.58381">
        <ele>212</ele>
        <time>2017-02-05T10:31:40Z</time>
      </trkpt>
      <trkpt lat="48.30333" lon="2.58368">
        <ele>210</ele>
        <time>2017-02-05T10:31:44Z</time>
      </trkpt>
      <trkpt lat="48.3033" lon="2.58365">
        <ele>209</ele>
        <time>2017-02-05T10:31:45Z</time>
      </trkpt>
      <trkpt lat="48.30327" lon="2.58363">
        <ele>209</ele>
        <time>2017-02-05T10:31:46Z</time>
      </trkpt>
      <trkpt lat="48.30322" lon="2.58362">
        <ele>208</ele>
        <time>2017-02-05T10:31:50Z</time>
      </trkpt>
      <trkpt lat="48.30321" lon="2.58352">
        <ele>208</ele>
        <time>2017-02-05T10:31:57Z</time>
      </trkpt>
      <trkpt lat="48.30321" lon="2.58351">
        <ele>208</ele>
        <time>2017-02-05T10:32:05Z</time>
      </trkpt>
      <trkpt lat="48.30321" lon="2.58351">
        <ele>208</ele>
        <time>2017-02-05T10:32:48Z</time>
      </trkpt>
      <trkpt lat="48.30313" lon="2.58347">
        <ele>207</ele>
        <time>2017-02-05T10:33:07Z</time>
      </trkpt>
      <trkpt lat="48.30302" lon="2.58343">
        <ele>206</ele>
        <time>2017-02-05T10:33:09Z</time>
      </trkpt>
      <trkpt lat="48.30285" lon="2.58338">
        <ele>205</ele>
        <time>2017-02-05T10:33:13Z</time>
      </trkpt>
      <trkpt lat="48.3028" lon="2.58333">
        <ele>205</ele>
        <time>2017-02-05T10:33:14Z</time>
      </trkpt>
      <trkpt lat="48.3027" lon="2.58329">
        <ele>204</ele>
        <time>2017-02-05T10:33:16Z</time>
      </trkpt>
      <trkpt lat="48.30266" lon="2.58329">
        <ele>204</ele>
        <time>2017-02-05T10:33:17Z</time>
      </trkpt>
      <trkpt lat="48.3026" lon="2.5833">
        <ele>203</ele>
        <time>2017-02-05T10:33:19Z</time>
      </trkpt>
      <trkpt lat="48.30258" lon="2.58332">
        <ele>202</ele>
        <time>2017-02-05T10:33:20Z</time>
      </trkpt>
      <trkpt lat="48.30258" lon="2.58337">
        <ele>202</ele>
        <time>2017-02-05T10:33:22Z</time>
      </trkpt>
      <trkpt lat="48.30259" lon="2.58345">
        <ele>202</ele>
        <time>2017-02-05T10:33:24Z</time>
      </trkpt>
      <trkpt lat="48.30261" lon="2.58357">
        <ele>201</ele>
        <time>2017-02-05T10:33:26Z</time>
      </trkpt>
      <trkpt lat="48.30264" lon="2.58363">
        <ele>201</ele>
        <time>2017-02-05T10:33:27Z</time>
      </trkpt>
      <trkpt lat="48.30269" lon="2.58375">
        <ele>201</ele>
        <time>2017-02-05T10:33:29Z</time>
      </trkpt>
      <trkpt lat="48.3028" lon="2.58404">
        <ele>202</ele>
        <time>2017-02-05T10:33:34Z</time>
      </trkpt>
      <trkpt lat="48.3029" lon="2.58424">
        <ele>202</ele>
        <time>2017-02-05T10:33:41Z</time>
      </trkpt>
      <trkpt lat="48.30292" lon="2.58447">
        <ele>203</ele>
        <time>2017-02-05T10:33:45Z</time>
      </trkpt>
      <trkpt lat="48.30293" lon="2.58451">
        <ele>203</ele>
        <time>2017-02-05T10:33:46Z</time>
      </trkpt>
      <trkpt lat="48.30294" lon="2.58455">
        <ele>203</ele>
        <time>2017-02-05T10:33:51Z</time>
      </trkpt>
      <trkpt lat="48.303" lon="2.58462">
        <ele>203</ele>
        <time>2017-02-05T10:33:55Z</time>
      </trkpt>
      <trkpt lat="48.30305" lon="2.58479">
        <ele>203</ele>
        <time>2017-02-05T10:33:59Z</time>
      </trkpt>
      <trkpt lat="48.30309" lon="2.58501">
        <ele>202</ele>
        <time>2017-02-05T10:34:03Z</time>
      </trkpt>
      <trkpt lat="48.30311" lon="2.58503">
        <ele>202</ele>
        <time>2017-02-05T10:34:04Z</time>
      </trkpt>
      <trkpt lat="48.30313" lon="2.58514">
        <ele>202</ele>
        <time>2017-02-05T10:34:08Z</time>
      </trkpt>
      <trkpt lat="48.30322" lon="2.58544">
        <ele>202</ele>
        <time>2017-02-05T10:34:14Z</time>
      </trkpt>
      <trkpt lat="48.3033" lon="2.58573">
        <ele>202</ele>
        <time>2017-02-05T10:34:18Z</time>
      </trkpt>
      <trkpt lat="48.3034" lon="2.58604">
        <ele>202</ele>
        <time>2017-02-05T10:34:24Z</time>
      </trkpt>
      <trkpt lat="48.30346" lon="2.58631">
        <ele>201</ele>
        <time>2017-02-05T10:34:29Z</time>
      </trkpt>
      <trkpt lat="48.30356" lon="2.58661">
        <ele>201</ele>
        <time>2017-02-05T10:34:35Z</time>
      </trkpt>
      <trkpt lat="48.30365" lon="2.58682">
        <ele>202</ele>
        <time>2017-02-05T10:34:40Z</time>
      </trkpt>
      <trkpt lat="48.30374" lon="2.58688">
        <ele>202</ele>
        <time>2017-02-05T10:34:44Z</time>
      </trkpt>
      <trkpt lat="48.30376" lon="2.58689">
        <ele>202</ele>
        <time>2017-02-05T10:34:45Z</time>
      </trkpt>
      <trkpt lat="48.30379" lon="2.58691">
        <ele>203</ele>
        <time>2017-02-05T10:34:47Z</time>
      </trkpt>
      <trkpt lat="48.30382" lon="2.58689">
        <ele>203</ele>
        <time>2017-02-05T10:34:49Z</time>
      </trkpt>
      <trkpt lat="48.30384" lon="2.58689">
        <ele>204</ele>
        <time>2017-02-05T10:34:50Z</time>
      </trkpt>
      <trkpt lat="48.3039" lon="2.58685">
        <ele>204</ele>
        <time>2017-02-05T10:34:54Z</time>
      </trkpt>
      <trkpt lat="48.30391" lon="2.58683">
        <ele>204</ele>
        <time>2017-02-05T10:34:55Z</time>
      </trkpt>
      <trkpt lat="48.30394" lon="2.58681">
        <ele>205</ele>
        <time>2017-02-05T10:34:57Z</time>
      </trkpt>
      <trkpt lat="48.30395" lon="2.58676">
        <ele>205</ele>
        <time>2017-02-05T10:34:59Z</time>
      </trkpt>
      <trkpt lat="48.304" lon="2.5867">
        <ele>206</ele>
        <time>2017-02-05T10:35:03Z</time>
      </trkpt>
      <trkpt lat="48.30404" lon="2.58665">
        <ele>207</ele>
        <time>2017-02-05T10:35:06Z</time>
      </trkpt>
      <trkpt lat="48.30405" lon="2.58662">
        <ele>207</ele>
        <time>2017-02-05T10:35:07Z</time>
      </trkpt>
      <trkpt lat="48.30407" lon="2.58653">
        <ele>207</ele>
        <time>2017-02-05T10:35:11Z</time>
      </trkpt>
      <trkpt lat="48.30413" lon="2.58641">
        <ele>208</ele>
        <time>2017-02-05T10:35:17Z</time>
      </trkpt>
      <trkpt lat="48.30414" lon="2.58635">
        <ele>209</ele>
        <time>2017-02-05T10:35:19Z</time>
      </trkpt>
      <trkpt lat="48.30417" lon="2.58626">
        <ele>209</ele>
        <time>2017-02-05T10:35:22Z</time>
      </trkpt>
      <trkpt lat="48.30421" lon="2.58622">
        <ele>209</ele>
        <time>2017-02-05T10:35:24Z</time>
      </trkpt>
      <trkpt lat="48.30423" lon="2.58618">
        <ele>209</ele>
        <time>2017-02-05T10:35:26Z</time>
      </trkpt>
      <trkpt lat="48.30426" lon="2.58616">
        <ele>209</ele>
        <time>2017-02-05T10:35:28Z</time>
      </trkpt>
      <trkpt lat="48.30433" lon="2.58608">
        <ele>211</ele>
        <time>2017-02-05T10:35:34Z</time>
      </trkpt>
      <trkpt lat="48.30434" lon="2.58606">
        <ele>211</ele>
        <time>2017-02-05T10:35:35Z</time>
      </trkpt>
      <trkpt lat="48.30441" lon="2.58602">
        <ele>211</ele>
        <time>2017-02-05T10:35:39Z</time>
      </trkpt>
      <trkpt lat="48.30446" lon="2.58601">
        <ele>211</ele>
        <time>2017-02-05T10:35:41Z</time>
      </trkpt>
      <trkpt lat="48.30448" lon="2.58599">
        <ele>211</ele>
        <time>2017-02-05T10:35:42Z</time>
      </trkpt>
      <trkpt lat="48.30452" lon="2.58591">
        <ele>211</ele>
        <time>2017-02-05T10:35:46Z</time>
      </trkpt>
      <trkpt lat="48.30453" lon="2.58589">
        <ele>212</ele>
        <time>2017-02-05T10:35:47Z</time>
      </trkpt>
      <trkpt lat="48.30457" lon="2.5858">
        <ele>212</ele>
        <time>2017-02-05T10:35:52Z</time>
      </trkpt>
      <trkpt lat="48.30458" lon="2.58577">
        <ele>213</ele>
        <time>2017-02-05T10:35:54Z</time>
      </trkpt>
      <trkpt lat="48.30461" lon="2.58573">
        <ele>214</ele>
        <time>2017-02-05T10:35:58Z</time>
      </trkpt>
      <trkpt lat="48.30462" lon="2.58572">
        <ele>214</ele>
        <time>2017-02-05T10:35:59Z</time>
      </trkpt>
      <trkpt lat="48.30464" lon="2.5857">
        <ele>215</ele>
        <time>2017-02-05T10:36:05Z</time>
      </trkpt>
      <trkpt lat="48.30467" lon="2.58569">
        <ele>215</ele>
        <time>2017-02-05T10:36:11Z</time>
      </trkpt>
      <trkpt lat="48.3047" lon="2.58569">
        <ele>215</ele>
        <time>2017-02-05T10:36:14Z</time>
      </trkpt>
      <trkpt lat="48.30471" lon="2.58568">
        <ele>215</ele>
        <time>2017-02-05T10:36:16Z</time>
      </trkpt>
      <trkpt lat="48.30475" lon="2.58565">
        <ele>216</ele>
        <time>2017-02-05T10:36:21Z</time>
      </trkpt>
      <trkpt lat="48.30475" lon="2.58564">
        <ele>216</ele>
        <time>2017-02-05T10:36:27Z</time>
      </trkpt>
      <trkpt lat="48.30477" lon="2.58563">
        <ele>216</ele>
        <time>2017-02-05T10:36:32Z</time>
      </trkpt>
      <trkpt lat="48.30481" lon="2.58555">
        <ele>217</ele>
        <time>2017-02-05T10:36:41Z</time>
      </trkpt>
      <trkpt lat="48.30481" lon="2.58554">
        <ele>217</ele>
        <time>2017-02-05T10:36:42Z</time>
      </trkpt>
      <trkpt lat="48.30484" lon="2.58543">
        <ele>217</ele>
        <time>2017-02-05T10:36:46Z</time>
      </trkpt>
      <trkpt lat="48.30483" lon="2.58533">
        <ele>218</ele>
        <time>2017-02-05T10:36:52Z</time>
      </trkpt>
      <trkpt lat="48.30487" lon="2.58527">
        <ele>218</ele>
        <time>2017-02-05T10:36:55Z</time>
      </trkpt>
      <trkpt lat="48.30489" lon="2.58525">
        <ele>218</ele>
        <time>2017-02-05T10:36:56Z</time>
      </trkpt>
      <trkpt lat="48.30493" lon="2.58522">
        <ele>219</ele>
        <time>2017-02-05T10:36:58Z</time>
      </trkpt>
      <trkpt lat="48.30496" lon="2.58522">
        <ele>219</ele>
        <time>2017-02-05T10:37:00Z</time>
      </trkpt>
      <trkpt lat="48.30503" lon="2.5852">
        <ele>219</ele>
        <time>2017-02-05T10:37:04Z</time>
      </trkpt>
      <trkpt lat="48.30513" lon="2.58516">
        <ele>218</ele>
        <time>2017-02-05T10:37:10Z</time>
      </trkpt>
      <trkpt lat="48.30526" lon="2.58502">
        <ele>219</ele>
        <time>2017-02-05T10:37:17Z</time>
      </trkpt>
      <trkpt lat="48.30527" lon="2.58497">
        <ele>219</ele>
        <time>2017-02-05T10:37:19Z</time>
      </trkpt>
      <trkpt lat="48.30534" lon="2.58486">
        <ele>220</ele>
        <time>2017-02-05T10:37:25Z</time>
      </trkpt>
      <trkpt lat="48.30535" lon="2.58483">
        <ele>221</ele>
        <time>2017-02-05T10:37:26Z</time>
      </trkpt>
      <trkpt lat="48.30537" lon="2.58478">
        <ele>222</ele>
        <time>2017-02-05T10:37:30Z</time>
      </trkpt>
      <trkpt lat="48.30537" lon="2.58477">
        <ele>222</ele>
        <time>2017-02-05T10:37:32Z</time>
      </trkpt>
      <trkpt lat="48.30537" lon="2.58475">
        <ele>222</ele>
        <time>2017-02-05T10:37:38Z</time>
      </trkpt>
      <trkpt lat="48.30538" lon="2.5847">
        <ele>223</ele>
        <time>2017-02-05T10:37:44Z</time>
      </trkpt>
      <trkpt lat="48.30541" lon="2.58459">
        <ele>223</ele>
        <time>2017-02-05T10:37:47Z</time>
      </trkpt>
      <trkpt lat="48.30541" lon="2.58457">
        <ele>224</ele>
        <time>2017-02-05T10:37:49Z</time>
      </trkpt>
      <trkpt lat="48.30544" lon="2.58449">
        <ele>224</ele>
        <time>2017-02-05T10:37:53Z</time>
      </trkpt>
      <trkpt lat="48.30544" lon="2.58447">
        <ele>224</ele>
        <time>2017-02-05T10:37:54Z</time>
      </trkpt>
      <trkpt lat="48.30551" lon="2.58446">
        <ele>224</ele>
        <time>2017-02-05T10:37:59Z</time>
      </trkpt>
      <trkpt lat="48.30556" lon="2.58448">
        <ele>223</ele>
        <time>2017-02-05T10:38:03Z</time>
      </trkpt>
      <trkpt lat="48.30559" lon="2.58449">
        <ele>223</ele>
        <time>2017-02-05T10:38:05Z</time>
      </trkpt>
      <trkpt lat="48.30567" lon="2.5845">
        <ele>223</ele>
        <time>2017-02-05T10:38:09Z</time>
      </trkpt>
      <trkpt lat="48.30569" lon="2.58451">
        <ele>223</ele>
        <time>2017-02-05T10:38:12Z</time>
      </trkpt>
      <trkpt lat="48.30573" lon="2.58456">
        <ele>222</ele>
        <time>2017-02-05T10:38:14Z</time>
      </trkpt>
      <trkpt lat="48.30575" lon="2.58464">
        <ele>221</ele>
        <time>2017-02-05T10:38:17Z</time>
      </trkpt>
      <trkpt lat="48.30575" lon="2.58472">
        <ele>220</ele>
        <time>2017-02-05T10:38:19Z</time>
      </trkpt>
      <trkpt lat="48.30575" lon="2.5848">
        <ele>220</ele>
        <time>2017-02-05T10:38:23Z</time>
      </trkpt>
      <trkpt lat="48.30573" lon="2.58485">
        <ele>219</ele>
        <time>2017-02-05T10:38:25Z</time>
      </trkpt>
      <trkpt lat="48.30572" lon="2.58489">
        <ele>219</ele>
        <time>2017-02-05T10:38:28Z</time>
      </trkpt>
      <trkpt lat="48.3057" lon="2.58492">
        <ele>218</ele>
        <time>2017-02-05T10:38:29Z</time>
      </trkpt>
      <trkpt lat="48.30569" lon="2.58495">
        <ele>218</ele>
        <time>2017-02-05T10:38:30Z</time>
      </trkpt>
      <trkpt lat="48.30569" lon="2.58499">
        <ele>218</ele>
        <time>2017-02-05T10:38:31Z</time>
      </trkpt>
      <trkpt lat="48.30564" lon="2.5851">
        <ele>217</ele>
        <time>2017-02-05T10:38:35Z</time>
      </trkpt>
      <trkpt lat="48.3056" lon="2.58517">
        <ele>216</ele>
        <time>2017-02-05T10:38:37Z</time>
      </trkpt>
      <trkpt lat="48.30553" lon="2.58536">
        <ele>215</ele>
        <time>2017-02-05T10:38:41Z</time>
      </trkpt>
      <trkpt lat="48.30549" lon="2.58539">
        <ele>215</ele>
        <time>2017-02-05T10:38:43Z</time>
      </trkpt>
      <trkpt lat="48.3054" lon="2.58541">
        <ele>214</ele>
        <time>2017-02-05T10:38:46Z</time>
      </trkpt>
      <trkpt lat="48.30538" lon="2.58543">
        <ele>214</ele>
        <time>2017-02-05T10:38:47Z</time>
      </trkpt>
      <trkpt lat="48.30536" lon="2.58548">
        <ele>214</ele>
        <time>2017-02-05T10:38:49Z</time>
      </trkpt>
      <trkpt lat="48.30535" lon="2.58552">
        <ele>213</ele>
        <time>2017-02-05T10:38:50Z</time>
      </trkpt>
      <trkpt lat="48.30527" lon="2.58559">
        <ele>213</ele>
        <time>2017-02-05T10:38:54Z</time>
      </trkpt>
      <trkpt lat="48.30524" lon="2.58559">
        <ele>213</ele>
        <time>2017-02-05T10:38:55Z</time>
      </trkpt>
      <trkpt lat="48.30506" lon="2.58562">
        <ele>213</ele>
        <time>2017-02-05T10:39:01Z</time>
      </trkpt>
      <trkpt lat="48.30504" lon="2.58563">
        <ele>212</ele>
        <time>2017-02-05T10:39:02Z</time>
      </trkpt>
      <trkpt lat="48.30502" lon="2.5857">
        <ele>212</ele>
        <time>2017-02-05T10:39:04Z</time>
      </trkpt>
      <trkpt lat="48.30503" lon="2.58576">
        <ele>211</ele>
        <time>2017-02-05T10:39:05Z</time>
      </trkpt>
      <trkpt lat="48.30502" lon="2.58579">
        <ele>211</ele>
        <time>2017-02-05T10:39:06Z</time>
      </trkpt>
      <trkpt lat="48.30496" lon="2.58589">
        <ele>210</ele>
        <time>2017-02-05T10:39:09Z</time>
      </trkpt>
      <trkpt lat="48.30495" lon="2.58598">
        <ele>210</ele>
        <time>2017-02-05T10:39:11Z</time>
      </trkpt>
      <trkpt lat="48.30494" lon="2.58605">
        <ele>210</ele>
        <time>2017-02-05T10:39:13Z</time>
      </trkpt>
      <trkpt lat="48.30494" lon="2.58609">
        <ele>210</ele>
        <time>2017-02-05T10:39:14Z</time>
      </trkpt>
      <trkpt lat="48.30493" lon="2.58619">
        <ele>209</ele>
        <time>2017-02-05T10:39:17Z</time>
      </trkpt>
      <trkpt lat="48.30494" lon="2.58632">
        <ele>208</ele>
        <time>2017-02-05T10:39:20Z</time>
      </trkpt>
      <trkpt lat="48.30495" lon="2.58647">
        <ele>208</ele>
        <time>2017-02-05T10:39:24Z</time>
      </trkpt>
      <trkpt lat="48.30494" lon="2.5865">
        <ele>208</ele>
        <time>2017-02-05T10:39:25Z</time>
      </trkpt>
      <trkpt lat="48.30493" lon="2.58653">
        <ele>208</ele>
        <time>2017-02-05T10:39:26Z</time>
      </trkpt>
      <trkpt lat="48.30488" lon="2.58666">
        <ele>207</ele>
        <time>2017-02-05T10:39:30Z</time>
      </trkpt>
      <trkpt lat="48.30487" lon="2.58673">
        <ele>206</ele>
        <time>2017-02-05T10:39:32Z</time>
      </trkpt>
      <trkpt lat="48.30487" lon="2.58675">
        <ele>206</ele>
        <time>2017-02-05T10:39:34Z</time>
      </trkpt>
      <trkpt lat="48.30493" lon="2.58684">
        <ele>207</ele>
        <time>2017-02-05T10:39:40Z</time>
      </trkpt>
      <trkpt lat="48.30495" lon="2.58686">
        <ele>207</ele>
        <time>2017-02-05T10:39:41Z</time>
      </trkpt>
      <trkpt lat="48.30504" lon="2.58698">
        <ele>207</ele>
        <time>2017-02-05T10:39:45Z</time>
      </trkpt>
      <trkpt lat="48.30507" lon="2.58707">
        <ele>208</ele>
        <time>2017-02-05T10:39:47Z</time>
      </trkpt>
      <trkpt lat="48.30509" lon="2.58707">
        <ele>208</ele>
        <time>2017-02-05T10:39:49Z</time>
      </trkpt>
      <trkpt lat="48.30511" lon="2.58707">
        <ele>208</ele>
        <time>2017-02-05T10:39:50Z</time>
      </trkpt>
      <trkpt lat="48.30515" lon="2.58707">
        <ele>208</ele>
        <time>2017-02-05T10:39:55Z</time>
      </trkpt>
      <trkpt lat="48.30515" lon="2.58707">
        <ele>209</ele>
        <time>2017-02-05T10:40:40Z</time>
      </trkpt>
      <trkpt lat="48.30515" lon="2.58707">
        <ele>208</ele>
        <time>2017-02-05T10:41:16Z</time>
      </trkpt>
      <trkpt lat="48.30514" lon="2.58707">
        <ele>209</ele>
        <time>2017-02-05T10:41:58Z</time>
      </trkpt>
      <trkpt lat="48.3052" lon="2.58698">
        <ele>209</ele>
        <time>2017-02-05T10:42:03Z</time>
      </trkpt>
      <trkpt lat="48.30524" lon="2.58693">
        <ele>209</ele>
        <time>2017-02-05T10:42:06Z</time>
      </trkpt>
      <trkpt lat="48.30527" lon="2.5869">
        <ele>210</ele>
        <time>2017-02-05T10:42:08Z</time>
      </trkpt>
      <trkpt lat="48.3053" lon="2.58685">
        <ele>210</ele>
        <time>2017-02-05T10:42:10Z</time>
      </trkpt>
      <trkpt lat="48.30536" lon="2.58677">
        <ele>211</ele>
        <time>2017-02-05T10:42:14Z</time>
      </trkpt>
      <trkpt lat="48.30537" lon="2.58676">
        <ele>211</ele>
        <time>2017-02-05T10:42:15Z</time>
      </trkpt>
      <trkpt lat="48.30539" lon="2.58672">
        <ele>212</ele>
        <time>2017-02-05T10:42:17Z</time>
      </trkpt>
      <trkpt lat="48.30545" lon="2.58662">
        <ele>213</ele>
        <time>2017-02-05T10:42:21Z</time>
      </trkpt>
      <trkpt lat="48.30547" lon="2.5866">
        <ele>213</ele>
        <time>2017-02-05T10:42:22Z</time>
      </trkpt>
      <trkpt lat="48.30552" lon="2.58651">
        <ele>214</ele>
        <time>2017-02-05T10:42:26Z</time>
      </trkpt>
      <trkpt lat="48.30554" lon="2.58647">
        <ele>214</ele>
        <time>2017-02-05T10:42:28Z</time>
      </trkpt>
      <trkpt lat="48.30558" lon="2.58637">
        <ele>215</ele>
        <time>2017-02-05T10:42:32Z</time>
      </trkpt>
      <trkpt lat="48.30559" lon="2.58634">
        <ele>215</ele>
        <time>2017-02-05T10:42:33Z</time>
      </trkpt>
      <trkpt lat="48.3056" lon="2.58631">
        <ele>215</ele>
        <time>2017-02-05T10:42:34Z</time>
      </trkpt>
      <trkpt lat="48.30567" lon="2.58622">
        <ele>216</ele>
        <time>2017-02-05T10:42:39Z</time>
      </trkpt>
      <trkpt lat="48.30569" lon="2.58621">
        <ele>216</ele>
        <time>2017-02-05T10:42:40Z</time>
      </trkpt>
      <trkpt lat="48.30571" lon="2.58625">
        <ele>216</ele>
        <time>2017-02-05T10:42:43Z</time>
      </trkpt>
      <trkpt lat="48.30572" lon="2.58629">
        <ele>216</ele>
        <time>2017-02-05T10:42:46Z</time>
      </trkpt>
      <trkpt lat="48.30572" lon="2.58636">
        <ele>217</ele>
        <time>2017-02-05T10:42:49Z</time>
      </trkpt>
      <trkpt lat="48.30575" lon="2.58648">
        <ele>217</ele>
        <time>2017-02-05T10:42:54Z</time>
      </trkpt>
      <trkpt lat="48.30574" lon="2.58653">
        <ele>218</ele>
        <time>2017-02-05T10:42:56Z</time>
      </trkpt>
      <trkpt lat="48.30569" lon="2.58662">
        <ele>219</ele>
        <time>2017-02-05T10:42:59Z</time>
      </trkpt>
      <trkpt lat="48.30558" lon="2.58679">
        <ele>219</ele>
        <time>2017-02-05T10:43:04Z</time>
      </trkpt>
      <trkpt lat="48.30555" lon="2.58696">
        <ele>219</ele>
        <time>2017-02-05T10:43:08Z</time>
      </trkpt>
      <trkpt lat="48.30556" lon="2.58701">
        <ele>219</ele>
        <time>2017-02-05T10:43:09Z</time>
      </trkpt>
      <trkpt lat="48.30555" lon="2.58711">
        <ele>219</ele>
        <time>2017-02-05T10:43:11Z</time>
      </trkpt>
      <trkpt lat="48.30552" lon="2.58717">
        <ele>220</ele>
        <time>2017-02-05T10:43:13Z</time>
      </trkpt>
      <trkpt lat="48.30539" lon="2.58735">
        <ele>220</ele>
        <time>2017-02-05T10:43:20Z</time>
      </trkpt>
      <trkpt lat="48.30535" lon="2.58741">
        <ele>220</ele>
        <time>2017-02-05T10:43:25Z</time>
      </trkpt>
      <trkpt lat="48.30535" lon="2.58741">
        <ele>219</ele>
        <time>2017-02-05T10:43:55Z</time>
      </trkpt>
      <trkpt lat="48.30535" lon="2.58741">
        <ele>220</ele>
        <time>2017-02-05T10:44:02Z</time>
      </trkpt>
      <trkpt lat="48.30535" lon="2.58741">
        <ele>220</ele>
        <time>2017-02-05T10:44:12Z</time>
      </trkpt>
      <trkpt lat="48.30534" lon="2.58743">
        <ele>220</ele>
        <time>2017-02-05T10:44:48Z</time>
      </trkpt>
      <trkpt lat="48.30534" lon="2.58743">
        <ele>220</ele>
        <time>2017-02-05T10:45:15Z</time>
      </trkpt>
      <trkpt lat="48.30534" lon="2.58743">
        <ele>220</ele>
        <time>2017-02-05T10:45:21Z</time>
      </trkpt>
      <trkpt lat="48.30533" lon="2.58743">
        <ele>220</ele>
        <time>2017-02-05T10:45:34Z</time>
      </trkpt>
      <trkpt lat="48.30533" lon="2.58743">
        <ele>220</ele>
        <time>2017-02-05T10:46:15Z</time>
      </trkpt>
      <trkpt lat="48.30534" lon="2.58747">
        <ele>219</ele>
        <time>2017-02-05T10:46:20Z</time>
      </trkpt>
      <trkpt lat="48.30534" lon="2.5875">
        <ele>218</ele>
        <time>2017-02-05T10:46:21Z</time>
      </trkpt>
      <trkpt lat="48.30535" lon="2.58757">
        <ele>217</ele>
        <time>2017-02-05T10:46:23Z</time>
      </trkpt>
      <trkpt lat="48.30535" lon="2.58762">
        <ele>215</ele>
        <time>2017-02-05T10:46:24Z</time>
      </trkpt>
      <trkpt lat="48.30534" lon="2.58767">
        <ele>214</ele>
        <time>2017-02-05T10:46:25Z</time>
      </trkpt>
      <trkpt lat="48.30535" lon="2.58774">
        <ele>212</ele>
        <time>2017-02-05T10:46:26Z</time>
      </trkpt>
      <trkpt lat="48.30536" lon="2.58782">
        <ele>211</ele>
        <time>2017-02-05T10:46:27Z</time>
      </trkpt>
      <trkpt lat="48.30538" lon="2.58789">
        <ele>209</ele>
        <time>2017-02-05T10:46:28Z</time>
      </trkpt>
      <trkpt lat="48.30539" lon="2.58793">
        <ele>209</ele>
        <time>2017-02-05T10:46:29Z</time>
      </trkpt>
      <trkpt lat="48.30541" lon="2.58794">
        <ele>209</ele>
        <time>2017-02-05T10:46:30Z</time>
      </trkpt>
      <trkpt lat="48.30543" lon="2.58794">
        <ele>208</ele>
        <time>2017-02-05T10:46:32Z</time>
      </trkpt>
      <trkpt lat="48.30544" lon="2.58792">
        <ele>208</ele>
        <time>2017-02-05T10:46:33Z</time>
      </trkpt>
      <trkpt lat="48.30551" lon="2.58786">
        <ele>207</ele>
        <time>2017-02-05T10:46:36Z</time>
      </trkpt>
      <trkpt lat="48.30556" lon="2.58783">
        <ele>206</ele>
        <time>2017-02-05T10:46:39Z</time>
      </trkpt>
      <trkpt lat="48.30558" lon="2.58782">
        <ele>206</ele>
        <time>2017-02-05T10:46:40Z</time>
      </trkpt>
      <trkpt lat="48.30559" lon="2.58778">
        <ele>206</ele>
        <time>2017-02-05T10:46:41Z</time>
      </trkpt>
      <trkpt lat="48.30563" lon="2.58772">
        <ele>207</ele>
        <time>2017-02-05T10:46:43Z</time>
      </trkpt>
      <trkpt lat="48.30571" lon="2.5877">
        <ele>207</ele>
        <time>2017-02-05T10:46:46Z</time>
      </trkpt>
      <trkpt lat="48.30573" lon="2.5877">
        <ele>207</ele>
        <time>2017-02-05T10:46:47Z</time>
      </trkpt>
      <trkpt lat="48.30578" lon="2.58777">
        <ele>208</ele>
        <time>2017-02-05T10:46:50Z</time>
      </trkpt>
      <trkpt lat="48.3058" lon="2.58781">
        <ele>209</ele>
        <time>2017-02-05T10:46:52Z</time>
      </trkpt>
      <trkpt lat="48.30583" lon="2.58784">
        <ele>210</ele>
        <time>2017-02-05T10:46:54Z</time>
      </trkpt>
      <trkpt lat="48.30585" lon="2.58785">
        <ele>210</ele>
        <time>2017-02-05T10:46:55Z</time>
      </trkpt>
      <trkpt lat="48.30588" lon="2.58789">
        <ele>211</ele>
        <time>2017-02-05T10:46:58Z</time>
      </trkpt>
      <trkpt lat="48.30592" lon="2.58794">
        <ele>212</ele>
        <time>2017-02-05T10:47:01Z</time>
      </trkpt>
      <trkpt lat="48.30593" lon="2.58795">
        <ele>212</ele>
        <time>2017-02-05T10:47:02Z</time>
      </trkpt>
      <trkpt lat="48.30597" lon="2.58802">
        <ele>213</ele>
        <time>2017-02-05T10:47:06Z</time>
      </trkpt>
      <trkpt lat="48.30598" lon="2.58804">
        <ele>213</ele>
        <time>2017-02-05T10:47:07Z</time>
      </trkpt>
      <trkpt lat="48.30601" lon="2.58814">
        <ele>214</ele>
        <time>2017-02-05T10:47:11Z</time>
      </trkpt>
      <trkpt lat="48.30604" lon="2.5882">
        <ele>214</ele>
        <time>2017-02-05T10:47:14Z</time>
      </trkpt>
      <trkpt lat="48.30606" lon="2.58837">
        <ele>215</ele>
        <time>2017-02-05T10:47:20Z</time>
      </trkpt>
      <trkpt lat="48.30606" lon="2.58838">
        <ele>215</ele>
        <time>2017-02-05T10:47:24Z</time>
      </trkpt>
      <trkpt lat="48.30608" lon="2.58847">
        <ele>216</ele>
        <time>2017-02-05T10:47:46Z</time>
      </trkpt>
      <trkpt lat="48.30611" lon="2.58863">
        <ele>215</ele>
        <time>2017-02-05T10:47:52Z</time>
      </trkpt>
      <trkpt lat="48.30613" lon="2.5887">
        <ele>216</ele>
        <time>2017-02-05T10:47:57Z</time>
      </trkpt>
      <trkpt lat="48.30614" lon="2.58871">
        <ele>216</ele>
        <time>2017-02-05T10:48:02Z</time>
      </trkpt>
      <trkpt lat="48.30617" lon="2.5887">
        <ele>217</ele>
        <time>2017-02-05T10:48:05Z</time>
      </trkpt>
      <trkpt lat="48.30622" lon="2.58868">
        <ele>217</ele>
        <time>2017-02-05T10:48:11Z</time>
      </trkpt>
      <trkpt lat="48.30623" lon="2.58867">
        <ele>217</ele>
        <time>2017-02-05T10:48:12Z</time>
      </trkpt>
      <trkpt lat="48.30624" lon="2.58867">
        <ele>218</ele>
        <time>2017-02-05T10:48:14Z</time>
      </trkpt>
      <trkpt lat="48.30624" lon="2.58866">
        <ele>219</ele>
        <time>2017-02-05T10:48:19Z</time>
      </trkpt>
      <trkpt lat="48.30625" lon="2.58866">
        <ele>219</ele>
        <time>2017-02-05T10:48:22Z</time>
      </trkpt>
      <trkpt lat="48.30626" lon="2.58865">
        <ele>220</ele>
        <time>2017-02-05T10:48:26Z</time>
      </trkpt>
      <trkpt lat="48.3063" lon="2.58864">
        <ele>220</ele>
        <time>2017-02-05T10:48:30Z</time>
      </trkpt>
      <trkpt lat="48.30635" lon="2.58863">
        <ele>221</ele>
        <time>2017-02-05T10:48:34Z</time>
      </trkpt>
      <trkpt lat="48.30639" lon="2.58863">
        <ele>221</ele>
        <time>2017-02-05T10:48:37Z</time>
      </trkpt>
      <trkpt lat="48.30641" lon="2.58863">
        <ele>222</ele>
        <time>2017-02-05T10:48:38Z</time>
      </trkpt>
      <trkpt lat="48.30643" lon="2.58861">
        <ele>222</ele>
        <time>2017-02-05T10:48:40Z</time>
      </trkpt>
      <trkpt lat="48.30646" lon="2.58857">
        <ele>223</ele>
        <time>2017-02-05T10:48:43Z</time>
      </trkpt>
      <trkpt lat="48.30647" lon="2.58856">
        <ele>223</ele>
        <time>2017-02-05T10:48:44Z</time>
      </trkpt>
      <trkpt lat="48.30651" lon="2.58852">
        <ele>224</ele>
        <time>2017-02-05T10:48:49Z</time>
      </trkpt>
      <trkpt lat="48.30652" lon="2.58851">
        <ele>225</ele>
        <time>2017-02-05T10:48:51Z</time>
      </trkpt>
      <trkpt lat="48.30655" lon="2.58849">
        <ele>225</ele>
        <time>2017-02-05T10:48:55Z</time>
      </trkpt>
      <trkpt lat="48.30657" lon="2.58848">
        <ele>226</ele>
        <time>2017-02-05T10:48:58Z</time>
      </trkpt>
      <trkpt lat="48.30659" lon="2.58848">
        <ele>227</ele>
        <time>2017-02-05T10:49:01Z</time>
      </trkpt>
      <trkpt lat="48.30659" lon="2.58848">
        <ele>227</ele>
        <time>2017-02-05T10:49:05Z</time>
      </trkpt>
      <trkpt lat="48.3066" lon="2.58847">
        <ele>227</ele>
        <time>2017-02-05T10:49:15Z</time>
      </trkpt>
      <trkpt lat="48.30661" lon="2.58847">
        <ele>228</ele>
        <time>2017-02-05T10:49:17Z</time>
      </trkpt>
      <trkpt lat="48.30668" lon="2.5885">
        <ele>229</ele>
        <time>2017-02-05T10:49:23Z</time>
      </trkpt>
      <trkpt lat="48.3067" lon="2.58854">
        <ele>229</ele>
        <time>2017-02-05T10:49:29Z</time>
      </trkpt>
      <trkpt lat="48.3067" lon="2.58864">
        <ele>230</ele>
        <time>2017-02-05T10:49:34Z</time>
      </trkpt>
      <trkpt lat="48.3067" lon="2.58866">
        <ele>231</ele>
        <time>2017-02-05T10:49:35Z</time>
      </trkpt>
      <trkpt lat="48.30672" lon="2.58877">
        <ele>232</ele>
        <time>2017-02-05T10:49:40Z</time>
      </trkpt>
      <trkpt lat="48.30673" lon="2.58878">
        <ele>232</ele>
        <time>2017-02-05T10:49:42Z</time>
      </trkpt>
      <trkpt lat="48.30673" lon="2.58881">
        <ele>233</ele>
        <time>2017-02-05T10:49:44Z</time>
      </trkpt>
      <trkpt lat="48.30673" lon="2.58888">
        <ele>233</ele>
        <time>2017-02-05T10:49:49Z</time>
      </trkpt>
      <trkpt lat="48.30672" lon="2.58891">
        <ele>234</ele>
        <time>2017-02-05T10:49:51Z</time>
      </trkpt>
      <trkpt lat="48.30672" lon="2.58893">
        <ele>234</ele>
        <time>2017-02-05T10:49:52Z</time>
      </trkpt>
      <trkpt lat="48.30671" lon="2.58897">
        <ele>234</ele>
        <time>2017-02-05T10:49:54Z</time>
      </trkpt>
      <trkpt lat="48.3067" lon="2.58906">
        <ele>234</ele>
        <time>2017-02-05T10:49:58Z</time>
      </trkpt>
      <trkpt lat="48.30667" lon="2.58919">
        <ele>234</ele>
        <time>2017-02-05T10:50:02Z</time>
      </trkpt>
      <trkpt lat="48.30665" lon="2.58928">
        <ele>235</ele>
        <time>2017-02-05T10:50:05Z</time>
      </trkpt>
      <trkpt lat="48.30664" lon="2.58941">
        <ele>235</ele>
        <time>2017-02-05T10:50:09Z</time>
      </trkpt>
      <trkpt lat="48.30656" lon="2.5895">
        <ele>234</ele>
        <time>2017-02-05T10:50:13Z</time>
      </trkpt>
      <trkpt lat="48.30654" lon="2.58955">
        <ele>232</ele>
        <time>2017-02-05T10:50:15Z</time>
      </trkpt>
      <trkpt lat="48.30654" lon="2.58961">
        <ele>231</ele>
        <time>2017-02-05T10:50:17Z</time>
      </trkpt>
      <trkpt lat="48.30652" lon="2.58964">
        <ele>229</ele>
        <time>2017-02-05T10:50:19Z</time>
      </trkpt>
      <trkpt lat="48.30651" lon="2.58965">
        <ele>229</ele>
        <time>2017-02-05T10:50:20Z</time>
      </trkpt>
      <trkpt lat="48.30649" lon="2.58966">
        <ele>228</ele>
        <time>2017-02-05T10:50:21Z</time>
      </trkpt>
      <trkpt lat="48.30645" lon="2.5897">
        <ele>227</ele>
        <time>2017-02-05T10:50:23Z</time>
      </trkpt>
      <trkpt lat="48.30643" lon="2.58973">
        <ele>227</ele>
        <time>2017-02-05T10:50:24Z</time>
      </trkpt>
      <trkpt lat="48.30641" lon="2.58975">
        <ele>226</ele>
        <time>2017-02-05T10:50:25Z</time>
      </trkpt>
      <trkpt lat="48.30636" lon="2.5898">
        <ele>225</ele>
        <time>2017-02-05T10:50:28Z</time>
      </trkpt>
      <trkpt lat="48.30634" lon="2.5898">
        <ele>225</ele>
        <time>2017-02-05T10:50:29Z</time>
      </trkpt>
      <trkpt lat="48.30629" lon="2.58978">
        <ele>224</ele>
        <time>2017-02-05T10:50:31Z</time>
      </trkpt>
      <trkpt lat="48.30627" lon="2.58977">
        <ele>223</ele>
        <time>2017-02-05T10:50:32Z</time>
      </trkpt>
      <trkpt lat="48.30625" lon="2.58977">
        <ele>223</ele>
        <time>2017-02-05T10:50:33Z</time>
      </trkpt>
      <trkpt lat="48.30623" lon="2.58978">
        <ele>222</ele>
        <time>2017-02-05T10:50:34Z</time>
      </trkpt>
      <trkpt lat="48.3062" lon="2.58982">
        <ele>222</ele>
        <time>2017-02-05T10:50:36Z</time>
      </trkpt>
      <trkpt lat="48.30609" lon="2.58989">
        <ele>221</ele>
        <time>2017-02-05T10:50:40Z</time>
      </trkpt>
      <trkpt lat="48.30601" lon="2.58995">
        <ele>221</ele>
        <time>2017-02-05T10:50:43Z</time>
      </trkpt>
      <trkpt lat="48.30599" lon="2.58996">
        <ele>221</ele>
        <time>2017-02-05T10:50:44Z</time>
      </trkpt>
      <trkpt lat="48.30595" lon="2.58998">
        <ele>221</ele>
        <time>2017-02-05T10:50:46Z</time>
      </trkpt>
      <trkpt lat="48.3059" lon="2.58996">
        <ele>220</ele>
        <time>2017-02-05T10:50:49Z</time>
      </trkpt>
      <trkpt lat="48.30589" lon="2.58995">
        <ele>219</ele>
        <time>2017-02-05T10:50:52Z</time>
      </trkpt>
      <trkpt lat="48.30586" lon="2.58991">
        <ele>219</ele>
        <time>2017-02-05T10:51:04Z</time>
      </trkpt>
      <trkpt lat="48.30575" lon="2.58975">
        <ele>219</ele>
        <time>2017-02-05T10:51:08Z</time>
      </trkpt>
      <trkpt lat="48.30572" lon="2.58972">
        <ele>218</ele>
        <time>2017-02-05T10:51:09Z</time>
      </trkpt>
      <trkpt lat="48.3057" lon="2.58971">
        <ele>218</ele>
        <time>2017-02-05T10:51:10Z</time>
      </trkpt>
      <trkpt lat="48.30567" lon="2.58971">
        <ele>218</ele>
        <time>2017-02-05T10:51:11Z</time>
      </trkpt>
      <trkpt lat="48.30562" lon="2.58971">
        <ele>218</ele>
        <time>2017-02-05T10:51:14Z</time>
      </trkpt>
      <trkpt lat="48.30556" lon="2.58966">
        <ele>219</ele>
        <time>2017-02-05T10:51:16Z</time>
      </trkpt>
      <trkpt lat="48.30551" lon="2.58964">
        <ele>218</ele>
        <time>2017-02-05T10:51:19Z</time>
      </trkpt>
      <trkpt lat="48.30551" lon="2.58965">
        <ele>219</ele>
        <time>2017-02-05T10:51:27Z</time>
      </trkpt>
      <trkpt lat="48.30551" lon="2.58969">
        <ele>219</ele>
        <time>2017-02-05T10:51:30Z</time>
      </trkpt>
      <trkpt lat="48.30552" lon="2.58977">
        <ele>219</ele>
        <time>2017-02-05T10:51:33Z</time>
      </trkpt>
      <trkpt lat="48.30553" lon="2.58979">
        <ele>220</ele>
        <time>2017-02-05T10:51:34Z</time>
      </trkpt>
      <trkpt lat="48.30553" lon="2.58983">
        <ele>221</ele>
        <time>2017-02-05T10:51:36Z</time>
      </trkpt>
      <trkpt lat="48.30554" lon="2.58989">
        <ele>222</ele>
        <time>2017-02-05T10:51:39Z</time>
      </trkpt>
      <trkpt lat="48.30554" lon="2.58991">
        <ele>223</ele>
        <time>2017-02-05T10:51:42Z</time>
      </trkpt>
      <trkpt lat="48.30553" lon="2.58993">
        <ele>223</ele>
        <time>2017-02-05T10:51:46Z</time>
      </trkpt>
      <trkpt lat="48.30553" lon="2.58994">
        <ele>223</ele>
        <time>2017-02-05T10:51:57Z</time>
      </trkpt>
      <trkpt lat="48.30553" lon="2.58995">
        <ele>224</ele>
        <time>2017-02-05T10:51:58Z</time>
      </trkpt>
      <trkpt lat="48.30553" lon="2.58998">
        <ele>224</ele>
        <time>2017-02-05T10:51:59Z</time>
      </trkpt>
      <trkpt lat="48.30552" lon="2.59004">
        <ele>225</ele>
        <time>2017-02-05T10:52:04Z</time>
      </trkpt>
      <trkpt lat="48.30552" lon="2.59004">
        <ele>225</ele>
        <time>2017-02-05T10:52:05Z</time>
      </trkpt>
      <trkpt lat="48.30554" lon="2.5901">
        <ele>226</ele>
        <time>2017-02-05T10:52:12Z</time>
      </trkpt>
      <trkpt lat="48.30553" lon="2.59017">
        <ele>227</ele>
        <time>2017-02-05T10:52:17Z</time>
      </trkpt>
      <trkpt lat="48.30552" lon="2.59019">
        <ele>228</ele>
        <time>2017-02-05T10:52:19Z</time>
      </trkpt>
      <trkpt lat="48.30553" lon="2.59023">
        <ele>228</ele>
        <time>2017-02-05T10:52:22Z</time>
      </trkpt>
      <trkpt lat="48.30553" lon="2.59026">
        <ele>229</ele>
        <time>2017-02-05T10:52:25Z</time>
      </trkpt>
      <trkpt lat="48.30553" lon="2.59033">
        <ele>230</ele>
        <time>2017-02-05T10:52:29Z</time>
      </trkpt>
      <trkpt lat="48.30552" lon="2.59036">
        <ele>230</ele>
        <time>2017-02-05T10:52:31Z</time>
      </trkpt>
      <trkpt lat="48.30552" lon="2.59041">
        <ele>231</ele>
        <time>2017-02-05T10:52:34Z</time>
      </trkpt>
      <trkpt lat="48.30551" lon="2.59045">
        <ele>231</ele>
        <time>2017-02-05T10:52:37Z</time>
      </trkpt>
      <trkpt lat="48.30549" lon="2.59047">
        <ele>232</ele>
        <time>2017-02-05T10:52:43Z</time>
      </trkpt>
      <trkpt lat="48.30549" lon="2.59047">
        <ele>233</ele>
        <time>2017-02-05T10:52:51Z</time>
      </trkpt>
      <trkpt lat="48.30549" lon="2.59047">
        <ele>234</ele>
        <time>2017-02-05T10:52:58Z</time>
      </trkpt>
      <trkpt lat="48.30544" lon="2.5906">
        <ele>233</ele>
        <time>2017-02-05T10:53:03Z</time>
      </trkpt>
      <trkpt lat="48.30543" lon="2.59069">
        <ele>234</ele>
        <time>2017-02-05T10:53:08Z</time>
      </trkpt>
      <trkpt lat="48.30541" lon="2.59074">
        <ele>234</ele>
        <time>2017-02-05T10:53:11Z</time>
      </trkpt>
      <trkpt lat="48.30538" lon="2.5908">
        <ele>234</ele>
        <time>2017-02-05T10:53:13Z</time>
      </trkpt>
      <trkpt lat="48.30536" lon="2.59091">
        <ele>234</ele>
        <time>2017-02-05T10:53:17Z</time>
      </trkpt>
      <trkpt lat="48.30534" lon="2.59108">
        <ele>232</ele>
        <time>2017-02-05T10:53:22Z</time>
      </trkpt>
      <trkpt lat="48.30535" lon="2.59119">
        <ele>232</ele>
        <time>2017-02-05T10:53:25Z</time>
      </trkpt>
      <trkpt lat="48.30535" lon="2.59123">
        <ele>231</ele>
        <time>2017-02-05T10:53:26Z</time>
      </trkpt>
      <trkpt lat="48.30534" lon="2.59126">
        <ele>231</ele>
        <time>2017-02-05T10:53:27Z</time>
      </trkpt>
      <trkpt lat="48.30534" lon="2.59129">
        <ele>230</ele>
        <time>2017-02-05T10:53:28Z</time>
      </trkpt>
      <trkpt lat="48.30535" lon="2.59135">
        <ele>229</ele>
        <time>2017-02-05T10:53:31Z</time>
      </trkpt>
      <trkpt lat="48.30536" lon="2.59141">
        <ele>229</ele>
        <time>2017-02-05T10:53:32Z</time>
      </trkpt>
      <trkpt lat="48.30535" lon="2.59143">
        <ele>228</ele>
        <time>2017-02-05T10:53:33Z</time>
      </trkpt>
      <trkpt lat="48.30533" lon="2.59148">
        <ele>227</ele>
        <time>2017-02-05T10:53:35Z</time>
      </trkpt>
      <trkpt lat="48.30532" lon="2.59151">
        <ele>226</ele>
        <time>2017-02-05T10:53:36Z</time>
      </trkpt>
      <trkpt lat="48.30531" lon="2.59153">
        <ele>225</ele>
        <time>2017-02-05T10:53:37Z</time>
      </trkpt>
      <trkpt lat="48.30531" lon="2.59158">
        <ele>224</ele>
        <time>2017-02-05T10:53:39Z</time>
      </trkpt>
      <trkpt lat="48.30531" lon="2.59163">
        <ele>223</ele>
        <time>2017-02-05T10:53:41Z</time>
      </trkpt>
      <trkpt lat="48.30536" lon="2.59173">
        <ele>223</ele>
        <time>2017-02-05T10:53:45Z</time>
      </trkpt>
      <trkpt lat="48.30538" lon="2.59176">
        <ele>223</ele>
        <time>2017-02-05T10:53:47Z</time>
      </trkpt>
      <trkpt lat="48.30538" lon="2.59178">
        <ele>223</ele>
        <time>2017-02-05T10:53:48Z</time>
      </trkpt>
      <trkpt lat="48.30538" lon="2.59187">
        <ele>222</ele>
        <time>2017-02-05T10:53:53Z</time>
      </trkpt>
      <trkpt lat="48.30537" lon="2.59188">
        <ele>222</ele>
        <time>2017-02-05T10:53:54Z</time>
      </trkpt>
      <trkpt lat="48.30532" lon="2.59194">
        <ele>221</ele>
        <time>2017-02-05T10:53:57Z</time>
      </trkpt>
      <trkpt lat="48.30532" lon="2.59197">
        <ele>220</ele>
        <time>2017-02-05T10:53:58Z</time>
      </trkpt>
      <trkpt lat="48.30533" lon="2.59204">
        <ele>219</ele>
        <time>2017-02-05T10:54:00Z</time>
      </trkpt>
      <trkpt lat="48.30534" lon="2.59207">
        <ele>219</ele>
        <time>2017-02-05T10:54:01Z</time>
      </trkpt>
      <trkpt lat="48.30533" lon="2.59212">
        <ele>219</ele>
        <time>2017-02-05T10:54:02Z</time>
      </trkpt>
      <trkpt lat="48.30528" lon="2.5923">
        <ele>218</ele>
        <time>2017-02-05T10:54:06Z</time>
      </trkpt>
      <trkpt lat="48.30524" lon="2.59239">
        <ele>217</ele>
        <time>2017-02-05T10:54:08Z</time>
      </trkpt>
      <trkpt lat="48.3052" lon="2.59241">
        <ele>217</ele>
        <time>2017-02-05T10:54:09Z</time>
      </trkpt>
      <trkpt lat="48.30506" lon="2.59249">
        <ele>215</ele>
        <time>2017-02-05T10:54:13Z</time>
      </trkpt>
      <trkpt lat="48.30503" lon="2.59256">
        <ele>214</ele>
        <time>2017-02-05T10:54:15Z</time>
      </trkpt>
      <trkpt lat="48.30503" lon="2.59259">
        <ele>213</ele>
        <time>2017-02-05T10:54:16Z</time>
      </trkpt>
      <trkpt lat="48.30503" lon="2.59277">
        <ele>213</ele>
        <time>2017-02-05T10:54:21Z</time>
      </trkpt>
      <trkpt lat="48.30501" lon="2.59289">
        <ele>212</ele>
        <time>2017-02-05T10:54:24Z</time>
      </trkpt>
      <trkpt lat="48.30501" lon="2.59293">
        <ele>212</ele>
        <time>2017-02-05T10:54:25Z</time>
      </trkpt>
      <trkpt lat="48.305" lon="2.59299">
        <ele>212</ele>
        <time>2017-02-05T10:54:26Z</time>
      </trkpt>
      <trkpt lat="48.30506" lon="2.59328">
        <ele>212</ele>
        <time>2017-02-05T10:54:31Z</time>
      </trkpt>
      <trkpt lat="48.30515" lon="2.59342">
        <ele>214</ele>
        <time>2017-02-05T10:54:36Z</time>
      </trkpt>
      <trkpt lat="48.30524" lon="2.59349">
        <ele>215</ele>
        <time>2017-02-05T10:54:41Z</time>
      </trkpt>
      <trkpt lat="48.30526" lon="2.59351">
        <ele>215</ele>
        <time>2017-02-05T10:54:42Z</time>
      </trkpt>
      <trkpt lat="48.30528" lon="2.59353">
        <ele>215</ele>
        <time>2017-02-05T10:54:43Z</time>
      </trkpt>
      <trkpt lat="48.30534" lon="2.5936">
        <ele>216</ele>
        <time>2017-02-05T10:54:47Z</time>
      </trkpt>
      <trkpt lat="48.30536" lon="2.59361">
        <ele>216</ele>
        <time>2017-02-05T10:54:49Z</time>
      </trkpt>
      <trkpt lat="48.30544" lon="2.59363">
        <ele>217</ele>
        <time>2017-02-05T10:54:53Z</time>
      </trkpt>
      <trkpt lat="48.3055" lon="2.59364">
        <ele>217</ele>
        <time>2017-02-05T10:54:57Z</time>
      </trkpt>
      <trkpt lat="48.30552" lon="2.59364">
        <ele>218</ele>
        <time>2017-02-05T10:55:32Z</time>
      </trkpt>
      <trkpt lat="48.30553" lon="2.59364">
        <ele>218</ele>
        <time>2017-02-05T10:55:35Z</time>
      </trkpt>
      <trkpt lat="48.3056" lon="2.59367">
        <ele>219</ele>
        <time>2017-02-05T10:55:39Z</time>
      </trkpt>
      <trkpt lat="48.30565" lon="2.59369">
        <ele>219</ele>
        <time>2017-02-05T10:55:46Z</time>
      </trkpt>
      <trkpt lat="48.30566" lon="2.5937">
        <ele>219</ele>
        <time>2017-02-05T10:55:51Z</time>
      </trkpt>
      <trkpt lat="48.30568" lon="2.59369">
        <ele>220</ele>
        <time>2017-02-05T10:55:53Z</time>
      </trkpt>
      <trkpt lat="48.3057" lon="2.59371">
        <ele>221</ele>
        <time>2017-02-05T10:56:02Z</time>
      </trkpt>
      <trkpt lat="48.30574" lon="2.59377">
        <ele>223</ele>
        <time>2017-02-05T10:56:07Z</time>
      </trkpt>
      <trkpt lat="48.30576" lon="2.59378">
        <ele>223</ele>
        <time>2017-02-05T10:56:09Z</time>
      </trkpt>
      <trkpt lat="48.30576" lon="2.59378">
        <ele>223</ele>
        <time>2017-02-05T10:56:10Z</time>
      </trkpt>
      <trkpt lat="48.30578" lon="2.59378">
        <ele>224</ele>
        <time>2017-02-05T10:56:12Z</time>
      </trkpt>
      <trkpt lat="48.3058" lon="2.59377">
        <ele>224</ele>
        <time>2017-02-05T10:56:15Z</time>
      </trkpt>
      <trkpt lat="48.30583" lon="2.59379">
        <ele>225</ele>
        <time>2017-02-05T10:56:23Z</time>
      </trkpt>
      <trkpt lat="48.30586" lon="2.59383">
        <ele>226</ele>
        <time>2017-02-05T10:56:29Z</time>
      </trkpt>
      <trkpt lat="48.30592" lon="2.59385">
        <ele>227</ele>
        <time>2017-02-05T10:56:36Z</time>
      </trkpt>
      <trkpt lat="48.30597" lon="2.59385">
        <ele>228</ele>
        <time>2017-02-05T10:56:43Z</time>
      </trkpt>
      <trkpt lat="48.30599" lon="2.59385">
        <ele>228</ele>
        <time>2017-02-05T10:56:45Z</time>
      </trkpt>
      <trkpt lat="48.30602" lon="2.59386">
        <ele>229</ele>
        <time>2017-02-05T10:56:52Z</time>
      </trkpt>
      <trkpt lat="48.30602" lon="2.59386">
        <ele>229</ele>
        <time>2017-02-05T10:56:53Z</time>
      </trkpt>
      <trkpt lat="48.30605" lon="2.59387">
        <ele>230</ele>
        <time>2017-02-05T10:56:59Z</time>
      </trkpt>
      <trkpt lat="48.30607" lon="2.59387">
        <ele>230</ele>
        <time>2017-02-05T10:57:01Z</time>
      </trkpt>
      <trkpt lat="48.30613" lon="2.59388">
        <ele>231</ele>
        <time>2017-02-05T10:57:06Z</time>
      </trkpt>
      <trkpt lat="48.30617" lon="2.59388">
        <ele>231</ele>
        <time>2017-02-05T10:57:10Z</time>
      </trkpt>
      <trkpt lat="48.30618" lon="2.59389">
        <ele>232</ele>
        <time>2017-02-05T10:57:11Z</time>
      </trkpt>
      <trkpt lat="48.30624" lon="2.59387">
        <ele>232</ele>
        <time>2017-02-05T10:57:17Z</time>
      </trkpt>
      <trkpt lat="48.30629" lon="2.59386">
        <ele>232</ele>
        <time>2017-02-05T10:57:20Z</time>
      </trkpt>
      <trkpt lat="48.30631" lon="2.59387">
        <ele>232</ele>
        <time>2017-02-05T10:57:23Z</time>
      </trkpt>
      <trkpt lat="48.30633" lon="2.59386">
        <ele>232</ele>
        <time>2017-02-05T10:57:29Z</time>
      </trkpt>
      <trkpt lat="48.30633" lon="2.59386">
        <ele>231</ele>
        <time>2017-02-05T10:58:15Z</time>
      </trkpt>
      <trkpt lat="48.30633" lon="2.59386">
        <ele>231</ele>
        <time>2017-02-05T10:58:51Z</time>
      </trkpt>
      <trkpt lat="48.30633" lon="2.59387">
        <ele>232</ele>
        <time>2017-02-05T10:59:32Z</time>
      </trkpt>
      <trkpt lat="48.30633" lon="2.59386">
        <ele>232</ele>
        <time>2017-02-05T11:00:10Z</time>
      </trkpt>
      <trkpt lat="48.30633" lon="2.59387">
        <ele>232</ele>
        <time>2017-02-05T11:00:50Z</time>
      </trkpt>
      <trkpt lat="48.30634" lon="2.59388">
        <ele>232</ele>
        <time>2017-02-05T11:00:53Z</time>
      </trkpt>
      <trkpt lat="48.30636" lon="2.59393">
        <ele>232</ele>
        <time>2017-02-05T11:00:55Z</time>
      </trkpt>
      <trkpt lat="48.3064" lon="2.59398">
        <ele>232</ele>
        <time>2017-02-05T11:00:57Z</time>
      </trkpt>
      <trkpt lat="48.30647" lon="2.59404">
        <ele>232</ele>
        <time>2017-02-05T11:01:00Z</time>
      </trkpt>
      <trkpt lat="48.30651" lon="2.59408">
        <ele>232</ele>
        <time>2017-02-05T11:01:03Z</time>
      </trkpt>
      <trkpt lat="48.30653" lon="2.59412">
        <ele>232</ele>
        <time>2017-02-05T11:01:05Z</time>
      </trkpt>
      <trkpt lat="48.3066" lon="2.5942">
        <ele>232</ele>
        <time>2017-02-05T11:01:09Z</time>
      </trkpt>
      <trkpt lat="48.30667" lon="2.59425">
        <ele>233</ele>
        <time>2017-02-05T11:01:14Z</time>
      </trkpt>
      <trkpt lat="48.30668" lon="2.59427">
        <ele>233</ele>
        <time>2017-02-05T11:01:15Z</time>
      </trkpt>
      <trkpt lat="48.30673" lon="2.59429">
        <ele>234</ele>
        <time>2017-02-05T11:01:18Z</time>
      </trkpt>
      <trkpt lat="48.30677" lon="2.5943">
        <ele>234</ele>
        <time>2017-02-05T11:01:20Z</time>
      </trkpt>
      <trkpt lat="48.3068" lon="2.59437">
        <ele>234</ele>
        <time>2017-02-05T11:01:24Z</time>
      </trkpt>
      <trkpt lat="48.30679" lon="2.5944">
        <ele>234</ele>
        <time>2017-02-05T11:01:25Z</time>
      </trkpt>
      <trkpt lat="48.30668" lon="2.59451">
        <ele>233</ele>
        <time>2017-02-05T11:01:28Z</time>
      </trkpt>
      <trkpt lat="48.30662" lon="2.59462">
        <ele>231</ele>
        <time>2017-02-05T11:01:30Z</time>
      </trkpt>
      <trkpt lat="48.30659" lon="2.59473">
        <ele>229</ele>
        <time>2017-02-05T11:01:31Z</time>
      </trkpt>
      <trkpt lat="48.30653" lon="2.5949">
        <ele>228</ele>
        <time>2017-02-05T11:01:33Z</time>
      </trkpt>
      <trkpt lat="48.30647" lon="2.59508">
        <ele>227</ele>
        <time>2017-02-05T11:01:35Z</time>
      </trkpt>
      <trkpt lat="48.30645" lon="2.59516">
        <ele>226</ele>
        <time>2017-02-05T11:01:36Z</time>
      </trkpt>
      <trkpt lat="48.30642" lon="2.59525">
        <ele>225</ele>
        <time>2017-02-05T11:01:37Z</time>
      </trkpt>
      <trkpt lat="48.3064" lon="2.59534">
        <ele>224</ele>
        <time>2017-02-05T11:01:38Z</time>
      </trkpt>
      <trkpt lat="48.30637" lon="2.59543">
        <ele>224</ele>
        <time>2017-02-05T11:01:39Z</time>
      </trkpt>
      <trkpt lat="48.30633" lon="2.59559">
        <ele>222</ele>
        <time>2017-02-05T11:01:41Z</time>
      </trkpt>
      <trkpt lat="48.3063" lon="2.59565">
        <ele>221</ele>
        <time>2017-02-05T11:01:42Z</time>
      </trkpt>
      <trkpt lat="48.30627" lon="2.59571">
        <ele>220</ele>
        <time>2017-02-05T11:01:43Z</time>
      </trkpt>
      <trkpt lat="48.30622" lon="2.59576">
        <ele>219</ele>
        <time>2017-02-05T11:01:44Z</time>
      </trkpt>
      <trkpt lat="48.30615" lon="2.59581">
        <ele>218</ele>
        <time>2017-02-05T11:01:46Z</time>
      </trkpt>
      <trkpt lat="48.30608" lon="2.59599">
        <ele>218</ele>
        <time>2017-02-05T11:01:49Z</time>
      </trkpt>
      <trkpt lat="48.30605" lon="2.59614">
        <ele>217</ele>
        <time>2017-02-05T11:01:51Z</time>
      </trkpt>
      <trkpt lat="48.30603" lon="2.59629">
        <ele>215</ele>
        <time>2017-02-05T11:01:53Z</time>
      </trkpt>
      <trkpt lat="48.30602" lon="2.59638">
        <ele>215</ele>
        <time>2017-02-05T11:01:54Z</time>
      </trkpt>
      <trkpt lat="48.30601" lon="2.59647">
        <ele>214</ele>
        <time>2017-02-05T11:01:55Z</time>
      </trkpt>
      <trkpt lat="48.30599" lon="2.59657">
        <ele>213</ele>
        <time>2017-02-05T11:01:56Z</time>
      </trkpt>
      <trkpt lat="48.30597" lon="2.59667">
        <ele>213</ele>
        <time>2017-02-05T11:01:57Z</time>
      </trkpt>
      <trkpt lat="48.30596" lon="2.59677">
        <ele>212</ele>
        <time>2017-02-05T11:01:58Z</time>
      </trkpt>
      <trkpt lat="48.30595" lon="2.59689">
        <ele>211</ele>
        <time>2017-02-05T11:01:59Z</time>
      </trkpt>
      <trkpt lat="48.30593" lon="2.5971">
        <ele>209</ele>
        <time>2017-02-05T11:02:01Z</time>
      </trkpt>
      <trkpt lat="48.3059" lon="2.5973">
        <ele>207</ele>
        <time>2017-02-05T11:02:03Z</time>
      </trkpt>
      <trkpt lat="48.30587" lon="2.59749">
        <ele>206</ele>
        <time>2017-02-05T11:02:05Z</time>
      </trkpt>
      <trkpt lat="48.3058" lon="2.5978">
        <ele>205</ele>
        <time>2017-02-05T11:02:08Z</time>
      </trkpt>
      <trkpt lat="48.30575" lon="2.59802">
        <ele>204</ele>
        <time>2017-02-05T11:02:10Z</time>
      </trkpt>
      <trkpt lat="48.30572" lon="2.59816">
        <ele>202</ele>
        <time>2017-02-05T11:02:12Z</time>
      </trkpt>
      <trkpt lat="48.30566" lon="2.59826">
        <ele>201</ele>
        <time>2017-02-05T11:02:14Z</time>
      </trkpt>
      <trkpt lat="48.30562" lon="2.59831">
        <ele>201</ele>
        <time>2017-02-05T11:02:15Z</time>
      </trkpt>
      <trkpt lat="48.30552" lon="2.5984">
        <ele>200</ele>
        <time>2017-02-05T11:02:17Z</time>
      </trkpt>
      <trkpt lat="48.30546" lon="2.59844">
        <ele>200</ele>
        <time>2017-02-05T11:02:18Z</time>
      </trkpt>
      <trkpt lat="48.3054" lon="2.59849">
        <ele>199</ele>
        <time>2017-02-05T11:02:19Z</time>
      </trkpt>
      <trkpt lat="48.30534" lon="2.59853">
        <ele>199</ele>
        <time>2017-02-05T11:02:20Z</time>
      </trkpt>
      <trkpt lat="48.30528" lon="2.59859">
        <ele>198</ele>
        <time>2017-02-05T11:02:21Z</time>
      </trkpt>
      <trkpt lat="48.30515" lon="2.5987">
        <ele>198</ele>
        <time>2017-02-05T11:02:23Z</time>
      </trkpt>
      <trkpt lat="48.30491" lon="2.59886">
        <ele>198</ele>
        <time>2017-02-05T11:02:26Z</time>
      </trkpt>
      <trkpt lat="48.30477" lon="2.59894">
        <ele>197</ele>
        <time>2017-02-05T11:02:28Z</time>
      </trkpt>
      <trkpt lat="48.30466" lon="2.59904">
        <ele>196</ele>
        <time>2017-02-05T11:02:30Z</time>
      </trkpt>
      <trkpt lat="48.30464" lon="2.59909">
        <ele>195</ele>
        <time>2017-02-05T11:02:31Z</time>
      </trkpt>
      <trkpt lat="48.30463" lon="2.59914">
        <ele>195</ele>
        <time>2017-02-05T11:02:32Z</time>
      </trkpt>
      <trkpt lat="48.30462" lon="2.5992">
        <ele>194</ele>
        <time>2017-02-05T11:02:34Z</time>
      </trkpt>
      <trkpt lat="48.30461" lon="2.59936">
        <ele>194</ele>
        <time>2017-02-05T11:02:39Z</time>
      </trkpt>
      <trkpt lat="48.30462" lon="2.59941">
        <ele>194</ele>
        <time>2017-02-05T11:02:41Z</time>
      </trkpt>
      <trkpt lat="48.30465" lon="2.59946">
        <ele>195</ele>
        <time>2017-02-05T11:02:43Z</time>
      </trkpt>
      <trkpt lat="48.30466" lon="2.59949">
        <ele>195</ele>
        <time>2017-02-05T11:02:45Z</time>
      </trkpt>
      <trkpt lat="48.30469" lon="2.59955">
        <ele>195</ele>
        <time>2017-02-05T11:02:48Z</time>
      </trkpt>
      <trkpt lat="48.30473" lon="2.59969">
        <ele>195</ele>
        <time>2017-02-05T11:02:52Z</time>
      </trkpt>
      <trkpt lat="48.30476" lon="2.59977">
        <ele>195</ele>
        <time>2017-02-05T11:02:55Z</time>
      </trkpt>
      <trkpt lat="48.30479" lon="2.5998">
        <ele>196</ele>
        <time>2017-02-05T11:02:57Z</time>
      </trkpt>
      <trkpt lat="48.30481" lon="2.59981">
        <ele>196</ele>
        <time>2017-02-05T11:02:58Z</time>
      </trkpt>
      <trkpt lat="48.30488" lon="2.59984">
        <ele>197</ele>
        <time>2017-02-05T11:03:02Z</time>
      </trkpt>
      <trkpt lat="48.30487" lon="2.59984">
        <ele>197</ele>
        <time>2017-02-05T11:03:03Z</time>
      </trkpt>
      <trkpt lat="48.30492" lon="2.59988">
        <ele>197</ele>
        <time>2017-02-05T11:03:05Z</time>
      </trkpt>
      <trkpt lat="48.30495" lon="2.59991">
        <ele>199</ele>
        <time>2017-02-05T11:03:07Z</time>
      </trkpt>
      <trkpt lat="48.30496" lon="2.59992">
        <ele>199</ele>
        <time>2017-02-05T11:03:08Z</time>
      </trkpt>
      <trkpt lat="48.30498" lon="2.59994">
        <ele>200</ele>
        <time>2017-02-05T11:03:10Z</time>
      </trkpt>
      <trkpt lat="48.30501" lon="2.59993">
        <ele>201</ele>
        <time>2017-02-05T11:03:14Z</time>
      </trkpt>
      <trkpt lat="48.30503" lon="2.59991">
        <ele>201</ele>
        <time>2017-02-05T11:03:15Z</time>
      </trkpt>
      <trkpt lat="48.30504" lon="2.5999">
        <ele>201</ele>
        <time>2017-02-05T11:03:16Z</time>
      </trkpt>
      <trkpt lat="48.30506" lon="2.59987">
        <ele>200</ele>
        <time>2017-02-05T11:03:20Z</time>
      </trkpt>
      <trkpt lat="48.30511" lon="2.59988">
        <ele>200</ele>
        <time>2017-02-05T11:03:27Z</time>
      </trkpt>
      <trkpt lat="48.30515" lon="2.5999">
        <ele>202</ele>
        <time>2017-02-05T11:03:33Z</time>
      </trkpt>
      <trkpt lat="48.30516" lon="2.59991">
        <ele>201</ele>
        <time>2017-02-05T11:03:41Z</time>
      </trkpt>
      <trkpt lat="48.30518" lon="2.59994">
        <ele>202</ele>
        <time>2017-02-05T11:03:48Z</time>
      </trkpt>
      <trkpt lat="48.30521" lon="2.59995">
        <ele>202</ele>
        <time>2017-02-05T11:03:50Z</time>
      </trkpt>
      <trkpt lat="48.30526" lon="2.6">
        <ele>203</ele>
        <time>2017-02-05T11:03:54Z</time>
      </trkpt>
      <trkpt lat="48.30528" lon="2.60001">
        <ele>204</ele>
        <time>2017-02-05T11:03:57Z</time>
      </trkpt>
      <trkpt lat="48.30532" lon="2.6">
        <ele>204</ele>
        <time>2017-02-05T11:04:02Z</time>
      </trkpt>
      <trkpt lat="48.30534" lon="2.60001">
        <ele>204</ele>
        <time>2017-02-05T11:04:15Z</time>
      </trkpt>
      <trkpt lat="48.30538" lon="2.60006">
        <ele>205</ele>
        <time>2017-02-05T11:04:20Z</time>
      </trkpt>
      <trkpt lat="48.3054" lon="2.60009">
        <ele>206</ele>
        <time>2017-02-05T11:04:25Z</time>
      </trkpt>
      <trkpt lat="48.30542" lon="2.60011">
        <ele>206</ele>
        <time>2017-02-05T11:04:27Z</time>
      </trkpt>
      <trkpt lat="48.30543" lon="2.60012">
        <ele>207</ele>
        <time>2017-02-05T11:04:32Z</time>
      </trkpt>
      <trkpt lat="48.30544" lon="2.60013">
        <ele>208</ele>
        <time>2017-02-05T11:04:34Z</time>
      </trkpt>
      <trkpt lat="48.30546" lon="2.60016">
        <ele>208</ele>
        <time>2017-02-05T11:04:43Z</time>
      </trkpt>
      <trkpt lat="48.30548" lon="2.60018">
        <ele>208</ele>
        <time>2017-02-05T11:04:45Z</time>
      </trkpt>
      <trkpt lat="48.30549" lon="2.6002">
        <ele>208</ele>
        <time>2017-02-05T11:04:46Z</time>
      </trkpt>
      <trkpt lat="48.30557" lon="2.60029">
        <ele>209</ele>
        <time>2017-02-05T11:04:50Z</time>
      </trkpt>
      <trkpt lat="48.30569" lon="2.60043">
        <ele>208</ele>
        <time>2017-02-05T11:04:57Z</time>
      </trkpt>
      <trkpt lat="48.30578" lon="2.60049">
        <ele>209</ele>
        <time>2017-02-05T11:05:01Z</time>
      </trkpt>
      <trkpt lat="48.30578" lon="2.60051">
        <ele>210</ele>
        <time>2017-02-05T11:05:02Z</time>
      </trkpt>
      <trkpt lat="48.3059" lon="2.60061">
        <ele>210</ele>
        <time>2017-02-05T11:05:08Z</time>
      </trkpt>
      <trkpt lat="48.30593" lon="2.60063">
        <ele>210</ele>
        <time>2017-02-05T11:05:10Z</time>
      </trkpt>
      <trkpt lat="48.30598" lon="2.60066">
        <ele>210</ele>
        <time>2017-02-05T11:05:13Z</time>
      </trkpt>
      <trkpt lat="48.30608" lon="2.60074">
        <ele>209</ele>
        <time>2017-02-05T11:05:18Z</time>
      </trkpt>
      <trkpt lat="48.30611" lon="2.60076">
        <ele>208</ele>
        <time>2017-02-05T11:05:19Z</time>
      </trkpt>
      <trkpt lat="48.30622" lon="2.60077">
        <ele>207</ele>
        <time>2017-02-05T11:05:23Z</time>
      </trkpt>
      <trkpt lat="48.30627" lon="2.60077">
        <ele>206</ele>
        <time>2017-02-05T11:05:25Z</time>
      </trkpt>
      <trkpt lat="48.30629" lon="2.60079">
        <ele>205</ele>
        <time>2017-02-05T11:05:26Z</time>
      </trkpt>
      <trkpt lat="48.30632" lon="2.60082">
        <ele>205</ele>
        <time>2017-02-05T11:05:27Z</time>
      </trkpt>
      <trkpt lat="48.3065" lon="2.60098">
        <ele>206</ele>
        <time>2017-02-05T11:05:33Z</time>
      </trkpt>
      <trkpt lat="48.30663" lon="2.60111">
        <ele>207</ele>
        <time>2017-02-05T11:05:40Z</time>
      </trkpt>
      <trkpt lat="48.30665" lon="2.60113">
        <ele>207</ele>
        <time>2017-02-05T11:05:41Z</time>
      </trkpt>
      <trkpt lat="48.30675" lon="2.60124">
        <ele>208</ele>
        <time>2017-02-05T11:05:47Z</time>
      </trkpt>
      <trkpt lat="48.3068" lon="2.60129">
        <ele>208</ele>
        <time>2017-02-05T11:05:49Z</time>
      </trkpt>
      <trkpt lat="48.30689" lon="2.60138">
        <ele>209</ele>
        <time>2017-02-05T11:05:53Z</time>
      </trkpt>
      <trkpt lat="48.30693" lon="2.60141">
        <ele>209</ele>
        <time>2017-02-05T11:05:55Z</time>
      </trkpt>
      <trkpt lat="48.30702" lon="2.60151">
        <ele>210</ele>
        <time>2017-02-05T11:06:01Z</time>
      </trkpt>
      <trkpt lat="48.30707" lon="2.60158">
        <ele>210</ele>
        <time>2017-02-05T11:06:05Z</time>
      </trkpt>
      <trkpt lat="48.30712" lon="2.60167">
        <ele>211</ele>
        <time>2017-02-05T11:06:08Z</time>
      </trkpt>
      <trkpt lat="48.30714" lon="2.60171">
        <ele>211</ele>
        <time>2017-02-05T11:06:09Z</time>
      </trkpt>
      <trkpt lat="48.30717" lon="2.60183">
        <ele>211</ele>
        <time>2017-02-05T11:06:13Z</time>
      </trkpt>
      <trkpt lat="48.30724" lon="2.60199">
        <ele>212</ele>
        <time>2017-02-05T11:06:19Z</time>
      </trkpt>
      <trkpt lat="48.30725" lon="2.60202">
        <ele>213</ele>
        <time>2017-02-05T11:06:20Z</time>
      </trkpt>
      <trkpt lat="48.30727" lon="2.6021">
        <ele>213</ele>
        <time>2017-02-05T11:06:23Z</time>
      </trkpt>
      <trkpt lat="48.30728" lon="2.60217">
        <ele>214</ele>
        <time>2017-02-05T11:06:26Z</time>
      </trkpt>
      <trkpt lat="48.30729" lon="2.60227">
        <ele>214</ele>
        <time>2017-02-05T11:06:32Z</time>
      </trkpt>
      <trkpt lat="48.3073" lon="2.60228">
        <ele>215</ele>
        <time>2017-02-05T11:06:33Z</time>
      </trkpt>
      <trkpt lat="48.3073" lon="2.6024">
        <ele>215</ele>
        <time>2017-02-05T11:06:39Z</time>
      </trkpt>
      <trkpt lat="48.3073" lon="2.60239">
        <ele>215</ele>
        <time>2017-02-05T11:06:40Z</time>
      </trkpt>
      <trkpt lat="48.30731" lon="2.60254">
        <ele>216</ele>
        <time>2017-02-05T11:06:45Z</time>
      </trkpt>
      <trkpt lat="48.30732" lon="2.60266">
        <ele>217</ele>
        <time>2017-02-05T11:06:49Z</time>
      </trkpt>
      <trkpt lat="48.30732" lon="2.60271">
        <ele>217</ele>
        <time>2017-02-05T11:06:52Z</time>
      </trkpt>
      <trkpt lat="48.30732" lon="2.60284">
        <ele>218</ele>
        <time>2017-02-05T11:06:56Z</time>
      </trkpt>
      <trkpt lat="48.30733" lon="2.60285">
        <ele>218</ele>
        <time>2017-02-05T11:06:58Z</time>
      </trkpt>
      <trkpt lat="48.30733" lon="2.603">
        <ele>219</ele>
        <time>2017-02-05T11:07:02Z</time>
      </trkpt>
      <trkpt lat="48.30733" lon="2.60307">
        <ele>219</ele>
        <time>2017-02-05T11:07:04Z</time>
      </trkpt>
      <trkpt lat="48.30734" lon="2.60321">
        <ele>220</ele>
        <time>2017-02-05T11:07:09Z</time>
      </trkpt>
      <trkpt lat="48.30735" lon="2.60324">
        <ele>220</ele>
        <time>2017-02-05T11:07:10Z</time>
      </trkpt>
      <trkpt lat="48.30735" lon="2.60338">
        <ele>221</ele>
        <time>2017-02-05T11:07:16Z</time>
      </trkpt>
      <trkpt lat="48.30736" lon="2.60343">
        <ele>221</ele>
        <time>2017-02-05T11:07:19Z</time>
      </trkpt>
      <trkpt lat="48.30738" lon="2.60355">
        <ele>222</ele>
        <time>2017-02-05T11:07:24Z</time>
      </trkpt>
      <trkpt lat="48.30739" lon="2.60356">
        <ele>222</ele>
        <time>2017-02-05T11:07:25Z</time>
      </trkpt>
      <trkpt lat="48.30739" lon="2.60365">
        <ele>223</ele>
        <time>2017-02-05T11:07:30Z</time>
      </trkpt>
      <trkpt lat="48.3074" lon="2.60366">
        <ele>223</ele>
        <time>2017-02-05T11:07:31Z</time>
      </trkpt>
      <trkpt lat="48.30741" lon="2.60376">
        <ele>224</ele>
        <time>2017-02-05T11:07:37Z</time>
      </trkpt>
      <trkpt lat="48.30741" lon="2.6038">
        <ele>224</ele>
        <time>2017-02-05T11:07:39Z</time>
      </trkpt>
      <trkpt lat="48.30743" lon="2.60385">
        <ele>225</ele>
        <time>2017-02-05T11:07:44Z</time>
      </trkpt>
      <trkpt lat="48.30743" lon="2.60387">
        <ele>225</ele>
        <time>2017-02-05T11:07:45Z</time>
      </trkpt>
      <trkpt lat="48.30745" lon="2.60392">
        <ele>226</ele>
        <time>2017-02-05T11:07:50Z</time>
      </trkpt>
      <trkpt lat="48.30745" lon="2.60391">
        <ele>226</ele>
        <time>2017-02-05T11:07:51Z</time>
      </trkpt>
      <trkpt lat="48.30748" lon="2.60398">
        <ele>227</ele>
        <time>2017-02-05T11:07:55Z</time>
      </trkpt>
      <trkpt lat="48.30748" lon="2.604">
        <ele>227</ele>
        <time>2017-02-05T11:07:56Z</time>
      </trkpt>
      <trkpt lat="48.30751" lon="2.60406">
        <ele>228</ele>
        <time>2017-02-05T11:08:01Z</time>
      </trkpt>
      <trkpt lat="48.30752" lon="2.60408">
        <ele>229</ele>
        <time>2017-02-05T11:08:02Z</time>
      </trkpt>
      <trkpt lat="48.30757" lon="2.60417">
        <ele>229</ele>
        <time>2017-02-05T11:08:09Z</time>
      </trkpt>
      <trkpt lat="48.30758" lon="2.60419">
        <ele>230</ele>
        <time>2017-02-05T11:08:10Z</time>
      </trkpt>
      <trkpt lat="48.30763" lon="2.60426">
        <ele>231</ele>
        <time>2017-02-05T11:08:16Z</time>
      </trkpt>
      <trkpt lat="48.30763" lon="2.60425">
        <ele>231</ele>
        <time>2017-02-05T11:08:17Z</time>
      </trkpt>
      <trkpt lat="48.30766" lon="2.60433">
        <ele>232</ele>
        <time>2017-02-05T11:08:22Z</time>
      </trkpt>
      <trkpt lat="48.30767" lon="2.60437">
        <ele>232</ele>
        <time>2017-02-05T11:08:24Z</time>
      </trkpt>
      <trkpt lat="48.30773" lon="2.60445">
        <ele>233</ele>
        <time>2017-02-05T11:08:29Z</time>
      </trkpt>
      <trkpt lat="48.30775" lon="2.60447">
        <ele>233</ele>
        <time>2017-02-05T11:08:31Z</time>
      </trkpt>
      <trkpt lat="48.3078" lon="2.60452">
        <ele>234</ele>
        <time>2017-02-05T11:08:35Z</time>
      </trkpt>
      <trkpt lat="48.30785" lon="2.60458">
        <ele>234</ele>
        <time>2017-02-05T11:08:39Z</time>
      </trkpt>
      <trkpt lat="48.30788" lon="2.60465">
        <ele>235</ele>
        <time>2017-02-05T11:08:43Z</time>
      </trkpt>
      <trkpt lat="48.30793" lon="2.60471">
        <ele>235</ele>
        <time>2017-02-05T11:08:46Z</time>
      </trkpt>
      <trkpt lat="48.30798" lon="2.60476">
        <ele>236</ele>
        <time>2017-02-05T11:08:50Z</time>
      </trkpt>
      <trkpt lat="48.30799" lon="2.60477">
        <ele>236</ele>
        <time>2017-02-05T11:08:51Z</time>
      </trkpt>
      <trkpt lat="48.30802" lon="2.60479">
        <ele>237</ele>
        <time>2017-02-05T11:08:54Z</time>
      </trkpt>
      <trkpt lat="48.30804" lon="2.60481">
        <ele>237</ele>
        <time>2017-02-05T11:08:56Z</time>
      </trkpt>
      <trkpt lat="48.30805" lon="2.60482">
        <ele>237</ele>
        <time>2017-02-05T11:08:57Z</time>
      </trkpt>
      <trkpt lat="48.30806" lon="2.60484">
        <ele>237</ele>
        <time>2017-02-05T11:08:58Z</time>
      </trkpt>
      <trkpt lat="48.30811" lon="2.60497">
        <ele>238</ele>
        <time>2017-02-05T11:09:03Z</time>
      </trkpt>
      <trkpt lat="48.30814" lon="2.60511">
        <ele>238</ele>
        <time>2017-02-05T11:09:07Z</time>
      </trkpt>
      <trkpt lat="48.30816" lon="2.60516">
        <ele>237</ele>
        <time>2017-02-05T11:09:09Z</time>
      </trkpt>
      <trkpt lat="48.30817" lon="2.60517">
        <ele>237</ele>
        <time>2017-02-05T11:09:15Z</time>
      </trkpt>
      <trkpt lat="48.30818" lon="2.60518">
        <ele>237</ele>
        <time>2017-02-05T11:09:21Z</time>
      </trkpt>
      <trkpt lat="48.30818" lon="2.60518">
        <ele>237</ele>
        <time>2017-02-05T11:10:08Z</time>
      </trkpt>
      <trkpt lat="48.30818" lon="2.60518">
        <ele>236</ele>
        <time>2017-02-05T11:10:41Z</time>
      </trkpt>
      <trkpt lat="48.30819" lon="2.60519">
        <ele>237</ele>
        <time>2017-02-05T11:11:27Z</time>
      </trkpt>
      <trkpt lat="48.30819" lon="2.60519">
        <ele>237</ele>
        <time>2017-02-05T11:12:10Z</time>
      </trkpt>
      <trkpt lat="48.30819" lon="2.6052">
        <ele>236</ele>
        <time>2017-02-05T11:12:55Z</time>
      </trkpt>
      <trkpt lat="48.30819" lon="2.6052">
        <ele>237</ele>
        <time>2017-02-05T11:13:22Z</time>
      </trkpt>
      <trkpt lat="48.30819" lon="2.6052">
        <ele>236</ele>
        <time>2017-02-05T11:14:07Z</time>
      </trkpt>
      <trkpt lat="48.3082" lon="2.60521">
        <ele>237</ele>
        <time>2017-02-05T11:14:41Z</time>
      </trkpt>
      <trkpt lat="48.30819" lon="2.60521">
        <ele>236</ele>
        <time>2017-02-05T11:15:27Z</time>
      </trkpt>
      <trkpt lat="48.30821" lon="2.60524">
        <ele>237</ele>
        <time>2017-02-05T11:15:59Z</time>
      </trkpt>
      <trkpt lat="48.30819" lon="2.6053">
        <ele>237</ele>
        <time>2017-02-05T11:16:05Z</time>
      </trkpt>
      <trkpt lat="48.30815" lon="2.60539">
        <ele>237</ele>
        <time>2017-02-05T11:16:11Z</time>
      </trkpt>
      <trkpt lat="48.30807" lon="2.60546">
        <ele>237</ele>
        <time>2017-02-05T11:16:17Z</time>
      </trkpt>
      <trkpt lat="48.30796" lon="2.60558">
        <ele>237</ele>
        <time>2017-02-05T11:16:25Z</time>
      </trkpt>
      <trkpt lat="48.30784" lon="2.60567">
        <ele>237</ele>
        <time>2017-02-05T11:16:30Z</time>
      </trkpt>
      <trkpt lat="48.30765" lon="2.60578">
        <ele>238</ele>
        <time>2017-02-05T11:16:36Z</time>
      </trkpt>
      <trkpt lat="48.30746" lon="2.60585">
        <ele>237</ele>
        <time>2017-02-05T11:16:41Z</time>
      </trkpt>
      <trkpt lat="48.30726" lon="2.60601">
        <ele>237</ele>
        <time>2017-02-05T11:16:46Z</time>
      </trkpt>
      <trkpt lat="48.30718" lon="2.6061">
        <ele>236</ele>
        <time>2017-02-05T11:16:48Z</time>
      </trkpt>
      <trkpt lat="48.3071" lon="2.60618">
        <ele>236</ele>
        <time>2017-02-05T11:16:50Z</time>
      </trkpt>
      <trkpt lat="48.30708" lon="2.60623">
        <ele>235</ele>
        <time>2017-02-05T11:16:51Z</time>
      </trkpt>
      <trkpt lat="48.30707" lon="2.60634">
        <ele>235</ele>
        <time>2017-02-05T11:16:53Z</time>
      </trkpt>
      <trkpt lat="48.30707" lon="2.60642">
        <ele>234</ele>
        <time>2017-02-05T11:16:54Z</time>
      </trkpt>
      <trkpt lat="48.30708" lon="2.60649">
        <ele>233</ele>
        <time>2017-02-05T11:16:55Z</time>
      </trkpt>
      <trkpt lat="48.30709" lon="2.60666">
        <ele>232</ele>
        <time>2017-02-05T11:16:57Z</time>
      </trkpt>
      <trkpt lat="48.30709" lon="2.60673">
        <ele>232</ele>
        <time>2017-02-05T11:16:58Z</time>
      </trkpt>
      <trkpt lat="48.30709" lon="2.60688">
        <ele>233</ele>
        <time>2017-02-05T11:17:00Z</time>
      </trkpt>
      <trkpt lat="48.3071" lon="2.60695">
        <ele>232</ele>
        <time>2017-02-05T11:17:01Z</time>
      </trkpt>
      <trkpt lat="48.30708" lon="2.60709">
        <ele>231</ele>
        <time>2017-02-05T11:17:03Z</time>
      </trkpt>
      <trkpt lat="48.30707" lon="2.60716">
        <ele>231</ele>
        <time>2017-02-05T11:17:04Z</time>
      </trkpt>
      <trkpt lat="48.30696" lon="2.60731">
        <ele>231</ele>
        <time>2017-02-05T11:17:07Z</time>
      </trkpt>
      <trkpt lat="48.30691" lon="2.60735">
        <ele>231</ele>
        <time>2017-02-05T11:17:08Z</time>
      </trkpt>
      <trkpt lat="48.30686" lon="2.60739">
        <ele>230</ele>
        <time>2017-02-05T11:17:09Z</time>
      </trkpt>
      <trkpt lat="48.30673" lon="2.60748">
        <ele>228</ele>
        <time>2017-02-05T11:17:11Z</time>
      </trkpt>
      <trkpt lat="48.30666" lon="2.60752">
        <ele>228</ele>
        <time>2017-02-05T11:17:12Z</time>
      </trkpt>
      <trkpt lat="48.30652" lon="2.6076">
        <ele>227</ele>
        <time>2017-02-05T11:17:14Z</time>
      </trkpt>
      <trkpt lat="48.30638" lon="2.60769">
        <ele>226</ele>
        <time>2017-02-05T11:17:16Z</time>
      </trkpt>
      <trkpt lat="48.30623" lon="2.60778">
        <ele>224</ele>
        <time>2017-02-05T11:17:18Z</time>
      </trkpt>
      <trkpt lat="48.30608" lon="2.60786">
        <ele>223</ele>
        <time>2017-02-05T11:17:20Z</time>
      </trkpt>
      <trkpt lat="48.30601" lon="2.60791">
        <ele>223</ele>
        <time>2017-02-05T11:17:21Z</time>
      </trkpt>
      <trkpt lat="48.30595" lon="2.60797">
        <ele>223</ele>
        <time>2017-02-05T11:17:22Z</time>
      </trkpt>
      <trkpt lat="48.3059" lon="2.60803">
        <ele>222</ele>
        <time>2017-02-05T11:17:23Z</time>
      </trkpt>
      <trkpt lat="48.30588" lon="2.60812">
        <ele>221</ele>
        <time>2017-02-05T11:17:24Z</time>
      </trkpt>
      <trkpt lat="48.30586" lon="2.60821">
        <ele>221</ele>
        <time>2017-02-05T11:17:25Z</time>
      </trkpt>
      <trkpt lat="48.30583" lon="2.60847">
        <ele>219</ele>
        <time>2017-02-05T11:17:28Z</time>
      </trkpt>
      <trkpt lat="48.30583" lon="2.60865">
        <ele>218</ele>
        <time>2017-02-05T11:17:30Z</time>
      </trkpt>
      <trkpt lat="48.30583" lon="2.60874">
        <ele>218</ele>
        <time>2017-02-05T11:17:31Z</time>
      </trkpt>
      <trkpt lat="48.30583" lon="2.60882">
        <ele>217</ele>
        <time>2017-02-05T11:17:32Z</time>
      </trkpt>
      <trkpt lat="48.30583" lon="2.60891">
        <ele>214</ele>
        <time>2017-02-05T11:17:33Z</time>
      </trkpt>
      <trkpt lat="48.30582" lon="2.60899">
        <ele>213</ele>
        <time>2017-02-05T11:17:34Z</time>
      </trkpt>
      <trkpt lat="48.30579" lon="2.60917">
        <ele>211</ele>
        <time>2017-02-05T11:17:36Z</time>
      </trkpt>
      <trkpt lat="48.30578" lon="2.60926">
        <ele>211</ele>
        <time>2017-02-05T11:17:37Z</time>
      </trkpt>
      <trkpt lat="48.30576" lon="2.60935">
        <ele>210</ele>
        <time>2017-02-05T11:17:38Z</time>
      </trkpt>
      <trkpt lat="48.30572" lon="2.60956">
        <ele>209</ele>
        <time>2017-02-05T11:17:40Z</time>
      </trkpt>
      <trkpt lat="48.30571" lon="2.60967">
        <ele>208</ele>
        <time>2017-02-05T11:17:41Z</time>
      </trkpt>
      <trkpt lat="48.30564" lon="2.6099">
        <ele>207</ele>
        <time>2017-02-05T11:17:43Z</time>
      </trkpt>
      <trkpt lat="48.3056" lon="2.61">
        <ele>206</ele>
        <time>2017-02-05T11:17:44Z</time>
      </trkpt>
      <trkpt lat="48.30556" lon="2.61011">
        <ele>205</ele>
        <time>2017-02-05T11:17:45Z</time>
      </trkpt>
      <trkpt lat="48.30547" lon="2.61032">
        <ele>203</ele>
        <time>2017-02-05T11:17:47Z</time>
      </trkpt>
      <trkpt lat="48.30535" lon="2.61053">
        <ele>202</ele>
        <time>2017-02-05T11:17:49Z</time>
      </trkpt>
      <trkpt lat="48.30529" lon="2.61064">
        <ele>201</ele>
        <time>2017-02-05T11:17:50Z</time>
      </trkpt>
      <trkpt lat="48.30522" lon="2.61076">
        <ele>200</ele>
        <time>2017-02-05T11:17:51Z</time>
      </trkpt>
      <trkpt lat="48.30514" lon="2.61087">
        <ele>198</ele>
        <time>2017-02-05T11:17:52Z</time>
      </trkpt>
      <trkpt lat="48.30507" lon="2.61098">
        <ele>197</ele>
        <time>2017-02-05T11:17:53Z</time>
      </trkpt>
      <trkpt lat="48.305" lon="2.6111">
        <ele>196</ele>
        <time>2017-02-05T11:17:54Z</time>
      </trkpt>
      <trkpt lat="48.30492" lon="2.61122">
        <ele>194</ele>
        <time>2017-02-05T11:17:55Z</time>
      </trkpt>
      <trkpt lat="48.3048" lon="2.61142">
        <ele>191</ele>
        <time>2017-02-05T11:17:57Z</time>
      </trkpt>
      <trkpt lat="48.30476" lon="2.61149">
        <ele>190</ele>
        <time>2017-02-05T11:17:58Z</time>
      </trkpt>
      <trkpt lat="48.30473" lon="2.61157">
        <ele>190</ele>
        <time>2017-02-05T11:17:59Z</time>
      </trkpt>
      <trkpt lat="48.30465" lon="2.61169">
        <ele>189</ele>
        <time>2017-02-05T11:18:01Z</time>
      </trkpt>
      <trkpt lat="48.30463" lon="2.61175">
        <ele>189</ele>
        <time>2017-02-05T11:18:02Z</time>
      </trkpt>
      <trkpt lat="48.30462" lon="2.61179">
        <ele>188</ele>
        <time>2017-02-05T11:18:03Z</time>
      </trkpt>
      <trkpt lat="48.30461" lon="2.61187">
        <ele>188</ele>
        <time>2017-02-05T11:18:05Z</time>
      </trkpt>
      <trkpt lat="48.30463" lon="2.61194">
        <ele>188</ele>
        <time>2017-02-05T11:18:07Z</time>
      </trkpt>
      <trkpt lat="48.30464" lon="2.61197">
        <ele>187</ele>
        <time>2017-02-05T11:18:08Z</time>
      </trkpt>
      <trkpt lat="48.30467" lon="2.61201">
        <ele>187</ele>
        <time>2017-02-05T11:18:10Z</time>
      </trkpt>
      <trkpt lat="48.30472" lon="2.61205">
        <ele>188</ele>
        <time>2017-02-05T11:18:12Z</time>
      </trkpt>
      <trkpt lat="48.30489" lon="2.61214">
        <ele>188</ele>
        <time>2017-02-05T11:18:18Z</time>
      </trkpt>
      <trkpt lat="48.3051" lon="2.61221">
        <ele>189</ele>
        <time>2017-02-05T11:18:23Z</time>
      </trkpt>
      <trkpt lat="48.30515" lon="2.61221">
        <ele>189</ele>
        <time>2017-02-05T11:18:24Z</time>
      </trkpt>
      <trkpt lat="48.30535" lon="2.61227">
        <ele>188</ele>
        <time>2017-02-05T11:18:29Z</time>
      </trkpt>
      <trkpt lat="48.30554" lon="2.61227">
        <ele>189</ele>
        <time>2017-02-05T11:18:34Z</time>
      </trkpt>
      <trkpt lat="48.30566" lon="2.61227">
        <ele>190</ele>
        <time>2017-02-05T11:18:38Z</time>
      </trkpt>
      <trkpt lat="48.30568" lon="2.61228">
        <ele>190</ele>
        <time>2017-02-05T11:18:39Z</time>
      </trkpt>
      <trkpt lat="48.30573" lon="2.61229">
        <ele>191</ele>
        <time>2017-02-05T11:18:41Z</time>
      </trkpt>
      <trkpt lat="48.30584" lon="2.61229">
        <ele>192</ele>
        <time>2017-02-05T11:18:45Z</time>
      </trkpt>
      <trkpt lat="48.30586" lon="2.61229">
        <ele>192</ele>
        <time>2017-02-05T11:18:46Z</time>
      </trkpt>
      <trkpt lat="48.30596" lon="2.61229">
        <ele>193</ele>
        <time>2017-02-05T11:18:52Z</time>
      </trkpt>
      <trkpt lat="48.30604" lon="2.61231">
        <ele>194</ele>
        <time>2017-02-05T11:18:57Z</time>
      </trkpt>
      <trkpt lat="48.30605" lon="2.61232">
        <ele>195</ele>
        <time>2017-02-05T11:18:58Z</time>
      </trkpt>
      <trkpt lat="48.30615" lon="2.61235">
        <ele>196</ele>
        <time>2017-02-05T11:19:03Z</time>
      </trkpt>
      <trkpt lat="48.30622" lon="2.61236">
        <ele>197</ele>
        <time>2017-02-05T11:19:09Z</time>
      </trkpt>
      <trkpt lat="48.30625" lon="2.61236">
        <ele>197</ele>
        <time>2017-02-05T11:19:10Z</time>
      </trkpt>
      <trkpt lat="48.30628" lon="2.61236">
        <ele>198</ele>
        <time>2017-02-05T11:19:12Z</time>
      </trkpt>
      <trkpt lat="48.3063" lon="2.61237">
        <ele>198</ele>
        <time>2017-02-05T11:19:15Z</time>
      </trkpt>
      <trkpt lat="48.30633" lon="2.61243">
        <ele>198</ele>
        <time>2017-02-05T11:19:23Z</time>
      </trkpt>
      <trkpt lat="48.30637" lon="2.61246">
        <ele>199</ele>
        <time>2017-02-05T11:19:28Z</time>
      </trkpt>
      <trkpt lat="48.30642" lon="2.61246">
        <ele>199</ele>
        <time>2017-02-05T11:19:33Z</time>
      </trkpt>
      <trkpt lat="48.30645" lon="2.61246">
        <ele>199</ele>
        <time>2017-02-05T11:19:35Z</time>
      </trkpt>
      <trkpt lat="48.30651" lon="2.61246">
        <ele>200</ele>
        <time>2017-02-05T11:19:39Z</time>
      </trkpt>
      <trkpt lat="48.30654" lon="2.61247">
        <ele>201</ele>
        <time>2017-02-05T11:19:43Z</time>
      </trkpt>
      <trkpt lat="48.3066" lon="2.6125">
        <ele>201</ele>
        <time>2017-02-05T11:19:48Z</time>
      </trkpt>
      <trkpt lat="48.30661" lon="2.6125">
        <ele>201</ele>
        <time>2017-02-05T11:19:50Z</time>
      </trkpt>
      <trkpt lat="48.30664" lon="2.61251">
        <ele>202</ele>
        <time>2017-02-05T11:19:53Z</time>
      </trkpt>
      <trkpt lat="48.3067" lon="2.61256">
        <ele>203</ele>
        <time>2017-02-05T11:19:57Z</time>
      </trkpt>
      <trkpt lat="48.30671" lon="2.61257">
        <ele>203</ele>
        <time>2017-02-05T11:19:58Z</time>
      </trkpt>
      <trkpt lat="48.30676" lon="2.6126">
        <ele>204</ele>
        <time>2017-02-05T11:20:03Z</time>
      </trkpt>
      <trkpt lat="48.3068" lon="2.61262">
        <ele>204</ele>
        <time>2017-02-05T11:20:06Z</time>
      </trkpt>
      <trkpt lat="48.30682" lon="2.61263">
        <ele>205</ele>
        <time>2017-02-05T11:20:09Z</time>
      </trkpt>
      <trkpt lat="48.30684" lon="2.61265">
        <ele>206</ele>
        <time>2017-02-05T11:20:11Z</time>
      </trkpt>
      <trkpt lat="48.30691" lon="2.61268">
        <ele>207</ele>
        <time>2017-02-05T11:20:16Z</time>
      </trkpt>
      <trkpt lat="48.30693" lon="2.61269">
        <ele>207</ele>
        <time>2017-02-05T11:20:17Z</time>
      </trkpt>
      <trkpt lat="48.30699" lon="2.61273">
        <ele>207</ele>
        <time>2017-02-05T11:20:21Z</time>
      </trkpt>
      <trkpt lat="48.307" lon="2.61273">
        <ele>207</ele>
        <time>2017-02-05T11:20:22Z</time>
      </trkpt>
      <trkpt lat="48.307" lon="2.61273">
        <ele>208</ele>
        <time>2017-02-05T11:20:23Z</time>
      </trkpt>
      <trkpt lat="48.30708" lon="2.61279">
        <ele>208</ele>
        <time>2017-02-05T11:20:28Z</time>
      </trkpt>
      <trkpt lat="48.30715" lon="2.61284">
        <ele>209</ele>
        <time>2017-02-05T11:20:34Z</time>
      </trkpt>
      <trkpt lat="48.30717" lon="2.61286">
        <ele>209</ele>
        <time>2017-02-05T11:20:46Z</time>
      </trkpt>
      <trkpt lat="48.30723" lon="2.61288">
        <ele>209</ele>
        <time>2017-02-05T11:20:56Z</time>
      </trkpt>
      <trkpt lat="48.30728" lon="2.6129">
        <ele>210</ele>
        <time>2017-02-05T11:21:03Z</time>
      </trkpt>
      <trkpt lat="48.30735" lon="2.61296">
        <ele>210</ele>
        <time>2017-02-05T11:21:07Z</time>
      </trkpt>
      <trkpt lat="48.30736" lon="2.61297">
        <ele>210</ele>
        <time>2017-02-05T11:21:08Z</time>
      </trkpt>
      <trkpt lat="48.3074" lon="2.613">
        <ele>211</ele>
        <time>2017-02-05T11:21:12Z</time>
      </trkpt>
      <trkpt lat="48.30741" lon="2.61301">
        <ele>211</ele>
        <time>2017-02-05T11:21:13Z</time>
      </trkpt>
      <trkpt lat="48.30751" lon="2.61308">
        <ele>212</ele>
        <time>2017-02-05T11:21:20Z</time>
      </trkpt>
      <trkpt lat="48.3076" lon="2.61306">
        <ele>210</ele>
        <time>2017-02-05T11:21:26Z</time>
      </trkpt>
      <trkpt lat="48.30764" lon="2.61304">
        <ele>210</ele>
        <time>2017-02-05T11:21:27Z</time>
      </trkpt>
      <trkpt lat="48.30767" lon="2.61304">
        <ele>208</ele>
        <time>2017-02-05T11:21:29Z</time>
      </trkpt>
      <trkpt lat="48.30772" lon="2.61302">
        <ele>207</ele>
        <time>2017-02-05T11:21:31Z</time>
      </trkpt>
      <trkpt lat="48.30776" lon="2.61299">
        <ele>206</ele>
        <time>2017-02-05T11:21:32Z</time>
      </trkpt>
      <trkpt lat="48.3078" lon="2.61297">
        <ele>205</ele>
        <time>2017-02-05T11:21:33Z</time>
      </trkpt>
      <trkpt lat="48.30783" lon="2.61294">
        <ele>203</ele>
        <time>2017-02-05T11:21:34Z</time>
      </trkpt>
      <trkpt lat="48.30786" lon="2.6129">
        <ele>203</ele>
        <time>2017-02-05T11:21:35Z</time>
      </trkpt>
      <trkpt lat="48.30796" lon="2.61276">
        <ele>203</ele>
        <time>2017-02-05T11:21:40Z</time>
      </trkpt>
      <trkpt lat="48.30802" lon="2.61268">
        <ele>202</ele>
        <time>2017-02-05T11:21:43Z</time>
      </trkpt>
      <trkpt lat="48.30802" lon="2.61264">
        <ele>201</ele>
        <time>2017-02-05T11:21:44Z</time>
      </trkpt>
      <trkpt lat="48.30802" lon="2.61261">
        <ele>201</ele>
        <time>2017-02-05T11:21:45Z</time>
      </trkpt>
      <trkpt lat="48.308" lon="2.61257">
        <ele>201</ele>
        <time>2017-02-05T11:21:47Z</time>
      </trkpt>
      <trkpt lat="48.30797" lon="2.6125">
        <ele>201</ele>
        <time>2017-02-05T11:21:49Z</time>
      </trkpt>
      <trkpt lat="48.30785" lon="2.61235">
        <ele>200</ele>
        <time>2017-02-05T11:21:55Z</time>
      </trkpt>
      <trkpt lat="48.30781" lon="2.61225">
        <ele>201</ele>
        <time>2017-02-05T11:22:00Z</time>
      </trkpt>
      <trkpt lat="48.30783" lon="2.61208">
        <ele>202</ele>
        <time>2017-02-05T11:22:05Z</time>
      </trkpt>
      <trkpt lat="48.30784" lon="2.61205">
        <ele>202</ele>
        <time>2017-02-05T11:22:06Z</time>
      </trkpt>
      <trkpt lat="48.30784" lon="2.61201">
        <ele>203</ele>
        <time>2017-02-05T11:22:09Z</time>
      </trkpt>
      <trkpt lat="48.30786" lon="2.61189">
        <ele>204</ele>
        <time>2017-02-05T11:22:13Z</time>
      </trkpt>
      <trkpt lat="48.30787" lon="2.61184">
        <ele>204</ele>
        <time>2017-02-05T11:22:15Z</time>
      </trkpt>
      <trkpt lat="48.30788" lon="2.61178">
        <ele>205</ele>
        <time>2017-02-05T11:22:18Z</time>
      </trkpt>
      <trkpt lat="48.30788" lon="2.61179">
        <ele>205</ele>
        <time>2017-02-05T11:22:19Z</time>
      </trkpt>
      <trkpt lat="48.30791" lon="2.61168">
        <ele>206</ele>
        <time>2017-02-05T11:22:23Z</time>
      </trkpt>
      <trkpt lat="48.30793" lon="2.61165">
        <ele>206</ele>
        <time>2017-02-05T11:22:25Z</time>
      </trkpt>
      <trkpt lat="48.30795" lon="2.61158">
        <ele>207</ele>
        <time>2017-02-05T11:22:29Z</time>
      </trkpt>
      <trkpt lat="48.30796" lon="2.61155">
        <ele>208</ele>
        <time>2017-02-05T11:22:31Z</time>
      </trkpt>
      <trkpt lat="48.30796" lon="2.61152">
        <ele>208</ele>
        <time>2017-02-05T11:22:34Z</time>
      </trkpt>
      <trkpt lat="48.30798" lon="2.61143">
        <ele>209</ele>
        <time>2017-02-05T11:22:38Z</time>
      </trkpt>
      <trkpt lat="48.308" lon="2.61141">
        <ele>210</ele>
        <time>2017-02-05T11:22:41Z</time>
      </trkpt>
      <trkpt lat="48.30803" lon="2.61135">
        <ele>210</ele>
        <time>2017-02-05T11:22:44Z</time>
      </trkpt>
      <trkpt lat="48.30805" lon="2.61132">
        <ele>211</ele>
        <time>2017-02-05T11:22:46Z</time>
      </trkpt>
      <trkpt lat="48.30807" lon="2.61126">
        <ele>212</ele>
        <time>2017-02-05T11:22:51Z</time>
      </trkpt>
      <trkpt lat="48.3081" lon="2.61116">
        <ele>213</ele>
        <time>2017-02-05T11:22:58Z</time>
      </trkpt>
      <trkpt lat="48.3081" lon="2.61113">
        <ele>213</ele>
        <time>2017-02-05T11:22:59Z</time>
      </trkpt>
      <trkpt lat="48.30811" lon="2.61112">
        <ele>214</ele>
        <time>2017-02-05T11:23:04Z</time>
      </trkpt>
      <trkpt lat="48.30811" lon="2.61111">
        <ele>215</ele>
        <time>2017-02-05T11:23:25Z</time>
      </trkpt>
      <trkpt lat="48.30811" lon="2.6111">
        <ele>215</ele>
        <time>2017-02-05T11:23:26Z</time>
      </trkpt>
      <trkpt lat="48.30814" lon="2.61101">
        <ele>216</ele>
        <time>2017-02-05T11:23:34Z</time>
      </trkpt>
      <trkpt lat="48.30814" lon="2.61099">
        <ele>217</ele>
        <time>2017-02-05T11:23:43Z</time>
      </trkpt>
      <trkpt lat="48.30815" lon="2.61098">
        <ele>217</ele>
        <time>2017-02-05T11:23:47Z</time>
      </trkpt>
      <trkpt lat="48.30816" lon="2.61096">
        <ele>218</ele>
        <time>2017-02-05T11:23:50Z</time>
      </trkpt>
      <trkpt lat="48.30816" lon="2.61095">
        <ele>218</ele>
        <time>2017-02-05T11:23:53Z</time>
      </trkpt>
      <trkpt lat="48.30816" lon="2.61094">
        <ele>219</ele>
        <time>2017-02-05T11:23:58Z</time>
      </trkpt>
      <trkpt lat="48.30819" lon="2.61089">
        <ele>221</ele>
        <time>2017-02-05T11:24:13Z</time>
      </trkpt>
      <trkpt lat="48.3082" lon="2.61087">
        <ele>222</ele>
        <time>2017-02-05T11:24:15Z</time>
      </trkpt>
      <trkpt lat="48.30824" lon="2.61081">
        <ele>222</ele>
        <time>2017-02-05T11:24:18Z</time>
      </trkpt>
      <trkpt lat="48.30828" lon="2.61074">
        <ele>223</ele>
        <time>2017-02-05T11:24:23Z</time>
      </trkpt>
      <trkpt lat="48.3083" lon="2.61069">
        <ele>223</ele>
        <time>2017-02-05T11:24:26Z</time>
      </trkpt>
      <trkpt lat="48.30831" lon="2.61062">
        <ele>224</ele>
        <time>2017-02-05T11:24:30Z</time>
      </trkpt>
      <trkpt lat="48.30831" lon="2.61061">
        <ele>225</ele>
        <time>2017-02-05T11:24:32Z</time>
      </trkpt>
      <trkpt lat="48.30831" lon="2.61056">
        <ele>225</ele>
        <time>2017-02-05T11:24:36Z</time>
      </trkpt>
      <trkpt lat="48.3083" lon="2.61051">
        <ele>226</ele>
        <time>2017-02-05T11:24:40Z</time>
      </trkpt>
      <trkpt lat="48.30829" lon="2.61048">
        <ele>226</ele>
        <time>2017-02-05T11:24:44Z</time>
      </trkpt>
      <trkpt lat="48.30827" lon="2.61044">
        <ele>227</ele>
        <time>2017-02-05T11:24:46Z</time>
      </trkpt>
      <trkpt lat="48.30826" lon="2.61042">
        <ele>228</ele>
        <time>2017-02-05T11:24:51Z</time>
      </trkpt>
      <trkpt lat="48.30825" lon="2.61041">
        <ele>228</ele>
        <time>2017-02-05T11:24:52Z</time>
      </trkpt>
      <trkpt lat="48.30822" lon="2.61036">
        <ele>229</ele>
        <time>2017-02-05T11:24:59Z</time>
      </trkpt>
      <trkpt lat="48.30816" lon="2.61025">
        <ele>229</ele>
        <time>2017-02-05T11:25:06Z</time>
      </trkpt>
      <trkpt lat="48.30816" lon="2.6102">
        <ele>230</ele>
        <time>2017-02-05T11:25:11Z</time>
      </trkpt>
      <trkpt lat="48.30816" lon="2.61017">
        <ele>230</ele>
        <time>2017-02-05T11:25:13Z</time>
      </trkpt>
      <trkpt lat="48.30816" lon="2.61016">
        <ele>231</ele>
        <time>2017-02-05T11:25:21Z</time>
      </trkpt>
      <trkpt lat="48.30818" lon="2.61012">
        <ele>231</ele>
        <time>2017-02-05T11:25:33Z</time>
      </trkpt>
      <trkpt lat="48.3082" lon="2.61012">
        <ele>232</ele>
        <time>2017-02-05T11:25:35Z</time>
      </trkpt>
      <trkpt lat="48.30826" lon="2.61014">
        <ele>232</ele>
        <time>2017-02-05T11:25:40Z</time>
      </trkpt>
      <trkpt lat="48.30836" lon="2.61023">
        <ele>231</ele>
        <time>2017-02-05T11:25:44Z</time>
      </trkpt>
      <trkpt lat="48.3084" lon="2.61027">
        <ele>230</ele>
        <time>2017-02-05T11:25:46Z</time>
      </trkpt>
      <trkpt lat="48.30842" lon="2.6103">
        <ele>230</ele>
        <time>2017-02-05T11:25:48Z</time>
      </trkpt>
      <trkpt lat="48.3085" lon="2.61042">
        <ele>229</ele>
        <time>2017-02-05T11:25:54Z</time>
      </trkpt>
      <trkpt lat="48.30854" lon="2.61047">
        <ele>230</ele>
        <time>2017-02-05T11:25:57Z</time>
      </trkpt>
      <trkpt lat="48.30858" lon="2.6105">
        <ele>231</ele>
        <time>2017-02-05T11:25:59Z</time>
      </trkpt>
      <trkpt lat="48.3086" lon="2.61052">
        <ele>231</ele>
        <time>2017-02-05T11:26:00Z</time>
      </trkpt>
      <trkpt lat="48.30864" lon="2.61055">
        <ele>232</ele>
        <time>2017-02-05T11:26:04Z</time>
      </trkpt>
      <trkpt lat="48.30867" lon="2.61059">
        <ele>232</ele>
        <time>2017-02-05T11:26:07Z</time>
      </trkpt>
      <trkpt lat="48.30874" lon="2.61062">
        <ele>233</ele>
        <time>2017-02-05T11:26:12Z</time>
      </trkpt>
      <trkpt lat="48.30878" lon="2.6106">
        <ele>233</ele>
        <time>2017-02-05T11:26:15Z</time>
      </trkpt>
      <trkpt lat="48.30882" lon="2.61054">
        <ele>233</ele>
        <time>2017-02-05T11:26:18Z</time>
      </trkpt>
      <trkpt lat="48.30888" lon="2.61041">
        <ele>233</ele>
        <time>2017-02-05T11:26:23Z</time>
      </trkpt>
      <trkpt lat="48.30889" lon="2.61039">
        <ele>233</ele>
        <time>2017-02-05T11:26:24Z</time>
      </trkpt>
      <trkpt lat="48.30895" lon="2.61023">
        <ele>233</ele>
        <time>2017-02-05T11:26:31Z</time>
      </trkpt>
      <trkpt lat="48.30897" lon="2.61021">
        <ele>233</ele>
        <time>2017-02-05T11:26:32Z</time>
      </trkpt>
      <trkpt lat="48.30901" lon="2.61014">
        <ele>234</ele>
        <time>2017-02-05T11:26:36Z</time>
      </trkpt>
      <trkpt lat="48.30903" lon="2.61012">
        <ele>234</ele>
        <time>2017-02-05T11:26:38Z</time>
      </trkpt>
      <trkpt lat="48.30908" lon="2.61013">
        <ele>234</ele>
        <time>2017-02-05T11:26:42Z</time>
      </trkpt>
      <trkpt lat="48.30912" lon="2.61015">
        <ele>235</ele>
        <time>2017-02-05T11:26:48Z</time>
      </trkpt>
      <trkpt lat="48.30912" lon="2.61025">
        <ele>234</ele>
        <time>2017-02-05T11:26:53Z</time>
      </trkpt>
      <trkpt lat="48.30913" lon="2.61034">
        <ele>235</ele>
        <time>2017-02-05T11:26:58Z</time>
      </trkpt>
      <trkpt lat="48.30915" lon="2.61049">
        <ele>235</ele>
        <time>2017-02-05T11:27:04Z</time>
      </trkpt>
      <trkpt lat="48.30916" lon="2.6105">
        <ele>235</ele>
        <time>2017-02-05T11:27:05Z</time>
      </trkpt>
      <trkpt lat="48.30923" lon="2.61047">
        <ele>235</ele>
        <time>2017-02-05T11:27:10Z</time>
      </trkpt>
      <trkpt lat="48.30929" lon="2.61044">
        <ele>235</ele>
        <time>2017-02-05T11:27:14Z</time>
      </trkpt>
      <trkpt lat="48.30934" lon="2.61041">
        <ele>235</ele>
        <time>2017-02-05T11:27:16Z</time>
      </trkpt>
      <trkpt lat="48.30946" lon="2.61037">
        <ele>235</ele>
        <time>2017-02-05T11:27:22Z</time>
      </trkpt>
      <trkpt lat="48.30948" lon="2.61037">
        <ele>235</ele>
        <time>2017-02-05T11:27:23Z</time>
      </trkpt>
      <trkpt lat="48.30949" lon="2.61039">
        <ele>236</ele>
        <time>2017-02-05T11:27:24Z</time>
      </trkpt>
      <trkpt lat="48.30956" lon="2.61043">
        <ele>235</ele>
        <time>2017-02-05T11:27:27Z</time>
      </trkpt>
      <trkpt lat="48.3097" lon="2.61049">
        <ele>235</ele>
        <time>2017-02-05T11:27:34Z</time>
      </trkpt>
      <trkpt lat="48.30979" lon="2.61052">
        <ele>235</ele>
        <time>2017-02-05T11:27:38Z</time>
      </trkpt>
      <trkpt lat="48.30982" lon="2.61052">
        <ele>234</ele>
        <time>2017-02-05T11:27:39Z</time>
      </trkpt>
      <trkpt lat="48.3099" lon="2.61057">
        <ele>234</ele>
        <time>2017-02-05T11:27:43Z</time>
      </trkpt>
      <trkpt lat="48.30994" lon="2.61069">
        <ele>235</ele>
        <time>2017-02-05T11:27:48Z</time>
      </trkpt>
      <trkpt lat="48.30996" lon="2.61087">
        <ele>235</ele>
        <time>2017-02-05T11:27:53Z</time>
      </trkpt>
      <trkpt lat="48.30994" lon="2.61099">
        <ele>234</ele>
        <time>2017-02-05T11:27:57Z</time>
      </trkpt>
      <trkpt lat="48.30994" lon="2.61103">
        <ele>234</ele>
        <time>2017-02-05T11:27:58Z</time>
      </trkpt>
      <trkpt lat="48.30995" lon="2.61106">
        <ele>233</ele>
        <time>2017-02-05T11:27:59Z</time>
      </trkpt>
      <trkpt lat="48.30999" lon="2.61119">
        <ele>232</ele>
        <time>2017-02-05T11:28:02Z</time>
      </trkpt>
      <trkpt lat="48.31002" lon="2.61127">
        <ele>230</ele>
        <time>2017-02-05T11:28:04Z</time>
      </trkpt>
      <trkpt lat="48.31001" lon="2.61129">
        <ele>229</ele>
        <time>2017-02-05T11:28:06Z</time>
      </trkpt>
      <trkpt lat="48.31006" lon="2.61135">
        <ele>228</ele>
        <time>2017-02-05T11:28:08Z</time>
      </trkpt>
      <trkpt lat="48.31013" lon="2.61138">
        <ele>228</ele>
        <time>2017-02-05T11:28:14Z</time>
      </trkpt>
      <trkpt lat="48.31015" lon="2.61137">
        <ele>228</ele>
        <time>2017-02-05T11:28:15Z</time>
      </trkpt>
      <trkpt lat="48.31028" lon="2.6114">
        <ele>230</ele>
        <time>2017-02-05T11:28:22Z</time>
      </trkpt>
      <trkpt lat="48.31029" lon="2.61141">
        <ele>230</ele>
        <time>2017-02-05T11:28:23Z</time>
      </trkpt>
      <trkpt lat="48.31035" lon="2.61145">
        <ele>231</ele>
        <time>2017-02-05T11:28:28Z</time>
      </trkpt>
      <trkpt lat="48.31044" lon="2.61147">
        <ele>232</ele>
        <time>2017-02-05T11:28:33Z</time>
      </trkpt>
      <trkpt lat="48.31052" lon="2.61151">
        <ele>232</ele>
        <time>2017-02-05T11:28:37Z</time>
      </trkpt>
      <trkpt lat="48.31056" lon="2.61152">
        <ele>232</ele>
        <time>2017-02-05T11:28:39Z</time>
      </trkpt>
      <trkpt lat="48.3106" lon="2.61154">
        <ele>232</ele>
        <time>2017-02-05T11:28:42Z</time>
      </trkpt>
      <trkpt lat="48.31064" lon="2.61156">
        <ele>233</ele>
        <time>2017-02-05T11:28:44Z</time>
      </trkpt>
      <trkpt lat="48.31069" lon="2.61158">
        <ele>233</ele>
        <time>2017-02-05T11:28:50Z</time>
      </trkpt>
      <trkpt lat="48.3107" lon="2.61162">
        <ele>233</ele>
        <time>2017-02-05T11:28:51Z</time>
      </trkpt>
      <trkpt lat="48.3107" lon="2.61172">
        <ele>232</ele>
        <time>2017-02-05T11:28:54Z</time>
      </trkpt>
      <trkpt lat="48.3107" lon="2.61176">
        <ele>232</ele>
        <time>2017-02-05T11:28:55Z</time>
      </trkpt>
      <trkpt lat="48.31072" lon="2.6119">
        <ele>231</ele>
        <time>2017-02-05T11:29:01Z</time>
      </trkpt>
      <trkpt lat="48.31072" lon="2.61203">
        <ele>229</ele>
        <time>2017-02-05T11:29:04Z</time>
      </trkpt>
      <trkpt lat="48.31074" lon="2.61213">
        <ele>228</ele>
        <time>2017-02-05T11:29:07Z</time>
      </trkpt>
      <trkpt lat="48.31076" lon="2.61216">
        <ele>227</ele>
        <time>2017-02-05T11:29:08Z</time>
      </trkpt>
      <trkpt lat="48.31075" lon="2.61221">
        <ele>226</ele>
        <time>2017-02-05T11:29:09Z</time>
      </trkpt>
      <trkpt lat="48.31075" lon="2.61227">
        <ele>225</ele>
        <time>2017-02-05T11:29:10Z</time>
      </trkpt>
      <trkpt lat="48.31077" lon="2.61242">
        <ele>224</ele>
        <time>2017-02-05T11:29:12Z</time>
      </trkpt>
      <trkpt lat="48.31081" lon="2.61255">
        <ele>223</ele>
        <time>2017-02-05T11:29:14Z</time>
      </trkpt>
      <trkpt lat="48.31087" lon="2.61266">
        <ele>223</ele>
        <time>2017-02-05T11:29:16Z</time>
      </trkpt>
      <trkpt lat="48.31088" lon="2.61271">
        <ele>223</ele>
        <time>2017-02-05T11:29:17Z</time>
      </trkpt>
      <trkpt lat="48.31092" lon="2.61281">
        <ele>223</ele>
        <time>2017-02-05T11:29:20Z</time>
      </trkpt>
      <trkpt lat="48.31097" lon="2.61296">
        <ele>223</ele>
        <time>2017-02-05T11:29:25Z</time>
      </trkpt>
      <trkpt lat="48.31099" lon="2.61297">
        <ele>223</ele>
        <time>2017-02-05T11:29:32Z</time>
      </trkpt>
      <trkpt lat="48.31102" lon="2.61295">
        <ele>224</ele>
        <time>2017-02-05T11:29:40Z</time>
      </trkpt>
      <trkpt lat="48.31103" lon="2.61296">
        <ele>224</ele>
        <time>2017-02-05T11:29:41Z</time>
      </trkpt>
      <trkpt lat="48.31105" lon="2.61295">
        <ele>224</ele>
        <time>2017-02-05T11:29:42Z</time>
      </trkpt>
      <trkpt lat="48.31107" lon="2.61296">
        <ele>225</ele>
        <time>2017-02-05T11:29:48Z</time>
      </trkpt>
      <trkpt lat="48.31111" lon="2.61292">
        <ele>225</ele>
        <time>2017-02-05T11:29:53Z</time>
      </trkpt>
      <trkpt lat="48.31113" lon="2.61288">
        <ele>225</ele>
        <time>2017-02-05T11:29:55Z</time>
      </trkpt>
      <trkpt lat="48.31115" lon="2.61288">
        <ele>225</ele>
        <time>2017-02-05T11:29:56Z</time>
      </trkpt>
      <trkpt lat="48.31116" lon="2.61287">
        <ele>226</ele>
        <time>2017-02-05T11:30:01Z</time>
      </trkpt>
      <trkpt lat="48.31118" lon="2.61287">
        <ele>226</ele>
        <time>2017-02-05T11:30:05Z</time>
      </trkpt>
      <trkpt lat="48.31119" lon="2.61283">
        <ele>226</ele>
        <time>2017-02-05T11:30:10Z</time>
      </trkpt>
      <trkpt lat="48.31119" lon="2.61277">
        <ele>226</ele>
        <time>2017-02-05T11:30:15Z</time>
      </trkpt>
      <trkpt lat="48.31119" lon="2.61275">
        <ele>226</ele>
        <time>2017-02-05T11:30:16Z</time>
      </trkpt>
      <trkpt lat="48.31119" lon="2.61259">
        <ele>226</ele>
        <time>2017-02-05T11:30:22Z</time>
      </trkpt>
      <trkpt lat="48.31125" lon="2.61251">
        <ele>227</ele>
        <time>2017-02-05T11:30:29Z</time>
      </trkpt>
      <trkpt lat="48.31128" lon="2.61251">
        <ele>227</ele>
        <time>2017-02-05T11:30:35Z</time>
      </trkpt>
      <trkpt lat="48.3113" lon="2.61252">
        <ele>228</ele>
        <time>2017-02-05T11:30:43Z</time>
      </trkpt>
      <trkpt lat="48.31133" lon="2.61254">
        <ele>228</ele>
        <time>2017-02-05T11:30:48Z</time>
      </trkpt>
      <trkpt lat="48.31134" lon="2.61254">
        <ele>228</ele>
        <time>2017-02-05T11:30:49Z</time>
      </trkpt>
      <trkpt lat="48.31139" lon="2.61257">
        <ele>229</ele>
        <time>2017-02-05T11:30:54Z</time>
      </trkpt>
      <trkpt lat="48.31141" lon="2.61262">
        <ele>229</ele>
        <time>2017-02-05T11:30:58Z</time>
      </trkpt>
      <trkpt lat="48.31141" lon="2.61264">
        <ele>230</ele>
        <time>2017-02-05T11:30:59Z</time>
      </trkpt>
      <trkpt lat="48.3114" lon="2.61266">
        <ele>230</ele>
        <time>2017-02-05T11:31:01Z</time>
      </trkpt>
      <trkpt lat="48.31139" lon="2.6127">
        <ele>230</ele>
        <time>2017-02-05T11:31:05Z</time>
      </trkpt>
      <trkpt lat="48.31137" lon="2.61273">
        <ele>231</ele>
        <time>2017-02-05T11:31:07Z</time>
      </trkpt>
      <trkpt lat="48.31136" lon="2.61277">
        <ele>231</ele>
        <time>2017-02-05T11:31:10Z</time>
      </trkpt>
      <trkpt lat="48.3113" lon="2.61291">
        <ele>232</ele>
        <time>2017-02-05T11:31:17Z</time>
      </trkpt>
      <trkpt lat="48.3113" lon="2.61294">
        <ele>232</ele>
        <time>2017-02-05T11:31:18Z</time>
      </trkpt>
      <trkpt lat="48.31129" lon="2.61301">
        <ele>232</ele>
        <time>2017-02-05T11:31:22Z</time>
      </trkpt>
      <trkpt lat="48.31127" lon="2.6131">
        <ele>233</ele>
        <time>2017-02-05T11:31:29Z</time>
      </trkpt>
      <trkpt lat="48.31126" lon="2.61312">
        <ele>233</ele>
        <time>2017-02-05T11:31:30Z</time>
      </trkpt>
      <trkpt lat="48.31124" lon="2.61313">
        <ele>233</ele>
        <time>2017-02-05T11:31:31Z</time>
      </trkpt>
      <trkpt lat="48.31122" lon="2.61322">
        <ele>233</ele>
        <time>2017-02-05T11:31:35Z</time>
      </trkpt>
      <trkpt lat="48.31122" lon="2.61332">
        <ele>233</ele>
        <time>2017-02-05T11:31:39Z</time>
      </trkpt>
      <trkpt lat="48.31121" lon="2.61338">
        <ele>233</ele>
        <time>2017-02-05T11:31:41Z</time>
      </trkpt>
      <trkpt lat="48.31122" lon="2.6135">
        <ele>234</ele>
        <time>2017-02-05T11:31:47Z</time>
      </trkpt>
      <trkpt lat="48.3112" lon="2.61359">
        <ele>234</ele>
        <time>2017-02-05T11:31:51Z</time>
      </trkpt>
      <trkpt lat="48.31118" lon="2.61361">
        <ele>234</ele>
        <time>2017-02-05T11:31:52Z</time>
      </trkpt>
      <trkpt lat="48.31111" lon="2.61372">
        <ele>234</ele>
        <time>2017-02-05T11:31:57Z</time>
      </trkpt>
      <trkpt lat="48.31111" lon="2.61372">
        <ele>233</ele>
        <time>2017-02-05T11:31:58Z</time>
      </trkpt>
      <trkpt lat="48.31108" lon="2.61376">
        <ele>233</ele>
        <time>2017-02-05T11:32:05Z</time>
      </trkpt>
      <trkpt lat="48.31107" lon="2.61378">
        <ele>233</ele>
        <time>2017-02-05T11:32:06Z</time>
      </trkpt>
      <trkpt lat="48.311" lon="2.61383">
        <ele>233</ele>
        <time>2017-02-05T11:32:10Z</time>
      </trkpt>
      <trkpt lat="48.31094" lon="2.61392">
        <ele>233</ele>
        <time>2017-02-05T11:32:15Z</time>
      </trkpt>
      <trkpt lat="48.31089" lon="2.61407">
        <ele>234</ele>
        <time>2017-02-05T11:32:22Z</time>
      </trkpt>
      <trkpt lat="48.31083" lon="2.6142">
        <ele>233</ele>
        <time>2017-02-05T11:32:27Z</time>
      </trkpt>
      <trkpt lat="48.31073" lon="2.61423">
        <ele>233</ele>
        <time>2017-02-05T11:32:31Z</time>
      </trkpt>
      <trkpt lat="48.31067" lon="2.61428">
        <ele>233</ele>
        <time>2017-02-05T11:32:36Z</time>
      </trkpt>
      <trkpt lat="48.31065" lon="2.61428">
        <ele>233</ele>
        <time>2017-02-05T11:32:37Z</time>
      </trkpt>
      <trkpt lat="48.31064" lon="2.61427">
        <ele>233</ele>
        <time>2017-02-05T11:32:38Z</time>
      </trkpt>
      <trkpt lat="48.31059" lon="2.61422">
        <ele>232</ele>
        <time>2017-02-05T11:32:41Z</time>
      </trkpt>
      <trkpt lat="48.31056" lon="2.61417">
        <ele>232</ele>
        <time>2017-02-05T11:32:43Z</time>
      </trkpt>
      <trkpt lat="48.31053" lon="2.61411">
        <ele>231</ele>
        <time>2017-02-05T11:32:45Z</time>
      </trkpt>
      <trkpt lat="48.31052" lon="2.61405">
        <ele>231</ele>
        <time>2017-02-05T11:32:47Z</time>
      </trkpt>
      <trkpt lat="48.31048" lon="2.61387">
        <ele>231</ele>
        <time>2017-02-05T11:32:52Z</time>
      </trkpt>
      <trkpt lat="48.31048" lon="2.6138">
        <ele>230</ele>
        <time>2017-02-05T11:32:54Z</time>
      </trkpt>
      <trkpt lat="48.31048" lon="2.61376">
        <ele>230</ele>
        <time>2017-02-05T11:32:55Z</time>
      </trkpt>
      <trkpt lat="48.31047" lon="2.61373">
        <ele>229</ele>
        <time>2017-02-05T11:32:56Z</time>
      </trkpt>
      <trkpt lat="48.31048" lon="2.61366">
        <ele>228</ele>
        <time>2017-02-05T11:32:58Z</time>
      </trkpt>
      <trkpt lat="48.31051" lon="2.6136">
        <ele>227</ele>
        <time>2017-02-05T11:33:00Z</time>
      </trkpt>
      <trkpt lat="48.31056" lon="2.61351">
        <ele>226</ele>
        <time>2017-02-05T11:33:02Z</time>
      </trkpt>
      <trkpt lat="48.31058" lon="2.61346">
        <ele>226</ele>
        <time>2017-02-05T11:33:03Z</time>
      </trkpt>
      <trkpt lat="48.31059" lon="2.61338">
        <ele>224</ele>
        <time>2017-02-05T11:33:05Z</time>
      </trkpt>
      <trkpt lat="48.31057" lon="2.61332">
        <ele>222</ele>
        <time>2017-02-05T11:33:07Z</time>
      </trkpt>
      <trkpt lat="48.31053" lon="2.61325">
        <ele>222</ele>
        <time>2017-02-05T11:33:09Z</time>
      </trkpt>
      <trkpt lat="48.31047" lon="2.61319">
        <ele>221</ele>
        <time>2017-02-05T11:33:12Z</time>
      </trkpt>
      <trkpt lat="48.31041" lon="2.61317">
        <ele>221</ele>
        <time>2017-02-05T11:33:14Z</time>
      </trkpt>
      <trkpt lat="48.31033" lon="2.61317">
        <ele>220</ele>
        <time>2017-02-05T11:33:17Z</time>
      </trkpt>
      <trkpt lat="48.31028" lon="2.61318">
        <ele>219</ele>
        <time>2017-02-05T11:33:19Z</time>
      </trkpt>
      <trkpt lat="48.31024" lon="2.6132">
        <ele>219</ele>
        <time>2017-02-05T11:33:20Z</time>
      </trkpt>
      <trkpt lat="48.31021" lon="2.61323">
        <ele>219</ele>
        <time>2017-02-05T11:33:21Z</time>
      </trkpt>
      <trkpt lat="48.31018" lon="2.61329">
        <ele>218</ele>
        <time>2017-02-05T11:33:23Z</time>
      </trkpt>
      <trkpt lat="48.31013" lon="2.61342">
        <ele>219</ele>
        <time>2017-02-05T11:33:28Z</time>
      </trkpt>
      <trkpt lat="48.31012" lon="2.61345">
        <ele>219</ele>
        <time>2017-02-05T11:33:29Z</time>
      </trkpt>
      <trkpt lat="48.31007" lon="2.61353">
        <ele>220</ele>
        <time>2017-02-05T11:33:33Z</time>
      </trkpt>
      <trkpt lat="48.31005" lon="2.61358">
        <ele>221</ele>
        <time>2017-02-05T11:33:35Z</time>
      </trkpt>
      <trkpt lat="48.31" lon="2.61366">
        <ele>221</ele>
        <time>2017-02-05T11:33:40Z</time>
      </trkpt>
      <trkpt lat="48.30998" lon="2.61368">
        <ele>221</ele>
        <time>2017-02-05T11:33:41Z</time>
      </trkpt>
      <trkpt lat="48.30996" lon="2.61373">
        <ele>221</ele>
        <time>2017-02-05T11:33:44Z</time>
      </trkpt>
      <trkpt lat="48.30995" lon="2.61378">
        <ele>221</ele>
        <time>2017-02-05T11:33:45Z</time>
      </trkpt>
      <trkpt lat="48.30992" lon="2.61389">
        <ele>221</ele>
        <time>2017-02-05T11:33:50Z</time>
      </trkpt>
      <trkpt lat="48.3099" lon="2.61397">
        <ele>221</ele>
        <time>2017-02-05T11:33:52Z</time>
      </trkpt>
      <trkpt lat="48.30993" lon="2.61405">
        <ele>222</ele>
        <time>2017-02-05T11:33:55Z</time>
      </trkpt>
      <trkpt lat="48.30996" lon="2.61412">
        <ele>222</ele>
        <time>2017-02-05T11:33:59Z</time>
      </trkpt>
      <trkpt lat="48.30998" lon="2.61417">
        <ele>223</ele>
        <time>2017-02-05T11:34:01Z</time>
      </trkpt>
      <trkpt lat="48.31002" lon="2.61425">
        <ele>223</ele>
        <time>2017-02-05T11:34:05Z</time>
      </trkpt>
      <trkpt lat="48.31006" lon="2.61433">
        <ele>224</ele>
        <time>2017-02-05T11:34:09Z</time>
      </trkpt>
      <trkpt lat="48.31009" lon="2.61438">
        <ele>224</ele>
        <time>2017-02-05T11:34:12Z</time>
      </trkpt>
      <trkpt lat="48.31012" lon="2.61443">
        <ele>225</ele>
        <time>2017-02-05T11:34:15Z</time>
      </trkpt>
      <trkpt lat="48.31016" lon="2.61453">
        <ele>225</ele>
        <time>2017-02-05T11:34:20Z</time>
      </trkpt>
      <trkpt lat="48.31018" lon="2.61456">
        <ele>226</ele>
        <time>2017-02-05T11:34:22Z</time>
      </trkpt>
      <trkpt lat="48.3102" lon="2.61458">
        <ele>226</ele>
        <time>2017-02-05T11:34:24Z</time>
      </trkpt>
      <trkpt lat="48.3102" lon="2.61459">
        <ele>227</ele>
        <time>2017-02-05T11:34:25Z</time>
      </trkpt>
      <trkpt lat="48.31024" lon="2.61465">
        <ele>227</ele>
        <time>2017-02-05T11:34:29Z</time>
      </trkpt>
      <trkpt lat="48.31027" lon="2.61469">
        <ele>228</ele>
        <time>2017-02-05T11:34:32Z</time>
      </trkpt>
      <trkpt lat="48.3103" lon="2.61473">
        <ele>228</ele>
        <time>2017-02-05T11:34:35Z</time>
      </trkpt>
      <trkpt lat="48.31033" lon="2.61476">
        <ele>229</ele>
        <time>2017-02-05T11:34:38Z</time>
      </trkpt>
      <trkpt lat="48.31035" lon="2.61478">
        <ele>229</ele>
        <time>2017-02-05T11:34:40Z</time>
      </trkpt>
      <trkpt lat="48.31035" lon="2.61478">
        <ele>229</ele>
        <time>2017-02-05T11:34:41Z</time>
      </trkpt>
      <trkpt lat="48.31042" lon="2.61489">
        <ele>230</ele>
        <time>2017-02-05T11:34:47Z</time>
      </trkpt>
      <trkpt lat="48.31048" lon="2.61501">
        <ele>231</ele>
        <time>2017-02-05T11:34:54Z</time>
      </trkpt>
      <trkpt lat="48.31054" lon="2.61513">
        <ele>232</ele>
        <time>2017-02-05T11:35:01Z</time>
      </trkpt>
      <trkpt lat="48.31057" lon="2.61519">
        <ele>232</ele>
        <time>2017-02-05T11:35:04Z</time>
      </trkpt>
      <trkpt lat="48.31058" lon="2.61521">
        <ele>232</ele>
        <time>2017-02-05T11:35:05Z</time>
      </trkpt>
      <trkpt lat="48.31062" lon="2.61526">
        <ele>232</ele>
        <time>2017-02-05T11:35:08Z</time>
      </trkpt>
      <trkpt lat="48.31064" lon="2.61541">
        <ele>233</ele>
        <time>2017-02-05T11:35:14Z</time>
      </trkpt>
      <trkpt lat="48.31062" lon="2.61553">
        <ele>233</ele>
        <time>2017-02-05T11:35:20Z</time>
      </trkpt>
      <trkpt lat="48.31061" lon="2.61557">
        <ele>234</ele>
        <time>2017-02-05T11:35:22Z</time>
      </trkpt>
      <trkpt lat="48.3106" lon="2.61578">
        <ele>234</ele>
        <time>2017-02-05T11:35:29Z</time>
      </trkpt>
      <trkpt lat="48.31062" lon="2.61582">
        <ele>234</ele>
        <time>2017-02-05T11:35:31Z</time>
      </trkpt>
      <trkpt lat="48.31064" lon="2.61589">
        <ele>234</ele>
        <time>2017-02-05T11:35:34Z</time>
      </trkpt>
      <trkpt lat="48.31065" lon="2.61595">
        <ele>234</ele>
        <time>2017-02-05T11:35:36Z</time>
      </trkpt>
      <trkpt lat="48.31062" lon="2.61601">
        <ele>234</ele>
        <time>2017-02-05T11:35:38Z</time>
      </trkpt>
      <trkpt lat="48.3106" lon="2.61603">
        <ele>235</ele>
        <time>2017-02-05T11:35:39Z</time>
      </trkpt>
      <trkpt lat="48.31056" lon="2.61611">
        <ele>234</ele>
        <time>2017-02-05T11:35:44Z</time>
      </trkpt>
      <trkpt lat="48.31055" lon="2.61612">
        <ele>234</ele>
        <time>2017-02-05T11:36:33Z</time>
      </trkpt>
      <trkpt lat="48.31055" lon="2.61612">
        <ele>234</ele>
        <time>2017-02-05T11:37:07Z</time>
      </trkpt>
      <trkpt lat="48.31055" lon="2.61612">
        <ele>234</ele>
        <time>2017-02-05T11:37:46Z</time>
      </trkpt>
      <trkpt lat="48.31055" lon="2.61612">
        <ele>233</ele>
        <time>2017-02-05T11:38:33Z</time>
      </trkpt>
      <trkpt lat="48.31055" lon="2.61612">
        <ele>233</ele>
        <time>2017-02-05T11:39:07Z</time>
      </trkpt>
      <trkpt lat="48.31055" lon="2.61612">
        <ele>233</ele>
        <time>2017-02-05T11:39:48Z</time>
      </trkpt>
      <trkpt lat="48.31055" lon="2.61613">
        <ele>233</ele>
        <time>2017-02-05T11:40:40Z</time>
      </trkpt>
      <trkpt lat="48.31056" lon="2.61614">
        <ele>233</ele>
        <time>2017-02-05T11:41:09Z</time>
      </trkpt>
      <trkpt lat="48.31056" lon="2.61614">
        <ele>233</ele>
        <time>2017-02-05T11:41:47Z</time>
      </trkpt>
      <trkpt lat="48.31056" lon="2.61614">
        <ele>233</ele>
        <time>2017-02-05T11:42:29Z</time>
      </trkpt>
      <trkpt lat="48.31056" lon="2.61614">
        <ele>234</ele>
        <time>2017-02-05T11:42:35Z</time>
      </trkpt>
      <trkpt lat="48.31054" lon="2.61615">
        <ele>234</ele>
        <time>2017-02-05T11:42:36Z</time>
      </trkpt>
      <trkpt lat="48.31049" lon="2.61607">
        <ele>234</ele>
        <time>2017-02-05T11:42:40Z</time>
      </trkpt>
      <trkpt lat="48.31042" lon="2.61601">
        <ele>234</ele>
        <time>2017-02-05T11:42:43Z</time>
      </trkpt>
      <trkpt lat="48.31038" lon="2.61598">
        <ele>234</ele>
        <time>2017-02-05T11:42:45Z</time>
      </trkpt>
      <trkpt lat="48.31031" lon="2.61594">
        <ele>234</ele>
        <time>2017-02-05T11:42:48Z</time>
      </trkpt>
      <trkpt lat="48.31025" lon="2.61591">
        <ele>234</ele>
        <time>2017-02-05T11:42:50Z</time>
      </trkpt>
      <trkpt lat="48.31009" lon="2.61582">
        <ele>234</ele>
        <time>2017-02-05T11:42:56Z</time>
      </trkpt>
      <trkpt lat="48.30995" lon="2.61572">
        <ele>234</ele>
        <time>2017-02-05T11:43:01Z</time>
      </trkpt>
      <trkpt lat="48.3098" lon="2.61565">
        <ele>234</ele>
        <time>2017-02-05T11:43:06Z</time>
      </trkpt>
      <trkpt lat="48.3096" lon="2.61562">
        <ele>234</ele>
        <time>2017-02-05T11:43:12Z</time>
      </trkpt>
      <trkpt lat="48.3094" lon="2.61567">
        <ele>233</ele>
        <time>2017-02-05T11:43:18Z</time>
      </trkpt>
      <trkpt lat="48.30936" lon="2.61567">
        <ele>233</ele>
        <time>2017-02-05T11:43:19Z</time>
      </trkpt>
      <trkpt lat="48.30909" lon="2.61575">
        <ele>232</ele>
        <time>2017-02-05T11:43:27Z</time>
      </trkpt>
      <trkpt lat="48.30888" lon="2.61577">
        <ele>232</ele>
        <time>2017-02-05T11:43:32Z</time>
      </trkpt>
      <trkpt lat="48.30883" lon="2.61576">
        <ele>232</ele>
        <time>2017-02-05T11:43:33Z</time>
      </trkpt>
      <trkpt lat="48.30873" lon="2.61574">
        <ele>231</ele>
        <time>2017-02-05T11:43:35Z</time>
      </trkpt>
      <trkpt lat="48.30858" lon="2.61574">
        <ele>231</ele>
        <time>2017-02-05T11:43:38Z</time>
      </trkpt>
      <trkpt lat="48.30832" lon="2.6158">
        <ele>230</ele>
        <time>2017-02-05T11:43:44Z</time>
      </trkpt>
      <trkpt lat="48.30808" lon="2.61589">
        <ele>230</ele>
        <time>2017-02-05T11:43:50Z</time>
      </trkpt>
      <trkpt lat="48.30808" lon="2.61604">
        <ele>230</ele>
        <time>2017-02-05T11:43:54Z</time>
      </trkpt>
      <trkpt lat="48.30805" lon="2.61631">
        <ele>230</ele>
        <time>2017-02-05T11:43:59Z</time>
      </trkpt>
      <trkpt lat="48.30804" lon="2.61655">
        <ele>230</ele>
        <time>2017-02-05T11:44:03Z</time>
      </trkpt>
      <trkpt lat="48.30803" lon="2.61662">
        <ele>230</ele>
        <time>2017-02-05T11:44:04Z</time>
      </trkpt>
      <trkpt lat="48.30802" lon="2.61686">
        <ele>230</ele>
        <time>2017-02-05T11:44:08Z</time>
      </trkpt>
      <trkpt lat="48.30802" lon="2.61692">
        <ele>230</ele>
        <time>2017-02-05T11:44:09Z</time>
      </trkpt>
      <trkpt lat="48.30805" lon="2.61718">
        <ele>230</ele>
        <time>2017-02-05T11:44:13Z</time>
      </trkpt>
      <trkpt lat="48.30807" lon="2.61735">
        <ele>230</ele>
        <time>2017-02-05T11:44:16Z</time>
      </trkpt>
      <trkpt lat="48.30809" lon="2.6174">
        <ele>230</ele>
        <time>2017-02-05T11:44:17Z</time>
      </trkpt>
      <trkpt lat="48.30821" lon="2.61757">
        <ele>230</ele>
        <time>2017-02-05T11:44:21Z</time>
      </trkpt>
      <trkpt lat="48.30834" lon="2.61782">
        <ele>230</ele>
        <time>2017-02-05T11:44:27Z</time>
      </trkpt>
      <trkpt lat="48.30841" lon="2.618">
        <ele>229</ele>
        <time>2017-02-05T11:44:31Z</time>
      </trkpt>
      <trkpt lat="48.30844" lon="2.61805">
        <ele>228</ele>
        <time>2017-02-05T11:44:32Z</time>
      </trkpt>
      <trkpt lat="48.3085" lon="2.6182">
        <ele>227</ele>
        <time>2017-02-05T11:44:34Z</time>
      </trkpt>
      <trkpt lat="48.30854" lon="2.61826">
        <ele>227</ele>
        <time>2017-02-05T11:44:35Z</time>
      </trkpt>
      <trkpt lat="48.3086" lon="2.6184">
        <ele>226</ele>
        <time>2017-02-05T11:44:37Z</time>
      </trkpt>
      <trkpt lat="48.30861" lon="2.61845">
        <ele>225</ele>
        <time>2017-02-05T11:44:38Z</time>
      </trkpt>
      <trkpt lat="48.30866" lon="2.61854">
        <ele>225</ele>
        <time>2017-02-05T11:44:40Z</time>
      </trkpt>
      <trkpt lat="48.30869" lon="2.61859">
        <ele>225</ele>
        <time>2017-02-05T11:44:41Z</time>
      </trkpt>
      <trkpt lat="48.30872" lon="2.61863">
        <ele>224</ele>
        <time>2017-02-05T11:44:42Z</time>
      </trkpt>
      <trkpt lat="48.30874" lon="2.61868">
        <ele>224</ele>
        <time>2017-02-05T11:44:43Z</time>
      </trkpt>
      <trkpt lat="48.3088" lon="2.61879">
        <ele>222</ele>
        <time>2017-02-05T11:44:45Z</time>
      </trkpt>
      <trkpt lat="48.30885" lon="2.61893">
        <ele>221</ele>
        <time>2017-02-05T11:44:47Z</time>
      </trkpt>
      <trkpt lat="48.30888" lon="2.61901">
        <ele>219</ele>
        <time>2017-02-05T11:44:48Z</time>
      </trkpt>
      <trkpt lat="48.3089" lon="2.6191">
        <ele>218</ele>
        <time>2017-02-05T11:44:49Z</time>
      </trkpt>
      <trkpt lat="48.30892" lon="2.61918">
        <ele>217</ele>
        <time>2017-02-05T11:44:50Z</time>
      </trkpt>
      <trkpt lat="48.30894" lon="2.61927">
        <ele>216</ele>
        <time>2017-02-05T11:44:51Z</time>
      </trkpt>
      <trkpt lat="48.30897" lon="2.61936">
        <ele>215</ele>
        <time>2017-02-05T11:44:52Z</time>
      </trkpt>
      <trkpt lat="48.309" lon="2.61946">
        <ele>214</ele>
        <time>2017-02-05T11:44:53Z</time>
      </trkpt>
      <trkpt lat="48.30905" lon="2.61969">
        <ele>213</ele>
        <time>2017-02-05T11:44:55Z</time>
      </trkpt>
      <trkpt lat="48.3091" lon="2.62004">
        <ele>212</ele>
        <time>2017-02-05T11:44:58Z</time>
      </trkpt>
      <trkpt lat="48.30913" lon="2.62016">
        <ele>212</ele>
        <time>2017-02-05T11:44:59Z</time>
      </trkpt>
      <trkpt lat="48.3092" lon="2.62037">
        <ele>211</ele>
        <time>2017-02-05T11:45:01Z</time>
      </trkpt>
      <trkpt lat="48.30933" lon="2.62053">
        <ele>211</ele>
        <time>2017-02-05T11:45:04Z</time>
      </trkpt>
      <trkpt lat="48.30937" lon="2.62056">
        <ele>210</ele>
        <time>2017-02-05T11:45:05Z</time>
      </trkpt>
      <trkpt lat="48.30943" lon="2.62062">
        <ele>209</ele>
        <time>2017-02-05T11:45:07Z</time>
      </trkpt>
      <trkpt lat="48.30945" lon="2.62065">
        <ele>208</ele>
        <time>2017-02-05T11:45:08Z</time>
      </trkpt>
      <trkpt lat="48.30948" lon="2.62069">
        <ele>208</ele>
        <time>2017-02-05T11:45:09Z</time>
      </trkpt>
      <trkpt lat="48.30953" lon="2.62079">
        <ele>207</ele>
        <time>2017-02-05T11:45:11Z</time>
      </trkpt>
      <trkpt lat="48.30955" lon="2.62085">
        <ele>206</ele>
        <time>2017-02-05T11:45:12Z</time>
      </trkpt>
      <trkpt lat="48.30958" lon="2.621">
        <ele>206</ele>
        <time>2017-02-05T11:45:14Z</time>
      </trkpt>
      <trkpt lat="48.30959" lon="2.62118">
        <ele>205</ele>
        <time>2017-02-05T11:45:16Z</time>
      </trkpt>
      <trkpt lat="48.30961" lon="2.62128">
        <ele>205</ele>
        <time>2017-02-05T11:45:17Z</time>
      </trkpt>
      <trkpt lat="48.30965" lon="2.62146">
        <ele>204</ele>
        <time>2017-02-05T11:45:19Z</time>
      </trkpt>
      <trkpt lat="48.30969" lon="2.62156">
        <ele>204</ele>
        <time>2017-02-05T11:45:20Z</time>
      </trkpt>
      <trkpt lat="48.30984" lon="2.62193">
        <ele>203</ele>
        <time>2017-02-05T11:45:24Z</time>
      </trkpt>
      <trkpt lat="48.3099" lon="2.62204">
        <ele>203</ele>
        <time>2017-02-05T11:45:25Z</time>
      </trkpt>
      <trkpt lat="48.30995" lon="2.62215">
        <ele>202</ele>
        <time>2017-02-05T11:45:26Z</time>
      </trkpt>
      <trkpt lat="48.31001" lon="2.62239">
        <ele>201</ele>
        <time>2017-02-05T11:45:28Z</time>
      </trkpt>
      <trkpt lat="48.31005" lon="2.62251">
        <ele>201</ele>
        <time>2017-02-05T11:45:29Z</time>
      </trkpt>
      <trkpt lat="48.3101" lon="2.62276">
        <ele>200</ele>
        <time>2017-02-05T11:45:31Z</time>
      </trkpt>
      <trkpt lat="48.31019" lon="2.62308">
        <ele>199</ele>
        <time>2017-02-05T11:45:34Z</time>
      </trkpt>
      <trkpt lat="48.31022" lon="2.62319">
        <ele>199</ele>
        <time>2017-02-05T11:45:35Z</time>
      </trkpt>
      <trkpt lat="48.31025" lon="2.62331">
        <ele>198</ele>
        <time>2017-02-05T11:45:36Z</time>
      </trkpt>
      <trkpt lat="48.31034" lon="2.62368">
        <ele>197</ele>
        <time>2017-02-05T11:45:39Z</time>
      </trkpt>
      <trkpt lat="48.31036" lon="2.62381">
        <ele>197</ele>
        <time>2017-02-05T11:45:40Z</time>
      </trkpt>
      <trkpt lat="48.31042" lon="2.62421">
        <ele>196</ele>
        <time>2017-02-05T11:45:43Z</time>
      </trkpt>
      <trkpt lat="48.31046" lon="2.62443">
        <ele>195</ele>
        <time>2017-02-05T11:45:45Z</time>
      </trkpt>
      <trkpt lat="48.31048" lon="2.62453">
        <ele>195</ele>
        <time>2017-02-05T11:45:46Z</time>
      </trkpt>
      <trkpt lat="48.31051" lon="2.62461">
        <ele>194</ele>
        <time>2017-02-05T11:45:47Z</time>
      </trkpt>
      <trkpt lat="48.31057" lon="2.62468">
        <ele>194</ele>
        <time>2017-02-05T11:45:48Z</time>
      </trkpt>
      <trkpt lat="48.31073" lon="2.62476">
        <ele>193</ele>
        <time>2017-02-05T11:45:51Z</time>
      </trkpt>
      <trkpt lat="48.31081" lon="2.62463">
        <ele>193</ele>
        <time>2017-02-05T11:45:54Z</time>
      </trkpt>
      <trkpt lat="48.31082" lon="2.62454">
        <ele>193</ele>
        <time>2017-02-05T11:45:56Z</time>
      </trkpt>
      <trkpt lat="48.31085" lon="2.62432">
        <ele>193</ele>
        <time>2017-02-05T11:46:00Z</time>
      </trkpt>
      <trkpt lat="48.3109" lon="2.6241">
        <ele>194</ele>
        <time>2017-02-05T11:46:04Z</time>
      </trkpt>
      <trkpt lat="48.31096" lon="2.62393">
        <ele>194</ele>
        <time>2017-02-05T11:46:07Z</time>
      </trkpt>
      <trkpt lat="48.31105" lon="2.62364">
        <ele>194</ele>
        <time>2017-02-05T11:46:12Z</time>
      </trkpt>
      <trkpt lat="48.31109" lon="2.62353">
        <ele>195</ele>
        <time>2017-02-05T11:46:14Z</time>
      </trkpt>
      <trkpt lat="48.31122" lon="2.62324">
        <ele>195</ele>
        <time>2017-02-05T11:46:20Z</time>
      </trkpt>
      <trkpt lat="48.31128" lon="2.62314">
        <ele>195</ele>
        <time>2017-02-05T11:46:23Z</time>
      </trkpt>
      <trkpt lat="48.31134" lon="2.62303">
        <ele>195</ele>
        <time>2017-02-05T11:46:26Z</time>
      </trkpt>
      <trkpt lat="48.31148" lon="2.6227">
        <ele>196</ele>
        <time>2017-02-05T11:46:32Z</time>
      </trkpt>
      <trkpt lat="48.3116" lon="2.62245">
        <ele>196</ele>
        <time>2017-02-05T11:46:38Z</time>
      </trkpt>
      <trkpt lat="48.31162" lon="2.62242">
        <ele>196</ele>
        <time>2017-02-05T11:46:39Z</time>
      </trkpt>
      <trkpt lat="48.31172" lon="2.62228">
        <ele>197</ele>
        <time>2017-02-05T11:46:44Z</time>
      </trkpt>
      <trkpt lat="48.31181" lon="2.62218">
        <ele>198</ele>
        <time>2017-02-05T11:46:48Z</time>
      </trkpt>
      <trkpt lat="48.31185" lon="2.62214">
        <ele>198</ele>
        <time>2017-02-05T11:46:50Z</time>
      </trkpt>
      <trkpt lat="48.31192" lon="2.62201">
        <ele>199</ele>
        <time>2017-02-05T11:46:54Z</time>
      </trkpt>
      <trkpt lat="48.31197" lon="2.62194">
        <ele>199</ele>
        <time>2017-02-05T11:46:56Z</time>
      </trkpt>
      <trkpt lat="48.31205" lon="2.62167">
        <ele>199</ele>
        <time>2017-02-05T11:47:02Z</time>
      </trkpt>
      <trkpt lat="48.3121" lon="2.62148">
        <ele>200</ele>
        <time>2017-02-05T11:47:06Z</time>
      </trkpt>
      <trkpt lat="48.31212" lon="2.62135">
        <ele>200</ele>
        <time>2017-02-05T11:47:09Z</time>
      </trkpt>
      <trkpt lat="48.31213" lon="2.62106">
        <ele>201</ele>
        <time>2017-02-05T11:47:16Z</time>
      </trkpt>
      <trkpt lat="48.31214" lon="2.62086">
        <ele>201</ele>
        <time>2017-02-05T11:47:21Z</time>
      </trkpt>
      <trkpt lat="48.31214" lon="2.62069">
        <ele>201</ele>
        <time>2017-02-05T11:47:26Z</time>
      </trkpt>
      <trkpt lat="48.31213" lon="2.62059">
        <ele>202</ele>
        <time>2017-02-05T11:47:29Z</time>
      </trkpt>
      <trkpt lat="48.31211" lon="2.62044">
        <ele>202</ele>
        <time>2017-02-05T11:47:33Z</time>
      </trkpt>
      <trkpt lat="48.31206" lon="2.62015">
        <ele>203</ele>
        <time>2017-02-05T11:47:40Z</time>
      </trkpt>
      <trkpt lat="48.31204" lon="2.62009">
        <ele>203</ele>
        <time>2017-02-05T11:47:42Z</time>
      </trkpt>
      <trkpt lat="48.31199" lon="2.62001">
        <ele>203</ele>
        <time>2017-02-05T11:47:46Z</time>
      </trkpt>
      <trkpt lat="48.31192" lon="2.61988">
        <ele>204</ele>
        <time>2017-02-05T11:47:53Z</time>
      </trkpt>
      <trkpt lat="48.31191" lon="2.6198">
        <ele>204</ele>
        <time>2017-02-05T11:47:55Z</time>
      </trkpt>
      <trkpt lat="48.3119" lon="2.61964">
        <ele>205</ele>
        <time>2017-02-05T11:47:59Z</time>
      </trkpt>
      <trkpt lat="48.31188" lon="2.61951">
        <ele>205</ele>
        <time>2017-02-05T11:48:03Z</time>
      </trkpt>
      <trkpt lat="48.31186" lon="2.61944">
        <ele>205</ele>
        <time>2017-02-05T11:48:06Z</time>
      </trkpt>
      <trkpt lat="48.31183" lon="2.61933">
        <ele>205</ele>
        <time>2017-02-05T11:48:12Z</time>
      </trkpt>
      <trkpt lat="48.31182" lon="2.61918">
        <ele>206</ele>
        <time>2017-02-05T11:48:17Z</time>
      </trkpt>
      <trkpt lat="48.31182" lon="2.61915">
        <ele>206</ele>
        <time>2017-02-05T11:48:18Z</time>
      </trkpt>
      <trkpt lat="48.31181" lon="2.61912">
        <ele>206</ele>
        <time>2017-02-05T11:48:19Z</time>
      </trkpt>
      <trkpt lat="48.3118" lon="2.61896">
        <ele>207</ele>
        <time>2017-02-05T11:48:25Z</time>
      </trkpt>
      <trkpt lat="48.3118" lon="2.61894">
        <ele>207</ele>
        <time>2017-02-05T11:48:26Z</time>
      </trkpt>
      <trkpt lat="48.31181" lon="2.61884">
        <ele>208</ele>
        <time>2017-02-05T11:48:31Z</time>
      </trkpt>
      <trkpt lat="48.31181" lon="2.61882">
        <ele>208</ele>
        <time>2017-02-05T11:48:32Z</time>
      </trkpt>
      <trkpt lat="48.31182" lon="2.61875">
        <ele>208</ele>
        <time>2017-02-05T11:48:35Z</time>
      </trkpt>
      <trkpt lat="48.31183" lon="2.61868">
        <ele>209</ele>
        <time>2017-02-05T11:48:39Z</time>
      </trkpt>
      <trkpt lat="48.31184" lon="2.61863">
        <ele>209</ele>
        <time>2017-02-05T11:48:45Z</time>
      </trkpt>
      <trkpt lat="48.31184" lon="2.61861">
        <ele>209</ele>
        <time>2017-02-05T11:48:46Z</time>
      </trkpt>
      <trkpt lat="48.31183" lon="2.61858">
        <ele>210</ele>
        <time>2017-02-05T11:48:52Z</time>
      </trkpt>
      <trkpt lat="48.31184" lon="2.61855">
        <ele>210</ele>
        <time>2017-02-05T11:49:01Z</time>
      </trkpt>
      <trkpt lat="48.31185" lon="2.61852">
        <ele>210</ele>
        <time>2017-02-05T11:49:03Z</time>
      </trkpt>
      <trkpt lat="48.31187" lon="2.61846">
        <ele>211</ele>
        <time>2017-02-05T11:49:07Z</time>
      </trkpt>
      <trkpt lat="48.31191" lon="2.61832">
        <ele>211</ele>
        <time>2017-02-05T11:49:12Z</time>
      </trkpt>
      <trkpt lat="48.31192" lon="2.61829">
        <ele>211</ele>
        <time>2017-02-05T11:49:13Z</time>
      </trkpt>
      <trkpt lat="48.31196" lon="2.6182">
        <ele>212</ele>
        <time>2017-02-05T11:49:20Z</time>
      </trkpt>
      <trkpt lat="48.31198" lon="2.61815">
        <ele>212</ele>
        <time>2017-02-05T11:49:23Z</time>
      </trkpt>
      <trkpt lat="48.31198" lon="2.61813">
        <ele>212</ele>
        <time>2017-02-05T11:49:26Z</time>
      </trkpt>
      <trkpt lat="48.312" lon="2.61806">
        <ele>213</ele>
        <time>2017-02-05T11:49:33Z</time>
      </trkpt>
      <trkpt lat="48.312" lon="2.61805">
        <ele>213</ele>
        <time>2017-02-05T11:49:39Z</time>
      </trkpt>
      <trkpt lat="48.31201" lon="2.61803">
        <ele>213</ele>
        <time>2017-02-05T11:49:40Z</time>
      </trkpt>
      <trkpt lat="48.31203" lon="2.618">
        <ele>214</ele>
        <time>2017-02-05T11:49:45Z</time>
      </trkpt>
      <trkpt lat="48.31206" lon="2.61796">
        <ele>214</ele>
        <time>2017-02-05T11:49:48Z</time>
      </trkpt>
      <trkpt lat="48.31208" lon="2.61791">
        <ele>215</ele>
        <time>2017-02-05T11:49:53Z</time>
      </trkpt>
      <trkpt lat="48.31209" lon="2.6179">
        <ele>216</ele>
        <time>2017-02-05T11:49:54Z</time>
      </trkpt>
      <trkpt lat="48.31211" lon="2.61785">
        <ele>216</ele>
        <time>2017-02-05T11:49:58Z</time>
      </trkpt>
      <trkpt lat="48.31213" lon="2.61779">
        <ele>217</ele>
        <time>2017-02-05T11:50:00Z</time>
      </trkpt>
      <trkpt lat="48.31213" lon="2.61772">
        <ele>217</ele>
        <time>2017-02-05T11:50:04Z</time>
      </trkpt>
      <trkpt lat="48.31214" lon="2.61768">
        <ele>218</ele>
        <time>2017-02-05T11:50:05Z</time>
      </trkpt>
      <trkpt lat="48.31214" lon="2.61764">
        <ele>218</ele>
        <time>2017-02-05T11:50:07Z</time>
      </trkpt>
      <trkpt lat="48.31216" lon="2.61758">
        <ele>219</ele>
        <time>2017-02-05T11:50:11Z</time>
      </trkpt>
      <trkpt lat="48.31219" lon="2.61748">
        <ele>220</ele>
        <time>2017-02-05T11:50:17Z</time>
      </trkpt>
      <trkpt lat="48.3122" lon="2.61746">
        <ele>220</ele>
        <time>2017-02-05T11:50:19Z</time>
      </trkpt>
      <trkpt lat="48.31221" lon="2.61735">
        <ele>221</ele>
        <time>2017-02-05T11:50:24Z</time>
      </trkpt>
      <trkpt lat="48.31221" lon="2.61736">
        <ele>221</ele>
        <time>2017-02-05T11:50:25Z</time>
      </trkpt>
      <trkpt lat="48.31221" lon="2.61732">
        <ele>221</ele>
        <time>2017-02-05T11:50:26Z</time>
      </trkpt>
      <trkpt lat="48.31218" lon="2.61721">
        <ele>222</ele>
        <time>2017-02-05T11:50:33Z</time>
      </trkpt>
      <trkpt lat="48.31217" lon="2.61719">
        <ele>222</ele>
        <time>2017-02-05T11:50:34Z</time>
      </trkpt>
      <trkpt lat="48.31216" lon="2.61708">
        <ele>223</ele>
        <time>2017-02-05T11:50:40Z</time>
      </trkpt>
      <trkpt lat="48.31216" lon="2.61709">
        <ele>223</ele>
        <time>2017-02-05T11:50:41Z</time>
      </trkpt>
      <trkpt lat="48.31216" lon="2.617">
        <ele>224</ele>
        <time>2017-02-05T11:50:46Z</time>
      </trkpt>
      <trkpt lat="48.31216" lon="2.61698">
        <ele>224</ele>
        <time>2017-02-05T11:50:47Z</time>
      </trkpt>
      <trkpt lat="48.31216" lon="2.61691">
        <ele>225</ele>
        <time>2017-02-05T11:50:51Z</time>
      </trkpt>
      <trkpt lat="48.31216" lon="2.61689">
        <ele>225</ele>
        <time>2017-02-05T11:50:52Z</time>
      </trkpt>
      <trkpt lat="48.31216" lon="2.61689">
        <ele>225</ele>
        <time>2017-02-05T11:50:53Z</time>
      </trkpt>
      <trkpt lat="48.31216" lon="2.61688">
        <ele>225</ele>
        <time>2017-02-05T11:50:59Z</time>
      </trkpt>
      <trkpt lat="48.31218" lon="2.61684">
        <ele>227</ele>
        <time>2017-02-05T11:51:19Z</time>
      </trkpt>
      <trkpt lat="48.31219" lon="2.6168">
        <ele>227</ele>
        <time>2017-02-05T11:51:20Z</time>
      </trkpt>
      <trkpt lat="48.31225" lon="2.61668">
        <ele>228</ele>
        <time>2017-02-05T11:51:25Z</time>
      </trkpt>
      <trkpt lat="48.31226" lon="2.61666">
        <ele>228</ele>
        <time>2017-02-05T11:51:26Z</time>
      </trkpt>
      <trkpt lat="48.3123" lon="2.6166">
        <ele>229</ele>
        <time>2017-02-05T11:51:31Z</time>
      </trkpt>
      <trkpt lat="48.31231" lon="2.61659">
        <ele>229</ele>
        <time>2017-02-05T11:51:32Z</time>
      </trkpt>
      <trkpt lat="48.31235" lon="2.61657">
        <ele>230</ele>
        <time>2017-02-05T11:51:36Z</time>
      </trkpt>
      <trkpt lat="48.31236" lon="2.61656">
        <ele>230</ele>
        <time>2017-02-05T11:51:37Z</time>
      </trkpt>
      <trkpt lat="48.31238" lon="2.61654">
        <ele>230</ele>
        <time>2017-02-05T11:51:39Z</time>
      </trkpt>
      <trkpt lat="48.3124" lon="2.61651">
        <ele>231</ele>
        <time>2017-02-05T11:51:41Z</time>
      </trkpt>
      <trkpt lat="48.31241" lon="2.61649">
        <ele>231</ele>
        <time>2017-02-05T11:51:42Z</time>
      </trkpt>
      <trkpt lat="48.31245" lon="2.61649">
        <ele>231</ele>
        <time>2017-02-05T11:51:45Z</time>
      </trkpt>
      <trkpt lat="48.3125" lon="2.61653">
        <ele>231</ele>
        <time>2017-02-05T11:51:49Z</time>
      </trkpt>
      <trkpt lat="48.31252" lon="2.61654">
        <ele>231</ele>
        <time>2017-02-05T11:51:51Z</time>
      </trkpt>
      <trkpt lat="48.31256" lon="2.61655">
        <ele>232</ele>
        <time>2017-02-05T11:51:55Z</time>
      </trkpt>
      <trkpt lat="48.31257" lon="2.61657">
        <ele>232</ele>
        <time>2017-02-05T11:52:01Z</time>
      </trkpt>
      <trkpt lat="48.31257" lon="2.61657">
        <ele>231</ele>
        <time>2017-02-05T11:52:31Z</time>
      </trkpt>
      <trkpt lat="48.31258" lon="2.61657">
        <ele>231</ele>
        <time>2017-02-05T11:52:47Z</time>
      </trkpt>
      <trkpt lat="48.31262" lon="2.61658">
        <ele>231</ele>
        <time>2017-02-05T11:52:49Z</time>
      </trkpt>
      <trkpt lat="48.31278" lon="2.61666">
        <ele>232</ele>
        <time>2017-02-05T11:52:56Z</time>
      </trkpt>
      <trkpt lat="48.31297" lon="2.61676">
        <ele>232</ele>
        <time>2017-02-05T11:53:04Z</time>
      </trkpt>
      <trkpt lat="48.31314" lon="2.61689">
        <ele>233</ele>
        <time>2017-02-05T11:53:12Z</time>
      </trkpt>
      <trkpt lat="48.31318" lon="2.61692">
        <ele>233</ele>
        <time>2017-02-05T11:53:14Z</time>
      </trkpt>
      <trkpt lat="48.31328" lon="2.61704">
        <ele>234</ele>
        <time>2017-02-05T11:53:19Z</time>
      </trkpt>
      <trkpt lat="48.3134" lon="2.61715">
        <ele>234</ele>
        <time>2017-02-05T11:53:25Z</time>
      </trkpt>
      <trkpt lat="48.3135" lon="2.61727">
        <ele>234</ele>
        <time>2017-02-05T11:53:29Z</time>
      </trkpt>
      <trkpt lat="48.31368" lon="2.61738">
        <ele>234</ele>
        <time>2017-02-05T11:53:34Z</time>
      </trkpt>
      <trkpt lat="48.31372" lon="2.61739">
        <ele>234</ele>
        <time>2017-02-05T11:53:35Z</time>
      </trkpt>
      <trkpt lat="48.31389" lon="2.61748">
        <ele>234</ele>
        <time>2017-02-05T11:53:39Z</time>
      </trkpt>
      <trkpt lat="48.31405" lon="2.61775">
        <ele>234</ele>
        <time>2017-02-05T11:53:45Z</time>
      </trkpt>
      <trkpt lat="48.31427" lon="2.61801">
        <ele>234</ele>
        <time>2017-02-05T11:53:52Z</time>
      </trkpt>
      <trkpt lat="48.31449" lon="2.61821">
        <ele>235</ele>
        <time>2017-02-05T11:53:59Z</time>
      </trkpt>
      <trkpt lat="48.31468" lon="2.61836">
        <ele>236</ele>
        <time>2017-02-05T11:54:05Z</time>
      </trkpt>
      <trkpt lat="48.3148" lon="2.61847">
        <ele>236</ele>
        <time>2017-02-05T11:54:10Z</time>
      </trkpt>
      <trkpt lat="48.31487" lon="2.61855">
        <ele>237</ele>
        <time>2017-02-05T11:54:13Z</time>
      </trkpt>
      <trkpt lat="48.31499" lon="2.6187">
        <ele>237</ele>
        <time>2017-02-05T11:54:18Z</time>
      </trkpt>
      <trkpt lat="48.315" lon="2.61874">
        <ele>237</ele>
        <time>2017-02-05T11:54:19Z</time>
      </trkpt>
      <trkpt lat="48.31501" lon="2.61887">
        <ele>237</ele>
        <time>2017-02-05T11:54:22Z</time>
      </trkpt>
      <trkpt lat="48.31501" lon="2.61892">
        <ele>238</ele>
        <time>2017-02-05T11:54:23Z</time>
      </trkpt>
      <trkpt lat="48.315" lon="2.61905">
        <ele>238</ele>
        <time>2017-02-05T11:54:26Z</time>
      </trkpt>
      <trkpt lat="48.315" lon="2.61909">
        <ele>238</ele>
        <time>2017-02-05T11:54:27Z</time>
      </trkpt>
      <trkpt lat="48.315" lon="2.61925">
        <ele>238</ele>
        <time>2017-02-05T11:54:30Z</time>
      </trkpt>
      <trkpt lat="48.31498" lon="2.61936">
        <ele>238</ele>
        <time>2017-02-05T11:54:32Z</time>
      </trkpt>
      <trkpt lat="48.31485" lon="2.6195">
        <ele>238</ele>
        <time>2017-02-05T11:54:36Z</time>
      </trkpt>
      <trkpt lat="48.31477" lon="2.61956">
        <ele>238</ele>
        <time>2017-02-05T11:54:38Z</time>
      </trkpt>
      <trkpt lat="48.31464" lon="2.61964">
        <ele>238</ele>
        <time>2017-02-05T11:54:41Z</time>
      </trkpt>
      <trkpt lat="48.31456" lon="2.61969">
        <ele>238</ele>
        <time>2017-02-05T11:54:43Z</time>
      </trkpt>
      <trkpt lat="48.31449" lon="2.61987">
        <ele>237</ele>
        <time>2017-02-05T11:54:46Z</time>
      </trkpt>
      <trkpt lat="48.31449" lon="2.61994">
        <ele>237</ele>
        <time>2017-02-05T11:54:47Z</time>
      </trkpt>
      <trkpt lat="48.31448" lon="2.62025">
        <ele>238</ele>
        <time>2017-02-05T11:54:52Z</time>
      </trkpt>
      <trkpt lat="48.31447" lon="2.62079">
        <ele>238</ele>
        <time>2017-02-05T11:54:59Z</time>
      </trkpt>
      <trkpt lat="48.31446" lon="2.62087">
        <ele>238</ele>
        <time>2017-02-05T11:55:00Z</time>
      </trkpt>
      <trkpt lat="48.31445" lon="2.62115">
        <ele>238</ele>
        <time>2017-02-05T11:55:04Z</time>
      </trkpt>
      <trkpt lat="48.31444" lon="2.62145">
        <ele>238</ele>
        <time>2017-02-05T11:55:08Z</time>
      </trkpt>
      <trkpt lat="48.31444" lon="2.62159">
        <ele>238</ele>
        <time>2017-02-05T11:55:10Z</time>
      </trkpt>
      <trkpt lat="48.31444" lon="2.6219">
        <ele>238</ele>
        <time>2017-02-05T11:55:14Z</time>
      </trkpt>
      <trkpt lat="48.31444" lon="2.622">
        <ele>238</ele>
        <time>2017-02-05T11:55:15Z</time>
      </trkpt>
      <trkpt lat="48.31447" lon="2.62253">
        <ele>238</ele>
        <time>2017-02-05T11:55:21Z</time>
      </trkpt>
      <trkpt lat="48.31451" lon="2.62303">
        <ele>238</ele>
        <time>2017-02-05T11:55:27Z</time>
      </trkpt>
      <trkpt lat="48.31452" lon="2.62318">
        <ele>238</ele>
        <time>2017-02-05T11:55:29Z</time>
      </trkpt>
      <trkpt lat="48.31453" lon="2.62339">
        <ele>238</ele>
        <time>2017-02-05T11:55:32Z</time>
      </trkpt>
      <trkpt lat="48.31449" lon="2.62348">
        <ele>238</ele>
        <time>2017-02-05T11:55:34Z</time>
      </trkpt>
      <trkpt lat="48.31446" lon="2.62352">
        <ele>237</ele>
        <time>2017-02-05T11:55:35Z</time>
      </trkpt>
      <trkpt lat="48.3144" lon="2.62362">
        <ele>237</ele>
        <time>2017-02-05T11:55:37Z</time>
      </trkpt>
      <trkpt lat="48.31436" lon="2.62375">
        <ele>236</ele>
        <time>2017-02-05T11:55:39Z</time>
      </trkpt>
      <trkpt lat="48.31433" lon="2.62383">
        <ele>235</ele>
        <time>2017-02-05T11:55:40Z</time>
      </trkpt>
      <trkpt lat="48.31428" lon="2.6239">
        <ele>235</ele>
        <time>2017-02-05T11:55:41Z</time>
      </trkpt>
      <trkpt lat="48.31423" lon="2.62395">
        <ele>235</ele>
        <time>2017-02-05T11:55:42Z</time>
      </trkpt>
      <trkpt lat="48.31408" lon="2.62403">
        <ele>234</ele>
        <time>2017-02-05T11:55:45Z</time>
      </trkpt>
      <trkpt lat="48.31399" lon="2.62407">
        <ele>234</ele>
        <time>2017-02-05T11:55:47Z</time>
      </trkpt>
      <trkpt lat="48.31383" lon="2.62416">
        <ele>233</ele>
        <time>2017-02-05T11:55:50Z</time>
      </trkpt>
      <trkpt lat="48.31378" lon="2.6242">
        <ele>232</ele>
        <time>2017-02-05T11:55:51Z</time>
      </trkpt>
      <trkpt lat="48.31372" lon="2.62424">
        <ele>232</ele>
        <time>2017-02-05T11:55:52Z</time>
      </trkpt>
      <trkpt lat="48.31366" lon="2.62427">
        <ele>230</ele>
        <time>2017-02-05T11:55:53Z</time>
      </trkpt>
      <trkpt lat="48.31361" lon="2.6243">
        <ele>229</ele>
        <time>2017-02-05T11:55:54Z</time>
      </trkpt>
      <trkpt lat="48.31358" lon="2.62435">
        <ele>228</ele>
        <time>2017-02-05T11:55:55Z</time>
      </trkpt>
      <trkpt lat="48.31357" lon="2.62442">
        <ele>227</ele>
        <time>2017-02-05T11:55:56Z</time>
      </trkpt>
      <trkpt lat="48.3136" lon="2.62456">
        <ele>225</ele>
        <time>2017-02-05T11:55:58Z</time>
      </trkpt>
      <trkpt lat="48.31362" lon="2.62465">
        <ele>224</ele>
        <time>2017-02-05T11:55:59Z</time>
      </trkpt>
      <trkpt lat="48.31364" lon="2.62474">
        <ele>224</ele>
        <time>2017-02-05T11:56:00Z</time>
      </trkpt>
      <trkpt lat="48.31367" lon="2.62479">
        <ele>223</ele>
        <time>2017-02-05T11:56:01Z</time>
      </trkpt>
      <trkpt lat="48.31371" lon="2.62484">
        <ele>222</ele>
        <time>2017-02-05T11:56:02Z</time>
      </trkpt>
      <trkpt lat="48.3138" lon="2.62487">
        <ele>221</ele>
        <time>2017-02-05T11:56:04Z</time>
      </trkpt>
      <trkpt lat="48.31389" lon="2.62486">
        <ele>220</ele>
        <time>2017-02-05T11:56:06Z</time>
      </trkpt>
      <trkpt lat="48.31395" lon="2.62489">
        <ele>218</ele>
        <time>2017-02-05T11:56:08Z</time>
      </trkpt>
      <trkpt lat="48.31397" lon="2.62496">
        <ele>217</ele>
        <time>2017-02-05T11:56:10Z</time>
      </trkpt>
      <trkpt lat="48.31398" lon="2.62502">
        <ele>217</ele>
        <time>2017-02-05T11:56:11Z</time>
      </trkpt>
      <trkpt lat="48.314" lon="2.62511">
        <ele>216</ele>
        <time>2017-02-05T11:56:13Z</time>
      </trkpt>
      <trkpt lat="48.314" lon="2.62523">
        <ele>214</ele>
        <time>2017-02-05T11:56:15Z</time>
      </trkpt>
      <trkpt lat="48.31399" lon="2.62528">
        <ele>213</ele>
        <time>2017-02-05T11:56:16Z</time>
      </trkpt>
      <trkpt lat="48.31397" lon="2.62531">
        <ele>212</ele>
        <time>2017-02-05T11:56:17Z</time>
      </trkpt>
      <trkpt lat="48.31394" lon="2.62535">
        <ele>210</ele>
        <time>2017-02-05T11:56:18Z</time>
      </trkpt>
      <trkpt lat="48.31391" lon="2.62537">
        <ele>209</ele>
        <time>2017-02-05T11:56:19Z</time>
      </trkpt>
      <trkpt lat="48.31385" lon="2.6254">
        <ele>209</ele>
        <time>2017-02-05T11:56:20Z</time>
      </trkpt>
      <trkpt lat="48.31379" lon="2.62543">
        <ele>209</ele>
        <time>2017-02-05T11:56:21Z</time>
      </trkpt>
      <trkpt lat="48.31372" lon="2.62546">
        <ele>209</ele>
        <time>2017-02-05T11:56:22Z</time>
      </trkpt>
      <trkpt lat="48.31357" lon="2.62547">
        <ele>208</ele>
        <time>2017-02-05T11:56:24Z</time>
      </trkpt>
      <trkpt lat="48.3135" lon="2.62548">
        <ele>206</ele>
        <time>2017-02-05T11:56:25Z</time>
      </trkpt>
      <trkpt lat="48.31337" lon="2.6255">
        <ele>206</ele>
        <time>2017-02-05T11:56:27Z</time>
      </trkpt>
      <trkpt lat="48.3133" lon="2.62551">
        <ele>205</ele>
        <time>2017-02-05T11:56:28Z</time>
      </trkpt>
      <trkpt lat="48.31323" lon="2.62554">
        <ele>205</ele>
        <time>2017-02-05T11:56:29Z</time>
      </trkpt>
      <trkpt lat="48.31309" lon="2.6256">
        <ele>204</ele>
        <time>2017-02-05T11:56:31Z</time>
      </trkpt>
      <trkpt lat="48.31302" lon="2.62562">
        <ele>203</ele>
        <time>2017-02-05T11:56:32Z</time>
      </trkpt>
      <trkpt lat="48.31295" lon="2.62564">
        <ele>202</ele>
        <time>2017-02-05T11:56:33Z</time>
      </trkpt>
      <trkpt lat="48.3128" lon="2.62568">
        <ele>201</ele>
        <time>2017-02-05T11:56:35Z</time>
      </trkpt>
      <trkpt lat="48.31258" lon="2.62571">
        <ele>200</ele>
        <time>2017-02-05T11:56:38Z</time>
      </trkpt>
      <trkpt lat="48.31246" lon="2.62572">
        <ele>198</ele>
        <time>2017-02-05T11:56:40Z</time>
      </trkpt>
      <trkpt lat="48.31242" lon="2.62573">
        <ele>197</ele>
        <time>2017-02-05T11:56:41Z</time>
      </trkpt>
      <trkpt lat="48.31239" lon="2.62574">
        <ele>196</ele>
        <time>2017-02-05T11:56:42Z</time>
      </trkpt>
      <trkpt lat="48.31237" lon="2.62576">
        <ele>195</ele>
        <time>2017-02-05T11:56:43Z</time>
      </trkpt>
      <trkpt lat="48.31237" lon="2.62579">
        <ele>194</ele>
        <time>2017-02-05T11:56:44Z</time>
      </trkpt>
      <trkpt lat="48.31238" lon="2.62583">
        <ele>194</ele>
        <time>2017-02-05T11:56:45Z</time>
      </trkpt>
      <trkpt lat="48.3124" lon="2.62591">
        <ele>194</ele>
        <time>2017-02-05T11:56:47Z</time>
      </trkpt>
      <trkpt lat="48.3124" lon="2.62607">
        <ele>194</ele>
        <time>2017-02-05T11:56:52Z</time>
      </trkpt>
      <trkpt lat="48.31242" lon="2.6261">
        <ele>194</ele>
        <time>2017-02-05T11:56:53Z</time>
      </trkpt>
      <trkpt lat="48.31242" lon="2.62611">
        <ele>194</ele>
        <time>2017-02-05T11:56:55Z</time>
      </trkpt>
      <trkpt lat="48.31241" lon="2.62614">
        <ele>194</ele>
        <time>2017-02-05T11:57:04Z</time>
      </trkpt>
      <trkpt lat="48.31241" lon="2.62614">
        <ele>194</ele>
        <time>2017-02-05T11:57:42Z</time>
      </trkpt>
      <trkpt lat="48.3124" lon="2.62613">
        <ele>194</ele>
        <time>2017-02-05T11:57:48Z</time>
      </trkpt>
      <trkpt lat="48.3124" lon="2.62613">
        <ele>193</ele>
        <time>2017-02-05T11:58:31Z</time>
      </trkpt>
      <trkpt lat="48.3124" lon="2.62614">
        <ele>194</ele>
        <time>2017-02-05T11:58:51Z</time>
      </trkpt>
      <trkpt lat="48.3124" lon="2.62615">
        <ele>194</ele>
        <time>2017-02-05T11:59:19Z</time>
      </trkpt>
      <trkpt lat="48.31241" lon="2.62621">
        <ele>194</ele>
        <time>2017-02-05T11:59:21Z</time>
      </trkpt>
      <trkpt lat="48.31242" lon="2.62628">
        <ele>194</ele>
        <time>2017-02-05T11:59:23Z</time>
      </trkpt>
      <trkpt lat="48.31243" lon="2.6264">
        <ele>194</ele>
        <time>2017-02-05T11:59:26Z</time>
      </trkpt>
      <trkpt lat="48.31242" lon="2.62648">
        <ele>194</ele>
        <time>2017-02-05T11:59:30Z</time>
      </trkpt>
      <trkpt lat="48.31243" lon="2.62651">
        <ele>194</ele>
        <time>2017-02-05T11:59:32Z</time>
      </trkpt>
      <trkpt lat="48.31243" lon="2.62653">
        <ele>194</ele>
        <time>2017-02-05T11:59:33Z</time>
      </trkpt>
      <trkpt lat="48.31246" lon="2.62662">
        <ele>195</ele>
        <time>2017-02-05T11:59:36Z</time>
      </trkpt>
      <trkpt lat="48.31247" lon="2.62681">
        <ele>195</ele>
        <time>2017-02-05T11:59:42Z</time>
      </trkpt>
      <trkpt lat="48.31248" lon="2.62685">
        <ele>195</ele>
        <time>2017-02-05T11:59:44Z</time>
      </trkpt>
      <trkpt lat="48.31249" lon="2.62694">
        <ele>195</ele>
        <time>2017-02-05T11:59:47Z</time>
      </trkpt>
      <trkpt lat="48.31252" lon="2.62703">
        <ele>195</ele>
        <time>2017-02-05T11:59:51Z</time>
      </trkpt>
      <trkpt lat="48.31253" lon="2.62707">
        <ele>196</ele>
        <time>2017-02-05T11:59:53Z</time>
      </trkpt>
      <trkpt lat="48.31256" lon="2.62722">
        <ele>196</ele>
        <time>2017-02-05T11:59:59Z</time>
      </trkpt>
      <trkpt lat="48.31256" lon="2.62746">
        <ele>196</ele>
        <time>2017-02-05T12:00:04Z</time>
      </trkpt>
      <trkpt lat="48.31256" lon="2.62764">
        <ele>196</ele>
        <time>2017-02-05T12:00:08Z</time>
      </trkpt>
      <trkpt lat="48.31255" lon="2.62768">
        <ele>196</ele>
        <time>2017-02-05T12:00:09Z</time>
      </trkpt>
      <trkpt lat="48.31257" lon="2.62795">
        <ele>196</ele>
        <time>2017-02-05T12:00:15Z</time>
      </trkpt>
      <trkpt lat="48.31258" lon="2.62809">
        <ele>197</ele>
        <time>2017-02-05T12:00:18Z</time>
      </trkpt>
      <trkpt lat="48.31258" lon="2.62817">
        <ele>197</ele>
        <time>2017-02-05T12:00:20Z</time>
      </trkpt>
      <trkpt lat="48.31259" lon="2.6283">
        <ele>197</ele>
        <time>2017-02-05T12:00:23Z</time>
      </trkpt>
      <trkpt lat="48.31259" lon="2.62834">
        <ele>197</ele>
        <time>2017-02-05T12:00:24Z</time>
      </trkpt>
      <trkpt lat="48.31261" lon="2.62848">
        <ele>198</ele>
        <time>2017-02-05T12:00:27Z</time>
      </trkpt>
      <trkpt lat="48.31262" lon="2.62861">
        <ele>198</ele>
        <time>2017-02-05T12:00:30Z</time>
      </trkpt>
      <trkpt lat="48.31263" lon="2.6288">
        <ele>198</ele>
        <time>2017-02-05T12:00:37Z</time>
      </trkpt>
      <trkpt lat="48.31264" lon="2.62902">
        <ele>199</ele>
        <time>2017-02-05T12:00:43Z</time>
      </trkpt>
      <trkpt lat="48.31264" lon="2.62908">
        <ele>199</ele>
        <time>2017-02-05T12:00:45Z</time>
      </trkpt>
      <trkpt lat="48.31261" lon="2.62917">
        <ele>199</ele>
        <time>2017-02-05T12:00:49Z</time>
      </trkpt>
      <trkpt lat="48.31253" lon="2.62936">
        <ele>199</ele>
        <time>2017-02-05T12:00:55Z</time>
      </trkpt>
      <trkpt lat="48.31246" lon="2.6296">
        <ele>199</ele>
        <time>2017-02-05T12:01:00Z</time>
      </trkpt>
      <trkpt lat="48.31243" lon="2.62985">
        <ele>199</ele>
        <time>2017-02-05T12:01:05Z</time>
      </trkpt>
      <trkpt lat="48.31243" lon="2.62998">
        <ele>200</ele>
        <time>2017-02-05T12:01:08Z</time>
      </trkpt>
      <trkpt lat="48.31243" lon="2.63004">
        <ele>200</ele>
        <time>2017-02-05T12:01:10Z</time>
      </trkpt>
      <trkpt lat="48.31245" lon="2.63015">
        <ele>201</ele>
        <time>2017-02-05T12:01:15Z</time>
      </trkpt>
      <trkpt lat="48.31246" lon="2.63034">
        <ele>202</ele>
        <time>2017-02-05T12:01:21Z</time>
      </trkpt>
      <trkpt lat="48.31247" lon="2.6306">
        <ele>201</ele>
        <time>2017-02-05T12:01:26Z</time>
      </trkpt>
      <trkpt lat="48.31244" lon="2.63077">
        <ele>201</ele>
        <time>2017-02-05T12:01:29Z</time>
      </trkpt>
      <trkpt lat="48.31243" lon="2.6309">
        <ele>201</ele>
        <time>2017-02-05T12:01:31Z</time>
      </trkpt>
      <trkpt lat="48.31239" lon="2.63122">
        <ele>200</ele>
        <time>2017-02-05T12:01:36Z</time>
      </trkpt>
      <trkpt lat="48.31238" lon="2.63132">
        <ele>200</ele>
        <time>2017-02-05T12:01:38Z</time>
      </trkpt>
      <trkpt lat="48.31235" lon="2.63149">
        <ele>199</ele>
        <time>2017-02-05T12:01:41Z</time>
      </trkpt>
      <trkpt lat="48.31235" lon="2.63169">
        <ele>199</ele>
        <time>2017-02-05T12:01:45Z</time>
      </trkpt>
      <trkpt lat="48.31236" lon="2.63174">
        <ele>199</ele>
        <time>2017-02-05T12:01:46Z</time>
      </trkpt>
      <trkpt lat="48.31237" lon="2.63183">
        <ele>198</ele>
        <time>2017-02-05T12:01:48Z</time>
      </trkpt>
      <trkpt lat="48.31235" lon="2.63201">
        <ele>198</ele>
        <time>2017-02-05T12:01:50Z</time>
      </trkpt>
      <trkpt lat="48.31233" lon="2.63218">
        <ele>198</ele>
        <time>2017-02-05T12:01:52Z</time>
      </trkpt>
      <trkpt lat="48.31235" lon="2.63248">
        <ele>197</ele>
        <time>2017-02-05T12:01:58Z</time>
      </trkpt>
      <trkpt lat="48.31233" lon="2.6328">
        <ele>197</ele>
        <time>2017-02-05T12:02:03Z</time>
      </trkpt>
      <trkpt lat="48.31224" lon="2.63313">
        <ele>198</ele>
        <time>2017-02-05T12:02:08Z</time>
      </trkpt>
      <trkpt lat="48.31219" lon="2.63342">
        <ele>198</ele>
        <time>2017-02-05T12:02:13Z</time>
      </trkpt>
      <trkpt lat="48.3121" lon="2.63377">
        <ele>199</ele>
        <time>2017-02-05T12:02:18Z</time>
      </trkpt>
      <trkpt lat="48.31205" lon="2.63397">
        <ele>199</ele>
        <time>2017-02-05T12:02:21Z</time>
      </trkpt>
      <trkpt lat="48.31205" lon="2.63407">
        <ele>200</ele>
        <time>2017-02-05T12:02:23Z</time>
      </trkpt>
      <trkpt lat="48.31205" lon="2.63413">
        <ele>200</ele>
        <time>2017-02-05T12:02:24Z</time>
      </trkpt>
      <trkpt lat="48.31206" lon="2.63431">
        <ele>201</ele>
        <time>2017-02-05T12:02:28Z</time>
      </trkpt>
      <trkpt lat="48.31206" lon="2.63456">
        <ele>202</ele>
        <time>2017-02-05T12:02:34Z</time>
      </trkpt>
      <trkpt lat="48.31206" lon="2.6346">
        <ele>202</ele>
        <time>2017-02-05T12:02:35Z</time>
      </trkpt>
      <trkpt lat="48.31207" lon="2.63473">
        <ele>203</ele>
        <time>2017-02-05T12:02:40Z</time>
      </trkpt>
      <trkpt lat="48.31207" lon="2.63493">
        <ele>204</ele>
        <time>2017-02-05T12:02:46Z</time>
      </trkpt>
      <trkpt lat="48.31207" lon="2.63498">
        <ele>204</ele>
        <time>2017-02-05T12:02:47Z</time>
      </trkpt>
      <trkpt lat="48.31208" lon="2.63512">
        <ele>205</ele>
        <time>2017-02-05T12:02:52Z</time>
      </trkpt>
      <trkpt lat="48.31209" lon="2.63517">
        <ele>205</ele>
        <time>2017-02-05T12:02:54Z</time>
      </trkpt>
      <trkpt lat="48.3121" lon="2.63524">
        <ele>206</ele>
        <time>2017-02-05T12:02:57Z</time>
      </trkpt>
      <trkpt lat="48.31209" lon="2.63532">
        <ele>207</ele>
        <time>2017-02-05T12:03:01Z</time>
      </trkpt>
      <trkpt lat="48.31209" lon="2.63534">
        <ele>207</ele>
        <time>2017-02-05T12:03:02Z</time>
      </trkpt>
      <trkpt lat="48.31211" lon="2.63546">
        <ele>208</ele>
        <time>2017-02-05T12:03:08Z</time>
      </trkpt>
      <trkpt lat="48.31212" lon="2.63551">
        <ele>208</ele>
        <time>2017-02-05T12:03:09Z</time>
      </trkpt>
      <trkpt lat="48.31213" lon="2.63562">
        <ele>209</ele>
        <time>2017-02-05T12:03:13Z</time>
      </trkpt>
      <trkpt lat="48.31212" lon="2.63572">
        <ele>209</ele>
        <time>2017-02-05T12:03:16Z</time>
      </trkpt>
      <trkpt lat="48.31211" lon="2.63579">
        <ele>210</ele>
        <time>2017-02-05T12:03:19Z</time>
      </trkpt>
      <trkpt lat="48.31211" lon="2.63581">
        <ele>210</ele>
        <time>2017-02-05T12:03:20Z</time>
      </trkpt>
      <trkpt lat="48.31209" lon="2.63587">
        <ele>210</ele>
        <time>2017-02-05T12:03:22Z</time>
      </trkpt>
      <trkpt lat="48.31207" lon="2.63599">
        <ele>211</ele>
        <time>2017-02-05T12:03:26Z</time>
      </trkpt>
      <trkpt lat="48.31207" lon="2.63616">
        <ele>211</ele>
        <time>2017-02-05T12:03:30Z</time>
      </trkpt>
      <trkpt lat="48.31208" lon="2.63624">
        <ele>211</ele>
        <time>2017-02-05T12:03:32Z</time>
      </trkpt>
      <trkpt lat="48.31207" lon="2.63636">
        <ele>212</ele>
        <time>2017-02-05T12:03:36Z</time>
      </trkpt>
      <trkpt lat="48.31205" lon="2.63669">
        <ele>212</ele>
        <time>2017-02-05T12:03:43Z</time>
      </trkpt>
      <trkpt lat="48.31197" lon="2.63704">
        <ele>212</ele>
        <time>2017-02-05T12:03:49Z</time>
      </trkpt>
      <trkpt lat="48.31189" lon="2.6374">
        <ele>211</ele>
        <time>2017-02-05T12:03:55Z</time>
      </trkpt>
      <trkpt lat="48.31184" lon="2.63794">
        <ele>211</ele>
        <time>2017-02-05T12:04:01Z</time>
      </trkpt>
      <trkpt lat="48.31185" lon="2.63803">
        <ele>211</ele>
        <time>2017-02-05T12:04:02Z</time>
      </trkpt>
      <trkpt lat="48.31193" lon="2.6383">
        <ele>211</ele>
        <time>2017-02-05T12:04:06Z</time>
      </trkpt>
      <trkpt lat="48.31195" lon="2.63835">
        <ele>211</ele>
        <time>2017-02-05T12:04:07Z</time>
      </trkpt>
      <trkpt lat="48.31197" lon="2.63847">
        <ele>211</ele>
        <time>2017-02-05T12:04:09Z</time>
      </trkpt>
      <trkpt lat="48.31198" lon="2.6386">
        <ele>211</ele>
        <time>2017-02-05T12:04:11Z</time>
      </trkpt>
      <trkpt lat="48.312" lon="2.63875">
        <ele>211</ele>
        <time>2017-02-05T12:04:13Z</time>
      </trkpt>
      <trkpt lat="48.31201" lon="2.63903">
        <ele>210</ele>
        <time>2017-02-05T12:04:17Z</time>
      </trkpt>
      <trkpt lat="48.31201" lon="2.63925">
        <ele>210</ele>
        <time>2017-02-05T12:04:20Z</time>
      </trkpt>
      <trkpt lat="48.312" lon="2.63942">
        <ele>210</ele>
        <time>2017-02-05T12:04:22Z</time>
      </trkpt>
      <trkpt lat="48.31197" lon="2.63976">
        <ele>209</ele>
        <time>2017-02-05T12:04:26Z</time>
      </trkpt>
      <trkpt lat="48.31196" lon="2.63998">
        <ele>210</ele>
        <time>2017-02-05T12:04:29Z</time>
      </trkpt>
      <trkpt lat="48.31193" lon="2.64025">
        <ele>209</ele>
        <time>2017-02-05T12:04:33Z</time>
      </trkpt>
      <trkpt lat="48.31191" lon="2.64036">
        <ele>208</ele>
        <time>2017-02-05T12:04:35Z</time>
      </trkpt>
      <trkpt lat="48.31191" lon="2.64042">
        <ele>208</ele>
        <time>2017-02-05T12:04:36Z</time>
      </trkpt>
      <trkpt lat="48.31189" lon="2.64066">
        <ele>207</ele>
        <time>2017-02-05T12:04:41Z</time>
      </trkpt>
      <trkpt lat="48.31189" lon="2.64066">
        <ele>207</ele>
        <time>2017-02-05T12:04:45Z</time>
      </trkpt>
      <trkpt lat="48.31186" lon="2.64076">
        <ele>206</ele>
        <time>2017-02-05T12:05:09Z</time>
      </trkpt>
      <trkpt lat="48.31183" lon="2.64088">
        <ele>206</ele>
        <time>2017-02-05T12:05:11Z</time>
      </trkpt>
      <trkpt lat="48.31181" lon="2.64094">
        <ele>206</ele>
        <time>2017-02-05T12:05:12Z</time>
      </trkpt>
      <trkpt lat="48.31178" lon="2.64097">
        <ele>205</ele>
        <time>2017-02-05T12:05:13Z</time>
      </trkpt>
      <trkpt lat="48.31172" lon="2.64097">
        <ele>205</ele>
        <time>2017-02-05T12:05:14Z</time>
      </trkpt>
      <trkpt lat="48.31166" lon="2.64093">
        <ele>204</ele>
        <time>2017-02-05T12:05:15Z</time>
      </trkpt>
      <trkpt lat="48.3116" lon="2.6409">
        <ele>204</ele>
        <time>2017-02-05T12:05:16Z</time>
      </trkpt>
      <trkpt lat="48.31157" lon="2.64089">
        <ele>203</ele>
        <time>2017-02-05T12:05:17Z</time>
      </trkpt>
      <trkpt lat="48.31154" lon="2.64091">
        <ele>202</ele>
        <time>2017-02-05T12:05:18Z</time>
      </trkpt>
      <trkpt lat="48.31154" lon="2.64094">
        <ele>202</ele>
        <time>2017-02-05T12:05:19Z</time>
      </trkpt>
      <trkpt lat="48.31152" lon="2.641">
        <ele>201</ele>
        <time>2017-02-05T12:05:21Z</time>
      </trkpt>
      <trkpt lat="48.31146" lon="2.64117">
        <ele>201</ele>
        <time>2017-02-05T12:05:24Z</time>
      </trkpt>
      <trkpt lat="48.31145" lon="2.64135">
        <ele>201</ele>
        <time>2017-02-05T12:05:27Z</time>
      </trkpt>
      <trkpt lat="48.31145" lon="2.64141">
        <ele>201</ele>
        <time>2017-02-05T12:05:28Z</time>
      </trkpt>
      <trkpt lat="48.31147" lon="2.64164">
        <ele>201</ele>
        <time>2017-02-05T12:05:32Z</time>
      </trkpt>
      <trkpt lat="48.31147" lon="2.64171">
        <ele>200</ele>
        <time>2017-02-05T12:05:33Z</time>
      </trkpt>
      <trkpt lat="48.31145" lon="2.6419">
        <ele>199</ele>
        <time>2017-02-05T12:05:36Z</time>
      </trkpt>
      <trkpt lat="48.31145" lon="2.64197">
        <ele>199</ele>
        <time>2017-02-05T12:05:37Z</time>
      </trkpt>
      <trkpt lat="48.31145" lon="2.64204">
        <ele>198</ele>
        <time>2017-02-05T12:05:38Z</time>
      </trkpt>
      <trkpt lat="48.31147" lon="2.64215">
        <ele>198</ele>
        <time>2017-02-05T12:05:40Z</time>
      </trkpt>
      <trkpt lat="48.31146" lon="2.64219">
        <ele>198</ele>
        <time>2017-02-05T12:05:41Z</time>
      </trkpt>
      <trkpt lat="48.31141" lon="2.64242">
        <ele>198</ele>
        <time>2017-02-05T12:05:46Z</time>
      </trkpt>
      <trkpt lat="48.31137" lon="2.64258">
        <ele>197</ele>
        <time>2017-02-05T12:05:49Z</time>
      </trkpt>
      <trkpt lat="48.31134" lon="2.64268">
        <ele>197</ele>
        <time>2017-02-05T12:05:51Z</time>
      </trkpt>
      <trkpt lat="48.31127" lon="2.64277">
        <ele>196</ele>
        <time>2017-02-05T12:05:53Z</time>
      </trkpt>
      <trkpt lat="48.31122" lon="2.64283">
        <ele>196</ele>
        <time>2017-02-05T12:05:54Z</time>
      </trkpt>
      <trkpt lat="48.31116" lon="2.64303">
        <ele>195</ele>
        <time>2017-02-05T12:05:57Z</time>
      </trkpt>
      <trkpt lat="48.31115" lon="2.6431">
        <ele>195</ele>
        <time>2017-02-05T12:05:58Z</time>
      </trkpt>
      <trkpt lat="48.31113" lon="2.64316">
        <ele>195</ele>
        <time>2017-02-05T12:05:59Z</time>
      </trkpt>
      <trkpt lat="48.31111" lon="2.64323">
        <ele>194</ele>
        <time>2017-02-05T12:06:00Z</time>
      </trkpt>
      <trkpt lat="48.31109" lon="2.64329">
        <ele>194</ele>
        <time>2017-02-05T12:06:01Z</time>
      </trkpt>
      <trkpt lat="48.31107" lon="2.64335">
        <ele>194</ele>
        <time>2017-02-05T12:06:02Z</time>
      </trkpt>
      <trkpt lat="48.31099" lon="2.64357">
        <ele>192</ele>
        <time>2017-02-05T12:06:05Z</time>
      </trkpt>
      <trkpt lat="48.31096" lon="2.64365">
        <ele>192</ele>
        <time>2017-02-05T12:06:06Z</time>
      </trkpt>
      <trkpt lat="48.31092" lon="2.64373">
        <ele>191</ele>
        <time>2017-02-05T12:06:07Z</time>
      </trkpt>
      <trkpt lat="48.31082" lon="2.64399">
        <ele>191</ele>
        <time>2017-02-05T12:06:10Z</time>
      </trkpt>
      <trkpt lat="48.31079" lon="2.64408">
        <ele>190</ele>
        <time>2017-02-05T12:06:11Z</time>
      </trkpt>
      <trkpt lat="48.31077" lon="2.64417">
        <ele>190</ele>
        <time>2017-02-05T12:06:12Z</time>
      </trkpt>
      <trkpt lat="48.3107" lon="2.64445">
        <ele>190</ele>
        <time>2017-02-05T12:06:15Z</time>
      </trkpt>
      <trkpt lat="48.31063" lon="2.64464">
        <ele>189</ele>
        <time>2017-02-05T12:06:17Z</time>
      </trkpt>
      <trkpt lat="48.31054" lon="2.64491">
        <ele>189</ele>
        <time>2017-02-05T12:06:20Z</time>
      </trkpt>
      <trkpt lat="48.31047" lon="2.64506">
        <ele>189</ele>
        <time>2017-02-05T12:06:22Z</time>
      </trkpt>
      <trkpt lat="48.31039" lon="2.6451">
        <ele>188</ele>
        <time>2017-02-05T12:06:24Z</time>
      </trkpt>
      <trkpt lat="48.31034" lon="2.64512">
        <ele>188</ele>
        <time>2017-02-05T12:06:25Z</time>
      </trkpt>
      <trkpt lat="48.31029" lon="2.64513">
        <ele>188</ele>
        <time>2017-02-05T12:06:26Z</time>
      </trkpt>
      <trkpt lat="48.31023" lon="2.64514">
        <ele>187</ele>
        <time>2017-02-05T12:06:27Z</time>
      </trkpt>
      <trkpt lat="48.31011" lon="2.64515">
        <ele>187</ele>
        <time>2017-02-05T12:06:29Z</time>
      </trkpt>
      <trkpt lat="48.30983" lon="2.64522">
        <ele>187</ele>
        <time>2017-02-05T12:06:35Z</time>
      </trkpt>
      <trkpt lat="48.30958" lon="2.64532">
        <ele>187</ele>
        <time>2017-02-05T12:06:41Z</time>
      </trkpt>
      <trkpt lat="48.30944" lon="2.64535">
        <ele>187</ele>
        <time>2017-02-05T12:06:44Z</time>
      </trkpt>
      <trkpt lat="48.30939" lon="2.64537">
        <ele>187</ele>
        <time>2017-02-05T12:06:45Z</time>
      </trkpt>
      <trkpt lat="48.30924" lon="2.64544">
        <ele>186</ele>
        <time>2017-02-05T12:06:48Z</time>
      </trkpt>
      <trkpt lat="48.30912" lon="2.64549">
        <ele>186</ele>
        <time>2017-02-05T12:06:50Z</time>
      </trkpt>
      <trkpt lat="48.30892" lon="2.64557">
        <ele>184</ele>
        <time>2017-02-05T12:06:54Z</time>
      </trkpt>
      <trkpt lat="48.30863" lon="2.6457">
        <ele>184</ele>
        <time>2017-02-05T12:07:00Z</time>
      </trkpt>
      <trkpt lat="48.30836" lon="2.64582">
        <ele>184</ele>
        <time>2017-02-05T12:07:05Z</time>
      </trkpt>
      <trkpt lat="48.3083" lon="2.64584">
        <ele>183</ele>
        <time>2017-02-05T12:07:06Z</time>
      </trkpt>
      <trkpt lat="48.30825" lon="2.64586">
        <ele>183</ele>
        <time>2017-02-05T12:07:07Z</time>
      </trkpt>
      <trkpt lat="48.30806" lon="2.6459">
        <ele>183</ele>
        <time>2017-02-05T12:07:11Z</time>
      </trkpt>
      <trkpt lat="48.30781" lon="2.64589">
        <ele>183</ele>
        <time>2017-02-05T12:07:16Z</time>
      </trkpt>
      <trkpt lat="48.30761" lon="2.64597">
        <ele>183</ele>
        <time>2017-02-05T12:07:20Z</time>
      </trkpt>
      <trkpt lat="48.30752" lon="2.64604">
        <ele>182</ele>
        <time>2017-02-05T12:07:22Z</time>
      </trkpt>
      <trkpt lat="48.30748" lon="2.64607">
        <ele>182</ele>
        <time>2017-02-05T12:07:23Z</time>
      </trkpt>
      <trkpt lat="48.3073" lon="2.6462">
        <ele>182</ele>
        <time>2017-02-05T12:07:28Z</time>
      </trkpt>
      <trkpt lat="48.30714" lon="2.64636">
        <ele>181</ele>
        <time>2017-02-05T12:07:33Z</time>
      </trkpt>
      <trkpt lat="48.30712" lon="2.6464">
        <ele>181</ele>
        <time>2017-02-05T12:07:34Z</time>
      </trkpt>
      <trkpt lat="48.30693" lon="2.64655">
        <ele>181</ele>
        <time>2017-02-05T12:07:39Z</time>
      </trkpt>
      <trkpt lat="48.30678" lon="2.64673">
        <ele>181</ele>
        <time>2017-02-05T12:07:45Z</time>
      </trkpt>
      <trkpt lat="48.30669" lon="2.64696">
        <ele>181</ele>
        <time>2017-02-05T12:07:49Z</time>
      </trkpt>
      <trkpt lat="48.30663" lon="2.64723">
        <ele>180</ele>
        <time>2017-02-05T12:07:53Z</time>
      </trkpt>
      <trkpt lat="48.30659" lon="2.6473">
        <ele>180</ele>
        <time>2017-02-05T12:07:54Z</time>
      </trkpt>
      <trkpt lat="48.30647" lon="2.64745">
        <ele>180</ele>
        <time>2017-02-05T12:07:57Z</time>
      </trkpt>
      <trkpt lat="48.30643" lon="2.6475">
        <ele>180</ele>
        <time>2017-02-05T12:07:58Z</time>
      </trkpt>
      <trkpt lat="48.30621" lon="2.6477">
        <ele>180</ele>
        <time>2017-02-05T12:08:03Z</time>
      </trkpt>
      <trkpt lat="48.30606" lon="2.64781">
        <ele>180</ele>
        <time>2017-02-05T12:08:06Z</time>
      </trkpt>
      <trkpt lat="48.30596" lon="2.64785">
        <ele>180</ele>
        <time>2017-02-05T12:08:08Z</time>
      </trkpt>
      <trkpt lat="48.30575" lon="2.648">
        <ele>180</ele>
        <time>2017-02-05T12:08:12Z</time>
      </trkpt>
      <trkpt lat="48.30536" lon="2.64821">
        <ele>180</ele>
        <time>2017-02-05T12:08:18Z</time>
      </trkpt>
      <trkpt lat="48.30507" lon="2.64837">
        <ele>180</ele>
        <time>2017-02-05T12:08:24Z</time>
      </trkpt>
      <trkpt lat="48.305" lon="2.64838">
        <ele>179</ele>
        <time>2017-02-05T12:08:25Z</time>
      </trkpt>
      <trkpt lat="48.30487" lon="2.64846">
        <ele>180</ele>
        <time>2017-02-05T12:08:27Z</time>
      </trkpt>
      <trkpt lat="48.30479" lon="2.64853">
        <ele>179</ele>
        <time>2017-02-05T12:08:29Z</time>
      </trkpt>
      <trkpt lat="48.30475" lon="2.64855">
        <ele>179</ele>
        <time>2017-02-05T12:08:31Z</time>
      </trkpt>
      <trkpt lat="48.30474" lon="2.64856">
        <ele>179</ele>
        <time>2017-02-05T12:08:32Z</time>
      </trkpt>
      <trkpt lat="48.30471" lon="2.64855">
        <ele>179</ele>
        <time>2017-02-05T12:08:36Z</time>
      </trkpt>
      <trkpt lat="48.30466" lon="2.64849">
        <ele>177</ele>
        <time>2017-02-05T12:08:39Z</time>
      </trkpt>
      <trkpt lat="48.30466" lon="2.64843">
        <ele>177</ele>
        <time>2017-02-05T12:08:40Z</time>
      </trkpt>
      <trkpt lat="48.30466" lon="2.64838">
        <ele>177</ele>
        <time>2017-02-05T12:08:41Z</time>
      </trkpt>
      <trkpt lat="48.30466" lon="2.64823">
        <ele>177</ele>
        <time>2017-02-05T12:08:45Z</time>
      </trkpt>
      <trkpt lat="48.30466" lon="2.64817">
        <ele>177</ele>
        <time>2017-02-05T12:08:49Z</time>
      </trkpt>
      <trkpt lat="48.30464" lon="2.64805">
        <ele>177</ele>
        <time>2017-02-05T12:08:53Z</time>
      </trkpt>
      <trkpt lat="48.30464" lon="2.64801">
        <ele>176</ele>
        <time>2017-02-05T12:08:54Z</time>
      </trkpt>
      <trkpt lat="48.30463" lon="2.64779">
        <ele>176</ele>
        <time>2017-02-05T12:08:59Z</time>
      </trkpt>
      <trkpt lat="48.30463" lon="2.64762">
        <ele>176</ele>
        <time>2017-02-05T12:09:02Z</time>
      </trkpt>
      <trkpt lat="48.30463" lon="2.64758">
        <ele>176</ele>
        <time>2017-02-05T12:09:03Z</time>
      </trkpt>
      <trkpt lat="48.30462" lon="2.64737">
        <ele>176</ele>
        <time>2017-02-05T12:09:07Z</time>
      </trkpt>
      <trkpt lat="48.30459" lon="2.64709">
        <ele>176</ele>
        <time>2017-02-05T12:09:13Z</time>
      </trkpt>
      <trkpt lat="48.30457" lon="2.64698">
        <ele>176</ele>
        <time>2017-02-05T12:09:15Z</time>
      </trkpt>
      <trkpt lat="48.30457" lon="2.64689">
        <ele>176</ele>
        <time>2017-02-05T12:09:17Z</time>
      </trkpt>
      <trkpt lat="48.30456" lon="2.64669">
        <ele>176</ele>
        <time>2017-02-05T12:09:22Z</time>
      </trkpt>
      <trkpt lat="48.30457" lon="2.64665">
        <ele>177</ele>
        <time>2017-02-05T12:09:29Z</time>
      </trkpt>
      <trkpt lat="48.30455" lon="2.64661">
        <ele>176</ele>
        <time>2017-02-05T12:10:08Z</time>
      </trkpt>
      <trkpt lat="48.30455" lon="2.64659">
        <ele>177</ele>
        <time>2017-02-05T12:10:16Z</time>
      </trkpt>
      <trkpt lat="48.30455" lon="2.64658">
        <ele>180</ele>
        <time>2017-02-05T12:10:33Z</time>
      </trkpt>
      <trkpt lat="48.30456" lon="2.64653">
        <ele>180</ele>
        <time>2017-02-05T12:10:59Z</time>
      </trkpt>
      <trkpt lat="48.30457" lon="2.64643">
        <ele>180</ele>
        <time>2017-02-05T12:11:01Z</time>
      </trkpt>
      <trkpt lat="48.30457" lon="2.64634">
        <ele>180</ele>
        <time>2017-02-05T12:11:05Z</time>
      </trkpt>
      <trkpt lat="48.30457" lon="2.64627">
        <ele>180</ele>
        <time>2017-02-05T12:11:12Z</time>
      </trkpt>
      <trkpt lat="48.30454" lon="2.6462">
        <ele>179</ele>
        <time>2017-02-05T12:11:20Z</time>
      </trkpt>
      <trkpt lat="48.30452" lon="2.64613">
        <ele>178</ele>
        <time>2017-02-05T12:11:21Z</time>
      </trkpt>
      <trkpt lat="48.30448" lon="2.6461">
        <ele>178</ele>
        <time>2017-02-05T12:11:22Z</time>
      </trkpt>
      <trkpt lat="48.30447" lon="2.64609">
        <ele>178</ele>
        <time>2017-02-05T12:11:23Z</time>
      </trkpt>
      <trkpt lat="48.30445" lon="2.64599">
        <ele>180</ele>
        <time>2017-02-05T12:11:28Z</time>
      </trkpt>
      <trkpt lat="48.30445" lon="2.64596">
        <ele>179</ele>
        <time>2017-02-05T12:11:30Z</time>
      </trkpt>
      <trkpt lat="48.3045" lon="2.64581">
        <ele>179</ele>
        <time>2017-02-05T12:11:33Z</time>
      </trkpt>
      <trkpt lat="48.30451" lon="2.64577">
        <ele>178</ele>
        <time>2017-02-05T12:11:34Z</time>
      </trkpt>
      <trkpt lat="48.30452" lon="2.64574">
        <ele>179</ele>
        <time>2017-02-05T12:11:36Z</time>
      </trkpt>
      <trkpt lat="48.30452" lon="2.64574">
        <ele>179</ele>
        <time>2017-02-05T12:11:37Z</time>
      </trkpt>
      <trkpt lat="48.30452" lon="2.6456">
        <ele>180</ele>
        <time>2017-02-05T12:11:42Z</time>
      </trkpt>
      <trkpt lat="48.30451" lon="2.64557">
        <ele>180</ele>
        <time>2017-02-05T12:11:43Z</time>
      </trkpt>
      <trkpt lat="48.30443" lon="2.64547">
        <ele>180</ele>
        <time>2017-02-05T12:11:47Z</time>
      </trkpt>
      <trkpt lat="48.3044" lon="2.64544">
        <ele>180</ele>
        <time>2017-02-05T12:11:48Z</time>
      </trkpt>
      <trkpt lat="48.30428" lon="2.64533">
        <ele>179</ele>
        <time>2017-02-05T12:11:51Z</time>
      </trkpt>
      <trkpt lat="48.30422" lon="2.6453">
        <ele>178</ele>
        <time>2017-02-05T12:11:53Z</time>
      </trkpt>
      <trkpt lat="48.30413" lon="2.64527">
        <ele>178</ele>
        <time>2017-02-05T12:11:56Z</time>
      </trkpt>
      <trkpt lat="48.30411" lon="2.6453">
        <ele>178</ele>
        <time>2017-02-05T12:11:57Z</time>
      </trkpt>
      <trkpt lat="48.30409" lon="2.64533">
        <ele>178</ele>
        <time>2017-02-05T12:12:00Z</time>
      </trkpt>
      <trkpt lat="48.304" lon="2.64547">
        <ele>178</ele>
        <time>2017-02-05T12:12:05Z</time>
      </trkpt>
      <trkpt lat="48.30394" lon="2.64557">
        <ele>178</ele>
        <time>2017-02-05T12:12:08Z</time>
      </trkpt>
      <trkpt lat="48.30392" lon="2.64564">
        <ele>178</ele>
        <time>2017-02-05T12:12:10Z</time>
      </trkpt>
      <trkpt lat="48.30389" lon="2.64566">
        <ele>178</ele>
        <time>2017-02-05T12:12:11Z</time>
      </trkpt>
      <trkpt lat="48.30385" lon="2.6457">
        <ele>178</ele>
        <time>2017-02-05T12:12:13Z</time>
      </trkpt>
      <trkpt lat="48.30379" lon="2.64578">
        <ele>178</ele>
        <time>2017-02-05T12:12:16Z</time>
      </trkpt>
      <trkpt lat="48.30377" lon="2.64578">
        <ele>177</ele>
        <time>2017-02-05T12:12:17Z</time>
      </trkpt>
      <trkpt lat="48.3037" lon="2.6458">
        <ele>177</ele>
        <time>2017-02-05T12:12:20Z</time>
      </trkpt>
      <trkpt lat="48.30365" lon="2.64586">
        <ele>177</ele>
        <time>2017-02-05T12:12:22Z</time>
      </trkpt>
      <trkpt lat="48.30363" lon="2.64595">
        <ele>178</ele>
        <time>2017-02-05T12:12:25Z</time>
      </trkpt>
      <trkpt lat="48.30363" lon="2.64601">
        <ele>178</ele>
        <time>2017-02-05T12:12:27Z</time>
      </trkpt>
      <trkpt lat="48.30363" lon="2.64604">
        <ele>178</ele>
        <time>2017-02-05T12:12:28Z</time>
      </trkpt>
      <trkpt lat="48.30358" lon="2.64611">
        <ele>177</ele>
        <time>2017-02-05T12:12:31Z</time>
      </trkpt>
      <trkpt lat="48.30355" lon="2.64626">
        <ele>177</ele>
        <time>2017-02-05T12:12:35Z</time>
      </trkpt>
      <trkpt lat="48.30355" lon="2.64631">
        <ele>177</ele>
        <time>2017-02-05T12:12:36Z</time>
      </trkpt>
      <trkpt lat="48.30357" lon="2.64647">
        <ele>177</ele>
        <time>2017-02-05T12:12:40Z</time>
      </trkpt>
      <trkpt lat="48.30356" lon="2.6466">
        <ele>177</ele>
        <time>2017-02-05T12:12:45Z</time>
      </trkpt>
      <trkpt lat="48.30361" lon="2.64673">
        <ele>177</ele>
        <time>2017-02-05T12:12:49Z</time>
      </trkpt>
      <trkpt lat="48.30363" lon="2.64676">
        <ele>177</ele>
        <time>2017-02-05T12:12:50Z</time>
      </trkpt>
      <trkpt lat="48.30363" lon="2.64678">
        <ele>177</ele>
        <time>2017-02-05T12:12:52Z</time>
      </trkpt>
      <trkpt lat="48.30363" lon="2.64688">
        <ele>177</ele>
        <time>2017-02-05T12:12:54Z</time>
      </trkpt>
      <trkpt lat="48.30362" lon="2.64696">
        <ele>177</ele>
        <time>2017-02-05T12:12:56Z</time>
      </trkpt>
      <trkpt lat="48.3036" lon="2.647">
        <ele>177</ele>
        <time>2017-02-05T12:12:57Z</time>
      </trkpt>
      <trkpt lat="48.30353" lon="2.64706">
        <ele>177</ele>
        <time>2017-02-05T12:13:01Z</time>
      </trkpt>
      <trkpt lat="48.30349" lon="2.64708">
        <ele>177</ele>
        <time>2017-02-05T12:13:03Z</time>
      </trkpt>
      <trkpt lat="48.30347" lon="2.6471">
        <ele>177</ele>
        <time>2017-02-05T12:13:04Z</time>
      </trkpt>
      <trkpt lat="48.30347" lon="2.6472">
        <ele>177</ele>
        <time>2017-02-05T12:13:07Z</time>
      </trkpt>
      <trkpt lat="48.30341" lon="2.6473">
        <ele>177</ele>
        <time>2017-02-05T12:13:11Z</time>
      </trkpt>
      <trkpt lat="48.30341" lon="2.64733">
        <ele>177</ele>
        <time>2017-02-05T12:13:12Z</time>
      </trkpt>
      <trkpt lat="48.30336" lon="2.6474">
        <ele>177</ele>
        <time>2017-02-05T12:13:15Z</time>
      </trkpt>
      <trkpt lat="48.30335" lon="2.64742">
        <ele>177</ele>
        <time>2017-02-05T12:13:16Z</time>
      </trkpt>
      <trkpt lat="48.30327" lon="2.64753">
        <ele>177</ele>
        <time>2017-02-05T12:13:20Z</time>
      </trkpt>
      <trkpt lat="48.30324" lon="2.64756">
        <ele>177</ele>
        <time>2017-02-05T12:13:21Z</time>
      </trkpt>
      <trkpt lat="48.30318" lon="2.64767">
        <ele>177</ele>
        <time>2017-02-05T12:13:26Z</time>
      </trkpt>
      <trkpt lat="48.30317" lon="2.64771">
        <ele>177</ele>
        <time>2017-02-05T12:13:27Z</time>
      </trkpt>
      <trkpt lat="48.30308" lon="2.6479">
        <ele>177</ele>
        <time>2017-02-05T12:13:31Z</time>
      </trkpt>
      <trkpt lat="48.30308" lon="2.64799">
        <ele>178</ele>
        <time>2017-02-05T12:13:33Z</time>
      </trkpt>
      <trkpt lat="48.30306" lon="2.64808">
        <ele>178</ele>
        <time>2017-02-05T12:13:35Z</time>
      </trkpt>
      <trkpt lat="48.30304" lon="2.64824">
        <ele>178</ele>
        <time>2017-02-05T12:13:39Z</time>
      </trkpt>
      <trkpt lat="48.30302" lon="2.64831">
        <ele>178</ele>
        <time>2017-02-05T12:13:41Z</time>
      </trkpt>
      <trkpt lat="48.30296" lon="2.64843">
        <ele>178</ele>
        <time>2017-02-05T12:13:44Z</time>
      </trkpt>
      <trkpt lat="48.30294" lon="2.64846">
        <ele>178</ele>
        <time>2017-02-05T12:13:45Z</time>
      </trkpt>
      <trkpt lat="48.30291" lon="2.64847">
        <ele>178</ele>
        <time>2017-02-05T12:13:46Z</time>
      </trkpt>
      <trkpt lat="48.30286" lon="2.64849">
        <ele>178</ele>
        <time>2017-02-05T12:13:48Z</time>
      </trkpt>
      <trkpt lat="48.30278" lon="2.64859">
        <ele>178</ele>
        <time>2017-02-05T12:13:52Z</time>
      </trkpt>
      <trkpt lat="48.30277" lon="2.64862">
        <ele>178</ele>
        <time>2017-02-05T12:13:53Z</time>
      </trkpt>
      <trkpt lat="48.30273" lon="2.64866">
        <ele>178</ele>
        <time>2017-02-05T12:13:55Z</time>
      </trkpt>
      <trkpt lat="48.30269" lon="2.6487">
        <ele>178</ele>
        <time>2017-02-05T12:13:57Z</time>
      </trkpt>
      <trkpt lat="48.30268" lon="2.64872">
        <ele>178</ele>
        <time>2017-02-05T12:13:58Z</time>
      </trkpt>
      <trkpt lat="48.30263" lon="2.64882">
        <ele>178</ele>
        <time>2017-02-05T12:14:03Z</time>
      </trkpt>
      <trkpt lat="48.30258" lon="2.64892">
        <ele>178</ele>
        <time>2017-02-05T12:14:08Z</time>
      </trkpt>
      <trkpt lat="48.30252" lon="2.64908">
        <ele>179</ele>
        <time>2017-02-05T12:14:14Z</time>
      </trkpt>
      <trkpt lat="48.30249" lon="2.6491">
        <ele>181</ele>
        <time>2017-02-05T12:14:29Z</time>
      </trkpt>
      <trkpt lat="48.30248" lon="2.6491">
        <ele>181</ele>
        <time>2017-02-05T12:14:33Z</time>
      </trkpt>
      <trkpt lat="48.30244" lon="2.6491">
        <ele>182</ele>
        <time>2017-02-05T12:14:34Z</time>
      </trkpt>
      <trkpt lat="48.30243" lon="2.6491">
        <ele>182</ele>
        <time>2017-02-05T12:14:35Z</time>
      </trkpt>
      <trkpt lat="48.30242" lon="2.64911">
        <ele>182</ele>
        <time>2017-02-05T12:14:40Z</time>
      </trkpt>
      <trkpt lat="48.30241" lon="2.64912">
        <ele>182</ele>
        <time>2017-02-05T12:14:47Z</time>
      </trkpt>
      <trkpt lat="48.30241" lon="2.64913">
        <ele>182</ele>
        <time>2017-02-05T12:15:34Z</time>
      </trkpt>
      <trkpt lat="48.30241" lon="2.64913">
        <ele>182</ele>
        <time>2017-02-05T12:15:47Z</time>
      </trkpt>
      <trkpt lat="48.30241" lon="2.64915">
        <ele>182</ele>
        <time>2017-02-05T12:16:31Z</time>
      </trkpt>
      <trkpt lat="48.30241" lon="2.64915">
        <ele>182</ele>
        <time>2017-02-05T12:17:13Z</time>
      </trkpt>
      <trkpt lat="48.3024" lon="2.64916">
        <ele>182</ele>
        <time>2017-02-05T12:17:52Z</time>
      </trkpt>
      <trkpt lat="48.30241" lon="2.64916">
        <ele>182</ele>
        <time>2017-02-05T12:18:33Z</time>
      </trkpt>
      <trkpt lat="48.3024" lon="2.64917">
        <ele>182</ele>
        <time>2017-02-05T12:19:13Z</time>
      </trkpt>
      <trkpt lat="48.3024" lon="2.64917">
        <ele>182</ele>
        <time>2017-02-05T12:19:59Z</time>
      </trkpt>
      <trkpt lat="48.3024" lon="2.64917">
        <ele>182</ele>
        <time>2017-02-05T12:20:30Z</time>
      </trkpt>
      <trkpt lat="48.3024" lon="2.64917">
        <ele>182</ele>
        <time>2017-02-05T12:21:18Z</time>
      </trkpt>
      <trkpt lat="48.30241" lon="2.64916">
        <ele>182</ele>
        <time>2017-02-05T12:21:50Z</time>
      </trkpt>
      <trkpt lat="48.3024" lon="2.64915">
        <ele>182</ele>
        <time>2017-02-05T12:21:55Z</time>
      </trkpt>
      <trkpt lat="48.3024" lon="2.64914">
        <ele>182</ele>
        <time>2017-02-05T12:22:28Z</time>
      </trkpt>
      <trkpt lat="48.30233" lon="2.64908">
        <ele>182</ele>
        <time>2017-02-05T12:22:32Z</time>
      </trkpt>
      <trkpt lat="48.3023" lon="2.64908">
        <ele>182</ele>
        <time>2017-02-05T12:22:33Z</time>
      </trkpt>
      <trkpt lat="48.30224" lon="2.64914">
        <ele>181</ele>
        <time>2017-02-05T12:22:36Z</time>
      </trkpt>
      <trkpt lat="48.30222" lon="2.64916">
        <ele>181</ele>
        <time>2017-02-05T12:22:37Z</time>
      </trkpt>
      <trkpt lat="48.30215" lon="2.64929">
        <ele>182</ele>
        <time>2017-02-05T12:22:43Z</time>
      </trkpt>
      <trkpt lat="48.30217" lon="2.64945">
        <ele>182</ele>
        <time>2017-02-05T12:22:48Z</time>
      </trkpt>
      <trkpt lat="48.30218" lon="2.64948">
        <ele>182</ele>
        <time>2017-02-05T12:22:49Z</time>
      </trkpt>
      <trkpt lat="48.30218" lon="2.64965">
        <ele>181</ele>
        <time>2017-02-05T12:22:54Z</time>
      </trkpt>
      <trkpt lat="48.30215" lon="2.64971">
        <ele>182</ele>
        <time>2017-02-05T12:22:56Z</time>
      </trkpt>
      <trkpt lat="48.30214" lon="2.64972">
        <ele>182</ele>
        <time>2017-02-05T12:22:58Z</time>
      </trkpt>
      <trkpt lat="48.30208" lon="2.64959">
        <ele>180</ele>
        <time>2017-02-05T12:23:03Z</time>
      </trkpt>
      <trkpt lat="48.30201" lon="2.64947">
        <ele>181</ele>
        <time>2017-02-05T12:23:07Z</time>
      </trkpt>
      <trkpt lat="48.30199" lon="2.64945">
        <ele>181</ele>
        <time>2017-02-05T12:23:08Z</time>
      </trkpt>
      <trkpt lat="48.30197" lon="2.64943">
        <ele>181</ele>
        <time>2017-02-05T12:23:09Z</time>
      </trkpt>
      <trkpt lat="48.30194" lon="2.6494">
        <ele>182</ele>
        <time>2017-02-05T12:23:11Z</time>
      </trkpt>
      <trkpt lat="48.30193" lon="2.64938">
        <ele>183</ele>
        <time>2017-02-05T12:23:12Z</time>
      </trkpt>
      <trkpt lat="48.30188" lon="2.64931">
        <ele>182</ele>
        <time>2017-02-05T12:23:14Z</time>
      </trkpt>
      <trkpt lat="48.30184" lon="2.64929">
        <ele>181</ele>
        <time>2017-02-05T12:23:15Z</time>
      </trkpt>
      <trkpt lat="48.30177" lon="2.64925">
        <ele>180</ele>
        <time>2017-02-05T12:23:17Z</time>
      </trkpt>
      <trkpt lat="48.3017" lon="2.64925">
        <ele>180</ele>
        <time>2017-02-05T12:23:19Z</time>
      </trkpt>
      <trkpt lat="48.30158" lon="2.64929">
        <ele>180</ele>
        <time>2017-02-05T12:23:23Z</time>
      </trkpt>
      <trkpt lat="48.30157" lon="2.64932">
        <ele>180</ele>
        <time>2017-02-05T12:23:24Z</time>
      </trkpt>
      <trkpt lat="48.30152" lon="2.64941">
        <ele>181</ele>
        <time>2017-02-05T12:23:29Z</time>
      </trkpt>
      <trkpt lat="48.3015" lon="2.64942">
        <ele>181</ele>
        <time>2017-02-05T12:23:30Z</time>
      </trkpt>
      <trkpt lat="48.30143" lon="2.6495">
        <ele>181</ele>
        <time>2017-02-05T12:23:34Z</time>
      </trkpt>
      <trkpt lat="48.3013" lon="2.64976">
        <ele>180</ele>
        <time>2017-02-05T12:23:40Z</time>
      </trkpt>
      <trkpt lat="48.30123" lon="2.64989">
        <ele>179</ele>
        <time>2017-02-05T12:23:42Z</time>
      </trkpt>
      <trkpt lat="48.30116" lon="2.64998">
        <ele>179</ele>
        <time>2017-02-05T12:23:44Z</time>
      </trkpt>
      <trkpt lat="48.30111" lon="2.65008">
        <ele>179</ele>
        <time>2017-02-05T12:23:46Z</time>
      </trkpt>
      <trkpt lat="48.30111" lon="2.65014">
        <ele>179</ele>
        <time>2017-02-05T12:23:47Z</time>
      </trkpt>
      <trkpt lat="48.30108" lon="2.65027">
        <ele>178</ele>
        <time>2017-02-05T12:23:50Z</time>
      </trkpt>
      <trkpt lat="48.30106" lon="2.6503">
        <ele>178</ele>
        <time>2017-02-05T12:23:51Z</time>
      </trkpt>
      <trkpt lat="48.30102" lon="2.65038">
        <ele>179</ele>
        <time>2017-02-05T12:23:54Z</time>
      </trkpt>
      <trkpt lat="48.30101" lon="2.65048">
        <ele>179</ele>
        <time>2017-02-05T12:23:56Z</time>
      </trkpt>
      <trkpt lat="48.30097" lon="2.65059">
        <ele>179</ele>
        <time>2017-02-05T12:23:58Z</time>
      </trkpt>
      <trkpt lat="48.30096" lon="2.65074">
        <ele>179</ele>
        <time>2017-02-05T12:24:01Z</time>
      </trkpt>
      <trkpt lat="48.30095" lon="2.65081">
        <ele>179</ele>
        <time>2017-02-05T12:24:03Z</time>
      </trkpt>
      <trkpt lat="48.30093" lon="2.65094">
        <ele>179</ele>
        <time>2017-02-05T12:24:06Z</time>
      </trkpt>
      <trkpt lat="48.30092" lon="2.65105">
        <ele>179</ele>
        <time>2017-02-05T12:24:09Z</time>
      </trkpt>
      <trkpt lat="48.30095" lon="2.65115">
        <ele>179</ele>
        <time>2017-02-05T12:24:12Z</time>
      </trkpt>
      <trkpt lat="48.30101" lon="2.65127">
        <ele>178</ele>
        <time>2017-02-05T12:24:17Z</time>
      </trkpt>
      <trkpt lat="48.30106" lon="2.65137">
        <ele>179</ele>
        <time>2017-02-05T12:24:21Z</time>
      </trkpt>
      <trkpt lat="48.30106" lon="2.65137">
        <ele>179</ele>
        <time>2017-02-05T12:24:22Z</time>
      </trkpt>
      <trkpt lat="48.3011" lon="2.65149">
        <ele>179</ele>
        <time>2017-02-05T12:24:25Z</time>
      </trkpt>
      <trkpt lat="48.30112" lon="2.65152">
        <ele>179</ele>
        <time>2017-02-05T12:24:26Z</time>
      </trkpt>
      <trkpt lat="48.30119" lon="2.65177">
        <ele>179</ele>
        <time>2017-02-05T12:24:32Z</time>
      </trkpt>
      <trkpt lat="48.30119" lon="2.65192">
        <ele>179</ele>
        <time>2017-02-05T12:24:36Z</time>
      </trkpt>
      <trkpt lat="48.30118" lon="2.65195">
        <ele>179</ele>
        <time>2017-02-05T12:24:37Z</time>
      </trkpt>
      <trkpt lat="48.30118" lon="2.65208">
        <ele>179</ele>
        <time>2017-02-05T12:24:40Z</time>
      </trkpt>
      <trkpt lat="48.30116" lon="2.65228">
        <ele>179</ele>
        <time>2017-02-05T12:24:45Z</time>
      </trkpt>
      <trkpt lat="48.30116" lon="2.65236">
        <ele>179</ele>
        <time>2017-02-05T12:24:47Z</time>
      </trkpt>
      <trkpt lat="48.30116" lon="2.65245">
        <ele>179</ele>
        <time>2017-02-05T12:24:49Z</time>
      </trkpt>
      <trkpt lat="48.30111" lon="2.65261">
        <ele>180</ele>
        <time>2017-02-05T12:24:54Z</time>
      </trkpt>
      <trkpt lat="48.30109" lon="2.65279">
        <ele>181</ele>
        <time>2017-02-05T12:24:59Z</time>
      </trkpt>
      <trkpt lat="48.30112" lon="2.65293">
        <ele>181</ele>
        <time>2017-02-05T12:25:05Z</time>
      </trkpt>
      <trkpt lat="48.30114" lon="2.65306">
        <ele>181</ele>
        <time>2017-02-05T12:25:08Z</time>
      </trkpt>
      <trkpt lat="48.30114" lon="2.65309">
        <ele>181</ele>
        <time>2017-02-05T12:25:09Z</time>
      </trkpt>
      <trkpt lat="48.30119" lon="2.65318">
        <ele>179</ele>
        <time>2017-02-05T12:25:12Z</time>
      </trkpt>
      <trkpt lat="48.3012" lon="2.65323">
        <ele>179</ele>
        <time>2017-02-05T12:25:13Z</time>
      </trkpt>
      <trkpt lat="48.30117" lon="2.65331">
        <ele>179</ele>
        <time>2017-02-05T12:25:15Z</time>
      </trkpt>
      <trkpt lat="48.30112" lon="2.65338">
        <ele>178</ele>
        <time>2017-02-05T12:25:17Z</time>
      </trkpt>
      <trkpt lat="48.30105" lon="2.65345">
        <ele>178</ele>
        <time>2017-02-05T12:25:19Z</time>
      </trkpt>
      <trkpt lat="48.30102" lon="2.6535">
        <ele>178</ele>
        <time>2017-02-05T12:25:20Z</time>
      </trkpt>
      <trkpt lat="48.30089" lon="2.6537">
        <ele>178</ele>
        <time>2017-02-05T12:25:25Z</time>
      </trkpt>
      <trkpt lat="48.30077" lon="2.65387">
        <ele>178</ele>
        <time>2017-02-05T12:25:29Z</time>
      </trkpt>
      <trkpt lat="48.3007" lon="2.65398">
        <ele>179</ele>
        <time>2017-02-05T12:25:32Z</time>
      </trkpt>
      <trkpt lat="48.30063" lon="2.65402">
        <ele>179</ele>
        <time>2017-02-05T12:25:34Z</time>
      </trkpt>
      <trkpt lat="48.30055" lon="2.65409">
        <ele>179</ele>
        <time>2017-02-05T12:25:37Z</time>
      </trkpt>
      <trkpt lat="48.30051" lon="2.65416">
        <ele>178</ele>
        <time>2017-02-05T12:25:39Z</time>
      </trkpt>
      <trkpt lat="48.30032" lon="2.65431">
        <ele>178</ele>
        <time>2017-02-05T12:25:43Z</time>
      </trkpt>
      <trkpt lat="48.30011" lon="2.65443">
        <ele>178</ele>
        <time>2017-02-05T12:25:48Z</time>
      </trkpt>
      <trkpt lat="48.29994" lon="2.65456">
        <ele>178</ele>
        <time>2017-02-05T12:25:53Z</time>
      </trkpt>
      <trkpt lat="48.29987" lon="2.65466">
        <ele>178</ele>
        <time>2017-02-05T12:25:56Z</time>
      </trkpt>
      <trkpt lat="48.29984" lon="2.65472">
        <ele>178</ele>
        <time>2017-02-05T12:25:58Z</time>
      </trkpt>
      <trkpt lat="48.29966" lon="2.65487">
        <ele>178</ele>
        <time>2017-02-05T12:26:02Z</time>
      </trkpt>
      <trkpt lat="48.29946" lon="2.65496">
        <ele>178</ele>
        <time>2017-02-05T12:26:08Z</time>
      </trkpt>
      <trkpt lat="48.29944" lon="2.65502">
        <ele>178</ele>
        <time>2017-02-05T12:26:10Z</time>
      </trkpt>
      <trkpt lat="48.29939" lon="2.65511">
        <ele>178</ele>
        <time>2017-02-05T12:26:12Z</time>
      </trkpt>
      <trkpt lat="48.29929" lon="2.65523">
        <ele>178</ele>
        <time>2017-02-05T12:26:15Z</time>
      </trkpt>
      <trkpt lat="48.29923" lon="2.65529">
        <ele>178</ele>
        <time>2017-02-05T12:26:17Z</time>
      </trkpt>
      <trkpt lat="48.29919" lon="2.65531">
        <ele>178</ele>
        <time>2017-02-05T12:26:18Z</time>
      </trkpt>
      <trkpt lat="48.29916" lon="2.65532">
        <ele>178</ele>
        <time>2017-02-05T12:26:19Z</time>
      </trkpt>
      <trkpt lat="48.2991" lon="2.6553">
        <ele>178</ele>
        <time>2017-02-05T12:26:21Z</time>
      </trkpt>
      <trkpt lat="48.29907" lon="2.65527">
        <ele>178</ele>
        <time>2017-02-05T12:26:22Z</time>
      </trkpt>
      <trkpt lat="48.29896" lon="2.65511">
        <ele>179</ele>
        <time>2017-02-05T12:26:26Z</time>
      </trkpt>
      <trkpt lat="48.2988" lon="2.65506">
        <ele>178</ele>
        <time>2017-02-05T12:26:31Z</time>
      </trkpt>
      <trkpt lat="48.29866" lon="2.65506">
        <ele>179</ele>
        <time>2017-02-05T12:26:36Z</time>
      </trkpt>
      <trkpt lat="48.29864" lon="2.65507">
        <ele>179</ele>
        <time>2017-02-05T12:26:37Z</time>
      </trkpt>
      <trkpt lat="48.2986" lon="2.65505">
        <ele>179</ele>
        <time>2017-02-05T12:26:40Z</time>
      </trkpt>
      <trkpt lat="48.29858" lon="2.65503">
        <ele>179</ele>
        <time>2017-02-05T12:26:41Z</time>
      </trkpt>
      <trkpt lat="48.29857" lon="2.65501">
        <ele>179</ele>
        <time>2017-02-05T12:26:42Z</time>
      </trkpt>
      <trkpt lat="48.29849" lon="2.65493">
        <ele>179</ele>
        <time>2017-02-05T12:26:45Z</time>
      </trkpt>
      <trkpt lat="48.29838" lon="2.65495">
        <ele>179</ele>
        <time>2017-02-05T12:26:49Z</time>
      </trkpt>
      <trkpt lat="48.29837" lon="2.65497">
        <ele>179</ele>
        <time>2017-02-05T12:26:50Z</time>
      </trkpt>
      <trkpt lat="48.29837" lon="2.65501">
        <ele>179</ele>
        <time>2017-02-05T12:26:51Z</time>
      </trkpt>
      <trkpt lat="48.29834" lon="2.65508">
        <ele>179</ele>
        <time>2017-02-05T12:26:54Z</time>
      </trkpt>
      <trkpt lat="48.2983" lon="2.65511">
        <ele>179</ele>
        <time>2017-02-05T12:26:56Z</time>
      </trkpt>
      <trkpt lat="48.29828" lon="2.65511">
        <ele>179</ele>
        <time>2017-02-05T12:26:57Z</time>
      </trkpt>
      <trkpt lat="48.29822" lon="2.65511">
        <ele>179</ele>
        <time>2017-02-05T12:26:59Z</time>
      </trkpt>
      <trkpt lat="48.29806" lon="2.65516">
        <ele>180</ele>
        <time>2017-02-05T12:27:05Z</time>
      </trkpt>
      <trkpt lat="48.29794" lon="2.65522">
        <ele>180</ele>
        <time>2017-02-05T12:27:10Z</time>
      </trkpt>
      <trkpt lat="48.29791" lon="2.65522">
        <ele>180</ele>
        <time>2017-02-05T12:27:11Z</time>
      </trkpt>
      <trkpt lat="48.29787" lon="2.65521">
        <ele>181</ele>
        <time>2017-02-05T12:27:13Z</time>
      </trkpt>
      <trkpt lat="48.29785" lon="2.65519">
        <ele>181</ele>
        <time>2017-02-05T12:27:14Z</time>
      </trkpt>
      <trkpt lat="48.29776" lon="2.65523">
        <ele>181</ele>
        <time>2017-02-05T12:27:18Z</time>
      </trkpt>
      <trkpt lat="48.29768" lon="2.65536">
        <ele>181</ele>
        <time>2017-02-05T12:27:23Z</time>
      </trkpt>
      <trkpt lat="48.29766" lon="2.65537">
        <ele>181</ele>
        <time>2017-02-05T12:27:24Z</time>
      </trkpt>
      <trkpt lat="48.2976" lon="2.65539">
        <ele>182</ele>
        <time>2017-02-05T12:27:27Z</time>
      </trkpt>
      <trkpt lat="48.29758" lon="2.65539">
        <ele>182</ele>
        <time>2017-02-05T12:27:28Z</time>
      </trkpt>
      <trkpt lat="48.29756" lon="2.65538">
        <ele>182</ele>
        <time>2017-02-05T12:27:30Z</time>
      </trkpt>
      <trkpt lat="48.29753" lon="2.65536">
        <ele>182</ele>
        <time>2017-02-05T12:27:32Z</time>
      </trkpt>
      <trkpt lat="48.29751" lon="2.65535">
        <ele>183</ele>
        <time>2017-02-05T12:27:33Z</time>
      </trkpt>
      <trkpt lat="48.29744" lon="2.65543">
        <ele>183</ele>
        <time>2017-02-05T12:27:37Z</time>
      </trkpt>
      <trkpt lat="48.29743" lon="2.6555">
        <ele>183</ele>
        <time>2017-02-05T12:27:40Z</time>
      </trkpt>
      <trkpt lat="48.29742" lon="2.65555">
        <ele>183</ele>
        <time>2017-02-05T12:27:42Z</time>
      </trkpt>
      <trkpt lat="48.29738" lon="2.65562">
        <ele>184</ele>
        <time>2017-02-05T12:27:45Z</time>
      </trkpt>
      <trkpt lat="48.29736" lon="2.65565">
        <ele>184</ele>
        <time>2017-02-05T12:27:46Z</time>
      </trkpt>
      <trkpt lat="48.29736" lon="2.65567">
        <ele>184</ele>
        <time>2017-02-05T12:27:47Z</time>
      </trkpt>
      <trkpt lat="48.29734" lon="2.65577">
        <ele>184</ele>
        <time>2017-02-05T12:27:51Z</time>
      </trkpt>
      <trkpt lat="48.29733" lon="2.65579">
        <ele>184</ele>
        <time>2017-02-05T12:27:52Z</time>
      </trkpt>
      <trkpt lat="48.29729" lon="2.65585">
        <ele>185</ele>
        <time>2017-02-05T12:27:55Z</time>
      </trkpt>
      <trkpt lat="48.29727" lon="2.65588">
        <ele>185</ele>
        <time>2017-02-05T12:27:57Z</time>
      </trkpt>
      <trkpt lat="48.29717" lon="2.65593">
        <ele>185</ele>
        <time>2017-02-05T12:28:02Z</time>
      </trkpt>
      <trkpt lat="48.29712" lon="2.65593">
        <ele>185</ele>
        <time>2017-02-05T12:28:05Z</time>
      </trkpt>
      <trkpt lat="48.29708" lon="2.6559">
        <ele>186</ele>
        <time>2017-02-05T12:28:07Z</time>
      </trkpt>
      <trkpt lat="48.29706" lon="2.65586">
        <ele>186</ele>
        <time>2017-02-05T12:28:08Z</time>
      </trkpt>
      <trkpt lat="48.29696" lon="2.65571">
        <ele>186</ele>
        <time>2017-02-05T12:28:12Z</time>
      </trkpt>
      <trkpt lat="48.29689" lon="2.65558">
        <ele>186</ele>
        <time>2017-02-05T12:28:15Z</time>
      </trkpt>
      <trkpt lat="48.29683" lon="2.65546">
        <ele>186</ele>
        <time>2017-02-05T12:28:17Z</time>
      </trkpt>
      <trkpt lat="48.29679" lon="2.65541">
        <ele>186</ele>
        <time>2017-02-05T12:28:18Z</time>
      </trkpt>
      <trkpt lat="48.29669" lon="2.65528">
        <ele>185</ele>
        <time>2017-02-05T12:28:21Z</time>
      </trkpt>
      <trkpt lat="48.29654" lon="2.65504">
        <ele>185</ele>
        <time>2017-02-05T12:28:26Z</time>
      </trkpt>
      <trkpt lat="48.29638" lon="2.65479">
        <ele>185</ele>
        <time>2017-02-05T12:28:32Z</time>
      </trkpt>
      <trkpt lat="48.29625" lon="2.65457">
        <ele>185</ele>
        <time>2017-02-05T12:28:37Z</time>
      </trkpt>
      <trkpt lat="48.29605" lon="2.65422">
        <ele>185</ele>
        <time>2017-02-05T12:28:44Z</time>
      </trkpt>
      <trkpt lat="48.29594" lon="2.65403">
        <ele>184</ele>
        <time>2017-02-05T12:28:49Z</time>
      </trkpt>
      <trkpt lat="48.29592" lon="2.65401">
        <ele>184</ele>
        <time>2017-02-05T12:28:50Z</time>
      </trkpt>
      <trkpt lat="48.29587" lon="2.65404">
        <ele>184</ele>
        <time>2017-02-05T12:28:53Z</time>
      </trkpt>
      <trkpt lat="48.29582" lon="2.65418">
        <ele>185</ele>
        <time>2017-02-05T12:28:58Z</time>
      </trkpt>
      <trkpt lat="48.2958" lon="2.65421">
        <ele>185</ele>
        <time>2017-02-05T12:28:59Z</time>
      </trkpt>
      <trkpt lat="48.29574" lon="2.65429">
        <ele>185</ele>
        <time>2017-02-05T12:29:02Z</time>
      </trkpt>
      <trkpt lat="48.2957" lon="2.65435">
        <ele>186</ele>
        <time>2017-02-05T12:29:04Z</time>
      </trkpt>
      <trkpt lat="48.29566" lon="2.65441">
        <ele>186</ele>
        <time>2017-02-05T12:29:07Z</time>
      </trkpt>
      <trkpt lat="48.29558" lon="2.65446">
        <ele>187</ele>
        <time>2017-02-05T12:29:11Z</time>
      </trkpt>
      <trkpt lat="48.29554" lon="2.65449">
        <ele>187</ele>
        <time>2017-02-05T12:29:13Z</time>
      </trkpt>
      <trkpt lat="48.29548" lon="2.65455">
        <ele>187</ele>
        <time>2017-02-05T12:29:16Z</time>
      </trkpt>
      <trkpt lat="48.29543" lon="2.65463">
        <ele>188</ele>
        <time>2017-02-05T12:29:21Z</time>
      </trkpt>
      <trkpt lat="48.29543" lon="2.65465">
        <ele>188</ele>
        <time>2017-02-05T12:29:22Z</time>
      </trkpt>
      <trkpt lat="48.29536" lon="2.65477">
        <ele>188</ele>
        <time>2017-02-05T12:29:26Z</time>
      </trkpt>
      <trkpt lat="48.29534" lon="2.65479">
        <ele>188</ele>
        <time>2017-02-05T12:29:27Z</time>
      </trkpt>
      <trkpt lat="48.29524" lon="2.65491">
        <ele>187</ele>
        <time>2017-02-05T12:29:31Z</time>
      </trkpt>
      <trkpt lat="48.29507" lon="2.65499">
        <ele>187</ele>
        <time>2017-02-05T12:29:37Z</time>
      </trkpt>
      <trkpt lat="48.29494" lon="2.65494">
        <ele>187</ele>
        <time>2017-02-05T12:29:41Z</time>
      </trkpt>
      <trkpt lat="48.29491" lon="2.65492">
        <ele>186</ele>
        <time>2017-02-05T12:29:42Z</time>
      </trkpt>
      <trkpt lat="48.2948" lon="2.6549">
        <ele>186</ele>
        <time>2017-02-05T12:29:46Z</time>
      </trkpt>
      <trkpt lat="48.29476" lon="2.65489">
        <ele>185</ele>
        <time>2017-02-05T12:29:47Z</time>
      </trkpt>
      <trkpt lat="48.29468" lon="2.65485">
        <ele>185</ele>
        <time>2017-02-05T12:29:49Z</time>
      </trkpt>
      <trkpt lat="48.29462" lon="2.65482">
        <ele>184</ele>
        <time>2017-02-05T12:29:51Z</time>
      </trkpt>
      <trkpt lat="48.29461" lon="2.6548">
        <ele>184</ele>
        <time>2017-02-05T12:29:52Z</time>
      </trkpt>
      <trkpt lat="48.2946" lon="2.65478">
        <ele>184</ele>
        <time>2017-02-05T12:29:53Z</time>
      </trkpt>
      <trkpt lat="48.2946" lon="2.65475">
        <ele>184</ele>
        <time>2017-02-05T12:29:54Z</time>
      </trkpt>
      <trkpt lat="48.29459" lon="2.65465">
        <ele>183</ele>
        <time>2017-02-05T12:29:56Z</time>
      </trkpt>
      <trkpt lat="48.29459" lon="2.65458">
        <ele>183</ele>
        <time>2017-02-05T12:29:57Z</time>
      </trkpt>
      <trkpt lat="48.29464" lon="2.65424">
        <ele>184</ele>
        <time>2017-02-05T12:30:03Z</time>
      </trkpt>
      <trkpt lat="48.29464" lon="2.65415">
        <ele>184</ele>
        <time>2017-02-05T12:30:05Z</time>
      </trkpt>
      <trkpt lat="48.2946" lon="2.65404">
        <ele>184</ele>
        <time>2017-02-05T12:30:07Z</time>
      </trkpt>
      <trkpt lat="48.29458" lon="2.65394">
        <ele>184</ele>
        <time>2017-02-05T12:30:09Z</time>
      </trkpt>
      <trkpt lat="48.29458" lon="2.6539">
        <ele>183</ele>
        <time>2017-02-05T12:30:10Z</time>
      </trkpt>
      <trkpt lat="48.29458" lon="2.65378">
        <ele>183</ele>
        <time>2017-02-05T12:30:12Z</time>
      </trkpt>
      <trkpt lat="48.29459" lon="2.6537">
        <ele>183</ele>
        <time>2017-02-05T12:30:13Z</time>
      </trkpt>
      <trkpt lat="48.29464" lon="2.65358">
        <ele>182</ele>
        <time>2017-02-05T12:30:15Z</time>
      </trkpt>
      <trkpt lat="48.29469" lon="2.65347">
        <ele>182</ele>
        <time>2017-02-05T12:30:17Z</time>
      </trkpt>
      <trkpt lat="48.29472" lon="2.65342">
        <ele>182</ele>
        <time>2017-02-05T12:30:18Z</time>
      </trkpt>
      <trkpt lat="48.29488" lon="2.65311">
        <ele>182</ele>
        <time>2017-02-05T12:30:24Z</time>
      </trkpt>
      <trkpt lat="48.29497" lon="2.65296">
        <ele>181</ele>
        <time>2017-02-05T12:30:28Z</time>
      </trkpt>
      <trkpt lat="48.295" lon="2.65292">
        <ele>181</ele>
        <time>2017-02-05T12:30:29Z</time>
      </trkpt>
      <trkpt lat="48.2951" lon="2.65271">
        <ele>181</ele>
        <time>2017-02-05T12:30:34Z</time>
      </trkpt>
      <trkpt lat="48.29518" lon="2.65257">
        <ele>181</ele>
        <time>2017-02-05T12:30:37Z</time>
      </trkpt>
      <trkpt lat="48.29528" lon="2.65241">
        <ele>181</ele>
        <time>2017-02-05T12:30:40Z</time>
      </trkpt>
      <trkpt lat="48.29548" lon="2.65206">
        <ele>180</ele>
        <time>2017-02-05T12:30:48Z</time>
      </trkpt>
      <trkpt lat="48.2956" lon="2.65182">
        <ele>181</ele>
        <time>2017-02-05T12:30:54Z</time>
      </trkpt>
      <trkpt lat="48.29572" lon="2.65161">
        <ele>181</ele>
        <time>2017-02-05T12:30:58Z</time>
      </trkpt>
      <trkpt lat="48.29587" lon="2.65139">
        <ele>180</ele>
        <time>2017-02-05T12:31:03Z</time>
      </trkpt>
      <trkpt lat="48.29599" lon="2.65115">
        <ele>180</ele>
        <time>2017-02-05T12:31:08Z</time>
      </trkpt>
      <trkpt lat="48.29598" lon="2.6511">
        <ele>180</ele>
        <time>2017-02-05T12:31:09Z</time>
      </trkpt>
      <trkpt lat="48.29592" lon="2.65095">
        <ele>181</ele>
        <time>2017-02-05T12:31:13Z</time>
      </trkpt>
      <trkpt lat="48.29593" lon="2.65088">
        <ele>181</ele>
        <time>2017-02-05T12:31:15Z</time>
      </trkpt>
      <trkpt lat="48.29595" lon="2.6508">
        <ele>181</ele>
        <time>2017-02-05T12:31:17Z</time>
      </trkpt>
      <trkpt lat="48.29596" lon="2.65067">
        <ele>181</ele>
        <time>2017-02-05T12:31:20Z</time>
      </trkpt>
      <trkpt lat="48.29595" lon="2.65059">
        <ele>181</ele>
        <time>2017-02-05T12:31:22Z</time>
      </trkpt>
      <trkpt lat="48.29591" lon="2.65043">
        <ele>180</ele>
        <time>2017-02-05T12:31:25Z</time>
      </trkpt>
      <trkpt lat="48.29587" lon="2.65038">
        <ele>180</ele>
        <time>2017-02-05T12:31:26Z</time>
      </trkpt>
      <trkpt lat="48.29572" lon="2.65024">
        <ele>180</ele>
        <time>2017-02-05T12:31:31Z</time>
      </trkpt>
      <trkpt lat="48.29562" lon="2.65014">
        <ele>181</ele>
        <time>2017-02-05T12:31:34Z</time>
      </trkpt>
      <trkpt lat="48.2956" lon="2.65011">
        <ele>181</ele>
        <time>2017-02-05T12:31:35Z</time>
      </trkpt>
      <trkpt lat="48.29545" lon="2.64994">
        <ele>181</ele>
        <time>2017-02-05T12:31:40Z</time>
      </trkpt>
      <trkpt lat="48.29541" lon="2.64992">
        <ele>181</ele>
        <time>2017-02-05T12:31:42Z</time>
      </trkpt>
      <trkpt lat="48.29533" lon="2.64987">
        <ele>181</ele>
        <time>2017-02-05T12:31:45Z</time>
      </trkpt>
      <trkpt lat="48.29527" lon="2.64985">
        <ele>181</ele>
        <time>2017-02-05T12:31:48Z</time>
      </trkpt>
      <trkpt lat="48.29524" lon="2.64981">
        <ele>182</ele>
        <time>2017-02-05T12:31:50Z</time>
      </trkpt>
      <trkpt lat="48.2952" lon="2.64978">
        <ele>182</ele>
        <time>2017-02-05T12:31:52Z</time>
      </trkpt>
      <trkpt lat="48.2951" lon="2.64974">
        <ele>181</ele>
        <time>2017-02-05T12:31:55Z</time>
      </trkpt>
      <trkpt lat="48.29498" lon="2.64978">
        <ele>180</ele>
        <time>2017-02-05T12:31:59Z</time>
      </trkpt>
      <trkpt lat="48.29491" lon="2.64977">
        <ele>180</ele>
        <time>2017-02-05T12:32:01Z</time>
      </trkpt>
      <trkpt lat="48.29488" lon="2.64976">
        <ele>180</ele>
        <time>2017-02-05T12:32:02Z</time>
      </trkpt>
      <trkpt lat="48.29481" lon="2.64972">
        <ele>181</ele>
        <time>2017-02-05T12:32:05Z</time>
      </trkpt>
      <trkpt lat="48.29476" lon="2.6497">
        <ele>181</ele>
        <time>2017-02-05T12:32:07Z</time>
      </trkpt>
      <trkpt lat="48.29468" lon="2.64966">
        <ele>182</ele>
        <time>2017-02-05T12:32:11Z</time>
      </trkpt>
      <trkpt lat="48.29454" lon="2.64957">
        <ele>182</ele>
        <time>2017-02-05T12:32:16Z</time>
      </trkpt>
      <trkpt lat="48.29449" lon="2.64943">
        <ele>181</ele>
        <time>2017-02-05T12:32:20Z</time>
      </trkpt>
      <trkpt lat="48.2945" lon="2.6492">
        <ele>182</ele>
        <time>2017-02-05T12:32:25Z</time>
      </trkpt>
      <trkpt lat="48.29449" lon="2.6491">
        <ele>182</ele>
        <time>2017-02-05T12:32:27Z</time>
      </trkpt>
      <trkpt lat="48.29442" lon="2.64906">
        <ele>181</ele>
        <time>2017-02-05T12:32:29Z</time>
      </trkpt>
      <trkpt lat="48.29436" lon="2.64897">
        <ele>181</ele>
        <time>2017-02-05T12:32:32Z</time>
      </trkpt>
      <trkpt lat="48.29434" lon="2.64888">
        <ele>181</ele>
        <time>2017-02-05T12:32:34Z</time>
      </trkpt>
      <trkpt lat="48.29427" lon="2.64874">
        <ele>180</ele>
        <time>2017-02-05T12:32:37Z</time>
      </trkpt>
      <trkpt lat="48.29418" lon="2.64861">
        <ele>180</ele>
        <time>2017-02-05T12:32:40Z</time>
      </trkpt>
      <trkpt lat="48.29417" lon="2.64857">
        <ele>180</ele>
        <time>2017-02-05T12:32:41Z</time>
      </trkpt>
      <trkpt lat="48.2941" lon="2.64839">
        <ele>180</ele>
        <time>2017-02-05T12:32:45Z</time>
      </trkpt>
      <trkpt lat="48.29395" lon="2.64828">
        <ele>180</ele>
        <time>2017-02-05T12:32:50Z</time>
      </trkpt>
      <trkpt lat="48.2938" lon="2.64823">
        <ele>180</ele>
        <time>2017-02-05T12:32:55Z</time>
      </trkpt>
      <trkpt lat="48.2937" lon="2.64804">
        <ele>180</ele>
        <time>2017-02-05T12:33:01Z</time>
      </trkpt>
      <trkpt lat="48.29357" lon="2.64797">
        <ele>180</ele>
        <time>2017-02-05T12:33:05Z</time>
      </trkpt>
      <trkpt lat="48.29351" lon="2.64792">
        <ele>180</ele>
        <time>2017-02-05T12:33:07Z</time>
      </trkpt>
      <trkpt lat="48.29329" lon="2.64778">
        <ele>180</ele>
        <time>2017-02-05T12:33:14Z</time>
      </trkpt>
      <trkpt lat="48.29324" lon="2.64774">
        <ele>180</ele>
        <time>2017-02-05T12:33:16Z</time>
      </trkpt>
      <trkpt lat="48.29319" lon="2.6477">
        <ele>180</ele>
        <time>2017-02-05T12:33:18Z</time>
      </trkpt>
      <trkpt lat="48.29307" lon="2.64761">
        <ele>179</ele>
        <time>2017-02-05T12:33:24Z</time>
      </trkpt>
      <trkpt lat="48.2929" lon="2.64761">
        <ele>180</ele>
        <time>2017-02-05T12:33:30Z</time>
      </trkpt>
      <trkpt lat="48.29276" lon="2.64778">
        <ele>180</ele>
        <time>2017-02-05T12:33:36Z</time>
      </trkpt>
      <trkpt lat="48.2926" lon="2.64798">
        <ele>180</ele>
        <time>2017-02-05T12:33:42Z</time>
      </trkpt>
      <trkpt lat="48.29251" lon="2.64811">
        <ele>180</ele>
        <time>2017-02-05T12:33:46Z</time>
      </trkpt>
      <trkpt lat="48.29238" lon="2.6483">
        <ele>180</ele>
        <time>2017-02-05T12:33:52Z</time>
      </trkpt>
      <trkpt lat="48.29229" lon="2.64845">
        <ele>180</ele>
        <time>2017-02-05T12:33:57Z</time>
      </trkpt>
      <trkpt lat="48.29221" lon="2.6486">
        <ele>180</ele>
        <time>2017-02-05T12:34:02Z</time>
      </trkpt>
      <trkpt lat="48.29211" lon="2.64876">
        <ele>180</ele>
        <time>2017-02-05T12:34:07Z</time>
      </trkpt>
      <trkpt lat="48.292" lon="2.64894">
        <ele>180</ele>
        <time>2017-02-05T12:34:12Z</time>
      </trkpt>
      <trkpt lat="48.29192" lon="2.64907">
        <ele>181</ele>
        <time>2017-02-05T12:34:16Z</time>
      </trkpt>
      <trkpt lat="48.29192" lon="2.64909">
        <ele>181</ele>
        <time>2017-02-05T12:34:17Z</time>
      </trkpt>
      <trkpt lat="48.2918" lon="2.64926">
        <ele>181</ele>
        <time>2017-02-05T12:34:22Z</time>
      </trkpt>
      <trkpt lat="48.29171" lon="2.64939">
        <ele>181</ele>
        <time>2017-02-05T12:34:26Z</time>
      </trkpt>
      <trkpt lat="48.29166" lon="2.64946">
        <ele>182</ele>
        <time>2017-02-05T12:34:28Z</time>
      </trkpt>
      <trkpt lat="48.29159" lon="2.64957">
        <ele>182</ele>
        <time>2017-02-05T12:34:31Z</time>
      </trkpt>
      <trkpt lat="48.29153" lon="2.64967">
        <ele>182</ele>
        <time>2017-02-05T12:34:34Z</time>
      </trkpt>
      <trkpt lat="48.2914" lon="2.64985">
        <ele>182</ele>
        <time>2017-02-05T12:34:40Z</time>
      </trkpt>
      <trkpt lat="48.29132" lon="2.64997">
        <ele>182</ele>
        <time>2017-02-05T12:34:44Z</time>
      </trkpt>
      <trkpt lat="48.2913" lon="2.65001">
        <ele>182</ele>
        <time>2017-02-05T12:34:45Z</time>
      </trkpt>
      <trkpt lat="48.29122" lon="2.65017">
        <ele>183</ele>
        <time>2017-02-05T12:34:49Z</time>
      </trkpt>
      <trkpt lat="48.29109" lon="2.6504">
        <ele>183</ele>
        <time>2017-02-05T12:34:56Z</time>
      </trkpt>
      <trkpt lat="48.29095" lon="2.65062">
        <ele>184</ele>
        <time>2017-02-05T12:35:03Z</time>
      </trkpt>
      <trkpt lat="48.2908" lon="2.65082">
        <ele>185</ele>
        <time>2017-02-05T12:35:09Z</time>
      </trkpt>
      <trkpt lat="48.29078" lon="2.65085">
        <ele>185</ele>
        <time>2017-02-05T12:35:10Z</time>
      </trkpt>
      <trkpt lat="48.29066" lon="2.65101">
        <ele>186</ele>
        <time>2017-02-05T12:35:16Z</time>
      </trkpt>
      <trkpt lat="48.29063" lon="2.65106">
        <ele>186</ele>
        <time>2017-02-05T12:35:18Z</time>
      </trkpt>
      <trkpt lat="48.29059" lon="2.65113">
        <ele>187</ele>
        <time>2017-02-05T12:35:21Z</time>
      </trkpt>
      <trkpt lat="48.29055" lon="2.65119">
        <ele>188</ele>
        <time>2017-02-05T12:35:24Z</time>
      </trkpt>
      <trkpt lat="48.2905" lon="2.65126">
        <ele>188</ele>
        <time>2017-02-05T12:35:27Z</time>
      </trkpt>
      <trkpt lat="48.29045" lon="2.65135">
        <ele>189</ele>
        <time>2017-02-05T12:35:31Z</time>
      </trkpt>
      <trkpt lat="48.29044" lon="2.65138">
        <ele>189</ele>
        <time>2017-02-05T12:35:32Z</time>
      </trkpt>
      <trkpt lat="48.29044" lon="2.6514">
        <ele>189</ele>
        <time>2017-02-05T12:35:33Z</time>
      </trkpt>
      <trkpt lat="48.29036" lon="2.65151">
        <ele>189</ele>
        <time>2017-02-05T12:35:39Z</time>
      </trkpt>
      <trkpt lat="48.29034" lon="2.65153">
        <ele>190</ele>
        <time>2017-02-05T12:35:40Z</time>
      </trkpt>
      <trkpt lat="48.29023" lon="2.65172">
        <ele>190</ele>
        <time>2017-02-05T12:35:46Z</time>
      </trkpt>
      <trkpt lat="48.29021" lon="2.65176">
        <ele>191</ele>
        <time>2017-02-05T12:35:47Z</time>
      </trkpt>
      <trkpt lat="48.29016" lon="2.65184">
        <ele>191</ele>
        <time>2017-02-05T12:35:49Z</time>
      </trkpt>
      <trkpt lat="48.2901" lon="2.65192">
        <ele>191</ele>
        <time>2017-02-05T12:35:51Z</time>
      </trkpt>
      <trkpt lat="48.28997" lon="2.65211">
        <ele>191</ele>
        <time>2017-02-05T12:35:56Z</time>
      </trkpt>
      <trkpt lat="48.28988" lon="2.65228">
        <ele>191</ele>
        <time>2017-02-05T12:36:01Z</time>
      </trkpt>
      <trkpt lat="48.28976" lon="2.65242">
        <ele>191</ele>
        <time>2017-02-05T12:36:06Z</time>
      </trkpt>
      <trkpt lat="48.28962" lon="2.65262">
        <ele>191</ele>
        <time>2017-02-05T12:36:11Z</time>
      </trkpt>
      <trkpt lat="48.28946" lon="2.65286">
        <ele>192</ele>
        <time>2017-02-05T12:36:16Z</time>
      </trkpt>
      <trkpt lat="48.28942" lon="2.65291">
        <ele>192</ele>
        <time>2017-02-05T12:36:17Z</time>
      </trkpt>
      <trkpt lat="48.28928" lon="2.65311">
        <ele>192</ele>
        <time>2017-02-05T12:36:22Z</time>
      </trkpt>
      <trkpt lat="48.28912" lon="2.65337">
        <ele>191</ele>
        <time>2017-02-05T12:36:28Z</time>
      </trkpt>
      <trkpt lat="48.28893" lon="2.65365">
        <ele>191</ele>
        <time>2017-02-05T12:36:34Z</time>
      </trkpt>
      <trkpt lat="48.28875" lon="2.6539">
        <ele>191</ele>
        <time>2017-02-05T12:36:40Z</time>
      </trkpt>
      <trkpt lat="48.28867" lon="2.65399">
        <ele>191</ele>
        <time>2017-02-05T12:36:44Z</time>
      </trkpt>
      <trkpt lat="48.2886" lon="2.65389">
        <ele>191</ele>
        <time>2017-02-05T12:36:48Z</time>
      </trkpt>
      <trkpt lat="48.28859" lon="2.65385">
        <ele>191</ele>
        <time>2017-02-05T12:36:49Z</time>
      </trkpt>
      <trkpt lat="48.28849" lon="2.65355">
        <ele>191</ele>
        <time>2017-02-05T12:36:56Z</time>
      </trkpt>
      <trkpt lat="48.28838" lon="2.65327">
        <ele>191</ele>
        <time>2017-02-05T12:37:01Z</time>
      </trkpt>
      <trkpt lat="48.28824" lon="2.65293">
        <ele>191</ele>
        <time>2017-02-05T12:37:07Z</time>
      </trkpt>
      <trkpt lat="48.28809" lon="2.65256">
        <ele>191</ele>
        <time>2017-02-05T12:37:14Z</time>
      </trkpt>
      <trkpt lat="48.28798" lon="2.65225">
        <ele>191</ele>
        <time>2017-02-05T12:37:20Z</time>
      </trkpt>
      <trkpt lat="48.28789" lon="2.65215">
        <ele>191</ele>
        <time>2017-02-05T12:37:23Z</time>
      </trkpt>
      <trkpt lat="48.28774" lon="2.65217">
        <ele>191</ele>
        <time>2017-02-05T12:37:28Z</time>
      </trkpt>
      <trkpt lat="48.28754" lon="2.65229">
        <ele>191</ele>
        <time>2017-02-05T12:37:33Z</time>
      </trkpt>
      <trkpt lat="48.2874" lon="2.65237">
        <ele>191</ele>
        <time>2017-02-05T12:37:37Z</time>
      </trkpt>
      <trkpt lat="48.28721" lon="2.65249">
        <ele>191</ele>
        <time>2017-02-05T12:37:42Z</time>
      </trkpt>
      <trkpt lat="48.28706" lon="2.65259">
        <ele>191</ele>
        <time>2017-02-05T12:37:46Z</time>
      </trkpt>
      <trkpt lat="48.28684" lon="2.65272">
        <ele>190</ele>
        <time>2017-02-05T12:37:52Z</time>
      </trkpt>
      <trkpt lat="48.28676" lon="2.65272">
        <ele>190</ele>
        <time>2017-02-05T12:37:54Z</time>
      </trkpt>
      <trkpt lat="48.2867" lon="2.65267">
        <ele>189</ele>
        <time>2017-02-05T12:37:56Z</time>
      </trkpt>
      <trkpt lat="48.28668" lon="2.65263">
        <ele>189</ele>
        <time>2017-02-05T12:37:57Z</time>
      </trkpt>
      <trkpt lat="48.28665" lon="2.65252">
        <ele>189</ele>
        <time>2017-02-05T12:37:59Z</time>
      </trkpt>
      <trkpt lat="48.28661" lon="2.6524">
        <ele>189</ele>
        <time>2017-02-05T12:38:01Z</time>
      </trkpt>
      <trkpt lat="48.28657" lon="2.65229">
        <ele>189</ele>
        <time>2017-02-05T12:38:03Z</time>
      </trkpt>
      <trkpt lat="48.28655" lon="2.65219">
        <ele>188</ele>
        <time>2017-02-05T12:38:05Z</time>
      </trkpt>
      <trkpt lat="48.2865" lon="2.65195">
        <ele>190</ele>
        <time>2017-02-05T12:38:10Z</time>
      </trkpt>
      <trkpt lat="48.28649" lon="2.65189">
        <ele>190</ele>
        <time>2017-02-05T12:38:11Z</time>
      </trkpt>
      <trkpt lat="48.28643" lon="2.65165">
        <ele>190</ele>
        <time>2017-02-05T12:38:16Z</time>
      </trkpt>
      <trkpt lat="48.28631" lon="2.65121">
        <ele>191</ele>
        <time>2017-02-05T12:38:23Z</time>
      </trkpt>
      <trkpt lat="48.28625" lon="2.65093">
        <ele>190</ele>
        <time>2017-02-05T12:38:28Z</time>
      </trkpt>
      <trkpt lat="48.28618" lon="2.65063">
        <ele>190</ele>
        <time>2017-02-05T12:38:33Z</time>
      </trkpt>
      <trkpt lat="48.28609" lon="2.6503">
        <ele>190</ele>
        <time>2017-02-05T12:38:38Z</time>
      </trkpt>
      <trkpt lat="48.28607" lon="2.65024">
        <ele>190</ele>
        <time>2017-02-05T12:38:39Z</time>
      </trkpt>
      <trkpt lat="48.28599" lon="2.65016">
        <ele>190</ele>
        <time>2017-02-05T12:38:41Z</time>
      </trkpt>
      <trkpt lat="48.28589" lon="2.65023">
        <ele>190</ele>
        <time>2017-02-05T12:38:44Z</time>
      </trkpt>
      <trkpt lat="48.28573" lon="2.65041">
        <ele>191</ele>
        <time>2017-02-05T12:38:49Z</time>
      </trkpt>
      <trkpt lat="48.28569" lon="2.65045">
        <ele>191</ele>
        <time>2017-02-05T12:38:50Z</time>
      </trkpt>
      <trkpt lat="48.28552" lon="2.65062">
        <ele>192</ele>
        <time>2017-02-05T12:38:55Z</time>
      </trkpt>
      <trkpt lat="48.28546" lon="2.6507">
        <ele>192</ele>
        <time>2017-02-05T12:38:57Z</time>
      </trkpt>
      <trkpt lat="48.28531" lon="2.6509">
        <ele>192</ele>
        <time>2017-02-05T12:39:02Z</time>
      </trkpt>
      <trkpt lat="48.28512" lon="2.65113">
        <ele>192</ele>
        <time>2017-02-05T12:39:08Z</time>
      </trkpt>
      <trkpt lat="48.28491" lon="2.65139">
        <ele>192</ele>
        <time>2017-02-05T12:39:14Z</time>
      </trkpt>
      <trkpt lat="48.2847" lon="2.65165">
        <ele>192</ele>
        <time>2017-02-05T12:39:20Z</time>
      </trkpt>
      <trkpt lat="48.28448" lon="2.65193">
        <ele>193</ele>
        <time>2017-02-05T12:39:27Z</time>
      </trkpt>
      <trkpt lat="48.28425" lon="2.65221">
        <ele>193</ele>
        <time>2017-02-05T12:39:34Z</time>
      </trkpt>
      <trkpt lat="48.28415" lon="2.65234">
        <ele>193</ele>
        <time>2017-02-05T12:39:37Z</time>
      </trkpt>
      <trkpt lat="48.28409" lon="2.65241">
        <ele>193</ele>
        <time>2017-02-05T12:39:39Z</time>
      </trkpt>
      <trkpt lat="48.28389" lon="2.65267">
        <ele>193</ele>
        <time>2017-02-05T12:39:46Z</time>
      </trkpt>
      <trkpt lat="48.28375" lon="2.65286">
        <ele>193</ele>
        <time>2017-02-05T12:39:51Z</time>
      </trkpt>
      <trkpt lat="48.2835" lon="2.65318">
        <ele>193</ele>
        <time>2017-02-05T12:39:58Z</time>
      </trkpt>
      <trkpt lat="48.2833" lon="2.65339">
        <ele>193</ele>
        <time>2017-02-05T12:40:03Z</time>
      </trkpt>
      <trkpt lat="48.28317" lon="2.65356">
        <ele>193</ele>
        <time>2017-02-05T12:40:07Z</time>
      </trkpt>
      <trkpt lat="48.28295" lon="2.65386">
        <ele>193</ele>
        <time>2017-02-05T12:40:13Z</time>
      </trkpt>
      <trkpt lat="48.28287" lon="2.65395">
        <ele>192</ele>
        <time>2017-02-05T12:40:15Z</time>
      </trkpt>
      <trkpt lat="48.28273" lon="2.6541">
        <ele>192</ele>
        <time>2017-02-05T12:40:19Z</time>
      </trkpt>
      <trkpt lat="48.28251" lon="2.6544">
        <ele>193</ele>
        <time>2017-02-05T12:40:26Z</time>
      </trkpt>
      <trkpt lat="48.28242" lon="2.65451">
        <ele>192</ele>
        <time>2017-02-05T12:40:29Z</time>
      </trkpt>
      <trkpt lat="48.28232" lon="2.65463">
        <ele>192</ele>
        <time>2017-02-05T12:40:32Z</time>
      </trkpt>
      <trkpt lat="48.28218" lon="2.65481">
        <ele>192</ele>
        <time>2017-02-05T12:40:35Z</time>
      </trkpt>
      <trkpt lat="48.28215" lon="2.65486">
        <ele>192</ele>
        <time>2017-02-05T12:40:36Z</time>
      </trkpt>
      <trkpt lat="48.28188" lon="2.65519">
        <ele>192</ele>
        <time>2017-02-05T12:40:43Z</time>
      </trkpt>
      <trkpt lat="48.28171" lon="2.65543">
        <ele>192</ele>
        <time>2017-02-05T12:40:48Z</time>
      </trkpt>
      <trkpt lat="48.28153" lon="2.65563">
        <ele>193</ele>
        <time>2017-02-05T12:40:54Z</time>
      </trkpt>
      <trkpt lat="48.28147" lon="2.65572">
        <ele>193</ele>
        <time>2017-02-05T12:40:56Z</time>
      </trkpt>
      <trkpt lat="48.2813" lon="2.65594">
        <ele>192</ele>
        <time>2017-02-05T12:41:01Z</time>
      </trkpt>
      <trkpt lat="48.28117" lon="2.65609">
        <ele>192</ele>
        <time>2017-02-05T12:41:05Z</time>
      </trkpt>
      <trkpt lat="48.28114" lon="2.65613">
        <ele>192</ele>
        <time>2017-02-05T12:41:06Z</time>
      </trkpt>
      <trkpt lat="48.28099" lon="2.65633">
        <ele>192</ele>
        <time>2017-02-05T12:41:10Z</time>
      </trkpt>
      <trkpt lat="48.28074" lon="2.65668">
        <ele>193</ele>
        <time>2017-02-05T12:41:17Z</time>
      </trkpt>
      <trkpt lat="48.28053" lon="2.65696">
        <ele>193</ele>
        <time>2017-02-05T12:41:23Z</time>
      </trkpt>
      <trkpt lat="48.28036" lon="2.65717">
        <ele>193</ele>
        <time>2017-02-05T12:41:28Z</time>
      </trkpt>
      <trkpt lat="48.28019" lon="2.65735">
        <ele>193</ele>
        <time>2017-02-05T12:41:32Z</time>
      </trkpt>
      <trkpt lat="48.28014" lon="2.6574">
        <ele>193</ele>
        <time>2017-02-05T12:41:33Z</time>
      </trkpt>
      <trkpt lat="48.28002" lon="2.6576">
        <ele>193</ele>
        <time>2017-02-05T12:41:37Z</time>
      </trkpt>
      <trkpt lat="48.27987" lon="2.65779">
        <ele>193</ele>
        <time>2017-02-05T12:41:42Z</time>
      </trkpt>
      <trkpt lat="48.27971" lon="2.65797">
        <ele>193</ele>
        <time>2017-02-05T12:41:47Z</time>
      </trkpt>
      <trkpt lat="48.27955" lon="2.65817">
        <ele>192</ele>
        <time>2017-02-05T12:41:52Z</time>
      </trkpt>
      <trkpt lat="48.27944" lon="2.65831">
        <ele>193</ele>
        <time>2017-02-05T12:41:55Z</time>
      </trkpt>
      <trkpt lat="48.27932" lon="2.65845">
        <ele>192</ele>
        <time>2017-02-05T12:41:58Z</time>
      </trkpt>
      <trkpt lat="48.27918" lon="2.65867">
        <ele>193</ele>
        <time>2017-02-05T12:42:03Z</time>
      </trkpt>
      <trkpt lat="48.27917" lon="2.65873">
        <ele>192</ele>
        <time>2017-02-05T12:42:04Z</time>
      </trkpt>
      <trkpt lat="48.27909" lon="2.65911">
        <ele>193</ele>
        <time>2017-02-05T12:42:10Z</time>
      </trkpt>
      <trkpt lat="48.27907" lon="2.65942">
        <ele>193</ele>
        <time>2017-02-05T12:42:15Z</time>
      </trkpt>
      <trkpt lat="48.27909" lon="2.6599">
        <ele>192</ele>
        <time>2017-02-05T12:42:22Z</time>
      </trkpt>
      <trkpt lat="48.27911" lon="2.66003">
        <ele>192</ele>
        <time>2017-02-05T12:42:24Z</time>
      </trkpt>
      <trkpt lat="48.27916" lon="2.6603">
        <ele>192</ele>
        <time>2017-02-05T12:42:28Z</time>
      </trkpt>
      <trkpt lat="48.27922" lon="2.66055">
        <ele>192</ele>
        <time>2017-02-05T12:42:33Z</time>
      </trkpt>
      <trkpt lat="48.27926" lon="2.66084">
        <ele>192</ele>
        <time>2017-02-05T12:42:38Z</time>
      </trkpt>
      <trkpt lat="48.27932" lon="2.66111">
        <ele>191</ele>
        <time>2017-02-05T12:42:43Z</time>
      </trkpt>
      <trkpt lat="48.27934" lon="2.66116">
        <ele>192</ele>
        <time>2017-02-05T12:42:44Z</time>
      </trkpt>
      <trkpt lat="48.27939" lon="2.66147">
        <ele>191</ele>
        <time>2017-02-05T12:42:49Z</time>
      </trkpt>
      <trkpt lat="48.27941" lon="2.66154">
        <ele>191</ele>
        <time>2017-02-05T12:42:50Z</time>
      </trkpt>
      <trkpt lat="48.27946" lon="2.66183">
        <ele>191</ele>
        <time>2017-02-05T12:42:55Z</time>
      </trkpt>
      <trkpt lat="48.2795" lon="2.66222">
        <ele>192</ele>
        <time>2017-02-05T12:43:01Z</time>
      </trkpt>
      <trkpt lat="48.27951" lon="2.66229">
        <ele>192</ele>
        <time>2017-02-05T12:43:02Z</time>
      </trkpt>
      <trkpt lat="48.27956" lon="2.66249">
        <ele>192</ele>
        <time>2017-02-05T12:43:05Z</time>
      </trkpt>
      <trkpt lat="48.2796" lon="2.66271">
        <ele>191</ele>
        <time>2017-02-05T12:43:09Z</time>
      </trkpt>
      <trkpt lat="48.27968" lon="2.66311">
        <ele>191</ele>
        <time>2017-02-05T12:43:16Z</time>
      </trkpt>
      <trkpt lat="48.2797" lon="2.66324">
        <ele>191</ele>
        <time>2017-02-05T12:43:18Z</time>
      </trkpt>
      <trkpt lat="48.27974" lon="2.66342">
        <ele>191</ele>
        <time>2017-02-05T12:43:21Z</time>
      </trkpt>
      <trkpt lat="48.27982" lon="2.66378">
        <ele>190</ele>
        <time>2017-02-05T12:43:27Z</time>
      </trkpt>
      <trkpt lat="48.27983" lon="2.66383">
        <ele>190</ele>
        <time>2017-02-05T12:43:28Z</time>
      </trkpt>
      <trkpt lat="48.27989" lon="2.66399">
        <ele>190</ele>
        <time>2017-02-05T12:43:32Z</time>
      </trkpt>
      <trkpt lat="48.27993" lon="2.66421">
        <ele>190</ele>
        <time>2017-02-05T12:43:37Z</time>
      </trkpt>
      <trkpt lat="48.27997" lon="2.66443">
        <ele>190</ele>
        <time>2017-02-05T12:43:42Z</time>
      </trkpt>
      <trkpt lat="48.28005" lon="2.66471">
        <ele>191</ele>
        <time>2017-02-05T12:43:48Z</time>
      </trkpt>
      <trkpt lat="48.28013" lon="2.66495">
        <ele>191</ele>
        <time>2017-02-05T12:43:53Z</time>
      </trkpt>
      <trkpt lat="48.28015" lon="2.66499">
        <ele>191</ele>
        <time>2017-02-05T12:43:54Z</time>
      </trkpt>
      <trkpt lat="48.28024" lon="2.66526">
        <ele>191</ele>
        <time>2017-02-05T12:43:59Z</time>
      </trkpt>
      <trkpt lat="48.28026" lon="2.66534">
        <ele>191</ele>
        <time>2017-02-05T12:44:01Z</time>
      </trkpt>
      <trkpt lat="48.2803" lon="2.66541">
        <ele>192</ele>
        <time>2017-02-05T12:44:03Z</time>
      </trkpt>
      <trkpt lat="48.28033" lon="2.66558">
        <ele>192</ele>
        <time>2017-02-05T12:44:08Z</time>
      </trkpt>
      <trkpt lat="48.28028" lon="2.6656">
        <ele>192</ele>
        <time>2017-02-05T12:44:11Z</time>
      </trkpt>
      <trkpt lat="48.28025" lon="2.6656">
        <ele>192</ele>
        <time>2017-02-05T12:44:12Z</time>
      </trkpt>
      <trkpt lat="48.28016" lon="2.6656">
        <ele>192</ele>
        <time>2017-02-05T12:44:15Z</time>
      </trkpt>
      <trkpt lat="48.28007" lon="2.66556">
        <ele>192</ele>
        <time>2017-02-05T12:44:19Z</time>
      </trkpt>
      <trkpt lat="48.28005" lon="2.66555">
        <ele>192</ele>
        <time>2017-02-05T12:44:20Z</time>
      </trkpt>
      <trkpt lat="48.27996" lon="2.66557">
        <ele>192</ele>
        <time>2017-02-05T12:44:23Z</time>
      </trkpt>
      <trkpt lat="48.27993" lon="2.66558">
        <ele>192</ele>
        <time>2017-02-05T12:44:24Z</time>
      </trkpt>
      <trkpt lat="48.2799" lon="2.66558">
        <ele>191</ele>
        <time>2017-02-05T12:44:25Z</time>
      </trkpt>
      <trkpt lat="48.27985" lon="2.66556">
        <ele>192</ele>
        <time>2017-02-05T12:44:27Z</time>
      </trkpt>
      <trkpt lat="48.27977" lon="2.6655">
        <ele>192</ele>
        <time>2017-02-05T12:44:31Z</time>
      </trkpt>
      <trkpt lat="48.27974" lon="2.66553">
        <ele>192</ele>
        <time>2017-02-05T12:44:33Z</time>
      </trkpt>
      <trkpt lat="48.2797" lon="2.66554">
        <ele>192</ele>
        <time>2017-02-05T12:44:34Z</time>
      </trkpt>
      <trkpt lat="48.27955" lon="2.66552">
        <ele>192</ele>
        <time>2017-02-05T12:44:39Z</time>
      </trkpt>
      <trkpt lat="48.27948" lon="2.6655">
        <ele>192</ele>
        <time>2017-02-05T12:44:42Z</time>
      </trkpt>
      <trkpt lat="48.27946" lon="2.66551">
        <ele>192</ele>
        <time>2017-02-05T12:44:43Z</time>
      </trkpt>
      <trkpt lat="48.27943" lon="2.66554">
        <ele>192</ele>
        <time>2017-02-05T12:44:45Z</time>
      </trkpt>
      <trkpt lat="48.27937" lon="2.6656">
        <ele>192</ele>
        <time>2017-02-05T12:44:48Z</time>
      </trkpt>
      <trkpt lat="48.27928" lon="2.66566">
        <ele>192</ele>
        <time>2017-02-05T12:44:52Z</time>
      </trkpt>
      <trkpt lat="48.27914" lon="2.6657">
        <ele>192</ele>
        <time>2017-02-05T12:44:56Z</time>
      </trkpt>
      <trkpt lat="48.27903" lon="2.6658">
        <ele>192</ele>
        <time>2017-02-05T12:45:01Z</time>
      </trkpt>
      <trkpt lat="48.27891" lon="2.66588">
        <ele>193</ele>
        <time>2017-02-05T12:45:06Z</time>
      </trkpt>
      <trkpt lat="48.27878" lon="2.66592">
        <ele>193</ele>
        <time>2017-02-05T12:45:10Z</time>
      </trkpt>
      <trkpt lat="48.27875" lon="2.66589">
        <ele>193</ele>
        <time>2017-02-05T12:45:12Z</time>
      </trkpt>
      <trkpt lat="48.27873" lon="2.66587">
        <ele>193</ele>
        <time>2017-02-05T12:45:13Z</time>
      </trkpt>
      <trkpt lat="48.27866" lon="2.66593">
        <ele>193</ele>
        <time>2017-02-05T12:45:16Z</time>
      </trkpt>
      <trkpt lat="48.27864" lon="2.66597">
        <ele>193</ele>
        <time>2017-02-05T12:45:17Z</time>
      </trkpt>
      <trkpt lat="48.27862" lon="2.66599">
        <ele>193</ele>
        <time>2017-02-05T12:45:18Z</time>
      </trkpt>
      <trkpt lat="48.27855" lon="2.66602">
        <ele>193</ele>
        <time>2017-02-05T12:45:20Z</time>
      </trkpt>
      <trkpt lat="48.27849" lon="2.66605">
        <ele>193</ele>
        <time>2017-02-05T12:45:22Z</time>
      </trkpt>
      <trkpt lat="48.27836" lon="2.6661">
        <ele>193</ele>
        <time>2017-02-05T12:45:26Z</time>
      </trkpt>
      <trkpt lat="48.27823" lon="2.66613">
        <ele>193</ele>
        <time>2017-02-05T12:45:30Z</time>
      </trkpt>
      <trkpt lat="48.27822" lon="2.66614">
        <ele>193</ele>
        <time>2017-02-05T12:45:31Z</time>
      </trkpt>
      <trkpt lat="48.27816" lon="2.66621">
        <ele>193</ele>
        <time>2017-02-05T12:45:34Z</time>
      </trkpt>
      <trkpt lat="48.27807" lon="2.66643">
        <ele>193</ele>
        <time>2017-02-05T12:45:39Z</time>
      </trkpt>
      <trkpt lat="48.27799" lon="2.66656">
        <ele>193</ele>
        <time>2017-02-05T12:45:43Z</time>
      </trkpt>
      <trkpt lat="48.27795" lon="2.6666">
        <ele>193</ele>
        <time>2017-02-05T12:45:45Z</time>
      </trkpt>
      <trkpt lat="48.27794" lon="2.66661">
        <ele>193</ele>
        <time>2017-02-05T12:45:48Z</time>
      </trkpt>
      <trkpt lat="48.27794" lon="2.66664">
        <ele>193</ele>
        <time>2017-02-05T12:45:56Z</time>
      </trkpt>
      <trkpt lat="48.27792" lon="2.66667">
        <ele>193</ele>
        <time>2017-02-05T12:46:01Z</time>
      </trkpt>
      <trkpt lat="48.2779" lon="2.66667">
        <ele>193</ele>
        <time>2017-02-05T12:46:02Z</time>
      </trkpt>
      <trkpt lat="48.27776" lon="2.66675">
        <ele>193</ele>
        <time>2017-02-05T12:46:07Z</time>
      </trkpt>
      <trkpt lat="48.27755" lon="2.66679">
        <ele>193</ele>
        <time>2017-02-05T12:46:13Z</time>
      </trkpt>
      <trkpt lat="48.27737" lon="2.66682">
        <ele>193</ele>
        <time>2017-02-05T12:46:18Z</time>
      </trkpt>
      <trkpt lat="48.27722" lon="2.66683">
        <ele>192</ele>
        <time>2017-02-05T12:46:22Z</time>
      </trkpt>
      <trkpt lat="48.27719" lon="2.66682">
        <ele>192</ele>
        <time>2017-02-05T12:46:23Z</time>
      </trkpt>
      <trkpt lat="48.27718" lon="2.66678">
        <ele>192</ele>
        <time>2017-02-05T12:46:24Z</time>
      </trkpt>
      <trkpt lat="48.27718" lon="2.66671">
        <ele>192</ele>
        <time>2017-02-05T12:46:26Z</time>
      </trkpt>
      <trkpt lat="48.27716" lon="2.6666">
        <ele>192</ele>
        <time>2017-02-05T12:46:29Z</time>
      </trkpt>
      <trkpt lat="48.27713" lon="2.66651">
        <ele>192</ele>
        <time>2017-02-05T12:46:31Z</time>
      </trkpt>
      <trkpt lat="48.27709" lon="2.66625">
        <ele>192</ele>
        <time>2017-02-05T12:46:36Z</time>
      </trkpt>
      <trkpt lat="48.27706" lon="2.66609">
        <ele>191</ele>
        <time>2017-02-05T12:46:39Z</time>
      </trkpt>
      <trkpt lat="48.27704" lon="2.66604">
        <ele>191</ele>
        <time>2017-02-05T12:46:40Z</time>
      </trkpt>
      <trkpt lat="48.27697" lon="2.66587">
        <ele>191</ele>
        <time>2017-02-05T12:46:44Z</time>
      </trkpt>
      <trkpt lat="48.27693" lon="2.66571">
        <ele>190</ele>
        <time>2017-02-05T12:46:48Z</time>
      </trkpt>
      <trkpt lat="48.2769" lon="2.66568">
        <ele>190</ele>
        <time>2017-02-05T12:46:49Z</time>
      </trkpt>
      <trkpt lat="48.27684" lon="2.66556">
        <ele>190</ele>
        <time>2017-02-05T12:46:53Z</time>
      </trkpt>
      <trkpt lat="48.27684" lon="2.66539">
        <ele>190</ele>
        <time>2017-02-05T12:46:57Z</time>
      </trkpt>
      <trkpt lat="48.2768" lon="2.66527">
        <ele>190</ele>
        <time>2017-02-05T12:47:02Z</time>
      </trkpt>
      <trkpt lat="48.27675" lon="2.6651">
        <ele>190</ele>
        <time>2017-02-05T12:47:07Z</time>
      </trkpt>
      <trkpt lat="48.27669" lon="2.6649">
        <ele>191</ele>
        <time>2017-02-05T12:47:13Z</time>
      </trkpt>
      <trkpt lat="48.27666" lon="2.6648">
        <ele>191</ele>
        <time>2017-02-05T12:47:16Z</time>
      </trkpt>
      <trkpt lat="48.27661" lon="2.66473">
        <ele>191</ele>
        <time>2017-02-05T12:47:19Z</time>
      </trkpt>
      <trkpt lat="48.27657" lon="2.6647">
        <ele>191</ele>
        <time>2017-02-05T12:47:21Z</time>
      </trkpt>
      <trkpt lat="48.27654" lon="2.66465">
        <ele>191</ele>
        <time>2017-02-05T12:47:24Z</time>
      </trkpt>
      <trkpt lat="48.27654" lon="2.66463">
        <ele>191</ele>
        <time>2017-02-05T12:47:25Z</time>
      </trkpt>
      <trkpt lat="48.2765" lon="2.6645">
        <ele>192</ele>
        <time>2017-02-05T12:47:30Z</time>
      </trkpt>
      <trkpt lat="48.27649" lon="2.66435">
        <ele>192</ele>
        <time>2017-02-05T12:47:35Z</time>
      </trkpt>
      <trkpt lat="48.27648" lon="2.66432">
        <ele>192</ele>
        <time>2017-02-05T12:47:36Z</time>
      </trkpt>
      <trkpt lat="48.27646" lon="2.66418">
        <ele>192</ele>
        <time>2017-02-05T12:47:40Z</time>
      </trkpt>
      <trkpt lat="48.2764" lon="2.66395">
        <ele>192</ele>
        <time>2017-02-05T12:47:45Z</time>
      </trkpt>
      <trkpt lat="48.27634" lon="2.66373">
        <ele>192</ele>
        <time>2017-02-05T12:47:51Z</time>
      </trkpt>
      <trkpt lat="48.2763" lon="2.66353">
        <ele>192</ele>
        <time>2017-02-05T12:47:56Z</time>
      </trkpt>
      <trkpt lat="48.27628" lon="2.66325">
        <ele>192</ele>
        <time>2017-02-05T12:48:02Z</time>
      </trkpt>
      <trkpt lat="48.27627" lon="2.66305">
        <ele>192</ele>
        <time>2017-02-05T12:48:07Z</time>
      </trkpt>
      <trkpt lat="48.27627" lon="2.66281">
        <ele>193</ele>
        <time>2017-02-05T12:48:12Z</time>
      </trkpt>
      <trkpt lat="48.27625" lon="2.66258">
        <ele>192</ele>
        <time>2017-02-05T12:48:17Z</time>
      </trkpt>
      <trkpt lat="48.27627" lon="2.66236">
        <ele>193</ele>
        <time>2017-02-05T12:48:22Z</time>
      </trkpt>
      <trkpt lat="48.27628" lon="2.66216">
        <ele>193</ele>
        <time>2017-02-05T12:48:26Z</time>
      </trkpt>
      <trkpt lat="48.27635" lon="2.66197">
        <ele>192</ele>
        <time>2017-02-05T12:48:30Z</time>
      </trkpt>
      <trkpt lat="48.27639" lon="2.66173">
        <ele>192</ele>
        <time>2017-02-05T12:48:35Z</time>
      </trkpt>
      <trkpt lat="48.27645" lon="2.66144">
        <ele>193</ele>
        <time>2017-02-05T12:48:41Z</time>
      </trkpt>
      <trkpt lat="48.27651" lon="2.66115">
        <ele>192</ele>
        <time>2017-02-05T12:48:47Z</time>
      </trkpt>
      <trkpt lat="48.27647" lon="2.66095">
        <ele>192</ele>
        <time>2017-02-05T12:48:51Z</time>
      </trkpt>
      <trkpt lat="48.27646" lon="2.66091">
        <ele>192</ele>
        <time>2017-02-05T12:48:52Z</time>
      </trkpt>
      <trkpt lat="48.27646" lon="2.66074">
        <ele>192</ele>
        <time>2017-02-05T12:48:56Z</time>
      </trkpt>
      <trkpt lat="48.27649" lon="2.66051">
        <ele>192</ele>
        <time>2017-02-05T12:49:01Z</time>
      </trkpt>
      <trkpt lat="48.27647" lon="2.66027">
        <ele>192</ele>
        <time>2017-02-05T12:49:06Z</time>
      </trkpt>
      <trkpt lat="48.27639" lon="2.66013">
        <ele>193</ele>
        <time>2017-02-05T12:49:10Z</time>
      </trkpt>
      <trkpt lat="48.27638" lon="2.66009">
        <ele>193</ele>
        <time>2017-02-05T12:49:11Z</time>
      </trkpt>
      <trkpt lat="48.27634" lon="2.6599">
        <ele>193</ele>
        <time>2017-02-05T12:49:16Z</time>
      </trkpt>
      <trkpt lat="48.27633" lon="2.65986">
        <ele>192</ele>
        <time>2017-02-05T12:49:17Z</time>
      </trkpt>
      <trkpt lat="48.27632" lon="2.6597">
        <ele>192</ele>
        <time>2017-02-05T12:49:21Z</time>
      </trkpt>
      <trkpt lat="48.27631" lon="2.65966">
        <ele>192</ele>
        <time>2017-02-05T12:49:22Z</time>
      </trkpt>
      <trkpt lat="48.27631" lon="2.65949">
        <ele>192</ele>
        <time>2017-02-05T12:49:26Z</time>
      </trkpt>
      <trkpt lat="48.2763" lon="2.65945">
        <ele>192</ele>
        <time>2017-02-05T12:49:27Z</time>
      </trkpt>
      <trkpt lat="48.27629" lon="2.65942">
        <ele>192</ele>
        <time>2017-02-05T12:49:28Z</time>
      </trkpt>
      <trkpt lat="48.27627" lon="2.65934">
        <ele>192</ele>
        <time>2017-02-05T12:49:30Z</time>
      </trkpt>
      <trkpt lat="48.27627" lon="2.65927">
        <ele>192</ele>
        <time>2017-02-05T12:49:32Z</time>
      </trkpt>
      <trkpt lat="48.27629" lon="2.65917">
        <ele>192</ele>
        <time>2017-02-05T12:49:34Z</time>
      </trkpt>
      <trkpt lat="48.27634" lon="2.6589">
        <ele>192</ele>
        <time>2017-02-05T12:49:39Z</time>
      </trkpt>
      <trkpt lat="48.27635" lon="2.65867">
        <ele>192</ele>
        <time>2017-02-05T12:49:43Z</time>
      </trkpt>
      <trkpt lat="48.27638" lon="2.65839">
        <ele>191</ele>
        <time>2017-02-05T12:49:48Z</time>
      </trkpt>
      <trkpt lat="48.27638" lon="2.65827">
        <ele>191</ele>
        <time>2017-02-05T12:49:50Z</time>
      </trkpt>
      <trkpt lat="48.27634" lon="2.65811">
        <ele>191</ele>
        <time>2017-02-05T12:49:53Z</time>
      </trkpt>
      <trkpt lat="48.27622" lon="2.65786">
        <ele>191</ele>
        <time>2017-02-05T12:49:58Z</time>
      </trkpt>
      <trkpt lat="48.27609" lon="2.65765">
        <ele>190</ele>
        <time>2017-02-05T12:50:02Z</time>
      </trkpt>
      <trkpt lat="48.276" lon="2.65746">
        <ele>190</ele>
        <time>2017-02-05T12:50:06Z</time>
      </trkpt>
      <trkpt lat="48.27588" lon="2.65724">
        <ele>190</ele>
        <time>2017-02-05T12:50:11Z</time>
      </trkpt>
      <trkpt lat="48.27586" lon="2.65721">
        <ele>190</ele>
        <time>2017-02-05T12:50:12Z</time>
      </trkpt>
      <trkpt lat="48.27572" lon="2.65705">
        <ele>190</ele>
        <time>2017-02-05T12:50:16Z</time>
      </trkpt>
      <trkpt lat="48.27563" lon="2.65698">
        <ele>190</ele>
        <time>2017-02-05T12:50:18Z</time>
      </trkpt>
      <trkpt lat="48.27554" lon="2.65693">
        <ele>190</ele>
        <time>2017-02-05T12:50:20Z</time>
      </trkpt>
      <trkpt lat="48.27544" lon="2.65687">
        <ele>189</ele>
        <time>2017-02-05T12:50:23Z</time>
      </trkpt>
      <trkpt lat="48.27536" lon="2.65683">
        <ele>188</ele>
        <time>2017-02-05T12:50:25Z</time>
      </trkpt>
      <trkpt lat="48.27532" lon="2.65679">
        <ele>188</ele>
        <time>2017-02-05T12:50:27Z</time>
      </trkpt>
      <trkpt lat="48.27532" lon="2.65677">
        <ele>188</ele>
        <time>2017-02-05T12:50:28Z</time>
      </trkpt>
      <trkpt lat="48.27532" lon="2.65675">
        <ele>187</ele>
        <time>2017-02-05T12:50:29Z</time>
      </trkpt>
      <trkpt lat="48.27534" lon="2.65668">
        <ele>187</ele>
        <time>2017-02-05T12:50:31Z</time>
      </trkpt>
      <trkpt lat="48.27538" lon="2.65658">
        <ele>187</ele>
        <time>2017-02-05T12:50:34Z</time>
      </trkpt>
      <trkpt lat="48.27539" lon="2.65655">
        <ele>187</ele>
        <time>2017-02-05T12:50:35Z</time>
      </trkpt>
      <trkpt lat="48.27544" lon="2.65638">
        <ele>186</ele>
        <time>2017-02-05T12:50:38Z</time>
      </trkpt>
      <trkpt lat="48.27545" lon="2.65632">
        <ele>186</ele>
        <time>2017-02-05T12:50:39Z</time>
      </trkpt>
      <trkpt lat="48.27549" lon="2.65621">
        <ele>185</ele>
        <time>2017-02-05T12:50:41Z</time>
      </trkpt>
      <trkpt lat="48.27552" lon="2.65604">
        <ele>184</ele>
        <time>2017-02-05T12:50:44Z</time>
      </trkpt>
      <trkpt lat="48.27556" lon="2.65584">
        <ele>183</ele>
        <time>2017-02-05T12:50:48Z</time>
      </trkpt>
      <trkpt lat="48.27557" lon="2.65579">
        <ele>182</ele>
        <time>2017-02-05T12:50:49Z</time>
      </trkpt>
      <trkpt lat="48.27561" lon="2.65556">
        <ele>182</ele>
        <time>2017-02-05T12:50:54Z</time>
      </trkpt>
      <trkpt lat="48.27562" lon="2.65548">
        <ele>181</ele>
        <time>2017-02-05T12:50:56Z</time>
      </trkpt>
      <trkpt lat="48.27563" lon="2.65534">
        <ele>181</ele>
        <time>2017-02-05T12:51:00Z</time>
      </trkpt>
      <trkpt lat="48.27562" lon="2.65516">
        <ele>181</ele>
        <time>2017-02-05T12:51:06Z</time>
      </trkpt>
      <trkpt lat="48.27569" lon="2.65493">
        <ele>181</ele>
        <time>2017-02-05T12:51:12Z</time>
      </trkpt>
      <trkpt lat="48.27569" lon="2.65477">
        <ele>181</ele>
        <time>2017-02-05T12:51:16Z</time>
      </trkpt>
      <trkpt lat="48.27567" lon="2.65475">
        <ele>181</ele>
        <time>2017-02-05T12:51:17Z</time>
      </trkpt>
      <trkpt lat="48.27552" lon="2.65464">
        <ele>181</ele>
        <time>2017-02-05T12:51:22Z</time>
      </trkpt>
      <trkpt lat="48.2755" lon="2.65461">
        <ele>181</ele>
        <time>2017-02-05T12:51:23Z</time>
      </trkpt>
      <trkpt lat="48.27539" lon="2.65444">
        <ele>181</ele>
        <time>2017-02-05T12:51:28Z</time>
      </trkpt>
      <trkpt lat="48.2753" lon="2.65428">
        <ele>181</ele>
        <time>2017-02-05T12:51:33Z</time>
      </trkpt>
      <trkpt lat="48.27517" lon="2.65411">
        <ele>180</ele>
        <time>2017-02-05T12:51:38Z</time>
      </trkpt>
      <trkpt lat="48.27501" lon="2.65392">
        <ele>180</ele>
        <time>2017-02-05T12:51:43Z</time>
      </trkpt>
      <trkpt lat="48.27489" lon="2.6538">
        <ele>180</ele>
        <time>2017-02-05T12:51:47Z</time>
      </trkpt>
      <trkpt lat="48.27474" lon="2.65363">
        <ele>180</ele>
        <time>2017-02-05T12:51:53Z</time>
      </trkpt>
      <trkpt lat="48.27465" lon="2.65348">
        <ele>180</ele>
        <time>2017-02-05T12:51:57Z</time>
      </trkpt>
      <trkpt lat="48.27452" lon="2.65329">
        <ele>180</ele>
        <time>2017-02-05T12:52:02Z</time>
      </trkpt>
      <trkpt lat="48.27436" lon="2.65312">
        <ele>180</ele>
        <time>2017-02-05T12:52:07Z</time>
      </trkpt>
      <trkpt lat="48.27427" lon="2.65302">
        <ele>179</ele>
        <time>2017-02-05T12:52:10Z</time>
      </trkpt>
      <trkpt lat="48.27416" lon="2.65291">
        <ele>179</ele>
        <time>2017-02-05T12:52:14Z</time>
      </trkpt>
      <trkpt lat="48.27402" lon="2.6527">
        <ele>179</ele>
        <time>2017-02-05T12:52:19Z</time>
      </trkpt>
      <trkpt lat="48.27386" lon="2.65256">
        <ele>180</ele>
        <time>2017-02-05T12:52:24Z</time>
      </trkpt>
      <trkpt lat="48.27385" lon="2.65253">
        <ele>180</ele>
        <time>2017-02-05T12:52:25Z</time>
      </trkpt>
      <trkpt lat="48.27381" lon="2.65247">
        <ele>179</ele>
        <time>2017-02-05T12:52:27Z</time>
      </trkpt>
      <trkpt lat="48.27366" lon="2.65226">
        <ele>178</ele>
        <time>2017-02-05T12:52:33Z</time>
      </trkpt>
      <trkpt lat="48.27353" lon="2.65211">
        <ele>178</ele>
        <time>2017-02-05T12:52:38Z</time>
      </trkpt>
      <trkpt lat="48.27351" lon="2.65207">
        <ele>178</ele>
        <time>2017-02-05T12:52:39Z</time>
      </trkpt>
      <trkpt lat="48.27344" lon="2.65199">
        <ele>179</ele>
        <time>2017-02-05T12:52:42Z</time>
      </trkpt>
      <trkpt lat="48.27341" lon="2.65197">
        <ele>179</ele>
        <time>2017-02-05T12:52:43Z</time>
      </trkpt>
      <trkpt lat="48.27325" lon="2.65184">
        <ele>179</ele>
        <time>2017-02-05T12:52:48Z</time>
      </trkpt>
      <trkpt lat="48.27308" lon="2.65178">
        <ele>179</ele>
        <time>2017-02-05T12:52:53Z</time>
      </trkpt>
      <trkpt lat="48.27297" lon="2.65175">
        <ele>179</ele>
        <time>2017-02-05T12:52:55Z</time>
      </trkpt>
      <trkpt lat="48.2729" lon="2.65172">
        <ele>179</ele>
        <time>2017-02-05T12:52:57Z</time>
      </trkpt>
      <trkpt lat="48.27267" lon="2.65164">
        <ele>179</ele>
        <time>2017-02-05T12:53:03Z</time>
      </trkpt>
      <trkpt lat="48.27248" lon="2.65153">
        <ele>179</ele>
        <time>2017-02-05T12:53:09Z</time>
      </trkpt>
      <trkpt lat="48.27227" lon="2.65144">
        <ele>179</ele>
        <time>2017-02-05T12:53:15Z</time>
      </trkpt>
      <trkpt lat="48.2721" lon="2.65133">
        <ele>178</ele>
        <time>2017-02-05T12:53:20Z</time>
      </trkpt>
      <trkpt lat="48.27203" lon="2.65131">
        <ele>178</ele>
        <time>2017-02-05T12:53:22Z</time>
      </trkpt>
      <trkpt lat="48.2718" lon="2.65119">
        <ele>178</ele>
        <time>2017-02-05T12:53:29Z</time>
      </trkpt>
      <trkpt lat="48.27154" lon="2.65109">
        <ele>178</ele>
        <time>2017-02-05T12:53:37Z</time>
      </trkpt>
      <trkpt lat="48.27125" lon="2.65094">
        <ele>178</ele>
        <time>2017-02-05T12:53:44Z</time>
      </trkpt>
      <trkpt lat="48.27107" lon="2.65088">
        <ele>178</ele>
        <time>2017-02-05T12:53:49Z</time>
      </trkpt>
      <trkpt lat="48.27081" lon="2.65077">
        <ele>178</ele>
        <time>2017-02-05T12:53:55Z</time>
      </trkpt>
      <trkpt lat="48.27051" lon="2.65069">
        <ele>178</ele>
        <time>2017-02-05T12:54:02Z</time>
      </trkpt>
      <trkpt lat="48.27025" lon="2.65069">
        <ele>178</ele>
        <time>2017-02-05T12:54:08Z</time>
      </trkpt>
      <trkpt lat="48.27008" lon="2.65067">
        <ele>179</ele>
        <time>2017-02-05T12:54:12Z</time>
      </trkpt>
      <trkpt lat="48.26986" lon="2.65064">
        <ele>179</ele>
        <time>2017-02-05T12:54:17Z</time>
      </trkpt>
      <trkpt lat="48.26958" lon="2.65064">
        <ele>179</ele>
        <time>2017-02-05T12:54:24Z</time>
      </trkpt>
      <trkpt lat="48.26928" lon="2.65068">
        <ele>179</ele>
        <time>2017-02-05T12:54:31Z</time>
      </trkpt>
      <trkpt lat="48.26914" lon="2.65069">
        <ele>179</ele>
        <time>2017-02-05T12:54:35Z</time>
      </trkpt>
      <trkpt lat="48.26911" lon="2.65069">
        <ele>179</ele>
        <time>2017-02-05T12:54:36Z</time>
      </trkpt>
      <trkpt lat="48.26888" lon="2.65073">
        <ele>179</ele>
        <time>2017-02-05T12:54:42Z</time>
      </trkpt>
      <trkpt lat="48.26864" lon="2.65084">
        <ele>179</ele>
        <time>2017-02-05T12:54:49Z</time>
      </trkpt>
      <trkpt lat="48.2685" lon="2.65094">
        <ele>179</ele>
        <time>2017-02-05T12:54:55Z</time>
      </trkpt>
      <trkpt lat="48.26849" lon="2.65101">
        <ele>179</ele>
        <time>2017-02-05T12:54:57Z</time>
      </trkpt>
      <trkpt lat="48.26849" lon="2.65106">
        <ele>180</ele>
        <time>2017-02-05T12:54:59Z</time>
      </trkpt>
      <trkpt lat="48.26848" lon="2.65109">
        <ele>181</ele>
        <time>2017-02-05T12:55:00Z</time>
      </trkpt>
      <trkpt lat="48.26848" lon="2.65112">
        <ele>181</ele>
        <time>2017-02-05T12:55:01Z</time>
      </trkpt>
      <trkpt lat="48.26847" lon="2.6512">
        <ele>182</ele>
        <time>2017-02-05T12:55:04Z</time>
      </trkpt>
      <trkpt lat="48.26848" lon="2.65128">
        <ele>183</ele>
        <time>2017-02-05T12:55:07Z</time>
      </trkpt>
      <trkpt lat="48.2685" lon="2.6514">
        <ele>182</ele>
        <time>2017-02-05T12:55:10Z</time>
      </trkpt>
      <trkpt lat="48.2685" lon="2.65147">
        <ele>182</ele>
        <time>2017-02-05T12:55:11Z</time>
      </trkpt>
      <trkpt lat="48.26855" lon="2.6516">
        <ele>181</ele>
        <time>2017-02-05T12:55:13Z</time>
      </trkpt>
      <trkpt lat="48.26859" lon="2.65163">
        <ele>181</ele>
        <time>2017-02-05T12:55:14Z</time>
      </trkpt>
      <trkpt lat="48.26871" lon="2.65167">
        <ele>180</ele>
        <time>2017-02-05T12:55:17Z</time>
      </trkpt>
      <trkpt lat="48.26875" lon="2.65167">
        <ele>180</ele>
        <time>2017-02-05T12:55:18Z</time>
      </trkpt>
      <trkpt lat="48.26879" lon="2.65167">
        <ele>180</ele>
        <time>2017-02-05T12:55:19Z</time>
      </trkpt>
      <trkpt lat="48.26895" lon="2.65166">
        <ele>180</ele>
        <time>2017-02-05T12:55:24Z</time>
      </trkpt>
      <trkpt lat="48.26905" lon="2.65152">
        <ele>180</ele>
        <time>2017-02-05T12:55:29Z</time>
      </trkpt>
      <trkpt lat="48.26908" lon="2.65139">
        <ele>181</ele>
        <time>2017-02-05T12:55:34Z</time>
      </trkpt>
      <trkpt lat="48.2691" lon="2.65135">
        <ele>181</ele>
        <time>2017-02-05T12:55:35Z</time>
      </trkpt>
      <trkpt lat="48.26911" lon="2.65132">
        <ele>181</ele>
        <time>2017-02-05T12:55:36Z</time>
      </trkpt>
      <trkpt lat="48.2692" lon="2.65121">
        <ele>182</ele>
        <time>2017-02-05T12:55:40Z</time>
      </trkpt>
      <trkpt lat="48.26934" lon="2.65117">
        <ele>182</ele>
        <time>2017-02-05T12:55:45Z</time>
      </trkpt>
      <trkpt lat="48.26939" lon="2.65119">
        <ele>182</ele>
        <time>2017-02-05T12:55:46Z</time>
      </trkpt>
      <trkpt lat="48.2695" lon="2.65128">
        <ele>181</ele>
        <time>2017-02-05T12:55:49Z</time>
      </trkpt>
      <trkpt lat="48.26962" lon="2.65141">
        <ele>180</ele>
        <time>2017-02-05T12:55:52Z</time>
      </trkpt>
      <trkpt lat="48.26967" lon="2.65145">
        <ele>180</ele>
        <time>2017-02-05T12:55:53Z</time>
      </trkpt>
      <trkpt lat="48.26971" lon="2.6515">
        <ele>180</ele>
        <time>2017-02-05T12:55:54Z</time>
      </trkpt>
      <trkpt lat="48.26974" lon="2.65155">
        <ele>180</ele>
        <time>2017-02-05T12:55:55Z</time>
      </trkpt>
      <trkpt lat="48.26981" lon="2.6516">
        <ele>180</ele>
        <time>2017-02-05T12:55:57Z</time>
      </trkpt>
      <trkpt lat="48.26994" lon="2.65157">
        <ele>180</ele>
        <time>2017-02-05T12:56:00Z</time>
      </trkpt>
      <trkpt lat="48.27014" lon="2.65159">
        <ele>180</ele>
        <time>2017-02-05T12:56:05Z</time>
      </trkpt>
      <trkpt lat="48.27037" lon="2.65161">
        <ele>179</ele>
        <time>2017-02-05T12:56:11Z</time>
      </trkpt>
      <trkpt lat="48.27048" lon="2.6517">
        <ele>179</ele>
        <time>2017-02-05T12:56:14Z</time>
      </trkpt>
      <trkpt lat="48.27054" lon="2.65177">
        <ele>179</ele>
        <time>2017-02-05T12:56:16Z</time>
      </trkpt>
      <trkpt lat="48.27062" lon="2.65197">
        <ele>179</ele>
        <time>2017-02-05T12:56:20Z</time>
      </trkpt>
      <trkpt lat="48.2707" lon="2.65203">
        <ele>179</ele>
        <time>2017-02-05T12:56:23Z</time>
      </trkpt>
      <trkpt lat="48.27073" lon="2.65201">
        <ele>179</ele>
        <time>2017-02-05T12:56:24Z</time>
      </trkpt>
      <trkpt lat="48.2708" lon="2.65199">
        <ele>180</ele>
        <time>2017-02-05T12:56:28Z</time>
      </trkpt>
      <trkpt lat="48.27085" lon="2.65202">
        <ele>180</ele>
        <time>2017-02-05T12:56:30Z</time>
      </trkpt>
      <trkpt lat="48.27088" lon="2.65205">
        <ele>180</ele>
        <time>2017-02-05T12:56:31Z</time>
      </trkpt>
      <trkpt lat="48.27087" lon="2.65216">
        <ele>180</ele>
        <time>2017-02-05T12:56:34Z</time>
      </trkpt>
      <trkpt lat="48.27084" lon="2.65231">
        <ele>180</ele>
        <time>2017-02-05T12:56:37Z</time>
      </trkpt>
      <trkpt lat="48.27083" lon="2.65237">
        <ele>180</ele>
        <time>2017-02-05T12:56:38Z</time>
      </trkpt>
      <trkpt lat="48.27078" lon="2.65249">
        <ele>180</ele>
        <time>2017-02-05T12:56:41Z</time>
      </trkpt>
      <trkpt lat="48.27079" lon="2.65276">
        <ele>179</ele>
        <time>2017-02-05T12:56:45Z</time>
      </trkpt>
      <trkpt lat="48.27083" lon="2.6529">
        <ele>179</ele>
        <time>2017-02-05T12:56:47Z</time>
      </trkpt>
      <trkpt lat="48.2709" lon="2.65303">
        <ele>178</ele>
        <time>2017-02-05T12:56:50Z</time>
      </trkpt>
      <trkpt lat="48.271" lon="2.65319">
        <ele>178</ele>
        <time>2017-02-05T12:56:53Z</time>
      </trkpt>
      <trkpt lat="48.27102" lon="2.65325">
        <ele>178</ele>
        <time>2017-02-05T12:56:54Z</time>
      </trkpt>
      <trkpt lat="48.27112" lon="2.65338">
        <ele>178</ele>
        <time>2017-02-05T12:56:57Z</time>
      </trkpt>
      <trkpt lat="48.27116" lon="2.65341">
        <ele>178</ele>
        <time>2017-02-05T12:56:58Z</time>
      </trkpt>
      <trkpt lat="48.27129" lon="2.6535">
        <ele>179</ele>
        <time>2017-02-05T12:57:02Z</time>
      </trkpt>
      <trkpt lat="48.27134" lon="2.65372">
        <ele>179</ele>
        <time>2017-02-05T12:57:06Z</time>
      </trkpt>
      <trkpt lat="48.27138" lon="2.65381">
        <ele>179</ele>
        <time>2017-02-05T12:57:08Z</time>
      </trkpt>
      <trkpt lat="48.27138" lon="2.65386">
        <ele>179</ele>
        <time>2017-02-05T12:57:09Z</time>
      </trkpt>
      <trkpt lat="48.27139" lon="2.65391">
        <ele>179</ele>
        <time>2017-02-05T12:57:10Z</time>
      </trkpt>
      <trkpt lat="48.27147" lon="2.65418">
        <ele>180</ele>
        <time>2017-02-05T12:57:16Z</time>
      </trkpt>
      <trkpt lat="48.2716" lon="2.65448">
        <ele>180</ele>
        <time>2017-02-05T12:57:22Z</time>
      </trkpt>
      <trkpt lat="48.27167" lon="2.6547">
        <ele>179</ele>
        <time>2017-02-05T12:57:27Z</time>
      </trkpt>
      <trkpt lat="48.27174" lon="2.65488">
        <ele>179</ele>
        <time>2017-02-05T12:57:32Z</time>
      </trkpt>
      <trkpt lat="48.27183" lon="2.65504">
        <ele>179</ele>
        <time>2017-02-05T12:57:38Z</time>
      </trkpt>
      <trkpt lat="48.27183" lon="2.6551">
        <ele>179</ele>
        <time>2017-02-05T12:57:42Z</time>
      </trkpt>
      <trkpt lat="48.27182" lon="2.65514">
        <ele>179</ele>
        <time>2017-02-05T12:58:01Z</time>
      </trkpt>
      <trkpt lat="48.27175" lon="2.65524">
        <ele>180</ele>
        <time>2017-02-05T12:58:07Z</time>
      </trkpt>
      <trkpt lat="48.27174" lon="2.65524">
        <ele>180</ele>
        <time>2017-02-05T12:58:08Z</time>
      </trkpt>
      <trkpt lat="48.27173" lon="2.65525">
        <ele>180</ele>
        <time>2017-02-05T12:58:09Z</time>
      </trkpt>
      <trkpt lat="48.27168" lon="2.65528">
        <ele>180</ele>
        <time>2017-02-05T12:58:11Z</time>
      </trkpt>
      <trkpt lat="48.27152" lon="2.6555">
        <ele>179</ele>
        <time>2017-02-05T12:58:17Z</time>
      </trkpt>
      <trkpt lat="48.27131" lon="2.65575">
        <ele>180</ele>
        <time>2017-02-05T12:58:23Z</time>
      </trkpt>
      <trkpt lat="48.27111" lon="2.65599">
        <ele>179</ele>
        <time>2017-02-05T12:58:29Z</time>
      </trkpt>
      <trkpt lat="48.27094" lon="2.65624">
        <ele>179</ele>
        <time>2017-02-05T12:58:35Z</time>
      </trkpt>
      <trkpt lat="48.27075" lon="2.65651">
        <ele>179</ele>
        <time>2017-02-05T12:58:41Z</time>
      </trkpt>
      <trkpt lat="48.27063" lon="2.65671">
        <ele>179</ele>
        <time>2017-02-05T12:58:45Z</time>
      </trkpt>
      <trkpt lat="48.27058" lon="2.65683">
        <ele>179</ele>
        <time>2017-02-05T12:58:47Z</time>
      </trkpt>
      <trkpt lat="48.27047" lon="2.65711">
        <ele>179</ele>
        <time>2017-02-05T12:58:52Z</time>
      </trkpt>
      <trkpt lat="48.27038" lon="2.65736">
        <ele>179</ele>
        <time>2017-02-05T12:58:57Z</time>
      </trkpt>
      <trkpt lat="48.27025" lon="2.65766">
        <ele>179</ele>
        <time>2017-02-05T12:59:03Z</time>
      </trkpt>
      <trkpt lat="48.27007" lon="2.65798">
        <ele>179</ele>
        <time>2017-02-05T12:59:10Z</time>
      </trkpt>
      <trkpt lat="48.26992" lon="2.65819">
        <ele>179</ele>
        <time>2017-02-05T12:59:15Z</time>
      </trkpt>
      <trkpt lat="48.26984" lon="2.6583">
        <ele>180</ele>
        <time>2017-02-05T12:59:18Z</time>
      </trkpt>
      <trkpt lat="48.26978" lon="2.6584">
        <ele>180</ele>
        <time>2017-02-05T12:59:20Z</time>
      </trkpt>
      <trkpt lat="48.26967" lon="2.65871">
        <ele>180</ele>
        <time>2017-02-05T12:59:26Z</time>
      </trkpt>
      <trkpt lat="48.26951" lon="2.65909">
        <ele>180</ele>
        <time>2017-02-05T12:59:32Z</time>
      </trkpt>
      <trkpt lat="48.26943" lon="2.65932">
        <ele>180</ele>
        <time>2017-02-05T12:59:36Z</time>
      </trkpt>
      <trkpt lat="48.26938" lon="2.65943">
        <ele>179</ele>
        <time>2017-02-05T12:59:38Z</time>
      </trkpt>
      <trkpt lat="48.26937" lon="2.6598">
        <ele>180</ele>
        <time>2017-02-05T12:59:44Z</time>
      </trkpt>
      <trkpt lat="48.2693" lon="2.66014">
        <ele>180</ele>
        <time>2017-02-05T12:59:50Z</time>
      </trkpt>
      <trkpt lat="48.26921" lon="2.66043">
        <ele>180</ele>
        <time>2017-02-05T12:59:56Z</time>
      </trkpt>
      <trkpt lat="48.26912" lon="2.66063">
        <ele>181</ele>
        <time>2017-02-05T13:00:01Z</time>
      </trkpt>
      <trkpt lat="48.2691" lon="2.66068">
        <ele>181</ele>
        <time>2017-02-05T13:00:02Z</time>
      </trkpt>
      <trkpt lat="48.26902" lon="2.66086">
        <ele>181</ele>
        <time>2017-02-05T13:00:07Z</time>
      </trkpt>
      <trkpt lat="48.26891" lon="2.66103">
        <ele>181</ele>
        <time>2017-02-05T13:00:11Z</time>
      </trkpt>
      <trkpt lat="48.26879" lon="2.66125">
        <ele>181</ele>
        <time>2017-02-05T13:00:16Z</time>
      </trkpt>
      <trkpt lat="48.26871" lon="2.66148">
        <ele>181</ele>
        <time>2017-02-05T13:00:22Z</time>
      </trkpt>
      <trkpt lat="48.26858" lon="2.66184">
        <ele>181</ele>
        <time>2017-02-05T13:00:28Z</time>
      </trkpt>
      <trkpt lat="48.26846" lon="2.66205">
        <ele>182</ele>
        <time>2017-02-05T13:00:33Z</time>
      </trkpt>
      <trkpt lat="48.26835" lon="2.66223">
        <ele>182</ele>
        <time>2017-02-05T13:00:38Z</time>
      </trkpt>
      <trkpt lat="48.26829" lon="2.66224">
        <ele>182</ele>
        <time>2017-02-05T13:00:42Z</time>
      </trkpt>
      <trkpt lat="48.26822" lon="2.66223">
        <ele>182</ele>
        <time>2017-02-05T13:00:47Z</time>
      </trkpt>
      <trkpt lat="48.26816" lon="2.66227">
        <ele>182</ele>
        <time>2017-02-05T13:00:51Z</time>
      </trkpt>
      <trkpt lat="48.26814" lon="2.66227">
        <ele>182</ele>
        <time>2017-02-05T13:00:53Z</time>
      </trkpt>
      <trkpt lat="48.26812" lon="2.66226">
        <ele>182</ele>
        <time>2017-02-05T13:01:03Z</time>
      </trkpt>
      <trkpt lat="48.26806" lon="2.66216">
        <ele>182</ele>
        <time>2017-02-05T13:01:08Z</time>
      </trkpt>
      <trkpt lat="48.26805" lon="2.66214">
        <ele>182</ele>
        <time>2017-02-05T13:01:09Z</time>
      </trkpt>
      <trkpt lat="48.26797" lon="2.66212">
        <ele>182</ele>
        <time>2017-02-05T13:01:13Z</time>
      </trkpt>
      <trkpt lat="48.26795" lon="2.66214">
        <ele>182</ele>
        <time>2017-02-05T13:01:14Z</time>
      </trkpt>
      <trkpt lat="48.26788" lon="2.66217">
        <ele>183</ele>
        <time>2017-02-05T13:01:18Z</time>
      </trkpt>
      <trkpt lat="48.26786" lon="2.66218">
        <ele>183</ele>
        <time>2017-02-05T13:01:19Z</time>
      </trkpt>
      <trkpt lat="48.26782" lon="2.66221">
        <ele>183</ele>
        <time>2017-02-05T13:01:22Z</time>
      </trkpt>
      <trkpt lat="48.2678" lon="2.66224">
        <ele>183</ele>
        <time>2017-02-05T13:01:24Z</time>
      </trkpt>
      <trkpt lat="48.26779" lon="2.66225">
        <ele>183</ele>
        <time>2017-02-05T13:01:25Z</time>
      </trkpt>
      <trkpt lat="48.26775" lon="2.66227">
        <ele>183</ele>
        <time>2017-02-05T13:01:28Z</time>
      </trkpt>
      <trkpt lat="48.26772" lon="2.66228">
        <ele>184</ele>
        <time>2017-02-05T13:01:30Z</time>
      </trkpt>
      <trkpt lat="48.26769" lon="2.66232">
        <ele>184</ele>
        <time>2017-02-05T13:01:33Z</time>
      </trkpt>
      <trkpt lat="48.26766" lon="2.66233">
        <ele>184</ele>
        <time>2017-02-05T13:01:35Z</time>
      </trkpt>
      <trkpt lat="48.26757" lon="2.66236">
        <ele>185</ele>
        <time>2017-02-05T13:01:40Z</time>
      </trkpt>
      <trkpt lat="48.26757" lon="2.66235">
        <ele>185</ele>
        <time>2017-02-05T13:01:42Z</time>
      </trkpt>
      <trkpt lat="48.26753" lon="2.66233">
        <ele>186</ele>
        <time>2017-02-05T13:01:45Z</time>
      </trkpt>
      <trkpt lat="48.26751" lon="2.66231">
        <ele>186</ele>
        <time>2017-02-05T13:01:47Z</time>
      </trkpt>
      <trkpt lat="48.26752" lon="2.66223">
        <ele>186</ele>
        <time>2017-02-05T13:01:50Z</time>
      </trkpt>
      <trkpt lat="48.26752" lon="2.66214">
        <ele>186</ele>
        <time>2017-02-05T13:01:54Z</time>
      </trkpt>
      <trkpt lat="48.2675" lon="2.66204">
        <ele>187</ele>
        <time>2017-02-05T13:01:59Z</time>
      </trkpt>
      <trkpt lat="48.26748" lon="2.662">
        <ele>187</ele>
        <time>2017-02-05T13:02:02Z</time>
      </trkpt>
      <trkpt lat="48.26748" lon="2.66198">
        <ele>187</ele>
        <time>2017-02-05T13:02:04Z</time>
      </trkpt>
      <trkpt lat="48.26742" lon="2.6619">
        <ele>188</ele>
        <time>2017-02-05T13:02:09Z</time>
      </trkpt>
      <trkpt lat="48.2674" lon="2.66188">
        <ele>188</ele>
        <time>2017-02-05T13:02:11Z</time>
      </trkpt>
      <trkpt lat="48.26734" lon="2.66183">
        <ele>190</ele>
        <time>2017-02-05T13:02:17Z</time>
      </trkpt>
      <trkpt lat="48.26733" lon="2.66182">
        <ele>190</ele>
        <time>2017-02-05T13:02:18Z</time>
      </trkpt>
      <trkpt lat="48.26728" lon="2.66177">
        <ele>191</ele>
        <time>2017-02-05T13:02:22Z</time>
      </trkpt>
      <trkpt lat="48.26727" lon="2.66174">
        <ele>191</ele>
        <time>2017-02-05T13:02:24Z</time>
      </trkpt>
      <trkpt lat="48.26724" lon="2.66177">
        <ele>192</ele>
        <time>2017-02-05T13:02:28Z</time>
      </trkpt>
      <trkpt lat="48.26723" lon="2.66178">
        <ele>192</ele>
        <time>2017-02-05T13:02:29Z</time>
      </trkpt>
      <trkpt lat="48.26724" lon="2.66179">
        <ele>192</ele>
        <time>2017-02-05T13:02:33Z</time>
      </trkpt>
      <trkpt lat="48.26724" lon="2.66179">
        <ele>193</ele>
        <time>2017-02-05T13:02:42Z</time>
      </trkpt>
      <trkpt lat="48.26723" lon="2.66179">
        <ele>193</ele>
        <time>2017-02-05T13:02:50Z</time>
      </trkpt>
      <trkpt lat="48.26719" lon="2.66183">
        <ele>194</ele>
        <time>2017-02-05T13:03:33Z</time>
      </trkpt>
      <trkpt lat="48.26718" lon="2.66184">
        <ele>194</ele>
        <time>2017-02-05T13:03:34Z</time>
      </trkpt>
      <trkpt lat="48.26715" lon="2.66186">
        <ele>195</ele>
        <time>2017-02-05T13:03:38Z</time>
      </trkpt>
      <trkpt lat="48.26713" lon="2.66184">
        <ele>196</ele>
        <time>2017-02-05T13:03:41Z</time>
      </trkpt>
      <trkpt lat="48.26712" lon="2.66182">
        <ele>196</ele>
        <time>2017-02-05T13:03:43Z</time>
      </trkpt>
      <trkpt lat="48.2671" lon="2.6618">
        <ele>197</ele>
        <time>2017-02-05T13:03:46Z</time>
      </trkpt>
      <trkpt lat="48.26709" lon="2.66179">
        <ele>197</ele>
        <time>2017-02-05T13:03:47Z</time>
      </trkpt>
      <trkpt lat="48.26707" lon="2.66174">
        <ele>197</ele>
        <time>2017-02-05T13:03:51Z</time>
      </trkpt>
      <trkpt lat="48.26707" lon="2.66175">
        <ele>197</ele>
        <time>2017-02-05T13:03:53Z</time>
      </trkpt>
      <trkpt lat="48.26703" lon="2.6617">
        <ele>197</ele>
        <time>2017-02-05T13:03:58Z</time>
      </trkpt>
      <trkpt lat="48.26701" lon="2.6617">
        <ele>197</ele>
        <time>2017-02-05T13:04:02Z</time>
      </trkpt>
      <trkpt lat="48.26697" lon="2.66169">
        <ele>198</ele>
        <time>2017-02-05T13:04:05Z</time>
      </trkpt>
      <trkpt lat="48.26695" lon="2.66169">
        <ele>198</ele>
        <time>2017-02-05T13:04:09Z</time>
      </trkpt>
      <trkpt lat="48.26693" lon="2.66168">
        <ele>199</ele>
        <time>2017-02-05T13:04:13Z</time>
      </trkpt>
      <trkpt lat="48.26692" lon="2.66167">
        <ele>199</ele>
        <time>2017-02-05T13:04:14Z</time>
      </trkpt>
      <trkpt lat="48.26687" lon="2.66162">
        <ele>201</ele>
        <time>2017-02-05T13:04:20Z</time>
      </trkpt>
      <trkpt lat="48.26684" lon="2.66159">
        <ele>202</ele>
        <time>2017-02-05T13:04:27Z</time>
      </trkpt>
      <trkpt lat="48.26682" lon="2.66155">
        <ele>202</ele>
        <time>2017-02-05T13:04:34Z</time>
      </trkpt>
      <trkpt lat="48.26681" lon="2.66154">
        <ele>203</ele>
        <time>2017-02-05T13:04:35Z</time>
      </trkpt>
      <trkpt lat="48.26678" lon="2.66146">
        <ele>203</ele>
        <time>2017-02-05T13:04:42Z</time>
      </trkpt>
      <trkpt lat="48.26676" lon="2.66144">
        <ele>204</ele>
        <time>2017-02-05T13:04:45Z</time>
      </trkpt>
      <trkpt lat="48.26675" lon="2.66142">
        <ele>204</ele>
        <time>2017-02-05T13:04:48Z</time>
      </trkpt>
      <trkpt lat="48.26673" lon="2.66139">
        <ele>205</ele>
        <time>2017-02-05T13:04:52Z</time>
      </trkpt>
      <trkpt lat="48.26668" lon="2.66137">
        <ele>206</ele>
        <time>2017-02-05T13:04:59Z</time>
      </trkpt>
      <trkpt lat="48.26666" lon="2.66137">
        <ele>207</ele>
        <time>2017-02-05T13:05:02Z</time>
      </trkpt>
      <trkpt lat="48.26664" lon="2.66138">
        <ele>207</ele>
        <time>2017-02-05T13:05:04Z</time>
      </trkpt>
      <trkpt lat="48.26661" lon="2.66143">
        <ele>207</ele>
        <time>2017-02-05T13:05:08Z</time>
      </trkpt>
      <trkpt lat="48.26657" lon="2.66147">
        <ele>208</ele>
        <time>2017-02-05T13:05:12Z</time>
      </trkpt>
      <trkpt lat="48.26657" lon="2.6615">
        <ele>208</ele>
        <time>2017-02-05T13:05:15Z</time>
      </trkpt>
      <trkpt lat="48.26654" lon="2.66153">
        <ele>209</ele>
        <time>2017-02-05T13:05:21Z</time>
      </trkpt>
      <trkpt lat="48.26652" lon="2.66156">
        <ele>209</ele>
        <time>2017-02-05T13:05:23Z</time>
      </trkpt>
      <trkpt lat="48.26651" lon="2.66161">
        <ele>210</ele>
        <time>2017-02-05T13:05:28Z</time>
      </trkpt>
      <trkpt lat="48.2665" lon="2.66163">
        <ele>210</ele>
        <time>2017-02-05T13:05:33Z</time>
      </trkpt>
      <trkpt lat="48.26649" lon="2.66165">
        <ele>210</ele>
        <time>2017-02-05T13:05:35Z</time>
      </trkpt>
      <trkpt lat="48.26647" lon="2.66169">
        <ele>211</ele>
        <time>2017-02-05T13:05:40Z</time>
      </trkpt>
      <trkpt lat="48.26647" lon="2.6617">
        <ele>211</ele>
        <time>2017-02-05T13:05:41Z</time>
      </trkpt>
      <trkpt lat="48.26645" lon="2.6618">
        <ele>212</ele>
        <time>2017-02-05T13:05:48Z</time>
      </trkpt>
      <trkpt lat="48.26645" lon="2.66181">
        <ele>212</ele>
        <time>2017-02-05T13:05:49Z</time>
      </trkpt>
      <trkpt lat="48.26646" lon="2.66189">
        <ele>212</ele>
        <time>2017-02-05T13:05:55Z</time>
      </trkpt>
      <trkpt lat="48.26647" lon="2.66191">
        <ele>212</ele>
        <time>2017-02-05T13:05:56Z</time>
      </trkpt>
      <trkpt lat="48.26647" lon="2.66196">
        <ele>212</ele>
        <time>2017-02-05T13:05:59Z</time>
      </trkpt>
      <trkpt lat="48.26648" lon="2.66203">
        <ele>212</ele>
        <time>2017-02-05T13:06:05Z</time>
      </trkpt>
      <trkpt lat="48.26644" lon="2.66211">
        <ele>212</ele>
        <time>2017-02-05T13:06:12Z</time>
      </trkpt>
      <trkpt lat="48.26642" lon="2.66211">
        <ele>213</ele>
        <time>2017-02-05T13:06:19Z</time>
      </trkpt>
      <trkpt lat="48.26642" lon="2.66209">
        <ele>213</ele>
        <time>2017-02-05T13:06:23Z</time>
      </trkpt>
      <trkpt lat="48.26642" lon="2.66204">
        <ele>213</ele>
        <time>2017-02-05T13:06:27Z</time>
      </trkpt>
      <trkpt lat="48.26642" lon="2.66197">
        <ele>214</ele>
        <time>2017-02-05T13:06:32Z</time>
      </trkpt>
      <trkpt lat="48.26642" lon="2.66196">
        <ele>214</ele>
        <time>2017-02-05T13:06:33Z</time>
      </trkpt>
      <trkpt lat="48.26643" lon="2.66188">
        <ele>215</ele>
        <time>2017-02-05T13:06:39Z</time>
      </trkpt>
      <trkpt lat="48.26642" lon="2.66186">
        <ele>215</ele>
        <time>2017-02-05T13:06:42Z</time>
      </trkpt>
      <trkpt lat="48.26642" lon="2.66179">
        <ele>216</ele>
        <time>2017-02-05T13:06:46Z</time>
      </trkpt>
      <trkpt lat="48.26642" lon="2.66174">
        <ele>216</ele>
        <time>2017-02-05T13:06:53Z</time>
      </trkpt>
      <trkpt lat="48.26642" lon="2.66174">
        <ele>216</ele>
        <time>2017-02-05T13:07:05Z</time>
      </trkpt>
      <trkpt lat="48.26642" lon="2.66173">
        <ele>216</ele>
        <time>2017-02-05T13:07:11Z</time>
      </trkpt>
      <trkpt lat="48.26639" lon="2.66168">
        <ele>216</ele>
        <time>2017-02-05T13:07:19Z</time>
      </trkpt>
      <trkpt lat="48.2664" lon="2.66166">
        <ele>216</ele>
        <time>2017-02-05T13:07:26Z</time>
      </trkpt>
      <trkpt lat="48.2664" lon="2.66158">
        <ele>216</ele>
        <time>2017-02-05T13:07:32Z</time>
      </trkpt>
      <trkpt lat="48.2664" lon="2.66155">
        <ele>216</ele>
        <time>2017-02-05T13:07:33Z</time>
      </trkpt>
      <trkpt lat="48.26639" lon="2.66147">
        <ele>215</ele>
        <time>2017-02-05T13:07:37Z</time>
      </trkpt>
      <trkpt lat="48.26639" lon="2.66138">
        <ele>214</ele>
        <time>2017-02-05T13:07:40Z</time>
      </trkpt>
      <trkpt lat="48.26639" lon="2.66135">
        <ele>214</ele>
        <time>2017-02-05T13:07:41Z</time>
      </trkpt>
      <trkpt lat="48.26639" lon="2.66121">
        <ele>213</ele>
        <time>2017-02-05T13:07:46Z</time>
      </trkpt>
      <trkpt lat="48.26638" lon="2.66121">
        <ele>213</ele>
        <time>2017-02-05T13:07:48Z</time>
      </trkpt>
      <trkpt lat="48.26637" lon="2.66115">
        <ele>213</ele>
        <time>2017-02-05T13:07:49Z</time>
      </trkpt>
      <trkpt lat="48.26637" lon="2.66107">
        <ele>213</ele>
        <time>2017-02-05T13:07:52Z</time>
      </trkpt>
      <trkpt lat="48.2664" lon="2.66088">
        <ele>213</ele>
        <time>2017-02-05T13:07:58Z</time>
      </trkpt>
      <trkpt lat="48.26642" lon="2.66067">
        <ele>213</ele>
        <time>2017-02-05T13:08:04Z</time>
      </trkpt>
      <trkpt lat="48.26651" lon="2.66051">
        <ele>212</ele>
        <time>2017-02-05T13:08:09Z</time>
      </trkpt>
      <trkpt lat="48.26658" lon="2.66038">
        <ele>211</ele>
        <time>2017-02-05T13:08:14Z</time>
      </trkpt>
      <trkpt lat="48.26657" lon="2.66036">
        <ele>211</ele>
        <time>2017-02-05T13:08:19Z</time>
      </trkpt>
      <trkpt lat="48.26658" lon="2.66027">
        <ele>211</ele>
        <time>2017-02-05T13:08:53Z</time>
      </trkpt>
      <trkpt lat="48.26659" lon="2.66025">
        <ele>209</ele>
        <time>2017-02-05T13:08:55Z</time>
      </trkpt>
      <trkpt lat="48.26661" lon="2.6602">
        <ele>208</ele>
        <time>2017-02-05T13:08:57Z</time>
      </trkpt>
      <trkpt lat="48.26661" lon="2.66017">
        <ele>207</ele>
        <time>2017-02-05T13:08:58Z</time>
      </trkpt>
      <trkpt lat="48.26661" lon="2.66015">
        <ele>207</ele>
        <time>2017-02-05T13:08:59Z</time>
      </trkpt>
      <trkpt lat="48.2666" lon="2.66013">
        <ele>206</ele>
        <time>2017-02-05T13:09:03Z</time>
      </trkpt>
      <trkpt lat="48.26659" lon="2.6601">
        <ele>206</ele>
        <time>2017-02-05T13:09:14Z</time>
      </trkpt>
      <trkpt lat="48.2666" lon="2.66007">
        <ele>205</ele>
        <time>2017-02-05T13:09:20Z</time>
      </trkpt>
      <trkpt lat="48.26661" lon="2.66004">
        <ele>204</ele>
        <time>2017-02-05T13:09:21Z</time>
      </trkpt>
      <trkpt lat="48.26662" lon="2.66003">
        <ele>204</ele>
        <time>2017-02-05T13:09:22Z</time>
      </trkpt>
      <trkpt lat="48.26664" lon="2.66001">
        <ele>203</ele>
        <time>2017-02-05T13:09:23Z</time>
      </trkpt>
      <trkpt lat="48.26666" lon="2.65999">
        <ele>201</ele>
        <time>2017-02-05T13:09:25Z</time>
      </trkpt>
      <trkpt lat="48.26667" lon="2.65994">
        <ele>200</ele>
        <time>2017-02-05T13:09:29Z</time>
      </trkpt>
      <trkpt lat="48.26668" lon="2.6599">
        <ele>200</ele>
        <time>2017-02-05T13:09:31Z</time>
      </trkpt>
      <trkpt lat="48.26668" lon="2.65988">
        <ele>199</ele>
        <time>2017-02-05T13:09:32Z</time>
      </trkpt>
      <trkpt lat="48.26668" lon="2.65984">
        <ele>199</ele>
        <time>2017-02-05T13:09:34Z</time>
      </trkpt>
      <trkpt lat="48.26669" lon="2.65981">
        <ele>198</ele>
        <time>2017-02-05T13:09:48Z</time>
      </trkpt>
      <trkpt lat="48.2667" lon="2.65978">
        <ele>198</ele>
        <time>2017-02-05T13:09:50Z</time>
      </trkpt>
      <trkpt lat="48.26671" lon="2.6597">
        <ele>196</ele>
        <time>2017-02-05T13:09:54Z</time>
      </trkpt>
      <trkpt lat="48.26671" lon="2.65966">
        <ele>196</ele>
        <time>2017-02-05T13:09:55Z</time>
      </trkpt>
      <trkpt lat="48.26671" lon="2.6596">
        <ele>195</ele>
        <time>2017-02-05T13:09:57Z</time>
      </trkpt>
      <trkpt lat="48.26669" lon="2.65955">
        <ele>195</ele>
        <time>2017-02-05T13:09:59Z</time>
      </trkpt>
      <trkpt lat="48.26663" lon="2.65951">
        <ele>196</ele>
        <time>2017-02-05T13:10:02Z</time>
      </trkpt>
      <trkpt lat="48.2666" lon="2.65949">
        <ele>196</ele>
        <time>2017-02-05T13:10:04Z</time>
      </trkpt>
      <trkpt lat="48.26653" lon="2.65944">
        <ele>196</ele>
        <time>2017-02-05T13:10:08Z</time>
      </trkpt>
      <trkpt lat="48.26651" lon="2.65944">
        <ele>197</ele>
        <time>2017-02-05T13:10:09Z</time>
      </trkpt>
      <trkpt lat="48.26649" lon="2.65944">
        <ele>197</ele>
        <time>2017-02-05T13:10:10Z</time>
      </trkpt>
      <trkpt lat="48.26641" lon="2.65951">
        <ele>197</ele>
        <time>2017-02-05T13:10:16Z</time>
      </trkpt>
      <trkpt lat="48.26636" lon="2.6595">
        <ele>198</ele>
        <time>2017-02-05T13:10:22Z</time>
      </trkpt>
      <trkpt lat="48.26636" lon="2.6595">
        <ele>199</ele>
        <time>2017-02-05T13:10:23Z</time>
      </trkpt>
      <trkpt lat="48.26629" lon="2.6595">
        <ele>199</ele>
        <time>2017-02-05T13:10:28Z</time>
      </trkpt>
      <trkpt lat="48.26625" lon="2.65951">
        <ele>200</ele>
        <time>2017-02-05T13:10:31Z</time>
      </trkpt>
      <trkpt lat="48.2662" lon="2.65952">
        <ele>200</ele>
        <time>2017-02-05T13:10:35Z</time>
      </trkpt>
      <trkpt lat="48.26617" lon="2.65952">
        <ele>201</ele>
        <time>2017-02-05T13:10:40Z</time>
      </trkpt>
      <trkpt lat="48.26613" lon="2.65953">
        <ele>201</ele>
        <time>2017-02-05T13:10:42Z</time>
      </trkpt>
      <trkpt lat="48.26612" lon="2.65953">
        <ele>201</ele>
        <time>2017-02-05T13:10:51Z</time>
      </trkpt>
      <trkpt lat="48.26606" lon="2.65955">
        <ele>202</ele>
        <time>2017-02-05T13:10:58Z</time>
      </trkpt>
      <trkpt lat="48.26604" lon="2.65956">
        <ele>202</ele>
        <time>2017-02-05T13:11:04Z</time>
      </trkpt>
      <trkpt lat="48.26599" lon="2.65959">
        <ele>203</ele>
        <time>2017-02-05T13:11:11Z</time>
      </trkpt>
      <trkpt lat="48.2659" lon="2.65964">
        <ele>204</ele>
        <time>2017-02-05T13:11:19Z</time>
      </trkpt>
      <trkpt lat="48.26589" lon="2.65964">
        <ele>204</ele>
        <time>2017-02-05T13:11:20Z</time>
      </trkpt>
      <trkpt lat="48.26588" lon="2.65963">
        <ele>204</ele>
        <time>2017-02-05T13:11:28Z</time>
      </trkpt>
      <trkpt lat="48.26586" lon="2.65963">
        <ele>205</ele>
        <time>2017-02-05T13:11:34Z</time>
      </trkpt>
      <trkpt lat="48.26582" lon="2.65963">
        <ele>205</ele>
        <time>2017-02-05T13:11:36Z</time>
      </trkpt>
      <trkpt lat="48.26576" lon="2.65965">
        <ele>206</ele>
        <time>2017-02-05T13:11:40Z</time>
      </trkpt>
      <trkpt lat="48.26575" lon="2.65966">
        <ele>206</ele>
        <time>2017-02-05T13:11:42Z</time>
      </trkpt>
      <trkpt lat="48.26567" lon="2.65967">
        <ele>207</ele>
        <time>2017-02-05T13:11:47Z</time>
      </trkpt>
      <trkpt lat="48.26566" lon="2.65967">
        <ele>207</ele>
        <time>2017-02-05T13:11:48Z</time>
      </trkpt>
      <trkpt lat="48.26562" lon="2.65968">
        <ele>208</ele>
        <time>2017-02-05T13:11:52Z</time>
      </trkpt>
      <trkpt lat="48.26561" lon="2.65969">
        <ele>208</ele>
        <time>2017-02-05T13:11:59Z</time>
      </trkpt>
      <trkpt lat="48.26559" lon="2.65969">
        <ele>209</ele>
        <time>2017-02-05T13:12:05Z</time>
      </trkpt>
      <trkpt lat="48.26563" lon="2.65967">
        <ele>209</ele>
        <time>2017-02-05T13:12:13Z</time>
      </trkpt>
      <trkpt lat="48.26564" lon="2.65968">
        <ele>209</ele>
        <time>2017-02-05T13:12:22Z</time>
      </trkpt>
      <trkpt lat="48.26567" lon="2.65968">
        <ele>209</ele>
        <time>2017-02-05T13:12:25Z</time>
      </trkpt>
      <trkpt lat="48.2657" lon="2.65968">
        <ele>209</ele>
        <time>2017-02-05T13:12:26Z</time>
      </trkpt>
      <trkpt lat="48.26577" lon="2.65963">
        <ele>208</ele>
        <time>2017-02-05T13:12:31Z</time>
      </trkpt>
      <trkpt lat="48.26582" lon="2.65957">
        <ele>208</ele>
        <time>2017-02-05T13:12:37Z</time>
      </trkpt>
      <trkpt lat="48.2658" lon="2.65953">
        <ele>209</ele>
        <time>2017-02-05T13:12:44Z</time>
      </trkpt>
      <trkpt lat="48.26577" lon="2.65954">
        <ele>209</ele>
        <time>2017-02-05T13:12:46Z</time>
      </trkpt>
      <trkpt lat="48.26574" lon="2.65954">
        <ele>210</ele>
        <time>2017-02-05T13:12:53Z</time>
      </trkpt>
      <trkpt lat="48.26572" lon="2.65955">
        <ele>211</ele>
        <time>2017-02-05T13:13:03Z</time>
      </trkpt>
      <trkpt lat="48.26569" lon="2.65957">
        <ele>211</ele>
        <time>2017-02-05T13:13:05Z</time>
      </trkpt>
      <trkpt lat="48.26564" lon="2.6596">
        <ele>212</ele>
        <time>2017-02-05T13:13:10Z</time>
      </trkpt>
      <trkpt lat="48.26563" lon="2.6596">
        <ele>212</ele>
        <time>2017-02-05T13:13:12Z</time>
      </trkpt>
      <trkpt lat="48.26557" lon="2.65961">
        <ele>214</ele>
        <time>2017-02-05T13:13:17Z</time>
      </trkpt>
      <trkpt lat="48.26556" lon="2.65961">
        <ele>214</ele>
        <time>2017-02-05T13:13:18Z</time>
      </trkpt>
      <trkpt lat="48.26556" lon="2.65959">
        <ele>215</ele>
        <time>2017-02-05T13:13:25Z</time>
      </trkpt>
      <trkpt lat="48.26556" lon="2.65958">
        <ele>215</ele>
        <time>2017-02-05T13:13:26Z</time>
      </trkpt>
      <trkpt lat="48.26555" lon="2.65956">
        <ele>215</ele>
        <time>2017-02-05T13:13:33Z</time>
      </trkpt>
      <trkpt lat="48.26555" lon="2.65955">
        <ele>215</ele>
        <time>2017-02-05T13:13:42Z</time>
      </trkpt>
      <trkpt lat="48.26559" lon="2.65951">
        <ele>215</ele>
        <time>2017-02-05T13:13:48Z</time>
      </trkpt>
      <trkpt lat="48.26565" lon="2.65948">
        <ele>214</ele>
        <time>2017-02-05T13:13:53Z</time>
      </trkpt>
      <trkpt lat="48.26567" lon="2.65946">
        <ele>214</ele>
        <time>2017-02-05T13:13:56Z</time>
      </trkpt>
      <trkpt lat="48.26571" lon="2.65943">
        <ele>213</ele>
        <time>2017-02-05T13:14:00Z</time>
      </trkpt>
      <trkpt lat="48.26578" lon="2.65936">
        <ele>213</ele>
        <time>2017-02-05T13:14:05Z</time>
      </trkpt>
      <trkpt lat="48.26586" lon="2.6593">
        <ele>214</ele>
        <time>2017-02-05T13:14:12Z</time>
      </trkpt>
      <trkpt lat="48.26593" lon="2.65926">
        <ele>213</ele>
        <time>2017-02-05T13:14:16Z</time>
      </trkpt>
      <trkpt lat="48.26594" lon="2.65924">
        <ele>213</ele>
        <time>2017-02-05T13:14:17Z</time>
      </trkpt>
      <trkpt lat="48.266" lon="2.65921">
        <ele>213</ele>
        <time>2017-02-05T13:14:21Z</time>
      </trkpt>
      <trkpt lat="48.26601" lon="2.65921">
        <ele>212</ele>
        <time>2017-02-05T13:14:23Z</time>
      </trkpt>
      <trkpt lat="48.26604" lon="2.65915">
        <ele>212</ele>
        <time>2017-02-05T13:14:26Z</time>
      </trkpt>
      <trkpt lat="48.26605" lon="2.65913">
        <ele>212</ele>
        <time>2017-02-05T13:14:27Z</time>
      </trkpt>
      <trkpt lat="48.26609" lon="2.65897">
        <ele>212</ele>
        <time>2017-02-05T13:14:33Z</time>
      </trkpt>
      <trkpt lat="48.26613" lon="2.6589">
        <ele>212</ele>
        <time>2017-02-05T13:14:36Z</time>
      </trkpt>
      <trkpt lat="48.26614" lon="2.65887">
        <ele>212</ele>
        <time>2017-02-05T13:14:38Z</time>
      </trkpt>
      <trkpt lat="48.26615" lon="2.6588">
        <ele>211</ele>
        <time>2017-02-05T13:14:41Z</time>
      </trkpt>
      <trkpt lat="48.26614" lon="2.65878">
        <ele>210</ele>
        <time>2017-02-05T13:14:43Z</time>
      </trkpt>
      <trkpt lat="48.26612" lon="2.65874">
        <ele>210</ele>
        <time>2017-02-05T13:14:49Z</time>
      </trkpt>
      <trkpt lat="48.26611" lon="2.6587">
        <ele>211</ele>
        <time>2017-02-05T13:14:53Z</time>
      </trkpt>
      <trkpt lat="48.26611" lon="2.65866">
        <ele>211</ele>
        <time>2017-02-05T13:14:56Z</time>
      </trkpt>
      <trkpt lat="48.2661" lon="2.65863">
        <ele>212</ele>
        <time>2017-02-05T13:15:18Z</time>
      </trkpt>
      <trkpt lat="48.2661" lon="2.65862">
        <ele>212</ele>
        <time>2017-02-05T13:15:20Z</time>
      </trkpt>
      <trkpt lat="48.26609" lon="2.6586">
        <ele>212</ele>
        <time>2017-02-05T13:15:24Z</time>
      </trkpt>
      <trkpt lat="48.26609" lon="2.65859">
        <ele>212</ele>
        <time>2017-02-05T13:16:05Z</time>
      </trkpt>
      <trkpt lat="48.26609" lon="2.65859">
        <ele>212</ele>
        <time>2017-02-05T13:16:50Z</time>
      </trkpt>
      <trkpt lat="48.2661" lon="2.65854">
        <ele>212</ele>
        <time>2017-02-05T13:17:02Z</time>
      </trkpt>
      <trkpt lat="48.26611" lon="2.65851">
        <ele>212</ele>
        <time>2017-02-05T13:17:06Z</time>
      </trkpt>
      <trkpt lat="48.26612" lon="2.65848">
        <ele>213</ele>
        <time>2017-02-05T13:17:08Z</time>
      </trkpt>
      <trkpt lat="48.26614" lon="2.65846">
        <ele>212</ele>
        <time>2017-02-05T13:17:13Z</time>
      </trkpt>
      <trkpt lat="48.26617" lon="2.65843">
        <ele>211</ele>
        <time>2017-02-05T13:17:15Z</time>
      </trkpt>
      <trkpt lat="48.2662" lon="2.65839">
        <ele>210</ele>
        <time>2017-02-05T13:17:17Z</time>
      </trkpt>
      <trkpt lat="48.26626" lon="2.65827">
        <ele>210</ele>
        <time>2017-02-05T13:17:20Z</time>
      </trkpt>
      <trkpt lat="48.26627" lon="2.65825">
        <ele>210</ele>
        <time>2017-02-05T13:17:22Z</time>
      </trkpt>
      <trkpt lat="48.26629" lon="2.65818">
        <ele>209</ele>
        <time>2017-02-05T13:17:27Z</time>
      </trkpt>
      <trkpt lat="48.26633" lon="2.65813">
        <ele>209</ele>
        <time>2017-02-05T13:17:33Z</time>
      </trkpt>
      <trkpt lat="48.26637" lon="2.65801">
        <ele>209</ele>
        <time>2017-02-05T13:17:38Z</time>
      </trkpt>
      <trkpt lat="48.26638" lon="2.65798">
        <ele>209</ele>
        <time>2017-02-05T13:17:42Z</time>
      </trkpt>
      <trkpt lat="48.26638" lon="2.65798">
        <ele>209</ele>
        <time>2017-02-05T13:17:43Z</time>
      </trkpt>
      <trkpt lat="48.26638" lon="2.65788">
        <ele>208</ele>
        <time>2017-02-05T13:17:48Z</time>
      </trkpt>
      <trkpt lat="48.26643" lon="2.65779">
        <ele>208</ele>
        <time>2017-02-05T13:17:52Z</time>
      </trkpt>
      <trkpt lat="48.26647" lon="2.65759">
        <ele>206</ele>
        <time>2017-02-05T13:17:55Z</time>
      </trkpt>
      <trkpt lat="48.26648" lon="2.65755">
        <ele>206</ele>
        <time>2017-02-05T13:17:56Z</time>
      </trkpt>
      <trkpt lat="48.26648" lon="2.65751">
        <ele>207</ele>
        <time>2017-02-05T13:17:57Z</time>
      </trkpt>
      <trkpt lat="48.26647" lon="2.65747">
        <ele>208</ele>
        <time>2017-02-05T13:17:59Z</time>
      </trkpt>
      <trkpt lat="48.26647" lon="2.65745">
        <ele>208</ele>
        <time>2017-02-05T13:18:00Z</time>
      </trkpt>
      <trkpt lat="48.26647" lon="2.65739">
        <ele>208</ele>
        <time>2017-02-05T13:18:10Z</time>
      </trkpt>
      <trkpt lat="48.26649" lon="2.65736">
        <ele>207</ele>
        <time>2017-02-05T13:18:16Z</time>
      </trkpt>
      <trkpt lat="48.26648" lon="2.65728">
        <ele>207</ele>
        <time>2017-02-05T13:18:22Z</time>
      </trkpt>
      <trkpt lat="48.26647" lon="2.65727">
        <ele>207</ele>
        <time>2017-02-05T13:18:31Z</time>
      </trkpt>
      <trkpt lat="48.26647" lon="2.65727">
        <ele>207</ele>
        <time>2017-02-05T13:18:33Z</time>
      </trkpt>
      <trkpt lat="48.26647" lon="2.65726">
        <ele>206</ele>
        <time>2017-02-05T13:18:42Z</time>
      </trkpt>
      <trkpt lat="48.26643" lon="2.65719">
        <ele>205</ele>
        <time>2017-02-05T13:18:52Z</time>
      </trkpt>
      <trkpt lat="48.2664" lon="2.65714">
        <ele>207</ele>
        <time>2017-02-05T13:18:55Z</time>
      </trkpt>
      <trkpt lat="48.2664" lon="2.65712">
        <ele>207</ele>
        <time>2017-02-05T13:18:56Z</time>
      </trkpt>
      <trkpt lat="48.26639" lon="2.65708">
        <ele>207</ele>
        <time>2017-02-05T13:18:57Z</time>
      </trkpt>
      <trkpt lat="48.26635" lon="2.65699">
        <ele>208</ele>
        <time>2017-02-05T13:19:00Z</time>
      </trkpt>
      <trkpt lat="48.26634" lon="2.65697">
        <ele>208</ele>
        <time>2017-02-05T13:19:01Z</time>
      </trkpt>
      <trkpt lat="48.26634" lon="2.65693">
        <ele>207</ele>
        <time>2017-02-05T13:19:03Z</time>
      </trkpt>
      <trkpt lat="48.26632" lon="2.6569">
        <ele>207</ele>
        <time>2017-02-05T13:19:04Z</time>
      </trkpt>
      <trkpt lat="48.26631" lon="2.65681">
        <ele>205</ele>
        <time>2017-02-05T13:19:06Z</time>
      </trkpt>
      <trkpt lat="48.2663" lon="2.65676">
        <ele>205</ele>
        <time>2017-02-05T13:19:09Z</time>
      </trkpt>
      <trkpt lat="48.26631" lon="2.65669">
        <ele>205</ele>
        <time>2017-02-05T13:19:16Z</time>
      </trkpt>
      <trkpt lat="48.26632" lon="2.65666">
        <ele>205</ele>
        <time>2017-02-05T13:19:18Z</time>
      </trkpt>
      <trkpt lat="48.26634" lon="2.65658">
        <ele>204</ele>
        <time>2017-02-05T13:19:20Z</time>
      </trkpt>
      <trkpt lat="48.26636" lon="2.65649">
        <ele>202</ele>
        <time>2017-02-05T13:19:22Z</time>
      </trkpt>
      <trkpt lat="48.26638" lon="2.65644">
        <ele>202</ele>
        <time>2017-02-05T13:19:23Z</time>
      </trkpt>
      <trkpt lat="48.26641" lon="2.65639">
        <ele>201</ele>
        <time>2017-02-05T13:19:24Z</time>
      </trkpt>
      <trkpt lat="48.26648" lon="2.65626">
        <ele>200</ele>
        <time>2017-02-05T13:19:26Z</time>
      </trkpt>
      <trkpt lat="48.2665" lon="2.6562">
        <ele>200</ele>
        <time>2017-02-05T13:19:27Z</time>
      </trkpt>
      <trkpt lat="48.26654" lon="2.65603">
        <ele>200</ele>
        <time>2017-02-05T13:19:31Z</time>
      </trkpt>
      <trkpt lat="48.26655" lon="2.65598">
        <ele>201</ele>
        <time>2017-02-05T13:19:33Z</time>
      </trkpt>
      <trkpt lat="48.26656" lon="2.6559">
        <ele>202</ele>
        <time>2017-02-05T13:19:36Z</time>
      </trkpt>
      <trkpt lat="48.26656" lon="2.65584">
        <ele>202</ele>
        <time>2017-02-05T13:19:38Z</time>
      </trkpt>
      <trkpt lat="48.26655" lon="2.6558">
        <ele>202</ele>
        <time>2017-02-05T13:19:40Z</time>
      </trkpt>
      <trkpt lat="48.26654" lon="2.65576">
        <ele>203</ele>
        <time>2017-02-05T13:19:42Z</time>
      </trkpt>
      <trkpt lat="48.26653" lon="2.65559">
        <ele>202</ele>
        <time>2017-02-05T13:19:46Z</time>
      </trkpt>
      <trkpt lat="48.26653" lon="2.6555">
        <ele>201</ele>
        <time>2017-02-05T13:19:48Z</time>
      </trkpt>
      <trkpt lat="48.26655" lon="2.65539">
        <ele>199</ele>
        <time>2017-02-05T13:19:50Z</time>
      </trkpt>
      <trkpt lat="48.26656" lon="2.65534">
        <ele>199</ele>
        <time>2017-02-05T13:19:51Z</time>
      </trkpt>
      <trkpt lat="48.26655" lon="2.65523">
        <ele>199</ele>
        <time>2017-02-05T13:19:55Z</time>
      </trkpt>
      <trkpt lat="48.26647" lon="2.6551">
        <ele>200</ele>
        <time>2017-02-05T13:20:00Z</time>
      </trkpt>
      <trkpt lat="48.26645" lon="2.65506">
        <ele>200</ele>
        <time>2017-02-05T13:20:02Z</time>
      </trkpt>
      <trkpt lat="48.26645" lon="2.65501">
        <ele>200</ele>
        <time>2017-02-05T13:20:04Z</time>
      </trkpt>
      <trkpt lat="48.26644" lon="2.65499">
        <ele>200</ele>
        <time>2017-02-05T13:20:05Z</time>
      </trkpt>
      <trkpt lat="48.26641" lon="2.65495">
        <ele>202</ele>
        <time>2017-02-05T13:20:08Z</time>
      </trkpt>
      <trkpt lat="48.26638" lon="2.65491">
        <ele>202</ele>
        <time>2017-02-05T13:20:11Z</time>
      </trkpt>
      <trkpt lat="48.26637" lon="2.65487">
        <ele>202</ele>
        <time>2017-02-05T13:20:13Z</time>
      </trkpt>
      <trkpt lat="48.26634" lon="2.65479">
        <ele>202</ele>
        <time>2017-02-05T13:20:15Z</time>
      </trkpt>
      <trkpt lat="48.26635" lon="2.65467">
        <ele>201</ele>
        <time>2017-02-05T13:20:18Z</time>
      </trkpt>
      <trkpt lat="48.26642" lon="2.65465">
        <ele>199</ele>
        <time>2017-02-05T13:20:20Z</time>
      </trkpt>
      <trkpt lat="48.26646" lon="2.65462">
        <ele>198</ele>
        <time>2017-02-05T13:20:21Z</time>
      </trkpt>
      <trkpt lat="48.2665" lon="2.6546">
        <ele>197</ele>
        <time>2017-02-05T13:20:22Z</time>
      </trkpt>
      <trkpt lat="48.26661" lon="2.65454">
        <ele>195</ele>
        <time>2017-02-05T13:20:24Z</time>
      </trkpt>
      <trkpt lat="48.26667" lon="2.65453">
        <ele>193</ele>
        <time>2017-02-05T13:20:25Z</time>
      </trkpt>
      <trkpt lat="48.26672" lon="2.65453">
        <ele>192</ele>
        <time>2017-02-05T13:20:26Z</time>
      </trkpt>
      <trkpt lat="48.26677" lon="2.65452">
        <ele>190</ele>
        <time>2017-02-05T13:20:27Z</time>
      </trkpt>
      <trkpt lat="48.26681" lon="2.65451">
        <ele>188</ele>
        <time>2017-02-05T13:20:28Z</time>
      </trkpt>
      <trkpt lat="48.26684" lon="2.65447">
        <ele>187</ele>
        <time>2017-02-05T13:20:29Z</time>
      </trkpt>
      <trkpt lat="48.26686" lon="2.65442">
        <ele>186</ele>
        <time>2017-02-05T13:20:30Z</time>
      </trkpt>
      <trkpt lat="48.26686" lon="2.65432">
        <ele>184</ele>
        <time>2017-02-05T13:20:32Z</time>
      </trkpt>
      <trkpt lat="48.2668" lon="2.65422">
        <ele>184</ele>
        <time>2017-02-05T13:20:35Z</time>
      </trkpt>
      <trkpt lat="48.26675" lon="2.65414">
        <ele>184</ele>
        <time>2017-02-05T13:20:37Z</time>
      </trkpt>
      <trkpt lat="48.2666" lon="2.6538">
        <ele>184</ele>
        <time>2017-02-05T13:20:45Z</time>
      </trkpt>
      <trkpt lat="48.26651" lon="2.6535">
        <ele>184</ele>
        <time>2017-02-05T13:20:51Z</time>
      </trkpt>
      <trkpt lat="48.26639" lon="2.65315">
        <ele>184</ele>
        <time>2017-02-05T13:20:58Z</time>
      </trkpt>
      <trkpt lat="48.26631" lon="2.65288">
        <ele>184</ele>
        <time>2017-02-05T13:21:04Z</time>
      </trkpt>
      <trkpt lat="48.26618" lon="2.65255">
        <ele>185</ele>
        <time>2017-02-05T13:21:11Z</time>
      </trkpt>
      <trkpt lat="48.26615" lon="2.65244">
        <ele>185</ele>
        <time>2017-02-05T13:21:14Z</time>
      </trkpt>
      <trkpt lat="48.26611" lon="2.65234">
        <ele>185</ele>
        <time>2017-02-05T13:21:17Z</time>
      </trkpt>
      <trkpt lat="48.26606" lon="2.65219">
        <ele>186</ele>
        <time>2017-02-05T13:21:22Z</time>
      </trkpt>
      <trkpt lat="48.26601" lon="2.65208">
        <ele>186</ele>
        <time>2017-02-05T13:21:26Z</time>
      </trkpt>
      <trkpt lat="48.26599" lon="2.65203">
        <ele>187</ele>
        <time>2017-02-05T13:21:28Z</time>
      </trkpt>
      <trkpt lat="48.26593" lon="2.65185">
        <ele>187</ele>
        <time>2017-02-05T13:21:35Z</time>
      </trkpt>
      <trkpt lat="48.26592" lon="2.65183">
        <ele>188</ele>
        <time>2017-02-05T13:21:36Z</time>
      </trkpt>
      <trkpt lat="48.26589" lon="2.65163">
        <ele>189</ele>
        <time>2017-02-05T13:21:44Z</time>
      </trkpt>
      <trkpt lat="48.26585" lon="2.65145">
        <ele>189</ele>
        <time>2017-02-05T13:21:50Z</time>
      </trkpt>
      <trkpt lat="48.2658" lon="2.65129">
        <ele>189</ele>
        <time>2017-02-05T13:21:55Z</time>
      </trkpt>
      <trkpt lat="48.26576" lon="2.65115">
        <ele>190</ele>
        <time>2017-02-05T13:21:59Z</time>
      </trkpt>
      <trkpt lat="48.2657" lon="2.65097">
        <ele>190</ele>
        <time>2017-02-05T13:22:04Z</time>
      </trkpt>
      <trkpt lat="48.26567" lon="2.65085">
        <ele>191</ele>
        <time>2017-02-05T13:22:08Z</time>
      </trkpt>
      <trkpt lat="48.26565" lon="2.6508">
        <ele>191</ele>
        <time>2017-02-05T13:22:10Z</time>
      </trkpt>
      <trkpt lat="48.26561" lon="2.65066">
        <ele>192</ele>
        <time>2017-02-05T13:22:15Z</time>
      </trkpt>
      <trkpt lat="48.2656" lon="2.6506">
        <ele>192</ele>
        <time>2017-02-05T13:22:17Z</time>
      </trkpt>
      <trkpt lat="48.26555" lon="2.65038">
        <ele>193</ele>
        <time>2017-02-05T13:22:23Z</time>
      </trkpt>
      <trkpt lat="48.26554" lon="2.65033">
        <ele>193</ele>
        <time>2017-02-05T13:22:25Z</time>
      </trkpt>
      <trkpt lat="48.26552" lon="2.65022">
        <ele>194</ele>
        <time>2017-02-05T13:22:30Z</time>
      </trkpt>
      <trkpt lat="48.26551" lon="2.65011">
        <ele>194</ele>
        <time>2017-02-05T13:22:35Z</time>
      </trkpt>
      <trkpt lat="48.26551" lon="2.65008">
        <ele>195</ele>
        <time>2017-02-05T13:22:36Z</time>
      </trkpt>
      <trkpt lat="48.26549" lon="2.64992">
        <ele>195</ele>
        <time>2017-02-05T13:22:43Z</time>
      </trkpt>
      <trkpt lat="48.26548" lon="2.64981">
        <ele>195</ele>
        <time>2017-02-05T13:22:50Z</time>
      </trkpt>
      <trkpt lat="48.26548" lon="2.64978">
        <ele>196</ele>
        <time>2017-02-05T13:22:52Z</time>
      </trkpt>
      <trkpt lat="48.26546" lon="2.64971">
        <ele>196</ele>
        <time>2017-02-05T13:22:57Z</time>
      </trkpt>
      <trkpt lat="48.26545" lon="2.64965">
        <ele>197</ele>
        <time>2017-02-05T13:23:00Z</time>
      </trkpt>
      <trkpt lat="48.26543" lon="2.64957">
        <ele>197</ele>
        <time>2017-02-05T13:23:04Z</time>
      </trkpt>
      <trkpt lat="48.26542" lon="2.6495">
        <ele>198</ele>
        <time>2017-02-05T13:23:10Z</time>
      </trkpt>
      <trkpt lat="48.26542" lon="2.64943">
        <ele>199</ele>
        <time>2017-02-05T13:23:16Z</time>
      </trkpt>
      <trkpt lat="48.26543" lon="2.6494">
        <ele>199</ele>
        <time>2017-02-05T13:23:17Z</time>
      </trkpt>
      <trkpt lat="48.26542" lon="2.64936">
        <ele>199</ele>
        <time>2017-02-05T13:23:24Z</time>
      </trkpt>
      <trkpt lat="48.26542" lon="2.64936">
        <ele>199</ele>
        <time>2017-02-05T13:23:29Z</time>
      </trkpt>
      <trkpt lat="48.26542" lon="2.64936">
        <ele>199</ele>
        <time>2017-02-05T13:24:16Z</time>
      </trkpt>
      <trkpt lat="48.26542" lon="2.64936">
        <ele>199</ele>
        <time>2017-02-05T13:24:21Z</time>
      </trkpt>
      <trkpt lat="48.26542" lon="2.64936">
        <ele>199</ele>
        <time>2017-02-05T13:24:30Z</time>
      </trkpt>
      <trkpt lat="48.26542" lon="2.64936">
        <ele>198</ele>
        <time>2017-02-05T13:24:57Z</time>
      </trkpt>
      <trkpt lat="48.26542" lon="2.64936">
        <ele>198</ele>
        <time>2017-02-05T13:25:35Z</time>
      </trkpt>
      <trkpt lat="48.26542" lon="2.64936">
        <ele>198</ele>
        <time>2017-02-05T13:26:24Z</time>
      </trkpt>
      <trkpt lat="48.26543" lon="2.64936">
        <ele>198</ele>
        <time>2017-02-05T13:27:00Z</time>
      </trkpt>
      <trkpt lat="48.26543" lon="2.64937">
        <ele>199</ele>
        <time>2017-02-05T13:27:28Z</time>
      </trkpt>
      <trkpt lat="48.26544" lon="2.64936">
        <ele>199</ele>
        <time>2017-02-05T13:27:34Z</time>
      </trkpt>
      <trkpt lat="48.26544" lon="2.64936">
        <ele>200</ele>
        <time>2017-02-05T13:27:41Z</time>
      </trkpt>
      <trkpt lat="48.26545" lon="2.64935">
        <ele>200</ele>
        <time>2017-02-05T13:27:43Z</time>
      </trkpt>
      <trkpt lat="48.26546" lon="2.64933">
        <ele>201</ele>
        <time>2017-02-05T13:27:48Z</time>
      </trkpt>
      <trkpt lat="48.26549" lon="2.64934">
        <ele>202</ele>
        <time>2017-02-05T13:27:55Z</time>
      </trkpt>
      <trkpt lat="48.26551" lon="2.64928">
        <ele>203</ele>
        <time>2017-02-05T13:28:02Z</time>
      </trkpt>
      <trkpt lat="48.26551" lon="2.64927">
        <ele>203</ele>
        <time>2017-02-05T13:28:03Z</time>
      </trkpt>
      <trkpt lat="48.26551" lon="2.64924">
        <ele>203</ele>
        <time>2017-02-05T13:28:05Z</time>
      </trkpt>
      <trkpt lat="48.26551" lon="2.6492">
        <ele>204</ele>
        <time>2017-02-05T13:28:08Z</time>
      </trkpt>
      <trkpt lat="48.2655" lon="2.64918">
        <ele>204</ele>
        <time>2017-02-05T13:28:15Z</time>
      </trkpt>
      <trkpt lat="48.26549" lon="2.64913">
        <ele>204</ele>
        <time>2017-02-05T13:28:18Z</time>
      </trkpt>
      <trkpt lat="48.26549" lon="2.64907">
        <ele>205</ele>
        <time>2017-02-05T13:28:23Z</time>
      </trkpt>
      <trkpt lat="48.26549" lon="2.64904">
        <ele>205</ele>
        <time>2017-02-05T13:28:26Z</time>
      </trkpt>
      <trkpt lat="48.26547" lon="2.64899">
        <ele>206</ele>
        <time>2017-02-05T13:28:31Z</time>
      </trkpt>
      <trkpt lat="48.26547" lon="2.64897">
        <ele>206</ele>
        <time>2017-02-05T13:28:33Z</time>
      </trkpt>
      <trkpt lat="48.26545" lon="2.64894">
        <ele>207</ele>
        <time>2017-02-05T13:28:38Z</time>
      </trkpt>
      <trkpt lat="48.26545" lon="2.64894">
        <ele>208</ele>
        <time>2017-02-05T13:28:40Z</time>
      </trkpt>
      <trkpt lat="48.26544" lon="2.6489">
        <ele>208</ele>
        <time>2017-02-05T13:28:45Z</time>
      </trkpt>
      <trkpt lat="48.26545" lon="2.64881">
        <ele>208</ele>
        <time>2017-02-05T13:28:51Z</time>
      </trkpt>
      <trkpt lat="48.26545" lon="2.6488">
        <ele>209</ele>
        <time>2017-02-05T13:28:52Z</time>
      </trkpt>
      <trkpt lat="48.26544" lon="2.64874">
        <ele>209</ele>
        <time>2017-02-05T13:28:58Z</time>
      </trkpt>
      <trkpt lat="48.26544" lon="2.64874">
        <ele>208</ele>
        <time>2017-02-05T13:29:07Z</time>
      </trkpt>
      <trkpt lat="48.26544" lon="2.64874">
        <ele>208</ele>
        <time>2017-02-05T13:29:44Z</time>
      </trkpt>
      <trkpt lat="48.26543" lon="2.64873">
        <ele>208</ele>
        <time>2017-02-05T13:30:24Z</time>
      </trkpt>
      <trkpt lat="48.26543" lon="2.64874">
        <ele>208</ele>
        <time>2017-02-05T13:31:03Z</time>
      </trkpt>
      <trkpt lat="48.26543" lon="2.64874">
        <ele>208</ele>
        <time>2017-02-05T13:31:43Z</time>
      </trkpt>
      <trkpt lat="48.26543" lon="2.64874">
        <ele>208</ele>
        <time>2017-02-05T13:32:26Z</time>
      </trkpt>
      <trkpt lat="48.26543" lon="2.64874">
        <ele>208</ele>
        <time>2017-02-05T13:33:04Z</time>
      </trkpt>
      <trkpt lat="48.26544" lon="2.64874">
        <ele>208</ele>
        <time>2017-02-05T13:33:47Z</time>
      </trkpt>
      <trkpt lat="48.26544" lon="2.64874">
        <ele>208</ele>
        <time>2017-02-05T13:34:24Z</time>
      </trkpt>
      <trkpt lat="48.26543" lon="2.64875">
        <ele>208</ele>
        <time>2017-02-05T13:34:57Z</time>
      </trkpt>
      <trkpt lat="48.26543" lon="2.64876">
        <ele>208</ele>
        <time>2017-02-05T13:35:20Z</time>
      </trkpt>
      <trkpt lat="48.26539" lon="2.64882">
        <ele>208</ele>
        <time>2017-02-05T13:35:25Z</time>
      </trkpt>
      <trkpt lat="48.26536" lon="2.64882">
        <ele>209</ele>
        <time>2017-02-05T13:35:29Z</time>
      </trkpt>
      <trkpt lat="48.26533" lon="2.64881">
        <ele>209</ele>
        <time>2017-02-05T13:35:32Z</time>
      </trkpt>
      <trkpt lat="48.26532" lon="2.6488">
        <ele>209</ele>
        <time>2017-02-05T13:35:33Z</time>
      </trkpt>
      <trkpt lat="48.26526" lon="2.6488">
        <ele>210</ele>
        <time>2017-02-05T13:35:38Z</time>
      </trkpt>
      <trkpt lat="48.2652" lon="2.64883">
        <ele>210</ele>
        <time>2017-02-05T13:35:44Z</time>
      </trkpt>
      <trkpt lat="48.26516" lon="2.64888">
        <ele>211</ele>
        <time>2017-02-05T13:35:50Z</time>
      </trkpt>
      <trkpt lat="48.26513" lon="2.64904">
        <ele>211</ele>
        <time>2017-02-05T13:35:58Z</time>
      </trkpt>
      <trkpt lat="48.26511" lon="2.64908">
        <ele>212</ele>
        <time>2017-02-05T13:36:01Z</time>
      </trkpt>
      <trkpt lat="48.2651" lon="2.64911">
        <ele>212</ele>
        <time>2017-02-05T13:36:03Z</time>
      </trkpt>
      <trkpt lat="48.26509" lon="2.64912">
        <ele>212</ele>
        <time>2017-02-05T13:36:04Z</time>
      </trkpt>
      <trkpt lat="48.26508" lon="2.64912">
        <ele>212</ele>
        <time>2017-02-05T13:36:05Z</time>
      </trkpt>
      <trkpt lat="48.26507" lon="2.64909">
        <ele>212</ele>
        <time>2017-02-05T13:36:08Z</time>
      </trkpt>
      <trkpt lat="48.26506" lon="2.64906">
        <ele>213</ele>
        <time>2017-02-05T13:36:10Z</time>
      </trkpt>
      <trkpt lat="48.26505" lon="2.64903">
        <ele>213</ele>
        <time>2017-02-05T13:36:12Z</time>
      </trkpt>
      <trkpt lat="48.26505" lon="2.64901">
        <ele>213</ele>
        <time>2017-02-05T13:36:13Z</time>
      </trkpt>
      <trkpt lat="48.26505" lon="2.64895">
        <ele>213</ele>
        <time>2017-02-05T13:36:17Z</time>
      </trkpt>
      <trkpt lat="48.26507" lon="2.64891">
        <ele>214</ele>
        <time>2017-02-05T13:36:21Z</time>
      </trkpt>
      <trkpt lat="48.26508" lon="2.64888">
        <ele>214</ele>
        <time>2017-02-05T13:36:23Z</time>
      </trkpt>
      <trkpt lat="48.26509" lon="2.64886">
        <ele>214</ele>
        <time>2017-02-05T13:36:24Z</time>
      </trkpt>
      <trkpt lat="48.2651" lon="2.64881">
        <ele>214</ele>
        <time>2017-02-05T13:36:27Z</time>
      </trkpt>
      <trkpt lat="48.26512" lon="2.64874">
        <ele>214</ele>
        <time>2017-02-05T13:36:30Z</time>
      </trkpt>
      <trkpt lat="48.26519" lon="2.64863">
        <ele>213</ele>
        <time>2017-02-05T13:36:35Z</time>
      </trkpt>
      <trkpt lat="48.26529" lon="2.64844">
        <ele>213</ele>
        <time>2017-02-05T13:36:42Z</time>
      </trkpt>
      <trkpt lat="48.26534" lon="2.64837">
        <ele>214</ele>
        <time>2017-02-05T13:36:45Z</time>
      </trkpt>
      <trkpt lat="48.26539" lon="2.64833">
        <ele>214</ele>
        <time>2017-02-05T13:36:48Z</time>
      </trkpt>
      <trkpt lat="48.26543" lon="2.64828">
        <ele>215</ele>
        <time>2017-02-05T13:36:51Z</time>
      </trkpt>
      <trkpt lat="48.26545" lon="2.64822">
        <ele>215</ele>
        <time>2017-02-05T13:36:54Z</time>
      </trkpt>
      <trkpt lat="48.26545" lon="2.6482">
        <ele>216</ele>
        <time>2017-02-05T13:36:55Z</time>
      </trkpt>
      <trkpt lat="48.26547" lon="2.64819">
        <ele>216</ele>
        <time>2017-02-05T13:36:56Z</time>
      </trkpt>
      <trkpt lat="48.26548" lon="2.64817">
        <ele>216</ele>
        <time>2017-02-05T13:36:57Z</time>
      </trkpt>
      <trkpt lat="48.26551" lon="2.64808">
        <ele>216</ele>
        <time>2017-02-05T13:37:00Z</time>
      </trkpt>
      <trkpt lat="48.26552" lon="2.64806">
        <ele>216</ele>
        <time>2017-02-05T13:37:01Z</time>
      </trkpt>
      <trkpt lat="48.26557" lon="2.64791">
        <ele>217</ele>
        <time>2017-02-05T13:37:06Z</time>
      </trkpt>
      <trkpt lat="48.26558" lon="2.64786">
        <ele>217</ele>
        <time>2017-02-05T13:37:08Z</time>
      </trkpt>
      <trkpt lat="48.26563" lon="2.64772">
        <ele>217</ele>
        <time>2017-02-05T13:37:13Z</time>
      </trkpt>
      <trkpt lat="48.26568" lon="2.6475">
        <ele>217</ele>
        <time>2017-02-05T13:37:19Z</time>
      </trkpt>
      <trkpt lat="48.2657" lon="2.64743">
        <ele>216</ele>
        <time>2017-02-05T13:37:21Z</time>
      </trkpt>
      <trkpt lat="48.26573" lon="2.64725">
        <ele>217</ele>
        <time>2017-02-05T13:37:26Z</time>
      </trkpt>
      <trkpt lat="48.26574" lon="2.64718">
        <ele>217</ele>
        <time>2017-02-05T13:37:28Z</time>
      </trkpt>
      <trkpt lat="48.26572" lon="2.64707">
        <ele>217</ele>
        <time>2017-02-05T13:37:33Z</time>
      </trkpt>
      <trkpt lat="48.26569" lon="2.64693">
        <ele>217</ele>
        <time>2017-02-05T13:37:38Z</time>
      </trkpt>
      <trkpt lat="48.26566" lon="2.64676">
        <ele>217</ele>
        <time>2017-02-05T13:37:45Z</time>
      </trkpt>
      <trkpt lat="48.2656" lon="2.64656">
        <ele>217</ele>
        <time>2017-02-05T13:37:51Z</time>
      </trkpt>
      <trkpt lat="48.26551" lon="2.64627">
        <ele>217</ele>
        <time>2017-02-05T13:37:57Z</time>
      </trkpt>
      <trkpt lat="48.26541" lon="2.64594">
        <ele>218</ele>
        <time>2017-02-05T13:38:03Z</time>
      </trkpt>
      <trkpt lat="48.2654" lon="2.64588">
        <ele>219</ele>
        <time>2017-02-05T13:38:04Z</time>
      </trkpt>
      <trkpt lat="48.26529" lon="2.64551">
        <ele>218</ele>
        <time>2017-02-05T13:38:11Z</time>
      </trkpt>
      <trkpt lat="48.26514" lon="2.64499">
        <ele>219</ele>
        <time>2017-02-05T13:38:21Z</time>
      </trkpt>
      <trkpt lat="48.26502" lon="2.64461">
        <ele>218</ele>
        <time>2017-02-05T13:38:29Z</time>
      </trkpt>
      <trkpt lat="48.26499" lon="2.64451">
        <ele>217</ele>
        <time>2017-02-05T13:38:31Z</time>
      </trkpt>
      <trkpt lat="48.26492" lon="2.64425">
        <ele>219</ele>
        <time>2017-02-05T13:38:36Z</time>
      </trkpt>
      <trkpt lat="48.26488" lon="2.6441">
        <ele>219</ele>
        <time>2017-02-05T13:38:39Z</time>
      </trkpt>
      <trkpt lat="48.26488" lon="2.64386">
        <ele>218</ele>
        <time>2017-02-05T13:38:44Z</time>
      </trkpt>
      <trkpt lat="48.26495" lon="2.64357">
        <ele>217</ele>
        <time>2017-02-05T13:38:50Z</time>
      </trkpt>
      <trkpt lat="48.26497" lon="2.64347">
        <ele>217</ele>
        <time>2017-02-05T13:38:52Z</time>
      </trkpt>
      <trkpt lat="48.26506" lon="2.64312">
        <ele>217</ele>
        <time>2017-02-05T13:38:59Z</time>
      </trkpt>
      <trkpt lat="48.26513" lon="2.64281">
        <ele>217</ele>
        <time>2017-02-05T13:39:05Z</time>
      </trkpt>
      <trkpt lat="48.26522" lon="2.64246">
        <ele>217</ele>
        <time>2017-02-05T13:39:12Z</time>
      </trkpt>
      <trkpt lat="48.26523" lon="2.64241">
        <ele>218</ele>
        <time>2017-02-05T13:39:13Z</time>
      </trkpt>
      <trkpt lat="48.26529" lon="2.64213">
        <ele>218</ele>
        <time>2017-02-05T13:39:19Z</time>
      </trkpt>
      <trkpt lat="48.26537" lon="2.64212">
        <ele>217</ele>
        <time>2017-02-05T13:39:22Z</time>
      </trkpt>
      <trkpt lat="48.26543" lon="2.64216">
        <ele>217</ele>
        <time>2017-02-05T13:39:24Z</time>
      </trkpt>
      <trkpt lat="48.26553" lon="2.64224">
        <ele>217</ele>
        <time>2017-02-05T13:39:27Z</time>
      </trkpt>
      <trkpt lat="48.26576" lon="2.64233">
        <ele>216</ele>
        <time>2017-02-05T13:39:33Z</time>
      </trkpt>
      <trkpt lat="48.26601" lon="2.64245">
        <ele>215</ele>
        <time>2017-02-05T13:39:40Z</time>
      </trkpt>
      <trkpt lat="48.26616" lon="2.64258">
        <ele>215</ele>
        <time>2017-02-05T13:39:44Z</time>
      </trkpt>
      <trkpt lat="48.26619" lon="2.64263">
        <ele>215</ele>
        <time>2017-02-05T13:39:45Z</time>
      </trkpt>
      <trkpt lat="48.26626" lon="2.64274">
        <ele>214</ele>
        <time>2017-02-05T13:39:48Z</time>
      </trkpt>
      <trkpt lat="48.26627" lon="2.64275">
        <ele>214</ele>
        <time>2017-02-05T13:39:49Z</time>
      </trkpt>
      <trkpt lat="48.26626" lon="2.64281">
        <ele>214</ele>
        <time>2017-02-05T13:39:52Z</time>
      </trkpt>
      <trkpt lat="48.26626" lon="2.64282">
        <ele>214</ele>
        <time>2017-02-05T13:39:53Z</time>
      </trkpt>
      <trkpt lat="48.26627" lon="2.64284">
        <ele>214</ele>
        <time>2017-02-05T13:39:54Z</time>
      </trkpt>
      <trkpt lat="48.26632" lon="2.64287">
        <ele>214</ele>
        <time>2017-02-05T13:39:57Z</time>
      </trkpt>
      <trkpt lat="48.26641" lon="2.64294">
        <ele>215</ele>
        <time>2017-02-05T13:40:02Z</time>
      </trkpt>
      <trkpt lat="48.26649" lon="2.64313">
        <ele>214</ele>
        <time>2017-02-05T13:40:08Z</time>
      </trkpt>
      <trkpt lat="48.26651" lon="2.64328">
        <ele>213</ele>
        <time>2017-02-05T13:40:11Z</time>
      </trkpt>
      <trkpt lat="48.26653" lon="2.64333">
        <ele>213</ele>
        <time>2017-02-05T13:40:13Z</time>
      </trkpt>
      <trkpt lat="48.26656" lon="2.64342">
        <ele>212</ele>
        <time>2017-02-05T13:40:15Z</time>
      </trkpt>
      <trkpt lat="48.26658" lon="2.64349">
        <ele>212</ele>
        <time>2017-02-05T13:40:17Z</time>
      </trkpt>
      <trkpt lat="48.26664" lon="2.64362">
        <ele>211</ele>
        <time>2017-02-05T13:40:21Z</time>
      </trkpt>
      <trkpt lat="48.26666" lon="2.64363">
        <ele>211</ele>
        <time>2017-02-05T13:40:22Z</time>
      </trkpt>
      <trkpt lat="48.26674" lon="2.64369">
        <ele>210</ele>
        <time>2017-02-05T13:40:26Z</time>
      </trkpt>
      <trkpt lat="48.26675" lon="2.64371">
        <ele>210</ele>
        <time>2017-02-05T13:40:28Z</time>
      </trkpt>
      <trkpt lat="48.26677" lon="2.64375">
        <ele>210</ele>
        <time>2017-02-05T13:40:31Z</time>
      </trkpt>
      <trkpt lat="48.2668" lon="2.64375">
        <ele>209</ele>
        <time>2017-02-05T13:40:33Z</time>
      </trkpt>
      <trkpt lat="48.26681" lon="2.64373">
        <ele>208</ele>
        <time>2017-02-05T13:40:34Z</time>
      </trkpt>
      <trkpt lat="48.26682" lon="2.64371">
        <ele>208</ele>
        <time>2017-02-05T13:40:35Z</time>
      </trkpt>
      <trkpt lat="48.26683" lon="2.6437">
        <ele>208</ele>
        <time>2017-02-05T13:40:36Z</time>
      </trkpt>
      <trkpt lat="48.26684" lon="2.6437">
        <ele>207</ele>
        <time>2017-02-05T13:40:40Z</time>
      </trkpt>
      <trkpt lat="48.26687" lon="2.6437">
        <ele>206</ele>
        <time>2017-02-05T13:40:49Z</time>
      </trkpt>
      <trkpt lat="48.26687" lon="2.64369">
        <ele>206</ele>
        <time>2017-02-05T13:41:22Z</time>
      </trkpt>
      <trkpt lat="48.26687" lon="2.64369">
        <ele>206</ele>
        <time>2017-02-05T13:41:47Z</time>
      </trkpt>
      <trkpt lat="48.26688" lon="2.64369">
        <ele>206</ele>
        <time>2017-02-05T13:41:54Z</time>
      </trkpt>
      <trkpt lat="48.26688" lon="2.64369">
        <ele>206</ele>
        <time>2017-02-05T13:42:01Z</time>
      </trkpt>
      <trkpt lat="48.26688" lon="2.64369">
        <ele>206</ele>
        <time>2017-02-05T13:42:38Z</time>
      </trkpt>
      <trkpt lat="48.26689" lon="2.6437">
        <ele>206</ele>
        <time>2017-02-05T13:42:47Z</time>
      </trkpt>
      <trkpt lat="48.26689" lon="2.64372">
        <ele>205</ele>
        <time>2017-02-05T13:42:51Z</time>
      </trkpt>
      <trkpt lat="48.26691" lon="2.64376">
        <ele>205</ele>
        <time>2017-02-05T13:42:55Z</time>
      </trkpt>
      <trkpt lat="48.26691" lon="2.64377">
        <ele>205</ele>
        <time>2017-02-05T13:42:57Z</time>
      </trkpt>
      <trkpt lat="48.26692" lon="2.6438">
        <ele>204</ele>
        <time>2017-02-05T13:42:58Z</time>
      </trkpt>
      <trkpt lat="48.26695" lon="2.64385">
        <ele>203</ele>
        <time>2017-02-05T13:43:00Z</time>
      </trkpt>
      <trkpt lat="48.26698" lon="2.64392">
        <ele>201</ele>
        <time>2017-02-05T13:43:02Z</time>
      </trkpt>
      <trkpt lat="48.267" lon="2.64395">
        <ele>200</ele>
        <time>2017-02-05T13:43:03Z</time>
      </trkpt>
      <trkpt lat="48.26702" lon="2.64397">
        <ele>199</ele>
        <time>2017-02-05T13:43:04Z</time>
      </trkpt>
      <trkpt lat="48.26704" lon="2.64401">
        <ele>198</ele>
        <time>2017-02-05T13:43:05Z</time>
      </trkpt>
      <trkpt lat="48.26706" lon="2.64406">
        <ele>196</ele>
        <time>2017-02-05T13:43:06Z</time>
      </trkpt>
      <trkpt lat="48.26708" lon="2.64411">
        <ele>195</ele>
        <time>2017-02-05T13:43:07Z</time>
      </trkpt>
      <trkpt lat="48.26712" lon="2.64418">
        <ele>193</ele>
        <time>2017-02-05T13:43:08Z</time>
      </trkpt>
      <trkpt lat="48.26716" lon="2.64426">
        <ele>191</ele>
        <time>2017-02-05T13:43:09Z</time>
      </trkpt>
      <trkpt lat="48.2672" lon="2.64436">
        <ele>190</ele>
        <time>2017-02-05T13:43:10Z</time>
      </trkpt>
      <trkpt lat="48.26724" lon="2.64446">
        <ele>188</ele>
        <time>2017-02-05T13:43:11Z</time>
      </trkpt>
      <trkpt lat="48.26727" lon="2.64451">
        <ele>187</ele>
        <time>2017-02-05T13:43:12Z</time>
      </trkpt>
      <trkpt lat="48.26728" lon="2.64453">
        <ele>187</ele>
        <time>2017-02-05T13:43:13Z</time>
      </trkpt>
      <trkpt lat="48.2673" lon="2.64454">
        <ele>186</ele>
        <time>2017-02-05T13:43:15Z</time>
      </trkpt>
      <trkpt lat="48.2673" lon="2.64454">
        <ele>186</ele>
        <time>2017-02-05T13:43:17Z</time>
      </trkpt>
      <trkpt lat="48.26731" lon="2.64454">
        <ele>186</ele>
        <time>2017-02-05T13:43:20Z</time>
      </trkpt>
      <trkpt lat="48.26732" lon="2.64454">
        <ele>185</ele>
        <time>2017-02-05T13:44:01Z</time>
      </trkpt>
      <trkpt lat="48.26731" lon="2.64453">
        <ele>185</ele>
        <time>2017-02-05T13:44:40Z</time>
      </trkpt>
      <trkpt lat="48.26731" lon="2.64453">
        <ele>185</ele>
        <time>2017-02-05T13:45:31Z</time>
      </trkpt>
      <trkpt lat="48.26731" lon="2.64453">
        <ele>184</ele>
        <time>2017-02-05T13:45:59Z</time>
      </trkpt>
      <trkpt lat="48.26731" lon="2.64453">
        <ele>185</ele>
        <time>2017-02-05T13:46:44Z</time>
      </trkpt>
      <trkpt lat="48.26732" lon="2.64453">
        <ele>185</ele>
        <time>2017-02-05T13:47:17Z</time>
      </trkpt>
      <trkpt lat="48.26731" lon="2.64454">
        <ele>185</ele>
        <time>2017-02-05T13:48:04Z</time>
      </trkpt>
      <trkpt lat="48.26731" lon="2.64454">
        <ele>185</ele>
        <time>2017-02-05T13:48:38Z</time>
      </trkpt>
      <trkpt lat="48.26731" lon="2.64454">
        <ele>185</ele>
        <time>2017-02-05T13:49:30Z</time>
      </trkpt>
      <trkpt lat="48.2673" lon="2.64454">
        <ele>185</ele>
        <time>2017-02-05T13:50:05Z</time>
      </trkpt>
      <trkpt lat="48.2673" lon="2.64455">
        <ele>185</ele>
        <time>2017-02-05T13:50:51Z</time>
      </trkpt>
      <trkpt lat="48.2673" lon="2.64456">
        <ele>186</ele>
        <time>2017-02-05T13:51:08Z</time>
      </trkpt>
      <trkpt lat="48.2673" lon="2.64456">
        <ele>186</ele>
        <time>2017-02-05T13:51:11Z</time>
      </trkpt>
      <trkpt lat="48.26731" lon="2.64457">
        <ele>186</ele>
        <time>2017-02-05T13:51:17Z</time>
      </trkpt>
      <trkpt lat="48.26731" lon="2.64457">
        <ele>186</ele>
        <time>2017-02-05T13:52:08Z</time>
      </trkpt>
      <trkpt lat="48.26734" lon="2.64464">
        <ele>185</ele>
        <time>2017-02-05T13:52:14Z</time>
      </trkpt>
      <trkpt lat="48.26742" lon="2.64474">
        <ele>185</ele>
        <time>2017-02-05T13:52:19Z</time>
      </trkpt>
      <trkpt lat="48.26756" lon="2.64482">
        <ele>184</ele>
        <time>2017-02-05T13:52:25Z</time>
      </trkpt>
      <trkpt lat="48.26761" lon="2.64487">
        <ele>184</ele>
        <time>2017-02-05T13:52:27Z</time>
      </trkpt>
      <trkpt lat="48.26763" lon="2.64489">
        <ele>183</ele>
        <time>2017-02-05T13:52:28Z</time>
      </trkpt>
      <trkpt lat="48.26776" lon="2.64501">
        <ele>183</ele>
        <time>2017-02-05T13:52:33Z</time>
      </trkpt>
      <trkpt lat="48.2678" lon="2.645">
        <ele>182</ele>
        <time>2017-02-05T13:52:35Z</time>
      </trkpt>
      <trkpt lat="48.26785" lon="2.64501">
        <ele>182</ele>
        <time>2017-02-05T13:52:37Z</time>
      </trkpt>
      <trkpt lat="48.26789" lon="2.64502">
        <ele>181</ele>
        <time>2017-02-05T13:52:41Z</time>
      </trkpt>
      <trkpt lat="48.2679" lon="2.64504">
        <ele>182</ele>
        <time>2017-02-05T13:52:42Z</time>
      </trkpt>
      <trkpt lat="48.26793" lon="2.64512">
        <ele>182</ele>
        <time>2017-02-05T13:52:46Z</time>
      </trkpt>
      <trkpt lat="48.26795" lon="2.64518">
        <ele>182</ele>
        <time>2017-02-05T13:52:49Z</time>
      </trkpt>
      <trkpt lat="48.26798" lon="2.64525">
        <ele>182</ele>
        <time>2017-02-05T13:52:52Z</time>
      </trkpt>
      <trkpt lat="48.26801" lon="2.64536">
        <ele>183</ele>
        <time>2017-02-05T13:52:58Z</time>
      </trkpt>
      <trkpt lat="48.26806" lon="2.64543">
        <ele>184</ele>
        <time>2017-02-05T13:53:03Z</time>
      </trkpt>
      <trkpt lat="48.26806" lon="2.64544">
        <ele>185</ele>
        <time>2017-02-05T13:53:04Z</time>
      </trkpt>
      <trkpt lat="48.26807" lon="2.64547">
        <ele>185</ele>
        <time>2017-02-05T13:53:05Z</time>
      </trkpt>
      <trkpt lat="48.26807" lon="2.6455">
        <ele>185</ele>
        <time>2017-02-05T13:53:07Z</time>
      </trkpt>
      <trkpt lat="48.26805" lon="2.64557">
        <ele>185</ele>
        <time>2017-02-05T13:53:10Z</time>
      </trkpt>
      <trkpt lat="48.26802" lon="2.6458">
        <ele>184</ele>
        <time>2017-02-05T13:53:14Z</time>
      </trkpt>
      <trkpt lat="48.26806" lon="2.64602">
        <ele>184</ele>
        <time>2017-02-05T13:53:18Z</time>
      </trkpt>
      <trkpt lat="48.26814" lon="2.64623">
        <ele>185</ele>
        <time>2017-02-05T13:53:23Z</time>
      </trkpt>
      <trkpt lat="48.26814" lon="2.6463">
        <ele>185</ele>
        <time>2017-02-05T13:53:26Z</time>
      </trkpt>
      <trkpt lat="48.26814" lon="2.64635">
        <ele>185</ele>
        <time>2017-02-05T13:53:27Z</time>
      </trkpt>
      <trkpt lat="48.26815" lon="2.64642">
        <ele>186</ele>
        <time>2017-02-05T13:53:29Z</time>
      </trkpt>
      <trkpt lat="48.2682" lon="2.64649">
        <ele>186</ele>
        <time>2017-02-05T13:53:32Z</time>
      </trkpt>
      <trkpt lat="48.26822" lon="2.6465">
        <ele>186</ele>
        <time>2017-02-05T13:53:33Z</time>
      </trkpt>
      <trkpt lat="48.26827" lon="2.64658">
        <ele>187</ele>
        <time>2017-02-05T13:53:38Z</time>
      </trkpt>
      <trkpt lat="48.26833" lon="2.64671">
        <ele>188</ele>
        <time>2017-02-05T13:53:43Z</time>
      </trkpt>
      <trkpt lat="48.26834" lon="2.64673">
        <ele>188</ele>
        <time>2017-02-05T13:53:44Z</time>
      </trkpt>
      <trkpt lat="48.26835" lon="2.64675">
        <ele>188</ele>
        <time>2017-02-05T13:53:45Z</time>
      </trkpt>
      <trkpt lat="48.2684" lon="2.64692">
        <ele>188</ele>
        <time>2017-02-05T13:53:50Z</time>
      </trkpt>
      <trkpt lat="48.26838" lon="2.64717">
        <ele>188</ele>
        <time>2017-02-05T13:53:55Z</time>
      </trkpt>
      <trkpt lat="48.26837" lon="2.64737">
        <ele>187</ele>
        <time>2017-02-05T13:53:58Z</time>
      </trkpt>
      <trkpt lat="48.26839" lon="2.64744">
        <ele>187</ele>
        <time>2017-02-05T13:53:59Z</time>
      </trkpt>
      <trkpt lat="48.26844" lon="2.64767">
        <ele>187</ele>
        <time>2017-02-05T13:54:03Z</time>
      </trkpt>
      <trkpt lat="48.26848" lon="2.64791">
        <ele>187</ele>
        <time>2017-02-05T13:54:07Z</time>
      </trkpt>
      <trkpt lat="48.26848" lon="2.64807">
        <ele>187</ele>
        <time>2017-02-05T13:54:11Z</time>
      </trkpt>
      <trkpt lat="48.2685" lon="2.64809">
        <ele>188</ele>
        <time>2017-02-05T13:54:12Z</time>
      </trkpt>
      <trkpt lat="48.26851" lon="2.64811">
        <ele>188</ele>
        <time>2017-02-05T13:54:13Z</time>
      </trkpt>
      <trkpt lat="48.26852" lon="2.64817">
        <ele>188</ele>
        <time>2017-02-05T13:54:15Z</time>
      </trkpt>
      <trkpt lat="48.26851" lon="2.6482">
        <ele>189</ele>
        <time>2017-02-05T13:54:16Z</time>
      </trkpt>
      <trkpt lat="48.26851" lon="2.64823">
        <ele>189</ele>
        <time>2017-02-05T13:54:17Z</time>
      </trkpt>
      <trkpt lat="48.2685" lon="2.64835">
        <ele>189</ele>
        <time>2017-02-05T13:54:21Z</time>
      </trkpt>
      <trkpt lat="48.2685" lon="2.64838">
        <ele>189</ele>
        <time>2017-02-05T13:54:22Z</time>
      </trkpt>
      <trkpt lat="48.26853" lon="2.64848">
        <ele>190</ele>
        <time>2017-02-05T13:54:26Z</time>
      </trkpt>
      <trkpt lat="48.26854" lon="2.64854">
        <ele>191</ele>
        <time>2017-02-05T13:54:29Z</time>
      </trkpt>
      <trkpt lat="48.26854" lon="2.64856">
        <ele>191</ele>
        <time>2017-02-05T13:54:30Z</time>
      </trkpt>
      <trkpt lat="48.26859" lon="2.64868">
        <ele>191</ele>
        <time>2017-02-05T13:54:34Z</time>
      </trkpt>
      <trkpt lat="48.26866" lon="2.64873">
        <ele>192</ele>
        <time>2017-02-05T13:54:39Z</time>
      </trkpt>
      <trkpt lat="48.2687" lon="2.64876">
        <ele>192</ele>
        <time>2017-02-05T13:54:43Z</time>
      </trkpt>
      <trkpt lat="48.26872" lon="2.64876">
        <ele>192</ele>
        <time>2017-02-05T13:54:45Z</time>
      </trkpt>
      <trkpt lat="48.26873" lon="2.64876">
        <ele>192</ele>
        <time>2017-02-05T13:54:49Z</time>
      </trkpt>
      <trkpt lat="48.26874" lon="2.64874">
        <ele>192</ele>
        <time>2017-02-05T13:54:55Z</time>
      </trkpt>
      <trkpt lat="48.26874" lon="2.64871">
        <ele>192</ele>
        <time>2017-02-05T13:54:56Z</time>
      </trkpt>
      <trkpt lat="48.26875" lon="2.64868">
        <ele>193</ele>
        <time>2017-02-05T13:54:59Z</time>
      </trkpt>
      <trkpt lat="48.26876" lon="2.64865">
        <ele>194</ele>
        <time>2017-02-05T13:55:03Z</time>
      </trkpt>
      <trkpt lat="48.26876" lon="2.64863">
        <ele>194</ele>
        <time>2017-02-05T13:55:04Z</time>
      </trkpt>
      <trkpt lat="48.26877" lon="2.6486">
        <ele>195</ele>
        <time>2017-02-05T13:55:06Z</time>
      </trkpt>
      <trkpt lat="48.26878" lon="2.64856">
        <ele>195</ele>
        <time>2017-02-05T13:55:09Z</time>
      </trkpt>
      <trkpt lat="48.26878" lon="2.64853">
        <ele>195</ele>
        <time>2017-02-05T13:55:11Z</time>
      </trkpt>
      <trkpt lat="48.26877" lon="2.64851">
        <ele>195</ele>
        <time>2017-02-05T13:55:12Z</time>
      </trkpt>
      <trkpt lat="48.26879" lon="2.64847">
        <ele>196</ele>
        <time>2017-02-05T13:55:15Z</time>
      </trkpt>
      <trkpt lat="48.26879" lon="2.64846">
        <ele>196</ele>
        <time>2017-02-05T13:55:16Z</time>
      </trkpt>
      <trkpt lat="48.26879" lon="2.64844">
        <ele>195</ele>
        <time>2017-02-05T13:55:17Z</time>
      </trkpt>
      <trkpt lat="48.26879" lon="2.64843">
        <ele>196</ele>
        <time>2017-02-05T13:55:20Z</time>
      </trkpt>
      <trkpt lat="48.26879" lon="2.6484">
        <ele>196</ele>
        <time>2017-02-05T13:55:27Z</time>
      </trkpt>
      <trkpt lat="48.26879" lon="2.64836">
        <ele>196</ele>
        <time>2017-02-05T13:55:37Z</time>
      </trkpt>
      <trkpt lat="48.26884" lon="2.64818">
        <ele>196</ele>
        <time>2017-02-05T13:55:43Z</time>
      </trkpt>
      <trkpt lat="48.26884" lon="2.64817">
        <ele>197</ele>
        <time>2017-02-05T13:55:46Z</time>
      </trkpt>
      <trkpt lat="48.26885" lon="2.64816">
        <ele>197</ele>
        <time>2017-02-05T13:55:48Z</time>
      </trkpt>
      <trkpt lat="48.26886" lon="2.64814">
        <ele>197</ele>
        <time>2017-02-05T13:55:56Z</time>
      </trkpt>
      <trkpt lat="48.26892" lon="2.64806">
        <ele>198</ele>
        <time>2017-02-05T13:55:59Z</time>
      </trkpt>
      <trkpt lat="48.26896" lon="2.64804">
        <ele>198</ele>
        <time>2017-02-05T13:56:01Z</time>
      </trkpt>
      <trkpt lat="48.269" lon="2.64805">
        <ele>199</ele>
        <time>2017-02-05T13:56:04Z</time>
      </trkpt>
      <trkpt lat="48.26901" lon="2.64806">
        <ele>199</ele>
        <time>2017-02-05T13:56:05Z</time>
      </trkpt>
      <trkpt lat="48.26901" lon="2.64807">
        <ele>200</ele>
        <time>2017-02-05T13:56:06Z</time>
      </trkpt>
      <trkpt lat="48.26902" lon="2.64808">
        <ele>200</ele>
        <time>2017-02-05T13:56:07Z</time>
      </trkpt>
      <trkpt lat="48.26905" lon="2.64807">
        <ele>200</ele>
        <time>2017-02-05T13:56:11Z</time>
      </trkpt>
      <trkpt lat="48.26909" lon="2.6481">
        <ele>200</ele>
        <time>2017-02-05T13:56:18Z</time>
      </trkpt>
      <trkpt lat="48.26909" lon="2.6481">
        <ele>201</ele>
        <time>2017-02-05T13:56:32Z</time>
      </trkpt>
      <trkpt lat="48.26911" lon="2.64813">
        <ele>201</ele>
        <time>2017-02-05T13:56:36Z</time>
      </trkpt>
      <trkpt lat="48.26914" lon="2.64816">
        <ele>201</ele>
        <time>2017-02-05T13:56:39Z</time>
      </trkpt>
      <trkpt lat="48.26915" lon="2.64821">
        <ele>202</ele>
        <time>2017-02-05T13:56:43Z</time>
      </trkpt>
      <trkpt lat="48.26916" lon="2.64823">
        <ele>202</ele>
        <time>2017-02-05T13:56:44Z</time>
      </trkpt>
      <trkpt lat="48.26917" lon="2.64826">
        <ele>203</ele>
        <time>2017-02-05T13:56:46Z</time>
      </trkpt>
      <trkpt lat="48.26916" lon="2.64832">
        <ele>203</ele>
        <time>2017-02-05T13:56:51Z</time>
      </trkpt>
      <trkpt lat="48.26916" lon="2.64833">
        <ele>203</ele>
        <time>2017-02-05T13:56:53Z</time>
      </trkpt>
      <trkpt lat="48.26916" lon="2.64833">
        <ele>206</ele>
        <time>2017-02-05T13:57:06Z</time>
      </trkpt>
      <trkpt lat="48.26916" lon="2.64838">
        <ele>206</ele>
        <time>2017-02-05T13:57:08Z</time>
      </trkpt>
      <trkpt lat="48.26918" lon="2.64845">
        <ele>206</ele>
        <time>2017-02-05T13:57:13Z</time>
      </trkpt>
      <trkpt lat="48.26919" lon="2.64855">
        <ele>205</ele>
        <time>2017-02-05T13:57:19Z</time>
      </trkpt>
      <trkpt lat="48.26919" lon="2.64856">
        <ele>206</ele>
        <time>2017-02-05T13:57:25Z</time>
      </trkpt>
      <trkpt lat="48.26919" lon="2.64857">
        <ele>206</ele>
        <time>2017-02-05T13:58:01Z</time>
      </trkpt>
      <trkpt lat="48.26919" lon="2.64857">
        <ele>206</ele>
        <time>2017-02-05T13:58:09Z</time>
      </trkpt>
      <trkpt lat="48.26919" lon="2.64857">
        <ele>204</ele>
        <time>2017-02-05T13:58:25Z</time>
      </trkpt>
      <trkpt lat="48.26919" lon="2.64857">
        <ele>203</ele>
        <time>2017-02-05T13:58:29Z</time>
      </trkpt>
      <trkpt lat="48.26919" lon="2.6486">
        <ele>199</ele>
        <time>2017-02-05T13:58:43Z</time>
      </trkpt>
      <trkpt lat="48.2692" lon="2.64862">
        <ele>198</ele>
        <time>2017-02-05T13:58:47Z</time>
      </trkpt>
      <trkpt lat="48.2692" lon="2.64862">
        <ele>198</ele>
        <time>2017-02-05T13:58:48Z</time>
      </trkpt>
      <trkpt lat="48.26923" lon="2.64867">
        <ele>197</ele>
        <time>2017-02-05T13:58:49Z</time>
      </trkpt>
      <trkpt lat="48.26927" lon="2.64868">
        <ele>195</ele>
        <time>2017-02-05T13:58:51Z</time>
      </trkpt>
      <trkpt lat="48.2693" lon="2.6487">
        <ele>194</ele>
        <time>2017-02-05T13:58:52Z</time>
      </trkpt>
      <trkpt lat="48.26932" lon="2.64873">
        <ele>194</ele>
        <time>2017-02-05T13:58:53Z</time>
      </trkpt>
      <trkpt lat="48.26934" lon="2.64876">
        <ele>193</ele>
        <time>2017-02-05T13:58:54Z</time>
      </trkpt>
      <trkpt lat="48.26938" lon="2.64881">
        <ele>192</ele>
        <time>2017-02-05T13:58:56Z</time>
      </trkpt>
      <trkpt lat="48.26942" lon="2.64885">
        <ele>190</ele>
        <time>2017-02-05T13:58:58Z</time>
      </trkpt>
      <trkpt lat="48.26943" lon="2.64887">
        <ele>189</ele>
        <time>2017-02-05T13:58:59Z</time>
      </trkpt>
      <trkpt lat="48.26945" lon="2.64889">
        <ele>187</ele>
        <time>2017-02-05T13:59:00Z</time>
      </trkpt>
      <trkpt lat="48.26948" lon="2.6489">
        <ele>186</ele>
        <time>2017-02-05T13:59:02Z</time>
      </trkpt>
      <trkpt lat="48.2695" lon="2.6489">
        <ele>185</ele>
        <time>2017-02-05T13:59:03Z</time>
      </trkpt>
      <trkpt lat="48.26952" lon="2.64891">
        <ele>185</ele>
        <time>2017-02-05T13:59:04Z</time>
      </trkpt>
      <trkpt lat="48.26957" lon="2.64892">
        <ele>183</ele>
        <time>2017-02-05T13:59:06Z</time>
      </trkpt>
      <trkpt lat="48.26959" lon="2.64892">
        <ele>182</ele>
        <time>2017-02-05T13:59:07Z</time>
      </trkpt>
      <trkpt lat="48.26961" lon="2.64891">
        <ele>181</ele>
        <time>2017-02-05T13:59:08Z</time>
      </trkpt>
      <trkpt lat="48.26962" lon="2.6489">
        <ele>181</ele>
        <time>2017-02-05T13:59:09Z</time>
      </trkpt>
      <trkpt lat="48.26967" lon="2.64889">
        <ele>180</ele>
        <time>2017-02-05T13:59:11Z</time>
      </trkpt>
      <trkpt lat="48.2697" lon="2.64891">
        <ele>180</ele>
        <time>2017-02-05T13:59:12Z</time>
      </trkpt>
      <trkpt lat="48.26978" lon="2.64896">
        <ele>178</ele>
        <time>2017-02-05T13:59:15Z</time>
      </trkpt>
      <trkpt lat="48.26979" lon="2.64897">
        <ele>178</ele>
        <time>2017-02-05T13:59:16Z</time>
      </trkpt>
      <trkpt lat="48.26983" lon="2.64895">
        <ele>177</ele>
        <time>2017-02-05T13:59:18Z</time>
      </trkpt>
      <trkpt lat="48.26987" lon="2.64888">
        <ele>177</ele>
        <time>2017-02-05T13:59:22Z</time>
      </trkpt>
      <trkpt lat="48.26988" lon="2.64878">
        <ele>176</ele>
        <time>2017-02-05T13:59:25Z</time>
      </trkpt>
      <trkpt lat="48.26988" lon="2.64875">
        <ele>176</ele>
        <time>2017-02-05T13:59:26Z</time>
      </trkpt>
      <trkpt lat="48.26988" lon="2.64872">
        <ele>176</ele>
        <time>2017-02-05T13:59:27Z</time>
      </trkpt>
      <trkpt lat="48.26985" lon="2.64851">
        <ele>176</ele>
        <time>2017-02-05T13:59:33Z</time>
      </trkpt>
      <trkpt lat="48.26984" lon="2.64837">
        <ele>176</ele>
        <time>2017-02-05T13:59:38Z</time>
      </trkpt>
      <trkpt lat="48.26983" lon="2.64815">
        <ele>177</ele>
        <time>2017-02-05T13:59:44Z</time>
      </trkpt>
      <trkpt lat="48.26975" lon="2.64787">
        <ele>177</ele>
        <time>2017-02-05T13:59:50Z</time>
      </trkpt>
      <trkpt lat="48.26975" lon="2.64782">
        <ele>176</ele>
        <time>2017-02-05T13:59:51Z</time>
      </trkpt>
      <trkpt lat="48.26975" lon="2.6477">
        <ele>176</ele>
        <time>2017-02-05T13:59:53Z</time>
      </trkpt>
      <trkpt lat="48.26972" lon="2.64739">
        <ele>176</ele>
        <time>2017-02-05T13:59:58Z</time>
      </trkpt>
      <trkpt lat="48.26973" lon="2.64715">
        <ele>176</ele>
        <time>2017-02-05T14:00:02Z</time>
      </trkpt>
      <trkpt lat="48.26975" lon="2.64685">
        <ele>176</ele>
        <time>2017-02-05T14:00:07Z</time>
      </trkpt>
      <trkpt lat="48.26975" lon="2.64663">
        <ele>176</ele>
        <time>2017-02-05T14:00:11Z</time>
      </trkpt>
      <trkpt lat="48.26972" lon="2.64634">
        <ele>177</ele>
        <time>2017-02-05T14:00:17Z</time>
      </trkpt>
      <trkpt lat="48.26969" lon="2.64609">
        <ele>177</ele>
        <time>2017-02-05T14:00:22Z</time>
      </trkpt>
      <trkpt lat="48.26971" lon="2.64586">
        <ele>177</ele>
        <time>2017-02-05T14:00:27Z</time>
      </trkpt>
      <trkpt lat="48.26971" lon="2.64582">
        <ele>177</ele>
        <time>2017-02-05T14:00:28Z</time>
      </trkpt>
      <trkpt lat="48.26967" lon="2.64557">
        <ele>177</ele>
        <time>2017-02-05T14:00:33Z</time>
      </trkpt>
      <trkpt lat="48.26957" lon="2.64534">
        <ele>178</ele>
        <time>2017-02-05T14:00:38Z</time>
      </trkpt>
      <trkpt lat="48.26944" lon="2.6452">
        <ele>178</ele>
        <time>2017-02-05T14:00:44Z</time>
      </trkpt>
      <trkpt lat="48.26939" lon="2.64505">
        <ele>179</ele>
        <time>2017-02-05T14:00:49Z</time>
      </trkpt>
      <trkpt lat="48.26937" lon="2.64495">
        <ele>179</ele>
        <time>2017-02-05T14:00:52Z</time>
      </trkpt>
      <trkpt lat="48.26935" lon="2.64487">
        <ele>180</ele>
        <time>2017-02-05T14:00:55Z</time>
      </trkpt>
      <trkpt lat="48.26934" lon="2.64484">
        <ele>180</ele>
        <time>2017-02-05T14:00:56Z</time>
      </trkpt>
      <trkpt lat="48.2693" lon="2.64473">
        <ele>180</ele>
        <time>2017-02-05T14:00:59Z</time>
      </trkpt>
      <trkpt lat="48.26928" lon="2.64467">
        <ele>180</ele>
        <time>2017-02-05T14:01:01Z</time>
      </trkpt>
      <trkpt lat="48.26919" lon="2.64454">
        <ele>180</ele>
        <time>2017-02-05T14:01:06Z</time>
      </trkpt>
      <trkpt lat="48.26905" lon="2.6444">
        <ele>180</ele>
        <time>2017-02-05T14:01:12Z</time>
      </trkpt>
      <trkpt lat="48.26887" lon="2.6443">
        <ele>180</ele>
        <time>2017-02-05T14:01:18Z</time>
      </trkpt>
      <trkpt lat="48.26872" lon="2.64427">
        <ele>180</ele>
        <time>2017-02-05T14:01:23Z</time>
      </trkpt>
      <trkpt lat="48.26869" lon="2.64427">
        <ele>181</ele>
        <time>2017-02-05T14:01:24Z</time>
      </trkpt>
      <trkpt lat="48.26849" lon="2.64429">
        <ele>181</ele>
        <time>2017-02-05T14:01:31Z</time>
      </trkpt>
      <trkpt lat="48.26832" lon="2.64426">
        <ele>181</ele>
        <time>2017-02-05T14:01:37Z</time>
      </trkpt>
      <trkpt lat="48.26831" lon="2.64425">
        <ele>181</ele>
        <time>2017-02-05T14:01:43Z</time>
      </trkpt>
      <trkpt lat="48.2683" lon="2.64426">
        <ele>181</ele>
        <time>2017-02-05T14:01:50Z</time>
      </trkpt>
      <trkpt lat="48.2683" lon="2.64426">
        <ele>181</ele>
        <time>2017-02-05T14:02:35Z</time>
      </trkpt>
      <trkpt lat="48.2683" lon="2.64424">
        <ele>181</ele>
        <time>2017-02-05T14:02:51Z</time>
      </trkpt>
      <trkpt lat="48.26834" lon="2.64414">
        <ele>181</ele>
        <time>2017-02-05T14:02:56Z</time>
      </trkpt>
      <trkpt lat="48.26843" lon="2.64401">
        <ele>181</ele>
        <time>2017-02-05T14:03:02Z</time>
      </trkpt>
      <trkpt lat="48.26845" lon="2.64395">
        <ele>181</ele>
        <time>2017-02-05T14:03:04Z</time>
      </trkpt>
      <trkpt lat="48.26845" lon="2.6439">
        <ele>181</ele>
        <time>2017-02-05T14:03:06Z</time>
      </trkpt>
      <trkpt lat="48.26842" lon="2.64378">
        <ele>182</ele>
        <time>2017-02-05T14:03:12Z</time>
      </trkpt>
      <trkpt lat="48.26838" lon="2.64372">
        <ele>182</ele>
        <time>2017-02-05T14:03:17Z</time>
      </trkpt>
      <trkpt lat="48.26836" lon="2.64369">
        <ele>183</ele>
        <time>2017-02-05T14:03:20Z</time>
      </trkpt>
      <trkpt lat="48.26833" lon="2.64365">
        <ele>183</ele>
        <time>2017-02-05T14:03:23Z</time>
      </trkpt>
      <trkpt lat="48.26831" lon="2.64361">
        <ele>184</ele>
        <time>2017-02-05T14:03:26Z</time>
      </trkpt>
      <trkpt lat="48.26828" lon="2.64355">
        <ele>184</ele>
        <time>2017-02-05T14:03:30Z</time>
      </trkpt>
      <trkpt lat="48.26826" lon="2.64352">
        <ele>185</ele>
        <time>2017-02-05T14:03:32Z</time>
      </trkpt>
      <trkpt lat="48.26822" lon="2.64345">
        <ele>185</ele>
        <time>2017-02-05T14:03:36Z</time>
      </trkpt>
      <trkpt lat="48.26821" lon="2.64343">
        <ele>186</ele>
        <time>2017-02-05T14:03:39Z</time>
      </trkpt>
      <trkpt lat="48.26819" lon="2.64336">
        <ele>186</ele>
        <time>2017-02-05T14:03:42Z</time>
      </trkpt>
      <trkpt lat="48.26816" lon="2.64331">
        <ele>187</ele>
        <time>2017-02-05T14:03:45Z</time>
      </trkpt>
      <trkpt lat="48.26813" lon="2.64324">
        <ele>188</ele>
        <time>2017-02-05T14:03:49Z</time>
      </trkpt>
      <trkpt lat="48.26812" lon="2.64321">
        <ele>188</ele>
        <time>2017-02-05T14:03:51Z</time>
      </trkpt>
      <trkpt lat="48.26809" lon="2.64314">
        <ele>189</ele>
        <time>2017-02-05T14:03:56Z</time>
      </trkpt>
      <trkpt lat="48.26808" lon="2.64312">
        <ele>189</ele>
        <time>2017-02-05T14:03:57Z</time>
      </trkpt>
      <trkpt lat="48.26804" lon="2.64303">
        <ele>190</ele>
        <time>2017-02-05T14:04:03Z</time>
      </trkpt>
      <trkpt lat="48.26803" lon="2.64301">
        <ele>190</ele>
        <time>2017-02-05T14:04:04Z</time>
      </trkpt>
      <trkpt lat="48.26801" lon="2.64292">
        <ele>191</ele>
        <time>2017-02-05T14:04:09Z</time>
      </trkpt>
      <trkpt lat="48.268" lon="2.6429">
        <ele>191</ele>
        <time>2017-02-05T14:04:10Z</time>
      </trkpt>
      <trkpt lat="48.26799" lon="2.64284">
        <ele>192</ele>
        <time>2017-02-05T14:04:15Z</time>
      </trkpt>
      <trkpt lat="48.26799" lon="2.64283">
        <ele>193</ele>
        <time>2017-02-05T14:04:16Z</time>
      </trkpt>
      <trkpt lat="48.26796" lon="2.64277">
        <ele>193</ele>
        <time>2017-02-05T14:04:20Z</time>
      </trkpt>
      <trkpt lat="48.26796" lon="2.64275">
        <ele>194</ele>
        <time>2017-02-05T14:04:21Z</time>
      </trkpt>
      <trkpt lat="48.26792" lon="2.64271">
        <ele>195</ele>
        <time>2017-02-05T14:04:26Z</time>
      </trkpt>
      <trkpt lat="48.26791" lon="2.6427">
        <ele>195</ele>
        <time>2017-02-05T14:04:27Z</time>
      </trkpt>
      <trkpt lat="48.26786" lon="2.64271">
        <ele>196</ele>
        <time>2017-02-05T14:04:33Z</time>
      </trkpt>
      <trkpt lat="48.2678" lon="2.64276">
        <ele>196</ele>
        <time>2017-02-05T14:04:40Z</time>
      </trkpt>
      <trkpt lat="48.26777" lon="2.64277">
        <ele>197</ele>
        <time>2017-02-05T14:04:42Z</time>
      </trkpt>
      <trkpt lat="48.26776" lon="2.64277">
        <ele>197</ele>
        <time>2017-02-05T14:04:45Z</time>
      </trkpt>
      <trkpt lat="48.26771" lon="2.64284">
        <ele>197</ele>
        <time>2017-02-05T14:04:49Z</time>
      </trkpt>
      <trkpt lat="48.26768" lon="2.64279">
        <ele>198</ele>
        <time>2017-02-05T14:04:53Z</time>
      </trkpt>
      <trkpt lat="48.26768" lon="2.64278">
        <ele>198</ele>
        <time>2017-02-05T14:04:54Z</time>
      </trkpt>
      <trkpt lat="48.26769" lon="2.64268">
        <ele>199</ele>
        <time>2017-02-05T14:05:01Z</time>
      </trkpt>
      <trkpt lat="48.26772" lon="2.64257">
        <ele>200</ele>
        <time>2017-02-05T14:05:08Z</time>
      </trkpt>
      <trkpt lat="48.26779" lon="2.64247">
        <ele>200</ele>
        <time>2017-02-05T14:05:13Z</time>
      </trkpt>
      <trkpt lat="48.2679" lon="2.64246">
        <ele>199</ele>
        <time>2017-02-05T14:05:19Z</time>
      </trkpt>
      <trkpt lat="48.26805" lon="2.6425">
        <ele>200</ele>
        <time>2017-02-05T14:05:25Z</time>
      </trkpt>
      <trkpt lat="48.26819" lon="2.64256">
        <ele>200</ele>
        <time>2017-02-05T14:05:30Z</time>
      </trkpt>
      <trkpt lat="48.26835" lon="2.64259">
        <ele>200</ele>
        <time>2017-02-05T14:05:36Z</time>
      </trkpt>
      <trkpt lat="48.2684" lon="2.64261">
        <ele>199</ele>
        <time>2017-02-05T14:05:39Z</time>
      </trkpt>
      <trkpt lat="48.26842" lon="2.6426">
        <ele>199</ele>
        <time>2017-02-05T14:05:40Z</time>
      </trkpt>
      <trkpt lat="48.26849" lon="2.64259">
        <ele>199</ele>
        <time>2017-02-05T14:05:43Z</time>
      </trkpt>
      <trkpt lat="48.26853" lon="2.64257">
        <ele>198</ele>
        <time>2017-02-05T14:05:45Z</time>
      </trkpt>
      <trkpt lat="48.26859" lon="2.6425">
        <ele>197</ele>
        <time>2017-02-05T14:05:49Z</time>
      </trkpt>
      <trkpt lat="48.26859" lon="2.6425">
        <ele>197</ele>
        <time>2017-02-05T14:05:56Z</time>
      </trkpt>
      <trkpt lat="48.2686" lon="2.64249">
        <ele>197</ele>
        <time>2017-02-05T14:06:17Z</time>
      </trkpt>
      <trkpt lat="48.26859" lon="2.6425">
        <ele>197</ele>
        <time>2017-02-05T14:06:19Z</time>
      </trkpt>
      <trkpt lat="48.2686" lon="2.64248">
        <ele>195</ele>
        <time>2017-02-05T14:06:34Z</time>
      </trkpt>
      <trkpt lat="48.2686" lon="2.64248">
        <ele>194</ele>
        <time>2017-02-05T14:06:44Z</time>
      </trkpt>
      <trkpt lat="48.26862" lon="2.64245">
        <ele>194</ele>
        <time>2017-02-05T14:06:45Z</time>
      </trkpt>
      <trkpt lat="48.26866" lon="2.64242">
        <ele>194</ele>
        <time>2017-02-05T14:06:47Z</time>
      </trkpt>
      <trkpt lat="48.26868" lon="2.64238">
        <ele>194</ele>
        <time>2017-02-05T14:06:49Z</time>
      </trkpt>
      <trkpt lat="48.26873" lon="2.64232">
        <ele>194</ele>
        <time>2017-02-05T14:06:53Z</time>
      </trkpt>
      <trkpt lat="48.26874" lon="2.64231">
        <ele>193</ele>
        <time>2017-02-05T14:06:54Z</time>
      </trkpt>
      <trkpt lat="48.26876" lon="2.64228">
        <ele>193</ele>
        <time>2017-02-05T14:06:56Z</time>
      </trkpt>
      <trkpt lat="48.26878" lon="2.64226">
        <ele>192</ele>
        <time>2017-02-05T14:07:01Z</time>
      </trkpt>
      <trkpt lat="48.26882" lon="2.64222">
        <ele>193</ele>
        <time>2017-02-05T14:07:07Z</time>
      </trkpt>
      <trkpt lat="48.26882" lon="2.64221">
        <ele>193</ele>
        <time>2017-02-05T14:07:46Z</time>
      </trkpt>
      <trkpt lat="48.26883" lon="2.64221">
        <ele>193</ele>
        <time>2017-02-05T14:08:30Z</time>
      </trkpt>
      <trkpt lat="48.26883" lon="2.64221">
        <ele>193</ele>
        <time>2017-02-05T14:08:35Z</time>
      </trkpt>
      <trkpt lat="48.26883" lon="2.64221">
        <ele>194</ele>
        <time>2017-02-05T14:08:45Z</time>
      </trkpt>
      <trkpt lat="48.26883" lon="2.64221">
        <ele>195</ele>
        <time>2017-02-05T14:08:48Z</time>
      </trkpt>
      <trkpt lat="48.26883" lon="2.64221">
        <ele>195</ele>
        <time>2017-02-05T14:08:52Z</time>
      </trkpt>
      <trkpt lat="48.26882" lon="2.6422">
        <ele>198</ele>
        <time>2017-02-05T14:09:10Z</time>
      </trkpt>
      <trkpt lat="48.26882" lon="2.6422">
        <ele>198</ele>
        <time>2017-02-05T14:09:16Z</time>
      </trkpt>
      <trkpt lat="48.26877" lon="2.64212">
        <ele>199</ele>
        <time>2017-02-05T14:09:22Z</time>
      </trkpt>
      <trkpt lat="48.26877" lon="2.64209">
        <ele>200</ele>
        <time>2017-02-05T14:09:26Z</time>
      </trkpt>
      <trkpt lat="48.26877" lon="2.64207">
        <ele>200</ele>
        <time>2017-02-05T14:09:27Z</time>
      </trkpt>
      <trkpt lat="48.26877" lon="2.64205">
        <ele>200</ele>
        <time>2017-02-05T14:09:28Z</time>
      </trkpt>
      <trkpt lat="48.26877" lon="2.64203">
        <ele>201</ele>
        <time>2017-02-05T14:09:33Z</time>
      </trkpt>
      <trkpt lat="48.26877" lon="2.64203">
        <ele>201</ele>
        <time>2017-02-05T14:09:35Z</time>
      </trkpt>
      <trkpt lat="48.26877" lon="2.64204">
        <ele>203</ele>
        <time>2017-02-05T14:09:51Z</time>
      </trkpt>
      <trkpt lat="48.26877" lon="2.64204">
        <ele>204</ele>
        <time>2017-02-05T14:09:58Z</time>
      </trkpt>
      <trkpt lat="48.26877" lon="2.64203">
        <ele>204</ele>
        <time>2017-02-05T14:09:59Z</time>
      </trkpt>
      <trkpt lat="48.26877" lon="2.64204">
        <ele>205</ele>
        <time>2017-02-05T14:10:00Z</time>
      </trkpt>
      <trkpt lat="48.26873" lon="2.64203">
        <ele>205</ele>
        <time>2017-02-05T14:10:04Z</time>
      </trkpt>
      <trkpt lat="48.26872" lon="2.64203">
        <ele>205</ele>
        <time>2017-02-05T14:10:05Z</time>
      </trkpt>
      <trkpt lat="48.26868" lon="2.64206">
        <ele>205</ele>
        <time>2017-02-05T14:10:10Z</time>
      </trkpt>
      <trkpt lat="48.26867" lon="2.64206">
        <ele>205</ele>
        <time>2017-02-05T14:10:15Z</time>
      </trkpt>
      <trkpt lat="48.26867" lon="2.64206">
        <ele>209</ele>
        <time>2017-02-05T14:10:36Z</time>
      </trkpt>
      <trkpt lat="48.26867" lon="2.64206">
        <ele>209</ele>
        <time>2017-02-05T14:10:38Z</time>
      </trkpt>
      <trkpt lat="48.26867" lon="2.64206">
        <ele>210</ele>
        <time>2017-02-05T14:10:42Z</time>
      </trkpt>
      <trkpt lat="48.26867" lon="2.64206">
        <ele>210</ele>
        <time>2017-02-05T14:10:46Z</time>
      </trkpt>
      <trkpt lat="48.26867" lon="2.64206">
        <ele>211</ele>
        <time>2017-02-05T14:10:54Z</time>
      </trkpt>
      <trkpt lat="48.26865" lon="2.64205">
        <ele>211</ele>
        <time>2017-02-05T14:11:33Z</time>
      </trkpt>
      <trkpt lat="48.26864" lon="2.64204">
        <ele>211</ele>
        <time>2017-02-05T14:12:14Z</time>
      </trkpt>
      <trkpt lat="48.26864" lon="2.64203">
        <ele>211</ele>
        <time>2017-02-05T14:12:56Z</time>
      </trkpt>
      <trkpt lat="48.26863" lon="2.64202">
        <ele>211</ele>
        <time>2017-02-05T14:13:38Z</time>
      </trkpt>
      <trkpt lat="48.26862" lon="2.642">
        <ele>211</ele>
        <time>2017-02-05T14:13:53Z</time>
      </trkpt>
      <trkpt lat="48.26858" lon="2.64193">
        <ele>211</ele>
        <time>2017-02-05T14:13:59Z</time>
      </trkpt>
      <trkpt lat="48.26857" lon="2.64191">
        <ele>211</ele>
        <time>2017-02-05T14:14:49Z</time>
      </trkpt>
      <trkpt lat="48.26856" lon="2.6419">
        <ele>211</ele>
        <time>2017-02-05T14:15:27Z</time>
      </trkpt>
      <trkpt lat="48.26856" lon="2.64188">
        <ele>211</ele>
        <time>2017-02-05T14:15:59Z</time>
      </trkpt>
      <trkpt lat="48.26849" lon="2.6418">
        <ele>211</ele>
        <time>2017-02-05T14:16:15Z</time>
      </trkpt>
      <trkpt lat="48.26846" lon="2.64177">
        <ele>211</ele>
        <time>2017-02-05T14:16:16Z</time>
      </trkpt>
      <trkpt lat="48.26839" lon="2.64168">
        <ele>211</ele>
        <time>2017-02-05T14:16:19Z</time>
      </trkpt>
      <trkpt lat="48.26833" lon="2.64159">
        <ele>211</ele>
        <time>2017-02-05T14:16:22Z</time>
      </trkpt>
      <trkpt lat="48.26826" lon="2.64146">
        <ele>211</ele>
        <time>2017-02-05T14:16:27Z</time>
      </trkpt>
      <trkpt lat="48.26825" lon="2.64143">
        <ele>211</ele>
        <time>2017-02-05T14:16:28Z</time>
      </trkpt>
      <trkpt lat="48.26822" lon="2.64133">
        <ele>210</ele>
        <time>2017-02-05T14:16:32Z</time>
      </trkpt>
      <trkpt lat="48.26822" lon="2.64131">
        <ele>210</ele>
        <time>2017-02-05T14:16:33Z</time>
      </trkpt>
      <trkpt lat="48.26822" lon="2.64128">
        <ele>210</ele>
        <time>2017-02-05T14:16:34Z</time>
      </trkpt>
      <trkpt lat="48.26823" lon="2.64123">
        <ele>208</ele>
        <time>2017-02-05T14:16:36Z</time>
      </trkpt>
      <trkpt lat="48.26824" lon="2.6412">
        <ele>208</ele>
        <time>2017-02-05T14:16:38Z</time>
      </trkpt>
      <trkpt lat="48.26824" lon="2.64117">
        <ele>207</ele>
        <time>2017-02-05T14:16:39Z</time>
      </trkpt>
      <trkpt lat="48.26824" lon="2.64118">
        <ele>207</ele>
        <time>2017-02-05T14:16:40Z</time>
      </trkpt>
      <trkpt lat="48.26823" lon="2.6411">
        <ele>207</ele>
        <time>2017-02-05T14:16:42Z</time>
      </trkpt>
      <trkpt lat="48.26822" lon="2.64105">
        <ele>207</ele>
        <time>2017-02-05T14:16:43Z</time>
      </trkpt>
      <trkpt lat="48.26819" lon="2.64092">
        <ele>207</ele>
        <time>2017-02-05T14:16:48Z</time>
      </trkpt>
      <trkpt lat="48.26815" lon="2.64086">
        <ele>207</ele>
        <time>2017-02-05T14:16:51Z</time>
      </trkpt>
      <trkpt lat="48.26813" lon="2.64084">
        <ele>207</ele>
        <time>2017-02-05T14:16:53Z</time>
      </trkpt>
      <trkpt lat="48.26812" lon="2.64078">
        <ele>206</ele>
        <time>2017-02-05T14:16:56Z</time>
      </trkpt>
      <trkpt lat="48.26811" lon="2.64075">
        <ele>206</ele>
        <time>2017-02-05T14:16:57Z</time>
      </trkpt>
      <trkpt lat="48.2681" lon="2.64073">
        <ele>206</ele>
        <time>2017-02-05T14:16:58Z</time>
      </trkpt>
      <trkpt lat="48.26807" lon="2.64067">
        <ele>205</ele>
        <time>2017-02-05T14:17:01Z</time>
      </trkpt>
      <trkpt lat="48.26806" lon="2.64063">
        <ele>203</ele>
        <time>2017-02-05T14:17:06Z</time>
      </trkpt>
      <trkpt lat="48.26806" lon="2.64064">
        <ele>203</ele>
        <time>2017-02-05T14:17:07Z</time>
      </trkpt>
      <trkpt lat="48.26806" lon="2.64059">
        <ele>202</ele>
        <time>2017-02-05T14:17:08Z</time>
      </trkpt>
      <trkpt lat="48.26806" lon="2.64058">
        <ele>201</ele>
        <time>2017-02-05T14:17:10Z</time>
      </trkpt>
      <trkpt lat="48.26807" lon="2.64055">
        <ele>200</ele>
        <time>2017-02-05T14:17:12Z</time>
      </trkpt>
      <trkpt lat="48.26808" lon="2.64051">
        <ele>200</ele>
        <time>2017-02-05T14:17:25Z</time>
      </trkpt>
      <trkpt lat="48.26809" lon="2.64046">
        <ele>199</ele>
        <time>2017-02-05T14:17:56Z</time>
      </trkpt>
      <trkpt lat="48.26805" lon="2.64035">
        <ele>200</ele>
        <time>2017-02-05T14:18:02Z</time>
      </trkpt>
      <trkpt lat="48.26802" lon="2.64034">
        <ele>200</ele>
        <time>2017-02-05T14:18:09Z</time>
      </trkpt>
      <trkpt lat="48.26801" lon="2.64034">
        <ele>201</ele>
        <time>2017-02-05T14:18:15Z</time>
      </trkpt>
      <trkpt lat="48.26801" lon="2.64034">
        <ele>201</ele>
        <time>2017-02-05T14:18:17Z</time>
      </trkpt>
      <trkpt lat="48.26798" lon="2.64025">
        <ele>201</ele>
        <time>2017-02-05T14:18:56Z</time>
      </trkpt>
      <trkpt lat="48.26797" lon="2.6402">
        <ele>201</ele>
        <time>2017-02-05T14:18:58Z</time>
      </trkpt>
      <trkpt lat="48.26797" lon="2.64019">
        <ele>200</ele>
        <time>2017-02-05T14:19:00Z</time>
      </trkpt>
      <trkpt lat="48.26798" lon="2.64014">
        <ele>200</ele>
        <time>2017-02-05T14:19:01Z</time>
      </trkpt>
      <trkpt lat="48.26798" lon="2.64012">
        <ele>199</ele>
        <time>2017-02-05T14:19:02Z</time>
      </trkpt>
      <trkpt lat="48.26799" lon="2.64011">
        <ele>198</ele>
        <time>2017-02-05T14:19:04Z</time>
      </trkpt>
      <trkpt lat="48.26801" lon="2.64012">
        <ele>197</ele>
        <time>2017-02-05T14:19:07Z</time>
      </trkpt>
      <trkpt lat="48.26803" lon="2.6401">
        <ele>196</ele>
        <time>2017-02-05T14:19:09Z</time>
      </trkpt>
      <trkpt lat="48.26803" lon="2.64006">
        <ele>196</ele>
        <time>2017-02-05T14:19:10Z</time>
      </trkpt>
      <trkpt lat="48.26807" lon="2.63999">
        <ele>196</ele>
        <time>2017-02-05T14:19:14Z</time>
      </trkpt>
      <trkpt lat="48.26808" lon="2.64">
        <ele>196</ele>
        <time>2017-02-05T14:19:15Z</time>
      </trkpt>
      <trkpt lat="48.26815" lon="2.64018">
        <ele>195</ele>
        <time>2017-02-05T14:19:20Z</time>
      </trkpt>
      <trkpt lat="48.2682" lon="2.64028">
        <ele>196</ele>
        <time>2017-02-05T14:19:24Z</time>
      </trkpt>
      <trkpt lat="48.26822" lon="2.64027">
        <ele>195</ele>
        <time>2017-02-05T14:19:26Z</time>
      </trkpt>
      <trkpt lat="48.26825" lon="2.64022">
        <ele>194</ele>
        <time>2017-02-05T14:19:28Z</time>
      </trkpt>
      <trkpt lat="48.26827" lon="2.64021">
        <ele>193</ele>
        <time>2017-02-05T14:19:29Z</time>
      </trkpt>
      <trkpt lat="48.2683" lon="2.64019">
        <ele>192</ele>
        <time>2017-02-05T14:19:31Z</time>
      </trkpt>
      <trkpt lat="48.26832" lon="2.64017">
        <ele>192</ele>
        <time>2017-02-05T14:19:32Z</time>
      </trkpt>
      <trkpt lat="48.26834" lon="2.64016">
        <ele>191</ele>
        <time>2017-02-05T14:19:33Z</time>
      </trkpt>
      <trkpt lat="48.26835" lon="2.64014">
        <ele>191</ele>
        <time>2017-02-05T14:19:34Z</time>
      </trkpt>
      <trkpt lat="48.26839" lon="2.64009">
        <ele>191</ele>
        <time>2017-02-05T14:19:37Z</time>
      </trkpt>
      <trkpt lat="48.2684" lon="2.64004">
        <ele>191</ele>
        <time>2017-02-05T14:19:39Z</time>
      </trkpt>
      <trkpt lat="48.26842" lon="2.64">
        <ele>191</ele>
        <time>2017-02-05T14:19:41Z</time>
      </trkpt>
      <trkpt lat="48.26842" lon="2.63996">
        <ele>191</ele>
        <time>2017-02-05T14:19:43Z</time>
      </trkpt>
      <trkpt lat="48.26842" lon="2.63989">
        <ele>191</ele>
        <time>2017-02-05T14:19:45Z</time>
      </trkpt>
      <trkpt lat="48.26843" lon="2.63983">
        <ele>191</ele>
        <time>2017-02-05T14:19:47Z</time>
      </trkpt>
      <trkpt lat="48.26844" lon="2.63982">
        <ele>192</ele>
        <time>2017-02-05T14:19:50Z</time>
      </trkpt>
      <trkpt lat="48.26846" lon="2.63977">
        <ele>192</ele>
        <time>2017-02-05T14:19:54Z</time>
      </trkpt>
      <trkpt lat="48.26846" lon="2.63975">
        <ele>192</ele>
        <time>2017-02-05T14:19:55Z</time>
      </trkpt>
      <trkpt lat="48.26847" lon="2.63967">
        <ele>192</ele>
        <time>2017-02-05T14:20:00Z</time>
      </trkpt>
      <trkpt lat="48.26847" lon="2.63965">
        <ele>192</ele>
        <time>2017-02-05T14:20:01Z</time>
      </trkpt>
      <trkpt lat="48.26846" lon="2.63961">
        <ele>193</ele>
        <time>2017-02-05T14:20:07Z</time>
      </trkpt>
      <trkpt lat="48.26845" lon="2.6396">
        <ele>194</ele>
        <time>2017-02-05T14:20:08Z</time>
      </trkpt>
      <trkpt lat="48.26846" lon="2.63956">
        <ele>194</ele>
        <time>2017-02-05T14:20:15Z</time>
      </trkpt>
      <trkpt lat="48.26847" lon="2.63956">
        <ele>194</ele>
        <time>2017-02-05T14:20:48Z</time>
      </trkpt>
      <trkpt lat="48.26848" lon="2.63954">
        <ele>194</ele>
        <time>2017-02-05T14:20:49Z</time>
      </trkpt>
      <trkpt lat="48.26849" lon="2.63949">
        <ele>193</ele>
        <time>2017-02-05T14:20:52Z</time>
      </trkpt>
      <trkpt lat="48.26847" lon="2.63931">
        <ele>194</ele>
        <time>2017-02-05T14:20:58Z</time>
      </trkpt>
      <trkpt lat="48.26842" lon="2.63915">
        <ele>194</ele>
        <time>2017-02-05T14:21:03Z</time>
      </trkpt>
      <trkpt lat="48.2684" lon="2.63912">
        <ele>194</ele>
        <time>2017-02-05T14:21:04Z</time>
      </trkpt>
      <trkpt lat="48.26833" lon="2.63898">
        <ele>194</ele>
        <time>2017-02-05T14:21:09Z</time>
      </trkpt>
      <trkpt lat="48.26832" lon="2.63895">
        <ele>195</ele>
        <time>2017-02-05T14:21:10Z</time>
      </trkpt>
      <trkpt lat="48.26829" lon="2.6389">
        <ele>195</ele>
        <time>2017-02-05T14:21:15Z</time>
      </trkpt>
      <trkpt lat="48.26828" lon="2.63889">
        <ele>196</ele>
        <time>2017-02-05T14:21:22Z</time>
      </trkpt>
      <trkpt lat="48.26827" lon="2.63888">
        <ele>196</ele>
        <time>2017-02-05T14:21:23Z</time>
      </trkpt>
      <trkpt lat="48.26825" lon="2.63885">
        <ele>197</ele>
        <time>2017-02-05T14:21:29Z</time>
      </trkpt>
      <trkpt lat="48.26825" lon="2.63885">
        <ele>200</ele>
        <time>2017-02-05T14:22:05Z</time>
      </trkpt>
      <trkpt lat="48.26825" lon="2.63884">
        <ele>201</ele>
        <time>2017-02-05T14:22:11Z</time>
      </trkpt>
      <trkpt lat="48.26825" lon="2.63883">
        <ele>201</ele>
        <time>2017-02-05T14:22:12Z</time>
      </trkpt>
      <trkpt lat="48.26827" lon="2.63878">
        <ele>200</ele>
        <time>2017-02-05T14:22:14Z</time>
      </trkpt>
      <trkpt lat="48.26827" lon="2.63876">
        <ele>200</ele>
        <time>2017-02-05T14:22:15Z</time>
      </trkpt>
      <trkpt lat="48.26828" lon="2.63869">
        <ele>201</ele>
        <time>2017-02-05T14:22:21Z</time>
      </trkpt>
      <trkpt lat="48.26828" lon="2.63864">
        <ele>202</ele>
        <time>2017-02-05T14:22:23Z</time>
      </trkpt>
      <trkpt lat="48.26828" lon="2.63861">
        <ele>203</ele>
        <time>2017-02-05T14:22:26Z</time>
      </trkpt>
      <trkpt lat="48.26828" lon="2.63855">
        <ele>203</ele>
        <time>2017-02-05T14:22:29Z</time>
      </trkpt>
      <trkpt lat="48.26827" lon="2.63849">
        <ele>203</ele>
        <time>2017-02-05T14:22:36Z</time>
      </trkpt>
      <trkpt lat="48.26828" lon="2.63848">
        <ele>203</ele>
        <time>2017-02-05T14:22:39Z</time>
      </trkpt>
      <trkpt lat="48.26829" lon="2.63842">
        <ele>202</ele>
        <time>2017-02-05T14:22:41Z</time>
      </trkpt>
      <trkpt lat="48.26829" lon="2.63838">
        <ele>202</ele>
        <time>2017-02-05T14:22:43Z</time>
      </trkpt>
      <trkpt lat="48.2683" lon="2.63829">
        <ele>201</ele>
        <time>2017-02-05T14:22:45Z</time>
      </trkpt>
      <trkpt lat="48.26832" lon="2.63823">
        <ele>201</ele>
        <time>2017-02-05T14:22:47Z</time>
      </trkpt>
      <trkpt lat="48.26832" lon="2.63817">
        <ele>202</ele>
        <time>2017-02-05T14:22:49Z</time>
      </trkpt>
      <trkpt lat="48.26831" lon="2.63805">
        <ele>202</ele>
        <time>2017-02-05T14:22:52Z</time>
      </trkpt>
      <trkpt lat="48.26833" lon="2.63794">
        <ele>202</ele>
        <time>2017-02-05T14:22:55Z</time>
      </trkpt>
      <trkpt lat="48.26834" lon="2.63791">
        <ele>202</ele>
        <time>2017-02-05T14:22:56Z</time>
      </trkpt>
      <trkpt lat="48.26833" lon="2.63779">
        <ele>202</ele>
        <time>2017-02-05T14:23:00Z</time>
      </trkpt>
      <trkpt lat="48.26832" lon="2.63775">
        <ele>201</ele>
        <time>2017-02-05T14:23:03Z</time>
      </trkpt>
      <trkpt lat="48.26828" lon="2.63772">
        <ele>201</ele>
        <time>2017-02-05T14:23:04Z</time>
      </trkpt>
      <trkpt lat="48.26825" lon="2.6377">
        <ele>201</ele>
        <time>2017-02-05T14:23:05Z</time>
      </trkpt>
      <trkpt lat="48.26814" lon="2.63764">
        <ele>202</ele>
        <time>2017-02-05T14:23:10Z</time>
      </trkpt>
      <trkpt lat="48.26812" lon="2.63761">
        <ele>202</ele>
        <time>2017-02-05T14:23:11Z</time>
      </trkpt>
      <trkpt lat="48.26807" lon="2.63756">
        <ele>201</ele>
        <time>2017-02-05T14:23:14Z</time>
      </trkpt>
      <trkpt lat="48.26808" lon="2.63753">
        <ele>201</ele>
        <time>2017-02-05T14:23:16Z</time>
      </trkpt>
      <trkpt lat="48.26808" lon="2.63751">
        <ele>200</ele>
        <time>2017-02-05T14:23:17Z</time>
      </trkpt>
      <trkpt lat="48.26812" lon="2.6375">
        <ele>199</ele>
        <time>2017-02-05T14:23:19Z</time>
      </trkpt>
      <trkpt lat="48.26814" lon="2.6375">
        <ele>199</ele>
        <time>2017-02-05T14:23:20Z</time>
      </trkpt>
      <trkpt lat="48.26817" lon="2.63751">
        <ele>198</ele>
        <time>2017-02-05T14:23:22Z</time>
      </trkpt>
      <trkpt lat="48.26819" lon="2.63751">
        <ele>197</ele>
        <time>2017-02-05T14:23:23Z</time>
      </trkpt>
      <trkpt lat="48.26822" lon="2.63751">
        <ele>196</ele>
        <time>2017-02-05T14:23:25Z</time>
      </trkpt>
      <trkpt lat="48.26827" lon="2.63752">
        <ele>195</ele>
        <time>2017-02-05T14:23:27Z</time>
      </trkpt>
      <trkpt lat="48.26831" lon="2.63755">
        <ele>195</ele>
        <time>2017-02-05T14:23:29Z</time>
      </trkpt>
      <trkpt lat="48.26833" lon="2.63757">
        <ele>196</ele>
        <time>2017-02-05T14:23:32Z</time>
      </trkpt>
      <trkpt lat="48.26835" lon="2.6376">
        <ele>196</ele>
        <time>2017-02-05T14:23:34Z</time>
      </trkpt>
      <trkpt lat="48.26841" lon="2.63765">
        <ele>196</ele>
        <time>2017-02-05T14:23:41Z</time>
      </trkpt>
      <trkpt lat="48.26841" lon="2.63765">
        <ele>196</ele>
        <time>2017-02-05T14:23:58Z</time>
      </trkpt>
      <trkpt lat="48.26844" lon="2.63768">
        <ele>196</ele>
        <time>2017-02-05T14:24:11Z</time>
      </trkpt>
      <trkpt lat="48.26845" lon="2.6377">
        <ele>195</ele>
        <time>2017-02-05T14:24:12Z</time>
      </trkpt>
      <trkpt lat="48.26846" lon="2.63773">
        <ele>195</ele>
        <time>2017-02-05T14:24:13Z</time>
      </trkpt>
      <trkpt lat="48.26851" lon="2.6378">
        <ele>193</ele>
        <time>2017-02-05T14:24:15Z</time>
      </trkpt>
      <trkpt lat="48.26859" lon="2.63787">
        <ele>192</ele>
        <time>2017-02-05T14:24:17Z</time>
      </trkpt>
      <trkpt lat="48.26865" lon="2.63794">
        <ele>191</ele>
        <time>2017-02-05T14:24:19Z</time>
      </trkpt>
      <trkpt lat="48.26871" lon="2.638">
        <ele>191</ele>
        <time>2017-02-05T14:24:21Z</time>
      </trkpt>
      <trkpt lat="48.26876" lon="2.63807">
        <ele>190</ele>
        <time>2017-02-05T14:24:23Z</time>
      </trkpt>
      <trkpt lat="48.26884" lon="2.63818">
        <ele>190</ele>
        <time>2017-02-05T14:24:26Z</time>
      </trkpt>
      <trkpt lat="48.26887" lon="2.63821">
        <ele>190</ele>
        <time>2017-02-05T14:24:27Z</time>
      </trkpt>
      <trkpt lat="48.2689" lon="2.63833">
        <ele>190</ele>
        <time>2017-02-05T14:24:30Z</time>
      </trkpt>
      <trkpt lat="48.26888" lon="2.63845">
        <ele>190</ele>
        <time>2017-02-05T14:24:34Z</time>
      </trkpt>
      <trkpt lat="48.26891" lon="2.63855">
        <ele>190</ele>
        <time>2017-02-05T14:24:38Z</time>
      </trkpt>
      <trkpt lat="48.26892" lon="2.6386">
        <ele>190</ele>
        <time>2017-02-05T14:24:40Z</time>
      </trkpt>
      <trkpt lat="48.26891" lon="2.63862">
        <ele>190</ele>
        <time>2017-02-05T14:24:41Z</time>
      </trkpt>
      <trkpt lat="48.26887" lon="2.6387">
        <ele>190</ele>
        <time>2017-02-05T14:24:44Z</time>
      </trkpt>
      <trkpt lat="48.26881" lon="2.63879">
        <ele>190</ele>
        <time>2017-02-05T14:24:48Z</time>
      </trkpt>
      <trkpt lat="48.26878" lon="2.63884">
        <ele>190</ele>
        <time>2017-02-05T14:24:50Z</time>
      </trkpt>
      <trkpt lat="48.26874" lon="2.63892">
        <ele>189</ele>
        <time>2017-02-05T14:24:53Z</time>
      </trkpt>
      <trkpt lat="48.26874" lon="2.63895">
        <ele>188</ele>
        <time>2017-02-05T14:24:54Z</time>
      </trkpt>
      <trkpt lat="48.26876" lon="2.63901">
        <ele>187</ele>
        <time>2017-02-05T14:24:56Z</time>
      </trkpt>
      <trkpt lat="48.2688" lon="2.63908">
        <ele>187</ele>
        <time>2017-02-05T14:24:59Z</time>
      </trkpt>
      <trkpt lat="48.26883" lon="2.63911">
        <ele>186</ele>
        <time>2017-02-05T14:25:00Z</time>
      </trkpt>
      <trkpt lat="48.26889" lon="2.6392">
        <ele>185</ele>
        <time>2017-02-05T14:25:03Z</time>
      </trkpt>
      <trkpt lat="48.2689" lon="2.63923">
        <ele>185</ele>
        <time>2017-02-05T14:25:04Z</time>
      </trkpt>
      <trkpt lat="48.26891" lon="2.63926">
        <ele>184</ele>
        <time>2017-02-05T14:25:05Z</time>
      </trkpt>
      <trkpt lat="48.26892" lon="2.63923">
        <ele>184</ele>
        <time>2017-02-05T14:25:06Z</time>
      </trkpt>
      <trkpt lat="48.26896" lon="2.63923">
        <ele>184</ele>
        <time>2017-02-05T14:25:07Z</time>
      </trkpt>
      <trkpt lat="48.26902" lon="2.63925">
        <ele>183</ele>
        <time>2017-02-05T14:25:09Z</time>
      </trkpt>
      <trkpt lat="48.2691" lon="2.63925">
        <ele>182</ele>
        <time>2017-02-05T14:25:12Z</time>
      </trkpt>
      <trkpt lat="48.26918" lon="2.63916">
        <ele>181</ele>
        <time>2017-02-05T14:25:15Z</time>
      </trkpt>
      <trkpt lat="48.26921" lon="2.63911">
        <ele>180</ele>
        <time>2017-02-05T14:25:16Z</time>
      </trkpt>
      <trkpt lat="48.26927" lon="2.63907">
        <ele>180</ele>
        <time>2017-02-05T14:25:17Z</time>
      </trkpt>
      <trkpt lat="48.26938" lon="2.63895">
        <ele>180</ele>
        <time>2017-02-05T14:25:19Z</time>
      </trkpt>
      <trkpt lat="48.26943" lon="2.63889">
        <ele>180</ele>
        <time>2017-02-05T14:25:20Z</time>
      </trkpt>
      <trkpt lat="48.26949" lon="2.63885">
        <ele>180</ele>
        <time>2017-02-05T14:25:21Z</time>
      </trkpt>
      <trkpt lat="48.2696" lon="2.63881">
        <ele>179</ele>
        <time>2017-02-05T14:25:23Z</time>
      </trkpt>
      <trkpt lat="48.26966" lon="2.6388">
        <ele>178</ele>
        <time>2017-02-05T14:25:25Z</time>
      </trkpt>
      <trkpt lat="48.2698" lon="2.63878">
        <ele>178</ele>
        <time>2017-02-05T14:25:27Z</time>
      </trkpt>
      <trkpt lat="48.26998" lon="2.63881">
        <ele>178</ele>
        <time>2017-02-05T14:25:29Z</time>
      </trkpt>
      <trkpt lat="48.27016" lon="2.63883">
        <ele>178</ele>
        <time>2017-02-05T14:25:32Z</time>
      </trkpt>
      <trkpt lat="48.2702" lon="2.63882">
        <ele>178</ele>
        <time>2017-02-05T14:25:33Z</time>
      </trkpt>
      <trkpt lat="48.2703" lon="2.63874">
        <ele>178</ele>
        <time>2017-02-05T14:25:36Z</time>
      </trkpt>
      <trkpt lat="48.27033" lon="2.63859">
        <ele>178</ele>
        <time>2017-02-05T14:25:41Z</time>
      </trkpt>
      <trkpt lat="48.27034" lon="2.63852">
        <ele>178</ele>
        <time>2017-02-05T14:25:43Z</time>
      </trkpt>
      <trkpt lat="48.27036" lon="2.6384">
        <ele>179</ele>
        <time>2017-02-05T14:25:47Z</time>
      </trkpt>
      <trkpt lat="48.27037" lon="2.63816">
        <ele>179</ele>
        <time>2017-02-05T14:25:54Z</time>
      </trkpt>
      <trkpt lat="48.2704" lon="2.6379">
        <ele>179</ele>
        <time>2017-02-05T14:26:01Z</time>
      </trkpt>
      <trkpt lat="48.27042" lon="2.63772">
        <ele>179</ele>
        <time>2017-02-05T14:26:05Z</time>
      </trkpt>
      <trkpt lat="48.27043" lon="2.63749">
        <ele>179</ele>
        <time>2017-02-05T14:26:10Z</time>
      </trkpt>
      <trkpt lat="48.27045" lon="2.63725">
        <ele>179</ele>
        <time>2017-02-05T14:26:14Z</time>
      </trkpt>
      <trkpt lat="48.27046" lon="2.63711">
        <ele>179</ele>
        <time>2017-02-05T14:26:16Z</time>
      </trkpt>
      <trkpt lat="48.2705" lon="2.63679">
        <ele>179</ele>
        <time>2017-02-05T14:26:20Z</time>
      </trkpt>
      <trkpt lat="48.27052" lon="2.63672">
        <ele>179</ele>
        <time>2017-02-05T14:26:21Z</time>
      </trkpt>
      <trkpt lat="48.27054" lon="2.6364">
        <ele>179</ele>
        <time>2017-02-05T14:26:26Z</time>
      </trkpt>
      <trkpt lat="48.27053" lon="2.63636">
        <ele>179</ele>
        <time>2017-02-05T14:26:27Z</time>
      </trkpt>
      <trkpt lat="48.27049" lon="2.63631">
        <ele>179</ele>
        <time>2017-02-05T14:26:29Z</time>
      </trkpt>
      <trkpt lat="48.27044" lon="2.63628">
        <ele>179</ele>
        <time>2017-02-05T14:26:31Z</time>
      </trkpt>
      <trkpt lat="48.27043" lon="2.63624">
        <ele>179</ele>
        <time>2017-02-05T14:26:32Z</time>
      </trkpt>
      <trkpt lat="48.2704" lon="2.63617">
        <ele>179</ele>
        <time>2017-02-05T14:26:34Z</time>
      </trkpt>
      <trkpt lat="48.27037" lon="2.63613">
        <ele>180</ele>
        <time>2017-02-05T14:26:36Z</time>
      </trkpt>
      <trkpt lat="48.27035" lon="2.6361">
        <ele>180</ele>
        <time>2017-02-05T14:26:37Z</time>
      </trkpt>
      <trkpt lat="48.27033" lon="2.63602">
        <ele>180</ele>
        <time>2017-02-05T14:26:39Z</time>
      </trkpt>
      <trkpt lat="48.27031" lon="2.63599">
        <ele>180</ele>
        <time>2017-02-05T14:26:40Z</time>
      </trkpt>
      <trkpt lat="48.2703" lon="2.63597">
        <ele>180</ele>
        <time>2017-02-05T14:26:41Z</time>
      </trkpt>
      <trkpt lat="48.27028" lon="2.63593">
        <ele>181</ele>
        <time>2017-02-05T14:26:43Z</time>
      </trkpt>
      <trkpt lat="48.27025" lon="2.63587">
        <ele>181</ele>
        <time>2017-02-05T14:26:45Z</time>
      </trkpt>
      <trkpt lat="48.27024" lon="2.63579">
        <ele>181</ele>
        <time>2017-02-05T14:26:47Z</time>
      </trkpt>
      <trkpt lat="48.27023" lon="2.63573">
        <ele>181</ele>
        <time>2017-02-05T14:26:49Z</time>
      </trkpt>
      <trkpt lat="48.27022" lon="2.63562">
        <ele>181</ele>
        <time>2017-02-05T14:26:52Z</time>
      </trkpt>
      <trkpt lat="48.27018" lon="2.63535">
        <ele>181</ele>
        <time>2017-02-05T14:26:58Z</time>
      </trkpt>
      <trkpt lat="48.27011" lon="2.6352">
        <ele>181</ele>
        <time>2017-02-05T14:27:03Z</time>
      </trkpt>
      <trkpt lat="48.27008" lon="2.63514">
        <ele>181</ele>
        <time>2017-02-05T14:27:05Z</time>
      </trkpt>
      <trkpt lat="48.27003" lon="2.63505">
        <ele>182</ele>
        <time>2017-02-05T14:27:08Z</time>
      </trkpt>
      <trkpt lat="48.27002" lon="2.63502">
        <ele>182</ele>
        <time>2017-02-05T14:27:09Z</time>
      </trkpt>
      <trkpt lat="48.26996" lon="2.63494">
        <ele>182</ele>
        <time>2017-02-05T14:27:12Z</time>
      </trkpt>
      <trkpt lat="48.26994" lon="2.63489">
        <ele>182</ele>
        <time>2017-02-05T14:27:14Z</time>
      </trkpt>
      <trkpt lat="48.26989" lon="2.6348">
        <ele>183</ele>
        <time>2017-02-05T14:27:18Z</time>
      </trkpt>
      <trkpt lat="48.26986" lon="2.63476">
        <ele>183</ele>
        <time>2017-02-05T14:27:20Z</time>
      </trkpt>
      <trkpt lat="48.26981" lon="2.63469">
        <ele>183</ele>
        <time>2017-02-05T14:27:24Z</time>
      </trkpt>
      <trkpt lat="48.26979" lon="2.63465">
        <ele>183</ele>
        <time>2017-02-05T14:27:26Z</time>
      </trkpt>
      <trkpt lat="48.26977" lon="2.63463">
        <ele>184</ele>
        <time>2017-02-05T14:27:27Z</time>
      </trkpt>
      <trkpt lat="48.2697" lon="2.63456">
        <ele>184</ele>
        <time>2017-02-05T14:27:32Z</time>
      </trkpt>
      <trkpt lat="48.26966" lon="2.63451">
        <ele>185</ele>
        <time>2017-02-05T14:27:35Z</time>
      </trkpt>
      <trkpt lat="48.26962" lon="2.63448">
        <ele>185</ele>
        <time>2017-02-05T14:27:38Z</time>
      </trkpt>
      <trkpt lat="48.26957" lon="2.63442">
        <ele>186</ele>
        <time>2017-02-05T14:27:42Z</time>
      </trkpt>
      <trkpt lat="48.26956" lon="2.6344">
        <ele>186</ele>
        <time>2017-02-05T14:27:43Z</time>
      </trkpt>
      <trkpt lat="48.26954" lon="2.63439">
        <ele>186</ele>
        <time>2017-02-05T14:27:44Z</time>
      </trkpt>
      <trkpt lat="48.26953" lon="2.63437">
        <ele>187</ele>
        <time>2017-02-05T14:27:48Z</time>
      </trkpt>
      <trkpt lat="48.2695" lon="2.63435">
        <ele>187</ele>
        <time>2017-02-05T14:27:49Z</time>
      </trkpt>
      <trkpt lat="48.26947" lon="2.63432">
        <ele>188</ele>
        <time>2017-02-05T14:27:53Z</time>
      </trkpt>
      <trkpt lat="48.26944" lon="2.63429">
        <ele>188</ele>
        <time>2017-02-05T14:27:55Z</time>
      </trkpt>
      <trkpt lat="48.26937" lon="2.63426">
        <ele>189</ele>
        <time>2017-02-05T14:28:02Z</time>
      </trkpt>
      <trkpt lat="48.26935" lon="2.63424">
        <ele>189</ele>
        <time>2017-02-05T14:28:10Z</time>
      </trkpt>
      <trkpt lat="48.26927" lon="2.63426">
        <ele>190</ele>
        <time>2017-02-05T14:28:15Z</time>
      </trkpt>
      <trkpt lat="48.26925" lon="2.63426">
        <ele>190</ele>
        <time>2017-02-05T14:28:16Z</time>
      </trkpt>
      <trkpt lat="48.26923" lon="2.63426">
        <ele>191</ele>
        <time>2017-02-05T14:28:19Z</time>
      </trkpt>
      <trkpt lat="48.26918" lon="2.63426">
        <ele>192</ele>
        <time>2017-02-05T14:28:21Z</time>
      </trkpt>
      <trkpt lat="48.26915" lon="2.63427">
        <ele>192</ele>
        <time>2017-02-05T14:28:24Z</time>
      </trkpt>
      <trkpt lat="48.26912" lon="2.63428">
        <ele>192</ele>
        <time>2017-02-05T14:28:25Z</time>
      </trkpt>
      <trkpt lat="48.2691" lon="2.63428">
        <ele>192</ele>
        <time>2017-02-05T14:28:26Z</time>
      </trkpt>
      <trkpt lat="48.26907" lon="2.63426">
        <ele>193</ele>
        <time>2017-02-05T14:28:28Z</time>
      </trkpt>
      <trkpt lat="48.26905" lon="2.63425">
        <ele>193</ele>
        <time>2017-02-05T14:28:29Z</time>
      </trkpt>
      <trkpt lat="48.26899" lon="2.63423">
        <ele>193</ele>
        <time>2017-02-05T14:28:33Z</time>
      </trkpt>
      <trkpt lat="48.26898" lon="2.63422">
        <ele>194</ele>
        <time>2017-02-05T14:28:34Z</time>
      </trkpt>
      <trkpt lat="48.26895" lon="2.63416">
        <ele>194</ele>
        <time>2017-02-05T14:28:37Z</time>
      </trkpt>
      <trkpt lat="48.26893" lon="2.63412">
        <ele>194</ele>
        <time>2017-02-05T14:28:39Z</time>
      </trkpt>
      <trkpt lat="48.26891" lon="2.6341">
        <ele>195</ele>
        <time>2017-02-05T14:28:41Z</time>
      </trkpt>
      <trkpt lat="48.26889" lon="2.63406">
        <ele>195</ele>
        <time>2017-02-05T14:28:44Z</time>
      </trkpt>
      <trkpt lat="48.26887" lon="2.63401">
        <ele>196</ele>
        <time>2017-02-05T14:28:47Z</time>
      </trkpt>
      <trkpt lat="48.26886" lon="2.63395">
        <ele>196</ele>
        <time>2017-02-05T14:28:50Z</time>
      </trkpt>
      <trkpt lat="48.26884" lon="2.63391">
        <ele>197</ele>
        <time>2017-02-05T14:28:53Z</time>
      </trkpt>
      <trkpt lat="48.26883" lon="2.6339">
        <ele>197</ele>
        <time>2017-02-05T14:28:54Z</time>
      </trkpt>
      <trkpt lat="48.26881" lon="2.63389">
        <ele>197</ele>
        <time>2017-02-05T14:28:55Z</time>
      </trkpt>
      <trkpt lat="48.2688" lon="2.6339">
        <ele>198</ele>
        <time>2017-02-05T14:28:59Z</time>
      </trkpt>
      <trkpt lat="48.2688" lon="2.6339">
        <ele>198</ele>
        <time>2017-02-05T14:29:06Z</time>
      </trkpt>
      <trkpt lat="48.26877" lon="2.63389">
        <ele>200</ele>
        <time>2017-02-05T14:29:45Z</time>
      </trkpt>
      <trkpt lat="48.26876" lon="2.63388">
        <ele>200</ele>
        <time>2017-02-05T14:29:46Z</time>
      </trkpt>
      <trkpt lat="48.26867" lon="2.63384">
        <ele>201</ele>
        <time>2017-02-05T14:29:51Z</time>
      </trkpt>
      <trkpt lat="48.26861" lon="2.63382">
        <ele>201</ele>
        <time>2017-02-05T14:29:55Z</time>
      </trkpt>
      <trkpt lat="48.26859" lon="2.63382">
        <ele>202</ele>
        <time>2017-02-05T14:29:58Z</time>
      </trkpt>
      <trkpt lat="48.26855" lon="2.63382">
        <ele>202</ele>
        <time>2017-02-05T14:30:04Z</time>
      </trkpt>
      <trkpt lat="48.26854" lon="2.63381">
        <ele>202</ele>
        <time>2017-02-05T14:30:05Z</time>
      </trkpt>
      <trkpt lat="48.26853" lon="2.6338">
        <ele>202</ele>
        <time>2017-02-05T14:30:11Z</time>
      </trkpt>
      <trkpt lat="48.2685" lon="2.6338">
        <ele>203</ele>
        <time>2017-02-05T14:30:15Z</time>
      </trkpt>
      <trkpt lat="48.26848" lon="2.6338">
        <ele>203</ele>
        <time>2017-02-05T14:30:16Z</time>
      </trkpt>
      <trkpt lat="48.26842" lon="2.63379">
        <ele>204</ele>
        <time>2017-02-05T14:30:19Z</time>
      </trkpt>
      <trkpt lat="48.2684" lon="2.63377">
        <ele>204</ele>
        <time>2017-02-05T14:30:21Z</time>
      </trkpt>
      <trkpt lat="48.26833" lon="2.63371">
        <ele>206</ele>
        <time>2017-02-05T14:30:26Z</time>
      </trkpt>
      <trkpt lat="48.26834" lon="2.63372">
        <ele>206</ele>
        <time>2017-02-05T14:30:27Z</time>
      </trkpt>
      <trkpt lat="48.2683" lon="2.6337">
        <ele>206</ele>
        <time>2017-02-05T14:30:33Z</time>
      </trkpt>
      <trkpt lat="48.26829" lon="2.63369">
        <ele>207</ele>
        <time>2017-02-05T14:30:34Z</time>
      </trkpt>
      <trkpt lat="48.26827" lon="2.63365">
        <ele>207</ele>
        <time>2017-02-05T14:30:37Z</time>
      </trkpt>
      <trkpt lat="48.26827" lon="2.63364">
        <ele>207</ele>
        <time>2017-02-05T14:30:39Z</time>
      </trkpt>
      <trkpt lat="48.26828" lon="2.63361">
        <ele>207</ele>
        <time>2017-02-05T14:30:41Z</time>
      </trkpt>
      <trkpt lat="48.26829" lon="2.6336">
        <ele>208</ele>
        <time>2017-02-05T14:30:43Z</time>
      </trkpt>
      <trkpt lat="48.26829" lon="2.63358">
        <ele>208</ele>
        <time>2017-02-05T14:30:45Z</time>
      </trkpt>
      <trkpt lat="48.26832" lon="2.63353">
        <ele>209</ele>
        <time>2017-02-05T14:30:52Z</time>
      </trkpt>
      <trkpt lat="48.26832" lon="2.63353">
        <ele>209</ele>
        <time>2017-02-05T14:30:53Z</time>
      </trkpt>
      <trkpt lat="48.26833" lon="2.63354">
        <ele>209</ele>
        <time>2017-02-05T14:31:00Z</time>
      </trkpt>
      <trkpt lat="48.26836" lon="2.63348">
        <ele>209</ele>
        <time>2017-02-05T14:31:06Z</time>
      </trkpt>
      <trkpt lat="48.26838" lon="2.63344">
        <ele>209</ele>
        <time>2017-02-05T14:31:11Z</time>
      </trkpt>
      <trkpt lat="48.26841" lon="2.63343">
        <ele>209</ele>
        <time>2017-02-05T14:31:15Z</time>
      </trkpt>
      <trkpt lat="48.26841" lon="2.63342">
        <ele>209</ele>
        <time>2017-02-05T14:31:16Z</time>
      </trkpt>
      <trkpt lat="48.26842" lon="2.63342">
        <ele>208</ele>
        <time>2017-02-05T14:31:23Z</time>
      </trkpt>
      <trkpt lat="48.26842" lon="2.63341">
        <ele>208</ele>
        <time>2017-02-05T14:31:33Z</time>
      </trkpt>
      <trkpt lat="48.26841" lon="2.63341">
        <ele>208</ele>
        <time>2017-02-05T14:32:18Z</time>
      </trkpt>
      <trkpt lat="48.2684" lon="2.63341">
        <ele>208</ele>
        <time>2017-02-05T14:32:20Z</time>
      </trkpt>
      <trkpt lat="48.26838" lon="2.63344">
        <ele>209</ele>
        <time>2017-02-05T14:32:23Z</time>
      </trkpt>
      <trkpt lat="48.26836" lon="2.6335">
        <ele>209</ele>
        <time>2017-02-05T14:32:31Z</time>
      </trkpt>
      <trkpt lat="48.26835" lon="2.63351">
        <ele>209</ele>
        <time>2017-02-05T14:32:37Z</time>
      </trkpt>
      <trkpt lat="48.26836" lon="2.6335">
        <ele>209</ele>
        <time>2017-02-05T14:32:55Z</time>
      </trkpt>
      <trkpt lat="48.26838" lon="2.63349">
        <ele>209</ele>
        <time>2017-02-05T14:32:58Z</time>
      </trkpt>
      <trkpt lat="48.26844" lon="2.63344">
        <ele>209</ele>
        <time>2017-02-05T14:33:01Z</time>
      </trkpt>
      <trkpt lat="48.26856" lon="2.63331">
        <ele>208</ele>
        <time>2017-02-05T14:33:04Z</time>
      </trkpt>
      <trkpt lat="48.26858" lon="2.63326">
        <ele>207</ele>
        <time>2017-02-05T14:33:05Z</time>
      </trkpt>
      <trkpt lat="48.2686" lon="2.63313">
        <ele>206</ele>
        <time>2017-02-05T14:33:07Z</time>
      </trkpt>
      <trkpt lat="48.26859" lon="2.63309">
        <ele>206</ele>
        <time>2017-02-05T14:33:08Z</time>
      </trkpt>
      <trkpt lat="48.26856" lon="2.63302">
        <ele>206</ele>
        <time>2017-02-05T14:33:10Z</time>
      </trkpt>
      <trkpt lat="48.26851" lon="2.63283">
        <ele>206</ele>
        <time>2017-02-05T14:33:14Z</time>
      </trkpt>
      <trkpt lat="48.26851" lon="2.63279">
        <ele>205</ele>
        <time>2017-02-05T14:33:15Z</time>
      </trkpt>
      <trkpt lat="48.2685" lon="2.6327">
        <ele>204</ele>
        <time>2017-02-05T14:33:17Z</time>
      </trkpt>
      <trkpt lat="48.26847" lon="2.63261">
        <ele>203</ele>
        <time>2017-02-05T14:33:19Z</time>
      </trkpt>
      <trkpt lat="48.26845" lon="2.63255">
        <ele>202</ele>
        <time>2017-02-05T14:33:20Z</time>
      </trkpt>
      <trkpt lat="48.26844" lon="2.63247">
        <ele>202</ele>
        <time>2017-02-05T14:33:21Z</time>
      </trkpt>
      <trkpt lat="48.26844" lon="2.63231">
        <ele>200</ele>
        <time>2017-02-05T14:33:23Z</time>
      </trkpt>
      <trkpt lat="48.26845" lon="2.63225">
        <ele>200</ele>
        <time>2017-02-05T14:33:24Z</time>
      </trkpt>
      <trkpt lat="48.26852" lon="2.63222">
        <ele>199</ele>
        <time>2017-02-05T14:33:26Z</time>
      </trkpt>
      <trkpt lat="48.26855" lon="2.63223">
        <ele>198</ele>
        <time>2017-02-05T14:33:27Z</time>
      </trkpt>
      <trkpt lat="48.26858" lon="2.63226">
        <ele>198</ele>
        <time>2017-02-05T14:33:28Z</time>
      </trkpt>
      <trkpt lat="48.26864" lon="2.63233">
        <ele>197</ele>
        <time>2017-02-05T14:33:30Z</time>
      </trkpt>
      <trkpt lat="48.26867" lon="2.63232">
        <ele>196</ele>
        <time>2017-02-05T14:33:31Z</time>
      </trkpt>
      <trkpt lat="48.26879" lon="2.63221">
        <ele>196</ele>
        <time>2017-02-05T14:33:34Z</time>
      </trkpt>
      <trkpt lat="48.26886" lon="2.63212">
        <ele>195</ele>
        <time>2017-02-05T14:33:36Z</time>
      </trkpt>
      <trkpt lat="48.26898" lon="2.63189">
        <ele>195</ele>
        <time>2017-02-05T14:33:40Z</time>
      </trkpt>
      <trkpt lat="48.26898" lon="2.63173">
        <ele>195</ele>
        <time>2017-02-05T14:33:44Z</time>
      </trkpt>
      <trkpt lat="48.26897" lon="2.63164">
        <ele>195</ele>
        <time>2017-02-05T14:33:46Z</time>
      </trkpt>
      <trkpt lat="48.26903" lon="2.63152">
        <ele>194</ele>
        <time>2017-02-05T14:33:48Z</time>
      </trkpt>
      <trkpt lat="48.26907" lon="2.63149">
        <ele>194</ele>
        <time>2017-02-05T14:33:49Z</time>
      </trkpt>
      <trkpt lat="48.26915" lon="2.63144">
        <ele>194</ele>
        <time>2017-02-05T14:33:51Z</time>
      </trkpt>
      <trkpt lat="48.26929" lon="2.6313">
        <ele>194</ele>
        <time>2017-02-05T14:33:55Z</time>
      </trkpt>
      <trkpt lat="48.26934" lon="2.63125">
        <ele>194</ele>
        <time>2017-02-05T14:33:59Z</time>
      </trkpt>
      <trkpt lat="48.26941" lon="2.63122">
        <ele>194</ele>
        <time>2017-02-05T14:34:05Z</time>
      </trkpt>
      <trkpt lat="48.26941" lon="2.63122">
        <ele>193</ele>
        <time>2017-02-05T14:34:47Z</time>
      </trkpt>
      <trkpt lat="48.26941" lon="2.63117">
        <ele>193</ele>
        <time>2017-02-05T14:34:50Z</time>
      </trkpt>
      <trkpt lat="48.26941" lon="2.63111">
        <ele>193</ele>
        <time>2017-02-05T14:34:51Z</time>
      </trkpt>
      <trkpt lat="48.2694" lon="2.63106">
        <ele>192</ele>
        <time>2017-02-05T14:34:52Z</time>
      </trkpt>
      <trkpt lat="48.26942" lon="2.63101">
        <ele>192</ele>
        <time>2017-02-05T14:34:54Z</time>
      </trkpt>
      <trkpt lat="48.26944" lon="2.63099">
        <ele>191</ele>
        <time>2017-02-05T14:34:56Z</time>
      </trkpt>
      <trkpt lat="48.26943" lon="2.63099">
        <ele>191</ele>
        <time>2017-02-05T14:34:57Z</time>
      </trkpt>
      <trkpt lat="48.26944" lon="2.63098">
        <ele>191</ele>
        <time>2017-02-05T14:34:59Z</time>
      </trkpt>
      <trkpt lat="48.26945" lon="2.63097">
        <ele>191</ele>
        <time>2017-02-05T14:35:44Z</time>
      </trkpt>
      <trkpt lat="48.26944" lon="2.63094">
        <ele>192</ele>
        <time>2017-02-05T14:35:50Z</time>
      </trkpt>
      <trkpt lat="48.26942" lon="2.63087">
        <ele>192</ele>
        <time>2017-02-05T14:36:21Z</time>
      </trkpt>
      <trkpt lat="48.26942" lon="2.63083">
        <ele>193</ele>
        <time>2017-02-05T14:36:24Z</time>
      </trkpt>
      <trkpt lat="48.26941" lon="2.63081">
        <ele>193</ele>
        <time>2017-02-05T14:36:26Z</time>
      </trkpt>
      <trkpt lat="48.26938" lon="2.63078">
        <ele>195</ele>
        <time>2017-02-05T14:36:30Z</time>
      </trkpt>
      <trkpt lat="48.26938" lon="2.63077">
        <ele>195</ele>
        <time>2017-02-05T14:36:32Z</time>
      </trkpt>
      <trkpt lat="48.26937" lon="2.63076">
        <ele>196</ele>
        <time>2017-02-05T14:36:35Z</time>
      </trkpt>
      <trkpt lat="48.26936" lon="2.63075">
        <ele>196</ele>
        <time>2017-02-05T14:36:38Z</time>
      </trkpt>
      <trkpt lat="48.26935" lon="2.63073">
        <ele>196</ele>
        <time>2017-02-05T14:36:46Z</time>
      </trkpt>
      <trkpt lat="48.26934" lon="2.63074">
        <ele>197</ele>
        <time>2017-02-05T14:37:12Z</time>
      </trkpt>
      <trkpt lat="48.26934" lon="2.63075">
        <ele>197</ele>
        <time>2017-02-05T14:37:14Z</time>
      </trkpt>
      <trkpt lat="48.26933" lon="2.63076">
        <ele>197</ele>
        <time>2017-02-05T14:37:22Z</time>
      </trkpt>
      <trkpt lat="48.26933" lon="2.63076">
        <ele>197</ele>
        <time>2017-02-05T14:37:49Z</time>
      </trkpt>
      <trkpt lat="48.26933" lon="2.63076">
        <ele>197</ele>
        <time>2017-02-05T14:37:56Z</time>
      </trkpt>
      <trkpt lat="48.26932" lon="2.63076">
        <ele>197</ele>
        <time>2017-02-05T14:38:04Z</time>
      </trkpt>
      <trkpt lat="48.26933" lon="2.63072">
        <ele>197</ele>
        <time>2017-02-05T14:38:12Z</time>
      </trkpt>
      <trkpt lat="48.26934" lon="2.63071">
        <ele>197</ele>
        <time>2017-02-05T14:38:13Z</time>
      </trkpt>
      <trkpt lat="48.2693" lon="2.6306">
        <ele>197</ele>
        <time>2017-02-05T14:38:18Z</time>
      </trkpt>
      <trkpt lat="48.26927" lon="2.63052">
        <ele>198</ele>
        <time>2017-02-05T14:38:23Z</time>
      </trkpt>
      <trkpt lat="48.26922" lon="2.63044">
        <ele>199</ele>
        <time>2017-02-05T14:38:30Z</time>
      </trkpt>
      <trkpt lat="48.26921" lon="2.63043">
        <ele>199</ele>
        <time>2017-02-05T14:38:31Z</time>
      </trkpt>
      <trkpt lat="48.26922" lon="2.63037">
        <ele>199</ele>
        <time>2017-02-05T14:38:36Z</time>
      </trkpt>
      <trkpt lat="48.26922" lon="2.63035">
        <ele>199</ele>
        <time>2017-02-05T14:38:37Z</time>
      </trkpt>
      <trkpt lat="48.26922" lon="2.63023">
        <ele>200</ele>
        <time>2017-02-05T14:38:41Z</time>
      </trkpt>
      <trkpt lat="48.26922" lon="2.63019">
        <ele>200</ele>
        <time>2017-02-05T14:38:42Z</time>
      </trkpt>
      <trkpt lat="48.26923" lon="2.63011">
        <ele>199</ele>
        <time>2017-02-05T14:38:45Z</time>
      </trkpt>
      <trkpt lat="48.26926" lon="2.63006">
        <ele>199</ele>
        <time>2017-02-05T14:38:47Z</time>
      </trkpt>
      <trkpt lat="48.26927" lon="2.63">
        <ele>199</ele>
        <time>2017-02-05T14:38:49Z</time>
      </trkpt>
      <trkpt lat="48.26926" lon="2.62995">
        <ele>199</ele>
        <time>2017-02-05T14:38:51Z</time>
      </trkpt>
      <trkpt lat="48.26924" lon="2.62987">
        <ele>197</ele>
        <time>2017-02-05T14:38:54Z</time>
      </trkpt>
      <trkpt lat="48.26921" lon="2.62979">
        <ele>196</ele>
        <time>2017-02-05T14:38:55Z</time>
      </trkpt>
      <trkpt lat="48.2692" lon="2.62973">
        <ele>196</ele>
        <time>2017-02-05T14:38:56Z</time>
      </trkpt>
      <trkpt lat="48.26921" lon="2.62954">
        <ele>195</ele>
        <time>2017-02-05T14:38:59Z</time>
      </trkpt>
      <trkpt lat="48.26922" lon="2.62947">
        <ele>195</ele>
        <time>2017-02-05T14:39:00Z</time>
      </trkpt>
      <trkpt lat="48.2692" lon="2.62931">
        <ele>194</ele>
        <time>2017-02-05T14:39:04Z</time>
      </trkpt>
      <trkpt lat="48.26912" lon="2.62907">
        <ele>194</ele>
        <time>2017-02-05T14:39:09Z</time>
      </trkpt>
      <trkpt lat="48.2691" lon="2.62888">
        <ele>194</ele>
        <time>2017-02-05T14:39:13Z</time>
      </trkpt>
      <trkpt lat="48.26902" lon="2.62877">
        <ele>196</ele>
        <time>2017-02-05T14:39:19Z</time>
      </trkpt>
      <trkpt lat="48.26901" lon="2.62877">
        <ele>196</ele>
        <time>2017-02-05T14:39:20Z</time>
      </trkpt>
      <trkpt lat="48.26893" lon="2.62873">
        <ele>197</ele>
        <time>2017-02-05T14:39:26Z</time>
      </trkpt>
      <trkpt lat="48.26885" lon="2.62873">
        <ele>198</ele>
        <time>2017-02-05T14:39:32Z</time>
      </trkpt>
      <trkpt lat="48.26881" lon="2.62872">
        <ele>199</ele>
        <time>2017-02-05T14:39:34Z</time>
      </trkpt>
      <trkpt lat="48.26877" lon="2.62871">
        <ele>199</ele>
        <time>2017-02-05T14:39:37Z</time>
      </trkpt>
      <trkpt lat="48.26873" lon="2.62872">
        <ele>200</ele>
        <time>2017-02-05T14:39:40Z</time>
      </trkpt>
      <trkpt lat="48.2687" lon="2.62873">
        <ele>200</ele>
        <time>2017-02-05T14:39:42Z</time>
      </trkpt>
      <trkpt lat="48.26866" lon="2.62875">
        <ele>201</ele>
        <time>2017-02-05T14:39:46Z</time>
      </trkpt>
      <trkpt lat="48.26864" lon="2.62876">
        <ele>201</ele>
        <time>2017-02-05T14:39:47Z</time>
      </trkpt>
      <trkpt lat="48.26861" lon="2.6288">
        <ele>202</ele>
        <time>2017-02-05T14:39:51Z</time>
      </trkpt>
      <trkpt lat="48.26859" lon="2.62881">
        <ele>202</ele>
        <time>2017-02-05T14:39:52Z</time>
      </trkpt>
      <trkpt lat="48.26859" lon="2.62883">
        <ele>203</ele>
        <time>2017-02-05T14:39:53Z</time>
      </trkpt>
      <trkpt lat="48.26853" lon="2.62886">
        <ele>204</ele>
        <time>2017-02-05T14:39:59Z</time>
      </trkpt>
      <trkpt lat="48.26851" lon="2.62887">
        <ele>204</ele>
        <time>2017-02-05T14:40:00Z</time>
      </trkpt>
      <trkpt lat="48.26847" lon="2.6289">
        <ele>205</ele>
        <time>2017-02-05T14:40:04Z</time>
      </trkpt>
      <trkpt lat="48.26843" lon="2.62892">
        <ele>205</ele>
        <time>2017-02-05T14:40:07Z</time>
      </trkpt>
      <trkpt lat="48.26839" lon="2.62894">
        <ele>206</ele>
        <time>2017-02-05T14:40:10Z</time>
      </trkpt>
      <trkpt lat="48.26837" lon="2.62895">
        <ele>206</ele>
        <time>2017-02-05T14:40:13Z</time>
      </trkpt>
      <trkpt lat="48.26836" lon="2.62896">
        <ele>206</ele>
        <time>2017-02-05T14:40:19Z</time>
      </trkpt>
      <trkpt lat="48.26834" lon="2.62898">
        <ele>207</ele>
        <time>2017-02-05T14:40:22Z</time>
      </trkpt>
      <trkpt lat="48.26831" lon="2.62899">
        <ele>207</ele>
        <time>2017-02-05T14:40:26Z</time>
      </trkpt>
      <trkpt lat="48.26831" lon="2.62899">
        <ele>208</ele>
        <time>2017-02-05T14:40:28Z</time>
      </trkpt>
      <trkpt lat="48.26828" lon="2.62898">
        <ele>209</ele>
        <time>2017-02-05T14:40:32Z</time>
      </trkpt>
      <trkpt lat="48.26826" lon="2.62897">
        <ele>209</ele>
        <time>2017-02-05T14:40:35Z</time>
      </trkpt>
      <trkpt lat="48.26825" lon="2.62897">
        <ele>209</ele>
        <time>2017-02-05T14:40:38Z</time>
      </trkpt>
      <trkpt lat="48.26825" lon="2.62897">
        <ele>209</ele>
        <time>2017-02-05T14:41:21Z</time>
      </trkpt>
      <trkpt lat="48.26825" lon="2.62898">
        <ele>209</ele>
        <time>2017-02-05T14:42:03Z</time>
      </trkpt>
      <trkpt lat="48.26822" lon="2.62895">
        <ele>210</ele>
        <time>2017-02-05T14:42:30Z</time>
      </trkpt>
      <trkpt lat="48.26821" lon="2.62894">
        <ele>210</ele>
        <time>2017-02-05T14:42:31Z</time>
      </trkpt>
      <trkpt lat="48.26815" lon="2.6289">
        <ele>211</ele>
        <time>2017-02-05T14:42:37Z</time>
      </trkpt>
      <trkpt lat="48.26809" lon="2.62884">
        <ele>212</ele>
        <time>2017-02-05T14:42:44Z</time>
      </trkpt>
      <trkpt lat="48.26807" lon="2.62882">
        <ele>212</ele>
        <time>2017-02-05T14:42:46Z</time>
      </trkpt>
      <trkpt lat="48.26805" lon="2.62878">
        <ele>212</ele>
        <time>2017-02-05T14:42:49Z</time>
      </trkpt>
      <trkpt lat="48.26803" lon="2.62869">
        <ele>211</ele>
        <time>2017-02-05T14:42:55Z</time>
      </trkpt>
      <trkpt lat="48.26803" lon="2.62867">
        <ele>211</ele>
        <time>2017-02-05T14:43:06Z</time>
      </trkpt>
      <trkpt lat="48.26802" lon="2.62866">
        <ele>211</ele>
        <time>2017-02-05T14:43:47Z</time>
      </trkpt>
      <trkpt lat="48.26802" lon="2.62866">
        <ele>211</ele>
        <time>2017-02-05T14:44:15Z</time>
      </trkpt>
      <trkpt lat="48.26803" lon="2.62866">
        <ele>211</ele>
        <time>2017-02-05T14:45:02Z</time>
      </trkpt>
      <trkpt lat="48.26803" lon="2.62866">
        <ele>211</ele>
        <time>2017-02-05T14:45:24Z</time>
      </trkpt>
      <trkpt lat="48.26801" lon="2.62862">
        <ele>211</ele>
        <time>2017-02-05T14:45:26Z</time>
      </trkpt>
      <trkpt lat="48.26802" lon="2.62853">
        <ele>210</ele>
        <time>2017-02-05T14:45:30Z</time>
      </trkpt>
      <trkpt lat="48.26802" lon="2.62851">
        <ele>210</ele>
        <time>2017-02-05T14:45:33Z</time>
      </trkpt>
      <trkpt lat="48.26803" lon="2.62848">
        <ele>210</ele>
        <time>2017-02-05T14:45:34Z</time>
      </trkpt>
      <trkpt lat="48.26806" lon="2.6284">
        <ele>209</ele>
        <time>2017-02-05T14:45:36Z</time>
      </trkpt>
      <trkpt lat="48.26809" lon="2.62838">
        <ele>209</ele>
        <time>2017-02-05T14:45:37Z</time>
      </trkpt>
      <trkpt lat="48.26812" lon="2.62837">
        <ele>209</ele>
        <time>2017-02-05T14:45:38Z</time>
      </trkpt>
      <trkpt lat="48.26817" lon="2.62833">
        <ele>208</ele>
        <time>2017-02-05T14:45:41Z</time>
      </trkpt>
      <trkpt lat="48.26821" lon="2.62826">
        <ele>206</ele>
        <time>2017-02-05T14:45:45Z</time>
      </trkpt>
      <trkpt lat="48.26826" lon="2.6282">
        <ele>205</ele>
        <time>2017-02-05T14:45:48Z</time>
      </trkpt>
      <trkpt lat="48.26831" lon="2.62815">
        <ele>204</ele>
        <time>2017-02-05T14:45:50Z</time>
      </trkpt>
      <trkpt lat="48.26833" lon="2.62812">
        <ele>204</ele>
        <time>2017-02-05T14:45:51Z</time>
      </trkpt>
      <trkpt lat="48.26834" lon="2.62807">
        <ele>203</ele>
        <time>2017-02-05T14:45:53Z</time>
      </trkpt>
      <trkpt lat="48.26837" lon="2.62804">
        <ele>202</ele>
        <time>2017-02-05T14:45:54Z</time>
      </trkpt>
      <trkpt lat="48.26839" lon="2.62801">
        <ele>202</ele>
        <time>2017-02-05T14:45:55Z</time>
      </trkpt>
      <trkpt lat="48.26841" lon="2.62799">
        <ele>202</ele>
        <time>2017-02-05T14:45:56Z</time>
      </trkpt>
      <trkpt lat="48.26844" lon="2.62794">
        <ele>200</ele>
        <time>2017-02-05T14:45:58Z</time>
      </trkpt>
      <trkpt lat="48.26849" lon="2.62789">
        <ele>199</ele>
        <time>2017-02-05T14:46:00Z</time>
      </trkpt>
      <trkpt lat="48.26854" lon="2.62783">
        <ele>198</ele>
        <time>2017-02-05T14:46:02Z</time>
      </trkpt>
      <trkpt lat="48.26859" lon="2.62777">
        <ele>197</ele>
        <time>2017-02-05T14:46:04Z</time>
      </trkpt>
      <trkpt lat="48.26862" lon="2.62774">
        <ele>196</ele>
        <time>2017-02-05T14:46:05Z</time>
      </trkpt>
      <trkpt lat="48.26878" lon="2.62758">
        <ele>195</ele>
        <time>2017-02-05T14:46:10Z</time>
      </trkpt>
      <trkpt lat="48.26881" lon="2.62754">
        <ele>195</ele>
        <time>2017-02-05T14:46:11Z</time>
      </trkpt>
      <trkpt lat="48.26896" lon="2.62737">
        <ele>195</ele>
        <time>2017-02-05T14:46:16Z</time>
      </trkpt>
      <trkpt lat="48.26913" lon="2.62724">
        <ele>194</ele>
        <time>2017-02-05T14:46:20Z</time>
      </trkpt>
      <trkpt lat="48.26914" lon="2.6272">
        <ele>194</ele>
        <time>2017-02-05T14:46:21Z</time>
      </trkpt>
      <trkpt lat="48.26912" lon="2.6271">
        <ele>194</ele>
        <time>2017-02-05T14:46:24Z</time>
      </trkpt>
      <trkpt lat="48.26912" lon="2.62706">
        <ele>194</ele>
        <time>2017-02-05T14:46:25Z</time>
      </trkpt>
      <trkpt lat="48.2691" lon="2.62699">
        <ele>194</ele>
        <time>2017-02-05T14:46:28Z</time>
      </trkpt>
      <trkpt lat="48.26909" lon="2.62698">
        <ele>194</ele>
        <time>2017-02-05T14:46:32Z</time>
      </trkpt>
      <trkpt lat="48.26908" lon="2.62696">
        <ele>194</ele>
        <time>2017-02-05T14:46:33Z</time>
      </trkpt>
      <trkpt lat="48.26907" lon="2.62694">
        <ele>195</ele>
        <time>2017-02-05T14:46:34Z</time>
      </trkpt>
      <trkpt lat="48.26905" lon="2.62691">
        <ele>195</ele>
        <time>2017-02-05T14:46:36Z</time>
      </trkpt>
      <trkpt lat="48.26905" lon="2.6269">
        <ele>196</ele>
        <time>2017-02-05T14:46:38Z</time>
      </trkpt>
      <trkpt lat="48.26904" lon="2.62689">
        <ele>196</ele>
        <time>2017-02-05T14:46:39Z</time>
      </trkpt>
      <trkpt lat="48.26903" lon="2.62688">
        <ele>196</ele>
        <time>2017-02-05T14:46:40Z</time>
      </trkpt>
      <trkpt lat="48.26902" lon="2.62687">
        <ele>197</ele>
        <time>2017-02-05T14:46:43Z</time>
      </trkpt>
      <trkpt lat="48.26901" lon="2.62685">
        <ele>197</ele>
        <time>2017-02-05T14:46:45Z</time>
      </trkpt>
      <trkpt lat="48.26899" lon="2.62682">
        <ele>198</ele>
        <time>2017-02-05T14:46:49Z</time>
      </trkpt>
      <trkpt lat="48.26897" lon="2.6268">
        <ele>199</ele>
        <time>2017-02-05T14:46:52Z</time>
      </trkpt>
      <trkpt lat="48.26895" lon="2.62678">
        <ele>199</ele>
        <time>2017-02-05T14:46:56Z</time>
      </trkpt>
      <trkpt lat="48.26891" lon="2.62671">
        <ele>199</ele>
        <time>2017-02-05T14:47:04Z</time>
      </trkpt>
      <trkpt lat="48.2689" lon="2.6267">
        <ele>199</ele>
        <time>2017-02-05T14:47:05Z</time>
      </trkpt>
      <trkpt lat="48.26888" lon="2.62665">
        <ele>199</ele>
        <time>2017-02-05T14:47:08Z</time>
      </trkpt>
      <trkpt lat="48.26888" lon="2.62664">
        <ele>199</ele>
        <time>2017-02-05T14:47:09Z</time>
      </trkpt>
      <trkpt lat="48.26883" lon="2.62664">
        <ele>199</ele>
        <time>2017-02-05T14:47:15Z</time>
      </trkpt>
      <trkpt lat="48.26882" lon="2.62668">
        <ele>198</ele>
        <time>2017-02-05T14:47:17Z</time>
      </trkpt>
      <trkpt lat="48.26881" lon="2.62671">
        <ele>197</ele>
        <time>2017-02-05T14:47:18Z</time>
      </trkpt>
      <trkpt lat="48.2688" lon="2.62674">
        <ele>196</ele>
        <time>2017-02-05T14:47:19Z</time>
      </trkpt>
      <trkpt lat="48.2688" lon="2.62674">
        <ele>195</ele>
        <time>2017-02-05T14:47:20Z</time>
      </trkpt>
      <trkpt lat="48.26878" lon="2.62678">
        <ele>195</ele>
        <time>2017-02-05T14:47:21Z</time>
      </trkpt>
      <trkpt lat="48.26876" lon="2.62681">
        <ele>196</ele>
        <time>2017-02-05T14:47:33Z</time>
      </trkpt>
      <trkpt lat="48.26876" lon="2.62682">
        <ele>197</ele>
        <time>2017-02-05T14:47:36Z</time>
      </trkpt>
      <trkpt lat="48.26875" lon="2.62683">
        <ele>197</ele>
        <time>2017-02-05T14:47:37Z</time>
      </trkpt>
      <trkpt lat="48.26872" lon="2.62685">
        <ele>199</ele>
        <time>2017-02-05T14:47:41Z</time>
      </trkpt>
      <trkpt lat="48.26871" lon="2.62685">
        <ele>199</ele>
        <time>2017-02-05T14:47:43Z</time>
      </trkpt>
      <trkpt lat="48.2687" lon="2.62685">
        <ele>199</ele>
        <time>2017-02-05T14:47:52Z</time>
      </trkpt>
      <trkpt lat="48.2687" lon="2.62684">
        <ele>199</ele>
        <time>2017-02-05T14:48:34Z</time>
      </trkpt>
      <trkpt lat="48.2687" lon="2.62684">
        <ele>199</ele>
        <time>2017-02-05T14:48:39Z</time>
      </trkpt>
      <trkpt lat="48.2687" lon="2.62684">
        <ele>199</ele>
        <time>2017-02-05T14:49:31Z</time>
      </trkpt>
      <trkpt lat="48.2687" lon="2.62684">
        <ele>199</ele>
        <time>2017-02-05T14:50:03Z</time>
      </trkpt>
      <trkpt lat="48.26869" lon="2.62683">
        <ele>199</ele>
        <time>2017-02-05T14:50:39Z</time>
      </trkpt>
      <trkpt lat="48.26868" lon="2.62684">
        <ele>199</ele>
        <time>2017-02-05T14:51:28Z</time>
      </trkpt>
      <trkpt lat="48.26868" lon="2.62683">
        <ele>199</ele>
        <time>2017-02-05T14:52:09Z</time>
      </trkpt>
      <trkpt lat="48.26867" lon="2.62683">
        <ele>199</ele>
        <time>2017-02-05T14:52:43Z</time>
      </trkpt>
      <trkpt lat="48.26867" lon="2.62683">
        <ele>198</ele>
        <time>2017-02-05T14:53:19Z</time>
      </trkpt>
      <trkpt lat="48.26867" lon="2.62683">
        <ele>199</ele>
        <time>2017-02-05T14:54:03Z</time>
      </trkpt>
      <trkpt lat="48.26866" lon="2.62683">
        <ele>198</ele>
        <time>2017-02-05T14:54:50Z</time>
      </trkpt>
      <trkpt lat="48.26866" lon="2.62683">
        <ele>198</ele>
        <time>2017-02-05T14:55:33Z</time>
      </trkpt>
      <trkpt lat="48.26864" lon="2.62685">
        <ele>198</ele>
        <time>2017-02-05T14:55:50Z</time>
      </trkpt>
      <trkpt lat="48.26862" lon="2.62688">
        <ele>198</ele>
        <time>2017-02-05T14:55:51Z</time>
      </trkpt>
      <trkpt lat="48.26861" lon="2.62691">
        <ele>197</ele>
        <time>2017-02-05T14:55:52Z</time>
      </trkpt>
      <trkpt lat="48.26852" lon="2.62696">
        <ele>197</ele>
        <time>2017-02-05T14:55:56Z</time>
      </trkpt>
      <trkpt lat="48.26838" lon="2.62704">
        <ele>197</ele>
        <time>2017-02-05T14:56:01Z</time>
      </trkpt>
      <trkpt lat="48.26826" lon="2.62708">
        <ele>197</ele>
        <time>2017-02-05T14:56:05Z</time>
      </trkpt>
      <trkpt lat="48.26809" lon="2.62717">
        <ele>197</ele>
        <time>2017-02-05T14:56:11Z</time>
      </trkpt>
      <trkpt lat="48.26802" lon="2.62728">
        <ele>198</ele>
        <time>2017-02-05T14:56:16Z</time>
      </trkpt>
      <trkpt lat="48.26796" lon="2.62733">
        <ele>199</ele>
        <time>2017-02-05T14:56:20Z</time>
      </trkpt>
      <trkpt lat="48.26795" lon="2.62734">
        <ele>199</ele>
        <time>2017-02-05T14:56:22Z</time>
      </trkpt>
      <trkpt lat="48.26788" lon="2.62733">
        <ele>199</ele>
        <time>2017-02-05T14:56:26Z</time>
      </trkpt>
      <trkpt lat="48.26784" lon="2.62731">
        <ele>200</ele>
        <time>2017-02-05T14:56:28Z</time>
      </trkpt>
      <trkpt lat="48.26783" lon="2.6273">
        <ele>200</ele>
        <time>2017-02-05T14:56:29Z</time>
      </trkpt>
      <trkpt lat="48.26777" lon="2.62723">
        <ele>200</ele>
        <time>2017-02-05T14:56:34Z</time>
      </trkpt>
      <trkpt lat="48.26771" lon="2.6271">
        <ele>200</ele>
        <time>2017-02-05T14:56:40Z</time>
      </trkpt>
      <trkpt lat="48.26767" lon="2.62701">
        <ele>200</ele>
        <time>2017-02-05T14:56:44Z</time>
      </trkpt>
      <trkpt lat="48.26768" lon="2.62699">
        <ele>200</ele>
        <time>2017-02-05T14:56:45Z</time>
      </trkpt>
      <trkpt lat="48.26773" lon="2.62695">
        <ele>199</ele>
        <time>2017-02-05T14:56:51Z</time>
      </trkpt>
      <trkpt lat="48.26779" lon="2.62693">
        <ele>199</ele>
        <time>2017-02-05T14:56:55Z</time>
      </trkpt>
      <trkpt lat="48.26782" lon="2.62691">
        <ele>199</ele>
        <time>2017-02-05T14:56:56Z</time>
      </trkpt>
      <trkpt lat="48.26792" lon="2.6268">
        <ele>199</ele>
        <time>2017-02-05T14:57:02Z</time>
      </trkpt>
      <trkpt lat="48.26794" lon="2.62674">
        <ele>200</ele>
        <time>2017-02-05T14:57:05Z</time>
      </trkpt>
      <trkpt lat="48.26796" lon="2.6267">
        <ele>201</ele>
        <time>2017-02-05T14:57:07Z</time>
      </trkpt>
      <trkpt lat="48.26799" lon="2.62665">
        <ele>201</ele>
        <time>2017-02-05T14:57:10Z</time>
      </trkpt>
      <trkpt lat="48.268" lon="2.6266">
        <ele>201</ele>
        <time>2017-02-05T14:57:12Z</time>
      </trkpt>
      <trkpt lat="48.268" lon="2.62658">
        <ele>201</ele>
        <time>2017-02-05T14:57:13Z</time>
      </trkpt>
      <trkpt lat="48.26812" lon="2.62647">
        <ele>202</ele>
        <time>2017-02-05T14:57:19Z</time>
      </trkpt>
      <trkpt lat="48.26818" lon="2.6264">
        <ele>203</ele>
        <time>2017-02-05T14:57:24Z</time>
      </trkpt>
      <trkpt lat="48.26818" lon="2.62638">
        <ele>203</ele>
        <time>2017-02-05T14:57:25Z</time>
      </trkpt>
      <trkpt lat="48.26818" lon="2.6263">
        <ele>204</ele>
        <time>2017-02-05T14:57:29Z</time>
      </trkpt>
      <trkpt lat="48.26817" lon="2.62625">
        <ele>205</ele>
        <time>2017-02-05T14:57:32Z</time>
      </trkpt>
      <trkpt lat="48.26815" lon="2.62619">
        <ele>205</ele>
        <time>2017-02-05T14:57:36Z</time>
      </trkpt>
      <trkpt lat="48.26815" lon="2.62616">
        <ele>206</ele>
        <time>2017-02-05T14:57:39Z</time>
      </trkpt>
      <trkpt lat="48.26815" lon="2.62615">
        <ele>206</ele>
        <time>2017-02-05T14:57:47Z</time>
      </trkpt>
      <trkpt lat="48.26816" lon="2.62612">
        <ele>207</ele>
        <time>2017-02-05T14:57:55Z</time>
      </trkpt>
      <trkpt lat="48.26816" lon="2.62607">
        <ele>207</ele>
        <time>2017-02-05T14:58:01Z</time>
      </trkpt>
      <trkpt lat="48.26815" lon="2.62599">
        <ele>208</ele>
        <time>2017-02-05T14:58:05Z</time>
      </trkpt>
      <trkpt lat="48.26815" lon="2.62591">
        <ele>208</ele>
        <time>2017-02-05T14:58:09Z</time>
      </trkpt>
      <trkpt lat="48.26813" lon="2.62586">
        <ele>209</ele>
        <time>2017-02-05T14:58:12Z</time>
      </trkpt>
      <trkpt lat="48.26812" lon="2.62582">
        <ele>209</ele>
        <time>2017-02-05T14:58:15Z</time>
      </trkpt>
      <trkpt lat="48.26812" lon="2.6258">
        <ele>209</ele>
        <time>2017-02-05T14:58:20Z</time>
      </trkpt>
      <trkpt lat="48.26813" lon="2.62577">
        <ele>209</ele>
        <time>2017-02-05T14:58:26Z</time>
      </trkpt>
      <trkpt lat="48.26814" lon="2.6257">
        <ele>208</ele>
        <time>2017-02-05T14:58:29Z</time>
      </trkpt>
      <trkpt lat="48.26815" lon="2.62565">
        <ele>207</ele>
        <time>2017-02-05T14:58:31Z</time>
      </trkpt>
      <trkpt lat="48.26815" lon="2.62554">
        <ele>206</ele>
        <time>2017-02-05T14:58:34Z</time>
      </trkpt>
      <trkpt lat="48.26812" lon="2.62538">
        <ele>206</ele>
        <time>2017-02-05T14:58:38Z</time>
      </trkpt>
      <trkpt lat="48.26811" lon="2.62535">
        <ele>206</ele>
        <time>2017-02-05T14:58:39Z</time>
      </trkpt>
      <trkpt lat="48.2681" lon="2.62526">
        <ele>207</ele>
        <time>2017-02-05T14:58:43Z</time>
      </trkpt>
      <trkpt lat="48.26817" lon="2.62509">
        <ele>205</ele>
        <time>2017-02-05T14:58:48Z</time>
      </trkpt>
      <trkpt lat="48.26818" lon="2.62505">
        <ele>205</ele>
        <time>2017-02-05T14:58:49Z</time>
      </trkpt>
      <trkpt lat="48.26817" lon="2.62495">
        <ele>206</ele>
        <time>2017-02-05T14:58:52Z</time>
      </trkpt>
      <trkpt lat="48.26817" lon="2.62489">
        <ele>207</ele>
        <time>2017-02-05T14:58:57Z</time>
      </trkpt>
      <trkpt lat="48.26816" lon="2.62486">
        <ele>208</ele>
        <time>2017-02-05T14:59:02Z</time>
      </trkpt>
      <trkpt lat="48.26816" lon="2.62484">
        <ele>208</ele>
        <time>2017-02-05T14:59:04Z</time>
      </trkpt>
      <trkpt lat="48.26816" lon="2.62482">
        <ele>208</ele>
        <time>2017-02-05T14:59:08Z</time>
      </trkpt>
      <trkpt lat="48.26816" lon="2.62481">
        <ele>208</ele>
        <time>2017-02-05T14:59:22Z</time>
      </trkpt>
      <trkpt lat="48.26818" lon="2.62477">
        <ele>208</ele>
        <time>2017-02-05T14:59:26Z</time>
      </trkpt>
      <trkpt lat="48.2682" lon="2.62476">
        <ele>208</ele>
        <time>2017-02-05T14:59:27Z</time>
      </trkpt>
      <trkpt lat="48.26828" lon="2.62471">
        <ele>208</ele>
        <time>2017-02-05T14:59:32Z</time>
      </trkpt>
      <trkpt lat="48.26836" lon="2.6247">
        <ele>208</ele>
        <time>2017-02-05T14:59:36Z</time>
      </trkpt>
      <trkpt lat="48.26839" lon="2.62471">
        <ele>208</ele>
        <time>2017-02-05T14:59:37Z</time>
      </trkpt>
      <trkpt lat="48.26842" lon="2.62474">
        <ele>208</ele>
        <time>2017-02-05T14:59:38Z</time>
      </trkpt>
      <trkpt lat="48.26844" lon="2.62482">
        <ele>208</ele>
        <time>2017-02-05T14:59:40Z</time>
      </trkpt>
      <trkpt lat="48.26851" lon="2.62509">
        <ele>208</ele>
        <time>2017-02-05T14:59:45Z</time>
      </trkpt>
      <trkpt lat="48.26852" lon="2.62515">
        <ele>207</ele>
        <time>2017-02-05T14:59:46Z</time>
      </trkpt>
      <trkpt lat="48.26854" lon="2.62522">
        <ele>207</ele>
        <time>2017-02-05T14:59:47Z</time>
      </trkpt>
      <trkpt lat="48.26856" lon="2.62535">
        <ele>206</ele>
        <time>2017-02-05T14:59:49Z</time>
      </trkpt>
      <trkpt lat="48.26857" lon="2.62538">
        <ele>206</ele>
        <time>2017-02-05T14:59:50Z</time>
      </trkpt>
      <trkpt lat="48.26858" lon="2.62542">
        <ele>205</ele>
        <time>2017-02-05T14:59:52Z</time>
      </trkpt>
      <trkpt lat="48.26859" lon="2.62542">
        <ele>204</ele>
        <time>2017-02-05T14:59:57Z</time>
      </trkpt>
      <trkpt lat="48.26858" lon="2.62542">
        <ele>204</ele>
        <time>2017-02-05T15:00:40Z</time>
      </trkpt>
      <trkpt lat="48.26861" lon="2.62548">
        <ele>204</ele>
        <time>2017-02-05T15:00:46Z</time>
      </trkpt>
      <trkpt lat="48.26864" lon="2.6256">
        <ele>204</ele>
        <time>2017-02-05T15:00:48Z</time>
      </trkpt>
      <trkpt lat="48.26866" lon="2.62567">
        <ele>204</ele>
        <time>2017-02-05T15:00:49Z</time>
      </trkpt>
      <trkpt lat="48.26876" lon="2.62601">
        <ele>202</ele>
        <time>2017-02-05T15:00:53Z</time>
      </trkpt>
      <trkpt lat="48.26888" lon="2.62632">
        <ele>201</ele>
        <time>2017-02-05T15:00:56Z</time>
      </trkpt>
      <trkpt lat="48.26899" lon="2.62654">
        <ele>200</ele>
        <time>2017-02-05T15:00:58Z</time>
      </trkpt>
      <trkpt lat="48.26904" lon="2.62665">
        <ele>199</ele>
        <time>2017-02-05T15:00:59Z</time>
      </trkpt>
      <trkpt lat="48.26916" lon="2.62689">
        <ele>198</ele>
        <time>2017-02-05T15:01:01Z</time>
      </trkpt>
      <trkpt lat="48.26929" lon="2.62714">
        <ele>196</ele>
        <time>2017-02-05T15:01:03Z</time>
      </trkpt>
      <trkpt lat="48.26936" lon="2.62726">
        <ele>196</ele>
        <time>2017-02-05T15:01:04Z</time>
      </trkpt>
      <trkpt lat="48.26943" lon="2.62739">
        <ele>195</ele>
        <time>2017-02-05T15:01:05Z</time>
      </trkpt>
      <trkpt lat="48.26949" lon="2.62749">
        <ele>194</ele>
        <time>2017-02-05T15:01:06Z</time>
      </trkpt>
      <trkpt lat="48.26954" lon="2.62758">
        <ele>192</ele>
        <time>2017-02-05T15:01:07Z</time>
      </trkpt>
      <trkpt lat="48.2696" lon="2.62768">
        <ele>191</ele>
        <time>2017-02-05T15:01:08Z</time>
      </trkpt>
      <trkpt lat="48.26972" lon="2.62787">
        <ele>190</ele>
        <time>2017-02-05T15:01:10Z</time>
      </trkpt>
      <trkpt lat="48.26991" lon="2.62814">
        <ele>189</ele>
        <time>2017-02-05T15:01:13Z</time>
      </trkpt>
      <trkpt lat="48.26999" lon="2.62822">
        <ele>188</ele>
        <time>2017-02-05T15:01:14Z</time>
      </trkpt>
      <trkpt lat="48.27008" lon="2.62829">
        <ele>188</ele>
        <time>2017-02-05T15:01:15Z</time>
      </trkpt>
      <trkpt lat="48.27035" lon="2.6284">
        <ele>187</ele>
        <time>2017-02-05T15:01:18Z</time>
      </trkpt>
      <trkpt lat="48.27059" lon="2.62839">
        <ele>186</ele>
        <time>2017-02-05T15:01:21Z</time>
      </trkpt>
      <trkpt lat="48.27087" lon="2.62828">
        <ele>186</ele>
        <time>2017-02-05T15:01:25Z</time>
      </trkpt>
      <trkpt lat="48.271" lon="2.62821">
        <ele>185</ele>
        <time>2017-02-05T15:01:28Z</time>
      </trkpt>
      <trkpt lat="48.27103" lon="2.6282">
        <ele>184</ele>
        <time>2017-02-05T15:01:29Z</time>
      </trkpt>
      <trkpt lat="48.27109" lon="2.62813">
        <ele>184</ele>
        <time>2017-02-05T15:01:34Z</time>
      </trkpt>
      <trkpt lat="48.2711" lon="2.6281">
        <ele>184</ele>
        <time>2017-02-05T15:01:35Z</time>
      </trkpt>
      <trkpt lat="48.2711" lon="2.62804">
        <ele>184</ele>
        <time>2017-02-05T15:01:37Z</time>
      </trkpt>
      <trkpt lat="48.2711" lon="2.62802">
        <ele>184</ele>
        <time>2017-02-05T15:01:38Z</time>
      </trkpt>
      <trkpt lat="48.27107" lon="2.62797">
        <ele>184</ele>
        <time>2017-02-05T15:01:45Z</time>
      </trkpt>
      <trkpt lat="48.27101" lon="2.62796">
        <ele>189</ele>
        <time>2017-02-05T15:02:23Z</time>
      </trkpt>
      <trkpt lat="48.27077" lon="2.62796">
        <ele>189</ele>
        <time>2017-02-05T15:02:27Z</time>
      </trkpt>
      <trkpt lat="48.27073" lon="2.62796">
        <ele>189</ele>
        <time>2017-02-05T15:02:28Z</time>
      </trkpt>
      <trkpt lat="48.27055" lon="2.62787">
        <ele>190</ele>
        <time>2017-02-05T15:02:33Z</time>
      </trkpt>
      <trkpt lat="48.27048" lon="2.62783">
        <ele>191</ele>
        <time>2017-02-05T15:02:37Z</time>
      </trkpt>
      <trkpt lat="48.27046" lon="2.6278">
        <ele>191</ele>
        <time>2017-02-05T15:02:39Z</time>
      </trkpt>
      <trkpt lat="48.27045" lon="2.62778">
        <ele>191</ele>
        <time>2017-02-05T15:02:41Z</time>
      </trkpt>
      <trkpt lat="48.27042" lon="2.62775">
        <ele>192</ele>
        <time>2017-02-05T15:02:44Z</time>
      </trkpt>
      <trkpt lat="48.27041" lon="2.62774">
        <ele>192</ele>
        <time>2017-02-05T15:02:46Z</time>
      </trkpt>
      <trkpt lat="48.27037" lon="2.62772">
        <ele>192</ele>
        <time>2017-02-05T15:02:48Z</time>
      </trkpt>
      <trkpt lat="48.27032" lon="2.62769">
        <ele>192</ele>
        <time>2017-02-05T15:02:50Z</time>
      </trkpt>
      <trkpt lat="48.27018" lon="2.62766">
        <ele>193</ele>
        <time>2017-02-05T15:02:56Z</time>
      </trkpt>
      <trkpt lat="48.27017" lon="2.62765">
        <ele>193</ele>
        <time>2017-02-05T15:02:57Z</time>
      </trkpt>
      <trkpt lat="48.2701" lon="2.62759">
        <ele>193</ele>
        <time>2017-02-05T15:03:02Z</time>
      </trkpt>
      <trkpt lat="48.27004" lon="2.62749">
        <ele>194</ele>
        <time>2017-02-05T15:03:08Z</time>
      </trkpt>
      <trkpt lat="48.26998" lon="2.62743">
        <ele>194</ele>
        <time>2017-02-05T15:03:13Z</time>
      </trkpt>
      <trkpt lat="48.26992" lon="2.62736">
        <ele>195</ele>
        <time>2017-02-05T15:03:17Z</time>
      </trkpt>
      <trkpt lat="48.26988" lon="2.62731">
        <ele>196</ele>
        <time>2017-02-05T15:03:20Z</time>
      </trkpt>
      <trkpt lat="48.26985" lon="2.62727">
        <ele>196</ele>
        <time>2017-02-05T15:03:21Z</time>
      </trkpt>
      <trkpt lat="48.26982" lon="2.62719">
        <ele>196</ele>
        <time>2017-02-05T15:03:24Z</time>
      </trkpt>
      <trkpt lat="48.26979" lon="2.62714">
        <ele>195</ele>
        <time>2017-02-05T15:03:26Z</time>
      </trkpt>
      <trkpt lat="48.26976" lon="2.62705">
        <ele>195</ele>
        <time>2017-02-05T15:03:29Z</time>
      </trkpt>
      <trkpt lat="48.26974" lon="2.62702">
        <ele>195</ele>
        <time>2017-02-05T15:03:31Z</time>
      </trkpt>
      <trkpt lat="48.26973" lon="2.62701">
        <ele>195</ele>
        <time>2017-02-05T15:03:35Z</time>
      </trkpt>
      <trkpt lat="48.26967" lon="2.6269">
        <ele>196</ele>
        <time>2017-02-05T15:03:43Z</time>
      </trkpt>
      <trkpt lat="48.26961" lon="2.62683">
        <ele>198</ele>
        <time>2017-02-05T15:03:51Z</time>
      </trkpt>
      <trkpt lat="48.26956" lon="2.62674">
        <ele>199</ele>
        <time>2017-02-05T15:03:56Z</time>
      </trkpt>
      <trkpt lat="48.26955" lon="2.62673">
        <ele>199</ele>
        <time>2017-02-05T15:04:03Z</time>
      </trkpt>
      <trkpt lat="48.26955" lon="2.62672">
        <ele>199</ele>
        <time>2017-02-05T15:04:05Z</time>
      </trkpt>
      <trkpt lat="48.26954" lon="2.62666">
        <ele>199</ele>
        <time>2017-02-05T15:04:08Z</time>
      </trkpt>
      <trkpt lat="48.26954" lon="2.62664">
        <ele>199</ele>
        <time>2017-02-05T15:04:09Z</time>
      </trkpt>
      <trkpt lat="48.26953" lon="2.62656">
        <ele>200</ele>
        <time>2017-02-05T15:04:12Z</time>
      </trkpt>
      <trkpt lat="48.2695" lon="2.6265">
        <ele>200</ele>
        <time>2017-02-05T15:04:16Z</time>
      </trkpt>
      <trkpt lat="48.26949" lon="2.62647">
        <ele>201</ele>
        <time>2017-02-05T15:04:17Z</time>
      </trkpt>
      <trkpt lat="48.26947" lon="2.6264">
        <ele>202</ele>
        <time>2017-02-05T15:04:21Z</time>
      </trkpt>
      <trkpt lat="48.26945" lon="2.62635">
        <ele>202</ele>
        <time>2017-02-05T15:04:25Z</time>
      </trkpt>
      <trkpt lat="48.26944" lon="2.62633">
        <ele>203</ele>
        <time>2017-02-05T15:04:27Z</time>
      </trkpt>
      <trkpt lat="48.2694" lon="2.62628">
        <ele>203</ele>
        <time>2017-02-05T15:04:32Z</time>
      </trkpt>
      <trkpt lat="48.2694" lon="2.62627">
        <ele>204</ele>
        <time>2017-02-05T15:04:34Z</time>
      </trkpt>
      <trkpt lat="48.26938" lon="2.62621">
        <ele>204</ele>
        <time>2017-02-05T15:04:52Z</time>
      </trkpt>
      <trkpt lat="48.26929" lon="2.62603">
        <ele>205</ele>
        <time>2017-02-05T15:04:56Z</time>
      </trkpt>
      <trkpt lat="48.26927" lon="2.62599">
        <ele>205</ele>
        <time>2017-02-05T15:04:57Z</time>
      </trkpt>
      <trkpt lat="48.26923" lon="2.62595">
        <ele>205</ele>
        <time>2017-02-05T15:04:59Z</time>
      </trkpt>
      <trkpt lat="48.2692" lon="2.62588">
        <ele>206</ele>
        <time>2017-02-05T15:05:01Z</time>
      </trkpt>
      <trkpt lat="48.2692" lon="2.62583">
        <ele>206</ele>
        <time>2017-02-05T15:05:03Z</time>
      </trkpt>
      <trkpt lat="48.2692" lon="2.62581">
        <ele>206</ele>
        <time>2017-02-05T15:05:04Z</time>
      </trkpt>
      <trkpt lat="48.26919" lon="2.62576">
        <ele>207</ele>
        <time>2017-02-05T15:05:06Z</time>
      </trkpt>
      <trkpt lat="48.26918" lon="2.62574">
        <ele>207</ele>
        <time>2017-02-05T15:05:07Z</time>
      </trkpt>
      <trkpt lat="48.26912" lon="2.62564">
        <ele>207</ele>
        <time>2017-02-05T15:05:11Z</time>
      </trkpt>
      <trkpt lat="48.26914" lon="2.62548">
        <ele>208</ele>
        <time>2017-02-05T15:05:15Z</time>
      </trkpt>
      <trkpt lat="48.26914" lon="2.62541">
        <ele>208</ele>
        <time>2017-02-05T15:05:17Z</time>
      </trkpt>
      <trkpt lat="48.26911" lon="2.62537">
        <ele>208</ele>
        <time>2017-02-05T15:05:19Z</time>
      </trkpt>
      <trkpt lat="48.26908" lon="2.62536">
        <ele>208</ele>
        <time>2017-02-05T15:05:21Z</time>
      </trkpt>
      <trkpt lat="48.26908" lon="2.62535">
        <ele>208</ele>
        <time>2017-02-05T15:05:23Z</time>
      </trkpt>
      <trkpt lat="48.26905" lon="2.62528">
        <ele>209</ele>
        <time>2017-02-05T15:05:49Z</time>
      </trkpt>
      <trkpt lat="48.26905" lon="2.62515">
        <ele>209</ele>
        <time>2017-02-05T15:05:52Z</time>
      </trkpt>
      <trkpt lat="48.26909" lon="2.62508">
        <ele>209</ele>
        <time>2017-02-05T15:05:54Z</time>
      </trkpt>
      <trkpt lat="48.26914" lon="2.62496">
        <ele>209</ele>
        <time>2017-02-05T15:05:58Z</time>
      </trkpt>
      <trkpt lat="48.26913" lon="2.62493">
        <ele>208</ele>
        <time>2017-02-05T15:06:00Z</time>
      </trkpt>
      <trkpt lat="48.26909" lon="2.62491">
        <ele>208</ele>
        <time>2017-02-05T15:06:03Z</time>
      </trkpt>
      <trkpt lat="48.26906" lon="2.62489">
        <ele>209</ele>
        <time>2017-02-05T15:06:05Z</time>
      </trkpt>
      <trkpt lat="48.26899" lon="2.62483">
        <ele>209</ele>
        <time>2017-02-05T15:06:09Z</time>
      </trkpt>
      <trkpt lat="48.26902" lon="2.62474">
        <ele>208</ele>
        <time>2017-02-05T15:06:13Z</time>
      </trkpt>
      <trkpt lat="48.26906" lon="2.62466">
        <ele>207</ele>
        <time>2017-02-05T15:06:16Z</time>
      </trkpt>
      <trkpt lat="48.26907" lon="2.62465">
        <ele>208</ele>
        <time>2017-02-05T15:06:18Z</time>
      </trkpt>
      <trkpt lat="48.26912" lon="2.62454">
        <ele>208</ele>
        <time>2017-02-05T15:06:22Z</time>
      </trkpt>
      <trkpt lat="48.26914" lon="2.62454">
        <ele>208</ele>
        <time>2017-02-05T15:06:23Z</time>
      </trkpt>
      <trkpt lat="48.26918" lon="2.62458">
        <ele>208</ele>
        <time>2017-02-05T15:06:27Z</time>
      </trkpt>
      <trkpt lat="48.2692" lon="2.62456">
        <ele>208</ele>
        <time>2017-02-05T15:06:29Z</time>
      </trkpt>
      <trkpt lat="48.26927" lon="2.62457">
        <ele>208</ele>
        <time>2017-02-05T15:06:31Z</time>
      </trkpt>
      <trkpt lat="48.26931" lon="2.62466">
        <ele>208</ele>
        <time>2017-02-05T15:06:35Z</time>
      </trkpt>
      <trkpt lat="48.26941" lon="2.62487">
        <ele>209</ele>
        <time>2017-02-05T15:06:42Z</time>
      </trkpt>
      <trkpt lat="48.2695" lon="2.62495">
        <ele>209</ele>
        <time>2017-02-05T15:06:47Z</time>
      </trkpt>
      <trkpt lat="48.26957" lon="2.62504">
        <ele>209</ele>
        <time>2017-02-05T15:06:50Z</time>
      </trkpt>
      <trkpt lat="48.26957" lon="2.62507">
        <ele>209</ele>
        <time>2017-02-05T15:06:52Z</time>
      </trkpt>
      <trkpt lat="48.26956" lon="2.62512">
        <ele>209</ele>
        <time>2017-02-05T15:06:58Z</time>
      </trkpt>
      <trkpt lat="48.26956" lon="2.62516">
        <ele>209</ele>
        <time>2017-02-05T15:07:09Z</time>
      </trkpt>
      <trkpt lat="48.26954" lon="2.62531">
        <ele>209</ele>
        <time>2017-02-05T15:07:14Z</time>
      </trkpt>
      <trkpt lat="48.26953" lon="2.62536">
        <ele>209</ele>
        <time>2017-02-05T15:07:15Z</time>
      </trkpt>
      <trkpt lat="48.26952" lon="2.62559">
        <ele>208</ele>
        <time>2017-02-05T15:07:19Z</time>
      </trkpt>
      <trkpt lat="48.26951" lon="2.62565">
        <ele>208</ele>
        <time>2017-02-05T15:07:21Z</time>
      </trkpt>
      <trkpt lat="48.2695" lon="2.62567">
        <ele>209</ele>
        <time>2017-02-05T15:07:22Z</time>
      </trkpt>
      <trkpt lat="48.2695" lon="2.62579">
        <ele>209</ele>
        <time>2017-02-05T15:07:26Z</time>
      </trkpt>
      <trkpt lat="48.2695" lon="2.62581">
        <ele>209</ele>
        <time>2017-02-05T15:07:27Z</time>
      </trkpt>
      <trkpt lat="48.26952" lon="2.62586">
        <ele>209</ele>
        <time>2017-02-05T15:07:29Z</time>
      </trkpt>
      <trkpt lat="48.26952" lon="2.62591">
        <ele>209</ele>
        <time>2017-02-05T15:07:31Z</time>
      </trkpt>
      <trkpt lat="48.26953" lon="2.62604">
        <ele>209</ele>
        <time>2017-02-05T15:07:35Z</time>
      </trkpt>
      <trkpt lat="48.26952" lon="2.62612">
        <ele>208</ele>
        <time>2017-02-05T15:07:37Z</time>
      </trkpt>
      <trkpt lat="48.26953" lon="2.62615">
        <ele>208</ele>
        <time>2017-02-05T15:07:38Z</time>
      </trkpt>
      <trkpt lat="48.26955" lon="2.62619">
        <ele>208</ele>
        <time>2017-02-05T15:07:39Z</time>
      </trkpt>
      <trkpt lat="48.26958" lon="2.62633">
        <ele>209</ele>
        <time>2017-02-05T15:07:43Z</time>
      </trkpt>
      <trkpt lat="48.2696" lon="2.62636">
        <ele>209</ele>
        <time>2017-02-05T15:07:44Z</time>
      </trkpt>
      <trkpt lat="48.26964" lon="2.62652">
        <ele>210</ele>
        <time>2017-02-05T15:07:48Z</time>
      </trkpt>
      <trkpt lat="48.26973" lon="2.62672">
        <ele>209</ele>
        <time>2017-02-05T15:07:53Z</time>
      </trkpt>
      <trkpt lat="48.26981" lon="2.62689">
        <ele>208</ele>
        <time>2017-02-05T15:07:57Z</time>
      </trkpt>
      <trkpt lat="48.26989" lon="2.62697">
        <ele>208</ele>
        <time>2017-02-05T15:08:00Z</time>
      </trkpt>
      <trkpt lat="48.26993" lon="2.62699">
        <ele>207</ele>
        <time>2017-02-05T15:08:02Z</time>
      </trkpt>
      <trkpt lat="48.26997" lon="2.62698">
        <ele>207</ele>
        <time>2017-02-05T15:08:04Z</time>
      </trkpt>
      <trkpt lat="48.26999" lon="2.62695">
        <ele>208</ele>
        <time>2017-02-05T15:08:05Z</time>
      </trkpt>
      <trkpt lat="48.27005" lon="2.62695">
        <ele>208</ele>
        <time>2017-02-05T15:08:09Z</time>
      </trkpt>
      <trkpt lat="48.27008" lon="2.62693">
        <ele>208</ele>
        <time>2017-02-05T15:08:11Z</time>
      </trkpt>
      <trkpt lat="48.27016" lon="2.62693">
        <ele>209</ele>
        <time>2017-02-05T15:08:14Z</time>
      </trkpt>
      <trkpt lat="48.27017" lon="2.62694">
        <ele>208</ele>
        <time>2017-02-05T15:08:15Z</time>
      </trkpt>
      <trkpt lat="48.2703" lon="2.62702">
        <ele>209</ele>
        <time>2017-02-05T15:08:20Z</time>
      </trkpt>
      <trkpt lat="48.27032" lon="2.62702">
        <ele>209</ele>
        <time>2017-02-05T15:08:21Z</time>
      </trkpt>
      <trkpt lat="48.27035" lon="2.62701">
        <ele>210</ele>
        <time>2017-02-05T15:08:23Z</time>
      </trkpt>
      <trkpt lat="48.27037" lon="2.62701">
        <ele>210</ele>
        <time>2017-02-05T15:08:24Z</time>
      </trkpt>
      <trkpt lat="48.27041" lon="2.62701">
        <ele>210</ele>
        <time>2017-02-05T15:08:26Z</time>
      </trkpt>
      <trkpt lat="48.27045" lon="2.62704">
        <ele>210</ele>
        <time>2017-02-05T15:08:28Z</time>
      </trkpt>
      <trkpt lat="48.27051" lon="2.62705">
        <ele>210</ele>
        <time>2017-02-05T15:08:30Z</time>
      </trkpt>
      <trkpt lat="48.27065" lon="2.62704">
        <ele>210</ele>
        <time>2017-02-05T15:08:34Z</time>
      </trkpt>
      <trkpt lat="48.2708" lon="2.62708">
        <ele>210</ele>
        <time>2017-02-05T15:08:38Z</time>
      </trkpt>
      <trkpt lat="48.27088" lon="2.62709">
        <ele>210</ele>
        <time>2017-02-05T15:08:41Z</time>
      </trkpt>
      <trkpt lat="48.27093" lon="2.62706">
        <ele>210</ele>
        <time>2017-02-05T15:08:43Z</time>
      </trkpt>
      <trkpt lat="48.27106" lon="2.62697">
        <ele>210</ele>
        <time>2017-02-05T15:08:48Z</time>
      </trkpt>
      <trkpt lat="48.2711" lon="2.62696">
        <ele>209</ele>
        <time>2017-02-05T15:08:50Z</time>
      </trkpt>
      <trkpt lat="48.27116" lon="2.62699">
        <ele>209</ele>
        <time>2017-02-05T15:08:52Z</time>
      </trkpt>
      <trkpt lat="48.27118" lon="2.627">
        <ele>209</ele>
        <time>2017-02-05T15:08:53Z</time>
      </trkpt>
      <trkpt lat="48.27119" lon="2.62701">
        <ele>208</ele>
        <time>2017-02-05T15:08:54Z</time>
      </trkpt>
      <trkpt lat="48.2712" lon="2.62701">
        <ele>208</ele>
        <time>2017-02-05T15:08:57Z</time>
      </trkpt>
      <trkpt lat="48.2712" lon="2.62705">
        <ele>208</ele>
        <time>2017-02-05T15:09:01Z</time>
      </trkpt>
      <trkpt lat="48.27121" lon="2.62707">
        <ele>208</ele>
        <time>2017-02-05T15:09:03Z</time>
      </trkpt>
      <trkpt lat="48.27118" lon="2.62712">
        <ele>207</ele>
        <time>2017-02-05T15:09:06Z</time>
      </trkpt>
      <trkpt lat="48.27117" lon="2.62714">
        <ele>206</ele>
        <time>2017-02-05T15:09:07Z</time>
      </trkpt>
      <trkpt lat="48.27115" lon="2.62715">
        <ele>206</ele>
        <time>2017-02-05T15:09:08Z</time>
      </trkpt>
      <trkpt lat="48.2711" lon="2.62718">
        <ele>204</ele>
        <time>2017-02-05T15:09:10Z</time>
      </trkpt>
      <trkpt lat="48.27104" lon="2.62721">
        <ele>203</ele>
        <time>2017-02-05T15:09:12Z</time>
      </trkpt>
      <trkpt lat="48.27096" lon="2.62723">
        <ele>202</ele>
        <time>2017-02-05T15:09:15Z</time>
      </trkpt>
      <trkpt lat="48.2709" lon="2.62724">
        <ele>201</ele>
        <time>2017-02-05T15:09:17Z</time>
      </trkpt>
      <trkpt lat="48.27082" lon="2.62725">
        <ele>199</ele>
        <time>2017-02-05T15:09:19Z</time>
      </trkpt>
      <trkpt lat="48.27071" lon="2.62725">
        <ele>198</ele>
        <time>2017-02-05T15:09:21Z</time>
      </trkpt>
      <trkpt lat="48.27062" lon="2.6273">
        <ele>197</ele>
        <time>2017-02-05T15:09:23Z</time>
      </trkpt>
      <trkpt lat="48.27057" lon="2.62738">
        <ele>195</ele>
        <time>2017-02-05T15:09:25Z</time>
      </trkpt>
      <trkpt lat="48.27057" lon="2.62742">
        <ele>194</ele>
        <time>2017-02-05T15:09:27Z</time>
      </trkpt>
      <trkpt lat="48.27058" lon="2.62743">
        <ele>194</ele>
        <time>2017-02-05T15:09:28Z</time>
      </trkpt>
      <trkpt lat="48.27067" lon="2.62752">
        <ele>193</ele>
        <time>2017-02-05T15:09:33Z</time>
      </trkpt>
      <trkpt lat="48.27076" lon="2.62755">
        <ele>192</ele>
        <time>2017-02-05T15:09:35Z</time>
      </trkpt>
      <trkpt lat="48.27084" lon="2.62755">
        <ele>190</ele>
        <time>2017-02-05T15:09:37Z</time>
      </trkpt>
      <trkpt lat="48.27088" lon="2.62756">
        <ele>189</ele>
        <time>2017-02-05T15:09:38Z</time>
      </trkpt>
      <trkpt lat="48.27092" lon="2.62756">
        <ele>189</ele>
        <time>2017-02-05T15:09:39Z</time>
      </trkpt>
      <trkpt lat="48.27105" lon="2.62759">
        <ele>188</ele>
        <time>2017-02-05T15:09:42Z</time>
      </trkpt>
      <trkpt lat="48.27109" lon="2.6276">
        <ele>187</ele>
        <time>2017-02-05T15:09:43Z</time>
      </trkpt>
      <trkpt lat="48.27119" lon="2.62763">
        <ele>186</ele>
        <time>2017-02-05T15:09:46Z</time>
      </trkpt>
      <trkpt lat="48.27122" lon="2.62764">
        <ele>186</ele>
        <time>2017-02-05T15:09:47Z</time>
      </trkpt>
      <trkpt lat="48.27125" lon="2.62763">
        <ele>186</ele>
        <time>2017-02-05T15:09:49Z</time>
      </trkpt>
      <trkpt lat="48.27133" lon="2.6276">
        <ele>186</ele>
        <time>2017-02-05T15:09:52Z</time>
      </trkpt>
      <trkpt lat="48.2714" lon="2.62759">
        <ele>185</ele>
        <time>2017-02-05T15:09:54Z</time>
      </trkpt>
      <trkpt lat="48.27145" lon="2.62758">
        <ele>184</ele>
        <time>2017-02-05T15:09:55Z</time>
      </trkpt>
      <trkpt lat="48.2715" lon="2.62757">
        <ele>183</ele>
        <time>2017-02-05T15:09:56Z</time>
      </trkpt>
      <trkpt lat="48.27157" lon="2.62755">
        <ele>183</ele>
        <time>2017-02-05T15:09:58Z</time>
      </trkpt>
      <trkpt lat="48.27162" lon="2.62752">
        <ele>182</ele>
        <time>2017-02-05T15:10:00Z</time>
      </trkpt>
      <trkpt lat="48.27173" lon="2.62737">
        <ele>182</ele>
        <time>2017-02-05T15:10:04Z</time>
      </trkpt>
      <trkpt lat="48.27176" lon="2.62733">
        <ele>182</ele>
        <time>2017-02-05T15:10:05Z</time>
      </trkpt>
      <trkpt lat="48.27179" lon="2.62727">
        <ele>182</ele>
        <time>2017-02-05T15:10:06Z</time>
      </trkpt>
      <trkpt lat="48.27183" lon="2.62712">
        <ele>182</ele>
        <time>2017-02-05T15:10:08Z</time>
      </trkpt>
      <trkpt lat="48.27185" lon="2.62689">
        <ele>181</ele>
        <time>2017-02-05T15:10:12Z</time>
      </trkpt>
      <trkpt lat="48.27187" lon="2.62658">
        <ele>181</ele>
        <time>2017-02-05T15:10:18Z</time>
      </trkpt>
      <trkpt lat="48.27183" lon="2.62638">
        <ele>181</ele>
        <time>2017-02-05T15:10:22Z</time>
      </trkpt>
      <trkpt lat="48.27184" lon="2.62615">
        <ele>181</ele>
        <time>2017-02-05T15:10:26Z</time>
      </trkpt>
      <trkpt lat="48.27181" lon="2.626">
        <ele>181</ele>
        <time>2017-02-05T15:10:30Z</time>
      </trkpt>
      <trkpt lat="48.27181" lon="2.62595">
        <ele>181</ele>
        <time>2017-02-05T15:10:32Z</time>
      </trkpt>
      <trkpt lat="48.27182" lon="2.62588">
        <ele>181</ele>
        <time>2017-02-05T15:10:34Z</time>
      </trkpt>
      <trkpt lat="48.27185" lon="2.62574">
        <ele>181</ele>
        <time>2017-02-05T15:10:38Z</time>
      </trkpt>
      <trkpt lat="48.27186" lon="2.6257">
        <ele>181</ele>
        <time>2017-02-05T15:10:39Z</time>
      </trkpt>
      <trkpt lat="48.27191" lon="2.62563">
        <ele>181</ele>
        <time>2017-02-05T15:10:42Z</time>
      </trkpt>
      <trkpt lat="48.27193" lon="2.62562">
        <ele>181</ele>
        <time>2017-02-05T15:10:43Z</time>
      </trkpt>
      <trkpt lat="48.27199" lon="2.62555">
        <ele>180</ele>
        <time>2017-02-05T15:10:47Z</time>
      </trkpt>
      <trkpt lat="48.272" lon="2.6255">
        <ele>180</ele>
        <time>2017-02-05T15:10:48Z</time>
      </trkpt>
      <trkpt lat="48.27205" lon="2.62515">
        <ele>180</ele>
        <time>2017-02-05T15:10:54Z</time>
      </trkpt>
      <trkpt lat="48.27204" lon="2.62505">
        <ele>180</ele>
        <time>2017-02-05T15:10:56Z</time>
      </trkpt>
      <trkpt lat="48.27203" lon="2.62493">
        <ele>181</ele>
        <time>2017-02-05T15:10:59Z</time>
      </trkpt>
      <trkpt lat="48.27202" lon="2.62483">
        <ele>181</ele>
        <time>2017-02-05T15:11:04Z</time>
      </trkpt>
      <trkpt lat="48.27201" lon="2.62478">
        <ele>182</ele>
        <time>2017-02-05T15:11:06Z</time>
      </trkpt>
      <trkpt lat="48.27199" lon="2.62471">
        <ele>183</ele>
        <time>2017-02-05T15:11:11Z</time>
      </trkpt>
      <trkpt lat="48.27198" lon="2.6247">
        <ele>183</ele>
        <time>2017-02-05T15:11:12Z</time>
      </trkpt>
      <trkpt lat="48.27197" lon="2.62469">
        <ele>183</ele>
        <time>2017-02-05T15:11:13Z</time>
      </trkpt>
      <trkpt lat="48.27196" lon="2.62466">
        <ele>183</ele>
        <time>2017-02-05T15:11:18Z</time>
      </trkpt>
      <trkpt lat="48.27193" lon="2.62457">
        <ele>184</ele>
        <time>2017-02-05T15:11:24Z</time>
      </trkpt>
      <trkpt lat="48.27193" lon="2.62454">
        <ele>184</ele>
        <time>2017-02-05T15:11:26Z</time>
      </trkpt>
      <trkpt lat="48.2719" lon="2.62448">
        <ele>185</ele>
        <time>2017-02-05T15:11:33Z</time>
      </trkpt>
      <trkpt lat="48.27189" lon="2.62446">
        <ele>185</ele>
        <time>2017-02-05T15:11:36Z</time>
      </trkpt>
      <trkpt lat="48.27183" lon="2.62437">
        <ele>186</ele>
        <time>2017-02-05T15:11:45Z</time>
      </trkpt>
      <trkpt lat="48.27182" lon="2.62435">
        <ele>186</ele>
        <time>2017-02-05T15:11:46Z</time>
      </trkpt>
      <trkpt lat="48.27173" lon="2.6242">
        <ele>187</ele>
        <time>2017-02-05T15:11:54Z</time>
      </trkpt>
      <trkpt lat="48.27169" lon="2.62413">
        <ele>187</ele>
        <time>2017-02-05T15:12:03Z</time>
      </trkpt>
      <trkpt lat="48.27168" lon="2.62409">
        <ele>187</ele>
        <time>2017-02-05T15:12:09Z</time>
      </trkpt>
      <trkpt lat="48.27167" lon="2.62407">
        <ele>187</ele>
        <time>2017-02-05T15:12:16Z</time>
      </trkpt>
      <trkpt lat="48.27165" lon="2.62404">
        <ele>186</ele>
        <time>2017-02-05T15:12:32Z</time>
      </trkpt>
      <trkpt lat="48.27155" lon="2.62394">
        <ele>187</ele>
        <time>2017-02-05T15:12:38Z</time>
      </trkpt>
      <trkpt lat="48.27149" lon="2.62387">
        <ele>188</ele>
        <time>2017-02-05T15:12:45Z</time>
      </trkpt>
      <trkpt lat="48.27148" lon="2.62384">
        <ele>189</ele>
        <time>2017-02-05T15:12:46Z</time>
      </trkpt>
      <trkpt lat="48.27145" lon="2.6238">
        <ele>189</ele>
        <time>2017-02-05T15:12:50Z</time>
      </trkpt>
      <trkpt lat="48.27145" lon="2.62379">
        <ele>189</ele>
        <time>2017-02-05T15:12:52Z</time>
      </trkpt>
      <trkpt lat="48.27143" lon="2.62376">
        <ele>190</ele>
        <time>2017-02-05T15:12:58Z</time>
      </trkpt>
      <trkpt lat="48.27143" lon="2.62371">
        <ele>190</ele>
        <time>2017-02-05T15:13:01Z</time>
      </trkpt>
      <trkpt lat="48.27144" lon="2.62367">
        <ele>191</ele>
        <time>2017-02-05T15:13:04Z</time>
      </trkpt>
      <trkpt lat="48.27145" lon="2.6236">
        <ele>191</ele>
        <time>2017-02-05T15:13:11Z</time>
      </trkpt>
      <trkpt lat="48.27145" lon="2.62359">
        <ele>192</ele>
        <time>2017-02-05T15:13:12Z</time>
      </trkpt>
      <trkpt lat="48.27148" lon="2.62352">
        <ele>193</ele>
        <time>2017-02-05T15:13:19Z</time>
      </trkpt>
      <trkpt lat="48.27148" lon="2.6235">
        <ele>193</ele>
        <time>2017-02-05T15:13:20Z</time>
      </trkpt>
      <trkpt lat="48.27153" lon="2.62344">
        <ele>194</ele>
        <time>2017-02-05T15:13:25Z</time>
      </trkpt>
      <trkpt lat="48.27156" lon="2.62343">
        <ele>195</ele>
        <time>2017-02-05T15:13:30Z</time>
      </trkpt>
      <trkpt lat="48.27156" lon="2.62344">
        <ele>195</ele>
        <time>2017-02-05T15:13:31Z</time>
      </trkpt>
      <trkpt lat="48.27156" lon="2.62344">
        <ele>195</ele>
        <time>2017-02-05T15:13:32Z</time>
      </trkpt>
      <trkpt lat="48.27158" lon="2.62342">
        <ele>194</ele>
        <time>2017-02-05T15:13:38Z</time>
      </trkpt>
      <trkpt lat="48.27157" lon="2.62334">
        <ele>195</ele>
        <time>2017-02-05T15:13:46Z</time>
      </trkpt>
      <trkpt lat="48.27155" lon="2.62332">
        <ele>196</ele>
        <time>2017-02-05T15:13:51Z</time>
      </trkpt>
      <trkpt lat="48.27153" lon="2.62329">
        <ele>196</ele>
        <time>2017-02-05T15:13:54Z</time>
      </trkpt>
      <trkpt lat="48.27152" lon="2.62328">
        <ele>197</ele>
        <time>2017-02-05T15:13:57Z</time>
      </trkpt>
      <trkpt lat="48.27152" lon="2.62326">
        <ele>198</ele>
        <time>2017-02-05T15:14:01Z</time>
      </trkpt>
      <trkpt lat="48.27151" lon="2.62326">
        <ele>205</ele>
        <time>2017-02-05T15:14:41Z</time>
      </trkpt>
      <trkpt lat="48.27145" lon="2.62325">
        <ele>207</ele>
        <time>2017-02-05T15:15:08Z</time>
      </trkpt>
      <trkpt lat="48.27135" lon="2.62325">
        <ele>207</ele>
        <time>2017-02-05T15:15:10Z</time>
      </trkpt>
      <trkpt lat="48.27126" lon="2.62321">
        <ele>207</ele>
        <time>2017-02-05T15:15:12Z</time>
      </trkpt>
      <trkpt lat="48.27114" lon="2.62319">
        <ele>208</ele>
        <time>2017-02-05T15:15:16Z</time>
      </trkpt>
      <trkpt lat="48.27111" lon="2.62324">
        <ele>208</ele>
        <time>2017-02-05T15:15:20Z</time>
      </trkpt>
      <trkpt lat="48.27111" lon="2.6233">
        <ele>208</ele>
        <time>2017-02-05T15:15:22Z</time>
      </trkpt>
      <trkpt lat="48.2711" lon="2.6235">
        <ele>208</ele>
        <time>2017-02-05T15:15:28Z</time>
      </trkpt>
      <trkpt lat="48.27107" lon="2.62378">
        <ele>208</ele>
        <time>2017-02-05T15:15:34Z</time>
      </trkpt>
      <trkpt lat="48.27105" lon="2.62397">
        <ele>208</ele>
        <time>2017-02-05T15:15:38Z</time>
      </trkpt>
      <trkpt lat="48.27108" lon="2.62432">
        <ele>208</ele>
        <time>2017-02-05T15:15:44Z</time>
      </trkpt>
      <trkpt lat="48.2711" lon="2.62461">
        <ele>208</ele>
        <time>2017-02-05T15:15:49Z</time>
      </trkpt>
      <trkpt lat="48.27113" lon="2.62502">
        <ele>208</ele>
        <time>2017-02-05T15:15:56Z</time>
      </trkpt>
      <trkpt lat="48.27115" lon="2.62531">
        <ele>208</ele>
        <time>2017-02-05T15:16:02Z</time>
      </trkpt>
      <trkpt lat="48.27118" lon="2.62556">
        <ele>208</ele>
        <time>2017-02-05T15:16:07Z</time>
      </trkpt>
      <trkpt lat="48.27118" lon="2.6259">
        <ele>208</ele>
        <time>2017-02-05T15:16:13Z</time>
      </trkpt>
      <trkpt lat="48.2712" lon="2.62614">
        <ele>208</ele>
        <time>2017-02-05T15:16:18Z</time>
      </trkpt>
      <trkpt lat="48.2712" lon="2.62636">
        <ele>208</ele>
        <time>2017-02-05T15:16:23Z</time>
      </trkpt>
      <trkpt lat="48.27116" lon="2.62651">
        <ele>209</ele>
        <time>2017-02-05T15:16:27Z</time>
      </trkpt>
      <trkpt lat="48.27115" lon="2.62653">
        <ele>209</ele>
        <time>2017-02-05T15:16:28Z</time>
      </trkpt>
      <trkpt lat="48.27106" lon="2.62652">
        <ele>209</ele>
        <time>2017-02-05T15:16:32Z</time>
      </trkpt>
      <trkpt lat="48.27095" lon="2.62654">
        <ele>209</ele>
        <time>2017-02-05T15:16:37Z</time>
      </trkpt>
      <trkpt lat="48.27091" lon="2.62656">
        <ele>209</ele>
        <time>2017-02-05T15:16:39Z</time>
      </trkpt>
      <trkpt lat="48.27086" lon="2.6265">
        <ele>209</ele>
        <time>2017-02-05T15:16:42Z</time>
      </trkpt>
      <trkpt lat="48.27081" lon="2.62645">
        <ele>209</ele>
        <time>2017-02-05T15:16:46Z</time>
      </trkpt>
      <trkpt lat="48.2708" lon="2.62646">
        <ele>209</ele>
        <time>2017-02-05T15:16:47Z</time>
      </trkpt>
      <trkpt lat="48.27078" lon="2.62648">
        <ele>209</ele>
        <time>2017-02-05T15:16:48Z</time>
      </trkpt>
      <trkpt lat="48.27073" lon="2.62652">
        <ele>209</ele>
        <time>2017-02-05T15:16:51Z</time>
      </trkpt>
      <trkpt lat="48.2706" lon="2.62657">
        <ele>209</ele>
        <time>2017-02-05T15:16:56Z</time>
      </trkpt>
      <trkpt lat="48.27055" lon="2.62661">
        <ele>209</ele>
        <time>2017-02-05T15:16:58Z</time>
      </trkpt>
      <trkpt lat="48.27048" lon="2.62663">
        <ele>209</ele>
        <time>2017-02-05T15:17:01Z</time>
      </trkpt>
      <trkpt lat="48.27038" lon="2.6266">
        <ele>209</ele>
        <time>2017-02-05T15:17:06Z</time>
      </trkpt>
      <trkpt lat="48.2703" lon="2.62661">
        <ele>209</ele>
        <time>2017-02-05T15:17:10Z</time>
      </trkpt>
      <trkpt lat="48.27027" lon="2.6266">
        <ele>209</ele>
        <time>2017-02-05T15:17:11Z</time>
      </trkpt>
      <trkpt lat="48.27021" lon="2.62655">
        <ele>209</ele>
        <time>2017-02-05T15:17:14Z</time>
      </trkpt>
      <trkpt lat="48.27019" lon="2.62654">
        <ele>209</ele>
        <time>2017-02-05T15:17:15Z</time>
      </trkpt>
      <trkpt lat="48.27005" lon="2.62647">
        <ele>208</ele>
        <time>2017-02-05T15:17:20Z</time>
      </trkpt>
      <trkpt lat="48.27" lon="2.62639">
        <ele>208</ele>
        <time>2017-02-05T15:17:23Z</time>
      </trkpt>
      <trkpt lat="48.27" lon="2.62635">
        <ele>208</ele>
        <time>2017-02-05T15:17:24Z</time>
      </trkpt>
      <trkpt lat="48.27005" lon="2.62626">
        <ele>208</ele>
        <time>2017-02-05T15:17:27Z</time>
      </trkpt>
      <trkpt lat="48.2701" lon="2.6261">
        <ele>208</ele>
        <time>2017-02-05T15:17:31Z</time>
      </trkpt>
      <trkpt lat="48.27017" lon="2.626">
        <ele>208</ele>
        <time>2017-02-05T15:17:35Z</time>
      </trkpt>
      <trkpt lat="48.27019" lon="2.62597">
        <ele>208</ele>
        <time>2017-02-05T15:17:36Z</time>
      </trkpt>
      <trkpt lat="48.27031" lon="2.62589">
        <ele>208</ele>
        <time>2017-02-05T15:17:42Z</time>
      </trkpt>
      <trkpt lat="48.27041" lon="2.62582">
        <ele>208</ele>
        <time>2017-02-05T15:17:48Z</time>
      </trkpt>
      <trkpt lat="48.27046" lon="2.62582">
        <ele>208</ele>
        <time>2017-02-05T15:17:52Z</time>
      </trkpt>
      <trkpt lat="48.27047" lon="2.62582">
        <ele>208</ele>
        <time>2017-02-05T15:17:53Z</time>
      </trkpt>
      <trkpt lat="48.27054" lon="2.62574">
        <ele>209</ele>
        <time>2017-02-05T15:17:57Z</time>
      </trkpt>
      <trkpt lat="48.27062" lon="2.62562">
        <ele>209</ele>
        <time>2017-02-05T15:18:02Z</time>
      </trkpt>
      <trkpt lat="48.27066" lon="2.62554">
        <ele>208</ele>
        <time>2017-02-05T15:18:05Z</time>
      </trkpt>
      <trkpt lat="48.27066" lon="2.62552">
        <ele>208</ele>
        <time>2017-02-05T15:18:06Z</time>
      </trkpt>
      <trkpt lat="48.27069" lon="2.62542">
        <ele>208</ele>
        <time>2017-02-05T15:18:11Z</time>
      </trkpt>
      <trkpt lat="48.27074" lon="2.62529">
        <ele>208</ele>
        <time>2017-02-05T15:18:15Z</time>
      </trkpt>
      <trkpt lat="48.27076" lon="2.62521">
        <ele>208</ele>
        <time>2017-02-05T15:18:18Z</time>
      </trkpt>
      <trkpt lat="48.27075" lon="2.62516">
        <ele>208</ele>
        <time>2017-02-05T15:18:20Z</time>
      </trkpt>
      <trkpt lat="48.27072" lon="2.62512">
        <ele>208</ele>
        <time>2017-02-05T15:18:24Z</time>
      </trkpt>
      <trkpt lat="48.27067" lon="2.62509">
        <ele>208</ele>
        <time>2017-02-05T15:18:27Z</time>
      </trkpt>
      <trkpt lat="48.27064" lon="2.62504">
        <ele>208</ele>
        <time>2017-02-05T15:18:29Z</time>
      </trkpt>
      <trkpt lat="48.27064" lon="2.625">
        <ele>207</ele>
        <time>2017-02-05T15:18:31Z</time>
      </trkpt>
      <trkpt lat="48.27064" lon="2.62491">
        <ele>207</ele>
        <time>2017-02-05T15:18:34Z</time>
      </trkpt>
      <trkpt lat="48.27064" lon="2.62474">
        <ele>208</ele>
        <time>2017-02-05T15:18:40Z</time>
      </trkpt>
      <trkpt lat="48.27065" lon="2.62456">
        <ele>208</ele>
        <time>2017-02-05T15:18:45Z</time>
      </trkpt>
      <trkpt lat="48.27067" lon="2.62456">
        <ele>207</ele>
        <time>2017-02-05T15:18:46Z</time>
      </trkpt>
      <trkpt lat="48.2707" lon="2.62451">
        <ele>208</ele>
        <time>2017-02-05T15:18:50Z</time>
      </trkpt>
      <trkpt lat="48.2707" lon="2.62441">
        <ele>208</ele>
        <time>2017-02-05T15:18:54Z</time>
      </trkpt>
      <trkpt lat="48.27065" lon="2.62429">
        <ele>207</ele>
        <time>2017-02-05T15:18:59Z</time>
      </trkpt>
      <trkpt lat="48.27064" lon="2.62424">
        <ele>207</ele>
        <time>2017-02-05T15:19:01Z</time>
      </trkpt>
      <trkpt lat="48.27065" lon="2.62418">
        <ele>207</ele>
        <time>2017-02-05T15:19:03Z</time>
      </trkpt>
      <trkpt lat="48.27065" lon="2.62412">
        <ele>207</ele>
        <time>2017-02-05T15:19:06Z</time>
      </trkpt>
      <trkpt lat="48.27058" lon="2.62401">
        <ele>208</ele>
        <time>2017-02-05T15:19:12Z</time>
      </trkpt>
      <trkpt lat="48.27048" lon="2.62389">
        <ele>208</ele>
        <time>2017-02-05T15:19:18Z</time>
      </trkpt>
      <trkpt lat="48.27042" lon="2.62379">
        <ele>207</ele>
        <time>2017-02-05T15:19:24Z</time>
      </trkpt>
      <trkpt lat="48.27039" lon="2.6238">
        <ele>207</ele>
        <time>2017-02-05T15:19:26Z</time>
      </trkpt>
      <trkpt lat="48.27036" lon="2.62382">
        <ele>208</ele>
        <time>2017-02-05T15:19:28Z</time>
      </trkpt>
      <trkpt lat="48.27032" lon="2.6239">
        <ele>208</ele>
        <time>2017-02-05T15:19:31Z</time>
      </trkpt>
      <trkpt lat="48.2703" lon="2.62393">
        <ele>208</ele>
        <time>2017-02-05T15:19:33Z</time>
      </trkpt>
      <trkpt lat="48.27026" lon="2.62391">
        <ele>208</ele>
        <time>2017-02-05T15:19:36Z</time>
      </trkpt>
      <trkpt lat="48.27024" lon="2.62388">
        <ele>207</ele>
        <time>2017-02-05T15:19:38Z</time>
      </trkpt>
      <trkpt lat="48.27022" lon="2.6239">
        <ele>209</ele>
        <time>2017-02-05T15:19:42Z</time>
      </trkpt>
      <trkpt lat="48.27019" lon="2.62396">
        <ele>209</ele>
        <time>2017-02-05T15:19:45Z</time>
      </trkpt>
      <trkpt lat="48.27016" lon="2.624">
        <ele>208</ele>
        <time>2017-02-05T15:19:47Z</time>
      </trkpt>
      <trkpt lat="48.27015" lon="2.62401">
        <ele>208</ele>
        <time>2017-02-05T15:19:49Z</time>
      </trkpt>
      <trkpt lat="48.27012" lon="2.62415">
        <ele>208</ele>
        <time>2017-02-05T15:19:54Z</time>
      </trkpt>
      <trkpt lat="48.27012" lon="2.62418">
        <ele>208</ele>
        <time>2017-02-05T15:19:55Z</time>
      </trkpt>
      <trkpt lat="48.27015" lon="2.62434">
        <ele>207</ele>
        <time>2017-02-05T15:19:59Z</time>
      </trkpt>
      <trkpt lat="48.27018" lon="2.62447">
        <ele>207</ele>
        <time>2017-02-05T15:20:03Z</time>
      </trkpt>
      <trkpt lat="48.27022" lon="2.62453">
        <ele>207</ele>
        <time>2017-02-05T15:20:05Z</time>
      </trkpt>
      <trkpt lat="48.27025" lon="2.6246">
        <ele>207</ele>
        <time>2017-02-05T15:20:09Z</time>
      </trkpt>
      <trkpt lat="48.27032" lon="2.62474">
        <ele>208</ele>
        <time>2017-02-05T15:20:14Z</time>
      </trkpt>
      <trkpt lat="48.27032" lon="2.62477">
        <ele>208</ele>
        <time>2017-02-05T15:20:15Z</time>
      </trkpt>
      <trkpt lat="48.27037" lon="2.62491">
        <ele>207</ele>
        <time>2017-02-05T15:20:20Z</time>
      </trkpt>
      <trkpt lat="48.27042" lon="2.62495">
        <ele>207</ele>
        <time>2017-02-05T15:20:23Z</time>
      </trkpt>
      <trkpt lat="48.27045" lon="2.62499">
        <ele>207</ele>
        <time>2017-02-05T15:20:25Z</time>
      </trkpt>
      <trkpt lat="48.27047" lon="2.62502">
        <ele>207</ele>
        <time>2017-02-05T15:20:30Z</time>
      </trkpt>
      <trkpt lat="48.27046" lon="2.62505">
        <ele>207</ele>
        <time>2017-02-05T15:20:31Z</time>
      </trkpt>
      <trkpt lat="48.27042" lon="2.62507">
        <ele>208</ele>
        <time>2017-02-05T15:20:34Z</time>
      </trkpt>
      <trkpt lat="48.27039" lon="2.62516">
        <ele>208</ele>
        <time>2017-02-05T15:20:37Z</time>
      </trkpt>
      <trkpt lat="48.27037" lon="2.62519">
        <ele>208</ele>
        <time>2017-02-05T15:20:38Z</time>
      </trkpt>
      <trkpt lat="48.27038" lon="2.62529">
        <ele>208</ele>
        <time>2017-02-05T15:20:41Z</time>
      </trkpt>
      <trkpt lat="48.27042" lon="2.62539">
        <ele>207</ele>
        <time>2017-02-05T15:20:47Z</time>
      </trkpt>
      <trkpt lat="48.27043" lon="2.62551">
        <ele>208</ele>
        <time>2017-02-05T15:20:52Z</time>
      </trkpt>
      <trkpt lat="48.27042" lon="2.62552">
        <ele>208</ele>
        <time>2017-02-05T15:20:53Z</time>
      </trkpt>
      <trkpt lat="48.27041" lon="2.62554">
        <ele>208</ele>
        <time>2017-02-05T15:20:55Z</time>
      </trkpt>
      <trkpt lat="48.27039" lon="2.62556">
        <ele>208</ele>
        <time>2017-02-05T15:20:57Z</time>
      </trkpt>
      <trkpt lat="48.27038" lon="2.62557">
        <ele>207</ele>
        <time>2017-02-05T15:20:58Z</time>
      </trkpt>
      <trkpt lat="48.27037" lon="2.62558">
        <ele>207</ele>
        <time>2017-02-05T15:20:59Z</time>
      </trkpt>
      <trkpt lat="48.27031" lon="2.6256">
        <ele>208</ele>
        <time>2017-02-05T15:21:03Z</time>
      </trkpt>
      <trkpt lat="48.27029" lon="2.62559">
        <ele>208</ele>
        <time>2017-02-05T15:21:04Z</time>
      </trkpt>
      <trkpt lat="48.27025" lon="2.62553">
        <ele>208</ele>
        <time>2017-02-05T15:21:08Z</time>
      </trkpt>
      <trkpt lat="48.27023" lon="2.62544">
        <ele>207</ele>
        <time>2017-02-05T15:21:13Z</time>
      </trkpt>
      <trkpt lat="48.27024" lon="2.62539">
        <ele>207</ele>
        <time>2017-02-05T15:21:16Z</time>
      </trkpt>
      <trkpt lat="48.27025" lon="2.62535">
        <ele>207</ele>
        <time>2017-02-05T15:21:18Z</time>
      </trkpt>
      <trkpt lat="48.27023" lon="2.62514">
        <ele>207</ele>
        <time>2017-02-05T15:21:25Z</time>
      </trkpt>
      <trkpt lat="48.27014" lon="2.62497">
        <ele>206</ele>
        <time>2017-02-05T15:21:30Z</time>
      </trkpt>
      <trkpt lat="48.27009" lon="2.6249">
        <ele>207</ele>
        <time>2017-02-05T15:21:35Z</time>
      </trkpt>
      <trkpt lat="48.27009" lon="2.6249">
        <ele>207</ele>
        <time>2017-02-05T15:21:43Z</time>
      </trkpt>
      <trkpt lat="48.27007" lon="2.62483">
        <ele>209</ele>
        <time>2017-02-05T15:22:07Z</time>
      </trkpt>
      <trkpt lat="48.27003" lon="2.62473">
        <ele>208</ele>
        <time>2017-02-05T15:22:09Z</time>
      </trkpt>
      <trkpt lat="48.26993" lon="2.62463">
        <ele>208</ele>
        <time>2017-02-05T15:22:14Z</time>
      </trkpt>
      <trkpt lat="48.2699" lon="2.6246">
        <ele>207</ele>
        <time>2017-02-05T15:22:15Z</time>
      </trkpt>
      <trkpt lat="48.26979" lon="2.62449">
        <ele>206</ele>
        <time>2017-02-05T15:22:18Z</time>
      </trkpt>
      <trkpt lat="48.26978" lon="2.62447">
        <ele>206</ele>
        <time>2017-02-05T15:22:19Z</time>
      </trkpt>
      <trkpt lat="48.26978" lon="2.62445">
        <ele>206</ele>
        <time>2017-02-05T15:22:20Z</time>
      </trkpt>
      <trkpt lat="48.26978" lon="2.62441">
        <ele>206</ele>
        <time>2017-02-05T15:22:21Z</time>
      </trkpt>
      <trkpt lat="48.26979" lon="2.62437">
        <ele>206</ele>
        <time>2017-02-05T15:22:23Z</time>
      </trkpt>
      <trkpt lat="48.26981" lon="2.62432">
        <ele>207</ele>
        <time>2017-02-05T15:22:26Z</time>
      </trkpt>
      <trkpt lat="48.26987" lon="2.62419">
        <ele>207</ele>
        <time>2017-02-05T15:22:30Z</time>
      </trkpt>
      <trkpt lat="48.26988" lon="2.62414">
        <ele>207</ele>
        <time>2017-02-05T15:22:32Z</time>
      </trkpt>
      <trkpt lat="48.26989" lon="2.62407">
        <ele>207</ele>
        <time>2017-02-05T15:22:34Z</time>
      </trkpt>
      <trkpt lat="48.26989" lon="2.62404">
        <ele>207</ele>
        <time>2017-02-05T15:22:35Z</time>
      </trkpt>
      <trkpt lat="48.26992" lon="2.62388">
        <ele>207</ele>
        <time>2017-02-05T15:22:41Z</time>
      </trkpt>
      <trkpt lat="48.26989" lon="2.62379">
        <ele>207</ele>
        <time>2017-02-05T15:22:44Z</time>
      </trkpt>
      <trkpt lat="48.26987" lon="2.62371">
        <ele>206</ele>
        <time>2017-02-05T15:22:46Z</time>
      </trkpt>
      <trkpt lat="48.26991" lon="2.62362">
        <ele>206</ele>
        <time>2017-02-05T15:22:49Z</time>
      </trkpt>
      <trkpt lat="48.26994" lon="2.62359">
        <ele>206</ele>
        <time>2017-02-05T15:22:50Z</time>
      </trkpt>
      <trkpt lat="48.26999" lon="2.62352">
        <ele>206</ele>
        <time>2017-02-05T15:22:52Z</time>
      </trkpt>
      <trkpt lat="48.27003" lon="2.62341">
        <ele>206</ele>
        <time>2017-02-05T15:22:55Z</time>
      </trkpt>
      <trkpt lat="48.27004" lon="2.62335">
        <ele>206</ele>
        <time>2017-02-05T15:23:00Z</time>
      </trkpt>
      <trkpt lat="48.27004" lon="2.62334">
        <ele>206</ele>
        <time>2017-02-05T15:23:07Z</time>
      </trkpt>
      <trkpt lat="48.27004" lon="2.62334">
        <ele>205</ele>
        <time>2017-02-05T15:23:50Z</time>
      </trkpt>
      <trkpt lat="48.26999" lon="2.62329">
        <ele>205</ele>
        <time>2017-02-05T15:24:03Z</time>
      </trkpt>
      <trkpt lat="48.27" lon="2.62329">
        <ele>205</ele>
        <time>2017-02-05T15:24:51Z</time>
      </trkpt>
      <trkpt lat="48.27" lon="2.62329">
        <ele>205</ele>
        <time>2017-02-05T15:25:23Z</time>
      </trkpt>
      <trkpt lat="48.27003" lon="2.62322">
        <ele>206</ele>
        <time>2017-02-05T15:25:29Z</time>
      </trkpt>
      <trkpt lat="48.27005" lon="2.62316">
        <ele>206</ele>
        <time>2017-02-05T15:25:31Z</time>
      </trkpt>
      <trkpt lat="48.27003" lon="2.6231">
        <ele>206</ele>
        <time>2017-02-05T15:25:36Z</time>
      </trkpt>
      <trkpt lat="48.27003" lon="2.62309">
        <ele>206</ele>
        <time>2017-02-05T15:25:46Z</time>
      </trkpt>
      <trkpt lat="48.27003" lon="2.62309">
        <ele>206</ele>
        <time>2017-02-05T15:26:19Z</time>
      </trkpt>
      <trkpt lat="48.27003" lon="2.62307">
        <ele>206</ele>
        <time>2017-02-05T15:26:36Z</time>
      </trkpt>
      <trkpt lat="48.27002" lon="2.62303">
        <ele>206</ele>
        <time>2017-02-05T15:26:37Z</time>
      </trkpt>
      <trkpt lat="48.27" lon="2.62283">
        <ele>206</ele>
        <time>2017-02-05T15:26:42Z</time>
      </trkpt>
      <trkpt lat="48.26998" lon="2.62278">
        <ele>206</ele>
        <time>2017-02-05T15:26:44Z</time>
      </trkpt>
      <trkpt lat="48.26995" lon="2.6227">
        <ele>206</ele>
        <time>2017-02-05T15:26:46Z</time>
      </trkpt>
      <trkpt lat="48.26995" lon="2.62254">
        <ele>206</ele>
        <time>2017-02-05T15:26:50Z</time>
      </trkpt>
      <trkpt lat="48.26993" lon="2.62252">
        <ele>206</ele>
        <time>2017-02-05T15:26:51Z</time>
      </trkpt>
      <trkpt lat="48.26992" lon="2.62248">
        <ele>206</ele>
        <time>2017-02-05T15:26:52Z</time>
      </trkpt>
      <trkpt lat="48.26992" lon="2.62244">
        <ele>206</ele>
        <time>2017-02-05T15:26:53Z</time>
      </trkpt>
      <trkpt lat="48.26986" lon="2.62224">
        <ele>205</ele>
        <time>2017-02-05T15:26:59Z</time>
      </trkpt>
      <trkpt lat="48.26986" lon="2.6222">
        <ele>205</ele>
        <time>2017-02-05T15:27:00Z</time>
      </trkpt>
      <trkpt lat="48.26985" lon="2.6221">
        <ele>205</ele>
        <time>2017-02-05T15:27:04Z</time>
      </trkpt>
      <trkpt lat="48.26989" lon="2.62197">
        <ele>205</ele>
        <time>2017-02-05T15:27:09Z</time>
      </trkpt>
      <trkpt lat="48.2699" lon="2.62195">
        <ele>206</ele>
        <time>2017-02-05T15:27:10Z</time>
      </trkpt>
      <trkpt lat="48.26994" lon="2.62184">
        <ele>206</ele>
        <time>2017-02-05T15:27:14Z</time>
      </trkpt>
      <trkpt lat="48.26994" lon="2.6218">
        <ele>206</ele>
        <time>2017-02-05T15:27:15Z</time>
      </trkpt>
      <trkpt lat="48.26997" lon="2.62167">
        <ele>206</ele>
        <time>2017-02-05T15:27:18Z</time>
      </trkpt>
      <trkpt lat="48.26997" lon="2.6216">
        <ele>206</ele>
        <time>2017-02-05T15:27:20Z</time>
      </trkpt>
      <trkpt lat="48.26998" lon="2.62155">
        <ele>206</ele>
        <time>2017-02-05T15:27:21Z</time>
      </trkpt>
      <trkpt lat="48.27" lon="2.62143">
        <ele>206</ele>
        <time>2017-02-05T15:27:24Z</time>
      </trkpt>
      <trkpt lat="48.27005" lon="2.6214">
        <ele>206</ele>
        <time>2017-02-05T15:27:26Z</time>
      </trkpt>
      <trkpt lat="48.27016" lon="2.62124">
        <ele>206</ele>
        <time>2017-02-05T15:27:32Z</time>
      </trkpt>
      <trkpt lat="48.27019" lon="2.62121">
        <ele>206</ele>
        <time>2017-02-05T15:27:34Z</time>
      </trkpt>
      <trkpt lat="48.27022" lon="2.62121">
        <ele>205</ele>
        <time>2017-02-05T15:27:35Z</time>
      </trkpt>
      <trkpt lat="48.27026" lon="2.62122">
        <ele>205</ele>
        <time>2017-02-05T15:27:37Z</time>
      </trkpt>
      <trkpt lat="48.27028" lon="2.62126">
        <ele>205</ele>
        <time>2017-02-05T15:27:39Z</time>
      </trkpt>
      <trkpt lat="48.2703" lon="2.62127">
        <ele>205</ele>
        <time>2017-02-05T15:27:40Z</time>
      </trkpt>
      <trkpt lat="48.27034" lon="2.62131">
        <ele>205</ele>
        <time>2017-02-05T15:27:42Z</time>
      </trkpt>
      <trkpt lat="48.27041" lon="2.6214">
        <ele>205</ele>
        <time>2017-02-05T15:27:47Z</time>
      </trkpt>
      <trkpt lat="48.27042" lon="2.62142">
        <ele>205</ele>
        <time>2017-02-05T15:27:48Z</time>
      </trkpt>
      <trkpt lat="48.27043" lon="2.62148">
        <ele>205</ele>
        <time>2017-02-05T15:27:51Z</time>
      </trkpt>
      <trkpt lat="48.27044" lon="2.62154">
        <ele>205</ele>
        <time>2017-02-05T15:27:53Z</time>
      </trkpt>
      <trkpt lat="48.27051" lon="2.6217">
        <ele>205</ele>
        <time>2017-02-05T15:27:57Z</time>
      </trkpt>
      <trkpt lat="48.27054" lon="2.62176">
        <ele>205</ele>
        <time>2017-02-05T15:27:59Z</time>
      </trkpt>
      <trkpt lat="48.27057" lon="2.62183">
        <ele>205</ele>
        <time>2017-02-05T15:28:01Z</time>
      </trkpt>
      <trkpt lat="48.27063" lon="2.62188">
        <ele>205</ele>
        <time>2017-02-05T15:28:05Z</time>
      </trkpt>
      <trkpt lat="48.27063" lon="2.62188">
        <ele>204</ele>
        <time>2017-02-05T15:28:07Z</time>
      </trkpt>
      <trkpt lat="48.27061" lon="2.62185">
        <ele>204</ele>
        <time>2017-02-05T15:28:10Z</time>
      </trkpt>
      <trkpt lat="48.27052" lon="2.62181">
        <ele>205</ele>
        <time>2017-02-05T15:28:15Z</time>
      </trkpt>
      <trkpt lat="48.27049" lon="2.62177">
        <ele>205</ele>
        <time>2017-02-05T15:28:17Z</time>
      </trkpt>
      <trkpt lat="48.27046" lon="2.62176">
        <ele>205</ele>
        <time>2017-02-05T15:28:18Z</time>
      </trkpt>
      <trkpt lat="48.2704" lon="2.62176">
        <ele>204</ele>
        <time>2017-02-05T15:28:21Z</time>
      </trkpt>
      <trkpt lat="48.2703" lon="2.62179">
        <ele>205</ele>
        <time>2017-02-05T15:28:26Z</time>
      </trkpt>
      <trkpt lat="48.27022" lon="2.6218">
        <ele>205</ele>
        <time>2017-02-05T15:28:29Z</time>
      </trkpt>
      <trkpt lat="48.27017" lon="2.62184">
        <ele>206</ele>
        <time>2017-02-05T15:28:32Z</time>
      </trkpt>
      <trkpt lat="48.27015" lon="2.62195">
        <ele>206</ele>
        <time>2017-02-05T15:28:37Z</time>
      </trkpt>
      <trkpt lat="48.27014" lon="2.62201">
        <ele>206</ele>
        <time>2017-02-05T15:28:43Z</time>
      </trkpt>
      <trkpt lat="48.27016" lon="2.62206">
        <ele>205</ele>
        <time>2017-02-05T15:29:15Z</time>
      </trkpt>
      <trkpt lat="48.27017" lon="2.6221">
        <ele>205</ele>
        <time>2017-02-05T15:29:21Z</time>
      </trkpt>
      <trkpt lat="48.27018" lon="2.62211">
        <ele>205</ele>
        <time>2017-02-05T15:29:32Z</time>
      </trkpt>
      <trkpt lat="48.27018" lon="2.62211">
        <ele>205</ele>
        <time>2017-02-05T15:30:20Z</time>
      </trkpt>
      <trkpt lat="48.27018" lon="2.62212">
        <ele>205</ele>
        <time>2017-02-05T15:30:27Z</time>
      </trkpt>
      <trkpt lat="48.27018" lon="2.62218">
        <ele>205</ele>
        <time>2017-02-05T15:30:28Z</time>
      </trkpt>
      <trkpt lat="48.27023" lon="2.62233">
        <ele>205</ele>
        <time>2017-02-05T15:30:31Z</time>
      </trkpt>
      <trkpt lat="48.27025" lon="2.62249">
        <ele>205</ele>
        <time>2017-02-05T15:30:35Z</time>
      </trkpt>
      <trkpt lat="48.27026" lon="2.62258">
        <ele>205</ele>
        <time>2017-02-05T15:30:37Z</time>
      </trkpt>
      <trkpt lat="48.27025" lon="2.6226">
        <ele>205</ele>
        <time>2017-02-05T15:30:38Z</time>
      </trkpt>
      <trkpt lat="48.27026" lon="2.62267">
        <ele>205</ele>
        <time>2017-02-05T15:30:41Z</time>
      </trkpt>
      <trkpt lat="48.27026" lon="2.6227">
        <ele>205</ele>
        <time>2017-02-05T15:30:42Z</time>
      </trkpt>
      <trkpt lat="48.27024" lon="2.62286">
        <ele>205</ele>
        <time>2017-02-05T15:30:47Z</time>
      </trkpt>
      <trkpt lat="48.27024" lon="2.62289">
        <ele>205</ele>
        <time>2017-02-05T15:30:48Z</time>
      </trkpt>
      <trkpt lat="48.27026" lon="2.62295">
        <ele>205</ele>
        <time>2017-02-05T15:30:50Z</time>
      </trkpt>
      <trkpt lat="48.27026" lon="2.62305">
        <ele>205</ele>
        <time>2017-02-05T15:30:53Z</time>
      </trkpt>
      <trkpt lat="48.27029" lon="2.62314">
        <ele>205</ele>
        <time>2017-02-05T15:30:58Z</time>
      </trkpt>
      <trkpt lat="48.27034" lon="2.62321">
        <ele>206</ele>
        <time>2017-02-05T15:31:03Z</time>
      </trkpt>
      <trkpt lat="48.27035" lon="2.62319">
        <ele>206</ele>
        <time>2017-02-05T15:31:04Z</time>
      </trkpt>
      <trkpt lat="48.27037" lon="2.62311">
        <ele>205</ele>
        <time>2017-02-05T15:31:08Z</time>
      </trkpt>
      <trkpt lat="48.27045" lon="2.62302">
        <ele>205</ele>
        <time>2017-02-05T15:31:15Z</time>
      </trkpt>
      <trkpt lat="48.2705" lon="2.62296">
        <ele>205</ele>
        <time>2017-02-05T15:31:21Z</time>
      </trkpt>
      <trkpt lat="48.27055" lon="2.62284">
        <ele>205</ele>
        <time>2017-02-05T15:31:23Z</time>
      </trkpt>
      <trkpt lat="48.27058" lon="2.62275">
        <ele>205</ele>
        <time>2017-02-05T15:31:26Z</time>
      </trkpt>
      <trkpt lat="48.27066" lon="2.62271">
        <ele>205</ele>
        <time>2017-02-05T15:31:31Z</time>
      </trkpt>
      <trkpt lat="48.27072" lon="2.62262">
        <ele>205</ele>
        <time>2017-02-05T15:31:36Z</time>
      </trkpt>
      <trkpt lat="48.27075" lon="2.6226">
        <ele>205</ele>
        <time>2017-02-05T15:31:37Z</time>
      </trkpt>
      <trkpt lat="48.27077" lon="2.6226">
        <ele>205</ele>
        <time>2017-02-05T15:31:40Z</time>
      </trkpt>
      <trkpt lat="48.27082" lon="2.62254">
        <ele>205</ele>
        <time>2017-02-05T15:31:43Z</time>
      </trkpt>
      <trkpt lat="48.27084" lon="2.62247">
        <ele>204</ele>
        <time>2017-02-05T15:31:45Z</time>
      </trkpt>
      <trkpt lat="48.27091" lon="2.62243">
        <ele>204</ele>
        <time>2017-02-05T15:31:48Z</time>
      </trkpt>
      <trkpt lat="48.27092" lon="2.62242">
        <ele>205</ele>
        <time>2017-02-05T15:31:49Z</time>
      </trkpt>
      <trkpt lat="48.27094" lon="2.6224">
        <ele>205</ele>
        <time>2017-02-05T15:31:50Z</time>
      </trkpt>
      <trkpt lat="48.27096" lon="2.62235">
        <ele>205</ele>
        <time>2017-02-05T15:31:52Z</time>
      </trkpt>
      <trkpt lat="48.27099" lon="2.62229">
        <ele>205</ele>
        <time>2017-02-05T15:31:54Z</time>
      </trkpt>
      <trkpt lat="48.27104" lon="2.62215">
        <ele>205</ele>
        <time>2017-02-05T15:31:58Z</time>
      </trkpt>
      <trkpt lat="48.27106" lon="2.62207">
        <ele>205</ele>
        <time>2017-02-05T15:32:00Z</time>
      </trkpt>
      <trkpt lat="48.27112" lon="2.6219">
        <ele>205</ele>
        <time>2017-02-05T15:32:06Z</time>
      </trkpt>
      <trkpt lat="48.27112" lon="2.62186">
        <ele>206</ele>
        <time>2017-02-05T15:32:07Z</time>
      </trkpt>
      <trkpt lat="48.27112" lon="2.62183">
        <ele>206</ele>
        <time>2017-02-05T15:32:08Z</time>
      </trkpt>
      <trkpt lat="48.27113" lon="2.62169">
        <ele>206</ele>
        <time>2017-02-05T15:32:12Z</time>
      </trkpt>
      <trkpt lat="48.27113" lon="2.62146">
        <ele>206</ele>
        <time>2017-02-05T15:32:18Z</time>
      </trkpt>
      <trkpt lat="48.27113" lon="2.62115">
        <ele>206</ele>
        <time>2017-02-05T15:32:25Z</time>
      </trkpt>
      <trkpt lat="48.2711" lon="2.62099">
        <ele>205</ele>
        <time>2017-02-05T15:32:29Z</time>
      </trkpt>
      <trkpt lat="48.27103" lon="2.62087">
        <ele>205</ele>
        <time>2017-02-05T15:32:33Z</time>
      </trkpt>
      <trkpt lat="48.27101" lon="2.62086">
        <ele>205</ele>
        <time>2017-02-05T15:32:34Z</time>
      </trkpt>
      <trkpt lat="48.27099" lon="2.62085">
        <ele>204</ele>
        <time>2017-02-05T15:32:35Z</time>
      </trkpt>
      <trkpt lat="48.2709" lon="2.62075">
        <ele>205</ele>
        <time>2017-02-05T15:32:39Z</time>
      </trkpt>
      <trkpt lat="48.2707" lon="2.62066">
        <ele>204</ele>
        <time>2017-02-05T15:32:46Z</time>
      </trkpt>
      <trkpt lat="48.27068" lon="2.62068">
        <ele>204</ele>
        <time>2017-02-05T15:32:47Z</time>
      </trkpt>
      <trkpt lat="48.2706" lon="2.6207">
        <ele>205</ele>
        <time>2017-02-05T15:32:50Z</time>
      </trkpt>
      <trkpt lat="48.27059" lon="2.62071">
        <ele>205</ele>
        <time>2017-02-05T15:32:51Z</time>
      </trkpt>
      <trkpt lat="48.27058" lon="2.62073">
        <ele>205</ele>
        <time>2017-02-05T15:32:52Z</time>
      </trkpt>
      <trkpt lat="48.27051" lon="2.62078">
        <ele>205</ele>
        <time>2017-02-05T15:32:55Z</time>
      </trkpt>
      <trkpt lat="48.27046" lon="2.62076">
        <ele>205</ele>
        <time>2017-02-05T15:32:57Z</time>
      </trkpt>
      <trkpt lat="48.27045" lon="2.62074">
        <ele>205</ele>
        <time>2017-02-05T15:32:58Z</time>
      </trkpt>
      <trkpt lat="48.27043" lon="2.62074">
        <ele>205</ele>
        <time>2017-02-05T15:32:59Z</time>
      </trkpt>
      <trkpt lat="48.27038" lon="2.62069">
        <ele>205</ele>
        <time>2017-02-05T15:33:02Z</time>
      </trkpt>
      <trkpt lat="48.27038" lon="2.62062">
        <ele>205</ele>
        <time>2017-02-05T15:33:04Z</time>
      </trkpt>
      <trkpt lat="48.27036" lon="2.62059">
        <ele>204</ele>
        <time>2017-02-05T15:33:05Z</time>
      </trkpt>
      <trkpt lat="48.27032" lon="2.6205">
        <ele>205</ele>
        <time>2017-02-05T15:33:09Z</time>
      </trkpt>
      <trkpt lat="48.27027" lon="2.62029">
        <ele>205</ele>
        <time>2017-02-05T15:33:15Z</time>
      </trkpt>
      <trkpt lat="48.27025" lon="2.62024">
        <ele>205</ele>
        <time>2017-02-05T15:33:16Z</time>
      </trkpt>
      <trkpt lat="48.27019" lon="2.62012">
        <ele>204</ele>
        <time>2017-02-05T15:33:19Z</time>
      </trkpt>
      <trkpt lat="48.27002" lon="2.61998">
        <ele>204</ele>
        <time>2017-02-05T15:33:25Z</time>
      </trkpt>
      <trkpt lat="48.26983" lon="2.61991">
        <ele>204</ele>
        <time>2017-02-05T15:33:32Z</time>
      </trkpt>
      <trkpt lat="48.26976" lon="2.61989">
        <ele>204</ele>
        <time>2017-02-05T15:33:35Z</time>
      </trkpt>
      <trkpt lat="48.26974" lon="2.6199">
        <ele>204</ele>
        <time>2017-02-05T15:33:36Z</time>
      </trkpt>
      <trkpt lat="48.26973" lon="2.61999">
        <ele>205</ele>
        <time>2017-02-05T15:33:42Z</time>
      </trkpt>
      <trkpt lat="48.26976" lon="2.62002">
        <ele>205</ele>
        <time>2017-02-05T15:33:44Z</time>
      </trkpt>
      <trkpt lat="48.26976" lon="2.62006">
        <ele>205</ele>
        <time>2017-02-05T15:33:46Z</time>
      </trkpt>
      <trkpt lat="48.26976" lon="2.62009">
        <ele>205</ele>
        <time>2017-02-05T15:33:47Z</time>
      </trkpt>
      <trkpt lat="48.2698" lon="2.62022">
        <ele>205</ele>
        <time>2017-02-05T15:33:50Z</time>
      </trkpt>
      <trkpt lat="48.26984" lon="2.62036">
        <ele>205</ele>
        <time>2017-02-05T15:33:54Z</time>
      </trkpt>
      <trkpt lat="48.26988" lon="2.62045">
        <ele>205</ele>
        <time>2017-02-05T15:33:57Z</time>
      </trkpt>
      <trkpt lat="48.2699" lon="2.62052">
        <ele>205</ele>
        <time>2017-02-05T15:33:59Z</time>
      </trkpt>
      <trkpt lat="48.26993" lon="2.62064">
        <ele>205</ele>
        <time>2017-02-05T15:34:02Z</time>
      </trkpt>
      <trkpt lat="48.26995" lon="2.62074">
        <ele>205</ele>
        <time>2017-02-05T15:34:04Z</time>
      </trkpt>
      <trkpt lat="48.26994" lon="2.62092">
        <ele>205</ele>
        <time>2017-02-05T15:34:09Z</time>
      </trkpt>
      <trkpt lat="48.26992" lon="2.62102">
        <ele>205</ele>
        <time>2017-02-05T15:34:11Z</time>
      </trkpt>
      <trkpt lat="48.26985" lon="2.62116">
        <ele>205</ele>
        <time>2017-02-05T15:34:14Z</time>
      </trkpt>
      <trkpt lat="48.26985" lon="2.62123">
        <ele>205</ele>
        <time>2017-02-05T15:34:15Z</time>
      </trkpt>
      <trkpt lat="48.26983" lon="2.62134">
        <ele>205</ele>
        <time>2017-02-05T15:34:17Z</time>
      </trkpt>
      <trkpt lat="48.26984" lon="2.62143">
        <ele>204</ele>
        <time>2017-02-05T15:34:22Z</time>
      </trkpt>
      <trkpt lat="48.26981" lon="2.62141">
        <ele>204</ele>
        <time>2017-02-05T15:34:25Z</time>
      </trkpt>
      <trkpt lat="48.26979" lon="2.62138">
        <ele>204</ele>
        <time>2017-02-05T15:34:27Z</time>
      </trkpt>
      <trkpt lat="48.26978" lon="2.62134">
        <ele>203</ele>
        <time>2017-02-05T15:34:29Z</time>
      </trkpt>
      <trkpt lat="48.26973" lon="2.62124">
        <ele>202</ele>
        <time>2017-02-05T15:34:31Z</time>
      </trkpt>
      <trkpt lat="48.2697" lon="2.62117">
        <ele>202</ele>
        <time>2017-02-05T15:34:33Z</time>
      </trkpt>
      <trkpt lat="48.26969" lon="2.62115">
        <ele>203</ele>
        <time>2017-02-05T15:34:34Z</time>
      </trkpt>
      <trkpt lat="48.2697" lon="2.62108">
        <ele>203</ele>
        <time>2017-02-05T15:34:36Z</time>
      </trkpt>
      <trkpt lat="48.26969" lon="2.62102">
        <ele>204</ele>
        <time>2017-02-05T15:34:38Z</time>
      </trkpt>
      <trkpt lat="48.2697" lon="2.62091">
        <ele>204</ele>
        <time>2017-02-05T15:34:41Z</time>
      </trkpt>
      <trkpt lat="48.2697" lon="2.62089">
        <ele>204</ele>
        <time>2017-02-05T15:34:42Z</time>
      </trkpt>
      <trkpt lat="48.26969" lon="2.62086">
        <ele>204</ele>
        <time>2017-02-05T15:34:43Z</time>
      </trkpt>
      <trkpt lat="48.26969" lon="2.62069">
        <ele>204</ele>
        <time>2017-02-05T15:34:48Z</time>
      </trkpt>
      <trkpt lat="48.26968" lon="2.62054">
        <ele>204</ele>
        <time>2017-02-05T15:34:54Z</time>
      </trkpt>
      <trkpt lat="48.26966" lon="2.62046">
        <ele>204</ele>
        <time>2017-02-05T15:34:56Z</time>
      </trkpt>
      <trkpt lat="48.26964" lon="2.62036">
        <ele>204</ele>
        <time>2017-02-05T15:34:59Z</time>
      </trkpt>
      <trkpt lat="48.26963" lon="2.62033">
        <ele>205</ele>
        <time>2017-02-05T15:35:00Z</time>
      </trkpt>
      <trkpt lat="48.2696" lon="2.62019">
        <ele>205</ele>
        <time>2017-02-05T15:35:05Z</time>
      </trkpt>
      <trkpt lat="48.26954" lon="2.6201">
        <ele>205</ele>
        <time>2017-02-05T15:35:09Z</time>
      </trkpt>
      <trkpt lat="48.26951" lon="2.62004">
        <ele>205</ele>
        <time>2017-02-05T15:35:11Z</time>
      </trkpt>
      <trkpt lat="48.26946" lon="2.61987">
        <ele>205</ele>
        <time>2017-02-05T15:35:17Z</time>
      </trkpt>
      <trkpt lat="48.26941" lon="2.61974">
        <ele>205</ele>
        <time>2017-02-05T15:35:22Z</time>
      </trkpt>
      <trkpt lat="48.26942" lon="2.61971">
        <ele>205</ele>
        <time>2017-02-05T15:35:25Z</time>
      </trkpt>
      <trkpt lat="48.26942" lon="2.61971">
        <ele>205</ele>
        <time>2017-02-05T15:35:26Z</time>
      </trkpt>
      <trkpt lat="48.26949" lon="2.61966">
        <ele>204</ele>
        <time>2017-02-05T15:35:32Z</time>
      </trkpt>
      <trkpt lat="48.26949" lon="2.61966">
        <ele>208</ele>
        <time>2017-02-05T15:36:12Z</time>
      </trkpt>
      <trkpt lat="48.26949" lon="2.61965">
        <ele>207</ele>
        <time>2017-02-05T15:36:59Z</time>
      </trkpt>
      <trkpt lat="48.26949" lon="2.61963">
        <ele>207</ele>
        <time>2017-02-05T15:37:33Z</time>
      </trkpt>
      <trkpt lat="48.26949" lon="2.61961">
        <ele>207</ele>
        <time>2017-02-05T15:38:25Z</time>
      </trkpt>
      <trkpt lat="48.2695" lon="2.6196">
        <ele>207</ele>
        <time>2017-02-05T15:38:54Z</time>
      </trkpt>
      <trkpt lat="48.2695" lon="2.61959">
        <ele>207</ele>
        <time>2017-02-05T15:39:38Z</time>
      </trkpt>
      <trkpt lat="48.26951" lon="2.61954">
        <ele>207</ele>
        <time>2017-02-05T15:39:46Z</time>
      </trkpt>
      <trkpt lat="48.26952" lon="2.6195">
        <ele>207</ele>
        <time>2017-02-05T15:39:47Z</time>
      </trkpt>
      <trkpt lat="48.26961" lon="2.61938">
        <ele>208</ele>
        <time>2017-02-05T15:39:52Z</time>
      </trkpt>
      <trkpt lat="48.2697" lon="2.61938">
        <ele>207</ele>
        <time>2017-02-05T15:39:56Z</time>
      </trkpt>
      <trkpt lat="48.26985" lon="2.61944">
        <ele>206</ele>
        <time>2017-02-05T15:40:03Z</time>
      </trkpt>
      <trkpt lat="48.2699" lon="2.61948">
        <ele>204</ele>
        <time>2017-02-05T15:40:06Z</time>
      </trkpt>
      <trkpt lat="48.26994" lon="2.61949">
        <ele>203</ele>
        <time>2017-02-05T15:40:08Z</time>
      </trkpt>
      <trkpt lat="48.26995" lon="2.6195">
        <ele>203</ele>
        <time>2017-02-05T15:40:09Z</time>
      </trkpt>
      <trkpt lat="48.27" lon="2.61956">
        <ele>203</ele>
        <time>2017-02-05T15:40:12Z</time>
      </trkpt>
      <trkpt lat="48.27007" lon="2.61961">
        <ele>203</ele>
        <time>2017-02-05T15:40:16Z</time>
      </trkpt>
      <trkpt lat="48.2701" lon="2.61962">
        <ele>203</ele>
        <time>2017-02-05T15:40:18Z</time>
      </trkpt>
      <trkpt lat="48.27014" lon="2.61966">
        <ele>204</ele>
        <time>2017-02-05T15:40:20Z</time>
      </trkpt>
      <trkpt lat="48.27023" lon="2.61985">
        <ele>204</ele>
        <time>2017-02-05T15:40:26Z</time>
      </trkpt>
      <trkpt lat="48.27031" lon="2.61991">
        <ele>204</ele>
        <time>2017-02-05T15:40:30Z</time>
      </trkpt>
      <trkpt lat="48.27033" lon="2.6199">
        <ele>204</ele>
        <time>2017-02-05T15:40:31Z</time>
      </trkpt>
      <trkpt lat="48.27036" lon="2.61984">
        <ele>203</ele>
        <time>2017-02-05T15:40:34Z</time>
      </trkpt>
      <trkpt lat="48.27037" lon="2.61982">
        <ele>203</ele>
        <time>2017-02-05T15:40:35Z</time>
      </trkpt>
      <trkpt lat="48.27038" lon="2.6198">
        <ele>203</ele>
        <time>2017-02-05T15:40:36Z</time>
      </trkpt>
      <trkpt lat="48.27042" lon="2.61973">
        <ele>203</ele>
        <time>2017-02-05T15:40:39Z</time>
      </trkpt>
      <trkpt lat="48.27043" lon="2.61971">
        <ele>203</ele>
        <time>2017-02-05T15:40:40Z</time>
      </trkpt>
      <trkpt lat="48.27041" lon="2.61963">
        <ele>203</ele>
        <time>2017-02-05T15:40:44Z</time>
      </trkpt>
      <trkpt lat="48.27039" lon="2.61962">
        <ele>203</ele>
        <time>2017-02-05T15:40:45Z</time>
      </trkpt>
      <trkpt lat="48.27034" lon="2.61954">
        <ele>203</ele>
        <time>2017-02-05T15:40:49Z</time>
      </trkpt>
      <trkpt lat="48.27031" lon="2.6195">
        <ele>204</ele>
        <time>2017-02-05T15:40:55Z</time>
      </trkpt>
      <trkpt lat="48.2703" lon="2.61947">
        <ele>205</ele>
        <time>2017-02-05T15:41:04Z</time>
      </trkpt>
      <trkpt lat="48.2703" lon="2.61945">
        <ele>205</ele>
        <time>2017-02-05T15:41:05Z</time>
      </trkpt>
      <trkpt lat="48.27031" lon="2.61943">
        <ele>206</ele>
        <time>2017-02-05T15:41:08Z</time>
      </trkpt>
      <trkpt lat="48.27031" lon="2.61942">
        <ele>207</ele>
        <time>2017-02-05T15:41:12Z</time>
      </trkpt>
      <trkpt lat="48.27031" lon="2.61934">
        <ele>207</ele>
        <time>2017-02-05T15:41:19Z</time>
      </trkpt>
      <trkpt lat="48.27033" lon="2.61924">
        <ele>207</ele>
        <time>2017-02-05T15:41:22Z</time>
      </trkpt>
      <trkpt lat="48.27033" lon="2.61917">
        <ele>207</ele>
        <time>2017-02-05T15:41:24Z</time>
      </trkpt>
      <trkpt lat="48.27033" lon="2.61912">
        <ele>207</ele>
        <time>2017-02-05T15:41:26Z</time>
      </trkpt>
      <trkpt lat="48.27033" lon="2.61906">
        <ele>207</ele>
        <time>2017-02-05T15:41:28Z</time>
      </trkpt>
      <trkpt lat="48.27032" lon="2.61902">
        <ele>207</ele>
        <time>2017-02-05T15:41:30Z</time>
      </trkpt>
      <trkpt lat="48.27025" lon="2.61891">
        <ele>207</ele>
        <time>2017-02-05T15:41:35Z</time>
      </trkpt>
      <trkpt lat="48.27022" lon="2.61886">
        <ele>207</ele>
        <time>2017-02-05T15:41:37Z</time>
      </trkpt>
      <trkpt lat="48.27021" lon="2.6188">
        <ele>207</ele>
        <time>2017-02-05T15:41:39Z</time>
      </trkpt>
      <trkpt lat="48.27019" lon="2.61874">
        <ele>207</ele>
        <time>2017-02-05T15:41:41Z</time>
      </trkpt>
      <trkpt lat="48.27016" lon="2.61867">
        <ele>207</ele>
        <time>2017-02-05T15:41:44Z</time>
      </trkpt>
      <trkpt lat="48.27014" lon="2.61867">
        <ele>207</ele>
        <time>2017-02-05T15:41:45Z</time>
      </trkpt>
      <trkpt lat="48.27007" lon="2.61866">
        <ele>207</ele>
        <time>2017-02-05T15:41:50Z</time>
      </trkpt>
      <trkpt lat="48.27001" lon="2.61867">
        <ele>207</ele>
        <time>2017-02-05T15:41:53Z</time>
      </trkpt>
      <trkpt lat="48.26997" lon="2.61865">
        <ele>207</ele>
        <time>2017-02-05T15:41:55Z</time>
      </trkpt>
      <trkpt lat="48.26988" lon="2.61864">
        <ele>208</ele>
        <time>2017-02-05T15:41:59Z</time>
      </trkpt>
      <trkpt lat="48.26976" lon="2.61867">
        <ele>207</ele>
        <time>2017-02-05T15:42:06Z</time>
      </trkpt>
      <trkpt lat="48.26968" lon="2.61871">
        <ele>207</ele>
        <time>2017-02-05T15:42:12Z</time>
      </trkpt>
      <trkpt lat="48.26962" lon="2.61873">
        <ele>207</ele>
        <time>2017-02-05T15:42:19Z</time>
      </trkpt>
      <trkpt lat="48.26954" lon="2.61879">
        <ele>207</ele>
        <time>2017-02-05T15:42:24Z</time>
      </trkpt>
      <trkpt lat="48.26944" lon="2.61882">
        <ele>207</ele>
        <time>2017-02-05T15:42:28Z</time>
      </trkpt>
      <trkpt lat="48.26938" lon="2.61883">
        <ele>207</ele>
        <time>2017-02-05T15:42:30Z</time>
      </trkpt>
      <trkpt lat="48.26928" lon="2.61884">
        <ele>207</ele>
        <time>2017-02-05T15:42:33Z</time>
      </trkpt>
      <trkpt lat="48.26915" lon="2.61883">
        <ele>206</ele>
        <time>2017-02-05T15:42:38Z</time>
      </trkpt>
      <trkpt lat="48.26915" lon="2.61885">
        <ele>205</ele>
        <time>2017-02-05T15:42:41Z</time>
      </trkpt>
      <trkpt lat="48.26915" lon="2.61882">
        <ele>204</ele>
        <time>2017-02-05T15:42:43Z</time>
      </trkpt>
      <trkpt lat="48.26915" lon="2.61879">
        <ele>204</ele>
        <time>2017-02-05T15:42:44Z</time>
      </trkpt>
      <trkpt lat="48.26917" lon="2.61868">
        <ele>204</ele>
        <time>2017-02-05T15:42:48Z</time>
      </trkpt>
      <trkpt lat="48.26917" lon="2.61864">
        <ele>204</ele>
        <time>2017-02-05T15:42:49Z</time>
      </trkpt>
      <trkpt lat="48.26917" lon="2.61852">
        <ele>204</ele>
        <time>2017-02-05T15:42:52Z</time>
      </trkpt>
      <trkpt lat="48.26918" lon="2.61835">
        <ele>205</ele>
        <time>2017-02-05T15:42:56Z</time>
      </trkpt>
      <trkpt lat="48.26919" lon="2.61833">
        <ele>204</ele>
        <time>2017-02-05T15:42:57Z</time>
      </trkpt>
      <trkpt lat="48.26923" lon="2.61819">
        <ele>203</ele>
        <time>2017-02-05T15:43:01Z</time>
      </trkpt>
      <trkpt lat="48.26922" lon="2.61819">
        <ele>202</ele>
        <time>2017-02-05T15:43:02Z</time>
      </trkpt>
      <trkpt lat="48.26918" lon="2.61815">
        <ele>202</ele>
        <time>2017-02-05T15:43:05Z</time>
      </trkpt>
      <trkpt lat="48.26915" lon="2.61816">
        <ele>202</ele>
        <time>2017-02-05T15:43:07Z</time>
      </trkpt>
      <trkpt lat="48.26913" lon="2.61813">
        <ele>202</ele>
        <time>2017-02-05T15:43:10Z</time>
      </trkpt>
      <trkpt lat="48.26914" lon="2.6181">
        <ele>201</ele>
        <time>2017-02-05T15:43:12Z</time>
      </trkpt>
      <trkpt lat="48.26915" lon="2.61808">
        <ele>201</ele>
        <time>2017-02-05T15:43:13Z</time>
      </trkpt>
      <trkpt lat="48.26917" lon="2.61802">
        <ele>201</ele>
        <time>2017-02-05T15:43:15Z</time>
      </trkpt>
      <trkpt lat="48.26921" lon="2.61793">
        <ele>200</ele>
        <time>2017-02-05T15:43:17Z</time>
      </trkpt>
      <trkpt lat="48.26925" lon="2.61785">
        <ele>198</ele>
        <time>2017-02-05T15:43:19Z</time>
      </trkpt>
      <trkpt lat="48.26927" lon="2.61781">
        <ele>198</ele>
        <time>2017-02-05T15:43:20Z</time>
      </trkpt>
      <trkpt lat="48.26929" lon="2.61768">
        <ele>197</ele>
        <time>2017-02-05T15:43:23Z</time>
      </trkpt>
      <trkpt lat="48.26928" lon="2.61762">
        <ele>197</ele>
        <time>2017-02-05T15:43:24Z</time>
      </trkpt>
      <trkpt lat="48.26915" lon="2.61737">
        <ele>196</ele>
        <time>2017-02-05T15:43:28Z</time>
      </trkpt>
      <trkpt lat="48.26903" lon="2.61718">
        <ele>197</ele>
        <time>2017-02-05T15:43:32Z</time>
      </trkpt>
      <trkpt lat="48.26896" lon="2.61706">
        <ele>197</ele>
        <time>2017-02-05T15:43:36Z</time>
      </trkpt>
      <trkpt lat="48.26895" lon="2.61702">
        <ele>198</ele>
        <time>2017-02-05T15:43:37Z</time>
      </trkpt>
      <trkpt lat="48.26895" lon="2.61688">
        <ele>197</ele>
        <time>2017-02-05T15:43:41Z</time>
      </trkpt>
      <trkpt lat="48.26892" lon="2.61679">
        <ele>196</ele>
        <time>2017-02-05T15:43:44Z</time>
      </trkpt>
      <trkpt lat="48.2689" lon="2.61676">
        <ele>196</ele>
        <time>2017-02-05T15:43:45Z</time>
      </trkpt>
      <trkpt lat="48.26888" lon="2.61674">
        <ele>196</ele>
        <time>2017-02-05T15:43:46Z</time>
      </trkpt>
      <trkpt lat="48.26886" lon="2.61667">
        <ele>196</ele>
        <time>2017-02-05T15:43:48Z</time>
      </trkpt>
      <trkpt lat="48.26885" lon="2.61657">
        <ele>196</ele>
        <time>2017-02-05T15:43:51Z</time>
      </trkpt>
      <trkpt lat="48.26885" lon="2.61654">
        <ele>196</ele>
        <time>2017-02-05T15:43:52Z</time>
      </trkpt>
      <trkpt lat="48.26882" lon="2.61632">
        <ele>195</ele>
        <time>2017-02-05T15:43:57Z</time>
      </trkpt>
      <trkpt lat="48.26881" lon="2.61629">
        <ele>195</ele>
        <time>2017-02-05T15:43:58Z</time>
      </trkpt>
      <trkpt lat="48.2688" lon="2.6161">
        <ele>194</ele>
        <time>2017-02-05T15:44:01Z</time>
      </trkpt>
      <trkpt lat="48.2688" lon="2.61603">
        <ele>193</ele>
        <time>2017-02-05T15:44:02Z</time>
      </trkpt>
      <trkpt lat="48.26882" lon="2.61593">
        <ele>193</ele>
        <time>2017-02-05T15:44:04Z</time>
      </trkpt>
      <trkpt lat="48.26885" lon="2.61588">
        <ele>192</ele>
        <time>2017-02-05T15:44:05Z</time>
      </trkpt>
      <trkpt lat="48.26889" lon="2.61584">
        <ele>192</ele>
        <time>2017-02-05T15:44:06Z</time>
      </trkpt>
      <trkpt lat="48.26894" lon="2.61581">
        <ele>191</ele>
        <time>2017-02-05T15:44:07Z</time>
      </trkpt>
      <trkpt lat="48.26899" lon="2.61577">
        <ele>191</ele>
        <time>2017-02-05T15:44:08Z</time>
      </trkpt>
      <trkpt lat="48.26904" lon="2.61574">
        <ele>190</ele>
        <time>2017-02-05T15:44:09Z</time>
      </trkpt>
      <trkpt lat="48.2691" lon="2.61571">
        <ele>189</ele>
        <time>2017-02-05T15:44:10Z</time>
      </trkpt>
      <trkpt lat="48.26915" lon="2.61568">
        <ele>188</ele>
        <time>2017-02-05T15:44:11Z</time>
      </trkpt>
      <trkpt lat="48.26924" lon="2.6156">
        <ele>187</ele>
        <time>2017-02-05T15:44:13Z</time>
      </trkpt>
      <trkpt lat="48.26925" lon="2.61555">
        <ele>187</ele>
        <time>2017-02-05T15:44:14Z</time>
      </trkpt>
      <trkpt lat="48.26926" lon="2.61551">
        <ele>186</ele>
        <time>2017-02-05T15:44:15Z</time>
      </trkpt>
      <trkpt lat="48.26925" lon="2.61544">
        <ele>186</ele>
        <time>2017-02-05T15:44:17Z</time>
      </trkpt>
      <trkpt lat="48.26923" lon="2.61542">
        <ele>186</ele>
        <time>2017-02-05T15:44:18Z</time>
      </trkpt>
      <trkpt lat="48.2692" lon="2.61535">
        <ele>185</ele>
        <time>2017-02-05T15:44:22Z</time>
      </trkpt>
      <trkpt lat="48.26915" lon="2.61522">
        <ele>185</ele>
        <time>2017-02-05T15:44:27Z</time>
      </trkpt>
      <trkpt lat="48.26908" lon="2.61509">
        <ele>186</ele>
        <time>2017-02-05T15:44:32Z</time>
      </trkpt>
      <trkpt lat="48.26902" lon="2.6149">
        <ele>186</ele>
        <time>2017-02-05T15:44:37Z</time>
      </trkpt>
      <trkpt lat="48.26897" lon="2.61477">
        <ele>186</ele>
        <time>2017-02-05T15:44:42Z</time>
      </trkpt>
      <trkpt lat="48.26888" lon="2.61467">
        <ele>186</ele>
        <time>2017-02-05T15:44:48Z</time>
      </trkpt>
      <trkpt lat="48.26881" lon="2.61463">
        <ele>187</ele>
        <time>2017-02-05T15:44:55Z</time>
      </trkpt>
      <trkpt lat="48.26879" lon="2.6146">
        <ele>187</ele>
        <time>2017-02-05T15:44:59Z</time>
      </trkpt>
      <trkpt lat="48.26877" lon="2.61455">
        <ele>188</ele>
        <time>2017-02-05T15:45:04Z</time>
      </trkpt>
      <trkpt lat="48.26875" lon="2.61453">
        <ele>190</ele>
        <time>2017-02-05T15:45:26Z</time>
      </trkpt>
      <trkpt lat="48.26867" lon="2.61442">
        <ele>190</ele>
        <time>2017-02-05T15:45:31Z</time>
      </trkpt>
      <trkpt lat="48.26865" lon="2.61438">
        <ele>190</ele>
        <time>2017-02-05T15:45:32Z</time>
      </trkpt>
      <trkpt lat="48.26861" lon="2.61428">
        <ele>190</ele>
        <time>2017-02-05T15:45:35Z</time>
      </trkpt>
      <trkpt lat="48.2686" lon="2.61422">
        <ele>190</ele>
        <time>2017-02-05T15:45:37Z</time>
      </trkpt>
      <trkpt lat="48.26855" lon="2.61405">
        <ele>188</ele>
        <time>2017-02-05T15:45:42Z</time>
      </trkpt>
      <trkpt lat="48.26853" lon="2.61401">
        <ele>188</ele>
        <time>2017-02-05T15:45:43Z</time>
      </trkpt>
      <trkpt lat="48.26847" lon="2.61385">
        <ele>187</ele>
        <time>2017-02-05T15:45:46Z</time>
      </trkpt>
      <trkpt lat="48.26846" lon="2.6138">
        <ele>187</ele>
        <time>2017-02-05T15:45:47Z</time>
      </trkpt>
      <trkpt lat="48.26843" lon="2.61368">
        <ele>186</ele>
        <time>2017-02-05T15:45:50Z</time>
      </trkpt>
      <trkpt lat="48.26843" lon="2.61365">
        <ele>185</ele>
        <time>2017-02-05T15:45:51Z</time>
      </trkpt>
      <trkpt lat="48.26842" lon="2.61353">
        <ele>184</ele>
        <time>2017-02-05T15:45:54Z</time>
      </trkpt>
      <trkpt lat="48.26841" lon="2.6135">
        <ele>184</ele>
        <time>2017-02-05T15:45:55Z</time>
      </trkpt>
      <trkpt lat="48.26839" lon="2.61342">
        <ele>183</ele>
        <time>2017-02-05T15:45:58Z</time>
      </trkpt>
      <trkpt lat="48.26838" lon="2.61335">
        <ele>184</ele>
        <time>2017-02-05T15:46:00Z</time>
      </trkpt>
      <trkpt lat="48.26836" lon="2.61324">
        <ele>184</ele>
        <time>2017-02-05T15:46:05Z</time>
      </trkpt>
      <trkpt lat="48.26835" lon="2.61321">
        <ele>184</ele>
        <time>2017-02-05T15:46:17Z</time>
      </trkpt>
      <trkpt lat="48.26834" lon="2.61312">
        <ele>184</ele>
        <time>2017-02-05T15:46:24Z</time>
      </trkpt>
      <trkpt lat="48.26833" lon="2.61311">
        <ele>186</ele>
        <time>2017-02-05T15:46:39Z</time>
      </trkpt>
      <trkpt lat="48.26833" lon="2.61307">
        <ele>187</ele>
        <time>2017-02-05T15:46:44Z</time>
      </trkpt>
      <trkpt lat="48.26833" lon="2.61304">
        <ele>187</ele>
        <time>2017-02-05T15:46:46Z</time>
      </trkpt>
      <trkpt lat="48.26832" lon="2.613">
        <ele>188</ele>
        <time>2017-02-05T15:46:50Z</time>
      </trkpt>
      <trkpt lat="48.26831" lon="2.613">
        <ele>188</ele>
        <time>2017-02-05T15:46:52Z</time>
      </trkpt>
      <trkpt lat="48.26828" lon="2.61305">
        <ele>188</ele>
        <time>2017-02-05T15:46:58Z</time>
      </trkpt>
      <trkpt lat="48.26828" lon="2.6131">
        <ele>189</ele>
        <time>2017-02-05T15:47:04Z</time>
      </trkpt>
      <trkpt lat="48.26827" lon="2.6131">
        <ele>189</ele>
        <time>2017-02-05T15:47:47Z</time>
      </trkpt>
      <trkpt lat="48.26827" lon="2.61313">
        <ele>188</ele>
        <time>2017-02-05T15:47:56Z</time>
      </trkpt>
      <trkpt lat="48.26823" lon="2.61322">
        <ele>189</ele>
        <time>2017-02-05T15:48:02Z</time>
      </trkpt>
      <trkpt lat="48.26823" lon="2.61332">
        <ele>190</ele>
        <time>2017-02-05T15:48:08Z</time>
      </trkpt>
      <trkpt lat="48.26823" lon="2.61333">
        <ele>190</ele>
        <time>2017-02-05T15:48:09Z</time>
      </trkpt>
      <trkpt lat="48.26821" lon="2.61341">
        <ele>191</ele>
        <time>2017-02-05T15:48:15Z</time>
      </trkpt>
      <trkpt lat="48.26821" lon="2.61356">
        <ele>192</ele>
        <time>2017-02-05T15:48:22Z</time>
      </trkpt>
      <trkpt lat="48.2682" lon="2.61358">
        <ele>192</ele>
        <time>2017-02-05T15:48:23Z</time>
      </trkpt>
      <trkpt lat="48.26818" lon="2.61368">
        <ele>193</ele>
        <time>2017-02-05T15:48:28Z</time>
      </trkpt>
      <trkpt lat="48.26818" lon="2.61379">
        <ele>193</ele>
        <time>2017-02-05T15:48:33Z</time>
      </trkpt>
      <trkpt lat="48.26818" lon="2.6138">
        <ele>194</ele>
        <time>2017-02-05T15:48:35Z</time>
      </trkpt>
      <trkpt lat="48.26818" lon="2.61392">
        <ele>194</ele>
        <time>2017-02-05T15:48:41Z</time>
      </trkpt>
      <trkpt lat="48.26818" lon="2.61394">
        <ele>194</ele>
        <time>2017-02-05T15:48:43Z</time>
      </trkpt>
      <trkpt lat="48.26818" lon="2.61401">
        <ele>195</ele>
        <time>2017-02-05T15:48:48Z</time>
      </trkpt>
      <trkpt lat="48.26819" lon="2.61408">
        <ele>196</ele>
        <time>2017-02-05T15:48:52Z</time>
      </trkpt>
      <trkpt lat="48.26819" lon="2.61415">
        <ele>197</ele>
        <time>2017-02-05T15:48:56Z</time>
      </trkpt>
      <trkpt lat="48.26819" lon="2.61418">
        <ele>197</ele>
        <time>2017-02-05T15:48:58Z</time>
      </trkpt>
      <trkpt lat="48.26819" lon="2.6142">
        <ele>197</ele>
        <time>2017-02-05T15:48:59Z</time>
      </trkpt>
      <trkpt lat="48.26818" lon="2.61424">
        <ele>197</ele>
        <time>2017-02-05T15:49:02Z</time>
      </trkpt>
      <trkpt lat="48.26818" lon="2.61426">
        <ele>198</ele>
        <time>2017-02-05T15:49:03Z</time>
      </trkpt>
      <trkpt lat="48.26817" lon="2.61429">
        <ele>198</ele>
        <time>2017-02-05T15:49:06Z</time>
      </trkpt>
      <trkpt lat="48.26817" lon="2.61435">
        <ele>199</ele>
        <time>2017-02-05T15:49:10Z</time>
      </trkpt>
      <trkpt lat="48.26816" lon="2.61439">
        <ele>199</ele>
        <time>2017-02-05T15:49:13Z</time>
      </trkpt>
      <trkpt lat="48.26816" lon="2.61444">
        <ele>200</ele>
        <time>2017-02-05T15:49:16Z</time>
      </trkpt>
      <trkpt lat="48.26817" lon="2.61446">
        <ele>200</ele>
        <time>2017-02-05T15:49:17Z</time>
      </trkpt>
      <trkpt lat="48.26817" lon="2.61449">
        <ele>200</ele>
        <time>2017-02-05T15:49:19Z</time>
      </trkpt>
      <trkpt lat="48.26818" lon="2.61456">
        <ele>201</ele>
        <time>2017-02-05T15:49:25Z</time>
      </trkpt>
      <trkpt lat="48.26819" lon="2.61461">
        <ele>201</ele>
        <time>2017-02-05T15:49:28Z</time>
      </trkpt>
      <trkpt lat="48.26819" lon="2.61475">
        <ele>202</ele>
        <time>2017-02-05T15:49:35Z</time>
      </trkpt>
      <trkpt lat="48.26819" lon="2.61477">
        <ele>202</ele>
        <time>2017-02-05T15:49:36Z</time>
      </trkpt>
      <trkpt lat="48.2682" lon="2.61487">
        <ele>202</ele>
        <time>2017-02-05T15:49:43Z</time>
      </trkpt>
      <trkpt lat="48.26824" lon="2.61503">
        <ele>203</ele>
        <time>2017-02-05T15:49:51Z</time>
      </trkpt>
      <trkpt lat="48.26824" lon="2.61515">
        <ele>203</ele>
        <time>2017-02-05T15:49:58Z</time>
      </trkpt>
      <trkpt lat="48.26821" lon="2.61515">
        <ele>203</ele>
        <time>2017-02-05T15:50:03Z</time>
      </trkpt>
      <trkpt lat="48.2682" lon="2.61515">
        <ele>203</ele>
        <time>2017-02-05T15:50:04Z</time>
      </trkpt>
      <trkpt lat="48.26818" lon="2.61512">
        <ele>203</ele>
        <time>2017-02-05T15:50:07Z</time>
      </trkpt>
      <trkpt lat="48.26817" lon="2.61507">
        <ele>204</ele>
        <time>2017-02-05T15:50:10Z</time>
      </trkpt>
      <trkpt lat="48.26817" lon="2.61505">
        <ele>204</ele>
        <time>2017-02-05T15:50:11Z</time>
      </trkpt>
      <trkpt lat="48.26817" lon="2.615">
        <ele>204</ele>
        <time>2017-02-05T15:50:16Z</time>
      </trkpt>
      <trkpt lat="48.26814" lon="2.61483">
        <ele>205</ele>
        <time>2017-02-05T15:50:22Z</time>
      </trkpt>
      <trkpt lat="48.26814" lon="2.6148">
        <ele>205</ele>
        <time>2017-02-05T15:50:23Z</time>
      </trkpt>
      <trkpt lat="48.26811" lon="2.61455">
        <ele>206</ele>
        <time>2017-02-05T15:50:30Z</time>
      </trkpt>
      <trkpt lat="48.26807" lon="2.61423">
        <ele>206</ele>
        <time>2017-02-05T15:50:37Z</time>
      </trkpt>
      <trkpt lat="48.26804" lon="2.61398">
        <ele>206</ele>
        <time>2017-02-05T15:50:42Z</time>
      </trkpt>
      <trkpt lat="48.26801" lon="2.61384">
        <ele>206</ele>
        <time>2017-02-05T15:50:46Z</time>
      </trkpt>
      <trkpt lat="48.26801" lon="2.61364">
        <ele>207</ele>
        <time>2017-02-05T15:50:51Z</time>
      </trkpt>
      <trkpt lat="48.26801" lon="2.61359">
        <ele>207</ele>
        <time>2017-02-05T15:50:53Z</time>
      </trkpt>
      <trkpt lat="48.268" lon="2.61358">
        <ele>207</ele>
        <time>2017-02-05T15:50:54Z</time>
      </trkpt>
      <trkpt lat="48.26799" lon="2.61354">
        <ele>208</ele>
        <time>2017-02-05T15:50:56Z</time>
      </trkpt>
      <trkpt lat="48.26798" lon="2.61347">
        <ele>208</ele>
        <time>2017-02-05T15:51:01Z</time>
      </trkpt>
      <trkpt lat="48.26797" lon="2.61335">
        <ele>209</ele>
        <time>2017-02-05T15:51:06Z</time>
      </trkpt>
      <trkpt lat="48.26797" lon="2.61332">
        <ele>208</ele>
        <time>2017-02-05T15:51:07Z</time>
      </trkpt>
      <trkpt lat="48.26795" lon="2.61321">
        <ele>209</ele>
        <time>2017-02-05T15:51:11Z</time>
      </trkpt>
      <trkpt lat="48.26796" lon="2.6132">
        <ele>208</ele>
        <time>2017-02-05T15:51:13Z</time>
      </trkpt>
      <trkpt lat="48.26796" lon="2.61313">
        <ele>208</ele>
        <time>2017-02-05T15:51:23Z</time>
      </trkpt>
      <trkpt lat="48.26798" lon="2.61309">
        <ele>208</ele>
        <time>2017-02-05T15:51:25Z</time>
      </trkpt>
      <trkpt lat="48.26798" lon="2.61307">
        <ele>207</ele>
        <time>2017-02-05T15:51:27Z</time>
      </trkpt>
      <trkpt lat="48.26797" lon="2.61303">
        <ele>207</ele>
        <time>2017-02-05T15:51:28Z</time>
      </trkpt>
      <trkpt lat="48.26796" lon="2.61298">
        <ele>208</ele>
        <time>2017-02-05T15:51:35Z</time>
      </trkpt>
      <trkpt lat="48.26795" lon="2.61295">
        <ele>208</ele>
        <time>2017-02-05T15:51:38Z</time>
      </trkpt>
      <trkpt lat="48.26794" lon="2.61293">
        <ele>209</ele>
        <time>2017-02-05T15:51:42Z</time>
      </trkpt>
      <trkpt lat="48.26796" lon="2.61284">
        <ele>209</ele>
        <time>2017-02-05T15:51:49Z</time>
      </trkpt>
      <trkpt lat="48.26798" lon="2.61273">
        <ele>210</ele>
        <time>2017-02-05T15:51:57Z</time>
      </trkpt>
      <trkpt lat="48.26798" lon="2.61272">
        <ele>211</ele>
        <time>2017-02-05T15:51:58Z</time>
      </trkpt>
      <trkpt lat="48.26799" lon="2.61267">
        <ele>212</ele>
        <time>2017-02-05T15:52:04Z</time>
      </trkpt>
      <trkpt lat="48.268" lon="2.61265">
        <ele>212</ele>
        <time>2017-02-05T15:52:05Z</time>
      </trkpt>
      <trkpt lat="48.26801" lon="2.61258">
        <ele>213</ele>
        <time>2017-02-05T15:52:11Z</time>
      </trkpt>
      <trkpt lat="48.26801" lon="2.61255">
        <ele>213</ele>
        <time>2017-02-05T15:52:12Z</time>
      </trkpt>
      <trkpt lat="48.26804" lon="2.61247">
        <ele>214</ele>
        <time>2017-02-05T15:52:18Z</time>
      </trkpt>
      <trkpt lat="48.26805" lon="2.61243">
        <ele>214</ele>
        <time>2017-02-05T15:52:21Z</time>
      </trkpt>
      <trkpt lat="48.26811" lon="2.61236">
        <ele>215</ele>
        <time>2017-02-05T15:52:29Z</time>
      </trkpt>
      <trkpt lat="48.26811" lon="2.61235">
        <ele>215</ele>
        <time>2017-02-05T15:52:31Z</time>
      </trkpt>
      <trkpt lat="48.26816" lon="2.61226">
        <ele>216</ele>
        <time>2017-02-05T15:52:37Z</time>
      </trkpt>
      <trkpt lat="48.26816" lon="2.61223">
        <ele>216</ele>
        <time>2017-02-05T15:52:39Z</time>
      </trkpt>
      <trkpt lat="48.26819" lon="2.61214">
        <ele>216</ele>
        <time>2017-02-05T15:52:45Z</time>
      </trkpt>
      <trkpt lat="48.26819" lon="2.61213">
        <ele>216</ele>
        <time>2017-02-05T15:52:53Z</time>
      </trkpt>
      <trkpt lat="48.26821" lon="2.61209">
        <ele>216</ele>
        <time>2017-02-05T15:53:14Z</time>
      </trkpt>
      <trkpt lat="48.26829" lon="2.61198">
        <ele>216</ele>
        <time>2017-02-05T15:53:19Z</time>
      </trkpt>
      <trkpt lat="48.26838" lon="2.61179">
        <ele>216</ele>
        <time>2017-02-05T15:53:25Z</time>
      </trkpt>
      <trkpt lat="48.26838" lon="2.61178">
        <ele>216</ele>
        <time>2017-02-05T15:53:29Z</time>
      </trkpt>
      <trkpt lat="48.26838" lon="2.61177">
        <ele>216</ele>
        <time>2017-02-05T15:53:37Z</time>
      </trkpt>
      <trkpt lat="48.26839" lon="2.61177">
        <ele>216</ele>
        <time>2017-02-05T15:54:02Z</time>
      </trkpt>
      <trkpt lat="48.26841" lon="2.61176">
        <ele>216</ele>
        <time>2017-02-05T15:54:05Z</time>
      </trkpt>
      <trkpt lat="48.26842" lon="2.61177">
        <ele>215</ele>
        <time>2017-02-05T15:54:10Z</time>
      </trkpt>
      <trkpt lat="48.26843" lon="2.61178">
        <ele>215</ele>
        <time>2017-02-05T15:54:18Z</time>
      </trkpt>
      <trkpt lat="48.26843" lon="2.61178">
        <ele>214</ele>
        <time>2017-02-05T15:54:24Z</time>
      </trkpt>
      <trkpt lat="48.26843" lon="2.61179">
        <ele>214</ele>
        <time>2017-02-05T15:54:26Z</time>
      </trkpt>
      <trkpt lat="48.26844" lon="2.6118">
        <ele>213</ele>
        <time>2017-02-05T15:54:29Z</time>
      </trkpt>
      <trkpt lat="48.26846" lon="2.61182">
        <ele>211</ele>
        <time>2017-02-05T15:54:35Z</time>
      </trkpt>
      <trkpt lat="48.26846" lon="2.61183">
        <ele>211</ele>
        <time>2017-02-05T15:54:36Z</time>
      </trkpt>
      <trkpt lat="48.26846" lon="2.6118">
        <ele>209</ele>
        <time>2017-02-05T15:54:48Z</time>
      </trkpt>
      <trkpt lat="48.26847" lon="2.61176">
        <ele>209</ele>
        <time>2017-02-05T15:54:51Z</time>
      </trkpt>
      <trkpt lat="48.26847" lon="2.61175">
        <ele>208</ele>
        <time>2017-02-05T15:54:54Z</time>
      </trkpt>
      <trkpt lat="48.26847" lon="2.61175">
        <ele>207</ele>
        <time>2017-02-05T15:54:59Z</time>
      </trkpt>
      <trkpt lat="48.26848" lon="2.61173">
        <ele>206</ele>
        <time>2017-02-05T15:55:02Z</time>
      </trkpt>
      <trkpt lat="48.26851" lon="2.61169">
        <ele>205</ele>
        <time>2017-02-05T15:55:04Z</time>
      </trkpt>
      <trkpt lat="48.26853" lon="2.61166">
        <ele>204</ele>
        <time>2017-02-05T15:55:10Z</time>
      </trkpt>
      <trkpt lat="48.26854" lon="2.61165">
        <ele>203</ele>
        <time>2017-02-05T15:55:11Z</time>
      </trkpt>
      <trkpt lat="48.26855" lon="2.61162">
        <ele>202</ele>
        <time>2017-02-05T15:55:14Z</time>
      </trkpt>
      <trkpt lat="48.26856" lon="2.61157">
        <ele>202</ele>
        <time>2017-02-05T15:55:17Z</time>
      </trkpt>
      <trkpt lat="48.26857" lon="2.61154">
        <ele>201</ele>
        <time>2017-02-05T15:55:18Z</time>
      </trkpt>
      <trkpt lat="48.26858" lon="2.6115">
        <ele>200</ele>
        <time>2017-02-05T15:55:20Z</time>
      </trkpt>
      <trkpt lat="48.26857" lon="2.61147">
        <ele>200</ele>
        <time>2017-02-05T15:55:21Z</time>
      </trkpt>
      <trkpt lat="48.26856" lon="2.61144">
        <ele>200</ele>
        <time>2017-02-05T15:55:23Z</time>
      </trkpt>
      <trkpt lat="48.26856" lon="2.61141">
        <ele>200</ele>
        <time>2017-02-05T15:55:28Z</time>
      </trkpt>
      <trkpt lat="48.26855" lon="2.6114">
        <ele>200</ele>
        <time>2017-02-05T15:55:38Z</time>
      </trkpt>
      <trkpt lat="48.26855" lon="2.61138">
        <ele>199</ele>
        <time>2017-02-05T15:55:44Z</time>
      </trkpt>
      <trkpt lat="48.26857" lon="2.61136">
        <ele>198</ele>
        <time>2017-02-05T15:55:48Z</time>
      </trkpt>
      <trkpt lat="48.26858" lon="2.61136">
        <ele>197</ele>
        <time>2017-02-05T15:55:57Z</time>
      </trkpt>
      <trkpt lat="48.2686" lon="2.61136">
        <ele>196</ele>
        <time>2017-02-05T15:55:59Z</time>
      </trkpt>
      <trkpt lat="48.26862" lon="2.61137">
        <ele>194</ele>
        <time>2017-02-05T15:56:02Z</time>
      </trkpt>
      <trkpt lat="48.26864" lon="2.61137">
        <ele>192</ele>
        <time>2017-02-05T15:56:23Z</time>
      </trkpt>
      <trkpt lat="48.26865" lon="2.61139">
        <ele>192</ele>
        <time>2017-02-05T15:56:31Z</time>
      </trkpt>
      <trkpt lat="48.26868" lon="2.61142">
        <ele>192</ele>
        <time>2017-02-05T15:56:32Z</time>
      </trkpt>
      <trkpt lat="48.26869" lon="2.61145">
        <ele>191</ele>
        <time>2017-02-05T15:56:34Z</time>
      </trkpt>
      <trkpt lat="48.26869" lon="2.61147">
        <ele>190</ele>
        <time>2017-02-05T15:56:35Z</time>
      </trkpt>
      <trkpt lat="48.2687" lon="2.61149">
        <ele>190</ele>
        <time>2017-02-05T15:56:37Z</time>
      </trkpt>
      <trkpt lat="48.2687" lon="2.61151">
        <ele>189</ele>
        <time>2017-02-05T15:56:44Z</time>
      </trkpt>
      <trkpt lat="48.2687" lon="2.61151">
        <ele>189</ele>
        <time>2017-02-05T15:56:51Z</time>
      </trkpt>
      <trkpt lat="48.26871" lon="2.61152">
        <ele>188</ele>
        <time>2017-02-05T15:56:56Z</time>
      </trkpt>
      <trkpt lat="48.26873" lon="2.61154">
        <ele>187</ele>
        <time>2017-02-05T15:56:59Z</time>
      </trkpt>
      <trkpt lat="48.26874" lon="2.61156">
        <ele>186</ele>
        <time>2017-02-05T15:57:06Z</time>
      </trkpt>
      <trkpt lat="48.26876" lon="2.61157">
        <ele>186</ele>
        <time>2017-02-05T15:57:15Z</time>
      </trkpt>
      <trkpt lat="48.26876" lon="2.61158">
        <ele>186</ele>
        <time>2017-02-05T15:57:17Z</time>
      </trkpt>
      <trkpt lat="48.26876" lon="2.61158">
        <ele>185</ele>
        <time>2017-02-05T15:58:07Z</time>
      </trkpt>
      <trkpt lat="48.26877" lon="2.61158">
        <ele>183</ele>
        <time>2017-02-05T15:58:09Z</time>
      </trkpt>
      <trkpt lat="48.26879" lon="2.61159">
        <ele>183</ele>
        <time>2017-02-05T15:58:12Z</time>
      </trkpt>
      <trkpt lat="48.26881" lon="2.61159">
        <ele>182</ele>
        <time>2017-02-05T15:58:13Z</time>
      </trkpt>
      <trkpt lat="48.26884" lon="2.61159">
        <ele>182</ele>
        <time>2017-02-05T15:58:14Z</time>
      </trkpt>
      <trkpt lat="48.26886" lon="2.61159">
        <ele>181</ele>
        <time>2017-02-05T15:58:15Z</time>
      </trkpt>
      <trkpt lat="48.26887" lon="2.6116">
        <ele>180</ele>
        <time>2017-02-05T15:58:16Z</time>
      </trkpt>
      <trkpt lat="48.26889" lon="2.61161">
        <ele>179</ele>
        <time>2017-02-05T15:58:18Z</time>
      </trkpt>
      <trkpt lat="48.2689" lon="2.6116">
        <ele>179</ele>
        <time>2017-02-05T15:58:23Z</time>
      </trkpt>
      <trkpt lat="48.2689" lon="2.61155">
        <ele>179</ele>
        <time>2017-02-05T15:58:30Z</time>
      </trkpt>
      <trkpt lat="48.26889" lon="2.61144">
        <ele>179</ele>
        <time>2017-02-05T15:58:37Z</time>
      </trkpt>
      <trkpt lat="48.26887" lon="2.61138">
        <ele>179</ele>
        <time>2017-02-05T15:58:40Z</time>
      </trkpt>
      <trkpt lat="48.26886" lon="2.61132">
        <ele>179</ele>
        <time>2017-02-05T15:58:42Z</time>
      </trkpt>
      <trkpt lat="48.26878" lon="2.61112">
        <ele>179</ele>
        <time>2017-02-05T15:58:47Z</time>
      </trkpt>
      <trkpt lat="48.26866" lon="2.61088">
        <ele>179</ele>
        <time>2017-02-05T15:58:53Z</time>
      </trkpt>
      <trkpt lat="48.26855" lon="2.61066">
        <ele>179</ele>
        <time>2017-02-05T15:58:59Z</time>
      </trkpt>
      <trkpt lat="48.26846" lon="2.61049">
        <ele>178</ele>
        <time>2017-02-05T15:59:05Z</time>
      </trkpt>
      <trkpt lat="48.26834" lon="2.61039">
        <ele>179</ele>
        <time>2017-02-05T15:59:10Z</time>
      </trkpt>
      <trkpt lat="48.26832" lon="2.6104">
        <ele>179</ele>
        <time>2017-02-05T15:59:11Z</time>
      </trkpt>
      <trkpt lat="48.26828" lon="2.61044">
        <ele>179</ele>
        <time>2017-02-05T15:59:14Z</time>
      </trkpt>
      <trkpt lat="48.26819" lon="2.61052">
        <ele>180</ele>
        <time>2017-02-05T15:59:20Z</time>
      </trkpt>
      <trkpt lat="48.26818" lon="2.61053">
        <ele>180</ele>
        <time>2017-02-05T15:59:21Z</time>
      </trkpt>
      <trkpt lat="48.26812" lon="2.61058">
        <ele>181</ele>
        <time>2017-02-05T15:59:26Z</time>
      </trkpt>
      <trkpt lat="48.26808" lon="2.61064">
        <ele>181</ele>
        <time>2017-02-05T15:59:30Z</time>
      </trkpt>
      <trkpt lat="48.26803" lon="2.61067">
        <ele>181</ele>
        <time>2017-02-05T15:59:33Z</time>
      </trkpt>
      <trkpt lat="48.26799" lon="2.61071">
        <ele>182</ele>
        <time>2017-02-05T15:59:36Z</time>
      </trkpt>
      <trkpt lat="48.26795" lon="2.61078">
        <ele>183</ele>
        <time>2017-02-05T15:59:40Z</time>
      </trkpt>
      <trkpt lat="48.2679" lon="2.61083">
        <ele>183</ele>
        <time>2017-02-05T15:59:43Z</time>
      </trkpt>
      <trkpt lat="48.26784" lon="2.61089">
        <ele>184</ele>
        <time>2017-02-05T15:59:47Z</time>
      </trkpt>
      <trkpt lat="48.2678" lon="2.61093">
        <ele>184</ele>
        <time>2017-02-05T15:59:50Z</time>
      </trkpt>
      <trkpt lat="48.26776" lon="2.61097">
        <ele>184</ele>
        <time>2017-02-05T15:59:53Z</time>
      </trkpt>
      <trkpt lat="48.26772" lon="2.61102">
        <ele>185</ele>
        <time>2017-02-05T15:59:56Z</time>
      </trkpt>
      <trkpt lat="48.26767" lon="2.61105">
        <ele>185</ele>
        <time>2017-02-05T15:59:59Z</time>
      </trkpt>
      <trkpt lat="48.26757" lon="2.6111">
        <ele>186</ele>
        <time>2017-02-05T16:00:05Z</time>
      </trkpt>
      <trkpt lat="48.26746" lon="2.61116">
        <ele>187</ele>
        <time>2017-02-05T16:00:12Z</time>
      </trkpt>
      <trkpt lat="48.26743" lon="2.61119">
        <ele>187</ele>
        <time>2017-02-05T16:00:14Z</time>
      </trkpt>
      <trkpt lat="48.26735" lon="2.61125">
        <ele>188</ele>
        <time>2017-02-05T16:00:20Z</time>
      </trkpt>
      <trkpt lat="48.26728" lon="2.6113">
        <ele>189</ele>
        <time>2017-02-05T16:00:24Z</time>
      </trkpt>
      <trkpt lat="48.26725" lon="2.61132">
        <ele>189</ele>
        <time>2017-02-05T16:00:26Z</time>
      </trkpt>
      <trkpt lat="48.26713" lon="2.61135">
        <ele>190</ele>
        <time>2017-02-05T16:00:34Z</time>
      </trkpt>
      <trkpt lat="48.26711" lon="2.61136">
        <ele>190</ele>
        <time>2017-02-05T16:00:35Z</time>
      </trkpt>
      <trkpt lat="48.26698" lon="2.61137">
        <ele>191</ele>
        <time>2017-02-05T16:00:43Z</time>
      </trkpt>
      <trkpt lat="48.26686" lon="2.61137">
        <ele>192</ele>
        <time>2017-02-05T16:00:51Z</time>
      </trkpt>
      <trkpt lat="48.26685" lon="2.61137">
        <ele>192</ele>
        <time>2017-02-05T16:00:52Z</time>
      </trkpt>
      <trkpt lat="48.26676" lon="2.6114">
        <ele>193</ele>
        <time>2017-02-05T16:00:59Z</time>
      </trkpt>
      <trkpt lat="48.26672" lon="2.61141">
        <ele>193</ele>
        <time>2017-02-05T16:01:01Z</time>
      </trkpt>
      <trkpt lat="48.26661" lon="2.61142">
        <ele>194</ele>
        <time>2017-02-05T16:01:08Z</time>
      </trkpt>
      <trkpt lat="48.26657" lon="2.61142">
        <ele>194</ele>
        <time>2017-02-05T16:01:11Z</time>
      </trkpt>
      <trkpt lat="48.26654" lon="2.61143">
        <ele>195</ele>
        <time>2017-02-05T16:01:13Z</time>
      </trkpt>
      <trkpt lat="48.26651" lon="2.61144">
        <ele>195</ele>
        <time>2017-02-05T16:01:15Z</time>
      </trkpt>
      <trkpt lat="48.2665" lon="2.61144">
        <ele>195</ele>
        <time>2017-02-05T16:01:16Z</time>
      </trkpt>
      <trkpt lat="48.26648" lon="2.61145">
        <ele>195</ele>
        <time>2017-02-05T16:01:17Z</time>
      </trkpt>
      <trkpt lat="48.26642" lon="2.61147">
        <ele>196</ele>
        <time>2017-02-05T16:01:21Z</time>
      </trkpt>
      <trkpt lat="48.26639" lon="2.61148">
        <ele>196</ele>
        <time>2017-02-05T16:01:23Z</time>
      </trkpt>
      <trkpt lat="48.26635" lon="2.6115">
        <ele>197</ele>
        <time>2017-02-05T16:01:25Z</time>
      </trkpt>
      <trkpt lat="48.26633" lon="2.61151">
        <ele>197</ele>
        <time>2017-02-05T16:01:27Z</time>
      </trkpt>
      <trkpt lat="48.26629" lon="2.61155">
        <ele>198</ele>
        <time>2017-02-05T16:01:30Z</time>
      </trkpt>
      <trkpt lat="48.26624" lon="2.61161">
        <ele>198</ele>
        <time>2017-02-05T16:01:34Z</time>
      </trkpt>
      <trkpt lat="48.26622" lon="2.61166">
        <ele>199</ele>
        <time>2017-02-05T16:01:37Z</time>
      </trkpt>
      <trkpt lat="48.26621" lon="2.61172">
        <ele>199</ele>
        <time>2017-02-05T16:01:40Z</time>
      </trkpt>
      <trkpt lat="48.26621" lon="2.61174">
        <ele>199</ele>
        <time>2017-02-05T16:01:41Z</time>
      </trkpt>
      <trkpt lat="48.26621" lon="2.61181">
        <ele>200</ele>
        <time>2017-02-05T16:01:45Z</time>
      </trkpt>
      <trkpt lat="48.26621" lon="2.61183">
        <ele>200</ele>
        <time>2017-02-05T16:01:46Z</time>
      </trkpt>
      <trkpt lat="48.26622" lon="2.61186">
        <ele>200</ele>
        <time>2017-02-05T16:01:48Z</time>
      </trkpt>
      <trkpt lat="48.26621" lon="2.61195">
        <ele>201</ele>
        <time>2017-02-05T16:01:53Z</time>
      </trkpt>
      <trkpt lat="48.26621" lon="2.61208">
        <ele>202</ele>
        <time>2017-02-05T16:02:00Z</time>
      </trkpt>
      <trkpt lat="48.26621" lon="2.6121">
        <ele>202</ele>
        <time>2017-02-05T16:02:01Z</time>
      </trkpt>
      <trkpt lat="48.26619" lon="2.6122">
        <ele>203</ele>
        <time>2017-02-05T16:02:06Z</time>
      </trkpt>
      <trkpt lat="48.26619" lon="2.61226">
        <ele>203</ele>
        <time>2017-02-05T16:02:09Z</time>
      </trkpt>
      <trkpt lat="48.26619" lon="2.61237">
        <ele>204</ele>
        <time>2017-02-05T16:02:14Z</time>
      </trkpt>
      <trkpt lat="48.26619" lon="2.61243">
        <ele>205</ele>
        <time>2017-02-05T16:02:17Z</time>
      </trkpt>
      <trkpt lat="48.26619" lon="2.61247">
        <ele>205</ele>
        <time>2017-02-05T16:02:19Z</time>
      </trkpt>
      <trkpt lat="48.26619" lon="2.61259">
        <ele>206</ele>
        <time>2017-02-05T16:02:25Z</time>
      </trkpt>
      <trkpt lat="48.26618" lon="2.61261">
        <ele>206</ele>
        <time>2017-02-05T16:02:26Z</time>
      </trkpt>
      <trkpt lat="48.26617" lon="2.61264">
        <ele>206</ele>
        <time>2017-02-05T16:02:28Z</time>
      </trkpt>
      <trkpt lat="48.26617" lon="2.6127">
        <ele>207</ele>
        <time>2017-02-05T16:02:31Z</time>
      </trkpt>
      <trkpt lat="48.26617" lon="2.61274">
        <ele>207</ele>
        <time>2017-02-05T16:02:33Z</time>
      </trkpt>
      <trkpt lat="48.26617" lon="2.61283">
        <ele>208</ele>
        <time>2017-02-05T16:02:38Z</time>
      </trkpt>
      <trkpt lat="48.26618" lon="2.61287">
        <ele>208</ele>
        <time>2017-02-05T16:02:40Z</time>
      </trkpt>
      <trkpt lat="48.26619" lon="2.61295">
        <ele>209</ele>
        <time>2017-02-05T16:02:44Z</time>
      </trkpt>
      <trkpt lat="48.26621" lon="2.61303">
        <ele>209</ele>
        <time>2017-02-05T16:02:48Z</time>
      </trkpt>
      <trkpt lat="48.26622" lon="2.61306">
        <ele>210</ele>
        <time>2017-02-05T16:02:50Z</time>
      </trkpt>
      <trkpt lat="48.26623" lon="2.61308">
        <ele>210</ele>
        <time>2017-02-05T16:02:51Z</time>
      </trkpt>
      <trkpt lat="48.26627" lon="2.61315">
        <ele>211</ele>
        <time>2017-02-05T16:02:56Z</time>
      </trkpt>
      <trkpt lat="48.26628" lon="2.6132">
        <ele>211</ele>
        <time>2017-02-05T16:02:59Z</time>
      </trkpt>
      <trkpt lat="48.26629" lon="2.61321">
        <ele>211</ele>
        <time>2017-02-05T16:03:00Z</time>
      </trkpt>
      <trkpt lat="48.26633" lon="2.61325">
        <ele>212</ele>
        <time>2017-02-05T16:03:04Z</time>
      </trkpt>
      <trkpt lat="48.26633" lon="2.61327">
        <ele>212</ele>
        <time>2017-02-05T16:03:05Z</time>
      </trkpt>
      <trkpt lat="48.26639" lon="2.61334">
        <ele>213</ele>
        <time>2017-02-05T16:03:11Z</time>
      </trkpt>
      <trkpt lat="48.26641" lon="2.61336">
        <ele>213</ele>
        <time>2017-02-05T16:03:13Z</time>
      </trkpt>
      <trkpt lat="48.26648" lon="2.6134">
        <ele>214</ele>
        <time>2017-02-05T16:03:18Z</time>
      </trkpt>
      <trkpt lat="48.26652" lon="2.61342">
        <ele>214</ele>
        <time>2017-02-05T16:03:21Z</time>
      </trkpt>
      <trkpt lat="48.26664" lon="2.61346">
        <ele>214</ele>
        <time>2017-02-05T16:03:28Z</time>
      </trkpt>
      <trkpt lat="48.26678" lon="2.61352">
        <ele>215</ele>
        <time>2017-02-05T16:03:36Z</time>
      </trkpt>
      <trkpt lat="48.26688" lon="2.61356">
        <ele>216</ele>
        <time>2017-02-05T16:03:43Z</time>
      </trkpt>
      <trkpt lat="48.26694" lon="2.61367">
        <ele>215</ele>
        <time>2017-02-05T16:03:48Z</time>
      </trkpt>
      <trkpt lat="48.267" lon="2.61384">
        <ele>215</ele>
        <time>2017-02-05T16:03:56Z</time>
      </trkpt>
      <trkpt lat="48.26708" lon="2.61406">
        <ele>214</ele>
        <time>2017-02-05T16:04:04Z</time>
      </trkpt>
      <trkpt lat="48.2672" lon="2.61439">
        <ele>214</ele>
        <time>2017-02-05T16:04:14Z</time>
      </trkpt>
      <trkpt lat="48.26728" lon="2.61473">
        <ele>214</ele>
        <time>2017-02-05T16:04:23Z</time>
      </trkpt>
      <trkpt lat="48.2673" lon="2.61501">
        <ele>214</ele>
        <time>2017-02-05T16:04:31Z</time>
      </trkpt>
      <trkpt lat="48.2673" lon="2.61535">
        <ele>214</ele>
        <time>2017-02-05T16:04:40Z</time>
      </trkpt>
      <trkpt lat="48.26723" lon="2.61565">
        <ele>214</ele>
        <time>2017-02-05T16:04:49Z</time>
      </trkpt>
      <trkpt lat="48.26712" lon="2.61592">
        <ele>214</ele>
        <time>2017-02-05T16:04:57Z</time>
      </trkpt>
      <trkpt lat="48.26701" lon="2.61619">
        <ele>214</ele>
        <time>2017-02-05T16:05:05Z</time>
      </trkpt>
      <trkpt lat="48.26687" lon="2.61652">
        <ele>214</ele>
        <time>2017-02-05T16:05:15Z</time>
      </trkpt>
      <trkpt lat="48.26684" lon="2.61664">
        <ele>214</ele>
        <time>2017-02-05T16:05:18Z</time>
      </trkpt>
      <trkpt lat="48.26683" lon="2.61674">
        <ele>214</ele>
        <time>2017-02-05T16:05:21Z</time>
      </trkpt>
      <trkpt lat="48.26677" lon="2.61705">
        <ele>214</ele>
        <time>2017-02-05T16:05:29Z</time>
      </trkpt>
      <trkpt lat="48.26671" lon="2.61733">
        <ele>214</ele>
        <time>2017-02-05T16:05:37Z</time>
      </trkpt>
      <trkpt lat="48.26673" lon="2.61756">
        <ele>214</ele>
        <time>2017-02-05T16:05:43Z</time>
      </trkpt>
      <trkpt lat="48.26683" lon="2.61781">
        <ele>215</ele>
        <time>2017-02-05T16:05:50Z</time>
      </trkpt>
      <trkpt lat="48.26693" lon="2.61815">
        <ele>214</ele>
        <time>2017-02-05T16:05:59Z</time>
      </trkpt>
      <trkpt lat="48.26692" lon="2.61818">
        <ele>214</ele>
        <time>2017-02-05T16:06:00Z</time>
      </trkpt>
      <trkpt lat="48.26689" lon="2.61818">
        <ele>214</ele>
        <time>2017-02-05T16:06:02Z</time>
      </trkpt>
      <trkpt lat="48.2668" lon="2.61818">
        <ele>214</ele>
        <time>2017-02-05T16:06:07Z</time>
      </trkpt>
      <trkpt lat="48.26679" lon="2.61821">
        <ele>214</ele>
        <time>2017-02-05T16:06:11Z</time>
      </trkpt>
      <trkpt lat="48.26679" lon="2.61821">
        <ele>214</ele>
        <time>2017-02-05T16:07:02Z</time>
      </trkpt>
      <trkpt lat="48.26679" lon="2.61821">
        <ele>214</ele>
        <time>2017-02-05T16:07:43Z</time>
      </trkpt>
      <trkpt lat="48.26678" lon="2.61821">
        <ele>214</ele>
        <time>2017-02-05T16:08:03Z</time>
      </trkpt>
      <trkpt lat="48.26678" lon="2.61821">
        <ele>214</ele>
        <time>2017-02-05T16:08:11Z</time>
      </trkpt>
      <trkpt lat="48.26678" lon="2.61823">
        <ele>214</ele>
        <time>2017-02-05T16:08:12Z</time>
      </trkpt>
      <trkpt lat="48.26674" lon="2.61831">
        <ele>213</ele>
        <time>2017-02-05T16:08:15Z</time>
      </trkpt>
      <trkpt lat="48.26673" lon="2.61835">
        <ele>212</ele>
        <time>2017-02-05T16:08:16Z</time>
      </trkpt>
      <trkpt lat="48.26671" lon="2.61841">
        <ele>210</ele>
        <time>2017-02-05T16:08:17Z</time>
      </trkpt>
      <trkpt lat="48.26671" lon="2.61847">
        <ele>208</ele>
        <time>2017-02-05T16:08:18Z</time>
      </trkpt>
      <trkpt lat="48.26672" lon="2.61851">
        <ele>206</ele>
        <time>2017-02-05T16:08:19Z</time>
      </trkpt>
      <trkpt lat="48.26673" lon="2.61852">
        <ele>205</ele>
        <time>2017-02-05T16:08:20Z</time>
      </trkpt>
      <trkpt lat="48.26676" lon="2.61851">
        <ele>204</ele>
        <time>2017-02-05T16:08:22Z</time>
      </trkpt>
      <trkpt lat="48.26677" lon="2.61851">
        <ele>204</ele>
        <time>2017-02-05T16:08:23Z</time>
      </trkpt>
      <trkpt lat="48.26678" lon="2.61853">
        <ele>204</ele>
        <time>2017-02-05T16:08:24Z</time>
      </trkpt>
      <trkpt lat="48.26685" lon="2.61862">
        <ele>204</ele>
        <time>2017-02-05T16:08:28Z</time>
      </trkpt>
      <trkpt lat="48.26694" lon="2.61869">
        <ele>204</ele>
        <time>2017-02-05T16:08:30Z</time>
      </trkpt>
      <trkpt lat="48.26702" lon="2.61877">
        <ele>204</ele>
        <time>2017-02-05T16:08:33Z</time>
      </trkpt>
      <trkpt lat="48.26719" lon="2.61898">
        <ele>203</ele>
        <time>2017-02-05T16:08:40Z</time>
      </trkpt>
      <trkpt lat="48.26722" lon="2.61903">
        <ele>202</ele>
        <time>2017-02-05T16:08:41Z</time>
      </trkpt>
      <trkpt lat="48.2673" lon="2.61913">
        <ele>201</ele>
        <time>2017-02-05T16:08:43Z</time>
      </trkpt>
      <trkpt lat="48.26734" lon="2.61918">
        <ele>201</ele>
        <time>2017-02-05T16:08:44Z</time>
      </trkpt>
      <trkpt lat="48.2674" lon="2.61925">
        <ele>200</ele>
        <time>2017-02-05T16:08:45Z</time>
      </trkpt>
      <trkpt lat="48.26752" lon="2.61936">
        <ele>199</ele>
        <time>2017-02-05T16:08:47Z</time>
      </trkpt>
      <trkpt lat="48.26759" lon="2.61941">
        <ele>198</ele>
        <time>2017-02-05T16:08:48Z</time>
      </trkpt>
      <trkpt lat="48.26776" lon="2.61953">
        <ele>197</ele>
        <time>2017-02-05T16:08:51Z</time>
      </trkpt>
      <trkpt lat="48.26781" lon="2.61955">
        <ele>197</ele>
        <time>2017-02-05T16:08:52Z</time>
      </trkpt>
      <trkpt lat="48.26792" lon="2.61967">
        <ele>198</ele>
        <time>2017-02-05T16:08:56Z</time>
      </trkpt>
      <trkpt lat="48.26796" lon="2.61975">
        <ele>198</ele>
        <time>2017-02-05T16:08:58Z</time>
      </trkpt>
      <trkpt lat="48.26799" lon="2.61983">
        <ele>198</ele>
        <time>2017-02-05T16:09:00Z</time>
      </trkpt>
      <trkpt lat="48.26804" lon="2.61987">
        <ele>199</ele>
        <time>2017-02-05T16:09:02Z</time>
      </trkpt>
      <trkpt lat="48.26808" lon="2.61991">
        <ele>199</ele>
        <time>2017-02-05T16:09:04Z</time>
      </trkpt>
      <trkpt lat="48.2681" lon="2.61997">
        <ele>199</ele>
        <time>2017-02-05T16:09:06Z</time>
      </trkpt>
      <trkpt lat="48.26812" lon="2.62006">
        <ele>199</ele>
        <time>2017-02-05T16:09:08Z</time>
      </trkpt>
      <trkpt lat="48.2682" lon="2.62018">
        <ele>199</ele>
        <time>2017-02-05T16:09:12Z</time>
      </trkpt>
      <trkpt lat="48.26824" lon="2.62028">
        <ele>201</ele>
        <time>2017-02-05T16:09:16Z</time>
      </trkpt>
      <trkpt lat="48.26826" lon="2.62031">
        <ele>201</ele>
        <time>2017-02-05T16:09:17Z</time>
      </trkpt>
      <trkpt lat="48.26829" lon="2.62034">
        <ele>202</ele>
        <time>2017-02-05T16:09:19Z</time>
      </trkpt>
      <trkpt lat="48.2683" lon="2.62039">
        <ele>203</ele>
        <time>2017-02-05T16:09:21Z</time>
      </trkpt>
      <trkpt lat="48.26832" lon="2.62046">
        <ele>203</ele>
        <time>2017-02-05T16:09:23Z</time>
      </trkpt>
      <trkpt lat="48.2684" lon="2.62064">
        <ele>202</ele>
        <time>2017-02-05T16:09:29Z</time>
      </trkpt>
      <trkpt lat="48.26853" lon="2.62082">
        <ele>203</ele>
        <time>2017-02-05T16:09:36Z</time>
      </trkpt>
      <trkpt lat="48.26858" lon="2.62093">
        <ele>203</ele>
        <time>2017-02-05T16:09:41Z</time>
      </trkpt>
      <trkpt lat="48.2686" lon="2.62105">
        <ele>203</ele>
        <time>2017-02-05T16:09:45Z</time>
      </trkpt>
      <trkpt lat="48.26861" lon="2.62111">
        <ele>203</ele>
        <time>2017-02-05T16:09:47Z</time>
      </trkpt>
      <trkpt lat="48.26862" lon="2.62114">
        <ele>203</ele>
        <time>2017-02-05T16:09:48Z</time>
      </trkpt>
      <trkpt lat="48.26867" lon="2.62128">
        <ele>203</ele>
        <time>2017-02-05T16:09:52Z</time>
      </trkpt>
      <trkpt lat="48.26872" lon="2.62138">
        <ele>203</ele>
        <time>2017-02-05T16:09:56Z</time>
      </trkpt>
      <trkpt lat="48.26874" lon="2.62141">
        <ele>203</ele>
        <time>2017-02-05T16:09:57Z</time>
      </trkpt>
      <trkpt lat="48.26882" lon="2.62158">
        <ele>203</ele>
        <time>2017-02-05T16:10:03Z</time>
      </trkpt>
      <trkpt lat="48.26884" lon="2.62192">
        <ele>203</ele>
        <time>2017-02-05T16:10:11Z</time>
      </trkpt>
      <trkpt lat="48.26882" lon="2.62198">
        <ele>203</ele>
        <time>2017-02-05T16:10:12Z</time>
      </trkpt>
      <trkpt lat="48.26879" lon="2.62216">
        <ele>203</ele>
        <time>2017-02-05T16:10:16Z</time>
      </trkpt>
      <trkpt lat="48.26879" lon="2.62219">
        <ele>203</ele>
        <time>2017-02-05T16:10:17Z</time>
      </trkpt>
      <trkpt lat="48.26883" lon="2.62232">
        <ele>203</ele>
        <time>2017-02-05T16:10:21Z</time>
      </trkpt>
      <trkpt lat="48.26885" lon="2.62242">
        <ele>203</ele>
        <time>2017-02-05T16:10:24Z</time>
      </trkpt>
      <trkpt lat="48.26889" lon="2.62247">
        <ele>203</ele>
        <time>2017-02-05T16:10:27Z</time>
      </trkpt>
      <trkpt lat="48.26891" lon="2.62248">
        <ele>203</ele>
        <time>2017-02-05T16:10:28Z</time>
      </trkpt>
      <trkpt lat="48.26896" lon="2.62252">
        <ele>204</ele>
        <time>2017-02-05T16:10:31Z</time>
      </trkpt>
      <trkpt lat="48.26896" lon="2.62256">
        <ele>204</ele>
        <time>2017-02-05T16:10:32Z</time>
      </trkpt>
      <trkpt lat="48.26896" lon="2.62266">
        <ele>203</ele>
        <time>2017-02-05T16:10:36Z</time>
      </trkpt>
      <trkpt lat="48.26894" lon="2.62276">
        <ele>202</ele>
        <time>2017-02-05T16:10:39Z</time>
      </trkpt>
      <trkpt lat="48.26895" lon="2.62285">
        <ele>202</ele>
        <time>2017-02-05T16:10:41Z</time>
      </trkpt>
      <trkpt lat="48.26898" lon="2.62307">
        <ele>203</ele>
        <time>2017-02-05T16:10:46Z</time>
      </trkpt>
      <trkpt lat="48.269" lon="2.62326">
        <ele>203</ele>
        <time>2017-02-05T16:10:50Z</time>
      </trkpt>
      <trkpt lat="48.26902" lon="2.6233">
        <ele>203</ele>
        <time>2017-02-05T16:10:51Z</time>
      </trkpt>
      <trkpt lat="48.26907" lon="2.62336">
        <ele>203</ele>
        <time>2017-02-05T16:10:53Z</time>
      </trkpt>
      <trkpt lat="48.2691" lon="2.6234">
        <ele>202</ele>
        <time>2017-02-05T16:10:55Z</time>
      </trkpt>
      <trkpt lat="48.26914" lon="2.62343">
        <ele>202</ele>
        <time>2017-02-05T16:10:57Z</time>
      </trkpt>
      <trkpt lat="48.26917" lon="2.6234">
        <ele>201</ele>
        <time>2017-02-05T16:10:58Z</time>
      </trkpt>
      <trkpt lat="48.2692" lon="2.62335">
        <ele>201</ele>
        <time>2017-02-05T16:11:00Z</time>
      </trkpt>
      <trkpt lat="48.26922" lon="2.62318">
        <ele>201</ele>
        <time>2017-02-05T16:11:05Z</time>
      </trkpt>
      <trkpt lat="48.26922" lon="2.62306">
        <ele>202</ele>
        <time>2017-02-05T16:11:09Z</time>
      </trkpt>
      <trkpt lat="48.26924" lon="2.62295">
        <ele>203</ele>
        <time>2017-02-05T16:11:13Z</time>
      </trkpt>
      <trkpt lat="48.26925" lon="2.62294">
        <ele>203</ele>
        <time>2017-02-05T16:11:14Z</time>
      </trkpt>
      <trkpt lat="48.26927" lon="2.62286">
        <ele>203</ele>
        <time>2017-02-05T16:11:18Z</time>
      </trkpt>
      <trkpt lat="48.26931" lon="2.6228">
        <ele>203</ele>
        <time>2017-02-05T16:11:21Z</time>
      </trkpt>
      <trkpt lat="48.26936" lon="2.62275">
        <ele>203</ele>
        <time>2017-02-05T16:11:24Z</time>
      </trkpt>
      <trkpt lat="48.26938" lon="2.62272">
        <ele>203</ele>
        <time>2017-02-05T16:11:26Z</time>
      </trkpt>
      <trkpt lat="48.26938" lon="2.62269">
        <ele>203</ele>
        <time>2017-02-05T16:11:27Z</time>
      </trkpt>
      <trkpt lat="48.26937" lon="2.62262">
        <ele>202</ele>
        <time>2017-02-05T16:11:29Z</time>
      </trkpt>
      <trkpt lat="48.26935" lon="2.62242">
        <ele>202</ele>
        <time>2017-02-05T16:11:34Z</time>
      </trkpt>
      <trkpt lat="48.26933" lon="2.62234">
        <ele>202</ele>
        <time>2017-02-05T16:11:36Z</time>
      </trkpt>
      <trkpt lat="48.26931" lon="2.62225">
        <ele>201</ele>
        <time>2017-02-05T16:11:38Z</time>
      </trkpt>
      <trkpt lat="48.26931" lon="2.6222">
        <ele>201</ele>
        <time>2017-02-05T16:11:39Z</time>
      </trkpt>
      <trkpt lat="48.2693" lon="2.62204">
        <ele>201</ele>
        <time>2017-02-05T16:11:43Z</time>
      </trkpt>
      <trkpt lat="48.26927" lon="2.62188">
        <ele>202</ele>
        <time>2017-02-05T16:11:47Z</time>
      </trkpt>
      <trkpt lat="48.26925" lon="2.62183">
        <ele>202</ele>
        <time>2017-02-05T16:11:49Z</time>
      </trkpt>
      <trkpt lat="48.26915" lon="2.62165">
        <ele>202</ele>
        <time>2017-02-05T16:11:55Z</time>
      </trkpt>
      <trkpt lat="48.26913" lon="2.62157">
        <ele>202</ele>
        <time>2017-02-05T16:11:57Z</time>
      </trkpt>
      <trkpt lat="48.26913" lon="2.62147">
        <ele>202</ele>
        <time>2017-02-05T16:12:02Z</time>
      </trkpt>
      <trkpt lat="48.26917" lon="2.62139">
        <ele>201</ele>
        <time>2017-02-05T16:12:05Z</time>
      </trkpt>
      <trkpt lat="48.26918" lon="2.62135">
        <ele>200</ele>
        <time>2017-02-05T16:12:06Z</time>
      </trkpt>
      <trkpt lat="48.26919" lon="2.62131">
        <ele>199</ele>
        <time>2017-02-05T16:12:07Z</time>
      </trkpt>
      <trkpt lat="48.26919" lon="2.62122">
        <ele>199</ele>
        <time>2017-02-05T16:12:11Z</time>
      </trkpt>
      <trkpt lat="48.26918" lon="2.62105">
        <ele>199</ele>
        <time>2017-02-05T16:12:16Z</time>
      </trkpt>
      <trkpt lat="48.26912" lon="2.62089">
        <ele>199</ele>
        <time>2017-02-05T16:12:20Z</time>
      </trkpt>
      <trkpt lat="48.26911" lon="2.62083">
        <ele>199</ele>
        <time>2017-02-05T16:12:21Z</time>
      </trkpt>
      <trkpt lat="48.26912" lon="2.62068">
        <ele>199</ele>
        <time>2017-02-05T16:12:24Z</time>
      </trkpt>
      <trkpt lat="48.26911" lon="2.62064">
        <ele>199</ele>
        <time>2017-02-05T16:12:25Z</time>
      </trkpt>
      <trkpt lat="48.2691" lon="2.62061">
        <ele>199</ele>
        <time>2017-02-05T16:12:26Z</time>
      </trkpt>
      <trkpt lat="48.26905" lon="2.62047">
        <ele>200</ele>
        <time>2017-02-05T16:12:32Z</time>
      </trkpt>
      <trkpt lat="48.26905" lon="2.62047">
        <ele>200</ele>
        <time>2017-02-05T16:12:41Z</time>
      </trkpt>
      <trkpt lat="48.26899" lon="2.62042">
        <ele>201</ele>
        <time>2017-02-05T16:13:11Z</time>
      </trkpt>
      <trkpt lat="48.26896" lon="2.62039">
        <ele>201</ele>
        <time>2017-02-05T16:13:12Z</time>
      </trkpt>
      <trkpt lat="48.26883" lon="2.62029">
        <ele>201</ele>
        <time>2017-02-05T16:13:17Z</time>
      </trkpt>
      <trkpt lat="48.26876" lon="2.62023">
        <ele>201</ele>
        <time>2017-02-05T16:13:20Z</time>
      </trkpt>
      <trkpt lat="48.26874" lon="2.62019">
        <ele>202</ele>
        <time>2017-02-05T16:13:22Z</time>
      </trkpt>
      <trkpt lat="48.26872" lon="2.62012">
        <ele>202</ele>
        <time>2017-02-05T16:13:27Z</time>
      </trkpt>
      <trkpt lat="48.26876" lon="2.62009">
        <ele>202</ele>
        <time>2017-02-05T16:13:31Z</time>
      </trkpt>
      <trkpt lat="48.26877" lon="2.62011">
        <ele>202</ele>
        <time>2017-02-05T16:13:32Z</time>
      </trkpt>
      <trkpt lat="48.26882" lon="2.62021">
        <ele>202</ele>
        <time>2017-02-05T16:13:36Z</time>
      </trkpt>
      <trkpt lat="48.26882" lon="2.62021">
        <ele>203</ele>
        <time>2017-02-05T16:13:37Z</time>
      </trkpt>
      <trkpt lat="48.26887" lon="2.62021">
        <ele>203</ele>
        <time>2017-02-05T16:13:40Z</time>
      </trkpt>
      <trkpt lat="48.26892" lon="2.62021">
        <ele>201</ele>
        <time>2017-02-05T16:13:43Z</time>
      </trkpt>
      <trkpt lat="48.26894" lon="2.62018">
        <ele>200</ele>
        <time>2017-02-05T16:13:45Z</time>
      </trkpt>
      <trkpt lat="48.26895" lon="2.62015">
        <ele>200</ele>
        <time>2017-02-05T16:13:46Z</time>
      </trkpt>
      <trkpt lat="48.26899" lon="2.62006">
        <ele>200</ele>
        <time>2017-02-05T16:13:51Z</time>
      </trkpt>
      <trkpt lat="48.26899" lon="2.62003">
        <ele>200</ele>
        <time>2017-02-05T16:13:56Z</time>
      </trkpt>
      <trkpt lat="48.269" lon="2.62001">
        <ele>200</ele>
        <time>2017-02-05T16:14:03Z</time>
      </trkpt>
      <trkpt lat="48.269" lon="2.62">
        <ele>199</ele>
        <time>2017-02-05T16:14:10Z</time>
      </trkpt>
      <trkpt lat="48.26901" lon="2.61983">
        <ele>200</ele>
        <time>2017-02-05T16:14:17Z</time>
      </trkpt>
      <trkpt lat="48.269" lon="2.61979">
        <ele>201</ele>
        <time>2017-02-05T16:14:23Z</time>
      </trkpt>
      <trkpt lat="48.269" lon="2.61978">
        <ele>202</ele>
        <time>2017-02-05T16:14:27Z</time>
      </trkpt>
      <trkpt lat="48.269" lon="2.61977">
        <ele>202</ele>
        <time>2017-02-05T16:14:30Z</time>
      </trkpt>
      <trkpt lat="48.26895" lon="2.6197">
        <ele>203</ele>
        <time>2017-02-05T16:14:40Z</time>
      </trkpt>
      <trkpt lat="48.2689" lon="2.61961">
        <ele>203</ele>
        <time>2017-02-05T16:14:43Z</time>
      </trkpt>
      <trkpt lat="48.26887" lon="2.61957">
        <ele>202</ele>
        <time>2017-02-05T16:14:45Z</time>
      </trkpt>
      <trkpt lat="48.26884" lon="2.61951">
        <ele>202</ele>
        <time>2017-02-05T16:14:47Z</time>
      </trkpt>
      <trkpt lat="48.26884" lon="2.61945">
        <ele>202</ele>
        <time>2017-02-05T16:14:49Z</time>
      </trkpt>
      <trkpt lat="48.26884" lon="2.61943">
        <ele>203</ele>
        <time>2017-02-05T16:14:50Z</time>
      </trkpt>
      <trkpt lat="48.26892" lon="2.61938">
        <ele>203</ele>
        <time>2017-02-05T16:14:54Z</time>
      </trkpt>
      <trkpt lat="48.26895" lon="2.6194">
        <ele>203</ele>
        <time>2017-02-05T16:14:55Z</time>
      </trkpt>
      <trkpt lat="48.26902" lon="2.61951">
        <ele>203</ele>
        <time>2017-02-05T16:14:58Z</time>
      </trkpt>
      <trkpt lat="48.26907" lon="2.61962">
        <ele>202</ele>
        <time>2017-02-05T16:15:00Z</time>
      </trkpt>
      <trkpt lat="48.26911" lon="2.61976">
        <ele>202</ele>
        <time>2017-02-05T16:15:02Z</time>
      </trkpt>
      <trkpt lat="48.26913" lon="2.61983">
        <ele>201</ele>
        <time>2017-02-05T16:15:03Z</time>
      </trkpt>
      <trkpt lat="48.26917" lon="2.61997">
        <ele>201</ele>
        <time>2017-02-05T16:15:05Z</time>
      </trkpt>
      <trkpt lat="48.26922" lon="2.62007">
        <ele>201</ele>
        <time>2017-02-05T16:15:07Z</time>
      </trkpt>
      <trkpt lat="48.26924" lon="2.62013">
        <ele>200</ele>
        <time>2017-02-05T16:15:08Z</time>
      </trkpt>
      <trkpt lat="48.26932" lon="2.62029">
        <ele>200</ele>
        <time>2017-02-05T16:15:11Z</time>
      </trkpt>
      <trkpt lat="48.26941" lon="2.62045">
        <ele>200</ele>
        <time>2017-02-05T16:15:14Z</time>
      </trkpt>
      <trkpt lat="48.26946" lon="2.62054">
        <ele>200</ele>
        <time>2017-02-05T16:15:16Z</time>
      </trkpt>
      <trkpt lat="48.26947" lon="2.62066">
        <ele>199</ele>
        <time>2017-02-05T16:15:18Z</time>
      </trkpt>
      <trkpt lat="48.26941" lon="2.62091">
        <ele>199</ele>
        <time>2017-02-05T16:15:22Z</time>
      </trkpt>
      <trkpt lat="48.26939" lon="2.62097">
        <ele>199</ele>
        <time>2017-02-05T16:15:23Z</time>
      </trkpt>
      <trkpt lat="48.26934" lon="2.62117">
        <ele>199</ele>
        <time>2017-02-05T16:15:26Z</time>
      </trkpt>
      <trkpt lat="48.26932" lon="2.62134">
        <ele>199</ele>
        <time>2017-02-05T16:15:29Z</time>
      </trkpt>
      <trkpt lat="48.26933" lon="2.62169">
        <ele>199</ele>
        <time>2017-02-05T16:15:35Z</time>
      </trkpt>
      <trkpt lat="48.26937" lon="2.62207">
        <ele>199</ele>
        <time>2017-02-05T16:15:42Z</time>
      </trkpt>
      <trkpt lat="48.26936" lon="2.62246">
        <ele>199</ele>
        <time>2017-02-05T16:15:48Z</time>
      </trkpt>
      <trkpt lat="48.26935" lon="2.62288">
        <ele>199</ele>
        <time>2017-02-05T16:15:55Z</time>
      </trkpt>
      <trkpt lat="48.26931" lon="2.62328">
        <ele>199</ele>
        <time>2017-02-05T16:16:02Z</time>
      </trkpt>
      <trkpt lat="48.26925" lon="2.62355">
        <ele>199</ele>
        <time>2017-02-05T16:16:08Z</time>
      </trkpt>
      <trkpt lat="48.26912" lon="2.62374">
        <ele>199</ele>
        <time>2017-02-05T16:16:14Z</time>
      </trkpt>
      <trkpt lat="48.26897" lon="2.62386">
        <ele>199</ele>
        <time>2017-02-05T16:16:19Z</time>
      </trkpt>
      <trkpt lat="48.2688" lon="2.62397">
        <ele>200</ele>
        <time>2017-02-05T16:16:25Z</time>
      </trkpt>
      <trkpt lat="48.26862" lon="2.62408">
        <ele>200</ele>
        <time>2017-02-05T16:16:31Z</time>
      </trkpt>
      <trkpt lat="48.26843" lon="2.6241">
        <ele>199</ele>
        <time>2017-02-05T16:16:37Z</time>
      </trkpt>
      <trkpt lat="48.2684" lon="2.62404">
        <ele>199</ele>
        <time>2017-02-05T16:16:39Z</time>
      </trkpt>
      <trkpt lat="48.26838" lon="2.62397">
        <ele>199</ele>
        <time>2017-02-05T16:16:41Z</time>
      </trkpt>
      <trkpt lat="48.26834" lon="2.62377">
        <ele>198</ele>
        <time>2017-02-05T16:16:45Z</time>
      </trkpt>
      <trkpt lat="48.26831" lon="2.62364">
        <ele>198</ele>
        <time>2017-02-05T16:16:47Z</time>
      </trkpt>
      <trkpt lat="48.26828" lon="2.6235">
        <ele>197</ele>
        <time>2017-02-05T16:16:49Z</time>
      </trkpt>
      <trkpt lat="48.26821" lon="2.62318">
        <ele>197</ele>
        <time>2017-02-05T16:16:53Z</time>
      </trkpt>
      <trkpt lat="48.26818" lon="2.62301">
        <ele>196</ele>
        <time>2017-02-05T16:16:55Z</time>
      </trkpt>
      <trkpt lat="48.26816" lon="2.62281">
        <ele>196</ele>
        <time>2017-02-05T16:16:57Z</time>
      </trkpt>
      <trkpt lat="48.26817" lon="2.6226">
        <ele>195</ele>
        <time>2017-02-05T16:16:59Z</time>
      </trkpt>
      <trkpt lat="48.2682" lon="2.62238">
        <ele>194</ele>
        <time>2017-02-05T16:17:01Z</time>
      </trkpt>
      <trkpt lat="48.26821" lon="2.62227">
        <ele>194</ele>
        <time>2017-02-05T16:17:02Z</time>
      </trkpt>
      <trkpt lat="48.26824" lon="2.62203">
        <ele>193</ele>
        <time>2017-02-05T16:17:04Z</time>
      </trkpt>
      <trkpt lat="48.26826" lon="2.6219">
        <ele>193</ele>
        <time>2017-02-05T16:17:05Z</time>
      </trkpt>
      <trkpt lat="48.26827" lon="2.62164">
        <ele>192</ele>
        <time>2017-02-05T16:17:07Z</time>
      </trkpt>
      <trkpt lat="48.26828" lon="2.6215">
        <ele>191</ele>
        <time>2017-02-05T16:17:08Z</time>
      </trkpt>
      <trkpt lat="48.26828" lon="2.62136">
        <ele>191</ele>
        <time>2017-02-05T16:17:09Z</time>
      </trkpt>
      <trkpt lat="48.26826" lon="2.62121">
        <ele>190</ele>
        <time>2017-02-05T16:17:10Z</time>
      </trkpt>
      <trkpt lat="48.26818" lon="2.62096">
        <ele>189</ele>
        <time>2017-02-05T16:17:12Z</time>
      </trkpt>
      <trkpt lat="48.26806" lon="2.62072">
        <ele>187</ele>
        <time>2017-02-05T16:17:14Z</time>
      </trkpt>
      <trkpt lat="48.26792" lon="2.6205">
        <ele>186</ele>
        <time>2017-02-05T16:17:16Z</time>
      </trkpt>
      <trkpt lat="48.26784" lon="2.62039">
        <ele>185</ele>
        <time>2017-02-05T16:17:17Z</time>
      </trkpt>
      <trkpt lat="48.26775" lon="2.6203">
        <ele>185</ele>
        <time>2017-02-05T16:17:18Z</time>
      </trkpt>
      <trkpt lat="48.26757" lon="2.62012">
        <ele>183</ele>
        <time>2017-02-05T16:17:20Z</time>
      </trkpt>
      <trkpt lat="48.2674" lon="2.61994">
        <ele>182</ele>
        <time>2017-02-05T16:17:22Z</time>
      </trkpt>
      <trkpt lat="48.26722" lon="2.61977">
        <ele>180</ele>
        <time>2017-02-05T16:17:24Z</time>
      </trkpt>
      <trkpt lat="48.26707" lon="2.61958">
        <ele>179</ele>
        <time>2017-02-05T16:17:26Z</time>
      </trkpt>
      <trkpt lat="48.26679" lon="2.61925">
        <ele>179</ele>
        <time>2017-02-05T16:17:30Z</time>
      </trkpt>
      <trkpt lat="48.26656" lon="2.61904">
        <ele>180</ele>
        <time>2017-02-05T16:17:34Z</time>
      </trkpt>
      <trkpt lat="48.26636" lon="2.61878">
        <ele>181</ele>
        <time>2017-02-05T16:17:39Z</time>
      </trkpt>
      <trkpt lat="48.26631" lon="2.61868">
        <ele>181</ele>
        <time>2017-02-05T16:17:41Z</time>
      </trkpt>
      <trkpt lat="48.26625" lon="2.61852">
        <ele>182</ele>
        <time>2017-02-05T16:17:44Z</time>
      </trkpt>
      <trkpt lat="48.26623" lon="2.61842">
        <ele>182</ele>
        <time>2017-02-05T16:17:46Z</time>
      </trkpt>
      <trkpt lat="48.26619" lon="2.61821">
        <ele>182</ele>
        <time>2017-02-05T16:17:50Z</time>
      </trkpt>
      <trkpt lat="48.26615" lon="2.61782">
        <ele>183</ele>
        <time>2017-02-05T16:17:57Z</time>
      </trkpt>
      <trkpt lat="48.26617" lon="2.61774">
        <ele>183</ele>
        <time>2017-02-05T16:17:59Z</time>
      </trkpt>
      <trkpt lat="48.26619" lon="2.61765">
        <ele>184</ele>
        <time>2017-02-05T16:18:02Z</time>
      </trkpt>
      <trkpt lat="48.2662" lon="2.6176">
        <ele>184</ele>
        <time>2017-02-05T16:18:04Z</time>
      </trkpt>
      <trkpt lat="48.26622" lon="2.6175">
        <ele>185</ele>
        <time>2017-02-05T16:18:08Z</time>
      </trkpt>
      <trkpt lat="48.26625" lon="2.61736">
        <ele>185</ele>
        <time>2017-02-05T16:18:13Z</time>
      </trkpt>
      <trkpt lat="48.26626" lon="2.61731">
        <ele>185</ele>
        <time>2017-02-05T16:18:15Z</time>
      </trkpt>
      <trkpt lat="48.26629" lon="2.61711">
        <ele>186</ele>
        <time>2017-02-05T16:18:22Z</time>
      </trkpt>
      <trkpt lat="48.2663" lon="2.61705">
        <ele>186</ele>
        <time>2017-02-05T16:18:24Z</time>
      </trkpt>
      <trkpt lat="48.26633" lon="2.61693">
        <ele>187</ele>
        <time>2017-02-05T16:18:29Z</time>
      </trkpt>
      <trkpt lat="48.26635" lon="2.61688">
        <ele>187</ele>
        <time>2017-02-05T16:18:31Z</time>
      </trkpt>
      <trkpt lat="48.26637" lon="2.61677">
        <ele>188</ele>
        <time>2017-02-05T16:18:36Z</time>
      </trkpt>
      <trkpt lat="48.26638" lon="2.61675">
        <ele>188</ele>
        <time>2017-02-05T16:18:37Z</time>
      </trkpt>
      <trkpt lat="48.26645" lon="2.61658">
        <ele>189</ele>
        <time>2017-02-05T16:18:44Z</time>
      </trkpt>
      <trkpt lat="48.26651" lon="2.61641">
        <ele>190</ele>
        <time>2017-02-05T16:18:51Z</time>
      </trkpt>
      <trkpt lat="48.26653" lon="2.61636">
        <ele>191</ele>
        <time>2017-02-05T16:18:53Z</time>
      </trkpt>
      <trkpt lat="48.2666" lon="2.61622">
        <ele>191</ele>
        <time>2017-02-05T16:18:59Z</time>
      </trkpt>
      <trkpt lat="48.26661" lon="2.6162">
        <ele>192</ele>
        <time>2017-02-05T16:19:00Z</time>
      </trkpt>
      <trkpt lat="48.26668" lon="2.61607">
        <ele>192</ele>
        <time>2017-02-05T16:19:06Z</time>
      </trkpt>
      <trkpt lat="48.2667" lon="2.61602">
        <ele>193</ele>
        <time>2017-02-05T16:19:08Z</time>
      </trkpt>
      <trkpt lat="48.2668" lon="2.61585">
        <ele>193</ele>
        <time>2017-02-05T16:19:15Z</time>
      </trkpt>
      <trkpt lat="48.26681" lon="2.61583">
        <ele>194</ele>
        <time>2017-02-05T16:19:16Z</time>
      </trkpt>
      <trkpt lat="48.2669" lon="2.61566">
        <ele>194</ele>
        <time>2017-02-05T16:19:22Z</time>
      </trkpt>
      <trkpt lat="48.26695" lon="2.61555">
        <ele>195</ele>
        <time>2017-02-05T16:19:26Z</time>
      </trkpt>
      <trkpt lat="48.26697" lon="2.61548">
        <ele>195</ele>
        <time>2017-02-05T16:19:29Z</time>
      </trkpt>
      <trkpt lat="48.26699" lon="2.61543">
        <ele>195</ele>
        <time>2017-02-05T16:19:31Z</time>
      </trkpt>
      <trkpt lat="48.267" lon="2.61538">
        <ele>196</ele>
        <time>2017-02-05T16:19:33Z</time>
      </trkpt>
      <trkpt lat="48.267" lon="2.61536">
        <ele>196</ele>
        <time>2017-02-05T16:19:34Z</time>
      </trkpt>
      <trkpt lat="48.26703" lon="2.61524">
        <ele>197</ele>
        <time>2017-02-05T16:19:39Z</time>
      </trkpt>
      <trkpt lat="48.26704" lon="2.61518">
        <ele>197</ele>
        <time>2017-02-05T16:19:41Z</time>
      </trkpt>
      <trkpt lat="48.26706" lon="2.61504">
        <ele>198</ele>
        <time>2017-02-05T16:19:47Z</time>
      </trkpt>
      <trkpt lat="48.26706" lon="2.61497">
        <ele>198</ele>
        <time>2017-02-05T16:19:50Z</time>
      </trkpt>
      <trkpt lat="48.26704" lon="2.61484">
        <ele>199</ele>
        <time>2017-02-05T16:19:55Z</time>
      </trkpt>
      <trkpt lat="48.26704" lon="2.61476">
        <ele>199</ele>
        <time>2017-02-05T16:19:58Z</time>
      </trkpt>
      <trkpt lat="48.26703" lon="2.61464">
        <ele>200</ele>
        <time>2017-02-05T16:20:03Z</time>
      </trkpt>
      <trkpt lat="48.26702" lon="2.61459">
        <ele>200</ele>
        <time>2017-02-05T16:20:05Z</time>
      </trkpt>
      <trkpt lat="48.26697" lon="2.61444">
        <ele>201</ele>
        <time>2017-02-05T16:20:11Z</time>
      </trkpt>
      <trkpt lat="48.26697" lon="2.61442">
        <ele>201</ele>
        <time>2017-02-05T16:20:12Z</time>
      </trkpt>
      <trkpt lat="48.26692" lon="2.61424">
        <ele>202</ele>
        <time>2017-02-05T16:20:19Z</time>
      </trkpt>
      <trkpt lat="48.26691" lon="2.61421">
        <ele>202</ele>
        <time>2017-02-05T16:20:20Z</time>
      </trkpt>
      <trkpt lat="48.26681" lon="2.61402">
        <ele>203</ele>
        <time>2017-02-05T16:20:28Z</time>
      </trkpt>
      <trkpt lat="48.26661" lon="2.61384">
        <ele>204</ele>
        <time>2017-02-05T16:20:36Z</time>
      </trkpt>
      <trkpt lat="48.26645" lon="2.61368">
        <ele>204</ele>
        <time>2017-02-05T16:20:43Z</time>
      </trkpt>
      <trkpt lat="48.26638" lon="2.6136">
        <ele>204</ele>
        <time>2017-02-05T16:20:46Z</time>
      </trkpt>
      <trkpt lat="48.26621" lon="2.61337">
        <ele>204</ele>
        <time>2017-02-05T16:20:53Z</time>
      </trkpt>
      <trkpt lat="48.26611" lon="2.61308">
        <ele>204</ele>
        <time>2017-02-05T16:20:59Z</time>
      </trkpt>
      <trkpt lat="48.26606" lon="2.61277">
        <ele>203</ele>
        <time>2017-02-05T16:21:04Z</time>
      </trkpt>
      <trkpt lat="48.26605" lon="2.61264">
        <ele>203</ele>
        <time>2017-02-05T16:21:06Z</time>
      </trkpt>
      <trkpt lat="48.26605" lon="2.61235">
        <ele>202</ele>
        <time>2017-02-05T16:21:10Z</time>
      </trkpt>
      <trkpt lat="48.26605" lon="2.61218">
        <ele>201</ele>
        <time>2017-02-05T16:21:12Z</time>
      </trkpt>
      <trkpt lat="48.26606" lon="2.61208">
        <ele>200</ele>
        <time>2017-02-05T16:21:13Z</time>
      </trkpt>
      <trkpt lat="48.26614" lon="2.61173">
        <ele>199</ele>
        <time>2017-02-05T16:21:17Z</time>
      </trkpt>
      <trkpt lat="48.26626" lon="2.61146">
        <ele>198</ele>
        <time>2017-02-05T16:21:21Z</time>
      </trkpt>
      <trkpt lat="48.26627" lon="2.61137">
        <ele>198</ele>
        <time>2017-02-05T16:21:22Z</time>
      </trkpt>
      <trkpt lat="48.26624" lon="2.61125">
        <ele>198</ele>
        <time>2017-02-05T16:21:25Z</time>
      </trkpt>
      <trkpt lat="48.26619" lon="2.61114">
        <ele>198</ele>
        <time>2017-02-05T16:21:27Z</time>
      </trkpt>
      <trkpt lat="48.26615" lon="2.61111">
        <ele>197</ele>
        <time>2017-02-05T16:21:28Z</time>
      </trkpt>
      <trkpt lat="48.26611" lon="2.61113">
        <ele>197</ele>
        <time>2017-02-05T16:21:30Z</time>
      </trkpt>
      <trkpt lat="48.2661" lon="2.61113">
        <ele>197</ele>
        <time>2017-02-05T16:21:31Z</time>
      </trkpt>
      <trkpt lat="48.26605" lon="2.61115">
        <ele>198</ele>
        <time>2017-02-05T16:21:35Z</time>
      </trkpt>
      <trkpt lat="48.266" lon="2.61117">
        <ele>199</ele>
        <time>2017-02-05T16:21:39Z</time>
      </trkpt>
      <trkpt lat="48.26599" lon="2.61118">
        <ele>199</ele>
        <time>2017-02-05T16:21:40Z</time>
      </trkpt>
      <trkpt lat="48.26595" lon="2.6112">
        <ele>200</ele>
        <time>2017-02-05T16:21:45Z</time>
      </trkpt>
      <trkpt lat="48.26592" lon="2.61121">
        <ele>200</ele>
        <time>2017-02-05T16:21:48Z</time>
      </trkpt>
      <trkpt lat="48.26589" lon="2.61122">
        <ele>201</ele>
        <time>2017-02-05T16:21:50Z</time>
      </trkpt>
      <trkpt lat="48.26587" lon="2.61122">
        <ele>201</ele>
        <time>2017-02-05T16:21:51Z</time>
      </trkpt>
      <trkpt lat="48.26581" lon="2.61125">
        <ele>202</ele>
        <time>2017-02-05T16:21:57Z</time>
      </trkpt>
      <trkpt lat="48.26579" lon="2.61125">
        <ele>202</ele>
        <time>2017-02-05T16:21:58Z</time>
      </trkpt>
      <trkpt lat="48.26571" lon="2.61129">
        <ele>203</ele>
        <time>2017-02-05T16:22:04Z</time>
      </trkpt>
      <trkpt lat="48.26568" lon="2.61129">
        <ele>203</ele>
        <time>2017-02-05T16:22:06Z</time>
      </trkpt>
      <trkpt lat="48.26563" lon="2.61129">
        <ele>204</ele>
        <time>2017-02-05T16:22:10Z</time>
      </trkpt>
      <trkpt lat="48.26562" lon="2.61129">
        <ele>204</ele>
        <time>2017-02-05T16:22:11Z</time>
      </trkpt>
      <trkpt lat="48.26561" lon="2.61129">
        <ele>204</ele>
        <time>2017-02-05T16:22:12Z</time>
      </trkpt>
      <trkpt lat="48.26552" lon="2.61124">
        <ele>205</ele>
        <time>2017-02-05T16:22:18Z</time>
      </trkpt>
      <trkpt lat="48.26548" lon="2.61119">
        <ele>206</ele>
        <time>2017-02-05T16:22:22Z</time>
      </trkpt>
      <trkpt lat="48.26546" lon="2.61115">
        <ele>207</ele>
        <time>2017-02-05T16:22:25Z</time>
      </trkpt>
      <trkpt lat="48.26544" lon="2.6111">
        <ele>207</ele>
        <time>2017-02-05T16:22:28Z</time>
      </trkpt>
      <trkpt lat="48.26541" lon="2.61097">
        <ele>207</ele>
        <time>2017-02-05T16:22:34Z</time>
      </trkpt>
      <trkpt lat="48.26539" lon="2.61088">
        <ele>208</ele>
        <time>2017-02-05T16:22:38Z</time>
      </trkpt>
      <trkpt lat="48.26536" lon="2.61079">
        <ele>208</ele>
        <time>2017-02-05T16:22:42Z</time>
      </trkpt>
      <trkpt lat="48.26532" lon="2.61063">
        <ele>208</ele>
        <time>2017-02-05T16:22:48Z</time>
      </trkpt>
      <trkpt lat="48.26528" lon="2.6104">
        <ele>208</ele>
        <time>2017-02-05T16:22:56Z</time>
      </trkpt>
      <trkpt lat="48.26523" lon="2.61019">
        <ele>208</ele>
        <time>2017-02-05T16:23:03Z</time>
      </trkpt>
      <trkpt lat="48.26522" lon="2.61012">
        <ele>209</ele>
        <time>2017-02-05T16:23:05Z</time>
      </trkpt>
      <trkpt lat="48.26516" lon="2.60991">
        <ele>209</ele>
        <time>2017-02-05T16:23:12Z</time>
      </trkpt>
      <trkpt lat="48.26507" lon="2.6096">
        <ele>209</ele>
        <time>2017-02-05T16:23:21Z</time>
      </trkpt>
      <trkpt lat="48.26497" lon="2.6093">
        <ele>209</ele>
        <time>2017-02-05T16:23:29Z</time>
      </trkpt>
      <trkpt lat="48.26488" lon="2.60903">
        <ele>208</ele>
        <time>2017-02-05T16:23:36Z</time>
      </trkpt>
      <trkpt lat="48.26484" lon="2.60876">
        <ele>207</ele>
        <time>2017-02-05T16:23:42Z</time>
      </trkpt>
      <trkpt lat="48.26478" lon="2.60843">
        <ele>207</ele>
        <time>2017-02-05T16:23:49Z</time>
      </trkpt>
      <trkpt lat="48.26475" lon="2.60829">
        <ele>206</ele>
        <time>2017-02-05T16:23:52Z</time>
      </trkpt>
      <trkpt lat="48.26472" lon="2.60813">
        <ele>206</ele>
        <time>2017-02-05T16:23:55Z</time>
      </trkpt>
      <trkpt lat="48.26469" lon="2.60799">
        <ele>205</ele>
        <time>2017-02-05T16:23:57Z</time>
      </trkpt>
      <trkpt lat="48.26468" lon="2.60792">
        <ele>205</ele>
        <time>2017-02-05T16:23:58Z</time>
      </trkpt>
      <trkpt lat="48.26462" lon="2.60776">
        <ele>204</ele>
        <time>2017-02-05T16:24:00Z</time>
      </trkpt>
      <trkpt lat="48.26459" lon="2.60767">
        <ele>204</ele>
        <time>2017-02-05T16:24:01Z</time>
      </trkpt>
      <trkpt lat="48.26457" lon="2.60758">
        <ele>203</ele>
        <time>2017-02-05T16:24:02Z</time>
      </trkpt>
      <trkpt lat="48.26455" lon="2.60741">
        <ele>203</ele>
        <time>2017-02-05T16:24:04Z</time>
      </trkpt>
      <trkpt lat="48.26455" lon="2.60731">
        <ele>202</ele>
        <time>2017-02-05T16:24:05Z</time>
      </trkpt>
      <trkpt lat="48.26456" lon="2.60706">
        <ele>201</ele>
        <time>2017-02-05T16:24:08Z</time>
      </trkpt>
      <trkpt lat="48.26456" lon="2.60698">
        <ele>201</ele>
        <time>2017-02-05T16:24:09Z</time>
      </trkpt>
      <trkpt lat="48.26454" lon="2.60664">
        <ele>200</ele>
        <time>2017-02-05T16:24:14Z</time>
      </trkpt>
      <trkpt lat="48.26455" lon="2.60642">
        <ele>200</ele>
        <time>2017-02-05T16:24:18Z</time>
      </trkpt>
      <trkpt lat="48.26457" lon="2.60634">
        <ele>200</ele>
        <time>2017-02-05T16:24:20Z</time>
      </trkpt>
      <trkpt lat="48.26461" lon="2.60627">
        <ele>200</ele>
        <time>2017-02-05T16:24:22Z</time>
      </trkpt>
      <trkpt lat="48.26468" lon="2.60628">
        <ele>200</ele>
        <time>2017-02-05T16:24:24Z</time>
      </trkpt>
      <trkpt lat="48.26478" lon="2.60639">
        <ele>200</ele>
        <time>2017-02-05T16:24:27Z</time>
      </trkpt>
      <trkpt lat="48.26482" lon="2.60644">
        <ele>199</ele>
        <time>2017-02-05T16:24:28Z</time>
      </trkpt>
      <trkpt lat="48.26491" lon="2.60652">
        <ele>199</ele>
        <time>2017-02-05T16:24:30Z</time>
      </trkpt>
      <trkpt lat="48.26505" lon="2.6066">
        <ele>198</ele>
        <time>2017-02-05T16:24:33Z</time>
      </trkpt>
      <trkpt lat="48.2651" lon="2.60661">
        <ele>198</ele>
        <time>2017-02-05T16:24:34Z</time>
      </trkpt>
      <trkpt lat="48.26515" lon="2.6066">
        <ele>198</ele>
        <time>2017-02-05T16:24:35Z</time>
      </trkpt>
      <trkpt lat="48.26525" lon="2.60659">
        <ele>197</ele>
        <time>2017-02-05T16:24:37Z</time>
      </trkpt>
      <trkpt lat="48.2653" lon="2.60659">
        <ele>197</ele>
        <time>2017-02-05T16:24:38Z</time>
      </trkpt>
      <trkpt lat="48.26539" lon="2.60655">
        <ele>197</ele>
        <time>2017-02-05T16:24:40Z</time>
      </trkpt>
      <trkpt lat="48.26549" lon="2.60649">
        <ele>197</ele>
        <time>2017-02-05T16:24:42Z</time>
      </trkpt>
      <trkpt lat="48.2656" lon="2.6063">
        <ele>195</ele>
        <time>2017-02-05T16:24:45Z</time>
      </trkpt>
      <trkpt lat="48.26562" lon="2.60621">
        <ele>195</ele>
        <time>2017-02-05T16:24:46Z</time>
      </trkpt>
      <trkpt lat="48.26564" lon="2.60611">
        <ele>194</ele>
        <time>2017-02-05T16:24:47Z</time>
      </trkpt>
      <trkpt lat="48.26567" lon="2.60601">
        <ele>193</ele>
        <time>2017-02-05T16:24:48Z</time>
      </trkpt>
      <trkpt lat="48.26572" lon="2.60592">
        <ele>193</ele>
        <time>2017-02-05T16:24:49Z</time>
      </trkpt>
      <trkpt lat="48.26579" lon="2.60584">
        <ele>191</ele>
        <time>2017-02-05T16:24:50Z</time>
      </trkpt>
      <trkpt lat="48.26595" lon="2.60576">
        <ele>190</ele>
        <time>2017-02-05T16:24:52Z</time>
      </trkpt>
      <trkpt lat="48.26604" lon="2.60574">
        <ele>189</ele>
        <time>2017-02-05T16:24:53Z</time>
      </trkpt>
      <trkpt lat="48.26622" lon="2.60571">
        <ele>188</ele>
        <time>2017-02-05T16:24:55Z</time>
      </trkpt>
      <trkpt lat="48.26631" lon="2.60569">
        <ele>187</ele>
        <time>2017-02-05T16:24:56Z</time>
      </trkpt>
      <trkpt lat="48.2665" lon="2.60568">
        <ele>185</ele>
        <time>2017-02-05T16:24:58Z</time>
      </trkpt>
      <trkpt lat="48.26669" lon="2.60569">
        <ele>184</ele>
        <time>2017-02-05T16:25:00Z</time>
      </trkpt>
      <trkpt lat="48.26678" lon="2.60569">
        <ele>183</ele>
        <time>2017-02-05T16:25:01Z</time>
      </trkpt>
      <trkpt lat="48.26686" lon="2.6057">
        <ele>182</ele>
        <time>2017-02-05T16:25:02Z</time>
      </trkpt>
      <trkpt lat="48.2671" lon="2.60569">
        <ele>181</ele>
        <time>2017-02-05T16:25:05Z</time>
      </trkpt>
      <trkpt lat="48.26718" lon="2.60567">
        <ele>181</ele>
        <time>2017-02-05T16:25:06Z</time>
      </trkpt>
      <trkpt lat="48.26737" lon="2.60557">
        <ele>180</ele>
        <time>2017-02-05T16:25:09Z</time>
      </trkpt>
      <trkpt lat="48.26742" lon="2.60553">
        <ele>179</ele>
        <time>2017-02-05T16:25:10Z</time>
      </trkpt>
      <trkpt lat="48.26748" lon="2.60549">
        <ele>179</ele>
        <time>2017-02-05T16:25:11Z</time>
      </trkpt>
      <trkpt lat="48.26757" lon="2.60552">
        <ele>179</ele>
        <time>2017-02-05T16:25:13Z</time>
      </trkpt>
      <trkpt lat="48.2676" lon="2.60558">
        <ele>178</ele>
        <time>2017-02-05T16:25:14Z</time>
      </trkpt>
      <trkpt lat="48.26763" lon="2.60574">
        <ele>178</ele>
        <time>2017-02-05T16:25:16Z</time>
      </trkpt>
      <trkpt lat="48.26773" lon="2.60633">
        <ele>177</ele>
        <time>2017-02-05T16:25:23Z</time>
      </trkpt>
      <trkpt lat="48.26783" lon="2.60671">
        <ele>177</ele>
        <time>2017-02-05T16:25:28Z</time>
      </trkpt>
      <trkpt lat="48.26788" lon="2.60687">
        <ele>177</ele>
        <time>2017-02-05T16:25:30Z</time>
      </trkpt>
      <trkpt lat="48.26803" lon="2.60724">
        <ele>177</ele>
        <time>2017-02-05T16:25:35Z</time>
      </trkpt>
      <trkpt lat="48.26805" lon="2.60731">
        <ele>177</ele>
        <time>2017-02-05T16:25:36Z</time>
      </trkpt>
      <trkpt lat="48.26826" lon="2.60786">
        <ele>177</ele>
        <time>2017-02-05T16:25:44Z</time>
      </trkpt>
      <trkpt lat="48.26842" lon="2.60833">
        <ele>176</ele>
        <time>2017-02-05T16:25:50Z</time>
      </trkpt>
      <trkpt lat="48.26847" lon="2.60847">
        <ele>176</ele>
        <time>2017-02-05T16:25:52Z</time>
      </trkpt>
      <trkpt lat="48.26861" lon="2.60888">
        <ele>176</ele>
        <time>2017-02-05T16:25:58Z</time>
      </trkpt>
      <trkpt lat="48.26874" lon="2.60922">
        <ele>175</ele>
        <time>2017-02-05T16:26:04Z</time>
      </trkpt>
      <trkpt lat="48.26876" lon="2.60928">
        <ele>175</ele>
        <time>2017-02-05T16:26:05Z</time>
      </trkpt>
      <trkpt lat="48.26881" lon="2.60935">
        <ele>175</ele>
        <time>2017-02-05T16:26:07Z</time>
      </trkpt>
      <trkpt lat="48.26884" lon="2.60935">
        <ele>175</ele>
        <time>2017-02-05T16:26:08Z</time>
      </trkpt>
      <trkpt lat="48.26888" lon="2.60924">
        <ele>175</ele>
        <time>2017-02-05T16:26:11Z</time>
      </trkpt>
      <trkpt lat="48.26888" lon="2.60914">
        <ele>175</ele>
        <time>2017-02-05T16:26:13Z</time>
      </trkpt>
      <trkpt lat="48.26887" lon="2.60893">
        <ele>176</ele>
        <time>2017-02-05T16:26:17Z</time>
      </trkpt>
      <trkpt lat="48.26894" lon="2.60866">
        <ele>177</ele>
        <time>2017-02-05T16:26:23Z</time>
      </trkpt>
      <trkpt lat="48.269" lon="2.60859">
        <ele>177</ele>
        <time>2017-02-05T16:26:26Z</time>
      </trkpt>
      <trkpt lat="48.26906" lon="2.60851">
        <ele>177</ele>
        <time>2017-02-05T16:26:29Z</time>
      </trkpt>
      <trkpt lat="48.26921" lon="2.60836">
        <ele>178</ele>
        <time>2017-02-05T16:26:37Z</time>
      </trkpt>
      <trkpt lat="48.26923" lon="2.60834">
        <ele>178</ele>
        <time>2017-02-05T16:26:38Z</time>
      </trkpt>
      <trkpt lat="48.26935" lon="2.60824">
        <ele>179</ele>
        <time>2017-02-05T16:26:44Z</time>
      </trkpt>
      <trkpt lat="48.26946" lon="2.60817">
        <ele>179</ele>
        <time>2017-02-05T16:26:49Z</time>
      </trkpt>
      <trkpt lat="48.26948" lon="2.60816">
        <ele>179</ele>
        <time>2017-02-05T16:26:50Z</time>
      </trkpt>
      <trkpt lat="48.26961" lon="2.60808">
        <ele>180</ele>
        <time>2017-02-05T16:26:57Z</time>
      </trkpt>
      <trkpt lat="48.26965" lon="2.60806">
        <ele>180</ele>
        <time>2017-02-05T16:26:59Z</time>
      </trkpt>
      <trkpt lat="48.26971" lon="2.60802">
        <ele>181</ele>
        <time>2017-02-05T16:27:03Z</time>
      </trkpt>
      <trkpt lat="48.26979" lon="2.60797">
        <ele>182</ele>
        <time>2017-02-05T16:27:08Z</time>
      </trkpt>
      <trkpt lat="48.26981" lon="2.60797">
        <ele>182</ele>
        <time>2017-02-05T16:27:09Z</time>
      </trkpt>
      <trkpt lat="48.26989" lon="2.60793">
        <ele>183</ele>
        <time>2017-02-05T16:27:14Z</time>
      </trkpt>
      <trkpt lat="48.26991" lon="2.60791">
        <ele>183</ele>
        <time>2017-02-05T16:27:16Z</time>
      </trkpt>
      <trkpt lat="48.27" lon="2.60787">
        <ele>184</ele>
        <time>2017-02-05T16:27:22Z</time>
      </trkpt>
      <trkpt lat="48.27006" lon="2.60784">
        <ele>184</ele>
        <time>2017-02-05T16:27:25Z</time>
      </trkpt>
      <trkpt lat="48.27011" lon="2.60781">
        <ele>185</ele>
        <time>2017-02-05T16:27:28Z</time>
      </trkpt>
      <trkpt lat="48.27014" lon="2.60779">
        <ele>185</ele>
        <time>2017-02-05T16:27:30Z</time>
      </trkpt>
      <trkpt lat="48.27023" lon="2.60771">
        <ele>185</ele>
        <time>2017-02-05T16:27:35Z</time>
      </trkpt>
      <trkpt lat="48.27029" lon="2.60767">
        <ele>186</ele>
        <time>2017-02-05T16:27:39Z</time>
      </trkpt>
      <trkpt lat="48.27032" lon="2.60763">
        <ele>186</ele>
        <time>2017-02-05T16:27:42Z</time>
      </trkpt>
      <trkpt lat="48.27039" lon="2.60754">
        <ele>187</ele>
        <time>2017-02-05T16:27:48Z</time>
      </trkpt>
      <trkpt lat="48.2704" lon="2.60752">
        <ele>187</ele>
        <time>2017-02-05T16:27:49Z</time>
      </trkpt>
      <trkpt lat="48.27042" lon="2.6075">
        <ele>187</ele>
        <time>2017-02-05T16:27:51Z</time>
      </trkpt>
      <trkpt lat="48.27048" lon="2.60741">
        <ele>188</ele>
        <time>2017-02-05T16:27:58Z</time>
      </trkpt>
      <trkpt lat="48.27051" lon="2.60738">
        <ele>188</ele>
        <time>2017-02-05T16:28:00Z</time>
      </trkpt>
      <trkpt lat="48.27059" lon="2.6073">
        <ele>189</ele>
        <time>2017-02-05T16:28:05Z</time>
      </trkpt>
      <trkpt lat="48.27062" lon="2.60728">
        <ele>189</ele>
        <time>2017-02-05T16:28:07Z</time>
      </trkpt>
      <trkpt lat="48.27069" lon="2.60722">
        <ele>190</ele>
        <time>2017-02-05T16:28:13Z</time>
      </trkpt>
      <trkpt lat="48.27072" lon="2.60717">
        <ele>190</ele>
        <time>2017-02-05T16:28:17Z</time>
      </trkpt>
      <trkpt lat="48.27074" lon="2.60714">
        <ele>190</ele>
        <time>2017-02-05T16:28:19Z</time>
      </trkpt>
      <trkpt lat="48.27079" lon="2.60705">
        <ele>191</ele>
        <time>2017-02-05T16:28:26Z</time>
      </trkpt>
      <trkpt lat="48.27083" lon="2.60699">
        <ele>192</ele>
        <time>2017-02-05T16:28:31Z</time>
      </trkpt>
      <trkpt lat="48.27085" lon="2.60697">
        <ele>192</ele>
        <time>2017-02-05T16:28:33Z</time>
      </trkpt>
      <trkpt lat="48.27086" lon="2.60695">
        <ele>192</ele>
        <time>2017-02-05T16:28:34Z</time>
      </trkpt>
      <trkpt lat="48.27091" lon="2.60689">
        <ele>193</ele>
        <time>2017-02-05T16:28:41Z</time>
      </trkpt>
      <trkpt lat="48.27093" lon="2.60686">
        <ele>193</ele>
        <time>2017-02-05T16:28:43Z</time>
      </trkpt>
      <trkpt lat="48.27097" lon="2.60681">
        <ele>194</ele>
        <time>2017-02-05T16:28:47Z</time>
      </trkpt>
      <trkpt lat="48.27101" lon="2.60675">
        <ele>194</ele>
        <time>2017-02-05T16:28:52Z</time>
      </trkpt>
      <trkpt lat="48.27103" lon="2.60672">
        <ele>195</ele>
        <time>2017-02-05T16:28:54Z</time>
      </trkpt>
      <trkpt lat="48.27109" lon="2.60663">
        <ele>195</ele>
        <time>2017-02-05T16:29:01Z</time>
      </trkpt>
      <trkpt lat="48.2711" lon="2.60662">
        <ele>195</ele>
        <time>2017-02-05T16:29:02Z</time>
      </trkpt>
      <trkpt lat="48.27117" lon="2.60654">
        <ele>196</ele>
        <time>2017-02-05T16:29:08Z</time>
      </trkpt>
      <trkpt lat="48.2712" lon="2.60649">
        <ele>196</ele>
        <time>2017-02-05T16:29:12Z</time>
      </trkpt>
      <trkpt lat="48.27122" lon="2.60643">
        <ele>197</ele>
        <time>2017-02-05T16:29:15Z</time>
      </trkpt>
      <trkpt lat="48.27125" lon="2.60636">
        <ele>197</ele>
        <time>2017-02-05T16:29:20Z</time>
      </trkpt>
      <trkpt lat="48.27127" lon="2.60632">
        <ele>198</ele>
        <time>2017-02-05T16:29:22Z</time>
      </trkpt>
      <trkpt lat="48.27132" lon="2.60621">
        <ele>198</ele>
        <time>2017-02-05T16:29:28Z</time>
      </trkpt>
      <trkpt lat="48.27134" lon="2.60619">
        <ele>199</ele>
        <time>2017-02-05T16:29:30Z</time>
      </trkpt>
      <trkpt lat="48.27143" lon="2.60614">
        <ele>200</ele>
        <time>2017-02-05T16:29:37Z</time>
      </trkpt>
      <trkpt lat="48.27143" lon="2.60614">
        <ele>200</ele>
        <time>2017-02-05T16:29:38Z</time>
      </trkpt>
      <trkpt lat="48.2715" lon="2.60611">
        <ele>201</ele>
        <time>2017-02-05T16:29:43Z</time>
      </trkpt>
      <trkpt lat="48.27153" lon="2.6061">
        <ele>201</ele>
        <time>2017-02-05T16:29:45Z</time>
      </trkpt>
      <trkpt lat="48.2716" lon="2.60607">
        <ele>202</ele>
        <time>2017-02-05T16:29:51Z</time>
      </trkpt>
      <trkpt lat="48.27167" lon="2.60603">
        <ele>203</ele>
        <time>2017-02-05T16:29:57Z</time>
      </trkpt>
      <trkpt lat="48.27168" lon="2.60603">
        <ele>204</ele>
        <time>2017-02-05T16:29:59Z</time>
      </trkpt>
      <trkpt lat="48.27171" lon="2.606">
        <ele>204</ele>
        <time>2017-02-05T16:30:03Z</time>
      </trkpt>
      <trkpt lat="48.27174" lon="2.60599">
        <ele>205</ele>
        <time>2017-02-05T16:30:05Z</time>
      </trkpt>
      <trkpt lat="48.27176" lon="2.60598">
        <ele>205</ele>
        <time>2017-02-05T16:30:08Z</time>
      </trkpt>
      <trkpt lat="48.27179" lon="2.60595">
        <ele>206</ele>
        <time>2017-02-05T16:30:13Z</time>
      </trkpt>
      <trkpt lat="48.27181" lon="2.60595">
        <ele>206</ele>
        <time>2017-02-05T16:30:15Z</time>
      </trkpt>
      <trkpt lat="48.27186" lon="2.60593">
        <ele>207</ele>
        <time>2017-02-05T16:30:21Z</time>
      </trkpt>
      <trkpt lat="48.27187" lon="2.60593">
        <ele>207</ele>
        <time>2017-02-05T16:30:22Z</time>
      </trkpt>
      <trkpt lat="48.27194" lon="2.60588">
        <ele>208</ele>
        <time>2017-02-05T16:30:29Z</time>
      </trkpt>
      <trkpt lat="48.27195" lon="2.60587">
        <ele>209</ele>
        <time>2017-02-05T16:30:30Z</time>
      </trkpt>
      <trkpt lat="48.27201" lon="2.6058">
        <ele>209</ele>
        <time>2017-02-05T16:30:36Z</time>
      </trkpt>
      <trkpt lat="48.27206" lon="2.60574">
        <ele>210</ele>
        <time>2017-02-05T16:30:41Z</time>
      </trkpt>
      <trkpt lat="48.27209" lon="2.60569">
        <ele>210</ele>
        <time>2017-02-05T16:30:44Z</time>
      </trkpt>
      <trkpt lat="48.27219" lon="2.60557">
        <ele>210</ele>
        <time>2017-02-05T16:30:52Z</time>
      </trkpt>
      <trkpt lat="48.27223" lon="2.60552">
        <ele>210</ele>
        <time>2017-02-05T16:30:55Z</time>
      </trkpt>
      <trkpt lat="48.27228" lon="2.60546">
        <ele>211</ele>
        <time>2017-02-05T16:30:59Z</time>
      </trkpt>
      <trkpt lat="48.27239" lon="2.60537">
        <ele>211</ele>
        <time>2017-02-05T16:31:07Z</time>
      </trkpt>
      <trkpt lat="48.27252" lon="2.6053">
        <ele>211</ele>
        <time>2017-02-05T16:31:15Z</time>
      </trkpt>
      <trkpt lat="48.27267" lon="2.6052">
        <ele>211</ele>
        <time>2017-02-05T16:31:23Z</time>
      </trkpt>
      <trkpt lat="48.2728" lon="2.60512">
        <ele>211</ele>
        <time>2017-02-05T16:31:31Z</time>
      </trkpt>
      <trkpt lat="48.27292" lon="2.60503">
        <ele>212</ele>
        <time>2017-02-05T16:31:38Z</time>
      </trkpt>
      <trkpt lat="48.27294" lon="2.60502">
        <ele>212</ele>
        <time>2017-02-05T16:31:39Z</time>
      </trkpt>
      <trkpt lat="48.27307" lon="2.60493">
        <ele>212</ele>
        <time>2017-02-05T16:31:47Z</time>
      </trkpt>
      <trkpt lat="48.27319" lon="2.60482">
        <ele>212</ele>
        <time>2017-02-05T16:31:55Z</time>
      </trkpt>
      <trkpt lat="48.27333" lon="2.60472">
        <ele>212</ele>
        <time>2017-02-05T16:32:03Z</time>
      </trkpt>
      <trkpt lat="48.27348" lon="2.60461">
        <ele>213</ele>
        <time>2017-02-05T16:32:12Z</time>
      </trkpt>
      <trkpt lat="48.27357" lon="2.60454">
        <ele>213</ele>
        <time>2017-02-05T16:32:18Z</time>
      </trkpt>
      <trkpt lat="48.27363" lon="2.6045">
        <ele>213</ele>
        <time>2017-02-05T16:32:21Z</time>
      </trkpt>
      <trkpt lat="48.27376" lon="2.60439">
        <ele>213</ele>
        <time>2017-02-05T16:32:29Z</time>
      </trkpt>
      <trkpt lat="48.27392" lon="2.60427">
        <ele>213</ele>
        <time>2017-02-05T16:32:38Z</time>
      </trkpt>
      <trkpt lat="48.27407" lon="2.60416">
        <ele>214</ele>
        <time>2017-02-05T16:32:46Z</time>
      </trkpt>
      <trkpt lat="48.27423" lon="2.60404">
        <ele>214</ele>
        <time>2017-02-05T16:32:55Z</time>
      </trkpt>
      <trkpt lat="48.27425" lon="2.60402">
        <ele>214</ele>
        <time>2017-02-05T16:32:56Z</time>
      </trkpt>
      <trkpt lat="48.27443" lon="2.60387">
        <ele>214</ele>
        <time>2017-02-05T16:33:07Z</time>
      </trkpt>
      <trkpt lat="48.27461" lon="2.60376">
        <ele>214</ele>
        <time>2017-02-05T16:33:15Z</time>
      </trkpt>
      <trkpt lat="48.27478" lon="2.60365">
        <ele>214</ele>
        <time>2017-02-05T16:33:22Z</time>
      </trkpt>
      <trkpt lat="48.27493" lon="2.60353">
        <ele>214</ele>
        <time>2017-02-05T16:33:29Z</time>
      </trkpt>
      <trkpt lat="48.27505" lon="2.60345">
        <ele>214</ele>
        <time>2017-02-05T16:33:35Z</time>
      </trkpt>
      <trkpt lat="48.27519" lon="2.60332">
        <ele>214</ele>
        <time>2017-02-05T16:33:43Z</time>
      </trkpt>
      <trkpt lat="48.27535" lon="2.60321">
        <ele>214</ele>
        <time>2017-02-05T16:33:51Z</time>
      </trkpt>
      <trkpt lat="48.27548" lon="2.60311">
        <ele>214</ele>
        <time>2017-02-05T16:33:58Z</time>
      </trkpt>
      <trkpt lat="48.27567" lon="2.60297">
        <ele>215</ele>
        <time>2017-02-05T16:34:09Z</time>
      </trkpt>
      <trkpt lat="48.2758" lon="2.60287">
        <ele>215</ele>
        <time>2017-02-05T16:34:16Z</time>
      </trkpt>
      <trkpt lat="48.27593" lon="2.60276">
        <ele>215</ele>
        <time>2017-02-05T16:34:23Z</time>
      </trkpt>
      <trkpt lat="48.27611" lon="2.60264">
        <ele>215</ele>
        <time>2017-02-05T16:34:32Z</time>
      </trkpt>
      <trkpt lat="48.27625" lon="2.60254">
        <ele>215</ele>
        <time>2017-02-05T16:34:39Z</time>
      </trkpt>
      <trkpt lat="48.2764" lon="2.60244">
        <ele>215</ele>
        <time>2017-02-05T16:34:46Z</time>
      </trkpt>
      <trkpt lat="48.27645" lon="2.60238">
        <ele>214</ele>
        <time>2017-02-05T16:34:51Z</time>
      </trkpt>
      <trkpt lat="48.27645" lon="2.60237">
        <ele>214</ele>
        <time>2017-02-05T16:35:35Z</time>
      </trkpt>
      <trkpt lat="48.27645" lon="2.60238">
        <ele>214</ele>
        <time>2017-02-05T16:36:10Z</time>
      </trkpt>
      <trkpt lat="48.27646" lon="2.60238">
        <ele>214</ele>
        <time>2017-02-05T16:36:49Z</time>
      </trkpt>
      <trkpt lat="48.27649" lon="2.60236">
        <ele>214</ele>
        <time>2017-02-05T16:36:51Z</time>
      </trkpt>
      <trkpt lat="48.27664" lon="2.60225">
        <ele>214</ele>
        <time>2017-02-05T16:36:58Z</time>
      </trkpt>
      <trkpt lat="48.27683" lon="2.60216">
        <ele>213</ele>
        <time>2017-02-05T16:37:04Z</time>
      </trkpt>
      <trkpt lat="48.27686" lon="2.60216">
        <ele>213</ele>
        <time>2017-02-05T16:37:05Z</time>
      </trkpt>
      <trkpt lat="48.277" lon="2.60211">
        <ele>212</ele>
        <time>2017-02-05T16:37:09Z</time>
      </trkpt>
      <trkpt lat="48.27705" lon="2.6021">
        <ele>211</ele>
        <time>2017-02-05T16:37:10Z</time>
      </trkpt>
      <trkpt lat="48.27711" lon="2.60209">
        <ele>211</ele>
        <time>2017-02-05T16:37:11Z</time>
      </trkpt>
      <trkpt lat="48.27724" lon="2.60206">
        <ele>210</ele>
        <time>2017-02-05T16:37:13Z</time>
      </trkpt>
      <trkpt lat="48.2774" lon="2.60204">
        <ele>207</ele>
        <time>2017-02-05T16:37:15Z</time>
      </trkpt>
      <trkpt lat="48.27748" lon="2.60205">
        <ele>206</ele>
        <time>2017-02-05T16:37:16Z</time>
      </trkpt>
      <trkpt lat="48.27757" lon="2.60205">
        <ele>204</ele>
        <time>2017-02-05T16:37:17Z</time>
      </trkpt>
      <trkpt lat="48.27767" lon="2.60205">
        <ele>203</ele>
        <time>2017-02-05T16:37:18Z</time>
      </trkpt>
      <trkpt lat="48.27776" lon="2.60203">
        <ele>202</ele>
        <time>2017-02-05T16:37:19Z</time>
      </trkpt>
      <trkpt lat="48.27786" lon="2.60201">
        <ele>201</ele>
        <time>2017-02-05T16:37:20Z</time>
      </trkpt>
      <trkpt lat="48.27796" lon="2.60198">
        <ele>200</ele>
        <time>2017-02-05T16:37:21Z</time>
      </trkpt>
      <trkpt lat="48.27816" lon="2.60189">
        <ele>198</ele>
        <time>2017-02-05T16:37:23Z</time>
      </trkpt>
      <trkpt lat="48.27827" lon="2.60185">
        <ele>197</ele>
        <time>2017-02-05T16:37:24Z</time>
      </trkpt>
      <trkpt lat="48.27837" lon="2.60181">
        <ele>196</ele>
        <time>2017-02-05T16:37:25Z</time>
      </trkpt>
      <trkpt lat="48.27858" lon="2.60177">
        <ele>194</ele>
        <time>2017-02-05T16:37:27Z</time>
      </trkpt>
      <trkpt lat="48.27878" lon="2.60173">
        <ele>192</ele>
        <time>2017-02-05T16:37:29Z</time>
      </trkpt>
      <trkpt lat="48.27888" lon="2.60171">
        <ele>191</ele>
        <time>2017-02-05T16:37:30Z</time>
      </trkpt>
      <trkpt lat="48.27898" lon="2.60169">
        <ele>191</ele>
        <time>2017-02-05T16:37:31Z</time>
      </trkpt>
      <trkpt lat="48.27926" lon="2.60161">
        <ele>189</ele>
        <time>2017-02-05T16:37:34Z</time>
      </trkpt>
      <trkpt lat="48.27936" lon="2.60155">
        <ele>188</ele>
        <time>2017-02-05T16:37:35Z</time>
      </trkpt>
      <trkpt lat="48.27945" lon="2.60149">
        <ele>187</ele>
        <time>2017-02-05T16:37:36Z</time>
      </trkpt>
      <trkpt lat="48.27969" lon="2.60127">
        <ele>185</ele>
        <time>2017-02-05T16:37:39Z</time>
      </trkpt>
      <trkpt lat="48.27977" lon="2.60119">
        <ele>185</ele>
        <time>2017-02-05T16:37:40Z</time>
      </trkpt>
      <trkpt lat="48.27991" lon="2.60102">
        <ele>184</ele>
        <time>2017-02-05T16:37:42Z</time>
      </trkpt>
      <trkpt lat="48.2801" lon="2.6008">
        <ele>183</ele>
        <time>2017-02-05T16:37:45Z</time>
      </trkpt>
      <trkpt lat="48.28023" lon="2.60067">
        <ele>182</ele>
        <time>2017-02-05T16:37:47Z</time>
      </trkpt>
      <trkpt lat="48.28029" lon="2.6006">
        <ele>182</ele>
        <time>2017-02-05T16:37:48Z</time>
      </trkpt>
      <trkpt lat="48.28052" lon="2.60031">
        <ele>181</ele>
        <time>2017-02-05T16:37:52Z</time>
      </trkpt>
      <trkpt lat="48.28062" lon="2.60016">
        <ele>180</ele>
        <time>2017-02-05T16:37:54Z</time>
      </trkpt>
      <trkpt lat="48.28085" lon="2.59986">
        <ele>180</ele>
        <time>2017-02-05T16:37:58Z</time>
      </trkpt>
      <trkpt lat="48.28095" lon="2.59969">
        <ele>179</ele>
        <time>2017-02-05T16:38:00Z</time>
      </trkpt>
      <trkpt lat="48.28116" lon="2.59939">
        <ele>178</ele>
        <time>2017-02-05T16:38:04Z</time>
      </trkpt>
      <trkpt lat="48.28127" lon="2.59926">
        <ele>178</ele>
        <time>2017-02-05T16:38:06Z</time>
      </trkpt>
      <trkpt lat="48.28149" lon="2.59907">
        <ele>177</ele>
        <time>2017-02-05T16:38:10Z</time>
      </trkpt>
      <trkpt lat="48.28154" lon="2.59903">
        <ele>177</ele>
        <time>2017-02-05T16:38:11Z</time>
      </trkpt>
      <trkpt lat="48.2816" lon="2.59899">
        <ele>177</ele>
        <time>2017-02-05T16:38:12Z</time>
      </trkpt>
      <trkpt lat="48.28166" lon="2.59895">
        <ele>177</ele>
        <time>2017-02-05T16:38:13Z</time>
      </trkpt>
      <trkpt lat="48.28189" lon="2.5988">
        <ele>176</ele>
        <time>2017-02-05T16:38:17Z</time>
      </trkpt>
      <trkpt lat="48.28194" lon="2.59877">
        <ele>176</ele>
        <time>2017-02-05T16:38:18Z</time>
      </trkpt>
      <trkpt lat="48.28211" lon="2.59866">
        <ele>175</ele>
        <time>2017-02-05T16:38:21Z</time>
      </trkpt>
      <trkpt lat="48.28234" lon="2.59853">
        <ele>175</ele>
        <time>2017-02-05T16:38:25Z</time>
      </trkpt>
      <trkpt lat="48.28246" lon="2.59845">
        <ele>174</ele>
        <time>2017-02-05T16:38:27Z</time>
      </trkpt>
      <trkpt lat="48.28277" lon="2.59825">
        <ele>173</ele>
        <time>2017-02-05T16:38:32Z</time>
      </trkpt>
      <trkpt lat="48.28283" lon="2.5982">
        <ele>173</ele>
        <time>2017-02-05T16:38:33Z</time>
      </trkpt>
      <trkpt lat="48.28297" lon="2.59808">
        <ele>172</ele>
        <time>2017-02-05T16:38:36Z</time>
      </trkpt>
      <trkpt lat="48.28301" lon="2.59805">
        <ele>171</ele>
        <time>2017-02-05T16:38:37Z</time>
      </trkpt>
      <trkpt lat="48.28316" lon="2.5979">
        <ele>171</ele>
        <time>2017-02-05T16:38:42Z</time>
      </trkpt>
      <trkpt lat="48.28319" lon="2.59785">
        <ele>170</ele>
        <time>2017-02-05T16:38:44Z</time>
      </trkpt>
      <trkpt lat="48.2832" lon="2.59784">
        <ele>170</ele>
        <time>2017-02-05T16:38:45Z</time>
      </trkpt>
      <trkpt lat="48.28321" lon="2.59783">
        <ele>170</ele>
        <time>2017-02-05T16:38:48Z</time>
      </trkpt>
      <trkpt lat="48.28322" lon="2.59783">
        <ele>170</ele>
        <time>2017-02-05T16:38:56Z</time>
      </trkpt>
      <trkpt lat="48.28322" lon="2.59783">
        <ele>170</ele>
        <time>2017-02-05T16:39:03Z</time>
      </trkpt>
      <trkpt lat="48.28322" lon="2.59782">
        <ele>170</ele>
        <time>2017-02-05T16:39:19Z</time>
      </trkpt>
    </trkseg>
  </trk>
</gpx>